<?xml version="1.0" encoding="UTF-8" standalone="no" ?>
<gpx xmlns="http://www.topografix.com/GPX/1/1" xmlns:xsi="http://www.w3.org/2001/XMLSchema-instance" xsi:schemaLocation="http://www.topografix.com/GPX/1/1 http://www.topografix.com/GPX/1/1/gpx.xsd" version="1.1" creator="VisuGPX - https://www.visugpx.com">
  <metadata>
    <name>2016-10-12 Bike ride-Chatillon-Limas</name>
    <desc><![CDATA[2016-10-12 Bike ride-Chatillon-Limas]]></desc>
  </metadata>
  <wpt lat="45.92467" lon="4.73728">
    <ele>174</ele>
    <name><![CDATA[2016-10-12 16:20 (Start)]]></name>
  </wpt>
  <wpt lat="45.92458" lon="4.73708">
    <ele>174</ele>
    <name><![CDATA[2016-10-12 16:20 (End)]]></name>
    <desc><![CDATA[Created by Google My Tracks on Android  Name: 2016-10-12 16:20 Activity type: biking Description: - Total distance: 38.53 km (23.9 mi) Total time: 1:52:32 Moving time: 1:51:00 Average speed: 20.54 km/h (12.8 mi/h) Average moving speed: 20.82 km/h (12.9 mi/h) Max speed: 48.16 km/h (29.9 mi/h) Average pace: 2:55 min/km (4:42 min/mi) Average moving pace: 2:53 min/km (4:38 min/mi) Fastest pace: 1:15 min/km (2:00 min/mi) Max elevation: 427 m (1402 ft) Min elevation: 164 m (538 ft) Elevation gain: 766 m (2514 ft) Max grade: 30 % Min grade: -18 % Recorded: 12/10/2016 16:20]]></desc>
  </wpt>
  <trk>
    <name><![CDATA[2016-10-12 16:20]]></name>
    <trkseg>
      <trkpt lat="45.92467" lon="4.73728">
        <ele>174</ele>
        <time>2016-10-12T14:20:01.384Z</time>
      </trkpt>
      <trkpt lat="45.92464" lon="4.73721">
        <ele>174</ele>
        <time>2016-10-12T14:20:19Z</time>
      </trkpt>
      <trkpt lat="45.92456" lon="4.73721">
        <ele>174</ele>
        <time>2016-10-12T14:20:20Z</time>
      </trkpt>
      <trkpt lat="45.92459" lon="4.73721">
        <ele>174</ele>
        <time>2016-10-12T14:21:46Z</time>
      </trkpt>
      <trkpt lat="45.92483" lon="4.73644">
        <ele>174</ele>
        <time>2016-10-12T14:21:55Z</time>
      </trkpt>
      <trkpt lat="45.92484" lon="4.73634">
        <ele>174</ele>
        <time>2016-10-12T14:22:00Z</time>
      </trkpt>
      <trkpt lat="45.92472" lon="4.73561">
        <ele>173</ele>
        <time>2016-10-12T14:22:08Z</time>
      </trkpt>
      <trkpt lat="45.92468" lon="4.7355">
        <ele>173</ele>
        <time>2016-10-12T14:22:11Z</time>
      </trkpt>
      <trkpt lat="45.92466" lon="4.73546">
        <ele>173</ele>
        <time>2016-10-12T14:22:12Z</time>
      </trkpt>
      <trkpt lat="45.92458" lon="4.73545">
        <ele>174</ele>
        <time>2016-10-12T14:22:14Z</time>
      </trkpt>
      <trkpt lat="45.92453" lon="4.73546">
        <ele>174</ele>
        <time>2016-10-12T14:22:15Z</time>
      </trkpt>
      <trkpt lat="45.92448" lon="4.73548">
        <ele>174</ele>
        <time>2016-10-12T14:22:16Z</time>
      </trkpt>
      <trkpt lat="45.92443" lon="4.73549">
        <ele>174</ele>
        <time>2016-10-12T14:22:17Z</time>
      </trkpt>
      <trkpt lat="45.92438" lon="4.73551">
        <ele>174</ele>
        <time>2016-10-12T14:22:18Z</time>
      </trkpt>
      <trkpt lat="45.92433" lon="4.73552">
        <ele>174</ele>
        <time>2016-10-12T14:22:19Z</time>
      </trkpt>
      <trkpt lat="45.92428" lon="4.73554">
        <ele>174</ele>
        <time>2016-10-12T14:22:20Z</time>
      </trkpt>
      <trkpt lat="45.92424" lon="4.73557">
        <ele>174</ele>
        <time>2016-10-12T14:22:21Z</time>
      </trkpt>
      <trkpt lat="45.92419" lon="4.73559">
        <ele>174</ele>
        <time>2016-10-12T14:22:22Z</time>
      </trkpt>
      <trkpt lat="45.92413" lon="4.73562">
        <ele>173</ele>
        <time>2016-10-12T14:22:23Z</time>
      </trkpt>
      <trkpt lat="45.92408" lon="4.73564">
        <ele>173</ele>
        <time>2016-10-12T14:22:24Z</time>
      </trkpt>
      <trkpt lat="45.92402" lon="4.73567">
        <ele>173</ele>
        <time>2016-10-12T14:22:25Z</time>
      </trkpt>
      <trkpt lat="45.92398" lon="4.73569">
        <ele>173</ele>
        <time>2016-10-12T14:22:26Z</time>
      </trkpt>
      <trkpt lat="45.92393" lon="4.73572">
        <ele>173</ele>
        <time>2016-10-12T14:22:27Z</time>
      </trkpt>
      <trkpt lat="45.92386" lon="4.73575">
        <ele>173</ele>
        <time>2016-10-12T14:22:28Z</time>
      </trkpt>
      <trkpt lat="45.92381" lon="4.73578">
        <ele>173</ele>
        <time>2016-10-12T14:22:29Z</time>
      </trkpt>
      <trkpt lat="45.92376" lon="4.7358">
        <ele>173</ele>
        <time>2016-10-12T14:22:30Z</time>
      </trkpt>
      <trkpt lat="45.92372" lon="4.73583">
        <ele>173</ele>
        <time>2016-10-12T14:22:31Z</time>
      </trkpt>
      <trkpt lat="45.92366" lon="4.73586">
        <ele>173</ele>
        <time>2016-10-12T14:22:32Z</time>
      </trkpt>
      <trkpt lat="45.9236" lon="4.7359">
        <ele>173</ele>
        <time>2016-10-12T14:22:33Z</time>
      </trkpt>
      <trkpt lat="45.92354" lon="4.73593">
        <ele>173</ele>
        <time>2016-10-12T14:22:34Z</time>
      </trkpt>
      <trkpt lat="45.92349" lon="4.73596">
        <ele>173</ele>
        <time>2016-10-12T14:22:35Z</time>
      </trkpt>
      <trkpt lat="45.92345" lon="4.73599">
        <ele>173</ele>
        <time>2016-10-12T14:22:36Z</time>
      </trkpt>
      <trkpt lat="45.9234" lon="4.73603">
        <ele>173</ele>
        <time>2016-10-12T14:22:37Z</time>
      </trkpt>
      <trkpt lat="45.92329" lon="4.73609">
        <ele>172</ele>
        <time>2016-10-12T14:22:39Z</time>
      </trkpt>
      <trkpt lat="45.92323" lon="4.73612">
        <ele>172</ele>
        <time>2016-10-12T14:22:40Z</time>
      </trkpt>
      <trkpt lat="45.92318" lon="4.73615">
        <ele>172</ele>
        <time>2016-10-12T14:22:41Z</time>
      </trkpt>
      <trkpt lat="45.92312" lon="4.73618">
        <ele>172</ele>
        <time>2016-10-12T14:22:42Z</time>
      </trkpt>
      <trkpt lat="45.92307" lon="4.73621">
        <ele>172</ele>
        <time>2016-10-12T14:22:43Z</time>
      </trkpt>
      <trkpt lat="45.92303" lon="4.73625">
        <ele>172</ele>
        <time>2016-10-12T14:22:44Z</time>
      </trkpt>
      <trkpt lat="45.92298" lon="4.73629">
        <ele>172</ele>
        <time>2016-10-12T14:22:45Z</time>
      </trkpt>
      <trkpt lat="45.92293" lon="4.73632">
        <ele>172</ele>
        <time>2016-10-12T14:22:46Z</time>
      </trkpt>
      <trkpt lat="45.92289" lon="4.73635">
        <ele>172</ele>
        <time>2016-10-12T14:22:47Z</time>
      </trkpt>
      <trkpt lat="45.92283" lon="4.73638">
        <ele>172</ele>
        <time>2016-10-12T14:22:48Z</time>
      </trkpt>
      <trkpt lat="45.92277" lon="4.7364">
        <ele>172</ele>
        <time>2016-10-12T14:22:49Z</time>
      </trkpt>
      <trkpt lat="45.92271" lon="4.73644">
        <ele>172</ele>
        <time>2016-10-12T14:22:50Z</time>
      </trkpt>
      <trkpt lat="45.92265" lon="4.73647">
        <ele>172</ele>
        <time>2016-10-12T14:22:51Z</time>
      </trkpt>
      <trkpt lat="45.9226" lon="4.73649">
        <ele>171</ele>
        <time>2016-10-12T14:22:52Z</time>
      </trkpt>
      <trkpt lat="45.92254" lon="4.73652">
        <ele>171</ele>
        <time>2016-10-12T14:22:53Z</time>
      </trkpt>
      <trkpt lat="45.92249" lon="4.73655">
        <ele>171</ele>
        <time>2016-10-12T14:22:54Z</time>
      </trkpt>
      <trkpt lat="45.92244" lon="4.73657">
        <ele>171</ele>
        <time>2016-10-12T14:22:55Z</time>
      </trkpt>
      <trkpt lat="45.92238" lon="4.7366">
        <ele>171</ele>
        <time>2016-10-12T14:22:56Z</time>
      </trkpt>
      <trkpt lat="45.92232" lon="4.73662">
        <ele>171</ele>
        <time>2016-10-12T14:22:57Z</time>
      </trkpt>
      <trkpt lat="45.92226" lon="4.73665">
        <ele>171</ele>
        <time>2016-10-12T14:22:58Z</time>
      </trkpt>
      <trkpt lat="45.92221" lon="4.73668">
        <ele>171</ele>
        <time>2016-10-12T14:22:59Z</time>
      </trkpt>
      <trkpt lat="45.92215" lon="4.73671">
        <ele>171</ele>
        <time>2016-10-12T14:23:00Z</time>
      </trkpt>
      <trkpt lat="45.92209" lon="4.73674">
        <ele>171</ele>
        <time>2016-10-12T14:23:01Z</time>
      </trkpt>
      <trkpt lat="45.92203" lon="4.73677">
        <ele>171</ele>
        <time>2016-10-12T14:23:02Z</time>
      </trkpt>
      <trkpt lat="45.92198" lon="4.73681">
        <ele>171</ele>
        <time>2016-10-12T14:23:03Z</time>
      </trkpt>
      <trkpt lat="45.92192" lon="4.73684">
        <ele>171</ele>
        <time>2016-10-12T14:23:04Z</time>
      </trkpt>
      <trkpt lat="45.92188" lon="4.73689">
        <ele>171</ele>
        <time>2016-10-12T14:23:05Z</time>
      </trkpt>
      <trkpt lat="45.92182" lon="4.73692">
        <ele>171</ele>
        <time>2016-10-12T14:23:06Z</time>
      </trkpt>
      <trkpt lat="45.92177" lon="4.73695">
        <ele>171</ele>
        <time>2016-10-12T14:23:07Z</time>
      </trkpt>
      <trkpt lat="45.92172" lon="4.73697">
        <ele>171</ele>
        <time>2016-10-12T14:23:08Z</time>
      </trkpt>
      <trkpt lat="45.92166" lon="4.73699">
        <ele>171</ele>
        <time>2016-10-12T14:23:09Z</time>
      </trkpt>
      <trkpt lat="45.9216" lon="4.73701">
        <ele>171</ele>
        <time>2016-10-12T14:23:10Z</time>
      </trkpt>
      <trkpt lat="45.92155" lon="4.73704">
        <ele>171</ele>
        <time>2016-10-12T14:23:11Z</time>
      </trkpt>
      <trkpt lat="45.92149" lon="4.73706">
        <ele>171</ele>
        <time>2016-10-12T14:23:12Z</time>
      </trkpt>
      <trkpt lat="45.92144" lon="4.73709">
        <ele>171</ele>
        <time>2016-10-12T14:23:13Z</time>
      </trkpt>
      <trkpt lat="45.92138" lon="4.73711">
        <ele>171</ele>
        <time>2016-10-12T14:23:14Z</time>
      </trkpt>
      <trkpt lat="45.92132" lon="4.73713">
        <ele>171</ele>
        <time>2016-10-12T14:23:15Z</time>
      </trkpt>
      <trkpt lat="45.92127" lon="4.73715">
        <ele>171</ele>
        <time>2016-10-12T14:23:16Z</time>
      </trkpt>
      <trkpt lat="45.92121" lon="4.73717">
        <ele>171</ele>
        <time>2016-10-12T14:23:17Z</time>
      </trkpt>
      <trkpt lat="45.92115" lon="4.73718">
        <ele>171</ele>
        <time>2016-10-12T14:23:18Z</time>
      </trkpt>
      <trkpt lat="45.92111" lon="4.7372">
        <ele>171</ele>
        <time>2016-10-12T14:23:19Z</time>
      </trkpt>
      <trkpt lat="45.92105" lon="4.73722">
        <ele>171</ele>
        <time>2016-10-12T14:23:21Z</time>
      </trkpt>
      <trkpt lat="45.921" lon="4.73723">
        <ele>171</ele>
        <time>2016-10-12T14:23:22Z</time>
      </trkpt>
      <trkpt lat="45.92094" lon="4.73724">
        <ele>171</ele>
        <time>2016-10-12T14:23:23Z</time>
      </trkpt>
      <trkpt lat="45.92088" lon="4.73724">
        <ele>171</ele>
        <time>2016-10-12T14:23:24Z</time>
      </trkpt>
      <trkpt lat="45.92082" lon="4.73725">
        <ele>171</ele>
        <time>2016-10-12T14:23:25Z</time>
      </trkpt>
      <trkpt lat="45.92075" lon="4.73725">
        <ele>171</ele>
        <time>2016-10-12T14:23:26Z</time>
      </trkpt>
      <trkpt lat="45.92069" lon="4.73726">
        <ele>171</ele>
        <time>2016-10-12T14:23:27Z</time>
      </trkpt>
      <trkpt lat="45.92063" lon="4.73726">
        <ele>171</ele>
        <time>2016-10-12T14:23:28Z</time>
      </trkpt>
      <trkpt lat="45.92057" lon="4.73726">
        <ele>171</ele>
        <time>2016-10-12T14:23:29Z</time>
      </trkpt>
      <trkpt lat="45.9205" lon="4.73726">
        <ele>171</ele>
        <time>2016-10-12T14:23:30Z</time>
      </trkpt>
      <trkpt lat="45.92044" lon="4.73726">
        <ele>171</ele>
        <time>2016-10-12T14:23:31Z</time>
      </trkpt>
      <trkpt lat="45.92038" lon="4.73726">
        <ele>171</ele>
        <time>2016-10-12T14:23:38Z</time>
      </trkpt>
      <trkpt lat="45.92032" lon="4.73726">
        <ele>171</ele>
        <time>2016-10-12T14:23:39Z</time>
      </trkpt>
      <trkpt lat="45.92025" lon="4.73727">
        <ele>171</ele>
        <time>2016-10-12T14:23:40Z</time>
      </trkpt>
      <trkpt lat="45.92018" lon="4.73727">
        <ele>171</ele>
        <time>2016-10-12T14:23:41Z</time>
      </trkpt>
      <trkpt lat="45.92012" lon="4.73727">
        <ele>171</ele>
        <time>2016-10-12T14:23:42Z</time>
      </trkpt>
      <trkpt lat="45.92005" lon="4.73727">
        <ele>171</ele>
        <time>2016-10-12T14:23:43Z</time>
      </trkpt>
      <trkpt lat="45.91999" lon="4.73728">
        <ele>171</ele>
        <time>2016-10-12T14:23:44Z</time>
      </trkpt>
      <trkpt lat="45.91992" lon="4.73728">
        <ele>171</ele>
        <time>2016-10-12T14:23:45Z</time>
      </trkpt>
      <trkpt lat="45.91986" lon="4.73728">
        <ele>171</ele>
        <time>2016-10-12T14:23:46Z</time>
      </trkpt>
      <trkpt lat="45.91979" lon="4.73728">
        <ele>171</ele>
        <time>2016-10-12T14:23:47Z</time>
      </trkpt>
      <trkpt lat="45.91973" lon="4.73728">
        <ele>171</ele>
        <time>2016-10-12T14:23:48Z</time>
      </trkpt>
      <trkpt lat="45.91966" lon="4.73728">
        <ele>171</ele>
        <time>2016-10-12T14:23:49Z</time>
      </trkpt>
      <trkpt lat="45.9196" lon="4.73729">
        <ele>171</ele>
        <time>2016-10-12T14:23:50Z</time>
      </trkpt>
      <trkpt lat="45.91954" lon="4.73729">
        <ele>170</ele>
        <time>2016-10-12T14:23:51Z</time>
      </trkpt>
      <trkpt lat="45.91947" lon="4.73729">
        <ele>170</ele>
        <time>2016-10-12T14:23:52Z</time>
      </trkpt>
      <trkpt lat="45.91941" lon="4.73729">
        <ele>170</ele>
        <time>2016-10-12T14:23:53Z</time>
      </trkpt>
      <trkpt lat="45.91933" lon="4.73729">
        <ele>170</ele>
        <time>2016-10-12T14:23:54Z</time>
      </trkpt>
      <trkpt lat="45.91927" lon="4.73729">
        <ele>170</ele>
        <time>2016-10-12T14:23:55Z</time>
      </trkpt>
      <trkpt lat="45.9192" lon="4.73729">
        <ele>170</ele>
        <time>2016-10-12T14:23:56Z</time>
      </trkpt>
      <trkpt lat="45.91913" lon="4.73729">
        <ele>171</ele>
        <time>2016-10-12T14:23:57Z</time>
      </trkpt>
      <trkpt lat="45.91906" lon="4.73729">
        <ele>171</ele>
        <time>2016-10-12T14:23:58Z</time>
      </trkpt>
      <trkpt lat="45.91899" lon="4.73729">
        <ele>171</ele>
        <time>2016-10-12T14:23:59Z</time>
      </trkpt>
      <trkpt lat="45.91892" lon="4.73728">
        <ele>171</ele>
        <time>2016-10-12T14:24:00Z</time>
      </trkpt>
      <trkpt lat="45.91886" lon="4.73728">
        <ele>171</ele>
        <time>2016-10-12T14:24:01Z</time>
      </trkpt>
      <trkpt lat="45.91877" lon="4.73728">
        <ele>171</ele>
        <time>2016-10-12T14:24:02Z</time>
      </trkpt>
      <trkpt lat="45.91871" lon="4.73729">
        <ele>171</ele>
        <time>2016-10-12T14:24:03Z</time>
      </trkpt>
      <trkpt lat="45.91865" lon="4.73728">
        <ele>171</ele>
        <time>2016-10-12T14:24:04Z</time>
      </trkpt>
      <trkpt lat="45.91859" lon="4.73728">
        <ele>171</ele>
        <time>2016-10-12T14:24:05Z</time>
      </trkpt>
      <trkpt lat="45.91853" lon="4.73728">
        <ele>171</ele>
        <time>2016-10-12T14:24:06Z</time>
      </trkpt>
      <trkpt lat="45.91847" lon="4.73727">
        <ele>172</ele>
        <time>2016-10-12T14:24:07Z</time>
      </trkpt>
      <trkpt lat="45.91841" lon="4.73727">
        <ele>172</ele>
        <time>2016-10-12T14:24:08Z</time>
      </trkpt>
      <trkpt lat="45.91835" lon="4.73726">
        <ele>172</ele>
        <time>2016-10-12T14:24:09Z</time>
      </trkpt>
      <trkpt lat="45.91828" lon="4.73726">
        <ele>172</ele>
        <time>2016-10-12T14:24:10Z</time>
      </trkpt>
      <trkpt lat="45.91822" lon="4.73727">
        <ele>172</ele>
        <time>2016-10-12T14:24:11Z</time>
      </trkpt>
      <trkpt lat="45.91816" lon="4.73727">
        <ele>172</ele>
        <time>2016-10-12T14:24:12Z</time>
      </trkpt>
      <trkpt lat="45.9181" lon="4.73727">
        <ele>172</ele>
        <time>2016-10-12T14:24:13Z</time>
      </trkpt>
      <trkpt lat="45.91804" lon="4.73728">
        <ele>172</ele>
        <time>2016-10-12T14:24:14Z</time>
      </trkpt>
      <trkpt lat="45.91797" lon="4.73728">
        <ele>172</ele>
        <time>2016-10-12T14:24:15Z</time>
      </trkpt>
      <trkpt lat="45.91791" lon="4.73728">
        <ele>173</ele>
        <time>2016-10-12T14:24:16Z</time>
      </trkpt>
      <trkpt lat="45.91785" lon="4.73727">
        <ele>173</ele>
        <time>2016-10-12T14:24:17Z</time>
      </trkpt>
      <trkpt lat="45.91779" lon="4.73727">
        <ele>173</ele>
        <time>2016-10-12T14:24:18Z</time>
      </trkpt>
      <trkpt lat="45.91772" lon="4.73727">
        <ele>173</ele>
        <time>2016-10-12T14:24:19Z</time>
      </trkpt>
      <trkpt lat="45.91766" lon="4.73727">
        <ele>173</ele>
        <time>2016-10-12T14:24:20Z</time>
      </trkpt>
      <trkpt lat="45.91759" lon="4.73727">
        <ele>173</ele>
        <time>2016-10-12T14:24:21Z</time>
      </trkpt>
      <trkpt lat="45.91753" lon="4.73727">
        <ele>173</ele>
        <time>2016-10-12T14:24:22Z</time>
      </trkpt>
      <trkpt lat="45.91746" lon="4.73727">
        <ele>173</ele>
        <time>2016-10-12T14:24:23Z</time>
      </trkpt>
      <trkpt lat="45.9174" lon="4.73727">
        <ele>173</ele>
        <time>2016-10-12T14:24:24Z</time>
      </trkpt>
      <trkpt lat="45.91734" lon="4.73727">
        <ele>173</ele>
        <time>2016-10-12T14:24:25Z</time>
      </trkpt>
      <trkpt lat="45.91728" lon="4.73727">
        <ele>173</ele>
        <time>2016-10-12T14:24:26Z</time>
      </trkpt>
      <trkpt lat="45.91721" lon="4.73728">
        <ele>173</ele>
        <time>2016-10-12T14:24:27Z</time>
      </trkpt>
      <trkpt lat="45.91716" lon="4.7373">
        <ele>173</ele>
        <time>2016-10-12T14:24:28Z</time>
      </trkpt>
      <trkpt lat="45.9171" lon="4.73731">
        <ele>173</ele>
        <time>2016-10-12T14:24:29Z</time>
      </trkpt>
      <trkpt lat="45.91704" lon="4.73731">
        <ele>172</ele>
        <time>2016-10-12T14:24:30Z</time>
      </trkpt>
      <trkpt lat="45.91697" lon="4.73732">
        <ele>172</ele>
        <time>2016-10-12T14:24:31Z</time>
      </trkpt>
      <trkpt lat="45.91691" lon="4.73731">
        <ele>172</ele>
        <time>2016-10-12T14:24:32Z</time>
      </trkpt>
      <trkpt lat="45.91685" lon="4.73732">
        <ele>172</ele>
        <time>2016-10-12T14:24:33Z</time>
      </trkpt>
      <trkpt lat="45.91678" lon="4.73732">
        <ele>172</ele>
        <time>2016-10-12T14:24:34Z</time>
      </trkpt>
      <trkpt lat="45.91672" lon="4.73733">
        <ele>172</ele>
        <time>2016-10-12T14:24:35Z</time>
      </trkpt>
      <trkpt lat="45.91666" lon="4.73733">
        <ele>172</ele>
        <time>2016-10-12T14:24:36Z</time>
      </trkpt>
      <trkpt lat="45.91659" lon="4.73733">
        <ele>172</ele>
        <time>2016-10-12T14:24:37Z</time>
      </trkpt>
      <trkpt lat="45.91653" lon="4.73733">
        <ele>172</ele>
        <time>2016-10-12T14:24:38Z</time>
      </trkpt>
      <trkpt lat="45.91646" lon="4.73733">
        <ele>172</ele>
        <time>2016-10-12T14:24:39Z</time>
      </trkpt>
      <trkpt lat="45.91639" lon="4.73733">
        <ele>172</ele>
        <time>2016-10-12T14:24:40Z</time>
      </trkpt>
      <trkpt lat="45.91633" lon="4.73733">
        <ele>172</ele>
        <time>2016-10-12T14:24:41Z</time>
      </trkpt>
      <trkpt lat="45.91626" lon="4.73733">
        <ele>172</ele>
        <time>2016-10-12T14:24:42Z</time>
      </trkpt>
      <trkpt lat="45.9162" lon="4.73733">
        <ele>173</ele>
        <time>2016-10-12T14:24:43Z</time>
      </trkpt>
      <trkpt lat="45.91614" lon="4.73733">
        <ele>173</ele>
        <time>2016-10-12T14:24:44Z</time>
      </trkpt>
      <trkpt lat="45.91607" lon="4.73733">
        <ele>173</ele>
        <time>2016-10-12T14:24:45Z</time>
      </trkpt>
      <trkpt lat="45.91601" lon="4.73733">
        <ele>173</ele>
        <time>2016-10-12T14:24:46Z</time>
      </trkpt>
      <trkpt lat="45.91594" lon="4.73733">
        <ele>173</ele>
        <time>2016-10-12T14:24:47Z</time>
      </trkpt>
      <trkpt lat="45.91587" lon="4.73734">
        <ele>173</ele>
        <time>2016-10-12T14:24:48Z</time>
      </trkpt>
      <trkpt lat="45.9158" lon="4.73734">
        <ele>173</ele>
        <time>2016-10-12T14:24:49Z</time>
      </trkpt>
      <trkpt lat="45.91573" lon="4.73734">
        <ele>173</ele>
        <time>2016-10-12T14:24:50Z</time>
      </trkpt>
      <trkpt lat="45.91567" lon="4.73734">
        <ele>173</ele>
        <time>2016-10-12T14:24:51Z</time>
      </trkpt>
      <trkpt lat="45.9156" lon="4.73733">
        <ele>174</ele>
        <time>2016-10-12T14:24:52Z</time>
      </trkpt>
      <trkpt lat="45.91554" lon="4.73734">
        <ele>174</ele>
        <time>2016-10-12T14:24:53Z</time>
      </trkpt>
      <trkpt lat="45.91548" lon="4.73734">
        <ele>174</ele>
        <time>2016-10-12T14:24:54Z</time>
      </trkpt>
      <trkpt lat="45.91542" lon="4.73735">
        <ele>174</ele>
        <time>2016-10-12T14:24:55Z</time>
      </trkpt>
      <trkpt lat="45.91535" lon="4.73735">
        <ele>174</ele>
        <time>2016-10-12T14:24:56Z</time>
      </trkpt>
      <trkpt lat="45.91529" lon="4.73735">
        <ele>174</ele>
        <time>2016-10-12T14:24:57Z</time>
      </trkpt>
      <trkpt lat="45.91523" lon="4.73735">
        <ele>174</ele>
        <time>2016-10-12T14:24:58Z</time>
      </trkpt>
      <trkpt lat="45.91516" lon="4.73734">
        <ele>174</ele>
        <time>2016-10-12T14:24:59Z</time>
      </trkpt>
      <trkpt lat="45.9151" lon="4.73734">
        <ele>174</ele>
        <time>2016-10-12T14:25:00Z</time>
      </trkpt>
      <trkpt lat="45.91504" lon="4.73734">
        <ele>174</ele>
        <time>2016-10-12T14:25:01Z</time>
      </trkpt>
      <trkpt lat="45.91499" lon="4.73734">
        <ele>174</ele>
        <time>2016-10-12T14:25:02Z</time>
      </trkpt>
      <trkpt lat="45.91493" lon="4.73734">
        <ele>174</ele>
        <time>2016-10-12T14:25:03Z</time>
      </trkpt>
      <trkpt lat="45.91486" lon="4.73735">
        <ele>174</ele>
        <time>2016-10-12T14:25:04Z</time>
      </trkpt>
      <trkpt lat="45.9148" lon="4.73735">
        <ele>174</ele>
        <time>2016-10-12T14:25:05Z</time>
      </trkpt>
      <trkpt lat="45.91474" lon="4.73735">
        <ele>174</ele>
        <time>2016-10-12T14:25:06Z</time>
      </trkpt>
      <trkpt lat="45.91468" lon="4.73736">
        <ele>174</ele>
        <time>2016-10-12T14:25:07Z</time>
      </trkpt>
      <trkpt lat="45.91462" lon="4.73736">
        <ele>174</ele>
        <time>2016-10-12T14:25:08Z</time>
      </trkpt>
      <trkpt lat="45.91456" lon="4.73736">
        <ele>173</ele>
        <time>2016-10-12T14:25:09Z</time>
      </trkpt>
      <trkpt lat="45.9145" lon="4.73736">
        <ele>173</ele>
        <time>2016-10-12T14:25:10Z</time>
      </trkpt>
      <trkpt lat="45.91444" lon="4.73736">
        <ele>173</ele>
        <time>2016-10-12T14:25:11Z</time>
      </trkpt>
      <trkpt lat="45.91438" lon="4.73736">
        <ele>173</ele>
        <time>2016-10-12T14:25:12Z</time>
      </trkpt>
      <trkpt lat="45.91432" lon="4.73736">
        <ele>173</ele>
        <time>2016-10-12T14:25:13Z</time>
      </trkpt>
      <trkpt lat="45.91425" lon="4.73736">
        <ele>173</ele>
        <time>2016-10-12T14:25:14Z</time>
      </trkpt>
      <trkpt lat="45.91419" lon="4.73736">
        <ele>173</ele>
        <time>2016-10-12T14:25:15Z</time>
      </trkpt>
      <trkpt lat="45.91413" lon="4.73736">
        <ele>173</ele>
        <time>2016-10-12T14:25:16Z</time>
      </trkpt>
      <trkpt lat="45.91407" lon="4.73735">
        <ele>173</ele>
        <time>2016-10-12T14:25:17Z</time>
      </trkpt>
      <trkpt lat="45.91401" lon="4.73734">
        <ele>173</ele>
        <time>2016-10-12T14:25:18Z</time>
      </trkpt>
      <trkpt lat="45.91394" lon="4.73734">
        <ele>173</ele>
        <time>2016-10-12T14:25:19Z</time>
      </trkpt>
      <trkpt lat="45.91388" lon="4.73734">
        <ele>173</ele>
        <time>2016-10-12T14:25:20Z</time>
      </trkpt>
      <trkpt lat="45.91382" lon="4.73734">
        <ele>173</ele>
        <time>2016-10-12T14:25:21Z</time>
      </trkpt>
      <trkpt lat="45.91375" lon="4.73734">
        <ele>173</ele>
        <time>2016-10-12T14:25:22Z</time>
      </trkpt>
      <trkpt lat="45.91369" lon="4.73734">
        <ele>173</ele>
        <time>2016-10-12T14:25:23Z</time>
      </trkpt>
      <trkpt lat="45.91363" lon="4.73734">
        <ele>173</ele>
        <time>2016-10-12T14:25:24Z</time>
      </trkpt>
      <trkpt lat="45.91357" lon="4.73734">
        <ele>173</ele>
        <time>2016-10-12T14:25:25Z</time>
      </trkpt>
      <trkpt lat="45.9135" lon="4.73734">
        <ele>173</ele>
        <time>2016-10-12T14:25:26Z</time>
      </trkpt>
      <trkpt lat="45.91344" lon="4.73734">
        <ele>173</ele>
        <time>2016-10-12T14:25:27Z</time>
      </trkpt>
      <trkpt lat="45.91338" lon="4.73734">
        <ele>173</ele>
        <time>2016-10-12T14:25:28Z</time>
      </trkpt>
      <trkpt lat="45.91332" lon="4.73734">
        <ele>173</ele>
        <time>2016-10-12T14:25:29Z</time>
      </trkpt>
      <trkpt lat="45.91326" lon="4.73734">
        <ele>174</ele>
        <time>2016-10-12T14:25:30Z</time>
      </trkpt>
      <trkpt lat="45.9132" lon="4.73735">
        <ele>174</ele>
        <time>2016-10-12T14:25:31Z</time>
      </trkpt>
      <trkpt lat="45.91314" lon="4.73736">
        <ele>174</ele>
        <time>2016-10-12T14:25:32Z</time>
      </trkpt>
      <trkpt lat="45.91308" lon="4.73735">
        <ele>174</ele>
        <time>2016-10-12T14:25:33Z</time>
      </trkpt>
      <trkpt lat="45.91302" lon="4.73736">
        <ele>174</ele>
        <time>2016-10-12T14:25:34Z</time>
      </trkpt>
      <trkpt lat="45.91295" lon="4.73736">
        <ele>174</ele>
        <time>2016-10-12T14:25:35Z</time>
      </trkpt>
      <trkpt lat="45.91289" lon="4.73736">
        <ele>174</ele>
        <time>2016-10-12T14:25:36Z</time>
      </trkpt>
      <trkpt lat="45.91283" lon="4.73736">
        <ele>174</ele>
        <time>2016-10-12T14:25:37Z</time>
      </trkpt>
      <trkpt lat="45.91277" lon="4.73737">
        <ele>174</ele>
        <time>2016-10-12T14:25:38Z</time>
      </trkpt>
      <trkpt lat="45.91271" lon="4.73737">
        <ele>174</ele>
        <time>2016-10-12T14:25:39Z</time>
      </trkpt>
      <trkpt lat="45.91265" lon="4.73737">
        <ele>174</ele>
        <time>2016-10-12T14:25:40Z</time>
      </trkpt>
      <trkpt lat="45.91258" lon="4.73737">
        <ele>175</ele>
        <time>2016-10-12T14:25:41Z</time>
      </trkpt>
      <trkpt lat="45.91252" lon="4.73737">
        <ele>175</ele>
        <time>2016-10-12T14:25:42Z</time>
      </trkpt>
      <trkpt lat="45.91245" lon="4.73738">
        <ele>175</ele>
        <time>2016-10-12T14:25:43Z</time>
      </trkpt>
      <trkpt lat="45.91238" lon="4.73738">
        <ele>175</ele>
        <time>2016-10-12T14:25:44Z</time>
      </trkpt>
      <trkpt lat="45.91232" lon="4.73739">
        <ele>175</ele>
        <time>2016-10-12T14:25:45Z</time>
      </trkpt>
      <trkpt lat="45.91225" lon="4.73739">
        <ele>175</ele>
        <time>2016-10-12T14:25:46Z</time>
      </trkpt>
      <trkpt lat="45.91219" lon="4.73739">
        <ele>175</ele>
        <time>2016-10-12T14:25:47Z</time>
      </trkpt>
      <trkpt lat="45.91214" lon="4.73738">
        <ele>175</ele>
        <time>2016-10-12T14:25:48Z</time>
      </trkpt>
      <trkpt lat="45.91208" lon="4.73738">
        <ele>175</ele>
        <time>2016-10-12T14:25:49Z</time>
      </trkpt>
      <trkpt lat="45.91201" lon="4.73738">
        <ele>175</ele>
        <time>2016-10-12T14:25:50Z</time>
      </trkpt>
      <trkpt lat="45.91195" lon="4.73738">
        <ele>175</ele>
        <time>2016-10-12T14:25:51Z</time>
      </trkpt>
      <trkpt lat="45.91189" lon="4.73736">
        <ele>175</ele>
        <time>2016-10-12T14:25:52Z</time>
      </trkpt>
      <trkpt lat="45.91183" lon="4.73734">
        <ele>175</ele>
        <time>2016-10-12T14:25:53Z</time>
      </trkpt>
      <trkpt lat="45.91176" lon="4.73732">
        <ele>175</ele>
        <time>2016-10-12T14:25:54Z</time>
      </trkpt>
      <trkpt lat="45.9117" lon="4.73731">
        <ele>175</ele>
        <time>2016-10-12T14:25:55Z</time>
      </trkpt>
      <trkpt lat="45.91163" lon="4.73729">
        <ele>175</ele>
        <time>2016-10-12T14:25:56Z</time>
      </trkpt>
      <trkpt lat="45.91157" lon="4.73727">
        <ele>175</ele>
        <time>2016-10-12T14:25:57Z</time>
      </trkpt>
      <trkpt lat="45.91151" lon="4.73724">
        <ele>175</ele>
        <time>2016-10-12T14:25:58Z</time>
      </trkpt>
      <trkpt lat="45.91147" lon="4.73718">
        <ele>174</ele>
        <time>2016-10-12T14:25:59Z</time>
      </trkpt>
      <trkpt lat="45.91143" lon="4.73711">
        <ele>174</ele>
        <time>2016-10-12T14:26:00Z</time>
      </trkpt>
      <trkpt lat="45.9114" lon="4.73704">
        <ele>174</ele>
        <time>2016-10-12T14:26:01Z</time>
      </trkpt>
      <trkpt lat="45.91137" lon="4.73696">
        <ele>174</ele>
        <time>2016-10-12T14:26:02Z</time>
      </trkpt>
      <trkpt lat="45.91136" lon="4.73689">
        <ele>174</ele>
        <time>2016-10-12T14:26:03Z</time>
      </trkpt>
      <trkpt lat="45.91133" lon="4.73681">
        <ele>174</ele>
        <time>2016-10-12T14:26:04Z</time>
      </trkpt>
      <trkpt lat="45.91129" lon="4.73674">
        <ele>174</ele>
        <time>2016-10-12T14:26:05Z</time>
      </trkpt>
      <trkpt lat="45.91126" lon="4.73666">
        <ele>174</ele>
        <time>2016-10-12T14:26:06Z</time>
      </trkpt>
      <trkpt lat="45.91123" lon="4.73659">
        <ele>174</ele>
        <time>2016-10-12T14:26:07Z</time>
      </trkpt>
      <trkpt lat="45.9112" lon="4.73651">
        <ele>174</ele>
        <time>2016-10-12T14:26:08Z</time>
      </trkpt>
      <trkpt lat="45.91117" lon="4.73644">
        <ele>174</ele>
        <time>2016-10-12T14:26:09Z</time>
      </trkpt>
      <trkpt lat="45.91113" lon="4.73636">
        <ele>174</ele>
        <time>2016-10-12T14:26:10Z</time>
      </trkpt>
      <trkpt lat="45.9111" lon="4.73629">
        <ele>174</ele>
        <time>2016-10-12T14:26:11Z</time>
      </trkpt>
      <trkpt lat="45.91107" lon="4.73621">
        <ele>174</ele>
        <time>2016-10-12T14:26:12Z</time>
      </trkpt>
      <trkpt lat="45.91103" lon="4.73614">
        <ele>174</ele>
        <time>2016-10-12T14:26:13Z</time>
      </trkpt>
      <trkpt lat="45.911" lon="4.73607">
        <ele>174</ele>
        <time>2016-10-12T14:26:14Z</time>
      </trkpt>
      <trkpt lat="45.91096" lon="4.73599">
        <ele>174</ele>
        <time>2016-10-12T14:26:15Z</time>
      </trkpt>
      <trkpt lat="45.91093" lon="4.73593">
        <ele>174</ele>
        <time>2016-10-12T14:26:16Z</time>
      </trkpt>
      <trkpt lat="45.91089" lon="4.73585">
        <ele>174</ele>
        <time>2016-10-12T14:26:17Z</time>
      </trkpt>
      <trkpt lat="45.91086" lon="4.73578">
        <ele>174</ele>
        <time>2016-10-12T14:26:18Z</time>
      </trkpt>
      <trkpt lat="45.91084" lon="4.73572">
        <ele>174</ele>
        <time>2016-10-12T14:26:19Z</time>
      </trkpt>
      <trkpt lat="45.91081" lon="4.73564">
        <ele>174</ele>
        <time>2016-10-12T14:26:20Z</time>
      </trkpt>
      <trkpt lat="45.91077" lon="4.73557">
        <ele>174</ele>
        <time>2016-10-12T14:26:21Z</time>
      </trkpt>
      <trkpt lat="45.91074" lon="4.7355">
        <ele>174</ele>
        <time>2016-10-12T14:26:22Z</time>
      </trkpt>
      <trkpt lat="45.91071" lon="4.73543">
        <ele>174</ele>
        <time>2016-10-12T14:26:23Z</time>
      </trkpt>
      <trkpt lat="45.91067" lon="4.73535">
        <ele>175</ele>
        <time>2016-10-12T14:26:24Z</time>
      </trkpt>
      <trkpt lat="45.91064" lon="4.73528">
        <ele>175</ele>
        <time>2016-10-12T14:26:25Z</time>
      </trkpt>
      <trkpt lat="45.9106" lon="4.73521">
        <ele>175</ele>
        <time>2016-10-12T14:26:26Z</time>
      </trkpt>
      <trkpt lat="45.91057" lon="4.73514">
        <ele>175</ele>
        <time>2016-10-12T14:26:27Z</time>
      </trkpt>
      <trkpt lat="45.91054" lon="4.73507">
        <ele>175</ele>
        <time>2016-10-12T14:26:28Z</time>
      </trkpt>
      <trkpt lat="45.91051" lon="4.73499">
        <ele>175</ele>
        <time>2016-10-12T14:26:29Z</time>
      </trkpt>
      <trkpt lat="45.91048" lon="4.73492">
        <ele>175</ele>
        <time>2016-10-12T14:26:30Z</time>
      </trkpt>
      <trkpt lat="45.91044" lon="4.73485">
        <ele>175</ele>
        <time>2016-10-12T14:26:31Z</time>
      </trkpt>
      <trkpt lat="45.91042" lon="4.73478">
        <ele>175</ele>
        <time>2016-10-12T14:26:32Z</time>
      </trkpt>
      <trkpt lat="45.9104" lon="4.73471">
        <ele>175</ele>
        <time>2016-10-12T14:26:33Z</time>
      </trkpt>
      <trkpt lat="45.91038" lon="4.73464">
        <ele>175</ele>
        <time>2016-10-12T14:26:34Z</time>
      </trkpt>
      <trkpt lat="45.91036" lon="4.73452">
        <ele>175</ele>
        <time>2016-10-12T14:26:36Z</time>
      </trkpt>
      <trkpt lat="45.91036" lon="4.73446">
        <ele>175</ele>
        <time>2016-10-12T14:26:37Z</time>
      </trkpt>
      <trkpt lat="45.91036" lon="4.73439">
        <ele>175</ele>
        <time>2016-10-12T14:26:38Z</time>
      </trkpt>
      <trkpt lat="45.91035" lon="4.73432">
        <ele>175</ele>
        <time>2016-10-12T14:26:39Z</time>
      </trkpt>
      <trkpt lat="45.91033" lon="4.73425">
        <ele>175</ele>
        <time>2016-10-12T14:26:40Z</time>
      </trkpt>
      <trkpt lat="45.9103" lon="4.73418">
        <ele>175</ele>
        <time>2016-10-12T14:26:41Z</time>
      </trkpt>
      <trkpt lat="45.91025" lon="4.73415">
        <ele>174</ele>
        <time>2016-10-12T14:26:42Z</time>
      </trkpt>
      <trkpt lat="45.9102" lon="4.73413">
        <ele>174</ele>
        <time>2016-10-12T14:26:43Z</time>
      </trkpt>
      <trkpt lat="45.91014" lon="4.73414">
        <ele>175</ele>
        <time>2016-10-12T14:26:44Z</time>
      </trkpt>
      <trkpt lat="45.9101" lon="4.73418">
        <ele>175</ele>
        <time>2016-10-12T14:26:45Z</time>
      </trkpt>
      <trkpt lat="45.91005" lon="4.73423">
        <ele>175</ele>
        <time>2016-10-12T14:26:46Z</time>
      </trkpt>
      <trkpt lat="45.91" lon="4.73428">
        <ele>175</ele>
        <time>2016-10-12T14:26:47Z</time>
      </trkpt>
      <trkpt lat="45.90996" lon="4.73433">
        <ele>175</ele>
        <time>2016-10-12T14:26:48Z</time>
      </trkpt>
      <trkpt lat="45.9099" lon="4.73437">
        <ele>175</ele>
        <time>2016-10-12T14:26:49Z</time>
      </trkpt>
      <trkpt lat="45.90985" lon="4.7344">
        <ele>175</ele>
        <time>2016-10-12T14:26:50Z</time>
      </trkpt>
      <trkpt lat="45.90979" lon="4.73444">
        <ele>175</ele>
        <time>2016-10-12T14:26:51Z</time>
      </trkpt>
      <trkpt lat="45.90973" lon="4.73447">
        <ele>175</ele>
        <time>2016-10-12T14:26:52Z</time>
      </trkpt>
      <trkpt lat="45.90967" lon="4.7345">
        <ele>175</ele>
        <time>2016-10-12T14:26:53Z</time>
      </trkpt>
      <trkpt lat="45.90962" lon="4.73453">
        <ele>175</ele>
        <time>2016-10-12T14:26:54Z</time>
      </trkpt>
      <trkpt lat="45.90956" lon="4.73455">
        <ele>175</ele>
        <time>2016-10-12T14:26:55Z</time>
      </trkpt>
      <trkpt lat="45.9095" lon="4.73458">
        <ele>175</ele>
        <time>2016-10-12T14:26:56Z</time>
      </trkpt>
      <trkpt lat="45.90944" lon="4.7346">
        <ele>175</ele>
        <time>2016-10-12T14:26:57Z</time>
      </trkpt>
      <trkpt lat="45.90937" lon="4.73463">
        <ele>175</ele>
        <time>2016-10-12T14:26:58Z</time>
      </trkpt>
      <trkpt lat="45.90931" lon="4.73465">
        <ele>175</ele>
        <time>2016-10-12T14:26:59Z</time>
      </trkpt>
      <trkpt lat="45.90925" lon="4.73468">
        <ele>175</ele>
        <time>2016-10-12T14:27:00Z</time>
      </trkpt>
      <trkpt lat="45.90919" lon="4.7347">
        <ele>175</ele>
        <time>2016-10-12T14:27:01Z</time>
      </trkpt>
      <trkpt lat="45.90913" lon="4.73473">
        <ele>175</ele>
        <time>2016-10-12T14:27:02Z</time>
      </trkpt>
      <trkpt lat="45.90907" lon="4.73476">
        <ele>175</ele>
        <time>2016-10-12T14:27:03Z</time>
      </trkpt>
      <trkpt lat="45.90901" lon="4.73478">
        <ele>175</ele>
        <time>2016-10-12T14:27:04Z</time>
      </trkpt>
      <trkpt lat="45.90895" lon="4.7348">
        <ele>175</ele>
        <time>2016-10-12T14:27:05Z</time>
      </trkpt>
      <trkpt lat="45.90888" lon="4.73483">
        <ele>175</ele>
        <time>2016-10-12T14:27:06Z</time>
      </trkpt>
      <trkpt lat="45.90882" lon="4.73485">
        <ele>175</ele>
        <time>2016-10-12T14:27:07Z</time>
      </trkpt>
      <trkpt lat="45.90875" lon="4.73488">
        <ele>175</ele>
        <time>2016-10-12T14:27:08Z</time>
      </trkpt>
      <trkpt lat="45.90869" lon="4.73491">
        <ele>175</ele>
        <time>2016-10-12T14:27:09Z</time>
      </trkpt>
      <trkpt lat="45.90863" lon="4.73493">
        <ele>175</ele>
        <time>2016-10-12T14:27:10Z</time>
      </trkpt>
      <trkpt lat="45.90857" lon="4.73496">
        <ele>174</ele>
        <time>2016-10-12T14:27:11Z</time>
      </trkpt>
      <trkpt lat="45.90851" lon="4.73499">
        <ele>174</ele>
        <time>2016-10-12T14:27:12Z</time>
      </trkpt>
      <trkpt lat="45.90845" lon="4.73501">
        <ele>174</ele>
        <time>2016-10-12T14:27:13Z</time>
      </trkpt>
      <trkpt lat="45.90839" lon="4.73504">
        <ele>174</ele>
        <time>2016-10-12T14:27:14Z</time>
      </trkpt>
      <trkpt lat="45.90832" lon="4.73507">
        <ele>174</ele>
        <time>2016-10-12T14:27:15Z</time>
      </trkpt>
      <trkpt lat="45.90826" lon="4.73509">
        <ele>175</ele>
        <time>2016-10-12T14:27:16Z</time>
      </trkpt>
      <trkpt lat="45.9082" lon="4.73511">
        <ele>175</ele>
        <time>2016-10-12T14:27:17Z</time>
      </trkpt>
      <trkpt lat="45.90813" lon="4.73514">
        <ele>175</ele>
        <time>2016-10-12T14:27:18Z</time>
      </trkpt>
      <trkpt lat="45.90807" lon="4.73516">
        <ele>175</ele>
        <time>2016-10-12T14:27:19Z</time>
      </trkpt>
      <trkpt lat="45.90801" lon="4.73518">
        <ele>175</ele>
        <time>2016-10-12T14:27:20Z</time>
      </trkpt>
      <trkpt lat="45.90795" lon="4.73521">
        <ele>175</ele>
        <time>2016-10-12T14:27:21Z</time>
      </trkpt>
      <trkpt lat="45.90789" lon="4.73523">
        <ele>176</ele>
        <time>2016-10-12T14:27:22Z</time>
      </trkpt>
      <trkpt lat="45.90782" lon="4.73526">
        <ele>176</ele>
        <time>2016-10-12T14:27:23Z</time>
      </trkpt>
      <trkpt lat="45.90776" lon="4.73529">
        <ele>176</ele>
        <time>2016-10-12T14:27:24Z</time>
      </trkpt>
      <trkpt lat="45.9077" lon="4.73532">
        <ele>176</ele>
        <time>2016-10-12T14:27:25Z</time>
      </trkpt>
      <trkpt lat="45.90765" lon="4.73534">
        <ele>176</ele>
        <time>2016-10-12T14:27:26Z</time>
      </trkpt>
      <trkpt lat="45.90759" lon="4.73536">
        <ele>176</ele>
        <time>2016-10-12T14:27:27Z</time>
      </trkpt>
      <trkpt lat="45.90753" lon="4.73539">
        <ele>176</ele>
        <time>2016-10-12T14:27:28Z</time>
      </trkpt>
      <trkpt lat="45.90748" lon="4.73541">
        <ele>177</ele>
        <time>2016-10-12T14:27:29Z</time>
      </trkpt>
      <trkpt lat="45.90742" lon="4.73543">
        <ele>177</ele>
        <time>2016-10-12T14:27:30Z</time>
      </trkpt>
      <trkpt lat="45.90736" lon="4.73546">
        <ele>177</ele>
        <time>2016-10-12T14:27:31Z</time>
      </trkpt>
      <trkpt lat="45.9073" lon="4.73548">
        <ele>178</ele>
        <time>2016-10-12T14:27:32Z</time>
      </trkpt>
      <trkpt lat="45.90725" lon="4.7355">
        <ele>178</ele>
        <time>2016-10-12T14:27:33Z</time>
      </trkpt>
      <trkpt lat="45.90719" lon="4.73552">
        <ele>178</ele>
        <time>2016-10-12T14:27:34Z</time>
      </trkpt>
      <trkpt lat="45.90714" lon="4.73555">
        <ele>178</ele>
        <time>2016-10-12T14:27:35Z</time>
      </trkpt>
      <trkpt lat="45.90708" lon="4.73558">
        <ele>178</ele>
        <time>2016-10-12T14:27:36Z</time>
      </trkpt>
      <trkpt lat="45.90703" lon="4.73561">
        <ele>178</ele>
        <time>2016-10-12T14:27:37Z</time>
      </trkpt>
      <trkpt lat="45.90698" lon="4.73564">
        <ele>178</ele>
        <time>2016-10-12T14:27:38Z</time>
      </trkpt>
      <trkpt lat="45.90693" lon="4.73566">
        <ele>178</ele>
        <time>2016-10-12T14:27:39Z</time>
      </trkpt>
      <trkpt lat="45.90687" lon="4.73568">
        <ele>178</ele>
        <time>2016-10-12T14:27:40Z</time>
      </trkpt>
      <trkpt lat="45.90683" lon="4.7357">
        <ele>179</ele>
        <time>2016-10-12T14:27:41Z</time>
      </trkpt>
      <trkpt lat="45.90678" lon="4.73572">
        <ele>179</ele>
        <time>2016-10-12T14:27:42Z</time>
      </trkpt>
      <trkpt lat="45.90673" lon="4.73574">
        <ele>179</ele>
        <time>2016-10-12T14:27:43Z</time>
      </trkpt>
      <trkpt lat="45.90668" lon="4.73576">
        <ele>179</ele>
        <time>2016-10-12T14:27:44Z</time>
      </trkpt>
      <trkpt lat="45.90663" lon="4.73578">
        <ele>179</ele>
        <time>2016-10-12T14:27:45Z</time>
      </trkpt>
      <trkpt lat="45.90658" lon="4.73581">
        <ele>179</ele>
        <time>2016-10-12T14:27:46Z</time>
      </trkpt>
      <trkpt lat="45.90654" lon="4.73583">
        <ele>179</ele>
        <time>2016-10-12T14:27:47Z</time>
      </trkpt>
      <trkpt lat="45.90649" lon="4.73585">
        <ele>181</ele>
        <time>2016-10-12T14:27:48Z</time>
      </trkpt>
      <trkpt lat="45.90644" lon="4.73587">
        <ele>181</ele>
        <time>2016-10-12T14:27:49Z</time>
      </trkpt>
      <trkpt lat="45.90639" lon="4.73589">
        <ele>181</ele>
        <time>2016-10-12T14:27:50Z</time>
      </trkpt>
      <trkpt lat="45.90635" lon="4.73591">
        <ele>181</ele>
        <time>2016-10-12T14:27:51Z</time>
      </trkpt>
      <trkpt lat="45.90629" lon="4.73593">
        <ele>181</ele>
        <time>2016-10-12T14:27:52Z</time>
      </trkpt>
      <trkpt lat="45.90624" lon="4.73595">
        <ele>181</ele>
        <time>2016-10-12T14:27:53Z</time>
      </trkpt>
      <trkpt lat="45.90619" lon="4.73597">
        <ele>180</ele>
        <time>2016-10-12T14:27:54Z</time>
      </trkpt>
      <trkpt lat="45.90614" lon="4.73599">
        <ele>180</ele>
        <time>2016-10-12T14:27:55Z</time>
      </trkpt>
      <trkpt lat="45.90609" lon="4.73601">
        <ele>180</ele>
        <time>2016-10-12T14:27:56Z</time>
      </trkpt>
      <trkpt lat="45.90604" lon="4.73603">
        <ele>180</ele>
        <time>2016-10-12T14:27:57Z</time>
      </trkpt>
      <trkpt lat="45.90599" lon="4.73605">
        <ele>180</ele>
        <time>2016-10-12T14:27:58Z</time>
      </trkpt>
      <trkpt lat="45.90594" lon="4.73608">
        <ele>180</ele>
        <time>2016-10-12T14:27:59Z</time>
      </trkpt>
      <trkpt lat="45.90589" lon="4.7361">
        <ele>180</ele>
        <time>2016-10-12T14:28:00Z</time>
      </trkpt>
      <trkpt lat="45.90584" lon="4.73613">
        <ele>180</ele>
        <time>2016-10-12T14:28:01Z</time>
      </trkpt>
      <trkpt lat="45.90579" lon="4.73615">
        <ele>178</ele>
        <time>2016-10-12T14:28:02Z</time>
      </trkpt>
      <trkpt lat="45.90575" lon="4.73618">
        <ele>179</ele>
        <time>2016-10-12T14:28:03Z</time>
      </trkpt>
      <trkpt lat="45.9057" lon="4.7362">
        <ele>179</ele>
        <time>2016-10-12T14:28:04Z</time>
      </trkpt>
      <trkpt lat="45.90565" lon="4.73622">
        <ele>179</ele>
        <time>2016-10-12T14:28:05Z</time>
      </trkpt>
      <trkpt lat="45.9056" lon="4.73625">
        <ele>179</ele>
        <time>2016-10-12T14:28:06Z</time>
      </trkpt>
      <trkpt lat="45.90555" lon="4.73627">
        <ele>178</ele>
        <time>2016-10-12T14:28:07Z</time>
      </trkpt>
      <trkpt lat="45.90551" lon="4.7363">
        <ele>178</ele>
        <time>2016-10-12T14:28:08Z</time>
      </trkpt>
      <trkpt lat="45.90546" lon="4.73632">
        <ele>178</ele>
        <time>2016-10-12T14:28:09Z</time>
      </trkpt>
      <trkpt lat="45.90541" lon="4.73634">
        <ele>178</ele>
        <time>2016-10-12T14:28:10Z</time>
      </trkpt>
      <trkpt lat="45.90536" lon="4.73637">
        <ele>178</ele>
        <time>2016-10-12T14:28:11Z</time>
      </trkpt>
      <trkpt lat="45.90531" lon="4.73639">
        <ele>178</ele>
        <time>2016-10-12T14:28:12Z</time>
      </trkpt>
      <trkpt lat="45.90526" lon="4.73641">
        <ele>178</ele>
        <time>2016-10-12T14:28:13Z</time>
      </trkpt>
      <trkpt lat="45.9052" lon="4.73643">
        <ele>178</ele>
        <time>2016-10-12T14:28:14Z</time>
      </trkpt>
      <trkpt lat="45.90515" lon="4.73645">
        <ele>178</ele>
        <time>2016-10-12T14:28:15Z</time>
      </trkpt>
      <trkpt lat="45.90511" lon="4.73647">
        <ele>178</ele>
        <time>2016-10-12T14:28:16Z</time>
      </trkpt>
      <trkpt lat="45.90505" lon="4.73649">
        <ele>178</ele>
        <time>2016-10-12T14:28:17Z</time>
      </trkpt>
      <trkpt lat="45.90501" lon="4.7365">
        <ele>178</ele>
        <time>2016-10-12T14:28:18Z</time>
      </trkpt>
      <trkpt lat="45.90495" lon="4.73652">
        <ele>177</ele>
        <time>2016-10-12T14:28:19Z</time>
      </trkpt>
      <trkpt lat="45.9049" lon="4.73655">
        <ele>177</ele>
        <time>2016-10-12T14:28:20Z</time>
      </trkpt>
      <trkpt lat="45.90485" lon="4.73657">
        <ele>177</ele>
        <time>2016-10-12T14:28:21Z</time>
      </trkpt>
      <trkpt lat="45.90479" lon="4.73659">
        <ele>177</ele>
        <time>2016-10-12T14:28:22Z</time>
      </trkpt>
      <trkpt lat="45.90474" lon="4.73662">
        <ele>177</ele>
        <time>2016-10-12T14:28:23Z</time>
      </trkpt>
      <trkpt lat="45.90468" lon="4.73664">
        <ele>177</ele>
        <time>2016-10-12T14:28:24Z</time>
      </trkpt>
      <trkpt lat="45.90463" lon="4.73667">
        <ele>177</ele>
        <time>2016-10-12T14:28:25Z</time>
      </trkpt>
      <trkpt lat="45.90457" lon="4.73669">
        <ele>176</ele>
        <time>2016-10-12T14:28:26Z</time>
      </trkpt>
      <trkpt lat="45.90451" lon="4.73671">
        <ele>176</ele>
        <time>2016-10-12T14:28:27Z</time>
      </trkpt>
      <trkpt lat="45.90445" lon="4.73673">
        <ele>176</ele>
        <time>2016-10-12T14:28:28Z</time>
      </trkpt>
      <trkpt lat="45.90439" lon="4.73676">
        <ele>176</ele>
        <time>2016-10-12T14:28:29Z</time>
      </trkpt>
      <trkpt lat="45.90432" lon="4.73679">
        <ele>177</ele>
        <time>2016-10-12T14:28:30Z</time>
      </trkpt>
      <trkpt lat="45.90426" lon="4.73681">
        <ele>177</ele>
        <time>2016-10-12T14:28:31Z</time>
      </trkpt>
      <trkpt lat="45.90419" lon="4.73684">
        <ele>177</ele>
        <time>2016-10-12T14:28:32Z</time>
      </trkpt>
      <trkpt lat="45.90413" lon="4.73687">
        <ele>177</ele>
        <time>2016-10-12T14:28:33Z</time>
      </trkpt>
      <trkpt lat="45.90406" lon="4.73689">
        <ele>177</ele>
        <time>2016-10-12T14:28:34Z</time>
      </trkpt>
      <trkpt lat="45.90399" lon="4.73693">
        <ele>177</ele>
        <time>2016-10-12T14:28:35Z</time>
      </trkpt>
      <trkpt lat="45.90392" lon="4.73696">
        <ele>177</ele>
        <time>2016-10-12T14:28:36Z</time>
      </trkpt>
      <trkpt lat="45.90384" lon="4.73698">
        <ele>177</ele>
        <time>2016-10-12T14:28:37Z</time>
      </trkpt>
      <trkpt lat="45.90376" lon="4.73701">
        <ele>177</ele>
        <time>2016-10-12T14:28:38Z</time>
      </trkpt>
      <trkpt lat="45.90368" lon="4.73705">
        <ele>177</ele>
        <time>2016-10-12T14:28:39Z</time>
      </trkpt>
      <trkpt lat="45.9036" lon="4.73708">
        <ele>177</ele>
        <time>2016-10-12T14:28:40Z</time>
      </trkpt>
      <trkpt lat="45.90352" lon="4.73711">
        <ele>177</ele>
        <time>2016-10-12T14:28:41Z</time>
      </trkpt>
      <trkpt lat="45.90344" lon="4.73714">
        <ele>177</ele>
        <time>2016-10-12T14:28:42Z</time>
      </trkpt>
      <trkpt lat="45.90336" lon="4.73717">
        <ele>177</ele>
        <time>2016-10-12T14:28:43Z</time>
      </trkpt>
      <trkpt lat="45.90328" lon="4.73721">
        <ele>177</ele>
        <time>2016-10-12T14:28:44Z</time>
      </trkpt>
      <trkpt lat="45.9032" lon="4.73724">
        <ele>177</ele>
        <time>2016-10-12T14:28:45Z</time>
      </trkpt>
      <trkpt lat="45.90312" lon="4.73727">
        <ele>177</ele>
        <time>2016-10-12T14:28:46Z</time>
      </trkpt>
      <trkpt lat="45.90304" lon="4.73731">
        <ele>177</ele>
        <time>2016-10-12T14:28:47Z</time>
      </trkpt>
      <trkpt lat="45.90297" lon="4.73734">
        <ele>177</ele>
        <time>2016-10-12T14:28:48Z</time>
      </trkpt>
      <trkpt lat="45.9029" lon="4.73737">
        <ele>177</ele>
        <time>2016-10-12T14:28:49Z</time>
      </trkpt>
      <trkpt lat="45.90282" lon="4.73741">
        <ele>177</ele>
        <time>2016-10-12T14:28:50Z</time>
      </trkpt>
      <trkpt lat="45.90275" lon="4.73745">
        <ele>177</ele>
        <time>2016-10-12T14:28:51Z</time>
      </trkpt>
      <trkpt lat="45.90268" lon="4.73748">
        <ele>178</ele>
        <time>2016-10-12T14:28:52Z</time>
      </trkpt>
      <trkpt lat="45.90262" lon="4.73751">
        <ele>178</ele>
        <time>2016-10-12T14:28:53Z</time>
      </trkpt>
      <trkpt lat="45.90255" lon="4.73754">
        <ele>178</ele>
        <time>2016-10-12T14:28:54Z</time>
      </trkpt>
      <trkpt lat="45.90248" lon="4.73756">
        <ele>178</ele>
        <time>2016-10-12T14:28:55Z</time>
      </trkpt>
      <trkpt lat="45.90241" lon="4.73759">
        <ele>178</ele>
        <time>2016-10-12T14:28:56Z</time>
      </trkpt>
      <trkpt lat="45.90235" lon="4.73761">
        <ele>177</ele>
        <time>2016-10-12T14:28:57Z</time>
      </trkpt>
      <trkpt lat="45.90228" lon="4.73764">
        <ele>177</ele>
        <time>2016-10-12T14:28:58Z</time>
      </trkpt>
      <trkpt lat="45.90222" lon="4.73767">
        <ele>177</ele>
        <time>2016-10-12T14:28:59Z</time>
      </trkpt>
      <trkpt lat="45.90216" lon="4.7377">
        <ele>177</ele>
        <time>2016-10-12T14:29:00Z</time>
      </trkpt>
      <trkpt lat="45.90209" lon="4.73773">
        <ele>177</ele>
        <time>2016-10-12T14:29:01Z</time>
      </trkpt>
      <trkpt lat="45.90202" lon="4.73776">
        <ele>177</ele>
        <time>2016-10-12T14:29:02Z</time>
      </trkpt>
      <trkpt lat="45.90196" lon="4.73779">
        <ele>177</ele>
        <time>2016-10-12T14:29:03Z</time>
      </trkpt>
      <trkpt lat="45.9019" lon="4.73781">
        <ele>177</ele>
        <time>2016-10-12T14:29:04Z</time>
      </trkpt>
      <trkpt lat="45.90184" lon="4.73784">
        <ele>177</ele>
        <time>2016-10-12T14:29:05Z</time>
      </trkpt>
      <trkpt lat="45.90177" lon="4.73787">
        <ele>177</ele>
        <time>2016-10-12T14:29:06Z</time>
      </trkpt>
      <trkpt lat="45.90171" lon="4.73789">
        <ele>177</ele>
        <time>2016-10-12T14:29:07Z</time>
      </trkpt>
      <trkpt lat="45.90164" lon="4.73792">
        <ele>176</ele>
        <time>2016-10-12T14:29:08Z</time>
      </trkpt>
      <trkpt lat="45.90157" lon="4.73795">
        <ele>177</ele>
        <time>2016-10-12T14:29:09Z</time>
      </trkpt>
      <trkpt lat="45.9015" lon="4.73798">
        <ele>177</ele>
        <time>2016-10-12T14:29:10Z</time>
      </trkpt>
      <trkpt lat="45.90144" lon="4.73801">
        <ele>177</ele>
        <time>2016-10-12T14:29:11Z</time>
      </trkpt>
      <trkpt lat="45.90137" lon="4.73804">
        <ele>177</ele>
        <time>2016-10-12T14:29:12Z</time>
      </trkpt>
      <trkpt lat="45.9013" lon="4.73806">
        <ele>177</ele>
        <time>2016-10-12T14:29:13Z</time>
      </trkpt>
      <trkpt lat="45.90124" lon="4.73809">
        <ele>177</ele>
        <time>2016-10-12T14:29:14Z</time>
      </trkpt>
      <trkpt lat="45.90118" lon="4.73812">
        <ele>177</ele>
        <time>2016-10-12T14:29:15Z</time>
      </trkpt>
      <trkpt lat="45.90111" lon="4.73814">
        <ele>177</ele>
        <time>2016-10-12T14:29:16Z</time>
      </trkpt>
      <trkpt lat="45.90104" lon="4.73817">
        <ele>177</ele>
        <time>2016-10-12T14:29:17Z</time>
      </trkpt>
      <trkpt lat="45.90097" lon="4.73819">
        <ele>177</ele>
        <time>2016-10-12T14:29:18Z</time>
      </trkpt>
      <trkpt lat="45.9009" lon="4.73821">
        <ele>177</ele>
        <time>2016-10-12T14:29:19Z</time>
      </trkpt>
      <trkpt lat="45.90084" lon="4.73824">
        <ele>178</ele>
        <time>2016-10-12T14:29:20Z</time>
      </trkpt>
      <trkpt lat="45.90077" lon="4.73827">
        <ele>178</ele>
        <time>2016-10-12T14:29:21Z</time>
      </trkpt>
      <trkpt lat="45.90071" lon="4.73831">
        <ele>178</ele>
        <time>2016-10-12T14:29:22Z</time>
      </trkpt>
      <trkpt lat="45.90064" lon="4.73834">
        <ele>178</ele>
        <time>2016-10-12T14:29:23Z</time>
      </trkpt>
      <trkpt lat="45.90058" lon="4.73836">
        <ele>178</ele>
        <time>2016-10-12T14:29:24Z</time>
      </trkpt>
      <trkpt lat="45.90051" lon="4.73839">
        <ele>178</ele>
        <time>2016-10-12T14:29:25Z</time>
      </trkpt>
      <trkpt lat="45.90044" lon="4.73842">
        <ele>178</ele>
        <time>2016-10-12T14:29:26Z</time>
      </trkpt>
      <trkpt lat="45.90038" lon="4.73845">
        <ele>178</ele>
        <time>2016-10-12T14:29:27Z</time>
      </trkpt>
      <trkpt lat="45.90032" lon="4.73847">
        <ele>178</ele>
        <time>2016-10-12T14:29:28Z</time>
      </trkpt>
      <trkpt lat="45.90025" lon="4.73849">
        <ele>178</ele>
        <time>2016-10-12T14:29:29Z</time>
      </trkpt>
      <trkpt lat="45.90018" lon="4.73852">
        <ele>178</ele>
        <time>2016-10-12T14:29:30Z</time>
      </trkpt>
      <trkpt lat="45.90012" lon="4.73855">
        <ele>178</ele>
        <time>2016-10-12T14:29:31Z</time>
      </trkpt>
      <trkpt lat="45.90005" lon="4.73857">
        <ele>178</ele>
        <time>2016-10-12T14:29:32Z</time>
      </trkpt>
      <trkpt lat="45.89999" lon="4.7386">
        <ele>178</ele>
        <time>2016-10-12T14:29:33Z</time>
      </trkpt>
      <trkpt lat="45.89993" lon="4.73863">
        <ele>178</ele>
        <time>2016-10-12T14:29:34Z</time>
      </trkpt>
      <trkpt lat="45.89987" lon="4.73865">
        <ele>178</ele>
        <time>2016-10-12T14:29:35Z</time>
      </trkpt>
      <trkpt lat="45.89981" lon="4.73868">
        <ele>178</ele>
        <time>2016-10-12T14:29:36Z</time>
      </trkpt>
      <trkpt lat="45.89974" lon="4.73871">
        <ele>178</ele>
        <time>2016-10-12T14:29:37Z</time>
      </trkpt>
      <trkpt lat="45.89966" lon="4.73873">
        <ele>178</ele>
        <time>2016-10-12T14:29:38Z</time>
      </trkpt>
      <trkpt lat="45.8996" lon="4.73876">
        <ele>178</ele>
        <time>2016-10-12T14:29:39Z</time>
      </trkpt>
      <trkpt lat="45.89953" lon="4.73878">
        <ele>178</ele>
        <time>2016-10-12T14:29:40Z</time>
      </trkpt>
      <trkpt lat="45.89946" lon="4.73881">
        <ele>178</ele>
        <time>2016-10-12T14:29:41Z</time>
      </trkpt>
      <trkpt lat="45.8994" lon="4.73884">
        <ele>178</ele>
        <time>2016-10-12T14:29:42Z</time>
      </trkpt>
      <trkpt lat="45.89934" lon="4.73887">
        <ele>178</ele>
        <time>2016-10-12T14:29:43Z</time>
      </trkpt>
      <trkpt lat="45.89927" lon="4.7389">
        <ele>178</ele>
        <time>2016-10-12T14:29:44Z</time>
      </trkpt>
      <trkpt lat="45.89921" lon="4.73893">
        <ele>178</ele>
        <time>2016-10-12T14:29:45Z</time>
      </trkpt>
      <trkpt lat="45.89914" lon="4.73896">
        <ele>178</ele>
        <time>2016-10-12T14:29:46Z</time>
      </trkpt>
      <trkpt lat="45.89908" lon="4.73899">
        <ele>178</ele>
        <time>2016-10-12T14:29:47Z</time>
      </trkpt>
      <trkpt lat="45.89902" lon="4.73901">
        <ele>178</ele>
        <time>2016-10-12T14:29:48Z</time>
      </trkpt>
      <trkpt lat="45.89897" lon="4.73904">
        <ele>178</ele>
        <time>2016-10-12T14:29:49Z</time>
      </trkpt>
      <trkpt lat="45.89891" lon="4.73906">
        <ele>179</ele>
        <time>2016-10-12T14:29:50Z</time>
      </trkpt>
      <trkpt lat="45.89886" lon="4.73909">
        <ele>179</ele>
        <time>2016-10-12T14:29:51Z</time>
      </trkpt>
      <trkpt lat="45.8988" lon="4.73911">
        <ele>179</ele>
        <time>2016-10-12T14:29:52Z</time>
      </trkpt>
      <trkpt lat="45.89875" lon="4.73914">
        <ele>179</ele>
        <time>2016-10-12T14:29:53Z</time>
      </trkpt>
      <trkpt lat="45.89869" lon="4.73917">
        <ele>179</ele>
        <time>2016-10-12T14:29:54Z</time>
      </trkpt>
      <trkpt lat="45.89862" lon="4.7392">
        <ele>179</ele>
        <time>2016-10-12T14:29:55Z</time>
      </trkpt>
      <trkpt lat="45.89856" lon="4.73922">
        <ele>179</ele>
        <time>2016-10-12T14:29:56Z</time>
      </trkpt>
      <trkpt lat="45.8985" lon="4.73924">
        <ele>179</ele>
        <time>2016-10-12T14:29:57Z</time>
      </trkpt>
      <trkpt lat="45.89844" lon="4.73927">
        <ele>179</ele>
        <time>2016-10-12T14:29:58Z</time>
      </trkpt>
      <trkpt lat="45.89837" lon="4.73929">
        <ele>179</ele>
        <time>2016-10-12T14:29:59Z</time>
      </trkpt>
      <trkpt lat="45.89831" lon="4.73932">
        <ele>179</ele>
        <time>2016-10-12T14:30:00Z</time>
      </trkpt>
      <trkpt lat="45.89825" lon="4.73934">
        <ele>179</ele>
        <time>2016-10-12T14:30:01Z</time>
      </trkpt>
      <trkpt lat="45.89819" lon="4.73936">
        <ele>179</ele>
        <time>2016-10-12T14:30:02Z</time>
      </trkpt>
      <trkpt lat="45.89814" lon="4.73939">
        <ele>179</ele>
        <time>2016-10-12T14:30:03Z</time>
      </trkpt>
      <trkpt lat="45.89808" lon="4.73941">
        <ele>179</ele>
        <time>2016-10-12T14:30:04Z</time>
      </trkpt>
      <trkpt lat="45.89802" lon="4.73943">
        <ele>179</ele>
        <time>2016-10-12T14:30:05Z</time>
      </trkpt>
      <trkpt lat="45.89796" lon="4.73946">
        <ele>179</ele>
        <time>2016-10-12T14:30:06Z</time>
      </trkpt>
      <trkpt lat="45.8979" lon="4.73948">
        <ele>179</ele>
        <time>2016-10-12T14:30:07Z</time>
      </trkpt>
      <trkpt lat="45.89785" lon="4.7395">
        <ele>179</ele>
        <time>2016-10-12T14:30:08Z</time>
      </trkpt>
      <trkpt lat="45.89779" lon="4.73953">
        <ele>179</ele>
        <time>2016-10-12T14:30:09Z</time>
      </trkpt>
      <trkpt lat="45.89773" lon="4.73956">
        <ele>179</ele>
        <time>2016-10-12T14:30:10Z</time>
      </trkpt>
      <trkpt lat="45.89767" lon="4.73959">
        <ele>179</ele>
        <time>2016-10-12T14:30:11Z</time>
      </trkpt>
      <trkpt lat="45.89762" lon="4.73961">
        <ele>179</ele>
        <time>2016-10-12T14:30:12Z</time>
      </trkpt>
      <trkpt lat="45.89756" lon="4.73963">
        <ele>178</ele>
        <time>2016-10-12T14:30:13Z</time>
      </trkpt>
      <trkpt lat="45.8975" lon="4.73966">
        <ele>178</ele>
        <time>2016-10-12T14:30:14Z</time>
      </trkpt>
      <trkpt lat="45.89744" lon="4.73969">
        <ele>178</ele>
        <time>2016-10-12T14:30:15Z</time>
      </trkpt>
      <trkpt lat="45.89738" lon="4.73971">
        <ele>178</ele>
        <time>2016-10-12T14:30:16Z</time>
      </trkpt>
      <trkpt lat="45.89733" lon="4.73974">
        <ele>178</ele>
        <time>2016-10-12T14:30:17Z</time>
      </trkpt>
      <trkpt lat="45.89727" lon="4.73977">
        <ele>178</ele>
        <time>2016-10-12T14:30:18Z</time>
      </trkpt>
      <trkpt lat="45.89721" lon="4.7398">
        <ele>178</ele>
        <time>2016-10-12T14:30:19Z</time>
      </trkpt>
      <trkpt lat="45.89716" lon="4.73982">
        <ele>178</ele>
        <time>2016-10-12T14:30:20Z</time>
      </trkpt>
      <trkpt lat="45.8971" lon="4.73984">
        <ele>178</ele>
        <time>2016-10-12T14:30:21Z</time>
      </trkpt>
      <trkpt lat="45.89704" lon="4.73987">
        <ele>178</ele>
        <time>2016-10-12T14:30:22Z</time>
      </trkpt>
      <trkpt lat="45.89698" lon="4.73989">
        <ele>178</ele>
        <time>2016-10-12T14:30:23Z</time>
      </trkpt>
      <trkpt lat="45.89692" lon="4.73992">
        <ele>178</ele>
        <time>2016-10-12T14:30:24Z</time>
      </trkpt>
      <trkpt lat="45.89685" lon="4.73994">
        <ele>179</ele>
        <time>2016-10-12T14:30:25Z</time>
      </trkpt>
      <trkpt lat="45.89679" lon="4.73996">
        <ele>179</ele>
        <time>2016-10-12T14:30:26Z</time>
      </trkpt>
      <trkpt lat="45.89673" lon="4.73999">
        <ele>179</ele>
        <time>2016-10-12T14:30:27Z</time>
      </trkpt>
      <trkpt lat="45.89667" lon="4.74001">
        <ele>179</ele>
        <time>2016-10-12T14:30:28Z</time>
      </trkpt>
      <trkpt lat="45.89662" lon="4.74004">
        <ele>179</ele>
        <time>2016-10-12T14:30:29Z</time>
      </trkpt>
      <trkpt lat="45.89656" lon="4.74006">
        <ele>179</ele>
        <time>2016-10-12T14:30:30Z</time>
      </trkpt>
      <trkpt lat="45.8965" lon="4.74009">
        <ele>180</ele>
        <time>2016-10-12T14:30:31Z</time>
      </trkpt>
      <trkpt lat="45.89644" lon="4.74011">
        <ele>180</ele>
        <time>2016-10-12T14:30:32Z</time>
      </trkpt>
      <trkpt lat="45.89638" lon="4.74014">
        <ele>180</ele>
        <time>2016-10-12T14:30:33Z</time>
      </trkpt>
      <trkpt lat="45.89632" lon="4.74017">
        <ele>180</ele>
        <time>2016-10-12T14:30:34Z</time>
      </trkpt>
      <trkpt lat="45.89626" lon="4.7402">
        <ele>180</ele>
        <time>2016-10-12T14:30:35Z</time>
      </trkpt>
      <trkpt lat="45.89621" lon="4.74023">
        <ele>180</ele>
        <time>2016-10-12T14:30:36Z</time>
      </trkpt>
      <trkpt lat="45.89615" lon="4.74025">
        <ele>180</ele>
        <time>2016-10-12T14:30:37Z</time>
      </trkpt>
      <trkpt lat="45.89609" lon="4.74028">
        <ele>180</ele>
        <time>2016-10-12T14:30:38Z</time>
      </trkpt>
      <trkpt lat="45.89603" lon="4.7403">
        <ele>180</ele>
        <time>2016-10-12T14:30:39Z</time>
      </trkpt>
      <trkpt lat="45.89595" lon="4.74032">
        <ele>180</ele>
        <time>2016-10-12T14:30:40Z</time>
      </trkpt>
      <trkpt lat="45.8959" lon="4.74035">
        <ele>180</ele>
        <time>2016-10-12T14:30:41Z</time>
      </trkpt>
      <trkpt lat="45.89584" lon="4.74037">
        <ele>180</ele>
        <time>2016-10-12T14:30:42Z</time>
      </trkpt>
      <trkpt lat="45.89578" lon="4.7404">
        <ele>181</ele>
        <time>2016-10-12T14:30:43Z</time>
      </trkpt>
      <trkpt lat="45.89572" lon="4.74042">
        <ele>181</ele>
        <time>2016-10-12T14:30:44Z</time>
      </trkpt>
      <trkpt lat="45.89566" lon="4.74045">
        <ele>181</ele>
        <time>2016-10-12T14:30:45Z</time>
      </trkpt>
      <trkpt lat="45.89561" lon="4.74047">
        <ele>181</ele>
        <time>2016-10-12T14:30:46Z</time>
      </trkpt>
      <trkpt lat="45.89555" lon="4.74051">
        <ele>181</ele>
        <time>2016-10-12T14:30:47Z</time>
      </trkpt>
      <trkpt lat="45.8955" lon="4.74053">
        <ele>181</ele>
        <time>2016-10-12T14:30:48Z</time>
      </trkpt>
      <trkpt lat="45.89544" lon="4.74054">
        <ele>181</ele>
        <time>2016-10-12T14:30:49Z</time>
      </trkpt>
      <trkpt lat="45.89538" lon="4.74056">
        <ele>181</ele>
        <time>2016-10-12T14:30:50Z</time>
      </trkpt>
      <trkpt lat="45.89533" lon="4.74059">
        <ele>181</ele>
        <time>2016-10-12T14:30:51Z</time>
      </trkpt>
      <trkpt lat="45.89527" lon="4.74061">
        <ele>181</ele>
        <time>2016-10-12T14:30:52Z</time>
      </trkpt>
      <trkpt lat="45.89523" lon="4.74065">
        <ele>181</ele>
        <time>2016-10-12T14:30:53Z</time>
      </trkpt>
      <trkpt lat="45.89518" lon="4.74073">
        <ele>181</ele>
        <time>2016-10-12T14:30:54Z</time>
      </trkpt>
      <trkpt lat="45.89513" lon="4.7408">
        <ele>181</ele>
        <time>2016-10-12T14:30:55Z</time>
      </trkpt>
      <trkpt lat="45.89508" lon="4.74083">
        <ele>181</ele>
        <time>2016-10-12T14:30:56Z</time>
      </trkpt>
      <trkpt lat="45.89503" lon="4.74086">
        <ele>181</ele>
        <time>2016-10-12T14:30:57Z</time>
      </trkpt>
      <trkpt lat="45.89498" lon="4.74086">
        <ele>181</ele>
        <time>2016-10-12T14:30:58Z</time>
      </trkpt>
      <trkpt lat="45.89492" lon="4.74088">
        <ele>182</ele>
        <time>2016-10-12T14:30:59Z</time>
      </trkpt>
      <trkpt lat="45.89485" lon="4.7409">
        <ele>182</ele>
        <time>2016-10-12T14:31:00Z</time>
      </trkpt>
      <trkpt lat="45.89478" lon="4.74093">
        <ele>182</ele>
        <time>2016-10-12T14:31:01Z</time>
      </trkpt>
      <trkpt lat="45.89471" lon="4.74093">
        <ele>182</ele>
        <time>2016-10-12T14:31:02Z</time>
      </trkpt>
      <trkpt lat="45.89464" lon="4.74094">
        <ele>182</ele>
        <time>2016-10-12T14:31:03Z</time>
      </trkpt>
      <trkpt lat="45.89458" lon="4.74095">
        <ele>182</ele>
        <time>2016-10-12T14:31:04Z</time>
      </trkpt>
      <trkpt lat="45.89453" lon="4.74097">
        <ele>182</ele>
        <time>2016-10-12T14:31:05Z</time>
      </trkpt>
      <trkpt lat="45.89448" lon="4.74098">
        <ele>182</ele>
        <time>2016-10-12T14:31:06Z</time>
      </trkpt>
      <trkpt lat="45.89442" lon="4.741">
        <ele>182</ele>
        <time>2016-10-12T14:31:07Z</time>
      </trkpt>
      <trkpt lat="45.89436" lon="4.74103">
        <ele>182</ele>
        <time>2016-10-12T14:31:08Z</time>
      </trkpt>
      <trkpt lat="45.8943" lon="4.74106">
        <ele>183</ele>
        <time>2016-10-12T14:31:09Z</time>
      </trkpt>
      <trkpt lat="45.89424" lon="4.74108">
        <ele>183</ele>
        <time>2016-10-12T14:31:10Z</time>
      </trkpt>
      <trkpt lat="45.89418" lon="4.74109">
        <ele>183</ele>
        <time>2016-10-12T14:31:11Z</time>
      </trkpt>
      <trkpt lat="45.89413" lon="4.74111">
        <ele>183</ele>
        <time>2016-10-12T14:31:12Z</time>
      </trkpt>
      <trkpt lat="45.89407" lon="4.74113">
        <ele>183</ele>
        <time>2016-10-12T14:31:13Z</time>
      </trkpt>
      <trkpt lat="45.89402" lon="4.74115">
        <ele>184</ele>
        <time>2016-10-12T14:31:14Z</time>
      </trkpt>
      <trkpt lat="45.89396" lon="4.74117">
        <ele>184</ele>
        <time>2016-10-12T14:31:15Z</time>
      </trkpt>
      <trkpt lat="45.89391" lon="4.7412">
        <ele>184</ele>
        <time>2016-10-12T14:31:16Z</time>
      </trkpt>
      <trkpt lat="45.89386" lon="4.74123">
        <ele>184</ele>
        <time>2016-10-12T14:31:17Z</time>
      </trkpt>
      <trkpt lat="45.8938" lon="4.74125">
        <ele>184</ele>
        <time>2016-10-12T14:31:18Z</time>
      </trkpt>
      <trkpt lat="45.89375" lon="4.74127">
        <ele>184</ele>
        <time>2016-10-12T14:31:19Z</time>
      </trkpt>
      <trkpt lat="45.8937" lon="4.7413">
        <ele>184</ele>
        <time>2016-10-12T14:31:20Z</time>
      </trkpt>
      <trkpt lat="45.89364" lon="4.74132">
        <ele>184</ele>
        <time>2016-10-12T14:31:21Z</time>
      </trkpt>
      <trkpt lat="45.89359" lon="4.74134">
        <ele>184</ele>
        <time>2016-10-12T14:31:22Z</time>
      </trkpt>
      <trkpt lat="45.89354" lon="4.74136">
        <ele>184</ele>
        <time>2016-10-12T14:31:23Z</time>
      </trkpt>
      <trkpt lat="45.89349" lon="4.74137">
        <ele>184</ele>
        <time>2016-10-12T14:31:24Z</time>
      </trkpt>
      <trkpt lat="45.89345" lon="4.74139">
        <ele>185</ele>
        <time>2016-10-12T14:31:25Z</time>
      </trkpt>
      <trkpt lat="45.8934" lon="4.74141">
        <ele>185</ele>
        <time>2016-10-12T14:31:26Z</time>
      </trkpt>
      <trkpt lat="45.89335" lon="4.74143">
        <ele>185</ele>
        <time>2016-10-12T14:31:27Z</time>
      </trkpt>
      <trkpt lat="45.8933" lon="4.74145">
        <ele>185</ele>
        <time>2016-10-12T14:31:28Z</time>
      </trkpt>
      <trkpt lat="45.89325" lon="4.74147">
        <ele>185</ele>
        <time>2016-10-12T14:31:29Z</time>
      </trkpt>
      <trkpt lat="45.8932" lon="4.74149">
        <ele>185</ele>
        <time>2016-10-12T14:31:30Z</time>
      </trkpt>
      <trkpt lat="45.89314" lon="4.74153">
        <ele>185</ele>
        <time>2016-10-12T14:31:31Z</time>
      </trkpt>
      <trkpt lat="45.89308" lon="4.74155">
        <ele>185</ele>
        <time>2016-10-12T14:31:32Z</time>
      </trkpt>
      <trkpt lat="45.89302" lon="4.74158">
        <ele>185</ele>
        <time>2016-10-12T14:31:33Z</time>
      </trkpt>
      <trkpt lat="45.89296" lon="4.74161">
        <ele>185</ele>
        <time>2016-10-12T14:31:34Z</time>
      </trkpt>
      <trkpt lat="45.89292" lon="4.74164">
        <ele>185</ele>
        <time>2016-10-12T14:31:35Z</time>
      </trkpt>
      <trkpt lat="45.89287" lon="4.74166">
        <ele>185</ele>
        <time>2016-10-12T14:31:36Z</time>
      </trkpt>
      <trkpt lat="45.89281" lon="4.74169">
        <ele>186</ele>
        <time>2016-10-12T14:31:37Z</time>
      </trkpt>
      <trkpt lat="45.89276" lon="4.74172">
        <ele>186</ele>
        <time>2016-10-12T14:31:38Z</time>
      </trkpt>
      <trkpt lat="45.8927" lon="4.74175">
        <ele>186</ele>
        <time>2016-10-12T14:31:39Z</time>
      </trkpt>
      <trkpt lat="45.89265" lon="4.74177">
        <ele>186</ele>
        <time>2016-10-12T14:31:40Z</time>
      </trkpt>
      <trkpt lat="45.8926" lon="4.74179">
        <ele>186</ele>
        <time>2016-10-12T14:31:41Z</time>
      </trkpt>
      <trkpt lat="45.89254" lon="4.74182">
        <ele>186</ele>
        <time>2016-10-12T14:31:42Z</time>
      </trkpt>
      <trkpt lat="45.89249" lon="4.74184">
        <ele>186</ele>
        <time>2016-10-12T14:31:43Z</time>
      </trkpt>
      <trkpt lat="45.89244" lon="4.74185">
        <ele>186</ele>
        <time>2016-10-12T14:31:44Z</time>
      </trkpt>
      <trkpt lat="45.89239" lon="4.74188">
        <ele>186</ele>
        <time>2016-10-12T14:31:45Z</time>
      </trkpt>
      <trkpt lat="45.89232" lon="4.74191">
        <ele>186</ele>
        <time>2016-10-12T14:31:46Z</time>
      </trkpt>
      <trkpt lat="45.89227" lon="4.74194">
        <ele>186</ele>
        <time>2016-10-12T14:31:47Z</time>
      </trkpt>
      <trkpt lat="45.89222" lon="4.74196">
        <ele>186</ele>
        <time>2016-10-12T14:31:48Z</time>
      </trkpt>
      <trkpt lat="45.89217" lon="4.74198">
        <ele>186</ele>
        <time>2016-10-12T14:31:49Z</time>
      </trkpt>
      <trkpt lat="45.89211" lon="4.742">
        <ele>186</ele>
        <time>2016-10-12T14:31:50Z</time>
      </trkpt>
      <trkpt lat="45.89206" lon="4.74201">
        <ele>186</ele>
        <time>2016-10-12T14:31:51Z</time>
      </trkpt>
      <trkpt lat="45.89201" lon="4.74203">
        <ele>186</ele>
        <time>2016-10-12T14:31:52Z</time>
      </trkpt>
      <trkpt lat="45.89197" lon="4.74205">
        <ele>186</ele>
        <time>2016-10-12T14:31:53Z</time>
      </trkpt>
      <trkpt lat="45.89192" lon="4.74208">
        <ele>186</ele>
        <time>2016-10-12T14:31:54Z</time>
      </trkpt>
      <trkpt lat="45.89187" lon="4.7421">
        <ele>186</ele>
        <time>2016-10-12T14:31:55Z</time>
      </trkpt>
      <trkpt lat="45.89182" lon="4.74211">
        <ele>186</ele>
        <time>2016-10-12T14:31:56Z</time>
      </trkpt>
      <trkpt lat="45.89176" lon="4.74214">
        <ele>186</ele>
        <time>2016-10-12T14:31:57Z</time>
      </trkpt>
      <trkpt lat="45.89171" lon="4.74216">
        <ele>186</ele>
        <time>2016-10-12T14:31:58Z</time>
      </trkpt>
      <trkpt lat="45.89165" lon="4.74218">
        <ele>186</ele>
        <time>2016-10-12T14:31:59Z</time>
      </trkpt>
      <trkpt lat="45.8916" lon="4.74221">
        <ele>186</ele>
        <time>2016-10-12T14:32:00Z</time>
      </trkpt>
      <trkpt lat="45.89154" lon="4.74224">
        <ele>186</ele>
        <time>2016-10-12T14:32:01Z</time>
      </trkpt>
      <trkpt lat="45.89148" lon="4.74226">
        <ele>186</ele>
        <time>2016-10-12T14:32:02Z</time>
      </trkpt>
      <trkpt lat="45.89142" lon="4.74227">
        <ele>186</ele>
        <time>2016-10-12T14:32:03Z</time>
      </trkpt>
      <trkpt lat="45.89136" lon="4.74229">
        <ele>186</ele>
        <time>2016-10-12T14:32:04Z</time>
      </trkpt>
      <trkpt lat="45.8913" lon="4.74231">
        <ele>186</ele>
        <time>2016-10-12T14:32:05Z</time>
      </trkpt>
      <trkpt lat="45.89124" lon="4.74234">
        <ele>186</ele>
        <time>2016-10-12T14:32:06Z</time>
      </trkpt>
      <trkpt lat="45.89118" lon="4.74237">
        <ele>186</ele>
        <time>2016-10-12T14:32:07Z</time>
      </trkpt>
      <trkpt lat="45.89112" lon="4.74239">
        <ele>186</ele>
        <time>2016-10-12T14:32:08Z</time>
      </trkpt>
      <trkpt lat="45.89107" lon="4.7424">
        <ele>186</ele>
        <time>2016-10-12T14:32:09Z</time>
      </trkpt>
      <trkpt lat="45.89101" lon="4.74242">
        <ele>186</ele>
        <time>2016-10-12T14:32:10Z</time>
      </trkpt>
      <trkpt lat="45.89095" lon="4.74244">
        <ele>186</ele>
        <time>2016-10-12T14:32:11Z</time>
      </trkpt>
      <trkpt lat="45.89089" lon="4.74246">
        <ele>186</ele>
        <time>2016-10-12T14:32:12Z</time>
      </trkpt>
      <trkpt lat="45.89082" lon="4.74247">
        <ele>186</ele>
        <time>2016-10-12T14:32:13Z</time>
      </trkpt>
      <trkpt lat="45.89076" lon="4.74248">
        <ele>186</ele>
        <time>2016-10-12T14:32:14Z</time>
      </trkpt>
      <trkpt lat="45.8907" lon="4.74251">
        <ele>186</ele>
        <time>2016-10-12T14:32:15Z</time>
      </trkpt>
      <trkpt lat="45.89065" lon="4.74254">
        <ele>186</ele>
        <time>2016-10-12T14:32:16Z</time>
      </trkpt>
      <trkpt lat="45.89058" lon="4.74257">
        <ele>187</ele>
        <time>2016-10-12T14:32:17Z</time>
      </trkpt>
      <trkpt lat="45.89052" lon="4.74259">
        <ele>187</ele>
        <time>2016-10-12T14:32:18Z</time>
      </trkpt>
      <trkpt lat="45.89045" lon="4.74261">
        <ele>187</ele>
        <time>2016-10-12T14:32:19Z</time>
      </trkpt>
      <trkpt lat="45.89039" lon="4.74264">
        <ele>187</ele>
        <time>2016-10-12T14:32:20Z</time>
      </trkpt>
      <trkpt lat="45.89033" lon="4.74268">
        <ele>187</ele>
        <time>2016-10-12T14:32:21Z</time>
      </trkpt>
      <trkpt lat="45.89027" lon="4.7427">
        <ele>187</ele>
        <time>2016-10-12T14:32:22Z</time>
      </trkpt>
      <trkpt lat="45.89021" lon="4.74273">
        <ele>187</ele>
        <time>2016-10-12T14:32:23Z</time>
      </trkpt>
      <trkpt lat="45.89015" lon="4.74275">
        <ele>187</ele>
        <time>2016-10-12T14:32:24Z</time>
      </trkpt>
      <trkpt lat="45.89009" lon="4.74275">
        <ele>187</ele>
        <time>2016-10-12T14:32:25Z</time>
      </trkpt>
      <trkpt lat="45.89004" lon="4.74277">
        <ele>187</ele>
        <time>2016-10-12T14:32:26Z</time>
      </trkpt>
      <trkpt lat="45.88997" lon="4.74277">
        <ele>187</ele>
        <time>2016-10-12T14:32:27Z</time>
      </trkpt>
      <trkpt lat="45.88989" lon="4.7428">
        <ele>187</ele>
        <time>2016-10-12T14:32:28Z</time>
      </trkpt>
      <trkpt lat="45.88984" lon="4.7428">
        <ele>187</ele>
        <time>2016-10-12T14:32:29Z</time>
      </trkpt>
      <trkpt lat="45.88977" lon="4.74282">
        <ele>187</ele>
        <time>2016-10-12T14:32:30Z</time>
      </trkpt>
      <trkpt lat="45.88971" lon="4.74282">
        <ele>187</ele>
        <time>2016-10-12T14:32:31Z</time>
      </trkpt>
      <trkpt lat="45.88966" lon="4.7428">
        <ele>187</ele>
        <time>2016-10-12T14:32:32Z</time>
      </trkpt>
      <trkpt lat="45.8896" lon="4.74279">
        <ele>187</ele>
        <time>2016-10-12T14:32:33Z</time>
      </trkpt>
      <trkpt lat="45.88953" lon="4.74275">
        <ele>187</ele>
        <time>2016-10-12T14:32:35Z</time>
      </trkpt>
      <trkpt lat="45.88948" lon="4.74273">
        <ele>187</ele>
        <time>2016-10-12T14:32:36Z</time>
      </trkpt>
      <trkpt lat="45.88944" lon="4.74271">
        <ele>187</ele>
        <time>2016-10-12T14:32:37Z</time>
      </trkpt>
      <trkpt lat="45.88939" lon="4.74269">
        <ele>187</ele>
        <time>2016-10-12T14:32:38Z</time>
      </trkpt>
      <trkpt lat="45.88933" lon="4.74266">
        <ele>187</ele>
        <time>2016-10-12T14:32:39Z</time>
      </trkpt>
      <trkpt lat="45.88928" lon="4.74264">
        <ele>187</ele>
        <time>2016-10-12T14:32:40Z</time>
      </trkpt>
      <trkpt lat="45.88923" lon="4.7426">
        <ele>187</ele>
        <time>2016-10-12T14:32:41Z</time>
      </trkpt>
      <trkpt lat="45.88918" lon="4.74256">
        <ele>187</ele>
        <time>2016-10-12T14:32:42Z</time>
      </trkpt>
      <trkpt lat="45.8891" lon="4.7425">
        <ele>187</ele>
        <time>2016-10-12T14:32:44Z</time>
      </trkpt>
      <trkpt lat="45.88906" lon="4.74248">
        <ele>187</ele>
        <time>2016-10-12T14:32:45Z</time>
      </trkpt>
      <trkpt lat="45.88899" lon="4.74254">
        <ele>187</ele>
        <time>2016-10-12T14:32:46Z</time>
      </trkpt>
      <trkpt lat="45.88895" lon="4.7425">
        <ele>187</ele>
        <time>2016-10-12T14:32:47Z</time>
      </trkpt>
      <trkpt lat="45.8889" lon="4.74244">
        <ele>187</ele>
        <time>2016-10-12T14:32:48Z</time>
      </trkpt>
      <trkpt lat="45.88885" lon="4.7424">
        <ele>187</ele>
        <time>2016-10-12T14:32:49Z</time>
      </trkpt>
      <trkpt lat="45.88881" lon="4.74235">
        <ele>187</ele>
        <time>2016-10-12T14:32:50Z</time>
      </trkpt>
      <trkpt lat="45.88879" lon="4.7423">
        <ele>187</ele>
        <time>2016-10-12T14:32:51Z</time>
      </trkpt>
      <trkpt lat="45.88873" lon="4.74227">
        <ele>187</ele>
        <time>2016-10-12T14:32:52Z</time>
      </trkpt>
      <trkpt lat="45.88869" lon="4.74223">
        <ele>187</ele>
        <time>2016-10-12T14:32:53Z</time>
      </trkpt>
      <trkpt lat="45.88864" lon="4.74219">
        <ele>187</ele>
        <time>2016-10-12T14:32:54Z</time>
      </trkpt>
      <trkpt lat="45.88858" lon="4.74215">
        <ele>187</ele>
        <time>2016-10-12T14:32:55Z</time>
      </trkpt>
      <trkpt lat="45.88853" lon="4.74211">
        <ele>187</ele>
        <time>2016-10-12T14:32:56Z</time>
      </trkpt>
      <trkpt lat="45.88846" lon="4.74208">
        <ele>187</ele>
        <time>2016-10-12T14:32:57Z</time>
      </trkpt>
      <trkpt lat="45.8884" lon="4.74206">
        <ele>187</ele>
        <time>2016-10-12T14:32:58Z</time>
      </trkpt>
      <trkpt lat="45.88835" lon="4.74203">
        <ele>187</ele>
        <time>2016-10-12T14:32:59Z</time>
      </trkpt>
      <trkpt lat="45.88829" lon="4.742">
        <ele>187</ele>
        <time>2016-10-12T14:33:00Z</time>
      </trkpt>
      <trkpt lat="45.88823" lon="4.74197">
        <ele>187</ele>
        <time>2016-10-12T14:33:01Z</time>
      </trkpt>
      <trkpt lat="45.88818" lon="4.74194">
        <ele>187</ele>
        <time>2016-10-12T14:33:02Z</time>
      </trkpt>
      <trkpt lat="45.88813" lon="4.74191">
        <ele>187</ele>
        <time>2016-10-12T14:33:03Z</time>
      </trkpt>
      <trkpt lat="45.88808" lon="4.74188">
        <ele>187</ele>
        <time>2016-10-12T14:33:04Z</time>
      </trkpt>
      <trkpt lat="45.88803" lon="4.74185">
        <ele>187</ele>
        <time>2016-10-12T14:33:05Z</time>
      </trkpt>
      <trkpt lat="45.88798" lon="4.74183">
        <ele>187</ele>
        <time>2016-10-12T14:33:06Z</time>
      </trkpt>
      <trkpt lat="45.88793" lon="4.7418">
        <ele>188</ele>
        <time>2016-10-12T14:33:07Z</time>
      </trkpt>
      <trkpt lat="45.88788" lon="4.74177">
        <ele>188</ele>
        <time>2016-10-12T14:33:08Z</time>
      </trkpt>
      <trkpt lat="45.88784" lon="4.74175">
        <ele>188</ele>
        <time>2016-10-12T14:33:09Z</time>
      </trkpt>
      <trkpt lat="45.88779" lon="4.74172">
        <ele>188</ele>
        <time>2016-10-12T14:33:10Z</time>
      </trkpt>
      <trkpt lat="45.88775" lon="4.7417">
        <ele>188</ele>
        <time>2016-10-12T14:33:11Z</time>
      </trkpt>
      <trkpt lat="45.8877" lon="4.74167">
        <ele>187</ele>
        <time>2016-10-12T14:33:12Z</time>
      </trkpt>
      <trkpt lat="45.88765" lon="4.74164">
        <ele>187</ele>
        <time>2016-10-12T14:33:13Z</time>
      </trkpt>
      <trkpt lat="45.88761" lon="4.74161">
        <ele>187</ele>
        <time>2016-10-12T14:33:14Z</time>
      </trkpt>
      <trkpt lat="45.88756" lon="4.74157">
        <ele>187</ele>
        <time>2016-10-12T14:33:15Z</time>
      </trkpt>
      <trkpt lat="45.8875" lon="4.74153">
        <ele>188</ele>
        <time>2016-10-12T14:33:16Z</time>
      </trkpt>
      <trkpt lat="45.88744" lon="4.74148">
        <ele>188</ele>
        <time>2016-10-12T14:33:17Z</time>
      </trkpt>
      <trkpt lat="45.88739" lon="4.74144">
        <ele>188</ele>
        <time>2016-10-12T14:33:18Z</time>
      </trkpt>
      <trkpt lat="45.88734" lon="4.7414">
        <ele>188</ele>
        <time>2016-10-12T14:33:19Z</time>
      </trkpt>
      <trkpt lat="45.88728" lon="4.74136">
        <ele>188</ele>
        <time>2016-10-12T14:33:20Z</time>
      </trkpt>
      <trkpt lat="45.88723" lon="4.74132">
        <ele>188</ele>
        <time>2016-10-12T14:33:21Z</time>
      </trkpt>
      <trkpt lat="45.88718" lon="4.74128">
        <ele>188</ele>
        <time>2016-10-12T14:33:22Z</time>
      </trkpt>
      <trkpt lat="45.88713" lon="4.74124">
        <ele>188</ele>
        <time>2016-10-12T14:33:23Z</time>
      </trkpt>
      <trkpt lat="45.88708" lon="4.74121">
        <ele>188</ele>
        <time>2016-10-12T14:33:24Z</time>
      </trkpt>
      <trkpt lat="45.88704" lon="4.74117">
        <ele>188</ele>
        <time>2016-10-12T14:33:25Z</time>
      </trkpt>
      <trkpt lat="45.88699" lon="4.74114">
        <ele>188</ele>
        <time>2016-10-12T14:33:26Z</time>
      </trkpt>
      <trkpt lat="45.88694" lon="4.74111">
        <ele>188</ele>
        <time>2016-10-12T14:33:27Z</time>
      </trkpt>
      <trkpt lat="45.88689" lon="4.74109">
        <ele>188</ele>
        <time>2016-10-12T14:33:28Z</time>
      </trkpt>
      <trkpt lat="45.88684" lon="4.74107">
        <ele>188</ele>
        <time>2016-10-12T14:33:29Z</time>
      </trkpt>
      <trkpt lat="45.88679" lon="4.74106">
        <ele>188</ele>
        <time>2016-10-12T14:33:30Z</time>
      </trkpt>
      <trkpt lat="45.88675" lon="4.74103">
        <ele>188</ele>
        <time>2016-10-12T14:33:31Z</time>
      </trkpt>
      <trkpt lat="45.88671" lon="4.74097">
        <ele>188</ele>
        <time>2016-10-12T14:33:32Z</time>
      </trkpt>
      <trkpt lat="45.88669" lon="4.7409">
        <ele>188</ele>
        <time>2016-10-12T14:33:33Z</time>
      </trkpt>
      <trkpt lat="45.88667" lon="4.74083">
        <ele>188</ele>
        <time>2016-10-12T14:33:34Z</time>
      </trkpt>
      <trkpt lat="45.88664" lon="4.74076">
        <ele>188</ele>
        <time>2016-10-12T14:33:35Z</time>
      </trkpt>
      <trkpt lat="45.88661" lon="4.74069">
        <ele>188</ele>
        <time>2016-10-12T14:33:36Z</time>
      </trkpt>
      <trkpt lat="45.88658" lon="4.74063">
        <ele>188</ele>
        <time>2016-10-12T14:33:37Z</time>
      </trkpt>
      <trkpt lat="45.88656" lon="4.74058">
        <ele>187</ele>
        <time>2016-10-12T14:33:38Z</time>
      </trkpt>
      <trkpt lat="45.88654" lon="4.74051">
        <ele>187</ele>
        <time>2016-10-12T14:33:39Z</time>
      </trkpt>
      <trkpt lat="45.88652" lon="4.74043">
        <ele>187</ele>
        <time>2016-10-12T14:33:40Z</time>
      </trkpt>
      <trkpt lat="45.8865" lon="4.74035">
        <ele>187</ele>
        <time>2016-10-12T14:33:41Z</time>
      </trkpt>
      <trkpt lat="45.88649" lon="4.74026">
        <ele>187</ele>
        <time>2016-10-12T14:33:42Z</time>
      </trkpt>
      <trkpt lat="45.88649" lon="4.74017">
        <ele>187</ele>
        <time>2016-10-12T14:33:43Z</time>
      </trkpt>
      <trkpt lat="45.88648" lon="4.74008">
        <ele>187</ele>
        <time>2016-10-12T14:33:44Z</time>
      </trkpt>
      <trkpt lat="45.88648" lon="4.73998">
        <ele>186</ele>
        <time>2016-10-12T14:33:45Z</time>
      </trkpt>
      <trkpt lat="45.88647" lon="4.73989">
        <ele>187</ele>
        <time>2016-10-12T14:33:46Z</time>
      </trkpt>
      <trkpt lat="45.88645" lon="4.7398">
        <ele>187</ele>
        <time>2016-10-12T14:33:47Z</time>
      </trkpt>
      <trkpt lat="45.88644" lon="4.73972">
        <ele>187</ele>
        <time>2016-10-12T14:33:48Z</time>
      </trkpt>
      <trkpt lat="45.88643" lon="4.73964">
        <ele>187</ele>
        <time>2016-10-12T14:33:49Z</time>
      </trkpt>
      <trkpt lat="45.88642" lon="4.73953">
        <ele>187</ele>
        <time>2016-10-12T14:33:50Z</time>
      </trkpt>
      <trkpt lat="45.88642" lon="4.73944">
        <ele>187</ele>
        <time>2016-10-12T14:33:51Z</time>
      </trkpt>
      <trkpt lat="45.88643" lon="4.73934">
        <ele>187</ele>
        <time>2016-10-12T14:33:52Z</time>
      </trkpt>
      <trkpt lat="45.88644" lon="4.73925">
        <ele>187</ele>
        <time>2016-10-12T14:33:53Z</time>
      </trkpt>
      <trkpt lat="45.88644" lon="4.73917">
        <ele>187</ele>
        <time>2016-10-12T14:33:54Z</time>
      </trkpt>
      <trkpt lat="45.88645" lon="4.73909">
        <ele>187</ele>
        <time>2016-10-12T14:33:55Z</time>
      </trkpt>
      <trkpt lat="45.88644" lon="4.73899">
        <ele>187</ele>
        <time>2016-10-12T14:33:56Z</time>
      </trkpt>
      <trkpt lat="45.88644" lon="4.7389">
        <ele>187</ele>
        <time>2016-10-12T14:33:57Z</time>
      </trkpt>
      <trkpt lat="45.88644" lon="4.7388">
        <ele>187</ele>
        <time>2016-10-12T14:33:58Z</time>
      </trkpt>
      <trkpt lat="45.88644" lon="4.73872">
        <ele>187</ele>
        <time>2016-10-12T14:33:59Z</time>
      </trkpt>
      <trkpt lat="45.88645" lon="4.73863">
        <ele>187</ele>
        <time>2016-10-12T14:34:00Z</time>
      </trkpt>
      <trkpt lat="45.88645" lon="4.73855">
        <ele>187</ele>
        <time>2016-10-12T14:34:01Z</time>
      </trkpt>
      <trkpt lat="45.88644" lon="4.73846">
        <ele>187</ele>
        <time>2016-10-12T14:34:02Z</time>
      </trkpt>
      <trkpt lat="45.88644" lon="4.73837">
        <ele>187</ele>
        <time>2016-10-12T14:34:03Z</time>
      </trkpt>
      <trkpt lat="45.88645" lon="4.7383">
        <ele>187</ele>
        <time>2016-10-12T14:34:04Z</time>
      </trkpt>
      <trkpt lat="45.88645" lon="4.73822">
        <ele>187</ele>
        <time>2016-10-12T14:34:05Z</time>
      </trkpt>
      <trkpt lat="45.88645" lon="4.73813">
        <ele>187</ele>
        <time>2016-10-12T14:34:06Z</time>
      </trkpt>
      <trkpt lat="45.88645" lon="4.73804">
        <ele>187</ele>
        <time>2016-10-12T14:34:07Z</time>
      </trkpt>
      <trkpt lat="45.88645" lon="4.73796">
        <ele>187</ele>
        <time>2016-10-12T14:34:08Z</time>
      </trkpt>
      <trkpt lat="45.88646" lon="4.73786">
        <ele>187</ele>
        <time>2016-10-12T14:34:09Z</time>
      </trkpt>
      <trkpt lat="45.88647" lon="4.73778">
        <ele>187</ele>
        <time>2016-10-12T14:34:10Z</time>
      </trkpt>
      <trkpt lat="45.88647" lon="4.7377">
        <ele>187</ele>
        <time>2016-10-12T14:34:11Z</time>
      </trkpt>
      <trkpt lat="45.88646" lon="4.73763">
        <ele>187</ele>
        <time>2016-10-12T14:34:12Z</time>
      </trkpt>
      <trkpt lat="45.88646" lon="4.73755">
        <ele>187</ele>
        <time>2016-10-12T14:34:13Z</time>
      </trkpt>
      <trkpt lat="45.88646" lon="4.73748">
        <ele>187</ele>
        <time>2016-10-12T14:34:14Z</time>
      </trkpt>
      <trkpt lat="45.88646" lon="4.7374">
        <ele>187</ele>
        <time>2016-10-12T14:34:15Z</time>
      </trkpt>
      <trkpt lat="45.88646" lon="4.73734">
        <ele>186</ele>
        <time>2016-10-12T14:34:16Z</time>
      </trkpt>
      <trkpt lat="45.88647" lon="4.73726">
        <ele>186</ele>
        <time>2016-10-12T14:34:17Z</time>
      </trkpt>
      <trkpt lat="45.88647" lon="4.7372">
        <ele>186</ele>
        <time>2016-10-12T14:34:18Z</time>
      </trkpt>
      <trkpt lat="45.88646" lon="4.73712">
        <ele>186</ele>
        <time>2016-10-12T14:34:19Z</time>
      </trkpt>
      <trkpt lat="45.88646" lon="4.73701">
        <ele>186</ele>
        <time>2016-10-12T14:34:21Z</time>
      </trkpt>
      <trkpt lat="45.88646" lon="4.73695">
        <ele>186</ele>
        <time>2016-10-12T14:34:22Z</time>
      </trkpt>
      <trkpt lat="45.88647" lon="4.73684">
        <ele>186</ele>
        <time>2016-10-12T14:34:24Z</time>
      </trkpt>
      <trkpt lat="45.88648" lon="4.73678">
        <ele>186</ele>
        <time>2016-10-12T14:34:25Z</time>
      </trkpt>
      <trkpt lat="45.88648" lon="4.73671">
        <ele>186</ele>
        <time>2016-10-12T14:34:26Z</time>
      </trkpt>
      <trkpt lat="45.88649" lon="4.73665">
        <ele>186</ele>
        <time>2016-10-12T14:34:27Z</time>
      </trkpt>
      <trkpt lat="45.88649" lon="4.73657">
        <ele>186</ele>
        <time>2016-10-12T14:34:28Z</time>
      </trkpt>
      <trkpt lat="45.88649" lon="4.7365">
        <ele>186</ele>
        <time>2016-10-12T14:34:29Z</time>
      </trkpt>
      <trkpt lat="45.88649" lon="4.73643">
        <ele>186</ele>
        <time>2016-10-12T14:34:30Z</time>
      </trkpt>
      <trkpt lat="45.88649" lon="4.73635">
        <ele>186</ele>
        <time>2016-10-12T14:34:31Z</time>
      </trkpt>
      <trkpt lat="45.88649" lon="4.73628">
        <ele>186</ele>
        <time>2016-10-12T14:34:32Z</time>
      </trkpt>
      <trkpt lat="45.88649" lon="4.7362">
        <ele>186</ele>
        <time>2016-10-12T14:34:33Z</time>
      </trkpt>
      <trkpt lat="45.88649" lon="4.73612">
        <ele>186</ele>
        <time>2016-10-12T14:34:34Z</time>
      </trkpt>
      <trkpt lat="45.88649" lon="4.73606">
        <ele>186</ele>
        <time>2016-10-12T14:34:35Z</time>
      </trkpt>
      <trkpt lat="45.88649" lon="4.73599">
        <ele>185</ele>
        <time>2016-10-12T14:34:36Z</time>
      </trkpt>
      <trkpt lat="45.88649" lon="4.7359">
        <ele>185</ele>
        <time>2016-10-12T14:34:37Z</time>
      </trkpt>
      <trkpt lat="45.88649" lon="4.73581">
        <ele>185</ele>
        <time>2016-10-12T14:34:38Z</time>
      </trkpt>
      <trkpt lat="45.88649" lon="4.73572">
        <ele>185</ele>
        <time>2016-10-12T14:34:39Z</time>
      </trkpt>
      <trkpt lat="45.88651" lon="4.7356">
        <ele>185</ele>
        <time>2016-10-12T14:34:40Z</time>
      </trkpt>
      <trkpt lat="45.88651" lon="4.7355">
        <ele>185</ele>
        <time>2016-10-12T14:34:41Z</time>
      </trkpt>
      <trkpt lat="45.88652" lon="4.73538">
        <ele>185</ele>
        <time>2016-10-12T14:34:42Z</time>
      </trkpt>
      <trkpt lat="45.88654" lon="4.73527">
        <ele>185</ele>
        <time>2016-10-12T14:34:43Z</time>
      </trkpt>
      <trkpt lat="45.88656" lon="4.73517">
        <ele>185</ele>
        <time>2016-10-12T14:34:44Z</time>
      </trkpt>
      <trkpt lat="45.88659" lon="4.73508">
        <ele>184</ele>
        <time>2016-10-12T14:34:45Z</time>
      </trkpt>
      <trkpt lat="45.88661" lon="4.73499">
        <ele>184</ele>
        <time>2016-10-12T14:34:46Z</time>
      </trkpt>
      <trkpt lat="45.88664" lon="4.7349">
        <ele>184</ele>
        <time>2016-10-12T14:34:47Z</time>
      </trkpt>
      <trkpt lat="45.88665" lon="4.73481">
        <ele>184</ele>
        <time>2016-10-12T14:34:48Z</time>
      </trkpt>
      <trkpt lat="45.88665" lon="4.73471">
        <ele>184</ele>
        <time>2016-10-12T14:34:49Z</time>
      </trkpt>
      <trkpt lat="45.88663" lon="4.73462">
        <ele>184</ele>
        <time>2016-10-12T14:34:50Z</time>
      </trkpt>
      <trkpt lat="45.88661" lon="4.73452">
        <ele>184</ele>
        <time>2016-10-12T14:34:51Z</time>
      </trkpt>
      <trkpt lat="45.88659" lon="4.73442">
        <ele>184</ele>
        <time>2016-10-12T14:34:52Z</time>
      </trkpt>
      <trkpt lat="45.88657" lon="4.73431">
        <ele>184</ele>
        <time>2016-10-12T14:34:53Z</time>
      </trkpt>
      <trkpt lat="45.88655" lon="4.73422">
        <ele>184</ele>
        <time>2016-10-12T14:34:54Z</time>
      </trkpt>
      <trkpt lat="45.88652" lon="4.73414">
        <ele>184</ele>
        <time>2016-10-12T14:34:55Z</time>
      </trkpt>
      <trkpt lat="45.88649" lon="4.73406">
        <ele>184</ele>
        <time>2016-10-12T14:34:56Z</time>
      </trkpt>
      <trkpt lat="45.88646" lon="4.73398">
        <ele>184</ele>
        <time>2016-10-12T14:34:57Z</time>
      </trkpt>
      <trkpt lat="45.88642" lon="4.73392">
        <ele>184</ele>
        <time>2016-10-12T14:34:58Z</time>
      </trkpt>
      <trkpt lat="45.88637" lon="4.73388">
        <ele>184</ele>
        <time>2016-10-12T14:34:59Z</time>
      </trkpt>
      <trkpt lat="45.88632" lon="4.73385">
        <ele>184</ele>
        <time>2016-10-12T14:35:00Z</time>
      </trkpt>
      <trkpt lat="45.88627" lon="4.73385">
        <ele>183</ele>
        <time>2016-10-12T14:35:01Z</time>
      </trkpt>
      <trkpt lat="45.88621" lon="4.73385">
        <ele>183</ele>
        <time>2016-10-12T14:35:02Z</time>
      </trkpt>
      <trkpt lat="45.88615" lon="4.73386">
        <ele>183</ele>
        <time>2016-10-12T14:35:03Z</time>
      </trkpt>
      <trkpt lat="45.8861" lon="4.73388">
        <ele>183</ele>
        <time>2016-10-12T14:35:04Z</time>
      </trkpt>
      <trkpt lat="45.88604" lon="4.73389">
        <ele>183</ele>
        <time>2016-10-12T14:35:05Z</time>
      </trkpt>
      <trkpt lat="45.88599" lon="4.7339">
        <ele>183</ele>
        <time>2016-10-12T14:35:06Z</time>
      </trkpt>
      <trkpt lat="45.88593" lon="4.73392">
        <ele>183</ele>
        <time>2016-10-12T14:35:07Z</time>
      </trkpt>
      <trkpt lat="45.88587" lon="4.73393">
        <ele>183</ele>
        <time>2016-10-12T14:35:08Z</time>
      </trkpt>
      <trkpt lat="45.88581" lon="4.73395">
        <ele>183</ele>
        <time>2016-10-12T14:35:09Z</time>
      </trkpt>
      <trkpt lat="45.88575" lon="4.73397">
        <ele>183</ele>
        <time>2016-10-12T14:35:10Z</time>
      </trkpt>
      <trkpt lat="45.88569" lon="4.73398">
        <ele>183</ele>
        <time>2016-10-12T14:35:11Z</time>
      </trkpt>
      <trkpt lat="45.88563" lon="4.73399">
        <ele>183</ele>
        <time>2016-10-12T14:35:12Z</time>
      </trkpt>
      <trkpt lat="45.88557" lon="4.734">
        <ele>183</ele>
        <time>2016-10-12T14:35:13Z</time>
      </trkpt>
      <trkpt lat="45.88551" lon="4.73401">
        <ele>183</ele>
        <time>2016-10-12T14:35:14Z</time>
      </trkpt>
      <trkpt lat="45.88545" lon="4.73403">
        <ele>183</ele>
        <time>2016-10-12T14:35:15Z</time>
      </trkpt>
      <trkpt lat="45.88539" lon="4.73404">
        <ele>183</ele>
        <time>2016-10-12T14:35:16Z</time>
      </trkpt>
      <trkpt lat="45.88534" lon="4.73406">
        <ele>183</ele>
        <time>2016-10-12T14:35:17Z</time>
      </trkpt>
      <trkpt lat="45.88529" lon="4.73408">
        <ele>183</ele>
        <time>2016-10-12T14:35:18Z</time>
      </trkpt>
      <trkpt lat="45.88523" lon="4.7341">
        <ele>183</ele>
        <time>2016-10-12T14:35:19Z</time>
      </trkpt>
      <trkpt lat="45.88517" lon="4.73412">
        <ele>184</ele>
        <time>2016-10-12T14:35:20Z</time>
      </trkpt>
      <trkpt lat="45.88511" lon="4.73413">
        <ele>184</ele>
        <time>2016-10-12T14:35:21Z</time>
      </trkpt>
      <trkpt lat="45.88505" lon="4.73415">
        <ele>184</ele>
        <time>2016-10-12T14:35:22Z</time>
      </trkpt>
      <trkpt lat="45.885" lon="4.73416">
        <ele>184</ele>
        <time>2016-10-12T14:35:23Z</time>
      </trkpt>
      <trkpt lat="45.88494" lon="4.73418">
        <ele>184</ele>
        <time>2016-10-12T14:35:24Z</time>
      </trkpt>
      <trkpt lat="45.88489" lon="4.7342">
        <ele>184</ele>
        <time>2016-10-12T14:35:25Z</time>
      </trkpt>
      <trkpt lat="45.88483" lon="4.73421">
        <ele>184</ele>
        <time>2016-10-12T14:35:26Z</time>
      </trkpt>
      <trkpt lat="45.88477" lon="4.73423">
        <ele>184</ele>
        <time>2016-10-12T14:35:27Z</time>
      </trkpt>
      <trkpt lat="45.88472" lon="4.73425">
        <ele>184</ele>
        <time>2016-10-12T14:35:28Z</time>
      </trkpt>
      <trkpt lat="45.88467" lon="4.73427">
        <ele>184</ele>
        <time>2016-10-12T14:35:29Z</time>
      </trkpt>
      <trkpt lat="45.88461" lon="4.73428">
        <ele>184</ele>
        <time>2016-10-12T14:35:30Z</time>
      </trkpt>
      <trkpt lat="45.88456" lon="4.7343">
        <ele>184</ele>
        <time>2016-10-12T14:35:31Z</time>
      </trkpt>
      <trkpt lat="45.88451" lon="4.73432">
        <ele>184</ele>
        <time>2016-10-12T14:35:32Z</time>
      </trkpt>
      <trkpt lat="45.88445" lon="4.73433">
        <ele>184</ele>
        <time>2016-10-12T14:35:33Z</time>
      </trkpt>
      <trkpt lat="45.8844" lon="4.73435">
        <ele>184</ele>
        <time>2016-10-12T14:35:34Z</time>
      </trkpt>
      <trkpt lat="45.88434" lon="4.73436">
        <ele>184</ele>
        <time>2016-10-12T14:35:35Z</time>
      </trkpt>
      <trkpt lat="45.88429" lon="4.73437">
        <ele>184</ele>
        <time>2016-10-12T14:35:36Z</time>
      </trkpt>
      <trkpt lat="45.88423" lon="4.73439">
        <ele>184</ele>
        <time>2016-10-12T14:35:37Z</time>
      </trkpt>
      <trkpt lat="45.88417" lon="4.73441">
        <ele>184</ele>
        <time>2016-10-12T14:35:38Z</time>
      </trkpt>
      <trkpt lat="45.88411" lon="4.73443">
        <ele>184</ele>
        <time>2016-10-12T14:35:39Z</time>
      </trkpt>
      <trkpt lat="45.88406" lon="4.73444">
        <ele>184</ele>
        <time>2016-10-12T14:35:40Z</time>
      </trkpt>
      <trkpt lat="45.884" lon="4.73446">
        <ele>184</ele>
        <time>2016-10-12T14:35:41Z</time>
      </trkpt>
      <trkpt lat="45.88394" lon="4.73448">
        <ele>184</ele>
        <time>2016-10-12T14:35:42Z</time>
      </trkpt>
      <trkpt lat="45.88388" lon="4.73449">
        <ele>184</ele>
        <time>2016-10-12T14:35:43Z</time>
      </trkpt>
      <trkpt lat="45.88382" lon="4.73451">
        <ele>184</ele>
        <time>2016-10-12T14:35:44Z</time>
      </trkpt>
      <trkpt lat="45.88376" lon="4.73453">
        <ele>184</ele>
        <time>2016-10-12T14:35:45Z</time>
      </trkpt>
      <trkpt lat="45.88371" lon="4.73454">
        <ele>184</ele>
        <time>2016-10-12T14:35:46Z</time>
      </trkpt>
      <trkpt lat="45.88365" lon="4.73456">
        <ele>184</ele>
        <time>2016-10-12T14:35:47Z</time>
      </trkpt>
      <trkpt lat="45.88359" lon="4.73457">
        <ele>184</ele>
        <time>2016-10-12T14:35:48Z</time>
      </trkpt>
      <trkpt lat="45.88353" lon="4.73459">
        <ele>184</ele>
        <time>2016-10-12T14:35:49Z</time>
      </trkpt>
      <trkpt lat="45.88347" lon="4.73461">
        <ele>184</ele>
        <time>2016-10-12T14:35:50Z</time>
      </trkpt>
      <trkpt lat="45.88341" lon="4.73463">
        <ele>184</ele>
        <time>2016-10-12T14:35:51Z</time>
      </trkpt>
      <trkpt lat="45.88336" lon="4.73465">
        <ele>184</ele>
        <time>2016-10-12T14:35:52Z</time>
      </trkpt>
      <trkpt lat="45.8833" lon="4.73467">
        <ele>184</ele>
        <time>2016-10-12T14:35:53Z</time>
      </trkpt>
      <trkpt lat="45.88324" lon="4.73468">
        <ele>184</ele>
        <time>2016-10-12T14:35:54Z</time>
      </trkpt>
      <trkpt lat="45.88319" lon="4.7347">
        <ele>184</ele>
        <time>2016-10-12T14:35:55Z</time>
      </trkpt>
      <trkpt lat="45.88314" lon="4.73471">
        <ele>184</ele>
        <time>2016-10-12T14:35:56Z</time>
      </trkpt>
      <trkpt lat="45.88308" lon="4.73472">
        <ele>184</ele>
        <time>2016-10-12T14:35:57Z</time>
      </trkpt>
      <trkpt lat="45.88303" lon="4.73474">
        <ele>184</ele>
        <time>2016-10-12T14:35:58Z</time>
      </trkpt>
      <trkpt lat="45.88297" lon="4.73476">
        <ele>184</ele>
        <time>2016-10-12T14:35:59Z</time>
      </trkpt>
      <trkpt lat="45.88292" lon="4.73478">
        <ele>184</ele>
        <time>2016-10-12T14:36:00Z</time>
      </trkpt>
      <trkpt lat="45.88286" lon="4.73481">
        <ele>184</ele>
        <time>2016-10-12T14:36:01Z</time>
      </trkpt>
      <trkpt lat="45.88281" lon="4.73485">
        <ele>184</ele>
        <time>2016-10-12T14:36:02Z</time>
      </trkpt>
      <trkpt lat="45.88275" lon="4.73488">
        <ele>184</ele>
        <time>2016-10-12T14:36:03Z</time>
      </trkpt>
      <trkpt lat="45.8827" lon="4.73492">
        <ele>184</ele>
        <time>2016-10-12T14:36:04Z</time>
      </trkpt>
      <trkpt lat="45.88266" lon="4.73496">
        <ele>185</ele>
        <time>2016-10-12T14:36:05Z</time>
      </trkpt>
      <trkpt lat="45.8826" lon="4.73499">
        <ele>185</ele>
        <time>2016-10-12T14:36:06Z</time>
      </trkpt>
      <trkpt lat="45.88255" lon="4.73501">
        <ele>185</ele>
        <time>2016-10-12T14:36:07Z</time>
      </trkpt>
      <trkpt lat="45.8825" lon="4.73505">
        <ele>185</ele>
        <time>2016-10-12T14:36:08Z</time>
      </trkpt>
      <trkpt lat="45.88245" lon="4.73508">
        <ele>185</ele>
        <time>2016-10-12T14:36:09Z</time>
      </trkpt>
      <trkpt lat="45.8824" lon="4.73511">
        <ele>185</ele>
        <time>2016-10-12T14:36:10Z</time>
      </trkpt>
      <trkpt lat="45.88235" lon="4.73515">
        <ele>185</ele>
        <time>2016-10-12T14:36:11Z</time>
      </trkpt>
      <trkpt lat="45.8823" lon="4.73518">
        <ele>185</ele>
        <time>2016-10-12T14:36:12Z</time>
      </trkpt>
      <trkpt lat="45.88224" lon="4.73522">
        <ele>185</ele>
        <time>2016-10-12T14:36:13Z</time>
      </trkpt>
      <trkpt lat="45.88219" lon="4.73526">
        <ele>185</ele>
        <time>2016-10-12T14:36:14Z</time>
      </trkpt>
      <trkpt lat="45.88214" lon="4.73529">
        <ele>185</ele>
        <time>2016-10-12T14:36:15Z</time>
      </trkpt>
      <trkpt lat="45.88208" lon="4.73531">
        <ele>186</ele>
        <time>2016-10-12T14:36:16Z</time>
      </trkpt>
      <trkpt lat="45.88203" lon="4.73534">
        <ele>186</ele>
        <time>2016-10-12T14:36:17Z</time>
      </trkpt>
      <trkpt lat="45.88198" lon="4.73537">
        <ele>186</ele>
        <time>2016-10-12T14:36:18Z</time>
      </trkpt>
      <trkpt lat="45.88193" lon="4.7354">
        <ele>186</ele>
        <time>2016-10-12T14:36:19Z</time>
      </trkpt>
      <trkpt lat="45.88188" lon="4.73544">
        <ele>186</ele>
        <time>2016-10-12T14:36:20Z</time>
      </trkpt>
      <trkpt lat="45.88183" lon="4.73547">
        <ele>186</ele>
        <time>2016-10-12T14:36:21Z</time>
      </trkpt>
      <trkpt lat="45.88178" lon="4.7355">
        <ele>186</ele>
        <time>2016-10-12T14:36:22Z</time>
      </trkpt>
      <trkpt lat="45.88173" lon="4.73554">
        <ele>186</ele>
        <time>2016-10-12T14:36:23Z</time>
      </trkpt>
      <trkpt lat="45.88168" lon="4.73557">
        <ele>186</ele>
        <time>2016-10-12T14:36:24Z</time>
      </trkpt>
      <trkpt lat="45.88162" lon="4.73561">
        <ele>186</ele>
        <time>2016-10-12T14:36:25Z</time>
      </trkpt>
      <trkpt lat="45.88157" lon="4.73564">
        <ele>186</ele>
        <time>2016-10-12T14:36:26Z</time>
      </trkpt>
      <trkpt lat="45.88152" lon="4.73568">
        <ele>186</ele>
        <time>2016-10-12T14:36:27Z</time>
      </trkpt>
      <trkpt lat="45.88147" lon="4.73571">
        <ele>186</ele>
        <time>2016-10-12T14:36:28Z</time>
      </trkpt>
      <trkpt lat="45.88142" lon="4.73575">
        <ele>186</ele>
        <time>2016-10-12T14:36:29Z</time>
      </trkpt>
      <trkpt lat="45.88137" lon="4.73579">
        <ele>186</ele>
        <time>2016-10-12T14:36:30Z</time>
      </trkpt>
      <trkpt lat="45.88132" lon="4.73583">
        <ele>186</ele>
        <time>2016-10-12T14:36:31Z</time>
      </trkpt>
      <trkpt lat="45.88127" lon="4.73586">
        <ele>187</ele>
        <time>2016-10-12T14:36:32Z</time>
      </trkpt>
      <trkpt lat="45.88122" lon="4.7359">
        <ele>187</ele>
        <time>2016-10-12T14:36:33Z</time>
      </trkpt>
      <trkpt lat="45.88117" lon="4.73593">
        <ele>187</ele>
        <time>2016-10-12T14:36:34Z</time>
      </trkpt>
      <trkpt lat="45.88112" lon="4.73596">
        <ele>187</ele>
        <time>2016-10-12T14:36:35Z</time>
      </trkpt>
      <trkpt lat="45.88107" lon="4.73599">
        <ele>187</ele>
        <time>2016-10-12T14:36:36Z</time>
      </trkpt>
      <trkpt lat="45.88103" lon="4.73601">
        <ele>187</ele>
        <time>2016-10-12T14:36:37Z</time>
      </trkpt>
      <trkpt lat="45.88098" lon="4.73604">
        <ele>188</ele>
        <time>2016-10-12T14:36:38Z</time>
      </trkpt>
      <trkpt lat="45.88093" lon="4.73607">
        <ele>188</ele>
        <time>2016-10-12T14:36:39Z</time>
      </trkpt>
      <trkpt lat="45.88089" lon="4.73611">
        <ele>188</ele>
        <time>2016-10-12T14:36:40Z</time>
      </trkpt>
      <trkpt lat="45.88084" lon="4.73614">
        <ele>188</ele>
        <time>2016-10-12T14:36:41Z</time>
      </trkpt>
      <trkpt lat="45.88079" lon="4.73617">
        <ele>188</ele>
        <time>2016-10-12T14:36:42Z</time>
      </trkpt>
      <trkpt lat="45.88074" lon="4.7362">
        <ele>189</ele>
        <time>2016-10-12T14:36:43Z</time>
      </trkpt>
      <trkpt lat="45.88069" lon="4.73623">
        <ele>189</ele>
        <time>2016-10-12T14:36:44Z</time>
      </trkpt>
      <trkpt lat="45.88063" lon="4.73626">
        <ele>189</ele>
        <time>2016-10-12T14:36:45Z</time>
      </trkpt>
      <trkpt lat="45.88058" lon="4.73628">
        <ele>189</ele>
        <time>2016-10-12T14:36:46Z</time>
      </trkpt>
      <trkpt lat="45.88053" lon="4.73631">
        <ele>189</ele>
        <time>2016-10-12T14:36:47Z</time>
      </trkpt>
      <trkpt lat="45.88049" lon="4.73634">
        <ele>189</ele>
        <time>2016-10-12T14:36:48Z</time>
      </trkpt>
      <trkpt lat="45.88043" lon="4.73637">
        <ele>189</ele>
        <time>2016-10-12T14:36:49Z</time>
      </trkpt>
      <trkpt lat="45.88038" lon="4.7364">
        <ele>189</ele>
        <time>2016-10-12T14:36:50Z</time>
      </trkpt>
      <trkpt lat="45.88033" lon="4.73642">
        <ele>189</ele>
        <time>2016-10-12T14:36:51Z</time>
      </trkpt>
      <trkpt lat="45.88028" lon="4.73643">
        <ele>189</ele>
        <time>2016-10-12T14:36:52Z</time>
      </trkpt>
      <trkpt lat="45.88023" lon="4.73645">
        <ele>189</ele>
        <time>2016-10-12T14:36:53Z</time>
      </trkpt>
      <trkpt lat="45.88018" lon="4.73648">
        <ele>189</ele>
        <time>2016-10-12T14:36:54Z</time>
      </trkpt>
      <trkpt lat="45.88013" lon="4.73649">
        <ele>189</ele>
        <time>2016-10-12T14:36:55Z</time>
      </trkpt>
      <trkpt lat="45.88008" lon="4.73649">
        <ele>189</ele>
        <time>2016-10-12T14:36:56Z</time>
      </trkpt>
      <trkpt lat="45.88003" lon="4.73648">
        <ele>189</ele>
        <time>2016-10-12T14:36:57Z</time>
      </trkpt>
      <trkpt lat="45.87997" lon="4.73647">
        <ele>190</ele>
        <time>2016-10-12T14:36:58Z</time>
      </trkpt>
      <trkpt lat="45.87992" lon="4.73646">
        <ele>190</ele>
        <time>2016-10-12T14:36:59Z</time>
      </trkpt>
      <trkpt lat="45.87986" lon="4.73645">
        <ele>189</ele>
        <time>2016-10-12T14:37:00Z</time>
      </trkpt>
      <trkpt lat="45.8798" lon="4.73643">
        <ele>189</ele>
        <time>2016-10-12T14:37:01Z</time>
      </trkpt>
      <trkpt lat="45.87975" lon="4.73642">
        <ele>189</ele>
        <time>2016-10-12T14:37:02Z</time>
      </trkpt>
      <trkpt lat="45.87969" lon="4.7364">
        <ele>189</ele>
        <time>2016-10-12T14:37:03Z</time>
      </trkpt>
      <trkpt lat="45.87963" lon="4.73639">
        <ele>189</ele>
        <time>2016-10-12T14:37:04Z</time>
      </trkpt>
      <trkpt lat="45.87957" lon="4.73637">
        <ele>189</ele>
        <time>2016-10-12T14:37:05Z</time>
      </trkpt>
      <trkpt lat="45.87951" lon="4.73636">
        <ele>189</ele>
        <time>2016-10-12T14:37:06Z</time>
      </trkpt>
      <trkpt lat="45.87945" lon="4.73634">
        <ele>189</ele>
        <time>2016-10-12T14:37:07Z</time>
      </trkpt>
      <trkpt lat="45.8794" lon="4.73632">
        <ele>189</ele>
        <time>2016-10-12T14:37:08Z</time>
      </trkpt>
      <trkpt lat="45.87934" lon="4.73631">
        <ele>189</ele>
        <time>2016-10-12T14:37:09Z</time>
      </trkpt>
      <trkpt lat="45.87928" lon="4.7363">
        <ele>189</ele>
        <time>2016-10-12T14:37:10Z</time>
      </trkpt>
      <trkpt lat="45.87922" lon="4.73628">
        <ele>189</ele>
        <time>2016-10-12T14:37:11Z</time>
      </trkpt>
      <trkpt lat="45.87917" lon="4.73627">
        <ele>190</ele>
        <time>2016-10-12T14:37:12Z</time>
      </trkpt>
      <trkpt lat="45.87911" lon="4.73625">
        <ele>190</ele>
        <time>2016-10-12T14:37:13Z</time>
      </trkpt>
      <trkpt lat="45.87906" lon="4.73623">
        <ele>190</ele>
        <time>2016-10-12T14:37:14Z</time>
      </trkpt>
      <trkpt lat="45.87901" lon="4.73622">
        <ele>190</ele>
        <time>2016-10-12T14:37:15Z</time>
      </trkpt>
      <trkpt lat="45.87895" lon="4.7362">
        <ele>190</ele>
        <time>2016-10-12T14:37:16Z</time>
      </trkpt>
      <trkpt lat="45.8789" lon="4.73619">
        <ele>190</ele>
        <time>2016-10-12T14:37:17Z</time>
      </trkpt>
      <trkpt lat="45.87885" lon="4.73618">
        <ele>190</ele>
        <time>2016-10-12T14:37:18Z</time>
      </trkpt>
      <trkpt lat="45.87881" lon="4.73617">
        <ele>190</ele>
        <time>2016-10-12T14:37:19Z</time>
      </trkpt>
      <trkpt lat="45.87876" lon="4.73616">
        <ele>190</ele>
        <time>2016-10-12T14:37:20Z</time>
      </trkpt>
      <trkpt lat="45.87871" lon="4.73616">
        <ele>190</ele>
        <time>2016-10-12T14:37:21Z</time>
      </trkpt>
      <trkpt lat="45.87866" lon="4.73617">
        <ele>190</ele>
        <time>2016-10-12T14:37:22Z</time>
      </trkpt>
      <trkpt lat="45.87862" lon="4.7362">
        <ele>190</ele>
        <time>2016-10-12T14:37:23Z</time>
      </trkpt>
      <trkpt lat="45.87857" lon="4.73624">
        <ele>190</ele>
        <time>2016-10-12T14:37:24Z</time>
      </trkpt>
      <trkpt lat="45.87853" lon="4.73627">
        <ele>190</ele>
        <time>2016-10-12T14:37:25Z</time>
      </trkpt>
      <trkpt lat="45.87849" lon="4.73631">
        <ele>191</ele>
        <time>2016-10-12T14:37:26Z</time>
      </trkpt>
      <trkpt lat="45.87843" lon="4.73634">
        <ele>191</ele>
        <time>2016-10-12T14:37:27Z</time>
      </trkpt>
      <trkpt lat="45.87837" lon="4.73634">
        <ele>191</ele>
        <time>2016-10-12T14:37:28Z</time>
      </trkpt>
      <trkpt lat="45.87833" lon="4.73632">
        <ele>191</ele>
        <time>2016-10-12T14:37:29Z</time>
      </trkpt>
      <trkpt lat="45.87827" lon="4.73624">
        <ele>190</ele>
        <time>2016-10-12T14:37:31Z</time>
      </trkpt>
      <trkpt lat="45.87825" lon="4.73619">
        <ele>190</ele>
        <time>2016-10-12T14:37:32Z</time>
      </trkpt>
      <trkpt lat="45.87823" lon="4.73613">
        <ele>190</ele>
        <time>2016-10-12T14:37:33Z</time>
      </trkpt>
      <trkpt lat="45.8782" lon="4.73607">
        <ele>190</ele>
        <time>2016-10-12T14:37:34Z</time>
      </trkpt>
      <trkpt lat="45.87817" lon="4.736">
        <ele>190</ele>
        <time>2016-10-12T14:37:35Z</time>
      </trkpt>
      <trkpt lat="45.87815" lon="4.73594">
        <ele>190</ele>
        <time>2016-10-12T14:37:36Z</time>
      </trkpt>
      <trkpt lat="45.87812" lon="4.73587">
        <ele>190</ele>
        <time>2016-10-12T14:37:37Z</time>
      </trkpt>
      <trkpt lat="45.8781" lon="4.73581">
        <ele>189</ele>
        <time>2016-10-12T14:37:38Z</time>
      </trkpt>
      <trkpt lat="45.87807" lon="4.73575">
        <ele>189</ele>
        <time>2016-10-12T14:37:39Z</time>
      </trkpt>
      <trkpt lat="45.87804" lon="4.73568">
        <ele>189</ele>
        <time>2016-10-12T14:37:40Z</time>
      </trkpt>
      <trkpt lat="45.87801" lon="4.73561">
        <ele>189</ele>
        <time>2016-10-12T14:37:41Z</time>
      </trkpt>
      <trkpt lat="45.87798" lon="4.73555">
        <ele>189</ele>
        <time>2016-10-12T14:37:42Z</time>
      </trkpt>
      <trkpt lat="45.87795" lon="4.73548">
        <ele>189</ele>
        <time>2016-10-12T14:37:43Z</time>
      </trkpt>
      <trkpt lat="45.87792" lon="4.73542">
        <ele>189</ele>
        <time>2016-10-12T14:37:44Z</time>
      </trkpt>
      <trkpt lat="45.87789" lon="4.73535">
        <ele>189</ele>
        <time>2016-10-12T14:37:45Z</time>
      </trkpt>
      <trkpt lat="45.87785" lon="4.73528">
        <ele>189</ele>
        <time>2016-10-12T14:37:46Z</time>
      </trkpt>
      <trkpt lat="45.87782" lon="4.73521">
        <ele>189</ele>
        <time>2016-10-12T14:37:47Z</time>
      </trkpt>
      <trkpt lat="45.87779" lon="4.73515">
        <ele>189</ele>
        <time>2016-10-12T14:37:48Z</time>
      </trkpt>
      <trkpt lat="45.87776" lon="4.73508">
        <ele>189</ele>
        <time>2016-10-12T14:37:49Z</time>
      </trkpt>
      <trkpt lat="45.87773" lon="4.73501">
        <ele>189</ele>
        <time>2016-10-12T14:37:50Z</time>
      </trkpt>
      <trkpt lat="45.8777" lon="4.73494">
        <ele>189</ele>
        <time>2016-10-12T14:37:51Z</time>
      </trkpt>
      <trkpt lat="45.87767" lon="4.73487">
        <ele>189</ele>
        <time>2016-10-12T14:37:52Z</time>
      </trkpt>
      <trkpt lat="45.87765" lon="4.7348">
        <ele>188</ele>
        <time>2016-10-12T14:37:53Z</time>
      </trkpt>
      <trkpt lat="45.87762" lon="4.73473">
        <ele>188</ele>
        <time>2016-10-12T14:37:54Z</time>
      </trkpt>
      <trkpt lat="45.87758" lon="4.73466">
        <ele>188</ele>
        <time>2016-10-12T14:37:55Z</time>
      </trkpt>
      <trkpt lat="45.87755" lon="4.73459">
        <ele>188</ele>
        <time>2016-10-12T14:37:56Z</time>
      </trkpt>
      <trkpt lat="45.87752" lon="4.73453">
        <ele>188</ele>
        <time>2016-10-12T14:37:57Z</time>
      </trkpt>
      <trkpt lat="45.87749" lon="4.73446">
        <ele>189</ele>
        <time>2016-10-12T14:37:58Z</time>
      </trkpt>
      <trkpt lat="45.87745" lon="4.73438">
        <ele>189</ele>
        <time>2016-10-12T14:37:59Z</time>
      </trkpt>
      <trkpt lat="45.87742" lon="4.73431">
        <ele>188</ele>
        <time>2016-10-12T14:38:00Z</time>
      </trkpt>
      <trkpt lat="45.87739" lon="4.73424">
        <ele>188</ele>
        <time>2016-10-12T14:38:01Z</time>
      </trkpt>
      <trkpt lat="45.87735" lon="4.73417">
        <ele>188</ele>
        <time>2016-10-12T14:38:02Z</time>
      </trkpt>
      <trkpt lat="45.87732" lon="4.73409">
        <ele>188</ele>
        <time>2016-10-12T14:38:03Z</time>
      </trkpt>
      <trkpt lat="45.87728" lon="4.73402">
        <ele>188</ele>
        <time>2016-10-12T14:38:04Z</time>
      </trkpt>
      <trkpt lat="45.87725" lon="4.73395">
        <ele>188</ele>
        <time>2016-10-12T14:38:05Z</time>
      </trkpt>
      <trkpt lat="45.87721" lon="4.73387">
        <ele>188</ele>
        <time>2016-10-12T14:38:06Z</time>
      </trkpt>
      <trkpt lat="45.87718" lon="4.7338">
        <ele>187</ele>
        <time>2016-10-12T14:38:07Z</time>
      </trkpt>
      <trkpt lat="45.87715" lon="4.73374">
        <ele>187</ele>
        <time>2016-10-12T14:38:08Z</time>
      </trkpt>
      <trkpt lat="45.87711" lon="4.73367">
        <ele>187</ele>
        <time>2016-10-12T14:38:09Z</time>
      </trkpt>
      <trkpt lat="45.87708" lon="4.7336">
        <ele>187</ele>
        <time>2016-10-12T14:38:10Z</time>
      </trkpt>
      <trkpt lat="45.87705" lon="4.73353">
        <ele>187</ele>
        <time>2016-10-12T14:38:11Z</time>
      </trkpt>
      <trkpt lat="45.87702" lon="4.73346">
        <ele>187</ele>
        <time>2016-10-12T14:38:12Z</time>
      </trkpt>
      <trkpt lat="45.87699" lon="4.7334">
        <ele>187</ele>
        <time>2016-10-12T14:38:13Z</time>
      </trkpt>
      <trkpt lat="45.87695" lon="4.73333">
        <ele>188</ele>
        <time>2016-10-12T14:38:14Z</time>
      </trkpt>
      <trkpt lat="45.87692" lon="4.73326">
        <ele>188</ele>
        <time>2016-10-12T14:38:15Z</time>
      </trkpt>
      <trkpt lat="45.87689" lon="4.73319">
        <ele>188</ele>
        <time>2016-10-12T14:38:16Z</time>
      </trkpt>
      <trkpt lat="45.87685" lon="4.73312">
        <ele>188</ele>
        <time>2016-10-12T14:38:17Z</time>
      </trkpt>
      <trkpt lat="45.87682" lon="4.73306">
        <ele>188</ele>
        <time>2016-10-12T14:38:18Z</time>
      </trkpt>
      <trkpt lat="45.87679" lon="4.73299">
        <ele>188</ele>
        <time>2016-10-12T14:38:19Z</time>
      </trkpt>
      <trkpt lat="45.87676" lon="4.73291">
        <ele>188</ele>
        <time>2016-10-12T14:38:20Z</time>
      </trkpt>
      <trkpt lat="45.87673" lon="4.73285">
        <ele>188</ele>
        <time>2016-10-12T14:38:21Z</time>
      </trkpt>
      <trkpt lat="45.87668" lon="4.73278">
        <ele>188</ele>
        <time>2016-10-12T14:38:22Z</time>
      </trkpt>
      <trkpt lat="45.87665" lon="4.73271">
        <ele>189</ele>
        <time>2016-10-12T14:38:23Z</time>
      </trkpt>
      <trkpt lat="45.87662" lon="4.73265">
        <ele>189</ele>
        <time>2016-10-12T14:38:24Z</time>
      </trkpt>
      <trkpt lat="45.87658" lon="4.73258">
        <ele>189</ele>
        <time>2016-10-12T14:38:25Z</time>
      </trkpt>
      <trkpt lat="45.87655" lon="4.73251">
        <ele>189</ele>
        <time>2016-10-12T14:38:26Z</time>
      </trkpt>
      <trkpt lat="45.87652" lon="4.73245">
        <ele>188</ele>
        <time>2016-10-12T14:38:27Z</time>
      </trkpt>
      <trkpt lat="45.87649" lon="4.73238">
        <ele>188</ele>
        <time>2016-10-12T14:38:28Z</time>
      </trkpt>
      <trkpt lat="45.87646" lon="4.73232">
        <ele>188</ele>
        <time>2016-10-12T14:38:29Z</time>
      </trkpt>
      <trkpt lat="45.87642" lon="4.73225">
        <ele>188</ele>
        <time>2016-10-12T14:38:30Z</time>
      </trkpt>
      <trkpt lat="45.87638" lon="4.73218">
        <ele>188</ele>
        <time>2016-10-12T14:38:31Z</time>
      </trkpt>
      <trkpt lat="45.87635" lon="4.7321">
        <ele>188</ele>
        <time>2016-10-12T14:38:32Z</time>
      </trkpt>
      <trkpt lat="45.87631" lon="4.73203">
        <ele>188</ele>
        <time>2016-10-12T14:38:33Z</time>
      </trkpt>
      <trkpt lat="45.87628" lon="4.73196">
        <ele>188</ele>
        <time>2016-10-12T14:38:34Z</time>
      </trkpt>
      <trkpt lat="45.87624" lon="4.73188">
        <ele>188</ele>
        <time>2016-10-12T14:38:35Z</time>
      </trkpt>
      <trkpt lat="45.8762" lon="4.7318">
        <ele>188</ele>
        <time>2016-10-12T14:38:36Z</time>
      </trkpt>
      <trkpt lat="45.87617" lon="4.73173">
        <ele>187</ele>
        <time>2016-10-12T14:38:37Z</time>
      </trkpt>
      <trkpt lat="45.87613" lon="4.73166">
        <ele>187</ele>
        <time>2016-10-12T14:38:38Z</time>
      </trkpt>
      <trkpt lat="45.8761" lon="4.73159">
        <ele>187</ele>
        <time>2016-10-12T14:38:39Z</time>
      </trkpt>
      <trkpt lat="45.87606" lon="4.73152">
        <ele>187</ele>
        <time>2016-10-12T14:38:40Z</time>
      </trkpt>
      <trkpt lat="45.87603" lon="4.73144">
        <ele>187</ele>
        <time>2016-10-12T14:38:41Z</time>
      </trkpt>
      <trkpt lat="45.87599" lon="4.73137">
        <ele>187</ele>
        <time>2016-10-12T14:38:42Z</time>
      </trkpt>
      <trkpt lat="45.87596" lon="4.73129">
        <ele>187</ele>
        <time>2016-10-12T14:38:43Z</time>
      </trkpt>
      <trkpt lat="45.87592" lon="4.73121">
        <ele>188</ele>
        <time>2016-10-12T14:38:44Z</time>
      </trkpt>
      <trkpt lat="45.87588" lon="4.73113">
        <ele>188</ele>
        <time>2016-10-12T14:38:45Z</time>
      </trkpt>
      <trkpt lat="45.87584" lon="4.73106">
        <ele>188</ele>
        <time>2016-10-12T14:38:46Z</time>
      </trkpt>
      <trkpt lat="45.87579" lon="4.73099">
        <ele>188</ele>
        <time>2016-10-12T14:38:47Z</time>
      </trkpt>
      <trkpt lat="45.87575" lon="4.73092">
        <ele>188</ele>
        <time>2016-10-12T14:38:48Z</time>
      </trkpt>
      <trkpt lat="45.87571" lon="4.73085">
        <ele>188</ele>
        <time>2016-10-12T14:38:49Z</time>
      </trkpt>
      <trkpt lat="45.87568" lon="4.73077">
        <ele>188</ele>
        <time>2016-10-12T14:38:50Z</time>
      </trkpt>
      <trkpt lat="45.87564" lon="4.7307">
        <ele>188</ele>
        <time>2016-10-12T14:38:51Z</time>
      </trkpt>
      <trkpt lat="45.87561" lon="4.73064">
        <ele>188</ele>
        <time>2016-10-12T14:38:52Z</time>
      </trkpt>
      <trkpt lat="45.87558" lon="4.73057">
        <ele>188</ele>
        <time>2016-10-12T14:38:53Z</time>
      </trkpt>
      <trkpt lat="45.87554" lon="4.7305">
        <ele>188</ele>
        <time>2016-10-12T14:38:54Z</time>
      </trkpt>
      <trkpt lat="45.87551" lon="4.73043">
        <ele>188</ele>
        <time>2016-10-12T14:38:55Z</time>
      </trkpt>
      <trkpt lat="45.87548" lon="4.73036">
        <ele>188</ele>
        <time>2016-10-12T14:38:56Z</time>
      </trkpt>
      <trkpt lat="45.87545" lon="4.73029">
        <ele>188</ele>
        <time>2016-10-12T14:38:57Z</time>
      </trkpt>
      <trkpt lat="45.87541" lon="4.73022">
        <ele>187</ele>
        <time>2016-10-12T14:38:58Z</time>
      </trkpt>
      <trkpt lat="45.87538" lon="4.73016">
        <ele>187</ele>
        <time>2016-10-12T14:38:59Z</time>
      </trkpt>
      <trkpt lat="45.87535" lon="4.73009">
        <ele>187</ele>
        <time>2016-10-12T14:39:00Z</time>
      </trkpt>
      <trkpt lat="45.87532" lon="4.73002">
        <ele>187</ele>
        <time>2016-10-12T14:39:01Z</time>
      </trkpt>
      <trkpt lat="45.87528" lon="4.72996">
        <ele>187</ele>
        <time>2016-10-12T14:39:02Z</time>
      </trkpt>
      <trkpt lat="45.87525" lon="4.72989">
        <ele>187</ele>
        <time>2016-10-12T14:39:03Z</time>
      </trkpt>
      <trkpt lat="45.87521" lon="4.72982">
        <ele>187</ele>
        <time>2016-10-12T14:39:04Z</time>
      </trkpt>
      <trkpt lat="45.87518" lon="4.72975">
        <ele>187</ele>
        <time>2016-10-12T14:39:05Z</time>
      </trkpt>
      <trkpt lat="45.87514" lon="4.72968">
        <ele>187</ele>
        <time>2016-10-12T14:39:06Z</time>
      </trkpt>
      <trkpt lat="45.87511" lon="4.72961">
        <ele>187</ele>
        <time>2016-10-12T14:39:07Z</time>
      </trkpt>
      <trkpt lat="45.87507" lon="4.72955">
        <ele>187</ele>
        <time>2016-10-12T14:39:08Z</time>
      </trkpt>
      <trkpt lat="45.87503" lon="4.7295">
        <ele>187</ele>
        <time>2016-10-12T14:39:09Z</time>
      </trkpt>
      <trkpt lat="45.87498" lon="4.72946">
        <ele>188</ele>
        <time>2016-10-12T14:39:10Z</time>
      </trkpt>
      <trkpt lat="45.87493" lon="4.72942">
        <ele>188</ele>
        <time>2016-10-12T14:39:11Z</time>
      </trkpt>
      <trkpt lat="45.87488" lon="4.72938">
        <ele>188</ele>
        <time>2016-10-12T14:39:12Z</time>
      </trkpt>
      <trkpt lat="45.87483" lon="4.72934">
        <ele>188</ele>
        <time>2016-10-12T14:39:13Z</time>
      </trkpt>
      <trkpt lat="45.87478" lon="4.72929">
        <ele>188</ele>
        <time>2016-10-12T14:39:14Z</time>
      </trkpt>
      <trkpt lat="45.87474" lon="4.72924">
        <ele>188</ele>
        <time>2016-10-12T14:39:15Z</time>
      </trkpt>
      <trkpt lat="45.8747" lon="4.72918">
        <ele>188</ele>
        <time>2016-10-12T14:39:16Z</time>
      </trkpt>
      <trkpt lat="45.87467" lon="4.72912">
        <ele>188</ele>
        <time>2016-10-12T14:39:17Z</time>
      </trkpt>
      <trkpt lat="45.87465" lon="4.72905">
        <ele>188</ele>
        <time>2016-10-12T14:39:18Z</time>
      </trkpt>
      <trkpt lat="45.87463" lon="4.72899">
        <ele>188</ele>
        <time>2016-10-12T14:39:19Z</time>
      </trkpt>
      <trkpt lat="45.87462" lon="4.72893">
        <ele>188</ele>
        <time>2016-10-12T14:39:20Z</time>
      </trkpt>
      <trkpt lat="45.8746" lon="4.72888">
        <ele>188</ele>
        <time>2016-10-12T14:39:21Z</time>
      </trkpt>
      <trkpt lat="45.87458" lon="4.72881">
        <ele>188</ele>
        <time>2016-10-12T14:39:22Z</time>
      </trkpt>
      <trkpt lat="45.87454" lon="4.72875">
        <ele>188</ele>
        <time>2016-10-12T14:39:23Z</time>
      </trkpt>
      <trkpt lat="45.87453" lon="4.72869">
        <ele>188</ele>
        <time>2016-10-12T14:39:24Z</time>
      </trkpt>
      <trkpt lat="45.8745" lon="4.72861">
        <ele>188</ele>
        <time>2016-10-12T14:39:25Z</time>
      </trkpt>
      <trkpt lat="45.87447" lon="4.72853">
        <ele>188</ele>
        <time>2016-10-12T14:39:26Z</time>
      </trkpt>
      <trkpt lat="45.87445" lon="4.72846">
        <ele>188</ele>
        <time>2016-10-12T14:39:27Z</time>
      </trkpt>
      <trkpt lat="45.87442" lon="4.72838">
        <ele>188</ele>
        <time>2016-10-12T14:39:28Z</time>
      </trkpt>
      <trkpt lat="45.87439" lon="4.72831">
        <ele>189</ele>
        <time>2016-10-12T14:39:29Z</time>
      </trkpt>
      <trkpt lat="45.87436" lon="4.72823">
        <ele>189</ele>
        <time>2016-10-12T14:39:30Z</time>
      </trkpt>
      <trkpt lat="45.87433" lon="4.72816">
        <ele>189</ele>
        <time>2016-10-12T14:39:31Z</time>
      </trkpt>
      <trkpt lat="45.8743" lon="4.72808">
        <ele>189</ele>
        <time>2016-10-12T14:39:32Z</time>
      </trkpt>
      <trkpt lat="45.87427" lon="4.72801">
        <ele>189</ele>
        <time>2016-10-12T14:39:33Z</time>
      </trkpt>
      <trkpt lat="45.87424" lon="4.72794">
        <ele>189</ele>
        <time>2016-10-12T14:39:34Z</time>
      </trkpt>
      <trkpt lat="45.87421" lon="4.72787">
        <ele>189</ele>
        <time>2016-10-12T14:39:35Z</time>
      </trkpt>
      <trkpt lat="45.87418" lon="4.72781">
        <ele>189</ele>
        <time>2016-10-12T14:39:36Z</time>
      </trkpt>
      <trkpt lat="45.87416" lon="4.72775">
        <ele>189</ele>
        <time>2016-10-12T14:39:37Z</time>
      </trkpt>
      <trkpt lat="45.87413" lon="4.72768">
        <ele>189</ele>
        <time>2016-10-12T14:39:38Z</time>
      </trkpt>
      <trkpt lat="45.8741" lon="4.72763">
        <ele>189</ele>
        <time>2016-10-12T14:39:39Z</time>
      </trkpt>
      <trkpt lat="45.87406" lon="4.72757">
        <ele>189</ele>
        <time>2016-10-12T14:39:40Z</time>
      </trkpt>
      <trkpt lat="45.87403" lon="4.72751">
        <ele>189</ele>
        <time>2016-10-12T14:39:41Z</time>
      </trkpt>
      <trkpt lat="45.87399" lon="4.72745">
        <ele>189</ele>
        <time>2016-10-12T14:39:42Z</time>
      </trkpt>
      <trkpt lat="45.87395" lon="4.7274">
        <ele>189</ele>
        <time>2016-10-12T14:39:43Z</time>
      </trkpt>
      <trkpt lat="45.87391" lon="4.72735">
        <ele>190</ele>
        <time>2016-10-12T14:39:44Z</time>
      </trkpt>
      <trkpt lat="45.87387" lon="4.7273">
        <ele>190</ele>
        <time>2016-10-12T14:39:45Z</time>
      </trkpt>
      <trkpt lat="45.87385" lon="4.72725">
        <ele>190</ele>
        <time>2016-10-12T14:39:46Z</time>
      </trkpt>
      <trkpt lat="45.87383" lon="4.72718">
        <ele>190</ele>
        <time>2016-10-12T14:39:47Z</time>
      </trkpt>
      <trkpt lat="45.87381" lon="4.72712">
        <ele>190</ele>
        <time>2016-10-12T14:39:48Z</time>
      </trkpt>
      <trkpt lat="45.87378" lon="4.72706">
        <ele>190</ele>
        <time>2016-10-12T14:39:49Z</time>
      </trkpt>
      <trkpt lat="45.87375" lon="4.727">
        <ele>190</ele>
        <time>2016-10-12T14:39:50Z</time>
      </trkpt>
      <trkpt lat="45.87371" lon="4.72694">
        <ele>190</ele>
        <time>2016-10-12T14:39:51Z</time>
      </trkpt>
      <trkpt lat="45.87367" lon="4.72689">
        <ele>190</ele>
        <time>2016-10-12T14:39:52Z</time>
      </trkpt>
      <trkpt lat="45.87363" lon="4.72684">
        <ele>190</ele>
        <time>2016-10-12T14:39:53Z</time>
      </trkpt>
      <trkpt lat="45.87359" lon="4.72679">
        <ele>190</ele>
        <time>2016-10-12T14:39:54Z</time>
      </trkpt>
      <trkpt lat="45.87355" lon="4.72675">
        <ele>190</ele>
        <time>2016-10-12T14:39:55Z</time>
      </trkpt>
      <trkpt lat="45.8735" lon="4.7267">
        <ele>190</ele>
        <time>2016-10-12T14:39:56Z</time>
      </trkpt>
      <trkpt lat="45.87345" lon="4.72665">
        <ele>190</ele>
        <time>2016-10-12T14:39:57Z</time>
      </trkpt>
      <trkpt lat="45.87341" lon="4.7266">
        <ele>190</ele>
        <time>2016-10-12T14:39:58Z</time>
      </trkpt>
      <trkpt lat="45.87336" lon="4.72656">
        <ele>190</ele>
        <time>2016-10-12T14:39:59Z</time>
      </trkpt>
      <trkpt lat="45.87332" lon="4.72652">
        <ele>192</ele>
        <time>2016-10-12T14:40:00Z</time>
      </trkpt>
      <trkpt lat="45.87327" lon="4.72647">
        <ele>192</ele>
        <time>2016-10-12T14:40:01Z</time>
      </trkpt>
      <trkpt lat="45.87323" lon="4.72643">
        <ele>192</ele>
        <time>2016-10-12T14:40:02Z</time>
      </trkpt>
      <trkpt lat="45.8732" lon="4.72638">
        <ele>193</ele>
        <time>2016-10-12T14:40:03Z</time>
      </trkpt>
      <trkpt lat="45.87316" lon="4.72635">
        <ele>193</ele>
        <time>2016-10-12T14:40:04Z</time>
      </trkpt>
      <trkpt lat="45.87312" lon="4.72631">
        <ele>193</ele>
        <time>2016-10-12T14:40:05Z</time>
      </trkpt>
      <trkpt lat="45.87308" lon="4.72626">
        <ele>193</ele>
        <time>2016-10-12T14:40:06Z</time>
      </trkpt>
      <trkpt lat="45.87302" lon="4.72618">
        <ele>193</ele>
        <time>2016-10-12T14:40:08Z</time>
      </trkpt>
      <trkpt lat="45.87297" lon="4.72618">
        <ele>194</ele>
        <time>2016-10-12T14:40:09Z</time>
      </trkpt>
      <trkpt lat="45.87291" lon="4.72611">
        <ele>194</ele>
        <time>2016-10-12T14:40:11Z</time>
      </trkpt>
      <trkpt lat="45.87287" lon="4.72605">
        <ele>194</ele>
        <time>2016-10-12T14:40:12Z</time>
      </trkpt>
      <trkpt lat="45.87282" lon="4.726">
        <ele>194</ele>
        <time>2016-10-12T14:40:13Z</time>
      </trkpt>
      <trkpt lat="45.87278" lon="4.72592">
        <ele>195</ele>
        <time>2016-10-12T14:40:14Z</time>
      </trkpt>
      <trkpt lat="45.87274" lon="4.72586">
        <ele>195</ele>
        <time>2016-10-12T14:40:15Z</time>
      </trkpt>
      <trkpt lat="45.8727" lon="4.72581">
        <ele>195</ele>
        <time>2016-10-12T14:40:16Z</time>
      </trkpt>
      <trkpt lat="45.87265" lon="4.72576">
        <ele>195</ele>
        <time>2016-10-12T14:40:17Z</time>
      </trkpt>
      <trkpt lat="45.87261" lon="4.72572">
        <ele>195</ele>
        <time>2016-10-12T14:40:18Z</time>
      </trkpt>
      <trkpt lat="45.87257" lon="4.72569">
        <ele>195</ele>
        <time>2016-10-12T14:40:19Z</time>
      </trkpt>
      <trkpt lat="45.87253" lon="4.72566">
        <ele>195</ele>
        <time>2016-10-12T14:40:20Z</time>
      </trkpt>
      <trkpt lat="45.87248" lon="4.72563">
        <ele>197</ele>
        <time>2016-10-12T14:40:21Z</time>
      </trkpt>
      <trkpt lat="45.87245" lon="4.72559">
        <ele>197</ele>
        <time>2016-10-12T14:40:22Z</time>
      </trkpt>
      <trkpt lat="45.87243" lon="4.72551">
        <ele>197</ele>
        <time>2016-10-12T14:40:24Z</time>
      </trkpt>
      <trkpt lat="45.87242" lon="4.72547">
        <ele>197</ele>
        <time>2016-10-12T14:40:25Z</time>
      </trkpt>
      <trkpt lat="45.87248" lon="4.72539">
        <ele>197</ele>
        <time>2016-10-12T14:40:27Z</time>
      </trkpt>
      <trkpt lat="45.87247" lon="4.72535">
        <ele>197</ele>
        <time>2016-10-12T14:40:28Z</time>
      </trkpt>
      <trkpt lat="45.87243" lon="4.72525">
        <ele>196</ele>
        <time>2016-10-12T14:40:30Z</time>
      </trkpt>
      <trkpt lat="45.87242" lon="4.72519">
        <ele>196</ele>
        <time>2016-10-12T14:40:31Z</time>
      </trkpt>
      <trkpt lat="45.8724" lon="4.72509">
        <ele>195</ele>
        <time>2016-10-12T14:40:33Z</time>
      </trkpt>
      <trkpt lat="45.87239" lon="4.72504">
        <ele>195</ele>
        <time>2016-10-12T14:40:34Z</time>
      </trkpt>
      <trkpt lat="45.87236" lon="4.72499">
        <ele>194</ele>
        <time>2016-10-12T14:40:35Z</time>
      </trkpt>
      <trkpt lat="45.87233" lon="4.72495">
        <ele>194</ele>
        <time>2016-10-12T14:40:36Z</time>
      </trkpt>
      <trkpt lat="45.87229" lon="4.72489">
        <ele>194</ele>
        <time>2016-10-12T14:40:37Z</time>
      </trkpt>
      <trkpt lat="45.87226" lon="4.72484">
        <ele>194</ele>
        <time>2016-10-12T14:40:38Z</time>
      </trkpt>
      <trkpt lat="45.87222" lon="4.72478">
        <ele>194</ele>
        <time>2016-10-12T14:40:39Z</time>
      </trkpt>
      <trkpt lat="45.87218" lon="4.72473">
        <ele>194</ele>
        <time>2016-10-12T14:40:40Z</time>
      </trkpt>
      <trkpt lat="45.87214" lon="4.72468">
        <ele>194</ele>
        <time>2016-10-12T14:40:41Z</time>
      </trkpt>
      <trkpt lat="45.87209" lon="4.72463">
        <ele>194</ele>
        <time>2016-10-12T14:40:42Z</time>
      </trkpt>
      <trkpt lat="45.87205" lon="4.72459">
        <ele>194</ele>
        <time>2016-10-12T14:40:43Z</time>
      </trkpt>
      <trkpt lat="45.87201" lon="4.72454">
        <ele>194</ele>
        <time>2016-10-12T14:40:44Z</time>
      </trkpt>
      <trkpt lat="45.87197" lon="4.7245">
        <ele>194</ele>
        <time>2016-10-12T14:40:45Z</time>
      </trkpt>
      <trkpt lat="45.87194" lon="4.72445">
        <ele>194</ele>
        <time>2016-10-12T14:40:46Z</time>
      </trkpt>
      <trkpt lat="45.8719" lon="4.7244">
        <ele>194</ele>
        <time>2016-10-12T14:40:47Z</time>
      </trkpt>
      <trkpt lat="45.87187" lon="4.72436">
        <ele>194</ele>
        <time>2016-10-12T14:40:48Z</time>
      </trkpt>
      <trkpt lat="45.87181" lon="4.72427">
        <ele>194</ele>
        <time>2016-10-12T14:40:50Z</time>
      </trkpt>
      <trkpt lat="45.87178" lon="4.72423">
        <ele>194</ele>
        <time>2016-10-12T14:40:51Z</time>
      </trkpt>
      <trkpt lat="45.87172" lon="4.72414">
        <ele>193</ele>
        <time>2016-10-12T14:40:53Z</time>
      </trkpt>
      <trkpt lat="45.87169" lon="4.72408">
        <ele>192</ele>
        <time>2016-10-12T14:40:54Z</time>
      </trkpt>
      <trkpt lat="45.87166" lon="4.72402">
        <ele>196</ele>
        <time>2016-10-12T14:40:55Z</time>
      </trkpt>
      <trkpt lat="45.87164" lon="4.72396">
        <ele>197</ele>
        <time>2016-10-12T14:40:56Z</time>
      </trkpt>
      <trkpt lat="45.87161" lon="4.7239">
        <ele>197</ele>
        <time>2016-10-12T14:40:57Z</time>
      </trkpt>
      <trkpt lat="45.87159" lon="4.72384">
        <ele>197</ele>
        <time>2016-10-12T14:40:58Z</time>
      </trkpt>
      <trkpt lat="45.87157" lon="4.72377">
        <ele>197</ele>
        <time>2016-10-12T14:40:59Z</time>
      </trkpt>
      <trkpt lat="45.87154" lon="4.7237">
        <ele>197</ele>
        <time>2016-10-12T14:41:00Z</time>
      </trkpt>
      <trkpt lat="45.87151" lon="4.72363">
        <ele>197</ele>
        <time>2016-10-12T14:41:01Z</time>
      </trkpt>
      <trkpt lat="45.87148" lon="4.72356">
        <ele>196</ele>
        <time>2016-10-12T14:41:02Z</time>
      </trkpt>
      <trkpt lat="45.87145" lon="4.7235">
        <ele>196</ele>
        <time>2016-10-12T14:41:03Z</time>
      </trkpt>
      <trkpt lat="45.87142" lon="4.72343">
        <ele>196</ele>
        <time>2016-10-12T14:41:04Z</time>
      </trkpt>
      <trkpt lat="45.87139" lon="4.72336">
        <ele>197</ele>
        <time>2016-10-12T14:41:05Z</time>
      </trkpt>
      <trkpt lat="45.87136" lon="4.72329">
        <ele>195</ele>
        <time>2016-10-12T14:41:06Z</time>
      </trkpt>
      <trkpt lat="45.87133" lon="4.72322">
        <ele>195</ele>
        <time>2016-10-12T14:41:07Z</time>
      </trkpt>
      <trkpt lat="45.8713" lon="4.72315">
        <ele>196</ele>
        <time>2016-10-12T14:41:08Z</time>
      </trkpt>
      <trkpt lat="45.87127" lon="4.72308">
        <ele>196</ele>
        <time>2016-10-12T14:41:09Z</time>
      </trkpt>
      <trkpt lat="45.87124" lon="4.72302">
        <ele>196</ele>
        <time>2016-10-12T14:41:10Z</time>
      </trkpt>
      <trkpt lat="45.8712" lon="4.72295">
        <ele>197</ele>
        <time>2016-10-12T14:41:11Z</time>
      </trkpt>
      <trkpt lat="45.87116" lon="4.72289">
        <ele>197</ele>
        <time>2016-10-12T14:41:12Z</time>
      </trkpt>
      <trkpt lat="45.87112" lon="4.72283">
        <ele>197</ele>
        <time>2016-10-12T14:41:13Z</time>
      </trkpt>
      <trkpt lat="45.87108" lon="4.72277">
        <ele>197</ele>
        <time>2016-10-12T14:41:14Z</time>
      </trkpt>
      <trkpt lat="45.87103" lon="4.7227">
        <ele>197</ele>
        <time>2016-10-12T14:41:15Z</time>
      </trkpt>
      <trkpt lat="45.87098" lon="4.72264">
        <ele>197</ele>
        <time>2016-10-12T14:41:16Z</time>
      </trkpt>
      <trkpt lat="45.87094" lon="4.72258">
        <ele>198</ele>
        <time>2016-10-12T14:41:17Z</time>
      </trkpt>
      <trkpt lat="45.87089" lon="4.72252">
        <ele>198</ele>
        <time>2016-10-12T14:41:18Z</time>
      </trkpt>
      <trkpt lat="45.87084" lon="4.72247">
        <ele>198</ele>
        <time>2016-10-12T14:41:19Z</time>
      </trkpt>
      <trkpt lat="45.87079" lon="4.72241">
        <ele>200</ele>
        <time>2016-10-12T14:41:20Z</time>
      </trkpt>
      <trkpt lat="45.87075" lon="4.72236">
        <ele>200</ele>
        <time>2016-10-12T14:41:21Z</time>
      </trkpt>
      <trkpt lat="45.8707" lon="4.72232">
        <ele>200</ele>
        <time>2016-10-12T14:41:22Z</time>
      </trkpt>
      <trkpt lat="45.87065" lon="4.72227">
        <ele>200</ele>
        <time>2016-10-12T14:41:23Z</time>
      </trkpt>
      <trkpt lat="45.8706" lon="4.72222">
        <ele>200</ele>
        <time>2016-10-12T14:41:24Z</time>
      </trkpt>
      <trkpt lat="45.87055" lon="4.72217">
        <ele>200</ele>
        <time>2016-10-12T14:41:25Z</time>
      </trkpt>
      <trkpt lat="45.8705" lon="4.72213">
        <ele>200</ele>
        <time>2016-10-12T14:41:26Z</time>
      </trkpt>
      <trkpt lat="45.87045" lon="4.72209">
        <ele>201</ele>
        <time>2016-10-12T14:41:27Z</time>
      </trkpt>
      <trkpt lat="45.8704" lon="4.72205">
        <ele>201</ele>
        <time>2016-10-12T14:41:28Z</time>
      </trkpt>
      <trkpt lat="45.87035" lon="4.72201">
        <ele>201</ele>
        <time>2016-10-12T14:41:29Z</time>
      </trkpt>
      <trkpt lat="45.87029" lon="4.72198">
        <ele>201</ele>
        <time>2016-10-12T14:41:30Z</time>
      </trkpt>
      <trkpt lat="45.87024" lon="4.72195">
        <ele>201</ele>
        <time>2016-10-12T14:41:31Z</time>
      </trkpt>
      <trkpt lat="45.87019" lon="4.72191">
        <ele>201</ele>
        <time>2016-10-12T14:41:32Z</time>
      </trkpt>
      <trkpt lat="45.87013" lon="4.72187">
        <ele>201</ele>
        <time>2016-10-12T14:41:33Z</time>
      </trkpt>
      <trkpt lat="45.87008" lon="4.72184">
        <ele>201</ele>
        <time>2016-10-12T14:41:34Z</time>
      </trkpt>
      <trkpt lat="45.87003" lon="4.7218">
        <ele>201</ele>
        <time>2016-10-12T14:41:35Z</time>
      </trkpt>
      <trkpt lat="45.86998" lon="4.72176">
        <ele>205</ele>
        <time>2016-10-12T14:41:36Z</time>
      </trkpt>
      <trkpt lat="45.86992" lon="4.72173">
        <ele>205</ele>
        <time>2016-10-12T14:41:37Z</time>
      </trkpt>
      <trkpt lat="45.86987" lon="4.72169">
        <ele>206</ele>
        <time>2016-10-12T14:41:38Z</time>
      </trkpt>
      <trkpt lat="45.86981" lon="4.72165">
        <ele>201</ele>
        <time>2016-10-12T14:41:39Z</time>
      </trkpt>
      <trkpt lat="45.86976" lon="4.72161">
        <ele>201</ele>
        <time>2016-10-12T14:41:40Z</time>
      </trkpt>
      <trkpt lat="45.8697" lon="4.72157">
        <ele>201</ele>
        <time>2016-10-12T14:41:41Z</time>
      </trkpt>
      <trkpt lat="45.86964" lon="4.72153">
        <ele>201</ele>
        <time>2016-10-12T14:41:42Z</time>
      </trkpt>
      <trkpt lat="45.86958" lon="4.72151">
        <ele>201</ele>
        <time>2016-10-12T14:41:43Z</time>
      </trkpt>
      <trkpt lat="45.86953" lon="4.72147">
        <ele>201</ele>
        <time>2016-10-12T14:41:44Z</time>
      </trkpt>
      <trkpt lat="45.86948" lon="4.72143">
        <ele>201</ele>
        <time>2016-10-12T14:41:45Z</time>
      </trkpt>
      <trkpt lat="45.86942" lon="4.7214">
        <ele>201</ele>
        <time>2016-10-12T14:41:46Z</time>
      </trkpt>
      <trkpt lat="45.86937" lon="4.72137">
        <ele>201</ele>
        <time>2016-10-12T14:41:47Z</time>
      </trkpt>
      <trkpt lat="45.86931" lon="4.72134">
        <ele>201</ele>
        <time>2016-10-12T14:41:48Z</time>
      </trkpt>
      <trkpt lat="45.86925" lon="4.72131">
        <ele>201</ele>
        <time>2016-10-12T14:41:49Z</time>
      </trkpt>
      <trkpt lat="45.86919" lon="4.72127">
        <ele>200</ele>
        <time>2016-10-12T14:41:50Z</time>
      </trkpt>
      <trkpt lat="45.86913" lon="4.72124">
        <ele>202</ele>
        <time>2016-10-12T14:41:51Z</time>
      </trkpt>
      <trkpt lat="45.86908" lon="4.72122">
        <ele>202</ele>
        <time>2016-10-12T14:41:52Z</time>
      </trkpt>
      <trkpt lat="45.86901" lon="4.72119">
        <ele>201</ele>
        <time>2016-10-12T14:41:53Z</time>
      </trkpt>
      <trkpt lat="45.86895" lon="4.72117">
        <ele>201</ele>
        <time>2016-10-12T14:41:54Z</time>
      </trkpt>
      <trkpt lat="45.86889" lon="4.72114">
        <ele>201</ele>
        <time>2016-10-12T14:41:55Z</time>
      </trkpt>
      <trkpt lat="45.86883" lon="4.72111">
        <ele>201</ele>
        <time>2016-10-12T14:41:56Z</time>
      </trkpt>
      <trkpt lat="45.86877" lon="4.72108">
        <ele>201</ele>
        <time>2016-10-12T14:41:57Z</time>
      </trkpt>
      <trkpt lat="45.86871" lon="4.72102">
        <ele>200</ele>
        <time>2016-10-12T14:41:58Z</time>
      </trkpt>
      <trkpt lat="45.86865" lon="4.72098">
        <ele>200</ele>
        <time>2016-10-12T14:41:59Z</time>
      </trkpt>
      <trkpt lat="45.8686" lon="4.72094">
        <ele>199</ele>
        <time>2016-10-12T14:42:00Z</time>
      </trkpt>
      <trkpt lat="45.86854" lon="4.7209">
        <ele>198</ele>
        <time>2016-10-12T14:42:01Z</time>
      </trkpt>
      <trkpt lat="45.86848" lon="4.72088">
        <ele>197</ele>
        <time>2016-10-12T14:42:02Z</time>
      </trkpt>
      <trkpt lat="45.86843" lon="4.72086">
        <ele>196</ele>
        <time>2016-10-12T14:42:03Z</time>
      </trkpt>
      <trkpt lat="45.86837" lon="4.72084">
        <ele>194</ele>
        <time>2016-10-12T14:42:04Z</time>
      </trkpt>
      <trkpt lat="45.86831" lon="4.72081">
        <ele>193</ele>
        <time>2016-10-12T14:42:05Z</time>
      </trkpt>
      <trkpt lat="45.86824" lon="4.72079">
        <ele>193</ele>
        <time>2016-10-12T14:42:06Z</time>
      </trkpt>
      <trkpt lat="45.86819" lon="4.72078">
        <ele>193</ele>
        <time>2016-10-12T14:42:07Z</time>
      </trkpt>
      <trkpt lat="45.86814" lon="4.72077">
        <ele>194</ele>
        <time>2016-10-12T14:42:08Z</time>
      </trkpt>
      <trkpt lat="45.86808" lon="4.72075">
        <ele>194</ele>
        <time>2016-10-12T14:42:09Z</time>
      </trkpt>
      <trkpt lat="45.86802" lon="4.72073">
        <ele>194</ele>
        <time>2016-10-12T14:42:10Z</time>
      </trkpt>
      <trkpt lat="45.86796" lon="4.72071">
        <ele>194</ele>
        <time>2016-10-12T14:42:11Z</time>
      </trkpt>
      <trkpt lat="45.86791" lon="4.72069">
        <ele>194</ele>
        <time>2016-10-12T14:42:12Z</time>
      </trkpt>
      <trkpt lat="45.86785" lon="4.72067">
        <ele>194</ele>
        <time>2016-10-12T14:42:13Z</time>
      </trkpt>
      <trkpt lat="45.86779" lon="4.72064">
        <ele>194</ele>
        <time>2016-10-12T14:42:14Z</time>
      </trkpt>
      <trkpt lat="45.86774" lon="4.72061">
        <ele>195</ele>
        <time>2016-10-12T14:42:15Z</time>
      </trkpt>
      <trkpt lat="45.86768" lon="4.7206">
        <ele>195</ele>
        <time>2016-10-12T14:42:16Z</time>
      </trkpt>
      <trkpt lat="45.86763" lon="4.72059">
        <ele>195</ele>
        <time>2016-10-12T14:42:17Z</time>
      </trkpt>
      <trkpt lat="45.86758" lon="4.72057">
        <ele>195</ele>
        <time>2016-10-12T14:42:18Z</time>
      </trkpt>
      <trkpt lat="45.86753" lon="4.72055">
        <ele>195</ele>
        <time>2016-10-12T14:42:19Z</time>
      </trkpt>
      <trkpt lat="45.86747" lon="4.72053">
        <ele>197</ele>
        <time>2016-10-12T14:42:20Z</time>
      </trkpt>
      <trkpt lat="45.86741" lon="4.7205">
        <ele>197</ele>
        <time>2016-10-12T14:42:21Z</time>
      </trkpt>
      <trkpt lat="45.86736" lon="4.72047">
        <ele>197</ele>
        <time>2016-10-12T14:42:22Z</time>
      </trkpt>
      <trkpt lat="45.86731" lon="4.72044">
        <ele>197</ele>
        <time>2016-10-12T14:42:23Z</time>
      </trkpt>
      <trkpt lat="45.86726" lon="4.72041">
        <ele>197</ele>
        <time>2016-10-12T14:42:24Z</time>
      </trkpt>
      <trkpt lat="45.86721" lon="4.72038">
        <ele>197</ele>
        <time>2016-10-12T14:42:25Z</time>
      </trkpt>
      <trkpt lat="45.86716" lon="4.72035">
        <ele>197</ele>
        <time>2016-10-12T14:42:26Z</time>
      </trkpt>
      <trkpt lat="45.86711" lon="4.72032">
        <ele>197</ele>
        <time>2016-10-12T14:42:27Z</time>
      </trkpt>
      <trkpt lat="45.86706" lon="4.72028">
        <ele>197</ele>
        <time>2016-10-12T14:42:28Z</time>
      </trkpt>
      <trkpt lat="45.86701" lon="4.72024">
        <ele>197</ele>
        <time>2016-10-12T14:42:29Z</time>
      </trkpt>
      <trkpt lat="45.86696" lon="4.72019">
        <ele>197</ele>
        <time>2016-10-12T14:42:30Z</time>
      </trkpt>
      <trkpt lat="45.86691" lon="4.72015">
        <ele>196</ele>
        <time>2016-10-12T14:42:31Z</time>
      </trkpt>
      <trkpt lat="45.86686" lon="4.72012">
        <ele>196</ele>
        <time>2016-10-12T14:42:32Z</time>
      </trkpt>
      <trkpt lat="45.86681" lon="4.72007">
        <ele>196</ele>
        <time>2016-10-12T14:42:33Z</time>
      </trkpt>
      <trkpt lat="45.86676" lon="4.72004">
        <ele>196</ele>
        <time>2016-10-12T14:42:34Z</time>
      </trkpt>
      <trkpt lat="45.86671" lon="4.72">
        <ele>195</ele>
        <time>2016-10-12T14:42:35Z</time>
      </trkpt>
      <trkpt lat="45.86666" lon="4.71997">
        <ele>195</ele>
        <time>2016-10-12T14:42:36Z</time>
      </trkpt>
      <trkpt lat="45.86661" lon="4.71993">
        <ele>195</ele>
        <time>2016-10-12T14:42:37Z</time>
      </trkpt>
      <trkpt lat="45.86656" lon="4.71989">
        <ele>195</ele>
        <time>2016-10-12T14:42:38Z</time>
      </trkpt>
      <trkpt lat="45.86651" lon="4.71985">
        <ele>195</ele>
        <time>2016-10-12T14:42:39Z</time>
      </trkpt>
      <trkpt lat="45.86646" lon="4.71981">
        <ele>195</ele>
        <time>2016-10-12T14:42:40Z</time>
      </trkpt>
      <trkpt lat="45.86641" lon="4.71978">
        <ele>195</ele>
        <time>2016-10-12T14:42:41Z</time>
      </trkpt>
      <trkpt lat="45.86636" lon="4.71974">
        <ele>195</ele>
        <time>2016-10-12T14:42:42Z</time>
      </trkpt>
      <trkpt lat="45.86631" lon="4.7197">
        <ele>195</ele>
        <time>2016-10-12T14:42:43Z</time>
      </trkpt>
      <trkpt lat="45.86625" lon="4.71966">
        <ele>195</ele>
        <time>2016-10-12T14:42:44Z</time>
      </trkpt>
      <trkpt lat="45.8662" lon="4.71962">
        <ele>195</ele>
        <time>2016-10-12T14:42:45Z</time>
      </trkpt>
      <trkpt lat="45.86615" lon="4.71958">
        <ele>194</ele>
        <time>2016-10-12T14:42:46Z</time>
      </trkpt>
      <trkpt lat="45.86611" lon="4.71955">
        <ele>194</ele>
        <time>2016-10-12T14:42:47Z</time>
      </trkpt>
      <trkpt lat="45.86605" lon="4.71951">
        <ele>194</ele>
        <time>2016-10-12T14:42:48Z</time>
      </trkpt>
      <trkpt lat="45.866" lon="4.71947">
        <ele>194</ele>
        <time>2016-10-12T14:42:49Z</time>
      </trkpt>
      <trkpt lat="45.86595" lon="4.71943">
        <ele>194</ele>
        <time>2016-10-12T14:42:50Z</time>
      </trkpt>
      <trkpt lat="45.8659" lon="4.7194">
        <ele>194</ele>
        <time>2016-10-12T14:42:51Z</time>
      </trkpt>
      <trkpt lat="45.86585" lon="4.71936">
        <ele>194</ele>
        <time>2016-10-12T14:42:52Z</time>
      </trkpt>
      <trkpt lat="45.8658" lon="4.71932">
        <ele>195</ele>
        <time>2016-10-12T14:42:53Z</time>
      </trkpt>
      <trkpt lat="45.86575" lon="4.71928">
        <ele>195</ele>
        <time>2016-10-12T14:42:54Z</time>
      </trkpt>
      <trkpt lat="45.8657" lon="4.71924">
        <ele>195</ele>
        <time>2016-10-12T14:42:55Z</time>
      </trkpt>
      <trkpt lat="45.86566" lon="4.7192">
        <ele>195</ele>
        <time>2016-10-12T14:42:56Z</time>
      </trkpt>
      <trkpt lat="45.86561" lon="4.71916">
        <ele>195</ele>
        <time>2016-10-12T14:42:57Z</time>
      </trkpt>
      <trkpt lat="45.86556" lon="4.71912">
        <ele>195</ele>
        <time>2016-10-12T14:42:58Z</time>
      </trkpt>
      <trkpt lat="45.86551" lon="4.71908">
        <ele>195</ele>
        <time>2016-10-12T14:42:59Z</time>
      </trkpt>
      <trkpt lat="45.86546" lon="4.71904">
        <ele>195</ele>
        <time>2016-10-12T14:43:00Z</time>
      </trkpt>
      <trkpt lat="45.86542" lon="4.719">
        <ele>195</ele>
        <time>2016-10-12T14:43:01Z</time>
      </trkpt>
      <trkpt lat="45.86537" lon="4.71896">
        <ele>195</ele>
        <time>2016-10-12T14:43:02Z</time>
      </trkpt>
      <trkpt lat="45.86532" lon="4.71892">
        <ele>195</ele>
        <time>2016-10-12T14:43:03Z</time>
      </trkpt>
      <trkpt lat="45.86529" lon="4.71888">
        <ele>195</ele>
        <time>2016-10-12T14:43:04Z</time>
      </trkpt>
      <trkpt lat="45.86525" lon="4.71884">
        <ele>195</ele>
        <time>2016-10-12T14:43:05Z</time>
      </trkpt>
      <trkpt lat="45.8652" lon="4.7188">
        <ele>195</ele>
        <time>2016-10-12T14:43:06Z</time>
      </trkpt>
      <trkpt lat="45.86515" lon="4.71876">
        <ele>195</ele>
        <time>2016-10-12T14:43:07Z</time>
      </trkpt>
      <trkpt lat="45.8651" lon="4.71873">
        <ele>195</ele>
        <time>2016-10-12T14:43:08Z</time>
      </trkpt>
      <trkpt lat="45.86505" lon="4.71869">
        <ele>195</ele>
        <time>2016-10-12T14:43:09Z</time>
      </trkpt>
      <trkpt lat="45.865" lon="4.71866">
        <ele>195</ele>
        <time>2016-10-12T14:43:10Z</time>
      </trkpt>
      <trkpt lat="45.86495" lon="4.71863">
        <ele>198</ele>
        <time>2016-10-12T14:43:11Z</time>
      </trkpt>
      <trkpt lat="45.8649" lon="4.71859">
        <ele>198</ele>
        <time>2016-10-12T14:43:12Z</time>
      </trkpt>
      <trkpt lat="45.86486" lon="4.71855">
        <ele>198</ele>
        <time>2016-10-12T14:43:13Z</time>
      </trkpt>
      <trkpt lat="45.86481" lon="4.71852">
        <ele>198</ele>
        <time>2016-10-12T14:43:14Z</time>
      </trkpt>
      <trkpt lat="45.86477" lon="4.71848">
        <ele>198</ele>
        <time>2016-10-12T14:43:15Z</time>
      </trkpt>
      <trkpt lat="45.86472" lon="4.71844">
        <ele>199</ele>
        <time>2016-10-12T14:43:16Z</time>
      </trkpt>
      <trkpt lat="45.86468" lon="4.71841">
        <ele>199</ele>
        <time>2016-10-12T14:43:17Z</time>
      </trkpt>
      <trkpt lat="45.86463" lon="4.71837">
        <ele>199</ele>
        <time>2016-10-12T14:43:18Z</time>
      </trkpt>
      <trkpt lat="45.86458" lon="4.71832">
        <ele>196</ele>
        <time>2016-10-12T14:43:19Z</time>
      </trkpt>
      <trkpt lat="45.86454" lon="4.71828">
        <ele>197</ele>
        <time>2016-10-12T14:43:20Z</time>
      </trkpt>
      <trkpt lat="45.86449" lon="4.71824">
        <ele>197</ele>
        <time>2016-10-12T14:43:21Z</time>
      </trkpt>
      <trkpt lat="45.86444" lon="4.7182">
        <ele>197</ele>
        <time>2016-10-12T14:43:22Z</time>
      </trkpt>
      <trkpt lat="45.86439" lon="4.71817">
        <ele>197</ele>
        <time>2016-10-12T14:43:23Z</time>
      </trkpt>
      <trkpt lat="45.86435" lon="4.71814">
        <ele>198</ele>
        <time>2016-10-12T14:43:24Z</time>
      </trkpt>
      <trkpt lat="45.8643" lon="4.7181">
        <ele>197</ele>
        <time>2016-10-12T14:43:25Z</time>
      </trkpt>
      <trkpt lat="45.86425" lon="4.71806">
        <ele>197</ele>
        <time>2016-10-12T14:43:26Z</time>
      </trkpt>
      <trkpt lat="45.8642" lon="4.71803">
        <ele>197</ele>
        <time>2016-10-12T14:43:27Z</time>
      </trkpt>
      <trkpt lat="45.86416" lon="4.71799">
        <ele>199</ele>
        <time>2016-10-12T14:43:28Z</time>
      </trkpt>
      <trkpt lat="45.86411" lon="4.71795">
        <ele>199</ele>
        <time>2016-10-12T14:43:29Z</time>
      </trkpt>
      <trkpt lat="45.86407" lon="4.71792">
        <ele>199</ele>
        <time>2016-10-12T14:43:30Z</time>
      </trkpt>
      <trkpt lat="45.86402" lon="4.71788">
        <ele>198</ele>
        <time>2016-10-12T14:43:31Z</time>
      </trkpt>
      <trkpt lat="45.86398" lon="4.71784">
        <ele>198</ele>
        <time>2016-10-12T14:43:32Z</time>
      </trkpt>
      <trkpt lat="45.86393" lon="4.7178">
        <ele>198</ele>
        <time>2016-10-12T14:43:33Z</time>
      </trkpt>
      <trkpt lat="45.86389" lon="4.71777">
        <ele>198</ele>
        <time>2016-10-12T14:43:34Z</time>
      </trkpt>
      <trkpt lat="45.86382" lon="4.7177">
        <ele>198</ele>
        <time>2016-10-12T14:43:36Z</time>
      </trkpt>
      <trkpt lat="45.86377" lon="4.71766">
        <ele>198</ele>
        <time>2016-10-12T14:43:37Z</time>
      </trkpt>
      <trkpt lat="45.86373" lon="4.71763">
        <ele>198</ele>
        <time>2016-10-12T14:43:38Z</time>
      </trkpt>
      <trkpt lat="45.86368" lon="4.71759">
        <ele>198</ele>
        <time>2016-10-12T14:43:39Z</time>
      </trkpt>
      <trkpt lat="45.86363" lon="4.71755">
        <ele>198</ele>
        <time>2016-10-12T14:43:40Z</time>
      </trkpt>
      <trkpt lat="45.86358" lon="4.71751">
        <ele>197</ele>
        <time>2016-10-12T14:43:41Z</time>
      </trkpt>
      <trkpt lat="45.86353" lon="4.71747">
        <ele>195</ele>
        <time>2016-10-12T14:43:42Z</time>
      </trkpt>
      <trkpt lat="45.86348" lon="4.71743">
        <ele>195</ele>
        <time>2016-10-12T14:43:43Z</time>
      </trkpt>
      <trkpt lat="45.86343" lon="4.7174">
        <ele>195</ele>
        <time>2016-10-12T14:43:44Z</time>
      </trkpt>
      <trkpt lat="45.86338" lon="4.71737">
        <ele>195</ele>
        <time>2016-10-12T14:43:45Z</time>
      </trkpt>
      <trkpt lat="45.86333" lon="4.71733">
        <ele>196</ele>
        <time>2016-10-12T14:43:46Z</time>
      </trkpt>
      <trkpt lat="45.86328" lon="4.71729">
        <ele>196</ele>
        <time>2016-10-12T14:43:47Z</time>
      </trkpt>
      <trkpt lat="45.86323" lon="4.71725">
        <ele>196</ele>
        <time>2016-10-12T14:43:48Z</time>
      </trkpt>
      <trkpt lat="45.86319" lon="4.71721">
        <ele>196</ele>
        <time>2016-10-12T14:43:49Z</time>
      </trkpt>
      <trkpt lat="45.86313" lon="4.71717">
        <ele>195</ele>
        <time>2016-10-12T14:43:50Z</time>
      </trkpt>
      <trkpt lat="45.86309" lon="4.71713">
        <ele>195</ele>
        <time>2016-10-12T14:43:51Z</time>
      </trkpt>
      <trkpt lat="45.86304" lon="4.7171">
        <ele>195</ele>
        <time>2016-10-12T14:43:52Z</time>
      </trkpt>
      <trkpt lat="45.863" lon="4.71706">
        <ele>195</ele>
        <time>2016-10-12T14:43:53Z</time>
      </trkpt>
      <trkpt lat="45.86295" lon="4.71703">
        <ele>195</ele>
        <time>2016-10-12T14:43:54Z</time>
      </trkpt>
      <trkpt lat="45.8629" lon="4.71699">
        <ele>195</ele>
        <time>2016-10-12T14:43:55Z</time>
      </trkpt>
      <trkpt lat="45.86287" lon="4.71695">
        <ele>195</ele>
        <time>2016-10-12T14:43:56Z</time>
      </trkpt>
      <trkpt lat="45.8628" lon="4.7169">
        <ele>195</ele>
        <time>2016-10-12T14:43:57Z</time>
      </trkpt>
      <trkpt lat="45.86275" lon="4.71685">
        <ele>195</ele>
        <time>2016-10-12T14:43:58Z</time>
      </trkpt>
      <trkpt lat="45.8627" lon="4.71681">
        <ele>195</ele>
        <time>2016-10-12T14:43:59Z</time>
      </trkpt>
      <trkpt lat="45.86265" lon="4.71677">
        <ele>195</ele>
        <time>2016-10-12T14:44:00Z</time>
      </trkpt>
      <trkpt lat="45.86261" lon="4.71672">
        <ele>195</ele>
        <time>2016-10-12T14:44:01Z</time>
      </trkpt>
      <trkpt lat="45.86254" lon="4.71667">
        <ele>195</ele>
        <time>2016-10-12T14:44:03Z</time>
      </trkpt>
      <trkpt lat="45.86249" lon="4.71664">
        <ele>195</ele>
        <time>2016-10-12T14:44:04Z</time>
      </trkpt>
      <trkpt lat="45.86244" lon="4.7166">
        <ele>195</ele>
        <time>2016-10-12T14:44:05Z</time>
      </trkpt>
      <trkpt lat="45.86239" lon="4.71657">
        <ele>195</ele>
        <time>2016-10-12T14:44:06Z</time>
      </trkpt>
      <trkpt lat="45.86234" lon="4.71653">
        <ele>195</ele>
        <time>2016-10-12T14:44:07Z</time>
      </trkpt>
      <trkpt lat="45.86229" lon="4.7165">
        <ele>195</ele>
        <time>2016-10-12T14:44:08Z</time>
      </trkpt>
      <trkpt lat="45.86224" lon="4.71647">
        <ele>195</ele>
        <time>2016-10-12T14:44:09Z</time>
      </trkpt>
      <trkpt lat="45.86219" lon="4.71642">
        <ele>195</ele>
        <time>2016-10-12T14:44:10Z</time>
      </trkpt>
      <trkpt lat="45.86216" lon="4.71637">
        <ele>195</ele>
        <time>2016-10-12T14:44:11Z</time>
      </trkpt>
      <trkpt lat="45.86214" lon="4.71631">
        <ele>195</ele>
        <time>2016-10-12T14:44:12Z</time>
      </trkpt>
      <trkpt lat="45.86213" lon="4.71624">
        <ele>195</ele>
        <time>2016-10-12T14:44:13Z</time>
      </trkpt>
      <trkpt lat="45.86213" lon="4.71617">
        <ele>195</ele>
        <time>2016-10-12T14:44:14Z</time>
      </trkpt>
      <trkpt lat="45.86211" lon="4.71609">
        <ele>195</ele>
        <time>2016-10-12T14:44:15Z</time>
      </trkpt>
      <trkpt lat="45.86208" lon="4.71603">
        <ele>195</ele>
        <time>2016-10-12T14:44:16Z</time>
      </trkpt>
      <trkpt lat="45.86204" lon="4.71596">
        <ele>195</ele>
        <time>2016-10-12T14:44:17Z</time>
      </trkpt>
      <trkpt lat="45.862" lon="4.71592">
        <ele>195</ele>
        <time>2016-10-12T14:44:18Z</time>
      </trkpt>
      <trkpt lat="45.86197" lon="4.71588">
        <ele>195</ele>
        <time>2016-10-12T14:44:19Z</time>
      </trkpt>
      <trkpt lat="45.86193" lon="4.71583">
        <ele>195</ele>
        <time>2016-10-12T14:44:20Z</time>
      </trkpt>
      <trkpt lat="45.8619" lon="4.71577">
        <ele>195</ele>
        <time>2016-10-12T14:44:21Z</time>
      </trkpt>
      <trkpt lat="45.86186" lon="4.71571">
        <ele>195</ele>
        <time>2016-10-12T14:44:22Z</time>
      </trkpt>
      <trkpt lat="45.86182" lon="4.71565">
        <ele>195</ele>
        <time>2016-10-12T14:44:23Z</time>
      </trkpt>
      <trkpt lat="45.86178" lon="4.71559">
        <ele>195</ele>
        <time>2016-10-12T14:44:24Z</time>
      </trkpt>
      <trkpt lat="45.86176" lon="4.71553">
        <ele>195</ele>
        <time>2016-10-12T14:44:25Z</time>
      </trkpt>
      <trkpt lat="45.86173" lon="4.71546">
        <ele>195</ele>
        <time>2016-10-12T14:44:26Z</time>
      </trkpt>
      <trkpt lat="45.8617" lon="4.7154">
        <ele>195</ele>
        <time>2016-10-12T14:44:27Z</time>
      </trkpt>
      <trkpt lat="45.86167" lon="4.71534">
        <ele>195</ele>
        <time>2016-10-12T14:44:28Z</time>
      </trkpt>
      <trkpt lat="45.86164" lon="4.71528">
        <ele>195</ele>
        <time>2016-10-12T14:44:29Z</time>
      </trkpt>
      <trkpt lat="45.86161" lon="4.71522">
        <ele>195</ele>
        <time>2016-10-12T14:44:30Z</time>
      </trkpt>
      <trkpt lat="45.86157" lon="4.71515">
        <ele>195</ele>
        <time>2016-10-12T14:44:31Z</time>
      </trkpt>
      <trkpt lat="45.86153" lon="4.71509">
        <ele>195</ele>
        <time>2016-10-12T14:44:32Z</time>
      </trkpt>
      <trkpt lat="45.8615" lon="4.71504">
        <ele>195</ele>
        <time>2016-10-12T14:44:33Z</time>
      </trkpt>
      <trkpt lat="45.86146" lon="4.715">
        <ele>195</ele>
        <time>2016-10-12T14:44:34Z</time>
      </trkpt>
      <trkpt lat="45.86141" lon="4.71496">
        <ele>195</ele>
        <time>2016-10-12T14:44:35Z</time>
      </trkpt>
      <trkpt lat="45.86137" lon="4.71491">
        <ele>195</ele>
        <time>2016-10-12T14:44:36Z</time>
      </trkpt>
      <trkpt lat="45.86135" lon="4.71485">
        <ele>195</ele>
        <time>2016-10-12T14:44:37Z</time>
      </trkpt>
      <trkpt lat="45.86132" lon="4.71479">
        <ele>195</ele>
        <time>2016-10-12T14:44:38Z</time>
      </trkpt>
      <trkpt lat="45.86128" lon="4.71475">
        <ele>195</ele>
        <time>2016-10-12T14:44:39Z</time>
      </trkpt>
      <trkpt lat="45.86125" lon="4.71469">
        <ele>195</ele>
        <time>2016-10-12T14:44:40Z</time>
      </trkpt>
      <trkpt lat="45.86123" lon="4.71463">
        <ele>195</ele>
        <time>2016-10-12T14:44:41Z</time>
      </trkpt>
      <trkpt lat="45.86122" lon="4.71456">
        <ele>195</ele>
        <time>2016-10-12T14:44:42Z</time>
      </trkpt>
      <trkpt lat="45.8612" lon="4.7145">
        <ele>195</ele>
        <time>2016-10-12T14:44:43Z</time>
      </trkpt>
      <trkpt lat="45.86118" lon="4.71443">
        <ele>195</ele>
        <time>2016-10-12T14:44:44Z</time>
      </trkpt>
      <trkpt lat="45.86117" lon="4.71435">
        <ele>195</ele>
        <time>2016-10-12T14:44:45Z</time>
      </trkpt>
      <trkpt lat="45.86116" lon="4.71427">
        <ele>195</ele>
        <time>2016-10-12T14:44:46Z</time>
      </trkpt>
      <trkpt lat="45.86115" lon="4.71418">
        <ele>195</ele>
        <time>2016-10-12T14:44:47Z</time>
      </trkpt>
      <trkpt lat="45.86116" lon="4.71411">
        <ele>196</ele>
        <time>2016-10-12T14:44:48Z</time>
      </trkpt>
      <trkpt lat="45.86116" lon="4.71403">
        <ele>196</ele>
        <time>2016-10-12T14:44:49Z</time>
      </trkpt>
      <trkpt lat="45.86115" lon="4.71397">
        <ele>196</ele>
        <time>2016-10-12T14:44:50Z</time>
      </trkpt>
      <trkpt lat="45.86115" lon="4.71386">
        <ele>196</ele>
        <time>2016-10-12T14:44:52Z</time>
      </trkpt>
      <trkpt lat="45.86114" lon="4.7138">
        <ele>196</ele>
        <time>2016-10-12T14:44:53Z</time>
      </trkpt>
      <trkpt lat="45.86115" lon="4.71372">
        <ele>196</ele>
        <time>2016-10-12T14:44:54Z</time>
      </trkpt>
      <trkpt lat="45.86115" lon="4.71364">
        <ele>196</ele>
        <time>2016-10-12T14:44:55Z</time>
      </trkpt>
      <trkpt lat="45.86116" lon="4.71356">
        <ele>196</ele>
        <time>2016-10-12T14:44:56Z</time>
      </trkpt>
      <trkpt lat="45.86115" lon="4.71347">
        <ele>196</ele>
        <time>2016-10-12T14:44:57Z</time>
      </trkpt>
      <trkpt lat="45.86113" lon="4.71339">
        <ele>196</ele>
        <time>2016-10-12T14:44:58Z</time>
      </trkpt>
      <trkpt lat="45.86112" lon="4.7133">
        <ele>196</ele>
        <time>2016-10-12T14:44:59Z</time>
      </trkpt>
      <trkpt lat="45.8611" lon="4.71322">
        <ele>196</ele>
        <time>2016-10-12T14:45:00Z</time>
      </trkpt>
      <trkpt lat="45.86109" lon="4.71314">
        <ele>196</ele>
        <time>2016-10-12T14:45:01Z</time>
      </trkpt>
      <trkpt lat="45.86108" lon="4.71305">
        <ele>196</ele>
        <time>2016-10-12T14:45:02Z</time>
      </trkpt>
      <trkpt lat="45.86106" lon="4.71297">
        <ele>196</ele>
        <time>2016-10-12T14:45:03Z</time>
      </trkpt>
      <trkpt lat="45.86106" lon="4.71291">
        <ele>197</ele>
        <time>2016-10-12T14:45:04Z</time>
      </trkpt>
      <trkpt lat="45.86103" lon="4.71284">
        <ele>197</ele>
        <time>2016-10-12T14:45:05Z</time>
      </trkpt>
      <trkpt lat="45.86101" lon="4.71278">
        <ele>197</ele>
        <time>2016-10-12T14:45:06Z</time>
      </trkpt>
      <trkpt lat="45.86098" lon="4.71272">
        <ele>197</ele>
        <time>2016-10-12T14:45:07Z</time>
      </trkpt>
      <trkpt lat="45.86095" lon="4.71261">
        <ele>197</ele>
        <time>2016-10-12T14:45:09Z</time>
      </trkpt>
      <trkpt lat="45.86092" lon="4.71255">
        <ele>197</ele>
        <time>2016-10-12T14:45:10Z</time>
      </trkpt>
      <trkpt lat="45.86091" lon="4.71249">
        <ele>198</ele>
        <time>2016-10-12T14:45:11Z</time>
      </trkpt>
      <trkpt lat="45.8609" lon="4.71241">
        <ele>197</ele>
        <time>2016-10-12T14:45:12Z</time>
      </trkpt>
      <trkpt lat="45.8609" lon="4.71233">
        <ele>197</ele>
        <time>2016-10-12T14:45:13Z</time>
      </trkpt>
      <trkpt lat="45.86089" lon="4.71225">
        <ele>197</ele>
        <time>2016-10-12T14:45:14Z</time>
      </trkpt>
      <trkpt lat="45.86092" lon="4.71215">
        <ele>197</ele>
        <time>2016-10-12T14:45:15Z</time>
      </trkpt>
      <trkpt lat="45.86093" lon="4.71207">
        <ele>197</ele>
        <time>2016-10-12T14:45:16Z</time>
      </trkpt>
      <trkpt lat="45.86095" lon="4.71199">
        <ele>197</ele>
        <time>2016-10-12T14:45:17Z</time>
      </trkpt>
      <trkpt lat="45.86095" lon="4.7119">
        <ele>197</ele>
        <time>2016-10-12T14:45:18Z</time>
      </trkpt>
      <trkpt lat="45.86096" lon="4.71183">
        <ele>197</ele>
        <time>2016-10-12T14:45:19Z</time>
      </trkpt>
      <trkpt lat="45.86098" lon="4.71176">
        <ele>197</ele>
        <time>2016-10-12T14:45:20Z</time>
      </trkpt>
      <trkpt lat="45.86099" lon="4.71169">
        <ele>197</ele>
        <time>2016-10-12T14:45:21Z</time>
      </trkpt>
      <trkpt lat="45.86099" lon="4.71161">
        <ele>197</ele>
        <time>2016-10-12T14:45:22Z</time>
      </trkpt>
      <trkpt lat="45.86099" lon="4.71148">
        <ele>197</ele>
        <time>2016-10-12T14:45:24Z</time>
      </trkpt>
      <trkpt lat="45.86095" lon="4.71141">
        <ele>197</ele>
        <time>2016-10-12T14:45:25Z</time>
      </trkpt>
      <trkpt lat="45.86091" lon="4.71136">
        <ele>197</ele>
        <time>2016-10-12T14:45:26Z</time>
      </trkpt>
      <trkpt lat="45.86087" lon="4.71132">
        <ele>196</ele>
        <time>2016-10-12T14:45:27Z</time>
      </trkpt>
      <trkpt lat="45.86082" lon="4.71129">
        <ele>197</ele>
        <time>2016-10-12T14:45:28Z</time>
      </trkpt>
      <trkpt lat="45.86076" lon="4.71126">
        <ele>197</ele>
        <time>2016-10-12T14:45:29Z</time>
      </trkpt>
      <trkpt lat="45.86071" lon="4.71122">
        <ele>197</ele>
        <time>2016-10-12T14:45:30Z</time>
      </trkpt>
      <trkpt lat="45.86065" lon="4.71117">
        <ele>197</ele>
        <time>2016-10-12T14:45:31Z</time>
      </trkpt>
      <trkpt lat="45.86061" lon="4.71112">
        <ele>197</ele>
        <time>2016-10-12T14:45:32Z</time>
      </trkpt>
      <trkpt lat="45.86057" lon="4.71107">
        <ele>197</ele>
        <time>2016-10-12T14:45:33Z</time>
      </trkpt>
      <trkpt lat="45.86052" lon="4.71102">
        <ele>197</ele>
        <time>2016-10-12T14:45:34Z</time>
      </trkpt>
      <trkpt lat="45.86048" lon="4.71096">
        <ele>197</ele>
        <time>2016-10-12T14:45:35Z</time>
      </trkpt>
      <trkpt lat="45.86046" lon="4.7109">
        <ele>197</ele>
        <time>2016-10-12T14:45:36Z</time>
      </trkpt>
      <trkpt lat="45.86045" lon="4.71083">
        <ele>196</ele>
        <time>2016-10-12T14:45:37Z</time>
      </trkpt>
      <trkpt lat="45.86043" lon="4.71076">
        <ele>196</ele>
        <time>2016-10-12T14:45:38Z</time>
      </trkpt>
      <trkpt lat="45.86041" lon="4.71069">
        <ele>197</ele>
        <time>2016-10-12T14:45:39Z</time>
      </trkpt>
      <trkpt lat="45.8604" lon="4.71062">
        <ele>197</ele>
        <time>2016-10-12T14:45:40Z</time>
      </trkpt>
      <trkpt lat="45.86038" lon="4.71054">
        <ele>197</ele>
        <time>2016-10-12T14:45:41Z</time>
      </trkpt>
      <trkpt lat="45.86037" lon="4.71046">
        <ele>197</ele>
        <time>2016-10-12T14:45:42Z</time>
      </trkpt>
      <trkpt lat="45.86035" lon="4.71038">
        <ele>197</ele>
        <time>2016-10-12T14:45:43Z</time>
      </trkpt>
      <trkpt lat="45.86034" lon="4.71031">
        <ele>197</ele>
        <time>2016-10-12T14:45:44Z</time>
      </trkpt>
      <trkpt lat="45.86031" lon="4.71025">
        <ele>197</ele>
        <time>2016-10-12T14:45:45Z</time>
      </trkpt>
      <trkpt lat="45.8603" lon="4.7102">
        <ele>197</ele>
        <time>2016-10-12T14:45:46Z</time>
      </trkpt>
      <trkpt lat="45.86025" lon="4.71014">
        <ele>197</ele>
        <time>2016-10-12T14:45:47Z</time>
      </trkpt>
      <trkpt lat="45.86021" lon="4.71009">
        <ele>197</ele>
        <time>2016-10-12T14:45:48Z</time>
      </trkpt>
      <trkpt lat="45.86018" lon="4.71004">
        <ele>197</ele>
        <time>2016-10-12T14:45:49Z</time>
      </trkpt>
      <trkpt lat="45.86015" lon="4.71">
        <ele>197</ele>
        <time>2016-10-12T14:45:50Z</time>
      </trkpt>
      <trkpt lat="45.86011" lon="4.70995">
        <ele>197</ele>
        <time>2016-10-12T14:45:51Z</time>
      </trkpt>
      <trkpt lat="45.86007" lon="4.7099">
        <ele>197</ele>
        <time>2016-10-12T14:45:52Z</time>
      </trkpt>
      <trkpt lat="45.86003" lon="4.70985">
        <ele>197</ele>
        <time>2016-10-12T14:45:53Z</time>
      </trkpt>
      <trkpt lat="45.85997" lon="4.7098">
        <ele>197</ele>
        <time>2016-10-12T14:45:54Z</time>
      </trkpt>
      <trkpt lat="45.85991" lon="4.70977">
        <ele>197</ele>
        <time>2016-10-12T14:45:55Z</time>
      </trkpt>
      <trkpt lat="45.85984" lon="4.70975">
        <ele>197</ele>
        <time>2016-10-12T14:45:56Z</time>
      </trkpt>
      <trkpt lat="45.85979" lon="4.70974">
        <ele>197</ele>
        <time>2016-10-12T14:45:57Z</time>
      </trkpt>
      <trkpt lat="45.85974" lon="4.70972">
        <ele>197</ele>
        <time>2016-10-12T14:45:58Z</time>
      </trkpt>
      <trkpt lat="45.85969" lon="4.7097">
        <ele>197</ele>
        <time>2016-10-12T14:45:59Z</time>
      </trkpt>
      <trkpt lat="45.8596" lon="4.70969">
        <ele>197</ele>
        <time>2016-10-12T14:46:01Z</time>
      </trkpt>
      <trkpt lat="45.85956" lon="4.70968">
        <ele>197</ele>
        <time>2016-10-12T14:46:02Z</time>
      </trkpt>
      <trkpt lat="45.85951" lon="4.70966">
        <ele>197</ele>
        <time>2016-10-12T14:46:03Z</time>
      </trkpt>
      <trkpt lat="45.85947" lon="4.70963">
        <ele>197</ele>
        <time>2016-10-12T14:46:04Z</time>
      </trkpt>
      <trkpt lat="45.85944" lon="4.70952">
        <ele>197</ele>
        <time>2016-10-12T14:46:06Z</time>
      </trkpt>
      <trkpt lat="45.85943" lon="4.70946">
        <ele>197</ele>
        <time>2016-10-12T14:46:07Z</time>
      </trkpt>
      <trkpt lat="45.85944" lon="4.70938">
        <ele>197</ele>
        <time>2016-10-12T14:46:08Z</time>
      </trkpt>
      <trkpt lat="45.85945" lon="4.70931">
        <ele>197</ele>
        <time>2016-10-12T14:46:09Z</time>
      </trkpt>
      <trkpt lat="45.85947" lon="4.70924">
        <ele>197</ele>
        <time>2016-10-12T14:46:10Z</time>
      </trkpt>
      <trkpt lat="45.85949" lon="4.70916">
        <ele>197</ele>
        <time>2016-10-12T14:46:11Z</time>
      </trkpt>
      <trkpt lat="45.85951" lon="4.70908">
        <ele>197</ele>
        <time>2016-10-12T14:46:12Z</time>
      </trkpt>
      <trkpt lat="45.85953" lon="4.709">
        <ele>197</ele>
        <time>2016-10-12T14:46:13Z</time>
      </trkpt>
      <trkpt lat="45.85955" lon="4.70893">
        <ele>197</ele>
        <time>2016-10-12T14:46:14Z</time>
      </trkpt>
      <trkpt lat="45.85958" lon="4.70884">
        <ele>197</ele>
        <time>2016-10-12T14:46:15Z</time>
      </trkpt>
      <trkpt lat="45.85961" lon="4.70875">
        <ele>197</ele>
        <time>2016-10-12T14:46:16Z</time>
      </trkpt>
      <trkpt lat="45.85962" lon="4.70867">
        <ele>196</ele>
        <time>2016-10-12T14:46:17Z</time>
      </trkpt>
      <trkpt lat="45.85963" lon="4.7086">
        <ele>196</ele>
        <time>2016-10-12T14:46:18Z</time>
      </trkpt>
      <trkpt lat="45.85963" lon="4.70853">
        <ele>196</ele>
        <time>2016-10-12T14:46:19Z</time>
      </trkpt>
      <trkpt lat="45.85964" lon="4.70845">
        <ele>196</ele>
        <time>2016-10-12T14:46:20Z</time>
      </trkpt>
      <trkpt lat="45.85963" lon="4.70838">
        <ele>196</ele>
        <time>2016-10-12T14:46:21Z</time>
      </trkpt>
      <trkpt lat="45.85963" lon="4.70831">
        <ele>196</ele>
        <time>2016-10-12T14:46:22Z</time>
      </trkpt>
      <trkpt lat="45.85962" lon="4.70822">
        <ele>195</ele>
        <time>2016-10-12T14:46:23Z</time>
      </trkpt>
      <trkpt lat="45.85961" lon="4.70813">
        <ele>195</ele>
        <time>2016-10-12T14:46:24Z</time>
      </trkpt>
      <trkpt lat="45.8596" lon="4.70807">
        <ele>195</ele>
        <time>2016-10-12T14:46:25Z</time>
      </trkpt>
      <trkpt lat="45.85959" lon="4.70795">
        <ele>195</ele>
        <time>2016-10-12T14:46:27Z</time>
      </trkpt>
      <trkpt lat="45.85958" lon="4.70787">
        <ele>195</ele>
        <time>2016-10-12T14:46:28Z</time>
      </trkpt>
      <trkpt lat="45.85957" lon="4.70778">
        <ele>195</ele>
        <time>2016-10-12T14:46:29Z</time>
      </trkpt>
      <trkpt lat="45.85958" lon="4.70771">
        <ele>195</ele>
        <time>2016-10-12T14:46:30Z</time>
      </trkpt>
      <trkpt lat="45.85958" lon="4.70763">
        <ele>195</ele>
        <time>2016-10-12T14:46:31Z</time>
      </trkpt>
      <trkpt lat="45.85959" lon="4.70755">
        <ele>195</ele>
        <time>2016-10-12T14:46:32Z</time>
      </trkpt>
      <trkpt lat="45.85959" lon="4.70747">
        <ele>194</ele>
        <time>2016-10-12T14:46:33Z</time>
      </trkpt>
      <trkpt lat="45.85959" lon="4.70738">
        <ele>194</ele>
        <time>2016-10-12T14:46:34Z</time>
      </trkpt>
      <trkpt lat="45.8596" lon="4.7073">
        <ele>194</ele>
        <time>2016-10-12T14:46:35Z</time>
      </trkpt>
      <trkpt lat="45.85961" lon="4.70722">
        <ele>194</ele>
        <time>2016-10-12T14:46:36Z</time>
      </trkpt>
      <trkpt lat="45.85962" lon="4.70713">
        <ele>194</ele>
        <time>2016-10-12T14:46:37Z</time>
      </trkpt>
      <trkpt lat="45.85964" lon="4.70703">
        <ele>194</ele>
        <time>2016-10-12T14:46:38Z</time>
      </trkpt>
      <trkpt lat="45.85965" lon="4.70694">
        <ele>194</ele>
        <time>2016-10-12T14:46:39Z</time>
      </trkpt>
      <trkpt lat="45.85965" lon="4.70684">
        <ele>194</ele>
        <time>2016-10-12T14:46:40Z</time>
      </trkpt>
      <trkpt lat="45.85966" lon="4.70675">
        <ele>194</ele>
        <time>2016-10-12T14:46:41Z</time>
      </trkpt>
      <trkpt lat="45.85965" lon="4.70668">
        <ele>194</ele>
        <time>2016-10-12T14:46:42Z</time>
      </trkpt>
      <trkpt lat="45.85963" lon="4.70661">
        <ele>194</ele>
        <time>2016-10-12T14:46:43Z</time>
      </trkpt>
      <trkpt lat="45.8596" lon="4.70654">
        <ele>194</ele>
        <time>2016-10-12T14:46:44Z</time>
      </trkpt>
      <trkpt lat="45.85953" lon="4.70648">
        <ele>194</ele>
        <time>2016-10-12T14:46:45Z</time>
      </trkpt>
      <trkpt lat="45.85949" lon="4.70642">
        <ele>194</ele>
        <time>2016-10-12T14:46:46Z</time>
      </trkpt>
      <trkpt lat="45.85945" lon="4.70635">
        <ele>194</ele>
        <time>2016-10-12T14:46:47Z</time>
      </trkpt>
      <trkpt lat="45.8594" lon="4.70629">
        <ele>194</ele>
        <time>2016-10-12T14:46:48Z</time>
      </trkpt>
      <trkpt lat="45.85935" lon="4.70624">
        <ele>194</ele>
        <time>2016-10-12T14:46:49Z</time>
      </trkpt>
      <trkpt lat="45.85931" lon="4.70618">
        <ele>194</ele>
        <time>2016-10-12T14:46:50Z</time>
      </trkpt>
      <trkpt lat="45.85927" lon="4.70611">
        <ele>194</ele>
        <time>2016-10-12T14:46:51Z</time>
      </trkpt>
      <trkpt lat="45.85922" lon="4.70605">
        <ele>194</ele>
        <time>2016-10-12T14:46:52Z</time>
      </trkpt>
      <trkpt lat="45.85918" lon="4.70598">
        <ele>194</ele>
        <time>2016-10-12T14:46:53Z</time>
      </trkpt>
      <trkpt lat="45.85914" lon="4.70592">
        <ele>195</ele>
        <time>2016-10-12T14:46:54Z</time>
      </trkpt>
      <trkpt lat="45.85909" lon="4.70587">
        <ele>195</ele>
        <time>2016-10-12T14:46:55Z</time>
      </trkpt>
      <trkpt lat="45.85904" lon="4.70583">
        <ele>195</ele>
        <time>2016-10-12T14:46:56Z</time>
      </trkpt>
      <trkpt lat="45.85899" lon="4.7058">
        <ele>195</ele>
        <time>2016-10-12T14:46:57Z</time>
      </trkpt>
      <trkpt lat="45.85893" lon="4.70577">
        <ele>195</ele>
        <time>2016-10-12T14:46:58Z</time>
      </trkpt>
      <trkpt lat="45.85887" lon="4.70575">
        <ele>195</ele>
        <time>2016-10-12T14:46:59Z</time>
      </trkpt>
      <trkpt lat="45.85882" lon="4.70573">
        <ele>195</ele>
        <time>2016-10-12T14:47:00Z</time>
      </trkpt>
      <trkpt lat="45.85876" lon="4.70571">
        <ele>195</ele>
        <time>2016-10-12T14:47:01Z</time>
      </trkpt>
      <trkpt lat="45.8587" lon="4.7057">
        <ele>195</ele>
        <time>2016-10-12T14:47:02Z</time>
      </trkpt>
      <trkpt lat="45.85865" lon="4.70569">
        <ele>195</ele>
        <time>2016-10-12T14:47:03Z</time>
      </trkpt>
      <trkpt lat="45.8586" lon="4.70567">
        <ele>195</ele>
        <time>2016-10-12T14:47:04Z</time>
      </trkpt>
      <trkpt lat="45.85854" lon="4.70566">
        <ele>195</ele>
        <time>2016-10-12T14:47:05Z</time>
      </trkpt>
      <trkpt lat="45.85848" lon="4.70564">
        <ele>195</ele>
        <time>2016-10-12T14:47:06Z</time>
      </trkpt>
      <trkpt lat="45.85843" lon="4.70562">
        <ele>195</ele>
        <time>2016-10-12T14:47:07Z</time>
      </trkpt>
      <trkpt lat="45.85839" lon="4.70559">
        <ele>195</ele>
        <time>2016-10-12T14:47:08Z</time>
      </trkpt>
      <trkpt lat="45.85834" lon="4.70557">
        <ele>195</ele>
        <time>2016-10-12T14:47:09Z</time>
      </trkpt>
      <trkpt lat="45.85829" lon="4.70554">
        <ele>195</ele>
        <time>2016-10-12T14:47:10Z</time>
      </trkpt>
      <trkpt lat="45.85823" lon="4.70552">
        <ele>195</ele>
        <time>2016-10-12T14:47:11Z</time>
      </trkpt>
      <trkpt lat="45.85817" lon="4.7055">
        <ele>195</ele>
        <time>2016-10-12T14:47:12Z</time>
      </trkpt>
      <trkpt lat="45.85811" lon="4.70548">
        <ele>195</ele>
        <time>2016-10-12T14:47:13Z</time>
      </trkpt>
      <trkpt lat="45.85805" lon="4.70546">
        <ele>195</ele>
        <time>2016-10-12T14:47:14Z</time>
      </trkpt>
      <trkpt lat="45.858" lon="4.70544">
        <ele>195</ele>
        <time>2016-10-12T14:47:15Z</time>
      </trkpt>
      <trkpt lat="45.85795" lon="4.70541">
        <ele>195</ele>
        <time>2016-10-12T14:47:16Z</time>
      </trkpt>
      <trkpt lat="45.8579" lon="4.70538">
        <ele>196</ele>
        <time>2016-10-12T14:47:17Z</time>
      </trkpt>
      <trkpt lat="45.85784" lon="4.70534">
        <ele>196</ele>
        <time>2016-10-12T14:47:18Z</time>
      </trkpt>
      <trkpt lat="45.85779" lon="4.70531">
        <ele>196</ele>
        <time>2016-10-12T14:47:19Z</time>
      </trkpt>
      <trkpt lat="45.85774" lon="4.70528">
        <ele>196</ele>
        <time>2016-10-12T14:47:20Z</time>
      </trkpt>
      <trkpt lat="45.85769" lon="4.70524">
        <ele>196</ele>
        <time>2016-10-12T14:47:21Z</time>
      </trkpt>
      <trkpt lat="45.85765" lon="4.7052">
        <ele>196</ele>
        <time>2016-10-12T14:47:22Z</time>
      </trkpt>
      <trkpt lat="45.85761" lon="4.70516">
        <ele>196</ele>
        <time>2016-10-12T14:47:23Z</time>
      </trkpt>
      <trkpt lat="45.85756" lon="4.70512">
        <ele>196</ele>
        <time>2016-10-12T14:47:24Z</time>
      </trkpt>
      <trkpt lat="45.85749" lon="4.70505">
        <ele>196</ele>
        <time>2016-10-12T14:47:26Z</time>
      </trkpt>
      <trkpt lat="45.85743" lon="4.70502">
        <ele>196</ele>
        <time>2016-10-12T14:47:27Z</time>
      </trkpt>
      <trkpt lat="45.85738" lon="4.70498">
        <ele>196</ele>
        <time>2016-10-12T14:47:28Z</time>
      </trkpt>
      <trkpt lat="45.85735" lon="4.70493">
        <ele>196</ele>
        <time>2016-10-12T14:47:29Z</time>
      </trkpt>
      <trkpt lat="45.85732" lon="4.70487">
        <ele>196</ele>
        <time>2016-10-12T14:47:30Z</time>
      </trkpt>
      <trkpt lat="45.85729" lon="4.7048">
        <ele>196</ele>
        <time>2016-10-12T14:47:31Z</time>
      </trkpt>
      <trkpt lat="45.85727" lon="4.70472">
        <ele>196</ele>
        <time>2016-10-12T14:47:32Z</time>
      </trkpt>
      <trkpt lat="45.85724" lon="4.70464">
        <ele>196</ele>
        <time>2016-10-12T14:47:33Z</time>
      </trkpt>
      <trkpt lat="45.85723" lon="4.70455">
        <ele>196</ele>
        <time>2016-10-12T14:47:34Z</time>
      </trkpt>
      <trkpt lat="45.85723" lon="4.70447">
        <ele>196</ele>
        <time>2016-10-12T14:47:35Z</time>
      </trkpt>
      <trkpt lat="45.85723" lon="4.70438">
        <ele>196</ele>
        <time>2016-10-12T14:47:36Z</time>
      </trkpt>
      <trkpt lat="45.85722" lon="4.70431">
        <ele>196</ele>
        <time>2016-10-12T14:47:37Z</time>
      </trkpt>
      <trkpt lat="45.85721" lon="4.70423">
        <ele>196</ele>
        <time>2016-10-12T14:47:38Z</time>
      </trkpt>
      <trkpt lat="45.8572" lon="4.70415">
        <ele>196</ele>
        <time>2016-10-12T14:47:39Z</time>
      </trkpt>
      <trkpt lat="45.85718" lon="4.70406">
        <ele>196</ele>
        <time>2016-10-12T14:47:40Z</time>
      </trkpt>
      <trkpt lat="45.85717" lon="4.70397">
        <ele>196</ele>
        <time>2016-10-12T14:47:41Z</time>
      </trkpt>
      <trkpt lat="45.85716" lon="4.70389">
        <ele>196</ele>
        <time>2016-10-12T14:47:42Z</time>
      </trkpt>
      <trkpt lat="45.85715" lon="4.70381">
        <ele>196</ele>
        <time>2016-10-12T14:47:43Z</time>
      </trkpt>
      <trkpt lat="45.85714" lon="4.70373">
        <ele>196</ele>
        <time>2016-10-12T14:47:44Z</time>
      </trkpt>
      <trkpt lat="45.85714" lon="4.70365">
        <ele>196</ele>
        <time>2016-10-12T14:47:45Z</time>
      </trkpt>
      <trkpt lat="45.85713" lon="4.70355">
        <ele>196</ele>
        <time>2016-10-12T14:47:46Z</time>
      </trkpt>
      <trkpt lat="45.85712" lon="4.70346">
        <ele>196</ele>
        <time>2016-10-12T14:47:47Z</time>
      </trkpt>
      <trkpt lat="45.85711" lon="4.70336">
        <ele>196</ele>
        <time>2016-10-12T14:47:48Z</time>
      </trkpt>
      <trkpt lat="45.85711" lon="4.70326">
        <ele>197</ele>
        <time>2016-10-12T14:47:49Z</time>
      </trkpt>
      <trkpt lat="45.85711" lon="4.70317">
        <ele>197</ele>
        <time>2016-10-12T14:47:50Z</time>
      </trkpt>
      <trkpt lat="45.8571" lon="4.70308">
        <ele>197</ele>
        <time>2016-10-12T14:47:51Z</time>
      </trkpt>
      <trkpt lat="45.85709" lon="4.703">
        <ele>197</ele>
        <time>2016-10-12T14:47:52Z</time>
      </trkpt>
      <trkpt lat="45.85708" lon="4.70292">
        <ele>197</ele>
        <time>2016-10-12T14:47:53Z</time>
      </trkpt>
      <trkpt lat="45.85707" lon="4.70283">
        <ele>197</ele>
        <time>2016-10-12T14:47:54Z</time>
      </trkpt>
      <trkpt lat="45.85707" lon="4.70274">
        <ele>197</ele>
        <time>2016-10-12T14:47:55Z</time>
      </trkpt>
      <trkpt lat="45.85706" lon="4.70265">
        <ele>197</ele>
        <time>2016-10-12T14:47:56Z</time>
      </trkpt>
      <trkpt lat="45.85705" lon="4.70256">
        <ele>197</ele>
        <time>2016-10-12T14:47:57Z</time>
      </trkpt>
      <trkpt lat="45.85704" lon="4.70248">
        <ele>197</ele>
        <time>2016-10-12T14:47:58Z</time>
      </trkpt>
      <trkpt lat="45.85703" lon="4.7024">
        <ele>197</ele>
        <time>2016-10-12T14:47:59Z</time>
      </trkpt>
      <trkpt lat="45.85701" lon="4.70233">
        <ele>197</ele>
        <time>2016-10-12T14:48:00Z</time>
      </trkpt>
      <trkpt lat="45.85699" lon="4.70226">
        <ele>197</ele>
        <time>2016-10-12T14:48:01Z</time>
      </trkpt>
      <trkpt lat="45.85698" lon="4.70218">
        <ele>197</ele>
        <time>2016-10-12T14:48:02Z</time>
      </trkpt>
      <trkpt lat="45.85696" lon="4.70209">
        <ele>197</ele>
        <time>2016-10-12T14:48:03Z</time>
      </trkpt>
      <trkpt lat="45.85695" lon="4.70201">
        <ele>197</ele>
        <time>2016-10-12T14:48:04Z</time>
      </trkpt>
      <trkpt lat="45.85693" lon="4.70193">
        <ele>197</ele>
        <time>2016-10-12T14:48:05Z</time>
      </trkpt>
      <trkpt lat="45.85692" lon="4.70186">
        <ele>197</ele>
        <time>2016-10-12T14:48:06Z</time>
      </trkpt>
      <trkpt lat="45.85689" lon="4.70177">
        <ele>197</ele>
        <time>2016-10-12T14:48:07Z</time>
      </trkpt>
      <trkpt lat="45.85688" lon="4.70169">
        <ele>197</ele>
        <time>2016-10-12T14:48:08Z</time>
      </trkpt>
      <trkpt lat="45.85685" lon="4.70161">
        <ele>197</ele>
        <time>2016-10-12T14:48:09Z</time>
      </trkpt>
      <trkpt lat="45.85684" lon="4.70153">
        <ele>197</ele>
        <time>2016-10-12T14:48:10Z</time>
      </trkpt>
      <trkpt lat="45.85683" lon="4.70145">
        <ele>197</ele>
        <time>2016-10-12T14:48:11Z</time>
      </trkpt>
      <trkpt lat="45.85682" lon="4.70136">
        <ele>197</ele>
        <time>2016-10-12T14:48:12Z</time>
      </trkpt>
      <trkpt lat="45.85682" lon="4.70128">
        <ele>197</ele>
        <time>2016-10-12T14:48:13Z</time>
      </trkpt>
      <trkpt lat="45.85682" lon="4.7012">
        <ele>197</ele>
        <time>2016-10-12T14:48:14Z</time>
      </trkpt>
      <trkpt lat="45.85682" lon="4.70113">
        <ele>197</ele>
        <time>2016-10-12T14:48:15Z</time>
      </trkpt>
      <trkpt lat="45.8568" lon="4.70102">
        <ele>196</ele>
        <time>2016-10-12T14:48:16Z</time>
      </trkpt>
      <trkpt lat="45.8568" lon="4.70096">
        <ele>196</ele>
        <time>2016-10-12T14:48:17Z</time>
      </trkpt>
      <trkpt lat="45.8568" lon="4.7009">
        <ele>196</ele>
        <time>2016-10-12T14:48:18Z</time>
      </trkpt>
      <trkpt lat="45.85681" lon="4.70083">
        <ele>196</ele>
        <time>2016-10-12T14:48:19Z</time>
      </trkpt>
      <trkpt lat="45.85683" lon="4.70075">
        <ele>196</ele>
        <time>2016-10-12T14:48:20Z</time>
      </trkpt>
      <trkpt lat="45.85684" lon="4.70068">
        <ele>196</ele>
        <time>2016-10-12T14:48:21Z</time>
      </trkpt>
      <trkpt lat="45.85687" lon="4.70063">
        <ele>196</ele>
        <time>2016-10-12T14:48:22Z</time>
      </trkpt>
      <trkpt lat="45.85688" lon="4.70056">
        <ele>195</ele>
        <time>2016-10-12T14:48:23Z</time>
      </trkpt>
      <trkpt lat="45.85689" lon="4.70049">
        <ele>195</ele>
        <time>2016-10-12T14:48:24Z</time>
      </trkpt>
      <trkpt lat="45.8569" lon="4.70043">
        <ele>195</ele>
        <time>2016-10-12T14:48:25Z</time>
      </trkpt>
      <trkpt lat="45.85692" lon="4.70036">
        <ele>195</ele>
        <time>2016-10-12T14:48:26Z</time>
      </trkpt>
      <trkpt lat="45.85693" lon="4.70029">
        <ele>195</ele>
        <time>2016-10-12T14:48:27Z</time>
      </trkpt>
      <trkpt lat="45.85694" lon="4.70021">
        <ele>195</ele>
        <time>2016-10-12T14:48:28Z</time>
      </trkpt>
      <trkpt lat="45.85695" lon="4.70013">
        <ele>195</ele>
        <time>2016-10-12T14:48:29Z</time>
      </trkpt>
      <trkpt lat="45.85695" lon="4.70006">
        <ele>195</ele>
        <time>2016-10-12T14:48:30Z</time>
      </trkpt>
      <trkpt lat="45.85695" lon="4.69998">
        <ele>195</ele>
        <time>2016-10-12T14:48:31Z</time>
      </trkpt>
      <trkpt lat="45.85694" lon="4.6999">
        <ele>195</ele>
        <time>2016-10-12T14:48:32Z</time>
      </trkpt>
      <trkpt lat="45.85693" lon="4.69981">
        <ele>195</ele>
        <time>2016-10-12T14:48:33Z</time>
      </trkpt>
      <trkpt lat="45.85692" lon="4.69972">
        <ele>195</ele>
        <time>2016-10-12T14:48:34Z</time>
      </trkpt>
      <trkpt lat="45.8569" lon="4.69964">
        <ele>195</ele>
        <time>2016-10-12T14:48:35Z</time>
      </trkpt>
      <trkpt lat="45.85688" lon="4.69956">
        <ele>195</ele>
        <time>2016-10-12T14:48:36Z</time>
      </trkpt>
      <trkpt lat="45.85686" lon="4.69947">
        <ele>195</ele>
        <time>2016-10-12T14:48:37Z</time>
      </trkpt>
      <trkpt lat="45.85683" lon="4.6994">
        <ele>195</ele>
        <time>2016-10-12T14:48:38Z</time>
      </trkpt>
      <trkpt lat="45.85681" lon="4.69932">
        <ele>195</ele>
        <time>2016-10-12T14:48:39Z</time>
      </trkpt>
      <trkpt lat="45.85678" lon="4.69923">
        <ele>195</ele>
        <time>2016-10-12T14:48:40Z</time>
      </trkpt>
      <trkpt lat="45.85676" lon="4.69915">
        <ele>195</ele>
        <time>2016-10-12T14:48:41Z</time>
      </trkpt>
      <trkpt lat="45.85673" lon="4.69907">
        <ele>195</ele>
        <time>2016-10-12T14:48:42Z</time>
      </trkpt>
      <trkpt lat="45.85671" lon="4.69902">
        <ele>195</ele>
        <time>2016-10-12T14:48:43Z</time>
      </trkpt>
      <trkpt lat="45.8567" lon="4.69894">
        <ele>195</ele>
        <time>2016-10-12T14:48:44Z</time>
      </trkpt>
      <trkpt lat="45.85669" lon="4.69888">
        <ele>195</ele>
        <time>2016-10-12T14:48:45Z</time>
      </trkpt>
      <trkpt lat="45.85668" lon="4.6988">
        <ele>195</ele>
        <time>2016-10-12T14:48:46Z</time>
      </trkpt>
      <trkpt lat="45.85667" lon="4.6987">
        <ele>195</ele>
        <time>2016-10-12T14:48:47Z</time>
      </trkpt>
      <trkpt lat="45.85666" lon="4.69861">
        <ele>195</ele>
        <time>2016-10-12T14:48:48Z</time>
      </trkpt>
      <trkpt lat="45.85666" lon="4.69852">
        <ele>195</ele>
        <time>2016-10-12T14:48:49Z</time>
      </trkpt>
      <trkpt lat="45.85665" lon="4.69844">
        <ele>195</ele>
        <time>2016-10-12T14:48:50Z</time>
      </trkpt>
      <trkpt lat="45.85664" lon="4.69836">
        <ele>195</ele>
        <time>2016-10-12T14:48:51Z</time>
      </trkpt>
      <trkpt lat="45.85663" lon="4.69827">
        <ele>195</ele>
        <time>2016-10-12T14:48:52Z</time>
      </trkpt>
      <trkpt lat="45.85662" lon="4.69819">
        <ele>195</ele>
        <time>2016-10-12T14:48:53Z</time>
      </trkpt>
      <trkpt lat="45.85661" lon="4.6981">
        <ele>195</ele>
        <time>2016-10-12T14:48:54Z</time>
      </trkpt>
      <trkpt lat="45.8566" lon="4.69803">
        <ele>195</ele>
        <time>2016-10-12T14:48:55Z</time>
      </trkpt>
      <trkpt lat="45.8566" lon="4.69795">
        <ele>195</ele>
        <time>2016-10-12T14:48:56Z</time>
      </trkpt>
      <trkpt lat="45.85659" lon="4.69786">
        <ele>195</ele>
        <time>2016-10-12T14:48:57Z</time>
      </trkpt>
      <trkpt lat="45.85658" lon="4.69778">
        <ele>195</ele>
        <time>2016-10-12T14:48:58Z</time>
      </trkpt>
      <trkpt lat="45.85657" lon="4.6977">
        <ele>195</ele>
        <time>2016-10-12T14:48:59Z</time>
      </trkpt>
      <trkpt lat="45.85656" lon="4.69761">
        <ele>195</ele>
        <time>2016-10-12T14:49:00Z</time>
      </trkpt>
      <trkpt lat="45.85655" lon="4.69753">
        <ele>195</ele>
        <time>2016-10-12T14:49:01Z</time>
      </trkpt>
      <trkpt lat="45.85655" lon="4.69744">
        <ele>195</ele>
        <time>2016-10-12T14:49:02Z</time>
      </trkpt>
      <trkpt lat="45.85654" lon="4.69736">
        <ele>195</ele>
        <time>2016-10-12T14:49:03Z</time>
      </trkpt>
      <trkpt lat="45.85654" lon="4.69727">
        <ele>195</ele>
        <time>2016-10-12T14:49:04Z</time>
      </trkpt>
      <trkpt lat="45.85654" lon="4.69719">
        <ele>196</ele>
        <time>2016-10-12T14:49:05Z</time>
      </trkpt>
      <trkpt lat="45.85653" lon="4.69711">
        <ele>196</ele>
        <time>2016-10-12T14:49:06Z</time>
      </trkpt>
      <trkpt lat="45.85651" lon="4.69703">
        <ele>196</ele>
        <time>2016-10-12T14:49:07Z</time>
      </trkpt>
      <trkpt lat="45.8565" lon="4.69695">
        <ele>196</ele>
        <time>2016-10-12T14:49:08Z</time>
      </trkpt>
      <trkpt lat="45.8565" lon="4.69687">
        <ele>196</ele>
        <time>2016-10-12T14:49:09Z</time>
      </trkpt>
      <trkpt lat="45.8565" lon="4.6968">
        <ele>196</ele>
        <time>2016-10-12T14:49:10Z</time>
      </trkpt>
      <trkpt lat="45.85649" lon="4.69672">
        <ele>196</ele>
        <time>2016-10-12T14:49:11Z</time>
      </trkpt>
      <trkpt lat="45.85648" lon="4.69663">
        <ele>197</ele>
        <time>2016-10-12T14:49:12Z</time>
      </trkpt>
      <trkpt lat="45.85648" lon="4.69654">
        <ele>197</ele>
        <time>2016-10-12T14:49:13Z</time>
      </trkpt>
      <trkpt lat="45.85647" lon="4.69646">
        <ele>197</ele>
        <time>2016-10-12T14:49:14Z</time>
      </trkpt>
      <trkpt lat="45.85646" lon="4.69637">
        <ele>197</ele>
        <time>2016-10-12T14:49:15Z</time>
      </trkpt>
      <trkpt lat="45.85645" lon="4.69629">
        <ele>197</ele>
        <time>2016-10-12T14:49:16Z</time>
      </trkpt>
      <trkpt lat="45.85644" lon="4.69621">
        <ele>197</ele>
        <time>2016-10-12T14:49:17Z</time>
      </trkpt>
      <trkpt lat="45.85643" lon="4.69613">
        <ele>197</ele>
        <time>2016-10-12T14:49:18Z</time>
      </trkpt>
      <trkpt lat="45.85642" lon="4.69605">
        <ele>197</ele>
        <time>2016-10-12T14:49:19Z</time>
      </trkpt>
      <trkpt lat="45.85641" lon="4.69597">
        <ele>197</ele>
        <time>2016-10-12T14:49:20Z</time>
      </trkpt>
      <trkpt lat="45.85639" lon="4.69589">
        <ele>197</ele>
        <time>2016-10-12T14:49:21Z</time>
      </trkpt>
      <trkpt lat="45.85638" lon="4.69581">
        <ele>198</ele>
        <time>2016-10-12T14:49:22Z</time>
      </trkpt>
      <trkpt lat="45.85638" lon="4.69574">
        <ele>198</ele>
        <time>2016-10-12T14:49:23Z</time>
      </trkpt>
      <trkpt lat="45.85636" lon="4.69564">
        <ele>198</ele>
        <time>2016-10-12T14:49:24Z</time>
      </trkpt>
      <trkpt lat="45.85637" lon="4.69557">
        <ele>198</ele>
        <time>2016-10-12T14:49:25Z</time>
      </trkpt>
      <trkpt lat="45.85636" lon="4.69549">
        <ele>198</ele>
        <time>2016-10-12T14:49:26Z</time>
      </trkpt>
      <trkpt lat="45.85635" lon="4.69541">
        <ele>198</ele>
        <time>2016-10-12T14:49:27Z</time>
      </trkpt>
      <trkpt lat="45.85634" lon="4.69533">
        <ele>198</ele>
        <time>2016-10-12T14:49:28Z</time>
      </trkpt>
      <trkpt lat="45.85633" lon="4.69525">
        <ele>198</ele>
        <time>2016-10-12T14:49:29Z</time>
      </trkpt>
      <trkpt lat="45.85633" lon="4.69517">
        <ele>198</ele>
        <time>2016-10-12T14:49:30Z</time>
      </trkpt>
      <trkpt lat="45.85632" lon="4.6951">
        <ele>198</ele>
        <time>2016-10-12T14:49:31Z</time>
      </trkpt>
      <trkpt lat="45.85632" lon="4.69502">
        <ele>198</ele>
        <time>2016-10-12T14:49:32Z</time>
      </trkpt>
      <trkpt lat="45.85631" lon="4.69494">
        <ele>198</ele>
        <time>2016-10-12T14:49:33Z</time>
      </trkpt>
      <trkpt lat="45.8563" lon="4.69486">
        <ele>198</ele>
        <time>2016-10-12T14:49:34Z</time>
      </trkpt>
      <trkpt lat="45.85629" lon="4.69478">
        <ele>198</ele>
        <time>2016-10-12T14:49:35Z</time>
      </trkpt>
      <trkpt lat="45.85628" lon="4.69471">
        <ele>198</ele>
        <time>2016-10-12T14:49:36Z</time>
      </trkpt>
      <trkpt lat="45.85627" lon="4.69464">
        <ele>198</ele>
        <time>2016-10-12T14:49:37Z</time>
      </trkpt>
      <trkpt lat="45.85626" lon="4.69456">
        <ele>198</ele>
        <time>2016-10-12T14:49:38Z</time>
      </trkpt>
      <trkpt lat="45.85626" lon="4.69448">
        <ele>198</ele>
        <time>2016-10-12T14:49:39Z</time>
      </trkpt>
      <trkpt lat="45.85625" lon="4.69439">
        <ele>198</ele>
        <time>2016-10-12T14:49:40Z</time>
      </trkpt>
      <trkpt lat="45.85625" lon="4.69431">
        <ele>198</ele>
        <time>2016-10-12T14:49:41Z</time>
      </trkpt>
      <trkpt lat="45.85625" lon="4.69422">
        <ele>198</ele>
        <time>2016-10-12T14:49:42Z</time>
      </trkpt>
      <trkpt lat="45.85624" lon="4.69415">
        <ele>198</ele>
        <time>2016-10-12T14:49:43Z</time>
      </trkpt>
      <trkpt lat="45.85623" lon="4.69407">
        <ele>198</ele>
        <time>2016-10-12T14:49:44Z</time>
      </trkpt>
      <trkpt lat="45.85622" lon="4.694">
        <ele>198</ele>
        <time>2016-10-12T14:49:45Z</time>
      </trkpt>
      <trkpt lat="45.85621" lon="4.69392">
        <ele>198</ele>
        <time>2016-10-12T14:49:46Z</time>
      </trkpt>
      <trkpt lat="45.8562" lon="4.69384">
        <ele>198</ele>
        <time>2016-10-12T14:49:47Z</time>
      </trkpt>
      <trkpt lat="45.8562" lon="4.69376">
        <ele>198</ele>
        <time>2016-10-12T14:49:48Z</time>
      </trkpt>
      <trkpt lat="45.85619" lon="4.69368">
        <ele>198</ele>
        <time>2016-10-12T14:49:49Z</time>
      </trkpt>
      <trkpt lat="45.85618" lon="4.6936">
        <ele>198</ele>
        <time>2016-10-12T14:49:50Z</time>
      </trkpt>
      <trkpt lat="45.85617" lon="4.69352">
        <ele>198</ele>
        <time>2016-10-12T14:49:51Z</time>
      </trkpt>
      <trkpt lat="45.85616" lon="4.69344">
        <ele>198</ele>
        <time>2016-10-12T14:49:52Z</time>
      </trkpt>
      <trkpt lat="45.85615" lon="4.69335">
        <ele>198</ele>
        <time>2016-10-12T14:49:53Z</time>
      </trkpt>
      <trkpt lat="45.85615" lon="4.69328">
        <ele>198</ele>
        <time>2016-10-12T14:49:54Z</time>
      </trkpt>
      <trkpt lat="45.85615" lon="4.69321">
        <ele>198</ele>
        <time>2016-10-12T14:49:55Z</time>
      </trkpt>
      <trkpt lat="45.85614" lon="4.69314">
        <ele>198</ele>
        <time>2016-10-12T14:49:56Z</time>
      </trkpt>
      <trkpt lat="45.85613" lon="4.69306">
        <ele>198</ele>
        <time>2016-10-12T14:49:57Z</time>
      </trkpt>
      <trkpt lat="45.85612" lon="4.69298">
        <ele>198</ele>
        <time>2016-10-12T14:49:58Z</time>
      </trkpt>
      <trkpt lat="45.85611" lon="4.69291">
        <ele>198</ele>
        <time>2016-10-12T14:49:59Z</time>
      </trkpt>
      <trkpt lat="45.85611" lon="4.69283">
        <ele>198</ele>
        <time>2016-10-12T14:50:00Z</time>
      </trkpt>
      <trkpt lat="45.85611" lon="4.69276">
        <ele>198</ele>
        <time>2016-10-12T14:50:01Z</time>
      </trkpt>
      <trkpt lat="45.85612" lon="4.69267">
        <ele>198</ele>
        <time>2016-10-12T14:50:02Z</time>
      </trkpt>
      <trkpt lat="45.85611" lon="4.6926">
        <ele>198</ele>
        <time>2016-10-12T14:50:03Z</time>
      </trkpt>
      <trkpt lat="45.8561" lon="4.69252">
        <ele>198</ele>
        <time>2016-10-12T14:50:04Z</time>
      </trkpt>
      <trkpt lat="45.85608" lon="4.69245">
        <ele>199</ele>
        <time>2016-10-12T14:50:05Z</time>
      </trkpt>
      <trkpt lat="45.85606" lon="4.69237">
        <ele>199</ele>
        <time>2016-10-12T14:50:06Z</time>
      </trkpt>
      <trkpt lat="45.85605" lon="4.69229">
        <ele>199</ele>
        <time>2016-10-12T14:50:07Z</time>
      </trkpt>
      <trkpt lat="45.85604" lon="4.6922">
        <ele>199</ele>
        <time>2016-10-12T14:50:08Z</time>
      </trkpt>
      <trkpt lat="45.85604" lon="4.69212">
        <ele>199</ele>
        <time>2016-10-12T14:50:09Z</time>
      </trkpt>
      <trkpt lat="45.85603" lon="4.69202">
        <ele>199</ele>
        <time>2016-10-12T14:50:10Z</time>
      </trkpt>
      <trkpt lat="45.85604" lon="4.69194">
        <ele>199</ele>
        <time>2016-10-12T14:50:11Z</time>
      </trkpt>
      <trkpt lat="45.85603" lon="4.69186">
        <ele>199</ele>
        <time>2016-10-12T14:50:12Z</time>
      </trkpt>
      <trkpt lat="45.85602" lon="4.69177">
        <ele>199</ele>
        <time>2016-10-12T14:50:13Z</time>
      </trkpt>
      <trkpt lat="45.85601" lon="4.69168">
        <ele>199</ele>
        <time>2016-10-12T14:50:14Z</time>
      </trkpt>
      <trkpt lat="45.856" lon="4.6916">
        <ele>199</ele>
        <time>2016-10-12T14:50:15Z</time>
      </trkpt>
      <trkpt lat="45.85599" lon="4.69151">
        <ele>199</ele>
        <time>2016-10-12T14:50:16Z</time>
      </trkpt>
      <trkpt lat="45.85598" lon="4.69143">
        <ele>199</ele>
        <time>2016-10-12T14:50:17Z</time>
      </trkpt>
      <trkpt lat="45.85598" lon="4.69135">
        <ele>198</ele>
        <time>2016-10-12T14:50:18Z</time>
      </trkpt>
      <trkpt lat="45.85597" lon="4.69126">
        <ele>198</ele>
        <time>2016-10-12T14:50:19Z</time>
      </trkpt>
      <trkpt lat="45.85597" lon="4.69118">
        <ele>198</ele>
        <time>2016-10-12T14:50:20Z</time>
      </trkpt>
      <trkpt lat="45.85596" lon="4.69109">
        <ele>199</ele>
        <time>2016-10-12T14:50:21Z</time>
      </trkpt>
      <trkpt lat="45.85595" lon="4.69101">
        <ele>199</ele>
        <time>2016-10-12T14:50:22Z</time>
      </trkpt>
      <trkpt lat="45.85594" lon="4.69094">
        <ele>199</ele>
        <time>2016-10-12T14:50:23Z</time>
      </trkpt>
      <trkpt lat="45.85593" lon="4.69085">
        <ele>199</ele>
        <time>2016-10-12T14:50:24Z</time>
      </trkpt>
      <trkpt lat="45.85593" lon="4.69077">
        <ele>199</ele>
        <time>2016-10-12T14:50:25Z</time>
      </trkpt>
      <trkpt lat="45.85592" lon="4.69068">
        <ele>199</ele>
        <time>2016-10-12T14:50:26Z</time>
      </trkpt>
      <trkpt lat="45.85592" lon="4.6906">
        <ele>199</ele>
        <time>2016-10-12T14:50:27Z</time>
      </trkpt>
      <trkpt lat="45.85591" lon="4.69051">
        <ele>199</ele>
        <time>2016-10-12T14:50:28Z</time>
      </trkpt>
      <trkpt lat="45.8559" lon="4.69042">
        <ele>199</ele>
        <time>2016-10-12T14:50:29Z</time>
      </trkpt>
      <trkpt lat="45.85589" lon="4.69034">
        <ele>199</ele>
        <time>2016-10-12T14:50:30Z</time>
      </trkpt>
      <trkpt lat="45.85588" lon="4.69025">
        <ele>199</ele>
        <time>2016-10-12T14:50:31Z</time>
      </trkpt>
      <trkpt lat="45.85587" lon="4.69017">
        <ele>199</ele>
        <time>2016-10-12T14:50:32Z</time>
      </trkpt>
      <trkpt lat="45.85585" lon="4.69008">
        <ele>200</ele>
        <time>2016-10-12T14:50:33Z</time>
      </trkpt>
      <trkpt lat="45.85584" lon="4.69">
        <ele>200</ele>
        <time>2016-10-12T14:50:34Z</time>
      </trkpt>
      <trkpt lat="45.85584" lon="4.68991">
        <ele>200</ele>
        <time>2016-10-12T14:50:35Z</time>
      </trkpt>
      <trkpt lat="45.85583" lon="4.68983">
        <ele>200</ele>
        <time>2016-10-12T14:50:36Z</time>
      </trkpt>
      <trkpt lat="45.85582" lon="4.68974">
        <ele>200</ele>
        <time>2016-10-12T14:50:37Z</time>
      </trkpt>
      <trkpt lat="45.85581" lon="4.68966">
        <ele>200</ele>
        <time>2016-10-12T14:50:38Z</time>
      </trkpt>
      <trkpt lat="45.8558" lon="4.68958">
        <ele>200</ele>
        <time>2016-10-12T14:50:39Z</time>
      </trkpt>
      <trkpt lat="45.8558" lon="4.6895">
        <ele>200</ele>
        <time>2016-10-12T14:50:40Z</time>
      </trkpt>
      <trkpt lat="45.85579" lon="4.68943">
        <ele>200</ele>
        <time>2016-10-12T14:50:41Z</time>
      </trkpt>
      <trkpt lat="45.85579" lon="4.68936">
        <ele>200</ele>
        <time>2016-10-12T14:50:42Z</time>
      </trkpt>
      <trkpt lat="45.85578" lon="4.68928">
        <ele>200</ele>
        <time>2016-10-12T14:50:43Z</time>
      </trkpt>
      <trkpt lat="45.85577" lon="4.6892">
        <ele>200</ele>
        <time>2016-10-12T14:50:44Z</time>
      </trkpt>
      <trkpt lat="45.85577" lon="4.68912">
        <ele>200</ele>
        <time>2016-10-12T14:50:45Z</time>
      </trkpt>
      <trkpt lat="45.85576" lon="4.68905">
        <ele>200</ele>
        <time>2016-10-12T14:50:46Z</time>
      </trkpt>
      <trkpt lat="45.85575" lon="4.68897">
        <ele>200</ele>
        <time>2016-10-12T14:50:47Z</time>
      </trkpt>
      <trkpt lat="45.85574" lon="4.68889">
        <ele>200</ele>
        <time>2016-10-12T14:50:48Z</time>
      </trkpt>
      <trkpt lat="45.85573" lon="4.6888">
        <ele>200</ele>
        <time>2016-10-12T14:50:49Z</time>
      </trkpt>
      <trkpt lat="45.85573" lon="4.68873">
        <ele>200</ele>
        <time>2016-10-12T14:50:50Z</time>
      </trkpt>
      <trkpt lat="45.85572" lon="4.68866">
        <ele>200</ele>
        <time>2016-10-12T14:50:51Z</time>
      </trkpt>
      <trkpt lat="45.85572" lon="4.68859">
        <ele>200</ele>
        <time>2016-10-12T14:50:52Z</time>
      </trkpt>
      <trkpt lat="45.85572" lon="4.68852">
        <ele>200</ele>
        <time>2016-10-12T14:50:53Z</time>
      </trkpt>
      <trkpt lat="45.85572" lon="4.68844">
        <ele>200</ele>
        <time>2016-10-12T14:50:54Z</time>
      </trkpt>
      <trkpt lat="45.85572" lon="4.68837">
        <ele>200</ele>
        <time>2016-10-12T14:50:55Z</time>
      </trkpt>
      <trkpt lat="45.85571" lon="4.68828">
        <ele>200</ele>
        <time>2016-10-12T14:50:56Z</time>
      </trkpt>
      <trkpt lat="45.85571" lon="4.6882">
        <ele>200</ele>
        <time>2016-10-12T14:50:57Z</time>
      </trkpt>
      <trkpt lat="45.8557" lon="4.68812">
        <ele>200</ele>
        <time>2016-10-12T14:50:58Z</time>
      </trkpt>
      <trkpt lat="45.85569" lon="4.68804">
        <ele>200</ele>
        <time>2016-10-12T14:50:59Z</time>
      </trkpt>
      <trkpt lat="45.85569" lon="4.68796">
        <ele>200</ele>
        <time>2016-10-12T14:51:00Z</time>
      </trkpt>
      <trkpt lat="45.85568" lon="4.68788">
        <ele>200</ele>
        <time>2016-10-12T14:51:01Z</time>
      </trkpt>
      <trkpt lat="45.85568" lon="4.6878">
        <ele>200</ele>
        <time>2016-10-12T14:51:02Z</time>
      </trkpt>
      <trkpt lat="45.85567" lon="4.68771">
        <ele>200</ele>
        <time>2016-10-12T14:51:03Z</time>
      </trkpt>
      <trkpt lat="45.85567" lon="4.68763">
        <ele>200</ele>
        <time>2016-10-12T14:51:04Z</time>
      </trkpt>
      <trkpt lat="45.85567" lon="4.68755">
        <ele>200</ele>
        <time>2016-10-12T14:51:05Z</time>
      </trkpt>
      <trkpt lat="45.85566" lon="4.68746">
        <ele>200</ele>
        <time>2016-10-12T14:51:06Z</time>
      </trkpt>
      <trkpt lat="45.85565" lon="4.68738">
        <ele>200</ele>
        <time>2016-10-12T14:51:07Z</time>
      </trkpt>
      <trkpt lat="45.85564" lon="4.6873">
        <ele>200</ele>
        <time>2016-10-12T14:51:08Z</time>
      </trkpt>
      <trkpt lat="45.85564" lon="4.68721">
        <ele>200</ele>
        <time>2016-10-12T14:51:09Z</time>
      </trkpt>
      <trkpt lat="45.85563" lon="4.68713">
        <ele>200</ele>
        <time>2016-10-12T14:51:10Z</time>
      </trkpt>
      <trkpt lat="45.85562" lon="4.68704">
        <ele>200</ele>
        <time>2016-10-12T14:51:11Z</time>
      </trkpt>
      <trkpt lat="45.85561" lon="4.68695">
        <ele>200</ele>
        <time>2016-10-12T14:51:12Z</time>
      </trkpt>
      <trkpt lat="45.8556" lon="4.68687">
        <ele>200</ele>
        <time>2016-10-12T14:51:13Z</time>
      </trkpt>
      <trkpt lat="45.85559" lon="4.68677">
        <ele>200</ele>
        <time>2016-10-12T14:51:14Z</time>
      </trkpt>
      <trkpt lat="45.85559" lon="4.68668">
        <ele>200</ele>
        <time>2016-10-12T14:51:15Z</time>
      </trkpt>
      <trkpt lat="45.85558" lon="4.68659">
        <ele>200</ele>
        <time>2016-10-12T14:51:16Z</time>
      </trkpt>
      <trkpt lat="45.85558" lon="4.68651">
        <ele>201</ele>
        <time>2016-10-12T14:51:17Z</time>
      </trkpt>
      <trkpt lat="45.85554" lon="4.68643">
        <ele>201</ele>
        <time>2016-10-12T14:51:18Z</time>
      </trkpt>
      <trkpt lat="45.85552" lon="4.68636">
        <ele>201</ele>
        <time>2016-10-12T14:51:19Z</time>
      </trkpt>
      <trkpt lat="45.8555" lon="4.68626">
        <ele>201</ele>
        <time>2016-10-12T14:51:21Z</time>
      </trkpt>
      <trkpt lat="45.85548" lon="4.68622">
        <ele>201</ele>
        <time>2016-10-12T14:51:22Z</time>
      </trkpt>
      <trkpt lat="45.85547" lon="4.68616">
        <ele>201</ele>
        <time>2016-10-12T14:51:23Z</time>
      </trkpt>
      <trkpt lat="45.85546" lon="4.68609">
        <ele>201</ele>
        <time>2016-10-12T14:51:24Z</time>
      </trkpt>
      <trkpt lat="45.85545" lon="4.68601">
        <ele>201</ele>
        <time>2016-10-12T14:51:25Z</time>
      </trkpt>
      <trkpt lat="45.85544" lon="4.68593">
        <ele>201</ele>
        <time>2016-10-12T14:51:26Z</time>
      </trkpt>
      <trkpt lat="45.85543" lon="4.68585">
        <ele>201</ele>
        <time>2016-10-12T14:51:27Z</time>
      </trkpt>
      <trkpt lat="45.85542" lon="4.68578">
        <ele>201</ele>
        <time>2016-10-12T14:51:28Z</time>
      </trkpt>
      <trkpt lat="45.85542" lon="4.68571">
        <ele>201</ele>
        <time>2016-10-12T14:51:29Z</time>
      </trkpt>
      <trkpt lat="45.85541" lon="4.68562">
        <ele>201</ele>
        <time>2016-10-12T14:51:30Z</time>
      </trkpt>
      <trkpt lat="45.85541" lon="4.68553">
        <ele>201</ele>
        <time>2016-10-12T14:51:31Z</time>
      </trkpt>
      <trkpt lat="45.8554" lon="4.68543">
        <ele>201</ele>
        <time>2016-10-12T14:51:32Z</time>
      </trkpt>
      <trkpt lat="45.85539" lon="4.68534">
        <ele>201</ele>
        <time>2016-10-12T14:51:33Z</time>
      </trkpt>
      <trkpt lat="45.85541" lon="4.68513">
        <ele>201</ele>
        <time>2016-10-12T14:51:34Z</time>
      </trkpt>
      <trkpt lat="45.8554" lon="4.68503">
        <ele>201</ele>
        <time>2016-10-12T14:51:35Z</time>
      </trkpt>
      <trkpt lat="45.8554" lon="4.68494">
        <ele>200</ele>
        <time>2016-10-12T14:51:36Z</time>
      </trkpt>
      <trkpt lat="45.85539" lon="4.68485">
        <ele>200</ele>
        <time>2016-10-12T14:51:37Z</time>
      </trkpt>
      <trkpt lat="45.85539" lon="4.68478">
        <ele>200</ele>
        <time>2016-10-12T14:51:38Z</time>
      </trkpt>
      <trkpt lat="45.85538" lon="4.6847">
        <ele>200</ele>
        <time>2016-10-12T14:51:39Z</time>
      </trkpt>
      <trkpt lat="45.85538" lon="4.6846">
        <ele>200</ele>
        <time>2016-10-12T14:51:40Z</time>
      </trkpt>
      <trkpt lat="45.85537" lon="4.68449">
        <ele>200</ele>
        <time>2016-10-12T14:51:41Z</time>
      </trkpt>
      <trkpt lat="45.85537" lon="4.68439">
        <ele>200</ele>
        <time>2016-10-12T14:51:42Z</time>
      </trkpt>
      <trkpt lat="45.85537" lon="4.6843">
        <ele>200</ele>
        <time>2016-10-12T14:51:43Z</time>
      </trkpt>
      <trkpt lat="45.85537" lon="4.68421">
        <ele>200</ele>
        <time>2016-10-12T14:51:44Z</time>
      </trkpt>
      <trkpt lat="45.85537" lon="4.68412">
        <ele>200</ele>
        <time>2016-10-12T14:51:45Z</time>
      </trkpt>
      <trkpt lat="45.85536" lon="4.68403">
        <ele>200</ele>
        <time>2016-10-12T14:51:46Z</time>
      </trkpt>
      <trkpt lat="45.85535" lon="4.68394">
        <ele>200</ele>
        <time>2016-10-12T14:51:47Z</time>
      </trkpt>
      <trkpt lat="45.85535" lon="4.68386">
        <ele>200</ele>
        <time>2016-10-12T14:51:48Z</time>
      </trkpt>
      <trkpt lat="45.85534" lon="4.68377">
        <ele>201</ele>
        <time>2016-10-12T14:51:49Z</time>
      </trkpt>
      <trkpt lat="45.85533" lon="4.68368">
        <ele>201</ele>
        <time>2016-10-12T14:51:50Z</time>
      </trkpt>
      <trkpt lat="45.85532" lon="4.68359">
        <ele>201</ele>
        <time>2016-10-12T14:51:51Z</time>
      </trkpt>
      <trkpt lat="45.85531" lon="4.68351">
        <ele>201</ele>
        <time>2016-10-12T14:51:52Z</time>
      </trkpt>
      <trkpt lat="45.85531" lon="4.68343">
        <ele>201</ele>
        <time>2016-10-12T14:51:53Z</time>
      </trkpt>
      <trkpt lat="45.8553" lon="4.68335">
        <ele>201</ele>
        <time>2016-10-12T14:51:54Z</time>
      </trkpt>
      <trkpt lat="45.8553" lon="4.68327">
        <ele>202</ele>
        <time>2016-10-12T14:51:55Z</time>
      </trkpt>
      <trkpt lat="45.85528" lon="4.68318">
        <ele>202</ele>
        <time>2016-10-12T14:51:56Z</time>
      </trkpt>
      <trkpt lat="45.85526" lon="4.68309">
        <ele>202</ele>
        <time>2016-10-12T14:51:57Z</time>
      </trkpt>
      <trkpt lat="45.85526" lon="4.68299">
        <ele>202</ele>
        <time>2016-10-12T14:51:58Z</time>
      </trkpt>
      <trkpt lat="45.85523" lon="4.6829">
        <ele>202</ele>
        <time>2016-10-12T14:51:59Z</time>
      </trkpt>
      <trkpt lat="45.85523" lon="4.68282">
        <ele>202</ele>
        <time>2016-10-12T14:52:00Z</time>
      </trkpt>
      <trkpt lat="45.85522" lon="4.68273">
        <ele>202</ele>
        <time>2016-10-12T14:52:01Z</time>
      </trkpt>
      <trkpt lat="45.85521" lon="4.68264">
        <ele>202</ele>
        <time>2016-10-12T14:52:02Z</time>
      </trkpt>
      <trkpt lat="45.85522" lon="4.68253">
        <ele>202</ele>
        <time>2016-10-12T14:52:03Z</time>
      </trkpt>
      <trkpt lat="45.8552" lon="4.68244">
        <ele>203</ele>
        <time>2016-10-12T14:52:04Z</time>
      </trkpt>
      <trkpt lat="45.85519" lon="4.68235">
        <ele>203</ele>
        <time>2016-10-12T14:52:05Z</time>
      </trkpt>
      <trkpt lat="45.85515" lon="4.68231">
        <ele>203</ele>
        <time>2016-10-12T14:52:06Z</time>
      </trkpt>
      <trkpt lat="45.85513" lon="4.68224">
        <ele>203</ele>
        <time>2016-10-12T14:52:07Z</time>
      </trkpt>
      <trkpt lat="45.85512" lon="4.68215">
        <ele>203</ele>
        <time>2016-10-12T14:52:08Z</time>
      </trkpt>
      <trkpt lat="45.85512" lon="4.68206">
        <ele>203</ele>
        <time>2016-10-12T14:52:09Z</time>
      </trkpt>
      <trkpt lat="45.85511" lon="4.68197">
        <ele>203</ele>
        <time>2016-10-12T14:52:10Z</time>
      </trkpt>
      <trkpt lat="45.85509" lon="4.68188">
        <ele>203</ele>
        <time>2016-10-12T14:52:11Z</time>
      </trkpt>
      <trkpt lat="45.85507" lon="4.6818">
        <ele>204</ele>
        <time>2016-10-12T14:52:12Z</time>
      </trkpt>
      <trkpt lat="45.85512" lon="4.68168">
        <ele>204</ele>
        <time>2016-10-12T14:52:13Z</time>
      </trkpt>
      <trkpt lat="45.85513" lon="4.6816">
        <ele>203</ele>
        <time>2016-10-12T14:52:14Z</time>
      </trkpt>
      <trkpt lat="45.85512" lon="4.68152">
        <ele>203</ele>
        <time>2016-10-12T14:52:15Z</time>
      </trkpt>
      <trkpt lat="45.85509" lon="4.68144">
        <ele>203</ele>
        <time>2016-10-12T14:52:16Z</time>
      </trkpt>
      <trkpt lat="45.85508" lon="4.68136">
        <ele>203</ele>
        <time>2016-10-12T14:52:17Z</time>
      </trkpt>
      <trkpt lat="45.85507" lon="4.68127">
        <ele>203</ele>
        <time>2016-10-12T14:52:18Z</time>
      </trkpt>
      <trkpt lat="45.85507" lon="4.68117">
        <ele>203</ele>
        <time>2016-10-12T14:52:19Z</time>
      </trkpt>
      <trkpt lat="45.85506" lon="4.68108">
        <ele>203</ele>
        <time>2016-10-12T14:52:20Z</time>
      </trkpt>
      <trkpt lat="45.85505" lon="4.68099">
        <ele>203</ele>
        <time>2016-10-12T14:52:21Z</time>
      </trkpt>
      <trkpt lat="45.85504" lon="4.68091">
        <ele>204</ele>
        <time>2016-10-12T14:52:22Z</time>
      </trkpt>
      <trkpt lat="45.85504" lon="4.68082">
        <ele>204</ele>
        <time>2016-10-12T14:52:23Z</time>
      </trkpt>
      <trkpt lat="45.85503" lon="4.68074">
        <ele>204</ele>
        <time>2016-10-12T14:52:24Z</time>
      </trkpt>
      <trkpt lat="45.85502" lon="4.68066">
        <ele>203</ele>
        <time>2016-10-12T14:52:25Z</time>
      </trkpt>
      <trkpt lat="45.855" lon="4.68058">
        <ele>203</ele>
        <time>2016-10-12T14:52:26Z</time>
      </trkpt>
      <trkpt lat="45.85499" lon="4.68051">
        <ele>206</ele>
        <time>2016-10-12T14:52:27Z</time>
      </trkpt>
      <trkpt lat="45.85498" lon="4.68039">
        <ele>206</ele>
        <time>2016-10-12T14:52:29Z</time>
      </trkpt>
      <trkpt lat="45.85496" lon="4.68035">
        <ele>207</ele>
        <time>2016-10-12T14:52:30Z</time>
      </trkpt>
      <trkpt lat="45.85495" lon="4.68024">
        <ele>207</ele>
        <time>2016-10-12T14:52:33Z</time>
      </trkpt>
      <trkpt lat="45.85495" lon="4.68021">
        <ele>207</ele>
        <time>2016-10-12T14:52:34Z</time>
      </trkpt>
      <trkpt lat="45.85498" lon="4.6801">
        <ele>206</ele>
        <time>2016-10-12T14:52:36Z</time>
      </trkpt>
      <trkpt lat="45.85501" lon="4.68005">
        <ele>205</ele>
        <time>2016-10-12T14:52:37Z</time>
      </trkpt>
      <trkpt lat="45.85503" lon="4.68">
        <ele>206</ele>
        <time>2016-10-12T14:52:38Z</time>
      </trkpt>
      <trkpt lat="45.85507" lon="4.67994">
        <ele>206</ele>
        <time>2016-10-12T14:52:39Z</time>
      </trkpt>
      <trkpt lat="45.8551" lon="4.67988">
        <ele>206</ele>
        <time>2016-10-12T14:52:40Z</time>
      </trkpt>
      <trkpt lat="45.85515" lon="4.67983">
        <ele>206</ele>
        <time>2016-10-12T14:52:41Z</time>
      </trkpt>
      <trkpt lat="45.85521" lon="4.67978">
        <ele>206</ele>
        <time>2016-10-12T14:52:42Z</time>
      </trkpt>
      <trkpt lat="45.85527" lon="4.67969">
        <ele>205</ele>
        <time>2016-10-12T14:52:43Z</time>
      </trkpt>
      <trkpt lat="45.85532" lon="4.67962">
        <ele>205</ele>
        <time>2016-10-12T14:52:44Z</time>
      </trkpt>
      <trkpt lat="45.85537" lon="4.67956">
        <ele>205</ele>
        <time>2016-10-12T14:52:45Z</time>
      </trkpt>
      <trkpt lat="45.85539" lon="4.6795">
        <ele>206</ele>
        <time>2016-10-12T14:52:46Z</time>
      </trkpt>
      <trkpt lat="45.85544" lon="4.67947">
        <ele>205</ele>
        <time>2016-10-12T14:52:47Z</time>
      </trkpt>
      <trkpt lat="45.85548" lon="4.67942">
        <ele>205</ele>
        <time>2016-10-12T14:52:48Z</time>
      </trkpt>
      <trkpt lat="45.85553" lon="4.67938">
        <ele>205</ele>
        <time>2016-10-12T14:52:49Z</time>
      </trkpt>
      <trkpt lat="45.85558" lon="4.67933">
        <ele>205</ele>
        <time>2016-10-12T14:52:50Z</time>
      </trkpt>
      <trkpt lat="45.85562" lon="4.67929">
        <ele>205</ele>
        <time>2016-10-12T14:52:51Z</time>
      </trkpt>
      <trkpt lat="45.85567" lon="4.67925">
        <ele>205</ele>
        <time>2016-10-12T14:52:52Z</time>
      </trkpt>
      <trkpt lat="45.85571" lon="4.67925">
        <ele>205</ele>
        <time>2016-10-12T14:52:53Z</time>
      </trkpt>
      <trkpt lat="45.85577" lon="4.67917">
        <ele>205</ele>
        <time>2016-10-12T14:52:55Z</time>
      </trkpt>
      <trkpt lat="45.85578" lon="4.6791">
        <ele>205</ele>
        <time>2016-10-12T14:52:56Z</time>
      </trkpt>
      <trkpt lat="45.85578" lon="4.67902">
        <ele>206</ele>
        <time>2016-10-12T14:52:57Z</time>
      </trkpt>
      <trkpt lat="45.85578" lon="4.67894">
        <ele>206</ele>
        <time>2016-10-12T14:52:58Z</time>
      </trkpt>
      <trkpt lat="45.85576" lon="4.67882">
        <ele>206</ele>
        <time>2016-10-12T14:53:00Z</time>
      </trkpt>
      <trkpt lat="45.85575" lon="4.67874">
        <ele>206</ele>
        <time>2016-10-12T14:53:01Z</time>
      </trkpt>
      <trkpt lat="45.85576" lon="4.67865">
        <ele>206</ele>
        <time>2016-10-12T14:53:02Z</time>
      </trkpt>
      <trkpt lat="45.85575" lon="4.67857">
        <ele>206</ele>
        <time>2016-10-12T14:53:03Z</time>
      </trkpt>
      <trkpt lat="45.85575" lon="4.67848">
        <ele>206</ele>
        <time>2016-10-12T14:53:04Z</time>
      </trkpt>
      <trkpt lat="45.85576" lon="4.67839">
        <ele>206</ele>
        <time>2016-10-12T14:53:05Z</time>
      </trkpt>
      <trkpt lat="45.85578" lon="4.67831">
        <ele>205</ele>
        <time>2016-10-12T14:53:06Z</time>
      </trkpt>
      <trkpt lat="45.8558" lon="4.67822">
        <ele>206</ele>
        <time>2016-10-12T14:53:07Z</time>
      </trkpt>
      <trkpt lat="45.85581" lon="4.67813">
        <ele>206</ele>
        <time>2016-10-12T14:53:08Z</time>
      </trkpt>
      <trkpt lat="45.85582" lon="4.67806">
        <ele>206</ele>
        <time>2016-10-12T14:53:09Z</time>
      </trkpt>
      <trkpt lat="45.85584" lon="4.678">
        <ele>209</ele>
        <time>2016-10-12T14:53:10Z</time>
      </trkpt>
      <trkpt lat="45.85586" lon="4.67793">
        <ele>210</ele>
        <time>2016-10-12T14:53:11Z</time>
      </trkpt>
      <trkpt lat="45.85588" lon="4.67786">
        <ele>209</ele>
        <time>2016-10-12T14:53:12Z</time>
      </trkpt>
      <trkpt lat="45.85592" lon="4.67779">
        <ele>209</ele>
        <time>2016-10-12T14:53:13Z</time>
      </trkpt>
      <trkpt lat="45.85595" lon="4.67771">
        <ele>209</ele>
        <time>2016-10-12T14:53:14Z</time>
      </trkpt>
      <trkpt lat="45.85599" lon="4.67763">
        <ele>208</ele>
        <time>2016-10-12T14:53:15Z</time>
      </trkpt>
      <trkpt lat="45.85602" lon="4.67757">
        <ele>209</ele>
        <time>2016-10-12T14:53:16Z</time>
      </trkpt>
      <trkpt lat="45.85606" lon="4.67751">
        <ele>209</ele>
        <time>2016-10-12T14:53:17Z</time>
      </trkpt>
      <trkpt lat="45.85611" lon="4.67744">
        <ele>208</ele>
        <time>2016-10-12T14:53:18Z</time>
      </trkpt>
      <trkpt lat="45.85615" lon="4.67737">
        <ele>209</ele>
        <time>2016-10-12T14:53:19Z</time>
      </trkpt>
      <trkpt lat="45.85619" lon="4.6773">
        <ele>209</ele>
        <time>2016-10-12T14:53:20Z</time>
      </trkpt>
      <trkpt lat="45.85623" lon="4.67724">
        <ele>209</ele>
        <time>2016-10-12T14:53:21Z</time>
      </trkpt>
      <trkpt lat="45.85627" lon="4.67719">
        <ele>210</ele>
        <time>2016-10-12T14:53:22Z</time>
      </trkpt>
      <trkpt lat="45.85632" lon="4.67713">
        <ele>210</ele>
        <time>2016-10-12T14:53:23Z</time>
      </trkpt>
      <trkpt lat="45.85636" lon="4.67707">
        <ele>210</ele>
        <time>2016-10-12T14:53:24Z</time>
      </trkpt>
      <trkpt lat="45.85641" lon="4.67702">
        <ele>210</ele>
        <time>2016-10-12T14:53:25Z</time>
      </trkpt>
      <trkpt lat="45.85645" lon="4.67695">
        <ele>210</ele>
        <time>2016-10-12T14:53:26Z</time>
      </trkpt>
      <trkpt lat="45.8565" lon="4.6769">
        <ele>210</ele>
        <time>2016-10-12T14:53:27Z</time>
      </trkpt>
      <trkpt lat="45.85656" lon="4.67685">
        <ele>209</ele>
        <time>2016-10-12T14:53:28Z</time>
      </trkpt>
      <trkpt lat="45.85662" lon="4.67681">
        <ele>209</ele>
        <time>2016-10-12T14:53:29Z</time>
      </trkpt>
      <trkpt lat="45.85667" lon="4.67677">
        <ele>214</ele>
        <time>2016-10-12T14:53:30Z</time>
      </trkpt>
      <trkpt lat="45.85675" lon="4.67676">
        <ele>214</ele>
        <time>2016-10-12T14:53:31Z</time>
      </trkpt>
      <trkpt lat="45.8568" lon="4.67672">
        <ele>215</ele>
        <time>2016-10-12T14:53:32Z</time>
      </trkpt>
      <trkpt lat="45.85685" lon="4.67669">
        <ele>216</ele>
        <time>2016-10-12T14:53:33Z</time>
      </trkpt>
      <trkpt lat="45.85691" lon="4.67666">
        <ele>211</ele>
        <time>2016-10-12T14:53:34Z</time>
      </trkpt>
      <trkpt lat="45.85696" lon="4.67662">
        <ele>211</ele>
        <time>2016-10-12T14:53:35Z</time>
      </trkpt>
      <trkpt lat="45.857" lon="4.67658">
        <ele>211</ele>
        <time>2016-10-12T14:53:36Z</time>
      </trkpt>
      <trkpt lat="45.85705" lon="4.67654">
        <ele>212</ele>
        <time>2016-10-12T14:53:37Z</time>
      </trkpt>
      <trkpt lat="45.85709" lon="4.6765">
        <ele>212</ele>
        <time>2016-10-12T14:53:38Z</time>
      </trkpt>
      <trkpt lat="45.85714" lon="4.67646">
        <ele>212</ele>
        <time>2016-10-12T14:53:39Z</time>
      </trkpt>
      <trkpt lat="45.85719" lon="4.67642">
        <ele>212</ele>
        <time>2016-10-12T14:53:40Z</time>
      </trkpt>
      <trkpt lat="45.85723" lon="4.67638">
        <ele>212</ele>
        <time>2016-10-12T14:53:41Z</time>
      </trkpt>
      <trkpt lat="45.85729" lon="4.67634">
        <ele>212</ele>
        <time>2016-10-12T14:53:42Z</time>
      </trkpt>
      <trkpt lat="45.85734" lon="4.67631">
        <ele>212</ele>
        <time>2016-10-12T14:53:43Z</time>
      </trkpt>
      <trkpt lat="45.85739" lon="4.67628">
        <ele>212</ele>
        <time>2016-10-12T14:53:44Z</time>
      </trkpt>
      <trkpt lat="45.85744" lon="4.67624">
        <ele>212</ele>
        <time>2016-10-12T14:53:45Z</time>
      </trkpt>
      <trkpt lat="45.85749" lon="4.67621">
        <ele>211</ele>
        <time>2016-10-12T14:53:46Z</time>
      </trkpt>
      <trkpt lat="45.85753" lon="4.67618">
        <ele>218</ele>
        <time>2016-10-12T14:53:47Z</time>
      </trkpt>
      <trkpt lat="45.85758" lon="4.67615">
        <ele>218</ele>
        <time>2016-10-12T14:53:48Z</time>
      </trkpt>
      <trkpt lat="45.85764" lon="4.67611">
        <ele>218</ele>
        <time>2016-10-12T14:53:49Z</time>
      </trkpt>
      <trkpt lat="45.8577" lon="4.67608">
        <ele>218</ele>
        <time>2016-10-12T14:53:50Z</time>
      </trkpt>
      <trkpt lat="45.85775" lon="4.67603">
        <ele>218</ele>
        <time>2016-10-12T14:53:51Z</time>
      </trkpt>
      <trkpt lat="45.8578" lon="4.67598">
        <ele>218</ele>
        <time>2016-10-12T14:53:52Z</time>
      </trkpt>
      <trkpt lat="45.85786" lon="4.67594">
        <ele>219</ele>
        <time>2016-10-12T14:53:53Z</time>
      </trkpt>
      <trkpt lat="45.85791" lon="4.67589">
        <ele>219</ele>
        <time>2016-10-12T14:53:54Z</time>
      </trkpt>
      <trkpt lat="45.85796" lon="4.67583">
        <ele>212</ele>
        <time>2016-10-12T14:53:55Z</time>
      </trkpt>
      <trkpt lat="45.85801" lon="4.67578">
        <ele>212</ele>
        <time>2016-10-12T14:53:56Z</time>
      </trkpt>
      <trkpt lat="45.85806" lon="4.67573">
        <ele>213</ele>
        <time>2016-10-12T14:53:57Z</time>
      </trkpt>
      <trkpt lat="45.8581" lon="4.67566">
        <ele>213</ele>
        <time>2016-10-12T14:53:58Z</time>
      </trkpt>
      <trkpt lat="45.85815" lon="4.67561">
        <ele>213</ele>
        <time>2016-10-12T14:53:59Z</time>
      </trkpt>
      <trkpt lat="45.8582" lon="4.67557">
        <ele>213</ele>
        <time>2016-10-12T14:54:00Z</time>
      </trkpt>
      <trkpt lat="45.85824" lon="4.67551">
        <ele>212</ele>
        <time>2016-10-12T14:54:01Z</time>
      </trkpt>
      <trkpt lat="45.85828" lon="4.67547">
        <ele>212</ele>
        <time>2016-10-12T14:54:02Z</time>
      </trkpt>
      <trkpt lat="45.85833" lon="4.6754">
        <ele>211</ele>
        <time>2016-10-12T14:54:03Z</time>
      </trkpt>
      <trkpt lat="45.85838" lon="4.67534">
        <ele>220</ele>
        <time>2016-10-12T14:54:04Z</time>
      </trkpt>
      <trkpt lat="45.85841" lon="4.67526">
        <ele>219</ele>
        <time>2016-10-12T14:54:05Z</time>
      </trkpt>
      <trkpt lat="45.85845" lon="4.6752">
        <ele>218</ele>
        <time>2016-10-12T14:54:06Z</time>
      </trkpt>
      <trkpt lat="45.85848" lon="4.67513">
        <ele>217</ele>
        <time>2016-10-12T14:54:07Z</time>
      </trkpt>
      <trkpt lat="45.8585" lon="4.67505">
        <ele>216</ele>
        <time>2016-10-12T14:54:08Z</time>
      </trkpt>
      <trkpt lat="45.85852" lon="4.67496">
        <ele>212</ele>
        <time>2016-10-12T14:54:09Z</time>
      </trkpt>
      <trkpt lat="45.85854" lon="4.67488">
        <ele>212</ele>
        <time>2016-10-12T14:54:10Z</time>
      </trkpt>
      <trkpt lat="45.85856" lon="4.6748">
        <ele>213</ele>
        <time>2016-10-12T14:54:11Z</time>
      </trkpt>
      <trkpt lat="45.85858" lon="4.67473">
        <ele>213</ele>
        <time>2016-10-12T14:54:12Z</time>
      </trkpt>
      <trkpt lat="45.8586" lon="4.67465">
        <ele>214</ele>
        <time>2016-10-12T14:54:13Z</time>
      </trkpt>
      <trkpt lat="45.85863" lon="4.67458">
        <ele>214</ele>
        <time>2016-10-12T14:54:14Z</time>
      </trkpt>
      <trkpt lat="45.85864" lon="4.6745">
        <ele>213</ele>
        <time>2016-10-12T14:54:15Z</time>
      </trkpt>
      <trkpt lat="45.85866" lon="4.67443">
        <ele>213</ele>
        <time>2016-10-12T14:54:16Z</time>
      </trkpt>
      <trkpt lat="45.85868" lon="4.67435">
        <ele>213</ele>
        <time>2016-10-12T14:54:17Z</time>
      </trkpt>
      <trkpt lat="45.85869" lon="4.67426">
        <ele>213</ele>
        <time>2016-10-12T14:54:18Z</time>
      </trkpt>
      <trkpt lat="45.85869" lon="4.67417">
        <ele>213</ele>
        <time>2016-10-12T14:54:19Z</time>
      </trkpt>
      <trkpt lat="45.8587" lon="4.67409">
        <ele>209</ele>
        <time>2016-10-12T14:54:20Z</time>
      </trkpt>
      <trkpt lat="45.85871" lon="4.674">
        <ele>209</ele>
        <time>2016-10-12T14:54:21Z</time>
      </trkpt>
      <trkpt lat="45.85872" lon="4.67392">
        <ele>209</ele>
        <time>2016-10-12T14:54:22Z</time>
      </trkpt>
      <trkpt lat="45.85873" lon="4.67383">
        <ele>209</ele>
        <time>2016-10-12T14:54:23Z</time>
      </trkpt>
      <trkpt lat="45.85874" lon="4.67374">
        <ele>209</ele>
        <time>2016-10-12T14:54:24Z</time>
      </trkpt>
      <trkpt lat="45.85875" lon="4.67365">
        <ele>209</ele>
        <time>2016-10-12T14:54:25Z</time>
      </trkpt>
      <trkpt lat="45.85876" lon="4.67357">
        <ele>209</ele>
        <time>2016-10-12T14:54:26Z</time>
      </trkpt>
      <trkpt lat="45.85876" lon="4.67348">
        <ele>209</ele>
        <time>2016-10-12T14:54:27Z</time>
      </trkpt>
      <trkpt lat="45.85877" lon="4.6734">
        <ele>208</ele>
        <time>2016-10-12T14:54:28Z</time>
      </trkpt>
      <trkpt lat="45.85878" lon="4.67332">
        <ele>206</ele>
        <time>2016-10-12T14:54:29Z</time>
      </trkpt>
      <trkpt lat="45.85879" lon="4.67324">
        <ele>206</ele>
        <time>2016-10-12T14:54:30Z</time>
      </trkpt>
      <trkpt lat="45.8588" lon="4.67316">
        <ele>206</ele>
        <time>2016-10-12T14:54:31Z</time>
      </trkpt>
      <trkpt lat="45.85881" lon="4.67308">
        <ele>206</ele>
        <time>2016-10-12T14:54:32Z</time>
      </trkpt>
      <trkpt lat="45.85881" lon="4.67299">
        <ele>206</ele>
        <time>2016-10-12T14:54:33Z</time>
      </trkpt>
      <trkpt lat="45.85881" lon="4.67291">
        <ele>205</ele>
        <time>2016-10-12T14:54:34Z</time>
      </trkpt>
      <trkpt lat="45.85882" lon="4.67282">
        <ele>205</ele>
        <time>2016-10-12T14:54:35Z</time>
      </trkpt>
      <trkpt lat="45.85882" lon="4.67274">
        <ele>205</ele>
        <time>2016-10-12T14:54:36Z</time>
      </trkpt>
      <trkpt lat="45.85883" lon="4.67266">
        <ele>205</ele>
        <time>2016-10-12T14:54:37Z</time>
      </trkpt>
      <trkpt lat="45.85884" lon="4.67258">
        <ele>205</ele>
        <time>2016-10-12T14:54:38Z</time>
      </trkpt>
      <trkpt lat="45.85885" lon="4.6725">
        <ele>205</ele>
        <time>2016-10-12T14:54:39Z</time>
      </trkpt>
      <trkpt lat="45.85885" lon="4.67242">
        <ele>204</ele>
        <time>2016-10-12T14:54:40Z</time>
      </trkpt>
      <trkpt lat="45.85886" lon="4.67235">
        <ele>204</ele>
        <time>2016-10-12T14:54:41Z</time>
      </trkpt>
      <trkpt lat="45.85887" lon="4.67227">
        <ele>204</ele>
        <time>2016-10-12T14:54:42Z</time>
      </trkpt>
      <trkpt lat="45.85887" lon="4.67219">
        <ele>204</ele>
        <time>2016-10-12T14:54:43Z</time>
      </trkpt>
      <trkpt lat="45.85888" lon="4.67211">
        <ele>204</ele>
        <time>2016-10-12T14:54:44Z</time>
      </trkpt>
      <trkpt lat="45.85889" lon="4.67202">
        <ele>204</ele>
        <time>2016-10-12T14:54:45Z</time>
      </trkpt>
      <trkpt lat="45.8589" lon="4.67194">
        <ele>204</ele>
        <time>2016-10-12T14:54:46Z</time>
      </trkpt>
      <trkpt lat="45.85891" lon="4.67186">
        <ele>205</ele>
        <time>2016-10-12T14:54:47Z</time>
      </trkpt>
      <trkpt lat="45.85892" lon="4.67177">
        <ele>205</ele>
        <time>2016-10-12T14:54:48Z</time>
      </trkpt>
      <trkpt lat="45.85893" lon="4.6717">
        <ele>205</ele>
        <time>2016-10-12T14:54:49Z</time>
      </trkpt>
      <trkpt lat="45.85894" lon="4.67162">
        <ele>205</ele>
        <time>2016-10-12T14:54:50Z</time>
      </trkpt>
      <trkpt lat="45.85895" lon="4.67155">
        <ele>205</ele>
        <time>2016-10-12T14:54:51Z</time>
      </trkpt>
      <trkpt lat="45.85896" lon="4.67146">
        <ele>204</ele>
        <time>2016-10-12T14:54:52Z</time>
      </trkpt>
      <trkpt lat="45.85897" lon="4.67136">
        <ele>204</ele>
        <time>2016-10-12T14:54:53Z</time>
      </trkpt>
      <trkpt lat="45.85898" lon="4.67128">
        <ele>204</ele>
        <time>2016-10-12T14:54:54Z</time>
      </trkpt>
      <trkpt lat="45.85898" lon="4.67119">
        <ele>204</ele>
        <time>2016-10-12T14:54:55Z</time>
      </trkpt>
      <trkpt lat="45.85899" lon="4.67112">
        <ele>204</ele>
        <time>2016-10-12T14:54:56Z</time>
      </trkpt>
      <trkpt lat="45.859" lon="4.67103">
        <ele>204</ele>
        <time>2016-10-12T14:54:57Z</time>
      </trkpt>
      <trkpt lat="45.85901" lon="4.67094">
        <ele>204</ele>
        <time>2016-10-12T14:54:58Z</time>
      </trkpt>
      <trkpt lat="45.85902" lon="4.67085">
        <ele>204</ele>
        <time>2016-10-12T14:54:59Z</time>
      </trkpt>
      <trkpt lat="45.85903" lon="4.67077">
        <ele>204</ele>
        <time>2016-10-12T14:55:00Z</time>
      </trkpt>
      <trkpt lat="45.85904" lon="4.67069">
        <ele>205</ele>
        <time>2016-10-12T14:55:01Z</time>
      </trkpt>
      <trkpt lat="45.85905" lon="4.67061">
        <ele>205</ele>
        <time>2016-10-12T14:55:02Z</time>
      </trkpt>
      <trkpt lat="45.85906" lon="4.67054">
        <ele>205</ele>
        <time>2016-10-12T14:55:03Z</time>
      </trkpt>
      <trkpt lat="45.85908" lon="4.67046">
        <ele>205</ele>
        <time>2016-10-12T14:55:04Z</time>
      </trkpt>
      <trkpt lat="45.85909" lon="4.67039">
        <ele>205</ele>
        <time>2016-10-12T14:55:05Z</time>
      </trkpt>
      <trkpt lat="45.85911" lon="4.67031">
        <ele>205</ele>
        <time>2016-10-12T14:55:06Z</time>
      </trkpt>
      <trkpt lat="45.85912" lon="4.67023">
        <ele>205</ele>
        <time>2016-10-12T14:55:07Z</time>
      </trkpt>
      <trkpt lat="45.85914" lon="4.67015">
        <ele>206</ele>
        <time>2016-10-12T14:55:08Z</time>
      </trkpt>
      <trkpt lat="45.85915" lon="4.67008">
        <ele>206</ele>
        <time>2016-10-12T14:55:09Z</time>
      </trkpt>
      <trkpt lat="45.85919" lon="4.66998">
        <ele>206</ele>
        <time>2016-10-12T14:55:11Z</time>
      </trkpt>
      <trkpt lat="45.85921" lon="4.66994">
        <ele>207</ele>
        <time>2016-10-12T14:55:12Z</time>
      </trkpt>
      <trkpt lat="45.85927" lon="4.66986">
        <ele>208</ele>
        <time>2016-10-12T14:55:14Z</time>
      </trkpt>
      <trkpt lat="45.85929" lon="4.6698">
        <ele>208</ele>
        <time>2016-10-12T14:55:15Z</time>
      </trkpt>
      <trkpt lat="45.8593" lon="4.66973">
        <ele>209</ele>
        <time>2016-10-12T14:55:16Z</time>
      </trkpt>
      <trkpt lat="45.85929" lon="4.66965">
        <ele>209</ele>
        <time>2016-10-12T14:55:17Z</time>
      </trkpt>
      <trkpt lat="45.85928" lon="4.66957">
        <ele>209</ele>
        <time>2016-10-12T14:55:18Z</time>
      </trkpt>
      <trkpt lat="45.85926" lon="4.6695">
        <ele>209</ele>
        <time>2016-10-12T14:55:19Z</time>
      </trkpt>
      <trkpt lat="45.85926" lon="4.66942">
        <ele>209</ele>
        <time>2016-10-12T14:55:20Z</time>
      </trkpt>
      <trkpt lat="45.85925" lon="4.66934">
        <ele>208</ele>
        <time>2016-10-12T14:55:21Z</time>
      </trkpt>
      <trkpt lat="45.85926" lon="4.66927">
        <ele>208</ele>
        <time>2016-10-12T14:55:22Z</time>
      </trkpt>
      <trkpt lat="45.85928" lon="4.66918">
        <ele>208</ele>
        <time>2016-10-12T14:55:23Z</time>
      </trkpt>
      <trkpt lat="45.8593" lon="4.66909">
        <ele>209</ele>
        <time>2016-10-12T14:55:24Z</time>
      </trkpt>
      <trkpt lat="45.85932" lon="4.669">
        <ele>209</ele>
        <time>2016-10-12T14:55:25Z</time>
      </trkpt>
      <trkpt lat="45.85934" lon="4.66892">
        <ele>210</ele>
        <time>2016-10-12T14:55:26Z</time>
      </trkpt>
      <trkpt lat="45.85935" lon="4.66884">
        <ele>210</ele>
        <time>2016-10-12T14:55:27Z</time>
      </trkpt>
      <trkpt lat="45.85937" lon="4.66876">
        <ele>210</ele>
        <time>2016-10-12T14:55:28Z</time>
      </trkpt>
      <trkpt lat="45.85939" lon="4.66868">
        <ele>210</ele>
        <time>2016-10-12T14:55:29Z</time>
      </trkpt>
      <trkpt lat="45.85941" lon="4.6686">
        <ele>210</ele>
        <time>2016-10-12T14:55:30Z</time>
      </trkpt>
      <trkpt lat="45.85942" lon="4.66853">
        <ele>210</ele>
        <time>2016-10-12T14:55:31Z</time>
      </trkpt>
      <trkpt lat="45.85944" lon="4.66845">
        <ele>210</ele>
        <time>2016-10-12T14:55:32Z</time>
      </trkpt>
      <trkpt lat="45.85946" lon="4.66838">
        <ele>210</ele>
        <time>2016-10-12T14:55:33Z</time>
      </trkpt>
      <trkpt lat="45.85949" lon="4.66829">
        <ele>212</ele>
        <time>2016-10-12T14:55:34Z</time>
      </trkpt>
      <trkpt lat="45.85951" lon="4.66822">
        <ele>212</ele>
        <time>2016-10-12T14:55:35Z</time>
      </trkpt>
      <trkpt lat="45.85954" lon="4.66815">
        <ele>213</ele>
        <time>2016-10-12T14:55:36Z</time>
      </trkpt>
      <trkpt lat="45.85956" lon="4.66806">
        <ele>213</ele>
        <time>2016-10-12T14:55:37Z</time>
      </trkpt>
      <trkpt lat="45.85957" lon="4.668">
        <ele>213</ele>
        <time>2016-10-12T14:55:38Z</time>
      </trkpt>
      <trkpt lat="45.85959" lon="4.66792">
        <ele>213</ele>
        <time>2016-10-12T14:55:39Z</time>
      </trkpt>
      <trkpt lat="45.8596" lon="4.66785">
        <ele>213</ele>
        <time>2016-10-12T14:55:40Z</time>
      </trkpt>
      <trkpt lat="45.85962" lon="4.66779">
        <ele>214</ele>
        <time>2016-10-12T14:55:41Z</time>
      </trkpt>
      <trkpt lat="45.85965" lon="4.66772">
        <ele>214</ele>
        <time>2016-10-12T14:55:42Z</time>
      </trkpt>
      <trkpt lat="45.85968" lon="4.66765">
        <ele>214</ele>
        <time>2016-10-12T14:55:43Z</time>
      </trkpt>
      <trkpt lat="45.85971" lon="4.66757">
        <ele>214</ele>
        <time>2016-10-12T14:55:44Z</time>
      </trkpt>
      <trkpt lat="45.85974" lon="4.6675">
        <ele>215</ele>
        <time>2016-10-12T14:55:45Z</time>
      </trkpt>
      <trkpt lat="45.85977" lon="4.66744">
        <ele>216</ele>
        <time>2016-10-12T14:55:46Z</time>
      </trkpt>
      <trkpt lat="45.85979" lon="4.66739">
        <ele>216</ele>
        <time>2016-10-12T14:55:47Z</time>
      </trkpt>
      <trkpt lat="45.85981" lon="4.66734">
        <ele>216</ele>
        <time>2016-10-12T14:55:48Z</time>
      </trkpt>
      <trkpt lat="45.85983" lon="4.66726">
        <ele>216</ele>
        <time>2016-10-12T14:55:49Z</time>
      </trkpt>
      <trkpt lat="45.85985" lon="4.6672">
        <ele>215</ele>
        <time>2016-10-12T14:55:50Z</time>
      </trkpt>
      <trkpt lat="45.85989" lon="4.66714">
        <ele>215</ele>
        <time>2016-10-12T14:55:51Z</time>
      </trkpt>
      <trkpt lat="45.85993" lon="4.66706">
        <ele>215</ele>
        <time>2016-10-12T14:55:52Z</time>
      </trkpt>
      <trkpt lat="45.85996" lon="4.667">
        <ele>215</ele>
        <time>2016-10-12T14:55:53Z</time>
      </trkpt>
      <trkpt lat="45.86001" lon="4.66695">
        <ele>218</ele>
        <time>2016-10-12T14:55:54Z</time>
      </trkpt>
      <trkpt lat="45.86005" lon="4.66688">
        <ele>217</ele>
        <time>2016-10-12T14:55:55Z</time>
      </trkpt>
      <trkpt lat="45.86009" lon="4.66681">
        <ele>216</ele>
        <time>2016-10-12T14:55:56Z</time>
      </trkpt>
      <trkpt lat="45.86014" lon="4.66676">
        <ele>216</ele>
        <time>2016-10-12T14:55:57Z</time>
      </trkpt>
      <trkpt lat="45.86019" lon="4.6667">
        <ele>217</ele>
        <time>2016-10-12T14:55:58Z</time>
      </trkpt>
      <trkpt lat="45.86023" lon="4.66665">
        <ele>213</ele>
        <time>2016-10-12T14:55:59Z</time>
      </trkpt>
      <trkpt lat="45.86027" lon="4.66659">
        <ele>213</ele>
        <time>2016-10-12T14:56:00Z</time>
      </trkpt>
      <trkpt lat="45.86031" lon="4.66655">
        <ele>214</ele>
        <time>2016-10-12T14:56:01Z</time>
      </trkpt>
      <trkpt lat="45.86036" lon="4.66644">
        <ele>214</ele>
        <time>2016-10-12T14:56:02Z</time>
      </trkpt>
      <trkpt lat="45.86042" lon="4.66639">
        <ele>214</ele>
        <time>2016-10-12T14:56:03Z</time>
      </trkpt>
      <trkpt lat="45.86046" lon="4.66635">
        <ele>214</ele>
        <time>2016-10-12T14:56:04Z</time>
      </trkpt>
      <trkpt lat="45.8605" lon="4.66631">
        <ele>214</ele>
        <time>2016-10-12T14:56:05Z</time>
      </trkpt>
      <trkpt lat="45.86055" lon="4.66627">
        <ele>214</ele>
        <time>2016-10-12T14:56:06Z</time>
      </trkpt>
      <trkpt lat="45.8606" lon="4.66624">
        <ele>214</ele>
        <time>2016-10-12T14:56:07Z</time>
      </trkpt>
      <trkpt lat="45.86065" lon="4.66622">
        <ele>214</ele>
        <time>2016-10-12T14:56:08Z</time>
      </trkpt>
      <trkpt lat="45.86069" lon="4.66619">
        <ele>214</ele>
        <time>2016-10-12T14:56:09Z</time>
      </trkpt>
      <trkpt lat="45.86074" lon="4.66616">
        <ele>214</ele>
        <time>2016-10-12T14:56:10Z</time>
      </trkpt>
      <trkpt lat="45.86079" lon="4.66613">
        <ele>213</ele>
        <time>2016-10-12T14:56:11Z</time>
      </trkpt>
      <trkpt lat="45.86084" lon="4.6661">
        <ele>219</ele>
        <time>2016-10-12T14:56:12Z</time>
      </trkpt>
      <trkpt lat="45.86089" lon="4.66608">
        <ele>219</ele>
        <time>2016-10-12T14:56:13Z</time>
      </trkpt>
      <trkpt lat="45.86094" lon="4.66605">
        <ele>219</ele>
        <time>2016-10-12T14:56:14Z</time>
      </trkpt>
      <trkpt lat="45.86099" lon="4.66602">
        <ele>219</ele>
        <time>2016-10-12T14:56:15Z</time>
      </trkpt>
      <trkpt lat="45.86104" lon="4.666">
        <ele>219</ele>
        <time>2016-10-12T14:56:16Z</time>
      </trkpt>
      <trkpt lat="45.86109" lon="4.66598">
        <ele>220</ele>
        <time>2016-10-12T14:56:17Z</time>
      </trkpt>
      <trkpt lat="45.86113" lon="4.66595">
        <ele>220</ele>
        <time>2016-10-12T14:56:18Z</time>
      </trkpt>
      <trkpt lat="45.86119" lon="4.66592">
        <ele>221</ele>
        <time>2016-10-12T14:56:19Z</time>
      </trkpt>
      <trkpt lat="45.86124" lon="4.66588">
        <ele>221</ele>
        <time>2016-10-12T14:56:20Z</time>
      </trkpt>
      <trkpt lat="45.86129" lon="4.66585">
        <ele>222</ele>
        <time>2016-10-12T14:56:21Z</time>
      </trkpt>
      <trkpt lat="45.86134" lon="4.66581">
        <ele>215</ele>
        <time>2016-10-12T14:56:22Z</time>
      </trkpt>
      <trkpt lat="45.86139" lon="4.66578">
        <ele>215</ele>
        <time>2016-10-12T14:56:23Z</time>
      </trkpt>
      <trkpt lat="45.86143" lon="4.66573">
        <ele>216</ele>
        <time>2016-10-12T14:56:24Z</time>
      </trkpt>
      <trkpt lat="45.86147" lon="4.66568">
        <ele>216</ele>
        <time>2016-10-12T14:56:25Z</time>
      </trkpt>
      <trkpt lat="45.86152" lon="4.66562">
        <ele>216</ele>
        <time>2016-10-12T14:56:26Z</time>
      </trkpt>
      <trkpt lat="45.86156" lon="4.66557">
        <ele>215</ele>
        <time>2016-10-12T14:56:27Z</time>
      </trkpt>
      <trkpt lat="45.8616" lon="4.66552">
        <ele>215</ele>
        <time>2016-10-12T14:56:28Z</time>
      </trkpt>
      <trkpt lat="45.86165" lon="4.66547">
        <ele>215</ele>
        <time>2016-10-12T14:56:29Z</time>
      </trkpt>
      <trkpt lat="45.86169" lon="4.66541">
        <ele>220</ele>
        <time>2016-10-12T14:56:30Z</time>
      </trkpt>
      <trkpt lat="45.86174" lon="4.66534">
        <ele>219</ele>
        <time>2016-10-12T14:56:31Z</time>
      </trkpt>
      <trkpt lat="45.86178" lon="4.66528">
        <ele>218</ele>
        <time>2016-10-12T14:56:32Z</time>
      </trkpt>
      <trkpt lat="45.86182" lon="4.66521">
        <ele>218</ele>
        <time>2016-10-12T14:56:33Z</time>
      </trkpt>
      <trkpt lat="45.86185" lon="4.66513">
        <ele>217</ele>
        <time>2016-10-12T14:56:34Z</time>
      </trkpt>
      <trkpt lat="45.86189" lon="4.66505">
        <ele>217</ele>
        <time>2016-10-12T14:56:35Z</time>
      </trkpt>
      <trkpt lat="45.86193" lon="4.66498">
        <ele>213</ele>
        <time>2016-10-12T14:56:36Z</time>
      </trkpt>
      <trkpt lat="45.86197" lon="4.66491">
        <ele>213</ele>
        <time>2016-10-12T14:56:37Z</time>
      </trkpt>
      <trkpt lat="45.86201" lon="4.66483">
        <ele>213</ele>
        <time>2016-10-12T14:56:38Z</time>
      </trkpt>
      <trkpt lat="45.86204" lon="4.66476">
        <ele>213</ele>
        <time>2016-10-12T14:56:39Z</time>
      </trkpt>
      <trkpt lat="45.86209" lon="4.66469">
        <ele>213</ele>
        <time>2016-10-12T14:56:40Z</time>
      </trkpt>
      <trkpt lat="45.86213" lon="4.66463">
        <ele>214</ele>
        <time>2016-10-12T14:56:41Z</time>
      </trkpt>
      <trkpt lat="45.86217" lon="4.66456">
        <ele>214</ele>
        <time>2016-10-12T14:56:42Z</time>
      </trkpt>
      <trkpt lat="45.8622" lon="4.66448">
        <ele>213</ele>
        <time>2016-10-12T14:56:43Z</time>
      </trkpt>
      <trkpt lat="45.86224" lon="4.66441">
        <ele>213</ele>
        <time>2016-10-12T14:56:44Z</time>
      </trkpt>
      <trkpt lat="45.86227" lon="4.66434">
        <ele>214</ele>
        <time>2016-10-12T14:56:45Z</time>
      </trkpt>
      <trkpt lat="45.86231" lon="4.66428">
        <ele>214</ele>
        <time>2016-10-12T14:56:46Z</time>
      </trkpt>
      <trkpt lat="45.86234" lon="4.66421">
        <ele>214</ele>
        <time>2016-10-12T14:56:47Z</time>
      </trkpt>
      <trkpt lat="45.86237" lon="4.66414">
        <ele>213</ele>
        <time>2016-10-12T14:56:48Z</time>
      </trkpt>
      <trkpt lat="45.86241" lon="4.66408">
        <ele>213</ele>
        <time>2016-10-12T14:56:49Z</time>
      </trkpt>
      <trkpt lat="45.86245" lon="4.664">
        <ele>213</ele>
        <time>2016-10-12T14:56:50Z</time>
      </trkpt>
      <trkpt lat="45.86249" lon="4.66393">
        <ele>212</ele>
        <time>2016-10-12T14:56:51Z</time>
      </trkpt>
      <trkpt lat="45.86252" lon="4.66387">
        <ele>216</ele>
        <time>2016-10-12T14:56:52Z</time>
      </trkpt>
      <trkpt lat="45.86256" lon="4.6638">
        <ele>216</ele>
        <time>2016-10-12T14:56:53Z</time>
      </trkpt>
      <trkpt lat="45.86259" lon="4.66373">
        <ele>216</ele>
        <time>2016-10-12T14:56:54Z</time>
      </trkpt>
      <trkpt lat="45.86263" lon="4.66366">
        <ele>216</ele>
        <time>2016-10-12T14:56:55Z</time>
      </trkpt>
      <trkpt lat="45.86266" lon="4.6636">
        <ele>216</ele>
        <time>2016-10-12T14:56:56Z</time>
      </trkpt>
      <trkpt lat="45.86269" lon="4.66354">
        <ele>216</ele>
        <time>2016-10-12T14:56:57Z</time>
      </trkpt>
      <trkpt lat="45.86273" lon="4.66348">
        <ele>216</ele>
        <time>2016-10-12T14:56:58Z</time>
      </trkpt>
      <trkpt lat="45.86277" lon="4.66342">
        <ele>216</ele>
        <time>2016-10-12T14:56:59Z</time>
      </trkpt>
      <trkpt lat="45.8628" lon="4.66336">
        <ele>216</ele>
        <time>2016-10-12T14:57:00Z</time>
      </trkpt>
      <trkpt lat="45.86283" lon="4.6633">
        <ele>214</ele>
        <time>2016-10-12T14:57:01Z</time>
      </trkpt>
      <trkpt lat="45.86287" lon="4.66323">
        <ele>214</ele>
        <time>2016-10-12T14:57:02Z</time>
      </trkpt>
      <trkpt lat="45.8629" lon="4.66318">
        <ele>214</ele>
        <time>2016-10-12T14:57:03Z</time>
      </trkpt>
      <trkpt lat="45.86295" lon="4.66313">
        <ele>214</ele>
        <time>2016-10-12T14:57:04Z</time>
      </trkpt>
      <trkpt lat="45.863" lon="4.66308">
        <ele>215</ele>
        <time>2016-10-12T14:57:05Z</time>
      </trkpt>
      <trkpt lat="45.86305" lon="4.66302">
        <ele>215</ele>
        <time>2016-10-12T14:57:06Z</time>
      </trkpt>
      <trkpt lat="45.8631" lon="4.66297">
        <ele>215</ele>
        <time>2016-10-12T14:57:07Z</time>
      </trkpt>
      <trkpt lat="45.86314" lon="4.66292">
        <ele>215</ele>
        <time>2016-10-12T14:57:08Z</time>
      </trkpt>
      <trkpt lat="45.86319" lon="4.66287">
        <ele>214</ele>
        <time>2016-10-12T14:57:09Z</time>
      </trkpt>
      <trkpt lat="45.86324" lon="4.66283">
        <ele>214</ele>
        <time>2016-10-12T14:57:10Z</time>
      </trkpt>
      <trkpt lat="45.86328" lon="4.66279">
        <ele>214</ele>
        <time>2016-10-12T14:57:11Z</time>
      </trkpt>
      <trkpt lat="45.86332" lon="4.66274">
        <ele>214</ele>
        <time>2016-10-12T14:57:12Z</time>
      </trkpt>
      <trkpt lat="45.86337" lon="4.66269">
        <ele>217</ele>
        <time>2016-10-12T14:57:13Z</time>
      </trkpt>
      <trkpt lat="45.86341" lon="4.66265">
        <ele>217</ele>
        <time>2016-10-12T14:57:14Z</time>
      </trkpt>
      <trkpt lat="45.86345" lon="4.66261">
        <ele>217</ele>
        <time>2016-10-12T14:57:15Z</time>
      </trkpt>
      <trkpt lat="45.86349" lon="4.66257">
        <ele>217</ele>
        <time>2016-10-12T14:57:16Z</time>
      </trkpt>
      <trkpt lat="45.86354" lon="4.66253">
        <ele>217</ele>
        <time>2016-10-12T14:57:17Z</time>
      </trkpt>
      <trkpt lat="45.86358" lon="4.6625">
        <ele>213</ele>
        <time>2016-10-12T14:57:18Z</time>
      </trkpt>
      <trkpt lat="45.86362" lon="4.66246">
        <ele>213</ele>
        <time>2016-10-12T14:57:19Z</time>
      </trkpt>
      <trkpt lat="45.86368" lon="4.66244">
        <ele>213</ele>
        <time>2016-10-12T14:57:20Z</time>
      </trkpt>
      <trkpt lat="45.86373" lon="4.66241">
        <ele>214</ele>
        <time>2016-10-12T14:57:21Z</time>
      </trkpt>
      <trkpt lat="45.86379" lon="4.66239">
        <ele>214</ele>
        <time>2016-10-12T14:57:22Z</time>
      </trkpt>
      <trkpt lat="45.86384" lon="4.66236">
        <ele>214</ele>
        <time>2016-10-12T14:57:23Z</time>
      </trkpt>
      <trkpt lat="45.8639" lon="4.66234">
        <ele>214</ele>
        <time>2016-10-12T14:57:24Z</time>
      </trkpt>
      <trkpt lat="45.86395" lon="4.66231">
        <ele>215</ele>
        <time>2016-10-12T14:57:25Z</time>
      </trkpt>
      <trkpt lat="45.86401" lon="4.66229">
        <ele>215</ele>
        <time>2016-10-12T14:57:26Z</time>
      </trkpt>
      <trkpt lat="45.86407" lon="4.66228">
        <ele>215</ele>
        <time>2016-10-12T14:57:27Z</time>
      </trkpt>
      <trkpt lat="45.86412" lon="4.66226">
        <ele>215</ele>
        <time>2016-10-12T14:57:28Z</time>
      </trkpt>
      <trkpt lat="45.86417" lon="4.66225">
        <ele>218</ele>
        <time>2016-10-12T14:57:29Z</time>
      </trkpt>
      <trkpt lat="45.86422" lon="4.66224">
        <ele>218</ele>
        <time>2016-10-12T14:57:30Z</time>
      </trkpt>
      <trkpt lat="45.86427" lon="4.66223">
        <ele>218</ele>
        <time>2016-10-12T14:57:31Z</time>
      </trkpt>
      <trkpt lat="45.86432" lon="4.66223">
        <ele>218</ele>
        <time>2016-10-12T14:57:32Z</time>
      </trkpt>
      <trkpt lat="45.86437" lon="4.66221">
        <ele>218</ele>
        <time>2016-10-12T14:57:33Z</time>
      </trkpt>
      <trkpt lat="45.86443" lon="4.66219">
        <ele>218</ele>
        <time>2016-10-12T14:57:34Z</time>
      </trkpt>
      <trkpt lat="45.86448" lon="4.66218">
        <ele>218</ele>
        <time>2016-10-12T14:57:35Z</time>
      </trkpt>
      <trkpt lat="45.86454" lon="4.66216">
        <ele>218</ele>
        <time>2016-10-12T14:57:36Z</time>
      </trkpt>
      <trkpt lat="45.86458" lon="4.66215">
        <ele>218</ele>
        <time>2016-10-12T14:57:37Z</time>
      </trkpt>
      <trkpt lat="45.86463" lon="4.66214">
        <ele>218</ele>
        <time>2016-10-12T14:57:38Z</time>
      </trkpt>
      <trkpt lat="45.86468" lon="4.66212">
        <ele>218</ele>
        <time>2016-10-12T14:57:39Z</time>
      </trkpt>
      <trkpt lat="45.86472" lon="4.6621">
        <ele>218</ele>
        <time>2016-10-12T14:57:40Z</time>
      </trkpt>
      <trkpt lat="45.86477" lon="4.66208">
        <ele>218</ele>
        <time>2016-10-12T14:57:41Z</time>
      </trkpt>
      <trkpt lat="45.86481" lon="4.66206">
        <ele>218</ele>
        <time>2016-10-12T14:57:42Z</time>
      </trkpt>
      <trkpt lat="45.86486" lon="4.66205">
        <ele>218</ele>
        <time>2016-10-12T14:57:43Z</time>
      </trkpt>
      <trkpt lat="45.8649" lon="4.66203">
        <ele>218</ele>
        <time>2016-10-12T14:57:44Z</time>
      </trkpt>
      <trkpt lat="45.86495" lon="4.66201">
        <ele>218</ele>
        <time>2016-10-12T14:57:45Z</time>
      </trkpt>
      <trkpt lat="45.865" lon="4.66198">
        <ele>218</ele>
        <time>2016-10-12T14:57:46Z</time>
      </trkpt>
      <trkpt lat="45.86505" lon="4.66197">
        <ele>223</ele>
        <time>2016-10-12T14:57:47Z</time>
      </trkpt>
      <trkpt lat="45.86509" lon="4.66195">
        <ele>223</ele>
        <time>2016-10-12T14:57:48Z</time>
      </trkpt>
      <trkpt lat="45.86514" lon="4.66192">
        <ele>223</ele>
        <time>2016-10-12T14:57:49Z</time>
      </trkpt>
      <trkpt lat="45.86519" lon="4.66189">
        <ele>223</ele>
        <time>2016-10-12T14:57:50Z</time>
      </trkpt>
      <trkpt lat="45.86524" lon="4.66185">
        <ele>224</ele>
        <time>2016-10-12T14:57:51Z</time>
      </trkpt>
      <trkpt lat="45.86529" lon="4.66182">
        <ele>224</ele>
        <time>2016-10-12T14:57:52Z</time>
      </trkpt>
      <trkpt lat="45.86533" lon="4.66178">
        <ele>224</ele>
        <time>2016-10-12T14:57:53Z</time>
      </trkpt>
      <trkpt lat="45.86538" lon="4.66175">
        <ele>225</ele>
        <time>2016-10-12T14:57:54Z</time>
      </trkpt>
      <trkpt lat="45.86542" lon="4.66171">
        <ele>225</ele>
        <time>2016-10-12T14:57:55Z</time>
      </trkpt>
      <trkpt lat="45.86547" lon="4.66167">
        <ele>225</ele>
        <time>2016-10-12T14:57:56Z</time>
      </trkpt>
      <trkpt lat="45.86552" lon="4.66163">
        <ele>218</ele>
        <time>2016-10-12T14:57:57Z</time>
      </trkpt>
      <trkpt lat="45.86556" lon="4.6616">
        <ele>219</ele>
        <time>2016-10-12T14:57:58Z</time>
      </trkpt>
      <trkpt lat="45.8656" lon="4.66156">
        <ele>219</ele>
        <time>2016-10-12T14:57:59Z</time>
      </trkpt>
      <trkpt lat="45.86565" lon="4.66152">
        <ele>220</ele>
        <time>2016-10-12T14:58:00Z</time>
      </trkpt>
      <trkpt lat="45.8657" lon="4.66148">
        <ele>220</ele>
        <time>2016-10-12T14:58:01Z</time>
      </trkpt>
      <trkpt lat="45.86574" lon="4.66144">
        <ele>219</ele>
        <time>2016-10-12T14:58:02Z</time>
      </trkpt>
      <trkpt lat="45.86579" lon="4.6614">
        <ele>219</ele>
        <time>2016-10-12T14:58:03Z</time>
      </trkpt>
      <trkpt lat="45.86583" lon="4.66137">
        <ele>218</ele>
        <time>2016-10-12T14:58:04Z</time>
      </trkpt>
      <trkpt lat="45.86588" lon="4.66132">
        <ele>225</ele>
        <time>2016-10-12T14:58:05Z</time>
      </trkpt>
      <trkpt lat="45.86592" lon="4.66128">
        <ele>224</ele>
        <time>2016-10-12T14:58:06Z</time>
      </trkpt>
      <trkpt lat="45.86596" lon="4.66124">
        <ele>224</ele>
        <time>2016-10-12T14:58:07Z</time>
      </trkpt>
      <trkpt lat="45.866" lon="4.6612">
        <ele>223</ele>
        <time>2016-10-12T14:58:08Z</time>
      </trkpt>
      <trkpt lat="45.86605" lon="4.66116">
        <ele>223</ele>
        <time>2016-10-12T14:58:09Z</time>
      </trkpt>
      <trkpt lat="45.8661" lon="4.66113">
        <ele>223</ele>
        <time>2016-10-12T14:58:10Z</time>
      </trkpt>
      <trkpt lat="45.86614" lon="4.66111">
        <ele>223</ele>
        <time>2016-10-12T14:58:11Z</time>
      </trkpt>
      <trkpt lat="45.86619" lon="4.66108">
        <ele>223</ele>
        <time>2016-10-12T14:58:12Z</time>
      </trkpt>
      <trkpt lat="45.86624" lon="4.66105">
        <ele>223</ele>
        <time>2016-10-12T14:58:13Z</time>
      </trkpt>
      <trkpt lat="45.86629" lon="4.66103">
        <ele>223</ele>
        <time>2016-10-12T14:58:14Z</time>
      </trkpt>
      <trkpt lat="45.86634" lon="4.66101">
        <ele>223</ele>
        <time>2016-10-12T14:58:15Z</time>
      </trkpt>
      <trkpt lat="45.86639" lon="4.66098">
        <ele>223</ele>
        <time>2016-10-12T14:58:16Z</time>
      </trkpt>
      <trkpt lat="45.86644" lon="4.66096">
        <ele>223</ele>
        <time>2016-10-12T14:58:17Z</time>
      </trkpt>
      <trkpt lat="45.8665" lon="4.66094">
        <ele>223</ele>
        <time>2016-10-12T14:58:18Z</time>
      </trkpt>
      <trkpt lat="45.86654" lon="4.66093">
        <ele>222</ele>
        <time>2016-10-12T14:58:19Z</time>
      </trkpt>
      <trkpt lat="45.86659" lon="4.66091">
        <ele>222</ele>
        <time>2016-10-12T14:58:20Z</time>
      </trkpt>
      <trkpt lat="45.86664" lon="4.66089">
        <ele>221</ele>
        <time>2016-10-12T14:58:21Z</time>
      </trkpt>
      <trkpt lat="45.86669" lon="4.66087">
        <ele>222</ele>
        <time>2016-10-12T14:58:22Z</time>
      </trkpt>
      <trkpt lat="45.86673" lon="4.66085">
        <ele>224</ele>
        <time>2016-10-12T14:58:23Z</time>
      </trkpt>
      <trkpt lat="45.86678" lon="4.66083">
        <ele>220</ele>
        <time>2016-10-12T14:58:24Z</time>
      </trkpt>
      <trkpt lat="45.86683" lon="4.6608">
        <ele>221</ele>
        <time>2016-10-12T14:58:25Z</time>
      </trkpt>
      <trkpt lat="45.86687" lon="4.66078">
        <ele>221</ele>
        <time>2016-10-12T14:58:26Z</time>
      </trkpt>
      <trkpt lat="45.86692" lon="4.66076">
        <ele>222</ele>
        <time>2016-10-12T14:58:27Z</time>
      </trkpt>
      <trkpt lat="45.86697" lon="4.66074">
        <ele>222</ele>
        <time>2016-10-12T14:58:28Z</time>
      </trkpt>
      <trkpt lat="45.86702" lon="4.66071">
        <ele>223</ele>
        <time>2016-10-12T14:58:29Z</time>
      </trkpt>
      <trkpt lat="45.86706" lon="4.66068">
        <ele>223</ele>
        <time>2016-10-12T14:58:30Z</time>
      </trkpt>
      <trkpt lat="45.86711" lon="4.66065">
        <ele>224</ele>
        <time>2016-10-12T14:58:31Z</time>
      </trkpt>
      <trkpt lat="45.86716" lon="4.66062">
        <ele>224</ele>
        <time>2016-10-12T14:58:32Z</time>
      </trkpt>
      <trkpt lat="45.86722" lon="4.66058">
        <ele>225</ele>
        <time>2016-10-12T14:58:33Z</time>
      </trkpt>
      <trkpt lat="45.86727" lon="4.66056">
        <ele>225</ele>
        <time>2016-10-12T14:58:34Z</time>
      </trkpt>
      <trkpt lat="45.86732" lon="4.66054">
        <ele>225</ele>
        <time>2016-10-12T14:58:35Z</time>
      </trkpt>
      <trkpt lat="45.86737" lon="4.66051">
        <ele>225</ele>
        <time>2016-10-12T14:58:36Z</time>
      </trkpt>
      <trkpt lat="45.86741" lon="4.66047">
        <ele>225</ele>
        <time>2016-10-12T14:58:37Z</time>
      </trkpt>
      <trkpt lat="45.86746" lon="4.66042">
        <ele>224</ele>
        <time>2016-10-12T14:58:38Z</time>
      </trkpt>
      <trkpt lat="45.8675" lon="4.66038">
        <ele>233</ele>
        <time>2016-10-12T14:58:39Z</time>
      </trkpt>
      <trkpt lat="45.86755" lon="4.66034">
        <ele>232</ele>
        <time>2016-10-12T14:58:40Z</time>
      </trkpt>
      <trkpt lat="45.8676" lon="4.66029">
        <ele>231</ele>
        <time>2016-10-12T14:58:41Z</time>
      </trkpt>
      <trkpt lat="45.86764" lon="4.66025">
        <ele>231</ele>
        <time>2016-10-12T14:58:42Z</time>
      </trkpt>
      <trkpt lat="45.86768" lon="4.6602">
        <ele>230</ele>
        <time>2016-10-12T14:58:43Z</time>
      </trkpt>
      <trkpt lat="45.86772" lon="4.66016">
        <ele>230</ele>
        <time>2016-10-12T14:58:44Z</time>
      </trkpt>
      <trkpt lat="45.86775" lon="4.66011">
        <ele>230</ele>
        <time>2016-10-12T14:58:45Z</time>
      </trkpt>
      <trkpt lat="45.86779" lon="4.66007">
        <ele>231</ele>
        <time>2016-10-12T14:58:46Z</time>
      </trkpt>
      <trkpt lat="45.86783" lon="4.66003">
        <ele>231</ele>
        <time>2016-10-12T14:58:47Z</time>
      </trkpt>
      <trkpt lat="45.86787" lon="4.65998">
        <ele>222</ele>
        <time>2016-10-12T14:58:48Z</time>
      </trkpt>
      <trkpt lat="45.86791" lon="4.65993">
        <ele>223</ele>
        <time>2016-10-12T14:58:49Z</time>
      </trkpt>
      <trkpt lat="45.86794" lon="4.65988">
        <ele>223</ele>
        <time>2016-10-12T14:58:50Z</time>
      </trkpt>
      <trkpt lat="45.86797" lon="4.65983">
        <ele>223</ele>
        <time>2016-10-12T14:58:51Z</time>
      </trkpt>
      <trkpt lat="45.868" lon="4.65978">
        <ele>223</ele>
        <time>2016-10-12T14:58:52Z</time>
      </trkpt>
      <trkpt lat="45.86804" lon="4.65973">
        <ele>223</ele>
        <time>2016-10-12T14:58:53Z</time>
      </trkpt>
      <trkpt lat="45.86807" lon="4.65967">
        <ele>223</ele>
        <time>2016-10-12T14:58:54Z</time>
      </trkpt>
      <trkpt lat="45.86811" lon="4.65962">
        <ele>223</ele>
        <time>2016-10-12T14:58:55Z</time>
      </trkpt>
      <trkpt lat="45.86814" lon="4.65956">
        <ele>223</ele>
        <time>2016-10-12T14:58:56Z</time>
      </trkpt>
      <trkpt lat="45.86817" lon="4.6595">
        <ele>222</ele>
        <time>2016-10-12T14:58:57Z</time>
      </trkpt>
      <trkpt lat="45.8682" lon="4.65945">
        <ele>222</ele>
        <time>2016-10-12T14:58:58Z</time>
      </trkpt>
      <trkpt lat="45.86823" lon="4.65939">
        <ele>222</ele>
        <time>2016-10-12T14:58:59Z</time>
      </trkpt>
      <trkpt lat="45.86826" lon="4.65933">
        <ele>222</ele>
        <time>2016-10-12T14:59:00Z</time>
      </trkpt>
      <trkpt lat="45.86829" lon="4.65927">
        <ele>221</ele>
        <time>2016-10-12T14:59:01Z</time>
      </trkpt>
      <trkpt lat="45.86832" lon="4.65921">
        <ele>221</ele>
        <time>2016-10-12T14:59:02Z</time>
      </trkpt>
      <trkpt lat="45.86835" lon="4.65915">
        <ele>222</ele>
        <time>2016-10-12T14:59:03Z</time>
      </trkpt>
      <trkpt lat="45.86837" lon="4.65909">
        <ele>223</ele>
        <time>2016-10-12T14:59:04Z</time>
      </trkpt>
      <trkpt lat="45.86841" lon="4.65904">
        <ele>225</ele>
        <time>2016-10-12T14:59:05Z</time>
      </trkpt>
      <trkpt lat="45.86844" lon="4.65899">
        <ele>226</ele>
        <time>2016-10-12T14:59:06Z</time>
      </trkpt>
      <trkpt lat="45.86847" lon="4.65893">
        <ele>226</ele>
        <time>2016-10-12T14:59:07Z</time>
      </trkpt>
      <trkpt lat="45.8685" lon="4.65887">
        <ele>226</ele>
        <time>2016-10-12T14:59:08Z</time>
      </trkpt>
      <trkpt lat="45.86851" lon="4.6588">
        <ele>226</ele>
        <time>2016-10-12T14:59:09Z</time>
      </trkpt>
      <trkpt lat="45.86853" lon="4.65874">
        <ele>226</ele>
        <time>2016-10-12T14:59:10Z</time>
      </trkpt>
      <trkpt lat="45.86856" lon="4.65867">
        <ele>226</ele>
        <time>2016-10-12T14:59:11Z</time>
      </trkpt>
      <trkpt lat="45.86859" lon="4.65861">
        <ele>226</ele>
        <time>2016-10-12T14:59:12Z</time>
      </trkpt>
      <trkpt lat="45.86862" lon="4.65855">
        <ele>226</ele>
        <time>2016-10-12T14:59:13Z</time>
      </trkpt>
      <trkpt lat="45.86864" lon="4.65849">
        <ele>226</ele>
        <time>2016-10-12T14:59:14Z</time>
      </trkpt>
      <trkpt lat="45.86866" lon="4.65843">
        <ele>226</ele>
        <time>2016-10-12T14:59:15Z</time>
      </trkpt>
      <trkpt lat="45.86868" lon="4.65837">
        <ele>226</ele>
        <time>2016-10-12T14:59:16Z</time>
      </trkpt>
      <trkpt lat="45.86871" lon="4.6583">
        <ele>222</ele>
        <time>2016-10-12T14:59:17Z</time>
      </trkpt>
      <trkpt lat="45.86872" lon="4.65822">
        <ele>222</ele>
        <time>2016-10-12T14:59:18Z</time>
      </trkpt>
      <trkpt lat="45.86874" lon="4.65814">
        <ele>222</ele>
        <time>2016-10-12T14:59:19Z</time>
      </trkpt>
      <trkpt lat="45.86875" lon="4.65807">
        <ele>222</ele>
        <time>2016-10-12T14:59:20Z</time>
      </trkpt>
      <trkpt lat="45.86877" lon="4.658">
        <ele>222</ele>
        <time>2016-10-12T14:59:21Z</time>
      </trkpt>
      <trkpt lat="45.86878" lon="4.65794">
        <ele>222</ele>
        <time>2016-10-12T14:59:22Z</time>
      </trkpt>
      <trkpt lat="45.8688" lon="4.65787">
        <ele>222</ele>
        <time>2016-10-12T14:59:23Z</time>
      </trkpt>
      <trkpt lat="45.86881" lon="4.6578">
        <ele>223</ele>
        <time>2016-10-12T14:59:24Z</time>
      </trkpt>
      <trkpt lat="45.86882" lon="4.65774">
        <ele>223</ele>
        <time>2016-10-12T14:59:25Z</time>
      </trkpt>
      <trkpt lat="45.86883" lon="4.65767">
        <ele>223</ele>
        <time>2016-10-12T14:59:26Z</time>
      </trkpt>
      <trkpt lat="45.86884" lon="4.6576">
        <ele>223</ele>
        <time>2016-10-12T14:59:27Z</time>
      </trkpt>
      <trkpt lat="45.86885" lon="4.65753">
        <ele>223</ele>
        <time>2016-10-12T14:59:28Z</time>
      </trkpt>
      <trkpt lat="45.86885" lon="4.65746">
        <ele>223</ele>
        <time>2016-10-12T14:59:29Z</time>
      </trkpt>
      <trkpt lat="45.86886" lon="4.65738">
        <ele>223</ele>
        <time>2016-10-12T14:59:30Z</time>
      </trkpt>
      <trkpt lat="45.86887" lon="4.65731">
        <ele>223</ele>
        <time>2016-10-12T14:59:31Z</time>
      </trkpt>
      <trkpt lat="45.86888" lon="4.65724">
        <ele>223</ele>
        <time>2016-10-12T14:59:32Z</time>
      </trkpt>
      <trkpt lat="45.86888" lon="4.65716">
        <ele>222</ele>
        <time>2016-10-12T14:59:33Z</time>
      </trkpt>
      <trkpt lat="45.86889" lon="4.65708">
        <ele>222</ele>
        <time>2016-10-12T14:59:34Z</time>
      </trkpt>
      <trkpt lat="45.86889" lon="4.65702">
        <ele>223</ele>
        <time>2016-10-12T14:59:35Z</time>
      </trkpt>
      <trkpt lat="45.86889" lon="4.65694">
        <ele>223</ele>
        <time>2016-10-12T14:59:36Z</time>
      </trkpt>
      <trkpt lat="45.8689" lon="4.65685">
        <ele>223</ele>
        <time>2016-10-12T14:59:37Z</time>
      </trkpt>
      <trkpt lat="45.86891" lon="4.65675">
        <ele>224</ele>
        <time>2016-10-12T14:59:38Z</time>
      </trkpt>
      <trkpt lat="45.86892" lon="4.65666">
        <ele>224</ele>
        <time>2016-10-12T14:59:39Z</time>
      </trkpt>
      <trkpt lat="45.86892" lon="4.65656">
        <ele>224</ele>
        <time>2016-10-12T14:59:40Z</time>
      </trkpt>
      <trkpt lat="45.86892" lon="4.65645">
        <ele>223</ele>
        <time>2016-10-12T14:59:41Z</time>
      </trkpt>
      <trkpt lat="45.86894" lon="4.65634">
        <ele>223</ele>
        <time>2016-10-12T14:59:42Z</time>
      </trkpt>
      <trkpt lat="45.86896" lon="4.65624">
        <ele>223</ele>
        <time>2016-10-12T14:59:43Z</time>
      </trkpt>
      <trkpt lat="45.86898" lon="4.65615">
        <ele>223</ele>
        <time>2016-10-12T14:59:44Z</time>
      </trkpt>
      <trkpt lat="45.869" lon="4.65605">
        <ele>223</ele>
        <time>2016-10-12T14:59:45Z</time>
      </trkpt>
      <trkpt lat="45.86902" lon="4.65595">
        <ele>223</ele>
        <time>2016-10-12T14:59:46Z</time>
      </trkpt>
      <trkpt lat="45.86904" lon="4.65585">
        <ele>224</ele>
        <time>2016-10-12T14:59:47Z</time>
      </trkpt>
      <trkpt lat="45.86907" lon="4.65576">
        <ele>222</ele>
        <time>2016-10-12T14:59:48Z</time>
      </trkpt>
      <trkpt lat="45.86909" lon="4.65566">
        <ele>221</ele>
        <time>2016-10-12T14:59:49Z</time>
      </trkpt>
      <trkpt lat="45.86912" lon="4.65558">
        <ele>220</ele>
        <time>2016-10-12T14:59:50Z</time>
      </trkpt>
      <trkpt lat="45.86915" lon="4.65549">
        <ele>219</ele>
        <time>2016-10-12T14:59:51Z</time>
      </trkpt>
      <trkpt lat="45.86919" lon="4.6554">
        <ele>229</ele>
        <time>2016-10-12T14:59:52Z</time>
      </trkpt>
      <trkpt lat="45.86922" lon="4.65531">
        <ele>228</ele>
        <time>2016-10-12T14:59:53Z</time>
      </trkpt>
      <trkpt lat="45.86925" lon="4.65522">
        <ele>227</ele>
        <time>2016-10-12T14:59:54Z</time>
      </trkpt>
      <trkpt lat="45.86929" lon="4.65514">
        <ele>226</ele>
        <time>2016-10-12T14:59:55Z</time>
      </trkpt>
      <trkpt lat="45.86933" lon="4.65506">
        <ele>226</ele>
        <time>2016-10-12T14:59:56Z</time>
      </trkpt>
      <trkpt lat="45.86937" lon="4.65498">
        <ele>221</ele>
        <time>2016-10-12T14:59:57Z</time>
      </trkpt>
      <trkpt lat="45.86942" lon="4.6549">
        <ele>221</ele>
        <time>2016-10-12T14:59:58Z</time>
      </trkpt>
      <trkpt lat="45.86947" lon="4.65483">
        <ele>222</ele>
        <time>2016-10-12T14:59:59Z</time>
      </trkpt>
      <trkpt lat="45.86951" lon="4.65476">
        <ele>222</ele>
        <time>2016-10-12T15:00:00Z</time>
      </trkpt>
      <trkpt lat="45.86956" lon="4.65468">
        <ele>222</ele>
        <time>2016-10-12T15:00:01Z</time>
      </trkpt>
      <trkpt lat="45.86961" lon="4.65461">
        <ele>222</ele>
        <time>2016-10-12T15:00:02Z</time>
      </trkpt>
      <trkpt lat="45.86966" lon="4.65454">
        <ele>222</ele>
        <time>2016-10-12T15:00:03Z</time>
      </trkpt>
      <trkpt lat="45.86972" lon="4.65448">
        <ele>222</ele>
        <time>2016-10-12T15:00:04Z</time>
      </trkpt>
      <trkpt lat="45.86977" lon="4.65443">
        <ele>222</ele>
        <time>2016-10-12T15:00:05Z</time>
      </trkpt>
      <trkpt lat="45.86981" lon="4.65436">
        <ele>222</ele>
        <time>2016-10-12T15:00:06Z</time>
      </trkpt>
      <trkpt lat="45.86986" lon="4.65429">
        <ele>222</ele>
        <time>2016-10-12T15:00:07Z</time>
      </trkpt>
      <trkpt lat="45.86991" lon="4.65423">
        <ele>221</ele>
        <time>2016-10-12T15:00:08Z</time>
      </trkpt>
      <trkpt lat="45.86996" lon="4.65417">
        <ele>221</ele>
        <time>2016-10-12T15:00:09Z</time>
      </trkpt>
      <trkpt lat="45.87" lon="4.65412">
        <ele>222</ele>
        <time>2016-10-12T15:00:10Z</time>
      </trkpt>
      <trkpt lat="45.87005" lon="4.65408">
        <ele>222</ele>
        <time>2016-10-12T15:00:11Z</time>
      </trkpt>
      <trkpt lat="45.8701" lon="4.65402">
        <ele>223</ele>
        <time>2016-10-12T15:00:12Z</time>
      </trkpt>
      <trkpt lat="45.87014" lon="4.65397">
        <ele>223</ele>
        <time>2016-10-12T15:00:13Z</time>
      </trkpt>
      <trkpt lat="45.87018" lon="4.6539">
        <ele>223</ele>
        <time>2016-10-12T15:00:14Z</time>
      </trkpt>
      <trkpt lat="45.87022" lon="4.65383">
        <ele>223</ele>
        <time>2016-10-12T15:00:15Z</time>
      </trkpt>
      <trkpt lat="45.87026" lon="4.65378">
        <ele>223</ele>
        <time>2016-10-12T15:00:16Z</time>
      </trkpt>
      <trkpt lat="45.87031" lon="4.65372">
        <ele>223</ele>
        <time>2016-10-12T15:00:17Z</time>
      </trkpt>
      <trkpt lat="45.87036" lon="4.65365">
        <ele>223</ele>
        <time>2016-10-12T15:00:18Z</time>
      </trkpt>
      <trkpt lat="45.87041" lon="4.65359">
        <ele>223</ele>
        <time>2016-10-12T15:00:19Z</time>
      </trkpt>
      <trkpt lat="45.87045" lon="4.65353">
        <ele>223</ele>
        <time>2016-10-12T15:00:20Z</time>
      </trkpt>
      <trkpt lat="45.8705" lon="4.65348">
        <ele>223</ele>
        <time>2016-10-12T15:00:21Z</time>
      </trkpt>
      <trkpt lat="45.87054" lon="4.65342">
        <ele>224</ele>
        <time>2016-10-12T15:00:22Z</time>
      </trkpt>
      <trkpt lat="45.87058" lon="4.65334">
        <ele>224</ele>
        <time>2016-10-12T15:00:23Z</time>
      </trkpt>
      <trkpt lat="45.87061" lon="4.65327">
        <ele>219</ele>
        <time>2016-10-12T15:00:24Z</time>
      </trkpt>
      <trkpt lat="45.87065" lon="4.65319">
        <ele>218</ele>
        <time>2016-10-12T15:00:25Z</time>
      </trkpt>
      <trkpt lat="45.87068" lon="4.65311">
        <ele>218</ele>
        <time>2016-10-12T15:00:26Z</time>
      </trkpt>
      <trkpt lat="45.87071" lon="4.65304">
        <ele>217</ele>
        <time>2016-10-12T15:00:27Z</time>
      </trkpt>
      <trkpt lat="45.87075" lon="4.65297">
        <ele>217</ele>
        <time>2016-10-12T15:00:28Z</time>
      </trkpt>
      <trkpt lat="45.87078" lon="4.65289">
        <ele>216</ele>
        <time>2016-10-12T15:00:29Z</time>
      </trkpt>
      <trkpt lat="45.87081" lon="4.65281">
        <ele>216</ele>
        <time>2016-10-12T15:00:30Z</time>
      </trkpt>
      <trkpt lat="45.87084" lon="4.65274">
        <ele>224</ele>
        <time>2016-10-12T15:00:31Z</time>
      </trkpt>
      <trkpt lat="45.87087" lon="4.65267">
        <ele>222</ele>
        <time>2016-10-12T15:00:32Z</time>
      </trkpt>
      <trkpt lat="45.8709" lon="4.65259">
        <ele>220</ele>
        <time>2016-10-12T15:00:33Z</time>
      </trkpt>
      <trkpt lat="45.87094" lon="4.65251">
        <ele>220</ele>
        <time>2016-10-12T15:00:34Z</time>
      </trkpt>
      <trkpt lat="45.87098" lon="4.65244">
        <ele>217</ele>
        <time>2016-10-12T15:00:35Z</time>
      </trkpt>
      <trkpt lat="45.87101" lon="4.65237">
        <ele>218</ele>
        <time>2016-10-12T15:00:36Z</time>
      </trkpt>
      <trkpt lat="45.87106" lon="4.65229">
        <ele>219</ele>
        <time>2016-10-12T15:00:37Z</time>
      </trkpt>
      <trkpt lat="45.8711" lon="4.65223">
        <ele>219</ele>
        <time>2016-10-12T15:00:38Z</time>
      </trkpt>
      <trkpt lat="45.87115" lon="4.65216">
        <ele>220</ele>
        <time>2016-10-12T15:00:39Z</time>
      </trkpt>
      <trkpt lat="45.87119" lon="4.6521">
        <ele>220</ele>
        <time>2016-10-12T15:00:40Z</time>
      </trkpt>
      <trkpt lat="45.87124" lon="4.65204">
        <ele>220</ele>
        <time>2016-10-12T15:00:41Z</time>
      </trkpt>
      <trkpt lat="45.87129" lon="4.65197">
        <ele>220</ele>
        <time>2016-10-12T15:00:42Z</time>
      </trkpt>
      <trkpt lat="45.87134" lon="4.6519">
        <ele>220</ele>
        <time>2016-10-12T15:00:43Z</time>
      </trkpt>
      <trkpt lat="45.87138" lon="4.65184">
        <ele>220</ele>
        <time>2016-10-12T15:00:44Z</time>
      </trkpt>
      <trkpt lat="45.87144" lon="4.65179">
        <ele>220</ele>
        <time>2016-10-12T15:00:45Z</time>
      </trkpt>
      <trkpt lat="45.87149" lon="4.65174">
        <ele>220</ele>
        <time>2016-10-12T15:00:46Z</time>
      </trkpt>
      <trkpt lat="45.87154" lon="4.6517">
        <ele>220</ele>
        <time>2016-10-12T15:00:47Z</time>
      </trkpt>
      <trkpt lat="45.87159" lon="4.65166">
        <ele>218</ele>
        <time>2016-10-12T15:00:48Z</time>
      </trkpt>
      <trkpt lat="45.87164" lon="4.65162">
        <ele>218</ele>
        <time>2016-10-12T15:00:49Z</time>
      </trkpt>
      <trkpt lat="45.8717" lon="4.65158">
        <ele>221</ele>
        <time>2016-10-12T15:00:50Z</time>
      </trkpt>
      <trkpt lat="45.87174" lon="4.65154">
        <ele>221</ele>
        <time>2016-10-12T15:00:51Z</time>
      </trkpt>
      <trkpt lat="45.87179" lon="4.6515">
        <ele>221</ele>
        <time>2016-10-12T15:00:52Z</time>
      </trkpt>
      <trkpt lat="45.87184" lon="4.65145">
        <ele>221</ele>
        <time>2016-10-12T15:00:53Z</time>
      </trkpt>
      <trkpt lat="45.87189" lon="4.6514">
        <ele>222</ele>
        <time>2016-10-12T15:00:54Z</time>
      </trkpt>
      <trkpt lat="45.87194" lon="4.65135">
        <ele>222</ele>
        <time>2016-10-12T15:00:55Z</time>
      </trkpt>
      <trkpt lat="45.872" lon="4.65131">
        <ele>222</ele>
        <time>2016-10-12T15:00:56Z</time>
      </trkpt>
      <trkpt lat="45.87205" lon="4.65126">
        <ele>222</ele>
        <time>2016-10-12T15:00:57Z</time>
      </trkpt>
      <trkpt lat="45.8721" lon="4.65122">
        <ele>222</ele>
        <time>2016-10-12T15:00:58Z</time>
      </trkpt>
      <trkpt lat="45.87215" lon="4.65116">
        <ele>222</ele>
        <time>2016-10-12T15:00:59Z</time>
      </trkpt>
      <trkpt lat="45.87219" lon="4.65111">
        <ele>221</ele>
        <time>2016-10-12T15:01:00Z</time>
      </trkpt>
      <trkpt lat="45.87224" lon="4.65107">
        <ele>221</ele>
        <time>2016-10-12T15:01:01Z</time>
      </trkpt>
      <trkpt lat="45.87229" lon="4.65102">
        <ele>221</ele>
        <time>2016-10-12T15:01:02Z</time>
      </trkpt>
      <trkpt lat="45.87234" lon="4.65098">
        <ele>221</ele>
        <time>2016-10-12T15:01:03Z</time>
      </trkpt>
      <trkpt lat="45.87238" lon="4.65094">
        <ele>220</ele>
        <time>2016-10-12T15:01:04Z</time>
      </trkpt>
      <trkpt lat="45.87244" lon="4.65091">
        <ele>219</ele>
        <time>2016-10-12T15:01:05Z</time>
      </trkpt>
      <trkpt lat="45.87248" lon="4.65087">
        <ele>219</ele>
        <time>2016-10-12T15:01:06Z</time>
      </trkpt>
      <trkpt lat="45.87253" lon="4.65082">
        <ele>218</ele>
        <time>2016-10-12T15:01:07Z</time>
      </trkpt>
      <trkpt lat="45.87259" lon="4.65077">
        <ele>219</ele>
        <time>2016-10-12T15:01:08Z</time>
      </trkpt>
      <trkpt lat="45.87263" lon="4.65072">
        <ele>219</ele>
        <time>2016-10-12T15:01:09Z</time>
      </trkpt>
      <trkpt lat="45.87268" lon="4.65067">
        <ele>219</ele>
        <time>2016-10-12T15:01:10Z</time>
      </trkpt>
      <trkpt lat="45.87273" lon="4.65061">
        <ele>219</ele>
        <time>2016-10-12T15:01:11Z</time>
      </trkpt>
      <trkpt lat="45.87277" lon="4.65056">
        <ele>220</ele>
        <time>2016-10-12T15:01:12Z</time>
      </trkpt>
      <trkpt lat="45.87282" lon="4.65051">
        <ele>220</ele>
        <time>2016-10-12T15:01:13Z</time>
      </trkpt>
      <trkpt lat="45.87287" lon="4.65047">
        <ele>220</ele>
        <time>2016-10-12T15:01:14Z</time>
      </trkpt>
      <trkpt lat="45.87291" lon="4.65042">
        <ele>220</ele>
        <time>2016-10-12T15:01:15Z</time>
      </trkpt>
      <trkpt lat="45.87295" lon="4.65037">
        <ele>220</ele>
        <time>2016-10-12T15:01:16Z</time>
      </trkpt>
      <trkpt lat="45.87299" lon="4.65032">
        <ele>220</ele>
        <time>2016-10-12T15:01:17Z</time>
      </trkpt>
      <trkpt lat="45.87303" lon="4.65027">
        <ele>219</ele>
        <time>2016-10-12T15:01:18Z</time>
      </trkpt>
      <trkpt lat="45.87306" lon="4.65022">
        <ele>219</ele>
        <time>2016-10-12T15:01:19Z</time>
      </trkpt>
      <trkpt lat="45.8731" lon="4.65015">
        <ele>219</ele>
        <time>2016-10-12T15:01:20Z</time>
      </trkpt>
      <trkpt lat="45.87313" lon="4.65008">
        <ele>219</ele>
        <time>2016-10-12T15:01:21Z</time>
      </trkpt>
      <trkpt lat="45.87317" lon="4.65001">
        <ele>219</ele>
        <time>2016-10-12T15:01:22Z</time>
      </trkpt>
      <trkpt lat="45.8732" lon="4.64994">
        <ele>216</ele>
        <time>2016-10-12T15:01:23Z</time>
      </trkpt>
      <trkpt lat="45.87323" lon="4.64987">
        <ele>215</ele>
        <time>2016-10-12T15:01:24Z</time>
      </trkpt>
      <trkpt lat="45.87327" lon="4.6498">
        <ele>215</ele>
        <time>2016-10-12T15:01:25Z</time>
      </trkpt>
      <trkpt lat="45.8733" lon="4.64973">
        <ele>215</ele>
        <time>2016-10-12T15:01:26Z</time>
      </trkpt>
      <trkpt lat="45.87333" lon="4.64967">
        <ele>214</ele>
        <time>2016-10-12T15:01:27Z</time>
      </trkpt>
      <trkpt lat="45.87337" lon="4.6496">
        <ele>218</ele>
        <time>2016-10-12T15:01:28Z</time>
      </trkpt>
      <trkpt lat="45.8734" lon="4.64953">
        <ele>218</ele>
        <time>2016-10-12T15:01:29Z</time>
      </trkpt>
      <trkpt lat="45.87344" lon="4.64947">
        <ele>218</ele>
        <time>2016-10-12T15:01:30Z</time>
      </trkpt>
      <trkpt lat="45.87347" lon="4.6494">
        <ele>217</ele>
        <time>2016-10-12T15:01:31Z</time>
      </trkpt>
      <trkpt lat="45.87351" lon="4.64933">
        <ele>217</ele>
        <time>2016-10-12T15:01:32Z</time>
      </trkpt>
      <trkpt lat="45.87355" lon="4.64926">
        <ele>217</ele>
        <time>2016-10-12T15:01:33Z</time>
      </trkpt>
      <trkpt lat="45.87359" lon="4.6492">
        <ele>217</ele>
        <time>2016-10-12T15:01:34Z</time>
      </trkpt>
      <trkpt lat="45.87363" lon="4.64914">
        <ele>214</ele>
        <time>2016-10-12T15:01:35Z</time>
      </trkpt>
      <trkpt lat="45.87367" lon="4.64907">
        <ele>214</ele>
        <time>2016-10-12T15:01:36Z</time>
      </trkpt>
      <trkpt lat="45.87371" lon="4.64902">
        <ele>215</ele>
        <time>2016-10-12T15:01:37Z</time>
      </trkpt>
      <trkpt lat="45.87376" lon="4.64896">
        <ele>215</ele>
        <time>2016-10-12T15:01:38Z</time>
      </trkpt>
      <trkpt lat="45.8738" lon="4.64891">
        <ele>215</ele>
        <time>2016-10-12T15:01:39Z</time>
      </trkpt>
      <trkpt lat="45.87384" lon="4.64886">
        <ele>215</ele>
        <time>2016-10-12T15:01:40Z</time>
      </trkpt>
      <trkpt lat="45.87389" lon="4.64881">
        <ele>215</ele>
        <time>2016-10-12T15:01:41Z</time>
      </trkpt>
      <trkpt lat="45.87393" lon="4.64875">
        <ele>215</ele>
        <time>2016-10-12T15:01:42Z</time>
      </trkpt>
      <trkpt lat="45.87397" lon="4.6487">
        <ele>215</ele>
        <time>2016-10-12T15:01:43Z</time>
      </trkpt>
      <trkpt lat="45.87401" lon="4.64866">
        <ele>215</ele>
        <time>2016-10-12T15:01:44Z</time>
      </trkpt>
      <trkpt lat="45.87406" lon="4.64863">
        <ele>215</ele>
        <time>2016-10-12T15:01:45Z</time>
      </trkpt>
      <trkpt lat="45.8741" lon="4.64859">
        <ele>215</ele>
        <time>2016-10-12T15:01:46Z</time>
      </trkpt>
      <trkpt lat="45.87415" lon="4.64854">
        <ele>215</ele>
        <time>2016-10-12T15:01:47Z</time>
      </trkpt>
      <trkpt lat="45.87419" lon="4.64849">
        <ele>218</ele>
        <time>2016-10-12T15:01:48Z</time>
      </trkpt>
      <trkpt lat="45.87423" lon="4.64844">
        <ele>218</ele>
        <time>2016-10-12T15:01:49Z</time>
      </trkpt>
      <trkpt lat="45.87428" lon="4.64839">
        <ele>218</ele>
        <time>2016-10-12T15:01:50Z</time>
      </trkpt>
      <trkpt lat="45.87432" lon="4.64833">
        <ele>215</ele>
        <time>2016-10-12T15:01:51Z</time>
      </trkpt>
      <trkpt lat="45.87435" lon="4.64827">
        <ele>215</ele>
        <time>2016-10-12T15:01:52Z</time>
      </trkpt>
      <trkpt lat="45.87439" lon="4.64822">
        <ele>215</ele>
        <time>2016-10-12T15:01:53Z</time>
      </trkpt>
      <trkpt lat="45.87443" lon="4.64817">
        <ele>215</ele>
        <time>2016-10-12T15:01:54Z</time>
      </trkpt>
      <trkpt lat="45.87447" lon="4.64812">
        <ele>215</ele>
        <time>2016-10-12T15:01:55Z</time>
      </trkpt>
      <trkpt lat="45.87451" lon="4.64807">
        <ele>215</ele>
        <time>2016-10-12T15:01:56Z</time>
      </trkpt>
      <trkpt lat="45.87455" lon="4.64802">
        <ele>214</ele>
        <time>2016-10-12T15:01:57Z</time>
      </trkpt>
      <trkpt lat="45.87459" lon="4.64796">
        <ele>214</ele>
        <time>2016-10-12T15:01:58Z</time>
      </trkpt>
      <trkpt lat="45.87464" lon="4.64791">
        <ele>214</ele>
        <time>2016-10-12T15:01:59Z</time>
      </trkpt>
      <trkpt lat="45.87467" lon="4.64786">
        <ele>214</ele>
        <time>2016-10-12T15:02:00Z</time>
      </trkpt>
      <trkpt lat="45.87471" lon="4.6478">
        <ele>214</ele>
        <time>2016-10-12T15:02:01Z</time>
      </trkpt>
      <trkpt lat="45.87475" lon="4.64774">
        <ele>214</ele>
        <time>2016-10-12T15:02:02Z</time>
      </trkpt>
      <trkpt lat="45.87479" lon="4.64769">
        <ele>214</ele>
        <time>2016-10-12T15:02:03Z</time>
      </trkpt>
      <trkpt lat="45.87483" lon="4.64763">
        <ele>214</ele>
        <time>2016-10-12T15:02:04Z</time>
      </trkpt>
      <trkpt lat="45.87487" lon="4.64757">
        <ele>214</ele>
        <time>2016-10-12T15:02:05Z</time>
      </trkpt>
      <trkpt lat="45.8749" lon="4.64754">
        <ele>213</ele>
        <time>2016-10-12T15:02:06Z</time>
      </trkpt>
      <trkpt lat="45.87495" lon="4.6475">
        <ele>213</ele>
        <time>2016-10-12T15:02:07Z</time>
      </trkpt>
      <trkpt lat="45.87499" lon="4.64746">
        <ele>213</ele>
        <time>2016-10-12T15:02:08Z</time>
      </trkpt>
      <trkpt lat="45.87503" lon="4.6474">
        <ele>213</ele>
        <time>2016-10-12T15:02:09Z</time>
      </trkpt>
      <trkpt lat="45.87507" lon="4.64735">
        <ele>213</ele>
        <time>2016-10-12T15:02:10Z</time>
      </trkpt>
      <trkpt lat="45.87511" lon="4.64728">
        <ele>213</ele>
        <time>2016-10-12T15:02:11Z</time>
      </trkpt>
      <trkpt lat="45.87515" lon="4.64723">
        <ele>213</ele>
        <time>2016-10-12T15:02:12Z</time>
      </trkpt>
      <trkpt lat="45.87519" lon="4.64717">
        <ele>212</ele>
        <time>2016-10-12T15:02:13Z</time>
      </trkpt>
      <trkpt lat="45.87523" lon="4.64712">
        <ele>212</ele>
        <time>2016-10-12T15:02:14Z</time>
      </trkpt>
      <trkpt lat="45.87528" lon="4.64705">
        <ele>212</ele>
        <time>2016-10-12T15:02:15Z</time>
      </trkpt>
      <trkpt lat="45.87531" lon="4.64699">
        <ele>212</ele>
        <time>2016-10-12T15:02:16Z</time>
      </trkpt>
      <trkpt lat="45.87536" lon="4.64694">
        <ele>212</ele>
        <time>2016-10-12T15:02:17Z</time>
      </trkpt>
      <trkpt lat="45.8754" lon="4.64688">
        <ele>212</ele>
        <time>2016-10-12T15:02:18Z</time>
      </trkpt>
      <trkpt lat="45.87544" lon="4.64682">
        <ele>212</ele>
        <time>2016-10-12T15:02:19Z</time>
      </trkpt>
      <trkpt lat="45.87548" lon="4.64676">
        <ele>212</ele>
        <time>2016-10-12T15:02:20Z</time>
      </trkpt>
      <trkpt lat="45.87552" lon="4.6467">
        <ele>212</ele>
        <time>2016-10-12T15:02:21Z</time>
      </trkpt>
      <trkpt lat="45.87558" lon="4.64662">
        <ele>212</ele>
        <time>2016-10-12T15:02:23Z</time>
      </trkpt>
      <trkpt lat="45.87561" lon="4.64658">
        <ele>212</ele>
        <time>2016-10-12T15:02:24Z</time>
      </trkpt>
      <trkpt lat="45.87565" lon="4.64653">
        <ele>212</ele>
        <time>2016-10-12T15:02:25Z</time>
      </trkpt>
      <trkpt lat="45.87568" lon="4.64648">
        <ele>212</ele>
        <time>2016-10-12T15:02:26Z</time>
      </trkpt>
      <trkpt lat="45.87572" lon="4.64643">
        <ele>212</ele>
        <time>2016-10-12T15:02:27Z</time>
      </trkpt>
      <trkpt lat="45.87576" lon="4.64637">
        <ele>212</ele>
        <time>2016-10-12T15:02:28Z</time>
      </trkpt>
      <trkpt lat="45.8758" lon="4.64632">
        <ele>212</ele>
        <time>2016-10-12T15:02:29Z</time>
      </trkpt>
      <trkpt lat="45.87584" lon="4.64627">
        <ele>212</ele>
        <time>2016-10-12T15:02:30Z</time>
      </trkpt>
      <trkpt lat="45.87587" lon="4.64623">
        <ele>212</ele>
        <time>2016-10-12T15:02:31Z</time>
      </trkpt>
      <trkpt lat="45.87591" lon="4.64618">
        <ele>212</ele>
        <time>2016-10-12T15:02:32Z</time>
      </trkpt>
      <trkpt lat="45.87596" lon="4.64611">
        <ele>212</ele>
        <time>2016-10-12T15:02:33Z</time>
      </trkpt>
      <trkpt lat="45.87599" lon="4.64607">
        <ele>212</ele>
        <time>2016-10-12T15:02:34Z</time>
      </trkpt>
      <trkpt lat="45.87603" lon="4.64602">
        <ele>212</ele>
        <time>2016-10-12T15:02:35Z</time>
      </trkpt>
      <trkpt lat="45.87607" lon="4.64598">
        <ele>212</ele>
        <time>2016-10-12T15:02:36Z</time>
      </trkpt>
      <trkpt lat="45.87612" lon="4.64591">
        <ele>212</ele>
        <time>2016-10-12T15:02:37Z</time>
      </trkpt>
      <trkpt lat="45.87616" lon="4.64584">
        <ele>212</ele>
        <time>2016-10-12T15:02:38Z</time>
      </trkpt>
      <trkpt lat="45.8762" lon="4.64578">
        <ele>212</ele>
        <time>2016-10-12T15:02:39Z</time>
      </trkpt>
      <trkpt lat="45.87624" lon="4.64574">
        <ele>212</ele>
        <time>2016-10-12T15:02:40Z</time>
      </trkpt>
      <trkpt lat="45.87628" lon="4.6457">
        <ele>212</ele>
        <time>2016-10-12T15:02:41Z</time>
      </trkpt>
      <trkpt lat="45.87632" lon="4.64565">
        <ele>212</ele>
        <time>2016-10-12T15:02:42Z</time>
      </trkpt>
      <trkpt lat="45.87637" lon="4.6456">
        <ele>212</ele>
        <time>2016-10-12T15:02:43Z</time>
      </trkpt>
      <trkpt lat="45.8764" lon="4.64555">
        <ele>212</ele>
        <time>2016-10-12T15:02:44Z</time>
      </trkpt>
      <trkpt lat="45.87645" lon="4.64546">
        <ele>213</ele>
        <time>2016-10-12T15:02:45Z</time>
      </trkpt>
      <trkpt lat="45.87649" lon="4.6454">
        <ele>213</ele>
        <time>2016-10-12T15:02:46Z</time>
      </trkpt>
      <trkpt lat="45.87652" lon="4.64535">
        <ele>213</ele>
        <time>2016-10-12T15:02:47Z</time>
      </trkpt>
      <trkpt lat="45.87654" lon="4.64529">
        <ele>213</ele>
        <time>2016-10-12T15:02:48Z</time>
      </trkpt>
      <trkpt lat="45.87657" lon="4.64525">
        <ele>213</ele>
        <time>2016-10-12T15:02:49Z</time>
      </trkpt>
      <trkpt lat="45.87661" lon="4.6452">
        <ele>213</ele>
        <time>2016-10-12T15:02:50Z</time>
      </trkpt>
      <trkpt lat="45.87665" lon="4.64516">
        <ele>213</ele>
        <time>2016-10-12T15:02:51Z</time>
      </trkpt>
      <trkpt lat="45.8767" lon="4.64511">
        <ele>215</ele>
        <time>2016-10-12T15:02:52Z</time>
      </trkpt>
      <trkpt lat="45.87674" lon="4.64507">
        <ele>215</ele>
        <time>2016-10-12T15:02:53Z</time>
      </trkpt>
      <trkpt lat="45.87678" lon="4.64502">
        <ele>215</ele>
        <time>2016-10-12T15:02:54Z</time>
      </trkpt>
      <trkpt lat="45.87683" lon="4.64496">
        <ele>214</ele>
        <time>2016-10-12T15:02:56Z</time>
      </trkpt>
      <trkpt lat="45.87687" lon="4.64494">
        <ele>214</ele>
        <time>2016-10-12T15:02:57Z</time>
      </trkpt>
      <trkpt lat="45.87693" lon="4.64499">
        <ele>214</ele>
        <time>2016-10-12T15:02:59Z</time>
      </trkpt>
      <trkpt lat="45.87697" lon="4.64504">
        <ele>215</ele>
        <time>2016-10-12T15:03:00Z</time>
      </trkpt>
      <trkpt lat="45.87703" lon="4.64512">
        <ele>215</ele>
        <time>2016-10-12T15:03:02Z</time>
      </trkpt>
      <trkpt lat="45.87706" lon="4.64517">
        <ele>215</ele>
        <time>2016-10-12T15:03:03Z</time>
      </trkpt>
      <trkpt lat="45.87709" lon="4.64523">
        <ele>216</ele>
        <time>2016-10-12T15:03:04Z</time>
      </trkpt>
      <trkpt lat="45.8771" lon="4.6453">
        <ele>216</ele>
        <time>2016-10-12T15:03:05Z</time>
      </trkpt>
      <trkpt lat="45.87712" lon="4.64536">
        <ele>216</ele>
        <time>2016-10-12T15:03:06Z</time>
      </trkpt>
      <trkpt lat="45.87715" lon="4.64542">
        <ele>216</ele>
        <time>2016-10-12T15:03:07Z</time>
      </trkpt>
      <trkpt lat="45.87718" lon="4.64547">
        <ele>216</ele>
        <time>2016-10-12T15:03:08Z</time>
      </trkpt>
      <trkpt lat="45.87721" lon="4.64552">
        <ele>216</ele>
        <time>2016-10-12T15:03:09Z</time>
      </trkpt>
      <trkpt lat="45.87723" lon="4.64559">
        <ele>217</ele>
        <time>2016-10-12T15:03:10Z</time>
      </trkpt>
      <trkpt lat="45.87725" lon="4.64566">
        <ele>217</ele>
        <time>2016-10-12T15:03:11Z</time>
      </trkpt>
      <trkpt lat="45.87727" lon="4.64578">
        <ele>217</ele>
        <time>2016-10-12T15:03:13Z</time>
      </trkpt>
      <trkpt lat="45.87727" lon="4.64584">
        <ele>218</ele>
        <time>2016-10-12T15:03:14Z</time>
      </trkpt>
      <trkpt lat="45.87728" lon="4.64596">
        <ele>218</ele>
        <time>2016-10-12T15:03:16Z</time>
      </trkpt>
      <trkpt lat="45.87728" lon="4.646">
        <ele>217</ele>
        <time>2016-10-12T15:03:17Z</time>
      </trkpt>
      <trkpt lat="45.87728" lon="4.64612">
        <ele>217</ele>
        <time>2016-10-12T15:03:19Z</time>
      </trkpt>
      <trkpt lat="45.87728" lon="4.64617">
        <ele>217</ele>
        <time>2016-10-12T15:03:20Z</time>
      </trkpt>
      <trkpt lat="45.87729" lon="4.64628">
        <ele>217</ele>
        <time>2016-10-12T15:03:22Z</time>
      </trkpt>
      <trkpt lat="45.87728" lon="4.64635">
        <ele>217</ele>
        <time>2016-10-12T15:03:23Z</time>
      </trkpt>
      <trkpt lat="45.87728" lon="4.64642">
        <ele>217</ele>
        <time>2016-10-12T15:03:24Z</time>
      </trkpt>
      <trkpt lat="45.87727" lon="4.64649">
        <ele>217</ele>
        <time>2016-10-12T15:03:25Z</time>
      </trkpt>
      <trkpt lat="45.87728" lon="4.64656">
        <ele>217</ele>
        <time>2016-10-12T15:03:26Z</time>
      </trkpt>
      <trkpt lat="45.87727" lon="4.64663">
        <ele>217</ele>
        <time>2016-10-12T15:03:27Z</time>
      </trkpt>
      <trkpt lat="45.87727" lon="4.6467">
        <ele>216</ele>
        <time>2016-10-12T15:03:28Z</time>
      </trkpt>
      <trkpt lat="45.87726" lon="4.64677">
        <ele>216</ele>
        <time>2016-10-12T15:03:29Z</time>
      </trkpt>
      <trkpt lat="45.87726" lon="4.64684">
        <ele>216</ele>
        <time>2016-10-12T15:03:30Z</time>
      </trkpt>
      <trkpt lat="45.87725" lon="4.64691">
        <ele>216</ele>
        <time>2016-10-12T15:03:31Z</time>
      </trkpt>
      <trkpt lat="45.87725" lon="4.64698">
        <ele>215</ele>
        <time>2016-10-12T15:03:32Z</time>
      </trkpt>
      <trkpt lat="45.87725" lon="4.64705">
        <ele>215</ele>
        <time>2016-10-12T15:03:33Z</time>
      </trkpt>
      <trkpt lat="45.87726" lon="4.64711">
        <ele>215</ele>
        <time>2016-10-12T15:03:34Z</time>
      </trkpt>
      <trkpt lat="45.87727" lon="4.64718">
        <ele>215</ele>
        <time>2016-10-12T15:03:35Z</time>
      </trkpt>
      <trkpt lat="45.87729" lon="4.6473">
        <ele>214</ele>
        <time>2016-10-12T15:03:37Z</time>
      </trkpt>
      <trkpt lat="45.87731" lon="4.64736">
        <ele>214</ele>
        <time>2016-10-12T15:03:38Z</time>
      </trkpt>
      <trkpt lat="45.87734" lon="4.64748">
        <ele>214</ele>
        <time>2016-10-12T15:03:40Z</time>
      </trkpt>
      <trkpt lat="45.87734" lon="4.64753">
        <ele>213</ele>
        <time>2016-10-12T15:03:41Z</time>
      </trkpt>
      <trkpt lat="45.87737" lon="4.64765">
        <ele>213</ele>
        <time>2016-10-12T15:03:43Z</time>
      </trkpt>
      <trkpt lat="45.87739" lon="4.6477">
        <ele>213</ele>
        <time>2016-10-12T15:03:44Z</time>
      </trkpt>
      <trkpt lat="45.87743" lon="4.64781">
        <ele>213</ele>
        <time>2016-10-12T15:03:46Z</time>
      </trkpt>
      <trkpt lat="45.87746" lon="4.64786">
        <ele>213</ele>
        <time>2016-10-12T15:03:47Z</time>
      </trkpt>
      <trkpt lat="45.87749" lon="4.64791">
        <ele>213</ele>
        <time>2016-10-12T15:03:48Z</time>
      </trkpt>
      <trkpt lat="45.87752" lon="4.64796">
        <ele>214</ele>
        <time>2016-10-12T15:03:49Z</time>
      </trkpt>
      <trkpt lat="45.87757" lon="4.64806">
        <ele>214</ele>
        <time>2016-10-12T15:03:51Z</time>
      </trkpt>
      <trkpt lat="45.87759" lon="4.64811">
        <ele>214</ele>
        <time>2016-10-12T15:03:52Z</time>
      </trkpt>
      <trkpt lat="45.87763" lon="4.64821">
        <ele>214</ele>
        <time>2016-10-12T15:03:54Z</time>
      </trkpt>
      <trkpt lat="45.87766" lon="4.64825">
        <ele>214</ele>
        <time>2016-10-12T15:03:55Z</time>
      </trkpt>
      <trkpt lat="45.87771" lon="4.64832">
        <ele>214</ele>
        <time>2016-10-12T15:03:57Z</time>
      </trkpt>
      <trkpt lat="45.87773" lon="4.64835">
        <ele>217</ele>
        <time>2016-10-12T15:03:58Z</time>
      </trkpt>
      <trkpt lat="45.87777" lon="4.64842">
        <ele>217</ele>
        <time>2016-10-12T15:04:00Z</time>
      </trkpt>
      <trkpt lat="45.87778" lon="4.64846">
        <ele>217</ele>
        <time>2016-10-12T15:04:01Z</time>
      </trkpt>
      <trkpt lat="45.87782" lon="4.64854">
        <ele>217</ele>
        <time>2016-10-12T15:04:03Z</time>
      </trkpt>
      <trkpt lat="45.87783" lon="4.64857">
        <ele>218</ele>
        <time>2016-10-12T15:04:04Z</time>
      </trkpt>
      <trkpt lat="45.87788" lon="4.64864">
        <ele>218</ele>
        <time>2016-10-12T15:04:06Z</time>
      </trkpt>
      <trkpt lat="45.8779" lon="4.64867">
        <ele>218</ele>
        <time>2016-10-12T15:04:07Z</time>
      </trkpt>
      <trkpt lat="45.87795" lon="4.64872">
        <ele>218</ele>
        <time>2016-10-12T15:04:09Z</time>
      </trkpt>
      <trkpt lat="45.87797" lon="4.64875">
        <ele>219</ele>
        <time>2016-10-12T15:04:10Z</time>
      </trkpt>
      <trkpt lat="45.87799" lon="4.64885">
        <ele>219</ele>
        <time>2016-10-12T15:04:13Z</time>
      </trkpt>
      <trkpt lat="45.878" lon="4.64888">
        <ele>219</ele>
        <time>2016-10-12T15:04:14Z</time>
      </trkpt>
      <trkpt lat="45.87804" lon="4.64898">
        <ele>219</ele>
        <time>2016-10-12T15:04:18Z</time>
      </trkpt>
      <trkpt lat="45.87805" lon="4.649">
        <ele>220</ele>
        <time>2016-10-12T15:04:19Z</time>
      </trkpt>
      <trkpt lat="45.87807" lon="4.64912">
        <ele>220</ele>
        <time>2016-10-12T15:04:23Z</time>
      </trkpt>
      <trkpt lat="45.87808" lon="4.64914">
        <ele>220</ele>
        <time>2016-10-12T15:04:24Z</time>
      </trkpt>
      <trkpt lat="45.87812" lon="4.64925">
        <ele>224</ele>
        <time>2016-10-12T15:04:28Z</time>
      </trkpt>
      <trkpt lat="45.87813" lon="4.64928">
        <ele>224</ele>
        <time>2016-10-12T15:04:29Z</time>
      </trkpt>
      <trkpt lat="45.87819" lon="4.64938">
        <ele>225</ele>
        <time>2016-10-12T15:04:33Z</time>
      </trkpt>
      <trkpt lat="45.8782" lon="4.6494">
        <ele>225</ele>
        <time>2016-10-12T15:04:34Z</time>
      </trkpt>
      <trkpt lat="45.87826" lon="4.64949">
        <ele>225</ele>
        <time>2016-10-12T15:04:39Z</time>
      </trkpt>
      <trkpt lat="45.87827" lon="4.64951">
        <ele>225</ele>
        <time>2016-10-12T15:04:40Z</time>
      </trkpt>
      <trkpt lat="45.87834" lon="4.64959">
        <ele>228</ele>
        <time>2016-10-12T15:04:45Z</time>
      </trkpt>
      <trkpt lat="45.87836" lon="4.6496">
        <ele>228</ele>
        <time>2016-10-12T15:04:46Z</time>
      </trkpt>
      <trkpt lat="45.87842" lon="4.64969">
        <ele>229</ele>
        <time>2016-10-12T15:04:50Z</time>
      </trkpt>
      <trkpt lat="45.87843" lon="4.64972">
        <ele>229</ele>
        <time>2016-10-12T15:04:51Z</time>
      </trkpt>
      <trkpt lat="45.8785" lon="4.64976">
        <ele>229</ele>
        <time>2016-10-12T15:04:54Z</time>
      </trkpt>
      <trkpt lat="45.87852" lon="4.64977">
        <ele>229</ele>
        <time>2016-10-12T15:04:55Z</time>
      </trkpt>
      <trkpt lat="45.87859" lon="4.64984">
        <ele>230</ele>
        <time>2016-10-12T15:05:00Z</time>
      </trkpt>
      <trkpt lat="45.87862" lon="4.64984">
        <ele>230</ele>
        <time>2016-10-12T15:05:01Z</time>
      </trkpt>
      <trkpt lat="45.8787" lon="4.64986">
        <ele>230</ele>
        <time>2016-10-12T15:05:04Z</time>
      </trkpt>
      <trkpt lat="45.87872" lon="4.64986">
        <ele>230</ele>
        <time>2016-10-12T15:05:05Z</time>
      </trkpt>
      <trkpt lat="45.8788" lon="4.64988">
        <ele>231</ele>
        <time>2016-10-12T15:05:09Z</time>
      </trkpt>
      <trkpt lat="45.87881" lon="4.64989">
        <ele>231</ele>
        <time>2016-10-12T15:05:10Z</time>
      </trkpt>
      <trkpt lat="45.87889" lon="4.64991">
        <ele>232</ele>
        <time>2016-10-12T15:05:14Z</time>
      </trkpt>
      <trkpt lat="45.87891" lon="4.64991">
        <ele>232</ele>
        <time>2016-10-12T15:05:15Z</time>
      </trkpt>
      <trkpt lat="45.879" lon="4.64991">
        <ele>233</ele>
        <time>2016-10-12T15:05:19Z</time>
      </trkpt>
      <trkpt lat="45.87903" lon="4.64991">
        <ele>233</ele>
        <time>2016-10-12T15:05:20Z</time>
      </trkpt>
      <trkpt lat="45.8791" lon="4.6499">
        <ele>234</ele>
        <time>2016-10-12T15:05:23Z</time>
      </trkpt>
      <trkpt lat="45.87913" lon="4.64989">
        <ele>234</ele>
        <time>2016-10-12T15:05:24Z</time>
      </trkpt>
      <trkpt lat="45.8792" lon="4.64987">
        <ele>237</ele>
        <time>2016-10-12T15:05:27Z</time>
      </trkpt>
      <trkpt lat="45.87922" lon="4.64985">
        <ele>237</ele>
        <time>2016-10-12T15:05:28Z</time>
      </trkpt>
      <trkpt lat="45.8793" lon="4.64981">
        <ele>237</ele>
        <time>2016-10-12T15:05:32Z</time>
      </trkpt>
      <trkpt lat="45.87933" lon="4.6498">
        <ele>237</ele>
        <time>2016-10-12T15:05:33Z</time>
      </trkpt>
      <trkpt lat="45.8794" lon="4.64976">
        <ele>237</ele>
        <time>2016-10-12T15:05:36Z</time>
      </trkpt>
      <trkpt lat="45.87943" lon="4.64975">
        <ele>237</ele>
        <time>2016-10-12T15:05:37Z</time>
      </trkpt>
      <trkpt lat="45.87949" lon="4.64972">
        <ele>237</ele>
        <time>2016-10-12T15:05:40Z</time>
      </trkpt>
      <trkpt lat="45.87951" lon="4.6497">
        <ele>237</ele>
        <time>2016-10-12T15:05:41Z</time>
      </trkpt>
      <trkpt lat="45.87958" lon="4.64964">
        <ele>237</ele>
        <time>2016-10-12T15:05:44Z</time>
      </trkpt>
      <trkpt lat="45.8796" lon="4.64963">
        <ele>237</ele>
        <time>2016-10-12T15:05:45Z</time>
      </trkpt>
      <trkpt lat="45.87968" lon="4.64956">
        <ele>237</ele>
        <time>2016-10-12T15:05:49Z</time>
      </trkpt>
      <trkpt lat="45.8797" lon="4.64955">
        <ele>237</ele>
        <time>2016-10-12T15:05:50Z</time>
      </trkpt>
      <trkpt lat="45.87976" lon="4.64949">
        <ele>237</ele>
        <time>2016-10-12T15:05:53Z</time>
      </trkpt>
      <trkpt lat="45.87979" lon="4.64947">
        <ele>237</ele>
        <time>2016-10-12T15:05:54Z</time>
      </trkpt>
      <trkpt lat="45.87986" lon="4.64943">
        <ele>237</ele>
        <time>2016-10-12T15:05:57Z</time>
      </trkpt>
      <trkpt lat="45.87988" lon="4.64941">
        <ele>237</ele>
        <time>2016-10-12T15:05:58Z</time>
      </trkpt>
      <trkpt lat="45.87995" lon="4.64936">
        <ele>237</ele>
        <time>2016-10-12T15:06:01Z</time>
      </trkpt>
      <trkpt lat="45.87997" lon="4.64934">
        <ele>236</ele>
        <time>2016-10-12T15:06:02Z</time>
      </trkpt>
      <trkpt lat="45.88004" lon="4.64927">
        <ele>241</ele>
        <time>2016-10-12T15:06:06Z</time>
      </trkpt>
      <trkpt lat="45.88007" lon="4.64925">
        <ele>241</ele>
        <time>2016-10-12T15:06:07Z</time>
      </trkpt>
      <trkpt lat="45.88013" lon="4.6492">
        <ele>242</ele>
        <time>2016-10-12T15:06:10Z</time>
      </trkpt>
      <trkpt lat="45.88014" lon="4.64917">
        <ele>242</ele>
        <time>2016-10-12T15:06:11Z</time>
      </trkpt>
      <trkpt lat="45.88019" lon="4.64913">
        <ele>237</ele>
        <time>2016-10-12T15:06:13Z</time>
      </trkpt>
      <trkpt lat="45.88021" lon="4.64911">
        <ele>237</ele>
        <time>2016-10-12T15:06:14Z</time>
      </trkpt>
      <trkpt lat="45.88022" lon="4.64909">
        <ele>237</ele>
        <time>2016-10-12T15:06:15Z</time>
      </trkpt>
      <trkpt lat="45.88029" lon="4.64904">
        <ele>238</ele>
        <time>2016-10-12T15:06:18Z</time>
      </trkpt>
      <trkpt lat="45.88032" lon="4.64902">
        <ele>238</ele>
        <time>2016-10-12T15:06:19Z</time>
      </trkpt>
      <trkpt lat="45.88039" lon="4.64897">
        <ele>239</ele>
        <time>2016-10-12T15:06:22Z</time>
      </trkpt>
      <trkpt lat="45.8804" lon="4.64895">
        <ele>239</ele>
        <time>2016-10-12T15:06:23Z</time>
      </trkpt>
      <trkpt lat="45.88048" lon="4.64896">
        <ele>240</ele>
        <time>2016-10-12T15:06:25Z</time>
      </trkpt>
      <trkpt lat="45.88049" lon="4.64893">
        <ele>240</ele>
        <time>2016-10-12T15:06:26Z</time>
      </trkpt>
      <trkpt lat="45.88056" lon="4.64887">
        <ele>240</ele>
        <time>2016-10-12T15:06:30Z</time>
      </trkpt>
      <trkpt lat="45.88057" lon="4.64885">
        <ele>240</ele>
        <time>2016-10-12T15:06:31Z</time>
      </trkpt>
      <trkpt lat="45.88064" lon="4.6488">
        <ele>240</ele>
        <time>2016-10-12T15:06:35Z</time>
      </trkpt>
      <trkpt lat="45.88066" lon="4.64879">
        <ele>240</ele>
        <time>2016-10-12T15:06:36Z</time>
      </trkpt>
      <trkpt lat="45.88072" lon="4.64874">
        <ele>240</ele>
        <time>2016-10-12T15:06:39Z</time>
      </trkpt>
      <trkpt lat="45.88074" lon="4.64873">
        <ele>240</ele>
        <time>2016-10-12T15:06:40Z</time>
      </trkpt>
      <trkpt lat="45.88079" lon="4.64865">
        <ele>239</ele>
        <time>2016-10-12T15:06:43Z</time>
      </trkpt>
      <trkpt lat="45.88081" lon="4.64864">
        <ele>239</ele>
        <time>2016-10-12T15:06:44Z</time>
      </trkpt>
      <trkpt lat="45.88089" lon="4.64864">
        <ele>246</ele>
        <time>2016-10-12T15:06:47Z</time>
      </trkpt>
      <trkpt lat="45.88091" lon="4.64864">
        <ele>246</ele>
        <time>2016-10-12T15:06:48Z</time>
      </trkpt>
      <trkpt lat="45.88098" lon="4.64862">
        <ele>246</ele>
        <time>2016-10-12T15:06:51Z</time>
      </trkpt>
      <trkpt lat="45.88101" lon="4.64861">
        <ele>246</ele>
        <time>2016-10-12T15:06:52Z</time>
      </trkpt>
      <trkpt lat="45.88109" lon="4.64858">
        <ele>247</ele>
        <time>2016-10-12T15:06:56Z</time>
      </trkpt>
      <trkpt lat="45.88111" lon="4.64857">
        <ele>247</ele>
        <time>2016-10-12T15:06:57Z</time>
      </trkpt>
      <trkpt lat="45.88119" lon="4.64855">
        <ele>247</ele>
        <time>2016-10-12T15:07:01Z</time>
      </trkpt>
      <trkpt lat="45.88121" lon="4.64854">
        <ele>247</ele>
        <time>2016-10-12T15:07:02Z</time>
      </trkpt>
      <trkpt lat="45.88128" lon="4.64852">
        <ele>247</ele>
        <time>2016-10-12T15:07:05Z</time>
      </trkpt>
      <trkpt lat="45.88131" lon="4.64851">
        <ele>247</ele>
        <time>2016-10-12T15:07:06Z</time>
      </trkpt>
      <trkpt lat="45.88137" lon="4.6485">
        <ele>248</ele>
        <time>2016-10-12T15:07:09Z</time>
      </trkpt>
      <trkpt lat="45.8814" lon="4.64848">
        <ele>248</ele>
        <time>2016-10-12T15:07:10Z</time>
      </trkpt>
      <trkpt lat="45.88148" lon="4.64843">
        <ele>247</ele>
        <time>2016-10-12T15:07:14Z</time>
      </trkpt>
      <trkpt lat="45.8815" lon="4.64843">
        <ele>247</ele>
        <time>2016-10-12T15:07:15Z</time>
      </trkpt>
      <trkpt lat="45.88158" lon="4.64842">
        <ele>247</ele>
        <time>2016-10-12T15:07:19Z</time>
      </trkpt>
      <trkpt lat="45.8816" lon="4.64842">
        <ele>247</ele>
        <time>2016-10-12T15:07:20Z</time>
      </trkpt>
      <trkpt lat="45.88167" lon="4.64841">
        <ele>248</ele>
        <time>2016-10-12T15:07:24Z</time>
      </trkpt>
      <trkpt lat="45.88169" lon="4.6484">
        <ele>248</ele>
        <time>2016-10-12T15:07:25Z</time>
      </trkpt>
      <trkpt lat="45.88177" lon="4.64836">
        <ele>250</ele>
        <time>2016-10-12T15:07:29Z</time>
      </trkpt>
      <trkpt lat="45.88179" lon="4.64836">
        <ele>250</ele>
        <time>2016-10-12T15:07:30Z</time>
      </trkpt>
      <trkpt lat="45.88188" lon="4.64837">
        <ele>253</ele>
        <time>2016-10-12T15:07:34Z</time>
      </trkpt>
      <trkpt lat="45.8819" lon="4.64836">
        <ele>253</ele>
        <time>2016-10-12T15:07:35Z</time>
      </trkpt>
      <trkpt lat="45.88198" lon="4.64835">
        <ele>254</ele>
        <time>2016-10-12T15:07:39Z</time>
      </trkpt>
      <trkpt lat="45.88201" lon="4.64834">
        <ele>255</ele>
        <time>2016-10-12T15:07:40Z</time>
      </trkpt>
      <trkpt lat="45.88209" lon="4.64832">
        <ele>246</ele>
        <time>2016-10-12T15:07:44Z</time>
      </trkpt>
      <trkpt lat="45.88211" lon="4.64831">
        <ele>246</ele>
        <time>2016-10-12T15:07:45Z</time>
      </trkpt>
      <trkpt lat="45.88218" lon="4.6483">
        <ele>247</ele>
        <time>2016-10-12T15:07:48Z</time>
      </trkpt>
      <trkpt lat="45.8822" lon="4.64829">
        <ele>248</ele>
        <time>2016-10-12T15:07:49Z</time>
      </trkpt>
      <trkpt lat="45.88227" lon="4.64826">
        <ele>249</ele>
        <time>2016-10-12T15:07:52Z</time>
      </trkpt>
      <trkpt lat="45.88229" lon="4.64825">
        <ele>249</ele>
        <time>2016-10-12T15:07:53Z</time>
      </trkpt>
      <trkpt lat="45.88236" lon="4.64818">
        <ele>249</ele>
        <time>2016-10-12T15:07:57Z</time>
      </trkpt>
      <trkpt lat="45.88238" lon="4.64818">
        <ele>250</ele>
        <time>2016-10-12T15:07:58Z</time>
      </trkpt>
      <trkpt lat="45.88246" lon="4.64814">
        <ele>250</ele>
        <time>2016-10-12T15:08:03Z</time>
      </trkpt>
      <trkpt lat="45.88247" lon="4.64814">
        <ele>250</ele>
        <time>2016-10-12T15:08:04Z</time>
      </trkpt>
      <trkpt lat="45.88255" lon="4.64813">
        <ele>257</ele>
        <time>2016-10-12T15:08:09Z</time>
      </trkpt>
      <trkpt lat="45.88257" lon="4.64813">
        <ele>257</ele>
        <time>2016-10-12T15:08:10Z</time>
      </trkpt>
      <trkpt lat="45.88264" lon="4.64811">
        <ele>257</ele>
        <time>2016-10-12T15:08:14Z</time>
      </trkpt>
      <trkpt lat="45.88266" lon="4.6481">
        <ele>257</ele>
        <time>2016-10-12T15:08:15Z</time>
      </trkpt>
      <trkpt lat="45.88274" lon="4.64806">
        <ele>257</ele>
        <time>2016-10-12T15:08:19Z</time>
      </trkpt>
      <trkpt lat="45.88276" lon="4.64805">
        <ele>257</ele>
        <time>2016-10-12T15:08:20Z</time>
      </trkpt>
      <trkpt lat="45.88284" lon="4.64806">
        <ele>258</ele>
        <time>2016-10-12T15:08:25Z</time>
      </trkpt>
      <trkpt lat="45.88286" lon="4.64806">
        <ele>258</ele>
        <time>2016-10-12T15:08:26Z</time>
      </trkpt>
      <trkpt lat="45.88295" lon="4.64807">
        <ele>259</ele>
        <time>2016-10-12T15:08:30Z</time>
      </trkpt>
      <trkpt lat="45.88297" lon="4.64806">
        <ele>259</ele>
        <time>2016-10-12T15:08:31Z</time>
      </trkpt>
      <trkpt lat="45.88305" lon="4.64804">
        <ele>260</ele>
        <time>2016-10-12T15:08:36Z</time>
      </trkpt>
      <trkpt lat="45.88307" lon="4.64803">
        <ele>260</ele>
        <time>2016-10-12T15:08:37Z</time>
      </trkpt>
      <trkpt lat="45.88312" lon="4.64798">
        <ele>260</ele>
        <time>2016-10-12T15:08:41Z</time>
      </trkpt>
      <trkpt lat="45.88312" lon="4.64799">
        <ele>260</ele>
        <time>2016-10-12T15:08:42Z</time>
      </trkpt>
      <trkpt lat="45.88314" lon="4.64799">
        <ele>260</ele>
        <time>2016-10-12T15:08:43Z</time>
      </trkpt>
      <trkpt lat="45.88322" lon="4.648">
        <ele>261</ele>
        <time>2016-10-12T15:08:46Z</time>
      </trkpt>
      <trkpt lat="45.88323" lon="4.64803">
        <ele>261</ele>
        <time>2016-10-12T15:08:47Z</time>
      </trkpt>
      <trkpt lat="45.8833" lon="4.64804">
        <ele>262</ele>
        <time>2016-10-12T15:08:51Z</time>
      </trkpt>
      <trkpt lat="45.88334" lon="4.64804">
        <ele>268</ele>
        <time>2016-10-12T15:08:52Z</time>
      </trkpt>
      <trkpt lat="45.8834" lon="4.64801">
        <ele>268</ele>
        <time>2016-10-12T15:08:55Z</time>
      </trkpt>
      <trkpt lat="45.88343" lon="4.64798">
        <ele>267</ele>
        <time>2016-10-12T15:08:56Z</time>
      </trkpt>
      <trkpt lat="45.88348" lon="4.64795">
        <ele>267</ele>
        <time>2016-10-12T15:08:58Z</time>
      </trkpt>
      <trkpt lat="45.88351" lon="4.64792">
        <ele>267</ele>
        <time>2016-10-12T15:08:59Z</time>
      </trkpt>
      <trkpt lat="45.88356" lon="4.64789">
        <ele>266</ele>
        <time>2016-10-12T15:09:01Z</time>
      </trkpt>
      <trkpt lat="45.8836" lon="4.64787">
        <ele>266</ele>
        <time>2016-10-12T15:09:02Z</time>
      </trkpt>
      <trkpt lat="45.88368" lon="4.64784">
        <ele>266</ele>
        <time>2016-10-12T15:09:06Z</time>
      </trkpt>
      <trkpt lat="45.8837" lon="4.64783">
        <ele>266</ele>
        <time>2016-10-12T15:09:07Z</time>
      </trkpt>
      <trkpt lat="45.88378" lon="4.64785">
        <ele>267</ele>
        <time>2016-10-12T15:09:11Z</time>
      </trkpt>
      <trkpt lat="45.88381" lon="4.64785">
        <ele>267</ele>
        <time>2016-10-12T15:09:12Z</time>
      </trkpt>
      <trkpt lat="45.88388" lon="4.64784">
        <ele>267</ele>
        <time>2016-10-12T15:09:16Z</time>
      </trkpt>
      <trkpt lat="45.88391" lon="4.64783">
        <ele>267</ele>
        <time>2016-10-12T15:09:17Z</time>
      </trkpt>
      <trkpt lat="45.884" lon="4.64784">
        <ele>267</ele>
        <time>2016-10-12T15:09:21Z</time>
      </trkpt>
      <trkpt lat="45.88402" lon="4.64784">
        <ele>267</ele>
        <time>2016-10-12T15:09:22Z</time>
      </trkpt>
      <trkpt lat="45.8841" lon="4.64781">
        <ele>267</ele>
        <time>2016-10-12T15:09:25Z</time>
      </trkpt>
      <trkpt lat="45.88413" lon="4.64781">
        <ele>267</ele>
        <time>2016-10-12T15:09:26Z</time>
      </trkpt>
      <trkpt lat="45.8842" lon="4.64781">
        <ele>270</ele>
        <time>2016-10-12T15:09:29Z</time>
      </trkpt>
      <trkpt lat="45.88422" lon="4.64781">
        <ele>270</ele>
        <time>2016-10-12T15:09:30Z</time>
      </trkpt>
      <trkpt lat="45.88429" lon="4.6478">
        <ele>270</ele>
        <time>2016-10-12T15:09:33Z</time>
      </trkpt>
      <trkpt lat="45.88431" lon="4.64779">
        <ele>270</ele>
        <time>2016-10-12T15:09:34Z</time>
      </trkpt>
      <trkpt lat="45.8844" lon="4.64777">
        <ele>270</ele>
        <time>2016-10-12T15:09:38Z</time>
      </trkpt>
      <trkpt lat="45.88441" lon="4.64777">
        <ele>270</ele>
        <time>2016-10-12T15:09:39Z</time>
      </trkpt>
      <trkpt lat="45.88449" lon="4.64778">
        <ele>271</ele>
        <time>2016-10-12T15:09:43Z</time>
      </trkpt>
      <trkpt lat="45.88451" lon="4.64779">
        <ele>271</ele>
        <time>2016-10-12T15:09:44Z</time>
      </trkpt>
      <trkpt lat="45.88458" lon="4.64779">
        <ele>271</ele>
        <time>2016-10-12T15:09:47Z</time>
      </trkpt>
      <trkpt lat="45.8846" lon="4.64779">
        <ele>271</ele>
        <time>2016-10-12T15:09:48Z</time>
      </trkpt>
      <trkpt lat="45.88469" lon="4.64777">
        <ele>271</ele>
        <time>2016-10-12T15:09:52Z</time>
      </trkpt>
      <trkpt lat="45.88472" lon="4.64777">
        <ele>271</ele>
        <time>2016-10-12T15:09:53Z</time>
      </trkpt>
      <trkpt lat="45.8848" lon="4.64776">
        <ele>271</ele>
        <time>2016-10-12T15:09:56Z</time>
      </trkpt>
      <trkpt lat="45.88483" lon="4.64776">
        <ele>271</ele>
        <time>2016-10-12T15:09:57Z</time>
      </trkpt>
      <trkpt lat="45.8849" lon="4.64773">
        <ele>271</ele>
        <time>2016-10-12T15:10:00Z</time>
      </trkpt>
      <trkpt lat="45.88493" lon="4.64773">
        <ele>271</ele>
        <time>2016-10-12T15:10:01Z</time>
      </trkpt>
      <trkpt lat="45.885" lon="4.64773">
        <ele>271</ele>
        <time>2016-10-12T15:10:04Z</time>
      </trkpt>
      <trkpt lat="45.88502" lon="4.64773">
        <ele>270</ele>
        <time>2016-10-12T15:10:05Z</time>
      </trkpt>
      <trkpt lat="45.8851" lon="4.64773">
        <ele>271</ele>
        <time>2016-10-12T15:10:08Z</time>
      </trkpt>
      <trkpt lat="45.88512" lon="4.64774">
        <ele>271</ele>
        <time>2016-10-12T15:10:09Z</time>
      </trkpt>
      <trkpt lat="45.8852" lon="4.64776">
        <ele>271</ele>
        <time>2016-10-12T15:10:12Z</time>
      </trkpt>
      <trkpt lat="45.88522" lon="4.64776">
        <ele>271</ele>
        <time>2016-10-12T15:10:13Z</time>
      </trkpt>
      <trkpt lat="45.8853" lon="4.64779">
        <ele>271</ele>
        <time>2016-10-12T15:10:17Z</time>
      </trkpt>
      <trkpt lat="45.88532" lon="4.64781">
        <ele>271</ele>
        <time>2016-10-12T15:10:18Z</time>
      </trkpt>
      <trkpt lat="45.88537" lon="4.64788">
        <ele>272</ele>
        <time>2016-10-12T15:10:21Z</time>
      </trkpt>
      <trkpt lat="45.88539" lon="4.6479">
        <ele>272</ele>
        <time>2016-10-12T15:10:22Z</time>
      </trkpt>
      <trkpt lat="45.88543" lon="4.64798">
        <ele>272</ele>
        <time>2016-10-12T15:10:26Z</time>
      </trkpt>
      <trkpt lat="45.88544" lon="4.64801">
        <ele>272</ele>
        <time>2016-10-12T15:10:27Z</time>
      </trkpt>
      <trkpt lat="45.88547" lon="4.64812">
        <ele>273</ele>
        <time>2016-10-12T15:10:31Z</time>
      </trkpt>
      <trkpt lat="45.88548" lon="4.64814">
        <ele>273</ele>
        <time>2016-10-12T15:10:32Z</time>
      </trkpt>
      <trkpt lat="45.88551" lon="4.64825">
        <ele>273</ele>
        <time>2016-10-12T15:10:36Z</time>
      </trkpt>
      <trkpt lat="45.88552" lon="4.64828">
        <ele>273</ele>
        <time>2016-10-12T15:10:37Z</time>
      </trkpt>
      <trkpt lat="45.8855" lon="4.64841">
        <ele>276</ele>
        <time>2016-10-12T15:10:42Z</time>
      </trkpt>
      <trkpt lat="45.88549" lon="4.64843">
        <ele>276</ele>
        <time>2016-10-12T15:10:43Z</time>
      </trkpt>
      <trkpt lat="45.88548" lon="4.64855">
        <ele>277</ele>
        <time>2016-10-12T15:10:47Z</time>
      </trkpt>
      <trkpt lat="45.88548" lon="4.64858">
        <ele>277</ele>
        <time>2016-10-12T15:10:48Z</time>
      </trkpt>
      <trkpt lat="45.88545" lon="4.6487">
        <ele>277</ele>
        <time>2016-10-12T15:10:52Z</time>
      </trkpt>
      <trkpt lat="45.88545" lon="4.64873">
        <ele>277</ele>
        <time>2016-10-12T15:10:53Z</time>
      </trkpt>
      <trkpt lat="45.88542" lon="4.64885">
        <ele>277</ele>
        <time>2016-10-12T15:10:57Z</time>
      </trkpt>
      <trkpt lat="45.88541" lon="4.64888">
        <ele>277</ele>
        <time>2016-10-12T15:10:58Z</time>
      </trkpt>
      <trkpt lat="45.88538" lon="4.64898">
        <ele>278</ele>
        <time>2016-10-12T15:11:02Z</time>
      </trkpt>
      <trkpt lat="45.88538" lon="4.64901">
        <ele>278</ele>
        <time>2016-10-12T15:11:03Z</time>
      </trkpt>
      <trkpt lat="45.88538" lon="4.64913">
        <ele>278</ele>
        <time>2016-10-12T15:11:07Z</time>
      </trkpt>
      <trkpt lat="45.88537" lon="4.64915">
        <ele>278</ele>
        <time>2016-10-12T15:11:08Z</time>
      </trkpt>
      <trkpt lat="45.88536" lon="4.64926">
        <ele>280</ele>
        <time>2016-10-12T15:11:12Z</time>
      </trkpt>
      <trkpt lat="45.88535" lon="4.6493">
        <ele>280</ele>
        <time>2016-10-12T15:11:13Z</time>
      </trkpt>
      <trkpt lat="45.88533" lon="4.64941">
        <ele>281</ele>
        <time>2016-10-12T15:11:16Z</time>
      </trkpt>
      <trkpt lat="45.88532" lon="4.64945">
        <ele>281</ele>
        <time>2016-10-12T15:11:17Z</time>
      </trkpt>
      <trkpt lat="45.8853" lon="4.64956">
        <ele>281</ele>
        <time>2016-10-12T15:11:21Z</time>
      </trkpt>
      <trkpt lat="45.8853" lon="4.64959">
        <ele>281</ele>
        <time>2016-10-12T15:11:22Z</time>
      </trkpt>
      <trkpt lat="45.88528" lon="4.64971">
        <ele>282</ele>
        <time>2016-10-12T15:11:26Z</time>
      </trkpt>
      <trkpt lat="45.88527" lon="4.64974">
        <ele>282</ele>
        <time>2016-10-12T15:11:27Z</time>
      </trkpt>
      <trkpt lat="45.88527" lon="4.64985">
        <ele>283</ele>
        <time>2016-10-12T15:11:30Z</time>
      </trkpt>
      <trkpt lat="45.88526" lon="4.64988">
        <ele>283</ele>
        <time>2016-10-12T15:11:31Z</time>
      </trkpt>
      <trkpt lat="45.88523" lon="4.64999">
        <ele>284</ele>
        <time>2016-10-12T15:11:35Z</time>
      </trkpt>
      <trkpt lat="45.88523" lon="4.65002">
        <ele>285</ele>
        <time>2016-10-12T15:11:36Z</time>
      </trkpt>
      <trkpt lat="45.88522" lon="4.65014">
        <ele>285</ele>
        <time>2016-10-12T15:11:40Z</time>
      </trkpt>
      <trkpt lat="45.88522" lon="4.65016">
        <ele>285</ele>
        <time>2016-10-12T15:11:41Z</time>
      </trkpt>
      <trkpt lat="45.88517" lon="4.65025">
        <ele>285</ele>
        <time>2016-10-12T15:11:44Z</time>
      </trkpt>
      <trkpt lat="45.88516" lon="4.65028">
        <ele>285</ele>
        <time>2016-10-12T15:11:45Z</time>
      </trkpt>
      <trkpt lat="45.88514" lon="4.65039">
        <ele>285</ele>
        <time>2016-10-12T15:11:48Z</time>
      </trkpt>
      <trkpt lat="45.88514" lon="4.65042">
        <ele>285</ele>
        <time>2016-10-12T15:11:49Z</time>
      </trkpt>
      <trkpt lat="45.88511" lon="4.65053">
        <ele>286</ele>
        <time>2016-10-12T15:11:53Z</time>
      </trkpt>
      <trkpt lat="45.8851" lon="4.65056">
        <ele>286</ele>
        <time>2016-10-12T15:11:54Z</time>
      </trkpt>
      <trkpt lat="45.88506" lon="4.65064">
        <ele>287</ele>
        <time>2016-10-12T15:11:57Z</time>
      </trkpt>
      <trkpt lat="45.88505" lon="4.65067">
        <ele>287</ele>
        <time>2016-10-12T15:11:58Z</time>
      </trkpt>
      <trkpt lat="45.88501" lon="4.65076">
        <ele>289</ele>
        <time>2016-10-12T15:12:01Z</time>
      </trkpt>
      <trkpt lat="45.885" lon="4.6508">
        <ele>289</ele>
        <time>2016-10-12T15:12:02Z</time>
      </trkpt>
      <trkpt lat="45.88496" lon="4.65088">
        <ele>291</ele>
        <time>2016-10-12T15:12:05Z</time>
      </trkpt>
      <trkpt lat="45.88495" lon="4.6509">
        <ele>291</ele>
        <time>2016-10-12T15:12:06Z</time>
      </trkpt>
      <trkpt lat="45.8849" lon="4.65101">
        <ele>292</ele>
        <time>2016-10-12T15:12:10Z</time>
      </trkpt>
      <trkpt lat="45.88488" lon="4.65103">
        <ele>292</ele>
        <time>2016-10-12T15:12:11Z</time>
      </trkpt>
      <trkpt lat="45.88482" lon="4.65111">
        <ele>293</ele>
        <time>2016-10-12T15:12:15Z</time>
      </trkpt>
      <trkpt lat="45.8848" lon="4.65113">
        <ele>293</ele>
        <time>2016-10-12T15:12:16Z</time>
      </trkpt>
      <trkpt lat="45.88475" lon="4.65122">
        <ele>293</ele>
        <time>2016-10-12T15:12:19Z</time>
      </trkpt>
      <trkpt lat="45.88473" lon="4.65125">
        <ele>294</ele>
        <time>2016-10-12T15:12:20Z</time>
      </trkpt>
      <trkpt lat="45.88467" lon="4.65132">
        <ele>294</ele>
        <time>2016-10-12T15:12:23Z</time>
      </trkpt>
      <trkpt lat="45.88465" lon="4.65134">
        <ele>294</ele>
        <time>2016-10-12T15:12:24Z</time>
      </trkpt>
      <trkpt lat="45.88459" lon="4.65142">
        <ele>294</ele>
        <time>2016-10-12T15:12:28Z</time>
      </trkpt>
      <trkpt lat="45.88457" lon="4.65144">
        <ele>294</ele>
        <time>2016-10-12T15:12:29Z</time>
      </trkpt>
      <trkpt lat="45.88451" lon="4.6515">
        <ele>295</ele>
        <time>2016-10-12T15:12:32Z</time>
      </trkpt>
      <trkpt lat="45.8845" lon="4.65152">
        <ele>295</ele>
        <time>2016-10-12T15:12:33Z</time>
      </trkpt>
      <trkpt lat="45.88443" lon="4.6516">
        <ele>296</ele>
        <time>2016-10-12T15:12:37Z</time>
      </trkpt>
      <trkpt lat="45.88441" lon="4.65162">
        <ele>296</ele>
        <time>2016-10-12T15:12:38Z</time>
      </trkpt>
      <trkpt lat="45.88433" lon="4.65168">
        <ele>298</ele>
        <time>2016-10-12T15:12:41Z</time>
      </trkpt>
      <trkpt lat="45.88431" lon="4.6517">
        <ele>298</ele>
        <time>2016-10-12T15:12:42Z</time>
      </trkpt>
      <trkpt lat="45.88427" lon="4.65177">
        <ele>298</ele>
        <time>2016-10-12T15:12:45Z</time>
      </trkpt>
      <trkpt lat="45.88425" lon="4.6518">
        <ele>298</ele>
        <time>2016-10-12T15:12:46Z</time>
      </trkpt>
      <trkpt lat="45.88418" lon="4.65187">
        <ele>298</ele>
        <time>2016-10-12T15:12:50Z</time>
      </trkpt>
      <trkpt lat="45.88417" lon="4.65188">
        <ele>299</ele>
        <time>2016-10-12T15:12:51Z</time>
      </trkpt>
      <trkpt lat="45.8841" lon="4.65195">
        <ele>299</ele>
        <time>2016-10-12T15:12:55Z</time>
      </trkpt>
      <trkpt lat="45.88408" lon="4.65197">
        <ele>299</ele>
        <time>2016-10-12T15:12:56Z</time>
      </trkpt>
      <trkpt lat="45.88403" lon="4.65203">
        <ele>300</ele>
        <time>2016-10-12T15:12:59Z</time>
      </trkpt>
      <trkpt lat="45.88401" lon="4.65205">
        <ele>300</ele>
        <time>2016-10-12T15:13:00Z</time>
      </trkpt>
      <trkpt lat="45.88394" lon="4.65212">
        <ele>300</ele>
        <time>2016-10-12T15:13:04Z</time>
      </trkpt>
      <trkpt lat="45.88392" lon="4.65214">
        <ele>300</ele>
        <time>2016-10-12T15:13:05Z</time>
      </trkpt>
      <trkpt lat="45.88386" lon="4.6522">
        <ele>300</ele>
        <time>2016-10-12T15:13:08Z</time>
      </trkpt>
      <trkpt lat="45.88385" lon="4.65223">
        <ele>300</ele>
        <time>2016-10-12T15:13:09Z</time>
      </trkpt>
      <trkpt lat="45.88378" lon="4.65229">
        <ele>300</ele>
        <time>2016-10-12T15:13:13Z</time>
      </trkpt>
      <trkpt lat="45.88376" lon="4.65231">
        <ele>300</ele>
        <time>2016-10-12T15:13:14Z</time>
      </trkpt>
      <trkpt lat="45.8837" lon="4.65241">
        <ele>300</ele>
        <time>2016-10-12T15:13:18Z</time>
      </trkpt>
      <trkpt lat="45.88368" lon="4.65243">
        <ele>300</ele>
        <time>2016-10-12T15:13:19Z</time>
      </trkpt>
      <trkpt lat="45.88362" lon="4.65249">
        <ele>300</ele>
        <time>2016-10-12T15:13:22Z</time>
      </trkpt>
      <trkpt lat="45.8836" lon="4.6525">
        <ele>301</ele>
        <time>2016-10-12T15:13:23Z</time>
      </trkpt>
      <trkpt lat="45.88355" lon="4.65256">
        <ele>301</ele>
        <time>2016-10-12T15:13:26Z</time>
      </trkpt>
      <trkpt lat="45.88353" lon="4.65258">
        <ele>301</ele>
        <time>2016-10-12T15:13:27Z</time>
      </trkpt>
      <trkpt lat="45.88347" lon="4.65264">
        <ele>301</ele>
        <time>2016-10-12T15:13:30Z</time>
      </trkpt>
      <trkpt lat="45.88345" lon="4.65266">
        <ele>301</ele>
        <time>2016-10-12T15:13:31Z</time>
      </trkpt>
      <trkpt lat="45.88338" lon="4.65272">
        <ele>301</ele>
        <time>2016-10-12T15:13:34Z</time>
      </trkpt>
      <trkpt lat="45.88336" lon="4.65274">
        <ele>302</ele>
        <time>2016-10-12T15:13:35Z</time>
      </trkpt>
      <trkpt lat="45.88331" lon="4.6528">
        <ele>304</ele>
        <time>2016-10-12T15:13:38Z</time>
      </trkpt>
      <trkpt lat="45.88329" lon="4.65282">
        <ele>304</ele>
        <time>2016-10-12T15:13:39Z</time>
      </trkpt>
      <trkpt lat="45.88325" lon="4.65289">
        <ele>304</ele>
        <time>2016-10-12T15:13:42Z</time>
      </trkpt>
      <trkpt lat="45.88323" lon="4.65292">
        <ele>304</ele>
        <time>2016-10-12T15:13:43Z</time>
      </trkpt>
      <trkpt lat="45.88317" lon="4.65301">
        <ele>305</ele>
        <time>2016-10-12T15:13:46Z</time>
      </trkpt>
      <trkpt lat="45.88316" lon="4.65303">
        <ele>305</ele>
        <time>2016-10-12T15:13:47Z</time>
      </trkpt>
      <trkpt lat="45.88311" lon="4.65313">
        <ele>305</ele>
        <time>2016-10-12T15:13:51Z</time>
      </trkpt>
      <trkpt lat="45.8831" lon="4.65316">
        <ele>305</ele>
        <time>2016-10-12T15:13:52Z</time>
      </trkpt>
      <trkpt lat="45.88305" lon="4.65326">
        <ele>305</ele>
        <time>2016-10-12T15:13:56Z</time>
      </trkpt>
      <trkpt lat="45.88303" lon="4.65328">
        <ele>305</ele>
        <time>2016-10-12T15:13:57Z</time>
      </trkpt>
      <trkpt lat="45.88298" lon="4.65336">
        <ele>307</ele>
        <time>2016-10-12T15:14:01Z</time>
      </trkpt>
      <trkpt lat="45.88297" lon="4.6534">
        <ele>307</ele>
        <time>2016-10-12T15:14:02Z</time>
      </trkpt>
      <trkpt lat="45.88294" lon="4.6535">
        <ele>307</ele>
        <time>2016-10-12T15:14:05Z</time>
      </trkpt>
      <trkpt lat="45.88293" lon="4.65354">
        <ele>307</ele>
        <time>2016-10-12T15:14:06Z</time>
      </trkpt>
      <trkpt lat="45.88289" lon="4.65363">
        <ele>308</ele>
        <time>2016-10-12T15:14:09Z</time>
      </trkpt>
      <trkpt lat="45.88287" lon="4.65366">
        <ele>308</ele>
        <time>2016-10-12T15:14:10Z</time>
      </trkpt>
      <trkpt lat="45.88284" lon="4.65376">
        <ele>308</ele>
        <time>2016-10-12T15:14:14Z</time>
      </trkpt>
      <trkpt lat="45.88283" lon="4.65378">
        <ele>308</ele>
        <time>2016-10-12T15:14:15Z</time>
      </trkpt>
      <trkpt lat="45.88281" lon="4.65388">
        <ele>308</ele>
        <time>2016-10-12T15:14:18Z</time>
      </trkpt>
      <trkpt lat="45.8828" lon="4.65391">
        <ele>308</ele>
        <time>2016-10-12T15:14:19Z</time>
      </trkpt>
      <trkpt lat="45.88277" lon="4.65403">
        <ele>309</ele>
        <time>2016-10-12T15:14:23Z</time>
      </trkpt>
      <trkpt lat="45.88277" lon="4.65406">
        <ele>309</ele>
        <time>2016-10-12T15:14:24Z</time>
      </trkpt>
      <trkpt lat="45.88272" lon="4.65416">
        <ele>309</ele>
        <time>2016-10-12T15:14:27Z</time>
      </trkpt>
      <trkpt lat="45.8827" lon="4.65418">
        <ele>310</ele>
        <time>2016-10-12T15:14:28Z</time>
      </trkpt>
      <trkpt lat="45.88266" lon="4.65427">
        <ele>311</ele>
        <time>2016-10-12T15:14:31Z</time>
      </trkpt>
      <trkpt lat="45.88266" lon="4.6543">
        <ele>311</ele>
        <time>2016-10-12T15:14:32Z</time>
      </trkpt>
      <trkpt lat="45.88263" lon="4.65441">
        <ele>311</ele>
        <time>2016-10-12T15:14:35Z</time>
      </trkpt>
      <trkpt lat="45.88262" lon="4.65444">
        <ele>311</ele>
        <time>2016-10-12T15:14:36Z</time>
      </trkpt>
      <trkpt lat="45.8826" lon="4.65454">
        <ele>311</ele>
        <time>2016-10-12T15:14:39Z</time>
      </trkpt>
      <trkpt lat="45.88259" lon="4.65457">
        <ele>311</ele>
        <time>2016-10-12T15:14:40Z</time>
      </trkpt>
      <trkpt lat="45.88256" lon="4.65469">
        <ele>312</ele>
        <time>2016-10-12T15:14:44Z</time>
      </trkpt>
      <trkpt lat="45.88255" lon="4.65472">
        <ele>312</ele>
        <time>2016-10-12T15:14:45Z</time>
      </trkpt>
      <trkpt lat="45.88251" lon="4.65482">
        <ele>313</ele>
        <time>2016-10-12T15:14:48Z</time>
      </trkpt>
      <trkpt lat="45.88249" lon="4.65486">
        <ele>316</ele>
        <time>2016-10-12T15:14:49Z</time>
      </trkpt>
      <trkpt lat="45.88246" lon="4.65495">
        <ele>315</ele>
        <time>2016-10-12T15:14:52Z</time>
      </trkpt>
      <trkpt lat="45.88245" lon="4.65498">
        <ele>315</ele>
        <time>2016-10-12T15:14:53Z</time>
      </trkpt>
      <trkpt lat="45.88241" lon="4.65508">
        <ele>317</ele>
        <time>2016-10-12T15:14:57Z</time>
      </trkpt>
      <trkpt lat="45.88241" lon="4.65513">
        <ele>318</ele>
        <time>2016-10-12T15:14:58Z</time>
      </trkpt>
      <trkpt lat="45.88238" lon="4.65524">
        <ele>319</ele>
        <time>2016-10-12T15:15:01Z</time>
      </trkpt>
      <trkpt lat="45.88237" lon="4.65527">
        <ele>319</ele>
        <time>2016-10-12T15:15:02Z</time>
      </trkpt>
      <trkpt lat="45.88232" lon="4.65537">
        <ele>320</ele>
        <time>2016-10-12T15:15:06Z</time>
      </trkpt>
      <trkpt lat="45.88231" lon="4.65539">
        <ele>320</ele>
        <time>2016-10-12T15:15:07Z</time>
      </trkpt>
      <trkpt lat="45.88229" lon="4.65548">
        <ele>320</ele>
        <time>2016-10-12T15:15:10Z</time>
      </trkpt>
      <trkpt lat="45.88228" lon="4.65552">
        <ele>320</ele>
        <time>2016-10-12T15:15:11Z</time>
      </trkpt>
      <trkpt lat="45.88224" lon="4.65563">
        <ele>320</ele>
        <time>2016-10-12T15:15:15Z</time>
      </trkpt>
      <trkpt lat="45.88223" lon="4.65566">
        <ele>320</ele>
        <time>2016-10-12T15:15:16Z</time>
      </trkpt>
      <trkpt lat="45.88219" lon="4.65577">
        <ele>320</ele>
        <time>2016-10-12T15:15:20Z</time>
      </trkpt>
      <trkpt lat="45.88218" lon="4.6558">
        <ele>321</ele>
        <time>2016-10-12T15:15:21Z</time>
      </trkpt>
      <trkpt lat="45.88213" lon="4.6559">
        <ele>321</ele>
        <time>2016-10-12T15:15:25Z</time>
      </trkpt>
      <trkpt lat="45.88212" lon="4.65593">
        <ele>321</ele>
        <time>2016-10-12T15:15:26Z</time>
      </trkpt>
      <trkpt lat="45.88209" lon="4.65604">
        <ele>321</ele>
        <time>2016-10-12T15:15:30Z</time>
      </trkpt>
      <trkpt lat="45.88209" lon="4.65607">
        <ele>321</ele>
        <time>2016-10-12T15:15:31Z</time>
      </trkpt>
      <trkpt lat="45.88206" lon="4.65615">
        <ele>321</ele>
        <time>2016-10-12T15:15:34Z</time>
      </trkpt>
      <trkpt lat="45.88204" lon="4.65619">
        <ele>321</ele>
        <time>2016-10-12T15:15:35Z</time>
      </trkpt>
      <trkpt lat="45.882" lon="4.65627">
        <ele>321</ele>
        <time>2016-10-12T15:15:38Z</time>
      </trkpt>
      <trkpt lat="45.88199" lon="4.6563">
        <ele>321</ele>
        <time>2016-10-12T15:15:39Z</time>
      </trkpt>
      <trkpt lat="45.88194" lon="4.6564">
        <ele>322</ele>
        <time>2016-10-12T15:15:43Z</time>
      </trkpt>
      <trkpt lat="45.88193" lon="4.65643">
        <ele>322</ele>
        <time>2016-10-12T15:15:44Z</time>
      </trkpt>
      <trkpt lat="45.88189" lon="4.65654">
        <ele>322</ele>
        <time>2016-10-12T15:15:48Z</time>
      </trkpt>
      <trkpt lat="45.88188" lon="4.65657">
        <ele>322</ele>
        <time>2016-10-12T15:15:49Z</time>
      </trkpt>
      <trkpt lat="45.88184" lon="4.65666">
        <ele>323</ele>
        <time>2016-10-12T15:15:52Z</time>
      </trkpt>
      <trkpt lat="45.88183" lon="4.65669">
        <ele>323</ele>
        <time>2016-10-12T15:15:53Z</time>
      </trkpt>
      <trkpt lat="45.88179" lon="4.65678">
        <ele>323</ele>
        <time>2016-10-12T15:15:56Z</time>
      </trkpt>
      <trkpt lat="45.88178" lon="4.6568">
        <ele>323</ele>
        <time>2016-10-12T15:15:57Z</time>
      </trkpt>
      <trkpt lat="45.88174" lon="4.65688">
        <ele>322</ele>
        <time>2016-10-12T15:16:00Z</time>
      </trkpt>
      <trkpt lat="45.88172" lon="4.6569">
        <ele>322</ele>
        <time>2016-10-12T15:16:01Z</time>
      </trkpt>
      <trkpt lat="45.88168" lon="4.65698">
        <ele>322</ele>
        <time>2016-10-12T15:16:04Z</time>
      </trkpt>
      <trkpt lat="45.88167" lon="4.65701">
        <ele>330</ele>
        <time>2016-10-12T15:16:05Z</time>
      </trkpt>
      <trkpt lat="45.88162" lon="4.65709">
        <ele>331</ele>
        <time>2016-10-12T15:16:08Z</time>
      </trkpt>
      <trkpt lat="45.88161" lon="4.65712">
        <ele>331</ele>
        <time>2016-10-12T15:16:09Z</time>
      </trkpt>
      <trkpt lat="45.88156" lon="4.65721">
        <ele>331</ele>
        <time>2016-10-12T15:16:14Z</time>
      </trkpt>
      <trkpt lat="45.88154" lon="4.65724">
        <ele>331</ele>
        <time>2016-10-12T15:16:15Z</time>
      </trkpt>
      <trkpt lat="45.88149" lon="4.65732">
        <ele>331</ele>
        <time>2016-10-12T15:16:18Z</time>
      </trkpt>
      <trkpt lat="45.88147" lon="4.65733">
        <ele>331</ele>
        <time>2016-10-12T15:16:19Z</time>
      </trkpt>
      <trkpt lat="45.88142" lon="4.65739">
        <ele>332</ele>
        <time>2016-10-12T15:16:22Z</time>
      </trkpt>
      <trkpt lat="45.8814" lon="4.65741">
        <ele>332</ele>
        <time>2016-10-12T15:16:23Z</time>
      </trkpt>
      <trkpt lat="45.88135" lon="4.65747">
        <ele>333</ele>
        <time>2016-10-12T15:16:26Z</time>
      </trkpt>
      <trkpt lat="45.88133" lon="4.6575">
        <ele>333</ele>
        <time>2016-10-12T15:16:27Z</time>
      </trkpt>
      <trkpt lat="45.88126" lon="4.65757">
        <ele>333</ele>
        <time>2016-10-12T15:16:31Z</time>
      </trkpt>
      <trkpt lat="45.88125" lon="4.65759">
        <ele>333</ele>
        <time>2016-10-12T15:16:32Z</time>
      </trkpt>
      <trkpt lat="45.88118" lon="4.65766">
        <ele>334</ele>
        <time>2016-10-12T15:16:36Z</time>
      </trkpt>
      <trkpt lat="45.88116" lon="4.65768">
        <ele>334</ele>
        <time>2016-10-12T15:16:37Z</time>
      </trkpt>
      <trkpt lat="45.88111" lon="4.65775">
        <ele>334</ele>
        <time>2016-10-12T15:16:40Z</time>
      </trkpt>
      <trkpt lat="45.88109" lon="4.65777">
        <ele>334</ele>
        <time>2016-10-12T15:16:41Z</time>
      </trkpt>
      <trkpt lat="45.88103" lon="4.65784">
        <ele>334</ele>
        <time>2016-10-12T15:16:45Z</time>
      </trkpt>
      <trkpt lat="45.88101" lon="4.65785">
        <ele>334</ele>
        <time>2016-10-12T15:16:46Z</time>
      </trkpt>
      <trkpt lat="45.88094" lon="4.65791">
        <ele>334</ele>
        <time>2016-10-12T15:16:50Z</time>
      </trkpt>
      <trkpt lat="45.88092" lon="4.65793">
        <ele>334</ele>
        <time>2016-10-12T15:16:51Z</time>
      </trkpt>
      <trkpt lat="45.88085" lon="4.65798">
        <ele>334</ele>
        <time>2016-10-12T15:16:54Z</time>
      </trkpt>
      <trkpt lat="45.88082" lon="4.658">
        <ele>341</ele>
        <time>2016-10-12T15:16:55Z</time>
      </trkpt>
      <trkpt lat="45.88076" lon="4.65808">
        <ele>341</ele>
        <time>2016-10-12T15:16:59Z</time>
      </trkpt>
      <trkpt lat="45.88074" lon="4.65809">
        <ele>341</ele>
        <time>2016-10-12T15:17:00Z</time>
      </trkpt>
      <trkpt lat="45.88067" lon="4.65814">
        <ele>341</ele>
        <time>2016-10-12T15:17:03Z</time>
      </trkpt>
      <trkpt lat="45.88065" lon="4.65816">
        <ele>341</ele>
        <time>2016-10-12T15:17:04Z</time>
      </trkpt>
      <trkpt lat="45.88057" lon="4.65822">
        <ele>341</ele>
        <time>2016-10-12T15:17:07Z</time>
      </trkpt>
      <trkpt lat="45.88055" lon="4.65823">
        <ele>341</ele>
        <time>2016-10-12T15:17:08Z</time>
      </trkpt>
      <trkpt lat="45.88048" lon="4.65827">
        <ele>342</ele>
        <time>2016-10-12T15:17:11Z</time>
      </trkpt>
      <trkpt lat="45.88045" lon="4.65828">
        <ele>342</ele>
        <time>2016-10-12T15:17:12Z</time>
      </trkpt>
      <trkpt lat="45.88038" lon="4.65832">
        <ele>343</ele>
        <time>2016-10-12T15:17:14Z</time>
      </trkpt>
      <trkpt lat="45.88036" lon="4.65833">
        <ele>343</ele>
        <time>2016-10-12T15:17:15Z</time>
      </trkpt>
      <trkpt lat="45.8803" lon="4.65836">
        <ele>339</ele>
        <time>2016-10-12T15:17:18Z</time>
      </trkpt>
      <trkpt lat="45.88027" lon="4.65838">
        <ele>339</ele>
        <time>2016-10-12T15:17:19Z</time>
      </trkpt>
      <trkpt lat="45.8802" lon="4.65842">
        <ele>340</ele>
        <time>2016-10-12T15:17:22Z</time>
      </trkpt>
      <trkpt lat="45.88018" lon="4.65844">
        <ele>340</ele>
        <time>2016-10-12T15:17:23Z</time>
      </trkpt>
      <trkpt lat="45.88012" lon="4.65848">
        <ele>340</ele>
        <time>2016-10-12T15:17:25Z</time>
      </trkpt>
      <trkpt lat="45.8801" lon="4.6585">
        <ele>340</ele>
        <time>2016-10-12T15:17:26Z</time>
      </trkpt>
      <trkpt lat="45.88003" lon="4.65857">
        <ele>339</ele>
        <time>2016-10-12T15:17:29Z</time>
      </trkpt>
      <trkpt lat="45.88001" lon="4.65859">
        <ele>339</ele>
        <time>2016-10-12T15:17:30Z</time>
      </trkpt>
      <trkpt lat="45.87995" lon="4.65865">
        <ele>344</ele>
        <time>2016-10-12T15:17:33Z</time>
      </trkpt>
      <trkpt lat="45.87992" lon="4.65867">
        <ele>343</ele>
        <time>2016-10-12T15:17:34Z</time>
      </trkpt>
      <trkpt lat="45.87986" lon="4.65875">
        <ele>343</ele>
        <time>2016-10-12T15:17:37Z</time>
      </trkpt>
      <trkpt lat="45.87983" lon="4.65878">
        <ele>343</ele>
        <time>2016-10-12T15:17:38Z</time>
      </trkpt>
      <trkpt lat="45.87978" lon="4.65884">
        <ele>343</ele>
        <time>2016-10-12T15:17:40Z</time>
      </trkpt>
      <trkpt lat="45.87976" lon="4.65887">
        <ele>343</ele>
        <time>2016-10-12T15:17:41Z</time>
      </trkpt>
      <trkpt lat="45.87971" lon="4.65894">
        <ele>342</ele>
        <time>2016-10-12T15:17:43Z</time>
      </trkpt>
      <trkpt lat="45.87968" lon="4.65895">
        <ele>343</ele>
        <time>2016-10-12T15:17:44Z</time>
      </trkpt>
      <trkpt lat="45.87962" lon="4.659">
        <ele>343</ele>
        <time>2016-10-12T15:17:46Z</time>
      </trkpt>
      <trkpt lat="45.8796" lon="4.65902">
        <ele>343</ele>
        <time>2016-10-12T15:17:47Z</time>
      </trkpt>
      <trkpt lat="45.87955" lon="4.65908">
        <ele>343</ele>
        <time>2016-10-12T15:17:49Z</time>
      </trkpt>
      <trkpt lat="45.87953" lon="4.65912">
        <ele>343</ele>
        <time>2016-10-12T15:17:50Z</time>
      </trkpt>
      <trkpt lat="45.87948" lon="4.65921">
        <ele>341</ele>
        <time>2016-10-12T15:17:53Z</time>
      </trkpt>
      <trkpt lat="45.87946" lon="4.65925">
        <ele>341</ele>
        <time>2016-10-12T15:17:54Z</time>
      </trkpt>
      <trkpt lat="45.87942" lon="4.65932">
        <ele>341</ele>
        <time>2016-10-12T15:17:56Z</time>
      </trkpt>
      <trkpt lat="45.8794" lon="4.65935">
        <ele>341</ele>
        <time>2016-10-12T15:17:57Z</time>
      </trkpt>
      <trkpt lat="45.87937" lon="4.65941">
        <ele>341</ele>
        <time>2016-10-12T15:17:59Z</time>
      </trkpt>
      <trkpt lat="45.87935" lon="4.65946">
        <ele>341</ele>
        <time>2016-10-12T15:18:00Z</time>
      </trkpt>
      <trkpt lat="45.87932" lon="4.65955">
        <ele>341</ele>
        <time>2016-10-12T15:18:02Z</time>
      </trkpt>
      <trkpt lat="45.8793" lon="4.65958">
        <ele>341</ele>
        <time>2016-10-12T15:18:03Z</time>
      </trkpt>
      <trkpt lat="45.87928" lon="4.65969">
        <ele>341</ele>
        <time>2016-10-12T15:18:06Z</time>
      </trkpt>
      <trkpt lat="45.87927" lon="4.65973">
        <ele>341</ele>
        <time>2016-10-12T15:18:07Z</time>
      </trkpt>
      <trkpt lat="45.87927" lon="4.65983">
        <ele>341</ele>
        <time>2016-10-12T15:18:10Z</time>
      </trkpt>
      <trkpt lat="45.87927" lon="4.65986">
        <ele>341</ele>
        <time>2016-10-12T15:18:11Z</time>
      </trkpt>
      <trkpt lat="45.87927" lon="4.65998">
        <ele>342</ele>
        <time>2016-10-12T15:18:14Z</time>
      </trkpt>
      <trkpt lat="45.87926" lon="4.66001">
        <ele>342</ele>
        <time>2016-10-12T15:18:15Z</time>
      </trkpt>
      <trkpt lat="45.87924" lon="4.66012">
        <ele>342</ele>
        <time>2016-10-12T15:18:18Z</time>
      </trkpt>
      <trkpt lat="45.87924" lon="4.66015">
        <ele>342</ele>
        <time>2016-10-12T15:18:19Z</time>
      </trkpt>
      <trkpt lat="45.87925" lon="4.66025">
        <ele>342</ele>
        <time>2016-10-12T15:18:22Z</time>
      </trkpt>
      <trkpt lat="45.87926" lon="4.66028">
        <ele>342</ele>
        <time>2016-10-12T15:18:23Z</time>
      </trkpt>
      <trkpt lat="45.87925" lon="4.6604">
        <ele>342</ele>
        <time>2016-10-12T15:18:26Z</time>
      </trkpt>
      <trkpt lat="45.87925" lon="4.66043">
        <ele>342</ele>
        <time>2016-10-12T15:18:27Z</time>
      </trkpt>
      <trkpt lat="45.87925" lon="4.66055">
        <ele>342</ele>
        <time>2016-10-12T15:18:31Z</time>
      </trkpt>
      <trkpt lat="45.87924" lon="4.66059">
        <ele>342</ele>
        <time>2016-10-12T15:18:32Z</time>
      </trkpt>
      <trkpt lat="45.87925" lon="4.66069">
        <ele>343</ele>
        <time>2016-10-12T15:18:35Z</time>
      </trkpt>
      <trkpt lat="45.87925" lon="4.66073">
        <ele>343</ele>
        <time>2016-10-12T15:18:36Z</time>
      </trkpt>
      <trkpt lat="45.87925" lon="4.66083">
        <ele>343</ele>
        <time>2016-10-12T15:18:39Z</time>
      </trkpt>
      <trkpt lat="45.87925" lon="4.66087">
        <ele>345</ele>
        <time>2016-10-12T15:18:40Z</time>
      </trkpt>
      <trkpt lat="45.87925" lon="4.66098">
        <ele>346</ele>
        <time>2016-10-12T15:18:43Z</time>
      </trkpt>
      <trkpt lat="45.87925" lon="4.66101">
        <ele>346</ele>
        <time>2016-10-12T15:18:44Z</time>
      </trkpt>
      <trkpt lat="45.87922" lon="4.6611">
        <ele>347</ele>
        <time>2016-10-12T15:18:47Z</time>
      </trkpt>
      <trkpt lat="45.87921" lon="4.66114">
        <ele>347</ele>
        <time>2016-10-12T15:18:48Z</time>
      </trkpt>
      <trkpt lat="45.87921" lon="4.66126">
        <ele>348</ele>
        <time>2016-10-12T15:18:52Z</time>
      </trkpt>
      <trkpt lat="45.87922" lon="4.66127">
        <ele>348</ele>
        <time>2016-10-12T15:18:53Z</time>
      </trkpt>
      <trkpt lat="45.87928" lon="4.6613">
        <ele>348</ele>
        <time>2016-10-12T15:18:56Z</time>
      </trkpt>
      <trkpt lat="45.87931" lon="4.66132">
        <ele>348</ele>
        <time>2016-10-12T15:18:57Z</time>
      </trkpt>
      <trkpt lat="45.87938" lon="4.66138">
        <ele>349</ele>
        <time>2016-10-12T15:19:00Z</time>
      </trkpt>
      <trkpt lat="45.8794" lon="4.66139">
        <ele>349</ele>
        <time>2016-10-12T15:19:01Z</time>
      </trkpt>
      <trkpt lat="45.87946" lon="4.66141">
        <ele>349</ele>
        <time>2016-10-12T15:19:03Z</time>
      </trkpt>
      <trkpt lat="45.8795" lon="4.66142">
        <ele>349</ele>
        <time>2016-10-12T15:19:04Z</time>
      </trkpt>
      <trkpt lat="45.87956" lon="4.66142">
        <ele>348</ele>
        <time>2016-10-12T15:19:06Z</time>
      </trkpt>
      <trkpt lat="45.8796" lon="4.66142">
        <ele>348</ele>
        <time>2016-10-12T15:19:07Z</time>
      </trkpt>
      <trkpt lat="45.87967" lon="4.66142">
        <ele>348</ele>
        <time>2016-10-12T15:19:09Z</time>
      </trkpt>
      <trkpt lat="45.8797" lon="4.66143">
        <ele>348</ele>
        <time>2016-10-12T15:19:10Z</time>
      </trkpt>
      <trkpt lat="45.87978" lon="4.66143">
        <ele>348</ele>
        <time>2016-10-12T15:19:12Z</time>
      </trkpt>
      <trkpt lat="45.87982" lon="4.66143">
        <ele>348</ele>
        <time>2016-10-12T15:19:13Z</time>
      </trkpt>
      <trkpt lat="45.87989" lon="4.66142">
        <ele>348</ele>
        <time>2016-10-12T15:19:15Z</time>
      </trkpt>
      <trkpt lat="45.87992" lon="4.66143">
        <ele>348</ele>
        <time>2016-10-12T15:19:16Z</time>
      </trkpt>
      <trkpt lat="45.88" lon="4.66142">
        <ele>348</ele>
        <time>2016-10-12T15:19:18Z</time>
      </trkpt>
      <trkpt lat="45.88003" lon="4.66142">
        <ele>348</ele>
        <time>2016-10-12T15:19:19Z</time>
      </trkpt>
      <trkpt lat="45.88011" lon="4.66142">
        <ele>348</ele>
        <time>2016-10-12T15:19:21Z</time>
      </trkpt>
      <trkpt lat="45.88015" lon="4.66141">
        <ele>348</ele>
        <time>2016-10-12T15:19:22Z</time>
      </trkpt>
      <trkpt lat="45.88022" lon="4.6614">
        <ele>348</ele>
        <time>2016-10-12T15:19:24Z</time>
      </trkpt>
      <trkpt lat="45.88026" lon="4.66141">
        <ele>348</ele>
        <time>2016-10-12T15:19:25Z</time>
      </trkpt>
      <trkpt lat="45.88034" lon="4.66141">
        <ele>348</ele>
        <time>2016-10-12T15:19:27Z</time>
      </trkpt>
      <trkpt lat="45.88039" lon="4.66141">
        <ele>348</ele>
        <time>2016-10-12T15:19:28Z</time>
      </trkpt>
      <trkpt lat="45.88048" lon="4.66143">
        <ele>348</ele>
        <time>2016-10-12T15:19:30Z</time>
      </trkpt>
      <trkpt lat="45.88052" lon="4.66143">
        <ele>348</ele>
        <time>2016-10-12T15:19:31Z</time>
      </trkpt>
      <trkpt lat="45.88057" lon="4.66142">
        <ele>348</ele>
        <time>2016-10-12T15:19:32Z</time>
      </trkpt>
      <trkpt lat="45.88062" lon="4.66141">
        <ele>348</ele>
        <time>2016-10-12T15:19:33Z</time>
      </trkpt>
      <trkpt lat="45.8807" lon="4.6614">
        <ele>348</ele>
        <time>2016-10-12T15:19:35Z</time>
      </trkpt>
      <trkpt lat="45.88073" lon="4.6614">
        <ele>348</ele>
        <time>2016-10-12T15:19:36Z</time>
      </trkpt>
      <trkpt lat="45.8808" lon="4.66139">
        <ele>348</ele>
        <time>2016-10-12T15:19:38Z</time>
      </trkpt>
      <trkpt lat="45.88084" lon="4.66139">
        <ele>349</ele>
        <time>2016-10-12T15:19:39Z</time>
      </trkpt>
      <trkpt lat="45.88091" lon="4.66138">
        <ele>349</ele>
        <time>2016-10-12T15:19:41Z</time>
      </trkpt>
      <trkpt lat="45.88094" lon="4.66138">
        <ele>349</ele>
        <time>2016-10-12T15:19:42Z</time>
      </trkpt>
      <trkpt lat="45.88101" lon="4.66137">
        <ele>349</ele>
        <time>2016-10-12T15:19:44Z</time>
      </trkpt>
      <trkpt lat="45.88105" lon="4.66136">
        <ele>349</ele>
        <time>2016-10-12T15:19:45Z</time>
      </trkpt>
      <trkpt lat="45.88111" lon="4.66135">
        <ele>349</ele>
        <time>2016-10-12T15:19:47Z</time>
      </trkpt>
      <trkpt lat="45.88115" lon="4.66135">
        <ele>349</ele>
        <time>2016-10-12T15:19:48Z</time>
      </trkpt>
      <trkpt lat="45.88124" lon="4.66134">
        <ele>349</ele>
        <time>2016-10-12T15:19:50Z</time>
      </trkpt>
      <trkpt lat="45.88128" lon="4.66133">
        <ele>349</ele>
        <time>2016-10-12T15:19:51Z</time>
      </trkpt>
      <trkpt lat="45.88137" lon="4.66131">
        <ele>349</ele>
        <time>2016-10-12T15:19:53Z</time>
      </trkpt>
      <trkpt lat="45.88141" lon="4.66131">
        <ele>349</ele>
        <time>2016-10-12T15:19:54Z</time>
      </trkpt>
      <trkpt lat="45.88148" lon="4.6613">
        <ele>349</ele>
        <time>2016-10-12T15:19:56Z</time>
      </trkpt>
      <trkpt lat="45.88152" lon="4.66129">
        <ele>349</ele>
        <time>2016-10-12T15:19:57Z</time>
      </trkpt>
      <trkpt lat="45.88159" lon="4.66128">
        <ele>349</ele>
        <time>2016-10-12T15:19:59Z</time>
      </trkpt>
      <trkpt lat="45.88164" lon="4.66128">
        <ele>349</ele>
        <time>2016-10-12T15:20:00Z</time>
      </trkpt>
      <trkpt lat="45.8817" lon="4.66131">
        <ele>350</ele>
        <time>2016-10-12T15:20:02Z</time>
      </trkpt>
      <trkpt lat="45.88174" lon="4.66131">
        <ele>350</ele>
        <time>2016-10-12T15:20:03Z</time>
      </trkpt>
      <trkpt lat="45.88183" lon="4.6613">
        <ele>350</ele>
        <time>2016-10-12T15:20:05Z</time>
      </trkpt>
      <trkpt lat="45.88186" lon="4.66131">
        <ele>350</ele>
        <time>2016-10-12T15:20:06Z</time>
      </trkpt>
      <trkpt lat="45.88194" lon="4.66131">
        <ele>350</ele>
        <time>2016-10-12T15:20:08Z</time>
      </trkpt>
      <trkpt lat="45.88197" lon="4.66132">
        <ele>350</ele>
        <time>2016-10-12T15:20:09Z</time>
      </trkpt>
      <trkpt lat="45.88206" lon="4.66133">
        <ele>350</ele>
        <time>2016-10-12T15:20:11Z</time>
      </trkpt>
      <trkpt lat="45.88209" lon="4.66135">
        <ele>350</ele>
        <time>2016-10-12T15:20:12Z</time>
      </trkpt>
      <trkpt lat="45.88218" lon="4.66137">
        <ele>350</ele>
        <time>2016-10-12T15:20:15Z</time>
      </trkpt>
      <trkpt lat="45.88221" lon="4.66137">
        <ele>350</ele>
        <time>2016-10-12T15:20:16Z</time>
      </trkpt>
      <trkpt lat="45.88227" lon="4.66134">
        <ele>350</ele>
        <time>2016-10-12T15:20:18Z</time>
      </trkpt>
      <trkpt lat="45.88231" lon="4.66134">
        <ele>350</ele>
        <time>2016-10-12T15:20:19Z</time>
      </trkpt>
      <trkpt lat="45.88239" lon="4.66135">
        <ele>350</ele>
        <time>2016-10-12T15:20:21Z</time>
      </trkpt>
      <trkpt lat="45.88243" lon="4.66136">
        <ele>350</ele>
        <time>2016-10-12T15:20:22Z</time>
      </trkpt>
      <trkpt lat="45.88249" lon="4.66137">
        <ele>350</ele>
        <time>2016-10-12T15:20:24Z</time>
      </trkpt>
      <trkpt lat="45.88252" lon="4.66137">
        <ele>352</ele>
        <time>2016-10-12T15:20:25Z</time>
      </trkpt>
      <trkpt lat="45.88258" lon="4.66138">
        <ele>352</ele>
        <time>2016-10-12T15:20:27Z</time>
      </trkpt>
      <trkpt lat="45.88262" lon="4.66139">
        <ele>352</ele>
        <time>2016-10-12T15:20:28Z</time>
      </trkpt>
      <trkpt lat="45.88268" lon="4.66139">
        <ele>352</ele>
        <time>2016-10-12T15:20:30Z</time>
      </trkpt>
      <trkpt lat="45.88271" lon="4.66138">
        <ele>352</ele>
        <time>2016-10-12T15:20:31Z</time>
      </trkpt>
      <trkpt lat="45.88278" lon="4.66139">
        <ele>352</ele>
        <time>2016-10-12T15:20:33Z</time>
      </trkpt>
      <trkpt lat="45.88281" lon="4.66139">
        <ele>352</ele>
        <time>2016-10-12T15:20:34Z</time>
      </trkpt>
      <trkpt lat="45.88288" lon="4.66139">
        <ele>352</ele>
        <time>2016-10-12T15:20:36Z</time>
      </trkpt>
      <trkpt lat="45.88292" lon="4.66139">
        <ele>352</ele>
        <time>2016-10-12T15:20:37Z</time>
      </trkpt>
      <trkpt lat="45.88298" lon="4.66139">
        <ele>353</ele>
        <time>2016-10-12T15:20:39Z</time>
      </trkpt>
      <trkpt lat="45.88302" lon="4.6614">
        <ele>353</ele>
        <time>2016-10-12T15:20:40Z</time>
      </trkpt>
      <trkpt lat="45.88308" lon="4.6614">
        <ele>353</ele>
        <time>2016-10-12T15:20:42Z</time>
      </trkpt>
      <trkpt lat="45.88311" lon="4.66141">
        <ele>353</ele>
        <time>2016-10-12T15:20:43Z</time>
      </trkpt>
      <trkpt lat="45.88318" lon="4.66141">
        <ele>354</ele>
        <time>2016-10-12T15:20:45Z</time>
      </trkpt>
      <trkpt lat="45.88321" lon="4.66141">
        <ele>354</ele>
        <time>2016-10-12T15:20:46Z</time>
      </trkpt>
      <trkpt lat="45.88329" lon="4.66142">
        <ele>355</ele>
        <time>2016-10-12T15:20:49Z</time>
      </trkpt>
      <trkpt lat="45.88332" lon="4.66142">
        <ele>355</ele>
        <time>2016-10-12T15:20:50Z</time>
      </trkpt>
      <trkpt lat="45.8834" lon="4.66142">
        <ele>357</ele>
        <time>2016-10-12T15:20:53Z</time>
      </trkpt>
      <trkpt lat="45.88344" lon="4.66143">
        <ele>357</ele>
        <time>2016-10-12T15:20:54Z</time>
      </trkpt>
      <trkpt lat="45.8835" lon="4.66143">
        <ele>357</ele>
        <time>2016-10-12T15:20:56Z</time>
      </trkpt>
      <trkpt lat="45.88353" lon="4.66143">
        <ele>357</ele>
        <time>2016-10-12T15:20:57Z</time>
      </trkpt>
      <trkpt lat="45.8836" lon="4.66143">
        <ele>357</ele>
        <time>2016-10-12T15:20:59Z</time>
      </trkpt>
      <trkpt lat="45.88363" lon="4.66144">
        <ele>357</ele>
        <time>2016-10-12T15:21:00Z</time>
      </trkpt>
      <trkpt lat="45.88369" lon="4.66145">
        <ele>357</ele>
        <time>2016-10-12T15:21:02Z</time>
      </trkpt>
      <trkpt lat="45.88373" lon="4.66146">
        <ele>357</ele>
        <time>2016-10-12T15:21:03Z</time>
      </trkpt>
      <trkpt lat="45.8838" lon="4.66147">
        <ele>357</ele>
        <time>2016-10-12T15:21:06Z</time>
      </trkpt>
      <trkpt lat="45.88382" lon="4.66148">
        <ele>358</ele>
        <time>2016-10-12T15:21:07Z</time>
      </trkpt>
      <trkpt lat="45.8839" lon="4.66146">
        <ele>358</ele>
        <time>2016-10-12T15:21:10Z</time>
      </trkpt>
      <trkpt lat="45.88392" lon="4.66146">
        <ele>358</ele>
        <time>2016-10-12T15:21:11Z</time>
      </trkpt>
      <trkpt lat="45.884" lon="4.66146">
        <ele>359</ele>
        <time>2016-10-12T15:21:14Z</time>
      </trkpt>
      <trkpt lat="45.88402" lon="4.66147">
        <ele>359</ele>
        <time>2016-10-12T15:21:15Z</time>
      </trkpt>
      <trkpt lat="45.88411" lon="4.66147">
        <ele>359</ele>
        <time>2016-10-12T15:21:19Z</time>
      </trkpt>
      <trkpt lat="45.88413" lon="4.66148">
        <ele>359</ele>
        <time>2016-10-12T15:21:20Z</time>
      </trkpt>
      <trkpt lat="45.8842" lon="4.66148">
        <ele>361</ele>
        <time>2016-10-12T15:21:23Z</time>
      </trkpt>
      <trkpt lat="45.88423" lon="4.66148">
        <ele>361</ele>
        <time>2016-10-12T15:21:24Z</time>
      </trkpt>
      <trkpt lat="45.88431" lon="4.66147">
        <ele>361</ele>
        <time>2016-10-12T15:21:27Z</time>
      </trkpt>
      <trkpt lat="45.88433" lon="4.66148">
        <ele>361</ele>
        <time>2016-10-12T15:21:28Z</time>
      </trkpt>
      <trkpt lat="45.8844" lon="4.66151">
        <ele>361</ele>
        <time>2016-10-12T15:21:32Z</time>
      </trkpt>
      <trkpt lat="45.88443" lon="4.66151">
        <ele>361</ele>
        <time>2016-10-12T15:21:33Z</time>
      </trkpt>
      <trkpt lat="45.8845" lon="4.66152">
        <ele>361</ele>
        <time>2016-10-12T15:21:37Z</time>
      </trkpt>
      <trkpt lat="45.88452" lon="4.66152">
        <ele>361</ele>
        <time>2016-10-12T15:21:38Z</time>
      </trkpt>
      <trkpt lat="45.8846" lon="4.66152">
        <ele>361</ele>
        <time>2016-10-12T15:21:42Z</time>
      </trkpt>
      <trkpt lat="45.88462" lon="4.66151">
        <ele>361</ele>
        <time>2016-10-12T15:21:43Z</time>
      </trkpt>
      <trkpt lat="45.88467" lon="4.66146">
        <ele>361</ele>
        <time>2016-10-12T15:21:45Z</time>
      </trkpt>
      <trkpt lat="45.8847" lon="4.66143">
        <ele>361</ele>
        <time>2016-10-12T15:21:46Z</time>
      </trkpt>
      <trkpt lat="45.88478" lon="4.66144">
        <ele>362</ele>
        <time>2016-10-12T15:21:49Z</time>
      </trkpt>
      <trkpt lat="45.88479" lon="4.66147">
        <ele>362</ele>
        <time>2016-10-12T15:21:50Z</time>
      </trkpt>
      <trkpt lat="45.88481" lon="4.66151">
        <ele>363</ele>
        <time>2016-10-12T15:21:53Z</time>
      </trkpt>
      <trkpt lat="45.88482" lon="4.66151">
        <ele>363</ele>
        <time>2016-10-12T15:21:54Z</time>
      </trkpt>
      <trkpt lat="45.88483" lon="4.66152">
        <ele>363</ele>
        <time>2016-10-12T15:21:55Z</time>
      </trkpt>
      <trkpt lat="45.88489" lon="4.66157">
        <ele>364</ele>
        <time>2016-10-12T15:21:58Z</time>
      </trkpt>
      <trkpt lat="45.88494" lon="4.66158">
        <ele>365</ele>
        <time>2016-10-12T15:21:59Z</time>
      </trkpt>
      <trkpt lat="45.88499" lon="4.66158">
        <ele>365</ele>
        <time>2016-10-12T15:22:00Z</time>
      </trkpt>
      <trkpt lat="45.88504" lon="4.66164">
        <ele>366</ele>
        <time>2016-10-12T15:22:01Z</time>
      </trkpt>
      <trkpt lat="45.88509" lon="4.6617">
        <ele>368</ele>
        <time>2016-10-12T15:22:05Z</time>
      </trkpt>
      <trkpt lat="45.88511" lon="4.66172">
        <ele>368</ele>
        <time>2016-10-12T15:22:06Z</time>
      </trkpt>
      <trkpt lat="45.88517" lon="4.66178">
        <ele>369</ele>
        <time>2016-10-12T15:22:10Z</time>
      </trkpt>
      <trkpt lat="45.8852" lon="4.66179">
        <ele>369</ele>
        <time>2016-10-12T15:22:11Z</time>
      </trkpt>
      <trkpt lat="45.88524" lon="4.66184">
        <ele>369</ele>
        <time>2016-10-12T15:22:14Z</time>
      </trkpt>
      <trkpt lat="45.88528" lon="4.66188">
        <ele>369</ele>
        <time>2016-10-12T15:22:15Z</time>
      </trkpt>
      <trkpt lat="45.88534" lon="4.66194">
        <ele>369</ele>
        <time>2016-10-12T15:22:18Z</time>
      </trkpt>
      <trkpt lat="45.88535" lon="4.66197">
        <ele>370</ele>
        <time>2016-10-12T15:22:19Z</time>
      </trkpt>
      <trkpt lat="45.88538" lon="4.66198">
        <ele>370</ele>
        <time>2016-10-12T15:22:20Z</time>
      </trkpt>
      <trkpt lat="45.88541" lon="4.66199">
        <ele>369</ele>
        <time>2016-10-12T15:22:21Z</time>
      </trkpt>
      <trkpt lat="45.88542" lon="4.662">
        <ele>370</ele>
        <time>2016-10-12T15:22:22Z</time>
      </trkpt>
      <trkpt lat="45.88549" lon="4.66207">
        <ele>370</ele>
        <time>2016-10-12T15:22:26Z</time>
      </trkpt>
      <trkpt lat="45.88551" lon="4.66209">
        <ele>370</ele>
        <time>2016-10-12T15:22:27Z</time>
      </trkpt>
      <trkpt lat="45.88557" lon="4.66215">
        <ele>370</ele>
        <time>2016-10-12T15:22:30Z</time>
      </trkpt>
      <trkpt lat="45.88558" lon="4.66217">
        <ele>370</ele>
        <time>2016-10-12T15:22:31Z</time>
      </trkpt>
      <trkpt lat="45.88563" lon="4.66224">
        <ele>370</ele>
        <time>2016-10-12T15:22:34Z</time>
      </trkpt>
      <trkpt lat="45.88565" lon="4.66226">
        <ele>370</ele>
        <time>2016-10-12T15:22:35Z</time>
      </trkpt>
      <trkpt lat="45.8857" lon="4.66234">
        <ele>370</ele>
        <time>2016-10-12T15:22:39Z</time>
      </trkpt>
      <trkpt lat="45.88572" lon="4.66237">
        <ele>371</ele>
        <time>2016-10-12T15:22:40Z</time>
      </trkpt>
      <trkpt lat="45.88578" lon="4.66243">
        <ele>371</ele>
        <time>2016-10-12T15:22:43Z</time>
      </trkpt>
      <trkpt lat="45.88579" lon="4.66246">
        <ele>371</ele>
        <time>2016-10-12T15:22:44Z</time>
      </trkpt>
      <trkpt lat="45.88584" lon="4.66254">
        <ele>371</ele>
        <time>2016-10-12T15:22:49Z</time>
      </trkpt>
      <trkpt lat="45.88586" lon="4.66257">
        <ele>371</ele>
        <time>2016-10-12T15:22:50Z</time>
      </trkpt>
      <trkpt lat="45.88591" lon="4.66264">
        <ele>372</ele>
        <time>2016-10-12T15:22:53Z</time>
      </trkpt>
      <trkpt lat="45.88592" lon="4.66267">
        <ele>372</ele>
        <time>2016-10-12T15:22:54Z</time>
      </trkpt>
      <trkpt lat="45.88597" lon="4.66275">
        <ele>372</ele>
        <time>2016-10-12T15:22:57Z</time>
      </trkpt>
      <trkpt lat="45.88599" lon="4.66279">
        <ele>372</ele>
        <time>2016-10-12T15:22:58Z</time>
      </trkpt>
      <trkpt lat="45.88603" lon="4.66289">
        <ele>373</ele>
        <time>2016-10-12T15:23:01Z</time>
      </trkpt>
      <trkpt lat="45.88604" lon="4.66292">
        <ele>373</ele>
        <time>2016-10-12T15:23:02Z</time>
      </trkpt>
      <trkpt lat="45.88609" lon="4.66302">
        <ele>374</ele>
        <time>2016-10-12T15:23:05Z</time>
      </trkpt>
      <trkpt lat="45.88611" lon="4.66305">
        <ele>374</ele>
        <time>2016-10-12T15:23:06Z</time>
      </trkpt>
      <trkpt lat="45.88616" lon="4.66315">
        <ele>374</ele>
        <time>2016-10-12T15:23:09Z</time>
      </trkpt>
      <trkpt lat="45.88617" lon="4.66318">
        <ele>374</ele>
        <time>2016-10-12T15:23:10Z</time>
      </trkpt>
      <trkpt lat="45.88623" lon="4.66327">
        <ele>374</ele>
        <time>2016-10-12T15:23:13Z</time>
      </trkpt>
      <trkpt lat="45.88625" lon="4.6633">
        <ele>374</ele>
        <time>2016-10-12T15:23:14Z</time>
      </trkpt>
      <trkpt lat="45.8863" lon="4.66339">
        <ele>380</ele>
        <time>2016-10-12T15:23:17Z</time>
      </trkpt>
      <trkpt lat="45.88631" lon="4.66342">
        <ele>380</ele>
        <time>2016-10-12T15:23:18Z</time>
      </trkpt>
      <trkpt lat="45.88637" lon="4.66352">
        <ele>380</ele>
        <time>2016-10-12T15:23:21Z</time>
      </trkpt>
      <trkpt lat="45.88639" lon="4.66355">
        <ele>380</ele>
        <time>2016-10-12T15:23:22Z</time>
      </trkpt>
      <trkpt lat="45.88644" lon="4.66365">
        <ele>380</ele>
        <time>2016-10-12T15:23:25Z</time>
      </trkpt>
      <trkpt lat="45.88646" lon="4.66368">
        <ele>381</ele>
        <time>2016-10-12T15:23:26Z</time>
      </trkpt>
      <trkpt lat="45.8865" lon="4.66375">
        <ele>381</ele>
        <time>2016-10-12T15:23:28Z</time>
      </trkpt>
      <trkpt lat="45.88653" lon="4.66378">
        <ele>381</ele>
        <time>2016-10-12T15:23:29Z</time>
      </trkpt>
      <trkpt lat="45.88658" lon="4.66384">
        <ele>381</ele>
        <time>2016-10-12T15:23:31Z</time>
      </trkpt>
      <trkpt lat="45.88661" lon="4.66387">
        <ele>382</ele>
        <time>2016-10-12T15:23:32Z</time>
      </trkpt>
      <trkpt lat="45.88666" lon="4.66392">
        <ele>382</ele>
        <time>2016-10-12T15:23:34Z</time>
      </trkpt>
      <trkpt lat="45.88669" lon="4.66395">
        <ele>379</ele>
        <time>2016-10-12T15:23:35Z</time>
      </trkpt>
      <trkpt lat="45.88676" lon="4.66402">
        <ele>379</ele>
        <time>2016-10-12T15:23:38Z</time>
      </trkpt>
      <trkpt lat="45.88678" lon="4.66404">
        <ele>379</ele>
        <time>2016-10-12T15:23:39Z</time>
      </trkpt>
      <trkpt lat="45.88684" lon="4.66412">
        <ele>379</ele>
        <time>2016-10-12T15:23:42Z</time>
      </trkpt>
      <trkpt lat="45.88686" lon="4.66414">
        <ele>379</ele>
        <time>2016-10-12T15:23:43Z</time>
      </trkpt>
      <trkpt lat="45.88693" lon="4.66421">
        <ele>384</ele>
        <time>2016-10-12T15:23:46Z</time>
      </trkpt>
      <trkpt lat="45.88696" lon="4.66422">
        <ele>384</ele>
        <time>2016-10-12T15:23:47Z</time>
      </trkpt>
      <trkpt lat="45.88703" lon="4.66426">
        <ele>384</ele>
        <time>2016-10-12T15:23:50Z</time>
      </trkpt>
      <trkpt lat="45.88705" lon="4.66428">
        <ele>384</ele>
        <time>2016-10-12T15:23:51Z</time>
      </trkpt>
      <trkpt lat="45.88712" lon="4.66434">
        <ele>383</ele>
        <time>2016-10-12T15:23:54Z</time>
      </trkpt>
      <trkpt lat="45.88714" lon="4.66436">
        <ele>383</ele>
        <time>2016-10-12T15:23:55Z</time>
      </trkpt>
      <trkpt lat="45.88718" lon="4.66444">
        <ele>384</ele>
        <time>2016-10-12T15:23:58Z</time>
      </trkpt>
      <trkpt lat="45.8872" lon="4.66446">
        <ele>384</ele>
        <time>2016-10-12T15:23:59Z</time>
      </trkpt>
      <trkpt lat="45.88728" lon="4.66451">
        <ele>384</ele>
        <time>2016-10-12T15:24:02Z</time>
      </trkpt>
      <trkpt lat="45.8873" lon="4.66454">
        <ele>384</ele>
        <time>2016-10-12T15:24:03Z</time>
      </trkpt>
      <trkpt lat="45.88736" lon="4.66461">
        <ele>384</ele>
        <time>2016-10-12T15:24:06Z</time>
      </trkpt>
      <trkpt lat="45.88737" lon="4.66464">
        <ele>384</ele>
        <time>2016-10-12T15:24:07Z</time>
      </trkpt>
      <trkpt lat="45.88742" lon="4.66471">
        <ele>385</ele>
        <time>2016-10-12T15:24:10Z</time>
      </trkpt>
      <trkpt lat="45.88743" lon="4.66474">
        <ele>385</ele>
        <time>2016-10-12T15:24:11Z</time>
      </trkpt>
      <trkpt lat="45.88749" lon="4.6648">
        <ele>385</ele>
        <time>2016-10-12T15:24:14Z</time>
      </trkpt>
      <trkpt lat="45.88751" lon="4.66482">
        <ele>384</ele>
        <time>2016-10-12T15:24:15Z</time>
      </trkpt>
      <trkpt lat="45.88756" lon="4.66488">
        <ele>384</ele>
        <time>2016-10-12T15:24:18Z</time>
      </trkpt>
      <trkpt lat="45.88758" lon="4.6649">
        <ele>385</ele>
        <time>2016-10-12T15:24:19Z</time>
      </trkpt>
      <trkpt lat="45.88764" lon="4.66495">
        <ele>384</ele>
        <time>2016-10-12T15:24:22Z</time>
      </trkpt>
      <trkpt lat="45.88766" lon="4.66497">
        <ele>384</ele>
        <time>2016-10-12T15:24:23Z</time>
      </trkpt>
      <trkpt lat="45.88771" lon="4.66507">
        <ele>389</ele>
        <time>2016-10-12T15:24:27Z</time>
      </trkpt>
      <trkpt lat="45.88772" lon="4.66509">
        <ele>390</ele>
        <time>2016-10-12T15:24:28Z</time>
      </trkpt>
      <trkpt lat="45.88779" lon="4.66516">
        <ele>390</ele>
        <time>2016-10-12T15:24:32Z</time>
      </trkpt>
      <trkpt lat="45.8878" lon="4.66518">
        <ele>390</ele>
        <time>2016-10-12T15:24:33Z</time>
      </trkpt>
      <trkpt lat="45.88787" lon="4.66525">
        <ele>391</ele>
        <time>2016-10-12T15:24:38Z</time>
      </trkpt>
      <trkpt lat="45.88788" lon="4.66527">
        <ele>391</ele>
        <time>2016-10-12T15:24:39Z</time>
      </trkpt>
      <trkpt lat="45.88795" lon="4.66533">
        <ele>391</ele>
        <time>2016-10-12T15:24:43Z</time>
      </trkpt>
      <trkpt lat="45.88797" lon="4.66534">
        <ele>391</ele>
        <time>2016-10-12T15:24:44Z</time>
      </trkpt>
      <trkpt lat="45.88803" lon="4.66539">
        <ele>391</ele>
        <time>2016-10-12T15:24:47Z</time>
      </trkpt>
      <trkpt lat="45.88806" lon="4.66541">
        <ele>391</ele>
        <time>2016-10-12T15:24:48Z</time>
      </trkpt>
      <trkpt lat="45.88814" lon="4.66545">
        <ele>392</ele>
        <time>2016-10-12T15:24:52Z</time>
      </trkpt>
      <trkpt lat="45.88816" lon="4.66546">
        <ele>392</ele>
        <time>2016-10-12T15:24:53Z</time>
      </trkpt>
      <trkpt lat="45.88823" lon="4.66552">
        <ele>392</ele>
        <time>2016-10-12T15:24:57Z</time>
      </trkpt>
      <trkpt lat="45.88825" lon="4.66553">
        <ele>392</ele>
        <time>2016-10-12T15:24:58Z</time>
      </trkpt>
      <trkpt lat="45.88832" lon="4.66556">
        <ele>393</ele>
        <time>2016-10-12T15:25:02Z</time>
      </trkpt>
      <trkpt lat="45.88834" lon="4.66557">
        <ele>391</ele>
        <time>2016-10-12T15:25:03Z</time>
      </trkpt>
      <trkpt lat="45.88841" lon="4.66562">
        <ele>392</ele>
        <time>2016-10-12T15:25:07Z</time>
      </trkpt>
      <trkpt lat="45.88842" lon="4.66562">
        <ele>392</ele>
        <time>2016-10-12T15:25:08Z</time>
      </trkpt>
      <trkpt lat="45.8885" lon="4.66566">
        <ele>392</ele>
        <time>2016-10-12T15:25:12Z</time>
      </trkpt>
      <trkpt lat="45.88852" lon="4.66568">
        <ele>392</ele>
        <time>2016-10-12T15:25:13Z</time>
      </trkpt>
      <trkpt lat="45.88858" lon="4.66574">
        <ele>392</ele>
        <time>2016-10-12T15:25:17Z</time>
      </trkpt>
      <trkpt lat="45.88859" lon="4.66576">
        <ele>392</ele>
        <time>2016-10-12T15:25:18Z</time>
      </trkpt>
      <trkpt lat="45.88868" lon="4.6658">
        <ele>392</ele>
        <time>2016-10-12T15:25:22Z</time>
      </trkpt>
      <trkpt lat="45.8887" lon="4.66582">
        <ele>392</ele>
        <time>2016-10-12T15:25:23Z</time>
      </trkpt>
      <trkpt lat="45.88874" lon="4.66592">
        <ele>399</ele>
        <time>2016-10-12T15:25:28Z</time>
      </trkpt>
      <trkpt lat="45.88875" lon="4.66594">
        <ele>399</ele>
        <time>2016-10-12T15:25:29Z</time>
      </trkpt>
      <trkpt lat="45.88882" lon="4.66603">
        <ele>400</ele>
        <time>2016-10-12T15:25:33Z</time>
      </trkpt>
      <trkpt lat="45.88883" lon="4.66606">
        <ele>400</ele>
        <time>2016-10-12T15:25:34Z</time>
      </trkpt>
      <trkpt lat="45.88887" lon="4.66616">
        <ele>400</ele>
        <time>2016-10-12T15:25:38Z</time>
      </trkpt>
      <trkpt lat="45.88888" lon="4.66618">
        <ele>400</ele>
        <time>2016-10-12T15:25:39Z</time>
      </trkpt>
      <trkpt lat="45.88894" lon="4.66628">
        <ele>401</ele>
        <time>2016-10-12T15:25:43Z</time>
      </trkpt>
      <trkpt lat="45.88895" lon="4.6663">
        <ele>401</ele>
        <time>2016-10-12T15:25:44Z</time>
      </trkpt>
      <trkpt lat="45.88899" lon="4.66637">
        <ele>402</ele>
        <time>2016-10-12T15:25:47Z</time>
      </trkpt>
      <trkpt lat="45.88902" lon="4.6664">
        <ele>402</ele>
        <time>2016-10-12T15:25:48Z</time>
      </trkpt>
      <trkpt lat="45.88908" lon="4.66647">
        <ele>403</ele>
        <time>2016-10-12T15:25:51Z</time>
      </trkpt>
      <trkpt lat="45.88911" lon="4.66649">
        <ele>403</ele>
        <time>2016-10-12T15:25:52Z</time>
      </trkpt>
      <trkpt lat="45.88916" lon="4.66656">
        <ele>404</ele>
        <time>2016-10-12T15:25:54Z</time>
      </trkpt>
      <trkpt lat="45.88918" lon="4.66659">
        <ele>404</ele>
        <time>2016-10-12T15:25:55Z</time>
      </trkpt>
      <trkpt lat="45.88925" lon="4.66666">
        <ele>404</ele>
        <time>2016-10-12T15:25:58Z</time>
      </trkpt>
      <trkpt lat="45.88927" lon="4.66668">
        <ele>407</ele>
        <time>2016-10-12T15:25:59Z</time>
      </trkpt>
      <trkpt lat="45.88933" lon="4.66674">
        <ele>408</ele>
        <time>2016-10-12T15:26:02Z</time>
      </trkpt>
      <trkpt lat="45.88935" lon="4.66675">
        <ele>408</ele>
        <time>2016-10-12T15:26:03Z</time>
      </trkpt>
      <trkpt lat="45.88944" lon="4.66681">
        <ele>408</ele>
        <time>2016-10-12T15:26:07Z</time>
      </trkpt>
      <trkpt lat="45.88946" lon="4.66682">
        <ele>408</ele>
        <time>2016-10-12T15:26:08Z</time>
      </trkpt>
      <trkpt lat="45.88953" lon="4.66687">
        <ele>409</ele>
        <time>2016-10-12T15:26:11Z</time>
      </trkpt>
      <trkpt lat="45.88954" lon="4.66688">
        <ele>409</ele>
        <time>2016-10-12T15:26:12Z</time>
      </trkpt>
      <trkpt lat="45.88962" lon="4.66695">
        <ele>409</ele>
        <time>2016-10-12T15:26:16Z</time>
      </trkpt>
      <trkpt lat="45.88964" lon="4.66698">
        <ele>409</ele>
        <time>2016-10-12T15:26:17Z</time>
      </trkpt>
      <trkpt lat="45.88971" lon="4.66703">
        <ele>409</ele>
        <time>2016-10-12T15:26:20Z</time>
      </trkpt>
      <trkpt lat="45.88974" lon="4.66703">
        <ele>409</ele>
        <time>2016-10-12T15:26:21Z</time>
      </trkpt>
      <trkpt lat="45.88982" lon="4.66703">
        <ele>409</ele>
        <time>2016-10-12T15:26:23Z</time>
      </trkpt>
      <trkpt lat="45.88985" lon="4.66703">
        <ele>409</ele>
        <time>2016-10-12T15:26:24Z</time>
      </trkpt>
      <trkpt lat="45.88993" lon="4.66707">
        <ele>409</ele>
        <time>2016-10-12T15:26:26Z</time>
      </trkpt>
      <trkpt lat="45.88996" lon="4.66706">
        <ele>409</ele>
        <time>2016-10-12T15:26:27Z</time>
      </trkpt>
      <trkpt lat="45.89003" lon="4.66711">
        <ele>407</ele>
        <time>2016-10-12T15:26:30Z</time>
      </trkpt>
      <trkpt lat="45.89006" lon="4.66712">
        <ele>407</ele>
        <time>2016-10-12T15:26:31Z</time>
      </trkpt>
      <trkpt lat="45.89011" lon="4.66717">
        <ele>407</ele>
        <time>2016-10-12T15:26:33Z</time>
      </trkpt>
      <trkpt lat="45.89015" lon="4.66719">
        <ele>407</ele>
        <time>2016-10-12T15:26:34Z</time>
      </trkpt>
      <trkpt lat="45.89019" lon="4.66722">
        <ele>407</ele>
        <time>2016-10-12T15:26:35Z</time>
      </trkpt>
      <trkpt lat="45.89024" lon="4.66723">
        <ele>407</ele>
        <time>2016-10-12T15:26:36Z</time>
      </trkpt>
      <trkpt lat="45.89029" lon="4.66725">
        <ele>407</ele>
        <time>2016-10-12T15:26:37Z</time>
      </trkpt>
      <trkpt lat="45.89033" lon="4.66725">
        <ele>407</ele>
        <time>2016-10-12T15:26:38Z</time>
      </trkpt>
      <trkpt lat="45.8904" lon="4.66727">
        <ele>407</ele>
        <time>2016-10-12T15:26:41Z</time>
      </trkpt>
      <trkpt lat="45.89042" lon="4.66729">
        <ele>407</ele>
        <time>2016-10-12T15:26:42Z</time>
      </trkpt>
      <trkpt lat="45.89049" lon="4.66733">
        <ele>407</ele>
        <time>2016-10-12T15:26:45Z</time>
      </trkpt>
      <trkpt lat="45.89051" lon="4.66735">
        <ele>407</ele>
        <time>2016-10-12T15:26:46Z</time>
      </trkpt>
      <trkpt lat="45.89056" lon="4.6674">
        <ele>407</ele>
        <time>2016-10-12T15:26:48Z</time>
      </trkpt>
      <trkpt lat="45.8906" lon="4.66742">
        <ele>407</ele>
        <time>2016-10-12T15:26:49Z</time>
      </trkpt>
      <trkpt lat="45.89065" lon="4.66743">
        <ele>407</ele>
        <time>2016-10-12T15:26:51Z</time>
      </trkpt>
      <trkpt lat="45.89069" lon="4.66745">
        <ele>408</ele>
        <time>2016-10-12T15:26:52Z</time>
      </trkpt>
      <trkpt lat="45.89073" lon="4.66754">
        <ele>411</ele>
        <time>2016-10-12T15:26:56Z</time>
      </trkpt>
      <trkpt lat="45.89074" lon="4.66758">
        <ele>411</ele>
        <time>2016-10-12T15:26:57Z</time>
      </trkpt>
      <trkpt lat="45.89082" lon="4.66764">
        <ele>411</ele>
        <time>2016-10-12T15:27:00Z</time>
      </trkpt>
      <trkpt lat="45.89084" lon="4.66766">
        <ele>409</ele>
        <time>2016-10-12T15:27:01Z</time>
      </trkpt>
      <trkpt lat="45.89091" lon="4.66768">
        <ele>409</ele>
        <time>2016-10-12T15:27:03Z</time>
      </trkpt>
      <trkpt lat="45.89095" lon="4.6677">
        <ele>409</ele>
        <time>2016-10-12T15:27:04Z</time>
      </trkpt>
      <trkpt lat="45.89103" lon="4.66774">
        <ele>409</ele>
        <time>2016-10-12T15:27:07Z</time>
      </trkpt>
      <trkpt lat="45.89106" lon="4.66777">
        <ele>410</ele>
        <time>2016-10-12T15:27:08Z</time>
      </trkpt>
      <trkpt lat="45.89112" lon="4.66783">
        <ele>410</ele>
        <time>2016-10-12T15:27:10Z</time>
      </trkpt>
      <trkpt lat="45.89114" lon="4.66787">
        <ele>410</ele>
        <time>2016-10-12T15:27:11Z</time>
      </trkpt>
      <trkpt lat="45.8912" lon="4.66793">
        <ele>410</ele>
        <time>2016-10-12T15:27:13Z</time>
      </trkpt>
      <trkpt lat="45.89123" lon="4.66795">
        <ele>410</ele>
        <time>2016-10-12T15:27:14Z</time>
      </trkpt>
      <trkpt lat="45.89128" lon="4.66799">
        <ele>410</ele>
        <time>2016-10-12T15:27:16Z</time>
      </trkpt>
      <trkpt lat="45.89131" lon="4.668">
        <ele>410</ele>
        <time>2016-10-12T15:27:17Z</time>
      </trkpt>
      <trkpt lat="45.89138" lon="4.66804">
        <ele>410</ele>
        <time>2016-10-12T15:27:19Z</time>
      </trkpt>
      <trkpt lat="45.89142" lon="4.66806">
        <ele>410</ele>
        <time>2016-10-12T15:27:20Z</time>
      </trkpt>
      <trkpt lat="45.89149" lon="4.6681">
        <ele>411</ele>
        <time>2016-10-12T15:27:22Z</time>
      </trkpt>
      <trkpt lat="45.89153" lon="4.66814">
        <ele>411</ele>
        <time>2016-10-12T15:27:23Z</time>
      </trkpt>
      <trkpt lat="45.89157" lon="4.6682">
        <ele>412</ele>
        <time>2016-10-12T15:27:24Z</time>
      </trkpt>
      <trkpt lat="45.89159" lon="4.66827">
        <ele>412</ele>
        <time>2016-10-12T15:27:25Z</time>
      </trkpt>
      <trkpt lat="45.89157" lon="4.66839">
        <ele>414</ele>
        <time>2016-10-12T15:27:27Z</time>
      </trkpt>
      <trkpt lat="45.89157" lon="4.66844">
        <ele>414</ele>
        <time>2016-10-12T15:27:28Z</time>
      </trkpt>
      <trkpt lat="45.89154" lon="4.66854">
        <ele>414</ele>
        <time>2016-10-12T15:27:30Z</time>
      </trkpt>
      <trkpt lat="45.89154" lon="4.66859">
        <ele>414</ele>
        <time>2016-10-12T15:27:31Z</time>
      </trkpt>
      <trkpt lat="45.8915" lon="4.66869">
        <ele>414</ele>
        <time>2016-10-12T15:27:33Z</time>
      </trkpt>
      <trkpt lat="45.89153" lon="4.66874">
        <ele>414</ele>
        <time>2016-10-12T15:27:34Z</time>
      </trkpt>
      <trkpt lat="45.89156" lon="4.66886">
        <ele>414</ele>
        <time>2016-10-12T15:27:36Z</time>
      </trkpt>
      <trkpt lat="45.89157" lon="4.66891">
        <ele>414</ele>
        <time>2016-10-12T15:27:37Z</time>
      </trkpt>
      <trkpt lat="45.8916" lon="4.66898">
        <ele>415</ele>
        <time>2016-10-12T15:27:38Z</time>
      </trkpt>
      <trkpt lat="45.89163" lon="4.66905">
        <ele>415</ele>
        <time>2016-10-12T15:27:39Z</time>
      </trkpt>
      <trkpt lat="45.89166" lon="4.66915">
        <ele>415</ele>
        <time>2016-10-12T15:27:41Z</time>
      </trkpt>
      <trkpt lat="45.89167" lon="4.66919">
        <ele>415</ele>
        <time>2016-10-12T15:27:42Z</time>
      </trkpt>
      <trkpt lat="45.89169" lon="4.66925">
        <ele>415</ele>
        <time>2016-10-12T15:27:43Z</time>
      </trkpt>
      <trkpt lat="45.89171" lon="4.66931">
        <ele>415</ele>
        <time>2016-10-12T15:27:44Z</time>
      </trkpt>
      <trkpt lat="45.8917" lon="4.6694">
        <ele>415</ele>
        <time>2016-10-12T15:27:46Z</time>
      </trkpt>
      <trkpt lat="45.89171" lon="4.66947">
        <ele>415</ele>
        <time>2016-10-12T15:27:47Z</time>
      </trkpt>
      <trkpt lat="45.89174" lon="4.66959">
        <ele>415</ele>
        <time>2016-10-12T15:27:49Z</time>
      </trkpt>
      <trkpt lat="45.89176" lon="4.66966">
        <ele>415</ele>
        <time>2016-10-12T15:27:50Z</time>
      </trkpt>
      <trkpt lat="45.89177" lon="4.66972">
        <ele>415</ele>
        <time>2016-10-12T15:27:51Z</time>
      </trkpt>
      <trkpt lat="45.89178" lon="4.66978">
        <ele>414</ele>
        <time>2016-10-12T15:27:52Z</time>
      </trkpt>
      <trkpt lat="45.89173" lon="4.66988">
        <ele>413</ele>
        <time>2016-10-12T15:27:55Z</time>
      </trkpt>
      <trkpt lat="45.89176" lon="4.66991">
        <ele>413</ele>
        <time>2016-10-12T15:27:56Z</time>
      </trkpt>
      <trkpt lat="45.8918" lon="4.67002">
        <ele>412</ele>
        <time>2016-10-12T15:27:58Z</time>
      </trkpt>
      <trkpt lat="45.89183" lon="4.67007">
        <ele>412</ele>
        <time>2016-10-12T15:27:59Z</time>
      </trkpt>
      <trkpt lat="45.89185" lon="4.67014">
        <ele>412</ele>
        <time>2016-10-12T15:28:00Z</time>
      </trkpt>
      <trkpt lat="45.89187" lon="4.6702">
        <ele>413</ele>
        <time>2016-10-12T15:28:01Z</time>
      </trkpt>
      <trkpt lat="45.89189" lon="4.67026">
        <ele>413</ele>
        <time>2016-10-12T15:28:02Z</time>
      </trkpt>
      <trkpt lat="45.89191" lon="4.67033">
        <ele>413</ele>
        <time>2016-10-12T15:28:03Z</time>
      </trkpt>
      <trkpt lat="45.89192" lon="4.67039">
        <ele>412</ele>
        <time>2016-10-12T15:28:04Z</time>
      </trkpt>
      <trkpt lat="45.89195" lon="4.67045">
        <ele>412</ele>
        <time>2016-10-12T15:28:05Z</time>
      </trkpt>
      <trkpt lat="45.89197" lon="4.67051">
        <ele>412</ele>
        <time>2016-10-12T15:28:06Z</time>
      </trkpt>
      <trkpt lat="45.89199" lon="4.67058">
        <ele>412</ele>
        <time>2016-10-12T15:28:07Z</time>
      </trkpt>
      <trkpt lat="45.89201" lon="4.67064">
        <ele>412</ele>
        <time>2016-10-12T15:28:08Z</time>
      </trkpt>
      <trkpt lat="45.89203" lon="4.6707">
        <ele>412</ele>
        <time>2016-10-12T15:28:09Z</time>
      </trkpt>
      <trkpt lat="45.89206" lon="4.67077">
        <ele>412</ele>
        <time>2016-10-12T15:28:10Z</time>
      </trkpt>
      <trkpt lat="45.89209" lon="4.67084">
        <ele>410</ele>
        <time>2016-10-12T15:28:11Z</time>
      </trkpt>
      <trkpt lat="45.89212" lon="4.6709">
        <ele>410</ele>
        <time>2016-10-12T15:28:12Z</time>
      </trkpt>
      <trkpt lat="45.89216" lon="4.67097">
        <ele>411</ele>
        <time>2016-10-12T15:28:13Z</time>
      </trkpt>
      <trkpt lat="45.89218" lon="4.67103">
        <ele>411</ele>
        <time>2016-10-12T15:28:14Z</time>
      </trkpt>
      <trkpt lat="45.8922" lon="4.67109">
        <ele>411</ele>
        <time>2016-10-12T15:28:15Z</time>
      </trkpt>
      <trkpt lat="45.89222" lon="4.6712">
        <ele>410</ele>
        <time>2016-10-12T15:28:17Z</time>
      </trkpt>
      <trkpt lat="45.89225" lon="4.67126">
        <ele>410</ele>
        <time>2016-10-12T15:28:18Z</time>
      </trkpt>
      <trkpt lat="45.89228" lon="4.67131">
        <ele>410</ele>
        <time>2016-10-12T15:28:19Z</time>
      </trkpt>
      <trkpt lat="45.89231" lon="4.67137">
        <ele>411</ele>
        <time>2016-10-12T15:28:20Z</time>
      </trkpt>
      <trkpt lat="45.89234" lon="4.67143">
        <ele>411</ele>
        <time>2016-10-12T15:28:21Z</time>
      </trkpt>
      <trkpt lat="45.89237" lon="4.67149">
        <ele>411</ele>
        <time>2016-10-12T15:28:22Z</time>
      </trkpt>
      <trkpt lat="45.89241" lon="4.67155">
        <ele>411</ele>
        <time>2016-10-12T15:28:23Z</time>
      </trkpt>
      <trkpt lat="45.89245" lon="4.67161">
        <ele>412</ele>
        <time>2016-10-12T15:28:24Z</time>
      </trkpt>
      <trkpt lat="45.89249" lon="4.67166">
        <ele>413</ele>
        <time>2016-10-12T15:28:25Z</time>
      </trkpt>
      <trkpt lat="45.89253" lon="4.67171">
        <ele>413</ele>
        <time>2016-10-12T15:28:26Z</time>
      </trkpt>
      <trkpt lat="45.89258" lon="4.67177">
        <ele>412</ele>
        <time>2016-10-12T15:28:27Z</time>
      </trkpt>
      <trkpt lat="45.89263" lon="4.67182">
        <ele>412</ele>
        <time>2016-10-12T15:28:28Z</time>
      </trkpt>
      <trkpt lat="45.89268" lon="4.67186">
        <ele>412</ele>
        <time>2016-10-12T15:28:29Z</time>
      </trkpt>
      <trkpt lat="45.89273" lon="4.6719">
        <ele>411</ele>
        <time>2016-10-12T15:28:30Z</time>
      </trkpt>
      <trkpt lat="45.89279" lon="4.67194">
        <ele>411</ele>
        <time>2016-10-12T15:28:31Z</time>
      </trkpt>
      <trkpt lat="45.89285" lon="4.67198">
        <ele>411</ele>
        <time>2016-10-12T15:28:32Z</time>
      </trkpt>
      <trkpt lat="45.8929" lon="4.67202">
        <ele>411</ele>
        <time>2016-10-12T15:28:33Z</time>
      </trkpt>
      <trkpt lat="45.89296" lon="4.67204">
        <ele>411</ele>
        <time>2016-10-12T15:28:34Z</time>
      </trkpt>
      <trkpt lat="45.89301" lon="4.67206">
        <ele>411</ele>
        <time>2016-10-12T15:28:35Z</time>
      </trkpt>
      <trkpt lat="45.89306" lon="4.67209">
        <ele>411</ele>
        <time>2016-10-12T15:28:36Z</time>
      </trkpt>
      <trkpt lat="45.89311" lon="4.67211">
        <ele>411</ele>
        <time>2016-10-12T15:28:37Z</time>
      </trkpt>
      <trkpt lat="45.89315" lon="4.67214">
        <ele>411</ele>
        <time>2016-10-12T15:28:38Z</time>
      </trkpt>
      <trkpt lat="45.8932" lon="4.67216">
        <ele>411</ele>
        <time>2016-10-12T15:28:39Z</time>
      </trkpt>
      <trkpt lat="45.89324" lon="4.6722">
        <ele>411</ele>
        <time>2016-10-12T15:28:40Z</time>
      </trkpt>
      <trkpt lat="45.89329" lon="4.67222">
        <ele>411</ele>
        <time>2016-10-12T15:28:41Z</time>
      </trkpt>
      <trkpt lat="45.89333" lon="4.67225">
        <ele>411</ele>
        <time>2016-10-12T15:28:42Z</time>
      </trkpt>
      <trkpt lat="45.89337" lon="4.67229">
        <ele>414</ele>
        <time>2016-10-12T15:28:43Z</time>
      </trkpt>
      <trkpt lat="45.89341" lon="4.67233">
        <ele>413</ele>
        <time>2016-10-12T15:28:44Z</time>
      </trkpt>
      <trkpt lat="45.89346" lon="4.67238">
        <ele>413</ele>
        <time>2016-10-12T15:28:45Z</time>
      </trkpt>
      <trkpt lat="45.89351" lon="4.67243">
        <ele>413</ele>
        <time>2016-10-12T15:28:46Z</time>
      </trkpt>
      <trkpt lat="45.89355" lon="4.6725">
        <ele>409</ele>
        <time>2016-10-12T15:28:47Z</time>
      </trkpt>
      <trkpt lat="45.8936" lon="4.67257">
        <ele>409</ele>
        <time>2016-10-12T15:28:48Z</time>
      </trkpt>
      <trkpt lat="45.89364" lon="4.67264">
        <ele>408</ele>
        <time>2016-10-12T15:28:49Z</time>
      </trkpt>
      <trkpt lat="45.89368" lon="4.6727">
        <ele>408</ele>
        <time>2016-10-12T15:28:50Z</time>
      </trkpt>
      <trkpt lat="45.89372" lon="4.67277">
        <ele>408</ele>
        <time>2016-10-12T15:28:51Z</time>
      </trkpt>
      <trkpt lat="45.89377" lon="4.67283">
        <ele>408</ele>
        <time>2016-10-12T15:28:52Z</time>
      </trkpt>
      <trkpt lat="45.89381" lon="4.67289">
        <ele>408</ele>
        <time>2016-10-12T15:28:53Z</time>
      </trkpt>
      <trkpt lat="45.89385" lon="4.67295">
        <ele>408</ele>
        <time>2016-10-12T15:28:54Z</time>
      </trkpt>
      <trkpt lat="45.89389" lon="4.673">
        <ele>408</ele>
        <time>2016-10-12T15:28:55Z</time>
      </trkpt>
      <trkpt lat="45.89393" lon="4.67305">
        <ele>408</ele>
        <time>2016-10-12T15:28:56Z</time>
      </trkpt>
      <trkpt lat="45.89396" lon="4.6731">
        <ele>407</ele>
        <time>2016-10-12T15:28:57Z</time>
      </trkpt>
      <trkpt lat="45.89401" lon="4.67316">
        <ele>407</ele>
        <time>2016-10-12T15:28:58Z</time>
      </trkpt>
      <trkpt lat="45.89406" lon="4.67322">
        <ele>407</ele>
        <time>2016-10-12T15:28:59Z</time>
      </trkpt>
      <trkpt lat="45.8941" lon="4.67327">
        <ele>407</ele>
        <time>2016-10-12T15:29:00Z</time>
      </trkpt>
      <trkpt lat="45.89414" lon="4.67333">
        <ele>407</ele>
        <time>2016-10-12T15:29:01Z</time>
      </trkpt>
      <trkpt lat="45.89419" lon="4.67339">
        <ele>407</ele>
        <time>2016-10-12T15:29:02Z</time>
      </trkpt>
      <trkpt lat="45.89424" lon="4.67344">
        <ele>407</ele>
        <time>2016-10-12T15:29:03Z</time>
      </trkpt>
      <trkpt lat="45.8943" lon="4.6735">
        <ele>407</ele>
        <time>2016-10-12T15:29:04Z</time>
      </trkpt>
      <trkpt lat="45.89435" lon="4.67356">
        <ele>407</ele>
        <time>2016-10-12T15:29:05Z</time>
      </trkpt>
      <trkpt lat="45.89441" lon="4.67361">
        <ele>407</ele>
        <time>2016-10-12T15:29:06Z</time>
      </trkpt>
      <trkpt lat="45.89446" lon="4.67367">
        <ele>407</ele>
        <time>2016-10-12T15:29:07Z</time>
      </trkpt>
      <trkpt lat="45.89452" lon="4.67373">
        <ele>407</ele>
        <time>2016-10-12T15:29:08Z</time>
      </trkpt>
      <trkpt lat="45.89456" lon="4.67379">
        <ele>407</ele>
        <time>2016-10-12T15:29:09Z</time>
      </trkpt>
      <trkpt lat="45.89463" lon="4.67384">
        <ele>407</ele>
        <time>2016-10-12T15:29:10Z</time>
      </trkpt>
      <trkpt lat="45.8947" lon="4.6739">
        <ele>406</ele>
        <time>2016-10-12T15:29:11Z</time>
      </trkpt>
      <trkpt lat="45.89475" lon="4.67394">
        <ele>406</ele>
        <time>2016-10-12T15:29:12Z</time>
      </trkpt>
      <trkpt lat="45.89482" lon="4.67397">
        <ele>406</ele>
        <time>2016-10-12T15:29:13Z</time>
      </trkpt>
      <trkpt lat="45.89488" lon="4.67399">
        <ele>406</ele>
        <time>2016-10-12T15:29:14Z</time>
      </trkpt>
      <trkpt lat="45.89495" lon="4.67403">
        <ele>406</ele>
        <time>2016-10-12T15:29:15Z</time>
      </trkpt>
      <trkpt lat="45.89501" lon="4.67407">
        <ele>407</ele>
        <time>2016-10-12T15:29:16Z</time>
      </trkpt>
      <trkpt lat="45.89506" lon="4.67411">
        <ele>407</ele>
        <time>2016-10-12T15:29:17Z</time>
      </trkpt>
      <trkpt lat="45.89512" lon="4.67415">
        <ele>407</ele>
        <time>2016-10-12T15:29:18Z</time>
      </trkpt>
      <trkpt lat="45.89517" lon="4.67419">
        <ele>402</ele>
        <time>2016-10-12T15:29:19Z</time>
      </trkpt>
      <trkpt lat="45.89523" lon="4.67422">
        <ele>402</ele>
        <time>2016-10-12T15:29:20Z</time>
      </trkpt>
      <trkpt lat="45.89529" lon="4.67425">
        <ele>402</ele>
        <time>2016-10-12T15:29:21Z</time>
      </trkpt>
      <trkpt lat="45.89536" lon="4.67428">
        <ele>402</ele>
        <time>2016-10-12T15:29:22Z</time>
      </trkpt>
      <trkpt lat="45.89542" lon="4.6743">
        <ele>402</ele>
        <time>2016-10-12T15:29:23Z</time>
      </trkpt>
      <trkpt lat="45.89548" lon="4.67432">
        <ele>402</ele>
        <time>2016-10-12T15:29:24Z</time>
      </trkpt>
      <trkpt lat="45.89554" lon="4.67434">
        <ele>402</ele>
        <time>2016-10-12T15:29:25Z</time>
      </trkpt>
      <trkpt lat="45.89559" lon="4.67436">
        <ele>403</ele>
        <time>2016-10-12T15:29:26Z</time>
      </trkpt>
      <trkpt lat="45.89566" lon="4.67439">
        <ele>403</ele>
        <time>2016-10-12T15:29:27Z</time>
      </trkpt>
      <trkpt lat="45.89573" lon="4.67441">
        <ele>403</ele>
        <time>2016-10-12T15:29:28Z</time>
      </trkpt>
      <trkpt lat="45.89579" lon="4.67445">
        <ele>402</ele>
        <time>2016-10-12T15:29:29Z</time>
      </trkpt>
      <trkpt lat="45.89585" lon="4.67448">
        <ele>404</ele>
        <time>2016-10-12T15:29:30Z</time>
      </trkpt>
      <trkpt lat="45.89592" lon="4.6745">
        <ele>404</ele>
        <time>2016-10-12T15:29:31Z</time>
      </trkpt>
      <trkpt lat="45.89599" lon="4.67454">
        <ele>403</ele>
        <time>2016-10-12T15:29:32Z</time>
      </trkpt>
      <trkpt lat="45.89606" lon="4.67457">
        <ele>403</ele>
        <time>2016-10-12T15:29:33Z</time>
      </trkpt>
      <trkpt lat="45.89612" lon="4.6746">
        <ele>403</ele>
        <time>2016-10-12T15:29:34Z</time>
      </trkpt>
      <trkpt lat="45.89619" lon="4.67463">
        <ele>403</ele>
        <time>2016-10-12T15:29:35Z</time>
      </trkpt>
      <trkpt lat="45.89626" lon="4.67465">
        <ele>403</ele>
        <time>2016-10-12T15:29:36Z</time>
      </trkpt>
      <trkpt lat="45.89633" lon="4.67467">
        <ele>403</ele>
        <time>2016-10-12T15:29:37Z</time>
      </trkpt>
      <trkpt lat="45.89639" lon="4.67468">
        <ele>403</ele>
        <time>2016-10-12T15:29:38Z</time>
      </trkpt>
      <trkpt lat="45.89646" lon="4.6747">
        <ele>403</ele>
        <time>2016-10-12T15:29:39Z</time>
      </trkpt>
      <trkpt lat="45.89653" lon="4.67472">
        <ele>402</ele>
        <time>2016-10-12T15:29:40Z</time>
      </trkpt>
      <trkpt lat="45.89658" lon="4.67475">
        <ele>402</ele>
        <time>2016-10-12T15:29:41Z</time>
      </trkpt>
      <trkpt lat="45.89664" lon="4.67477">
        <ele>402</ele>
        <time>2016-10-12T15:29:42Z</time>
      </trkpt>
      <trkpt lat="45.8967" lon="4.6748">
        <ele>402</ele>
        <time>2016-10-12T15:29:43Z</time>
      </trkpt>
      <trkpt lat="45.89677" lon="4.67483">
        <ele>402</ele>
        <time>2016-10-12T15:29:44Z</time>
      </trkpt>
      <trkpt lat="45.89682" lon="4.67485">
        <ele>402</ele>
        <time>2016-10-12T15:29:45Z</time>
      </trkpt>
      <trkpt lat="45.89688" lon="4.67488">
        <ele>402</ele>
        <time>2016-10-12T15:29:46Z</time>
      </trkpt>
      <trkpt lat="45.89694" lon="4.67491">
        <ele>402</ele>
        <time>2016-10-12T15:29:47Z</time>
      </trkpt>
      <trkpt lat="45.897" lon="4.67494">
        <ele>402</ele>
        <time>2016-10-12T15:29:48Z</time>
      </trkpt>
      <trkpt lat="45.89706" lon="4.67496">
        <ele>402</ele>
        <time>2016-10-12T15:29:49Z</time>
      </trkpt>
      <trkpt lat="45.89713" lon="4.67498">
        <ele>402</ele>
        <time>2016-10-12T15:29:50Z</time>
      </trkpt>
      <trkpt lat="45.89721" lon="4.675">
        <ele>402</ele>
        <time>2016-10-12T15:29:51Z</time>
      </trkpt>
      <trkpt lat="45.89729" lon="4.67502">
        <ele>396</ele>
        <time>2016-10-12T15:29:52Z</time>
      </trkpt>
      <trkpt lat="45.89736" lon="4.67502">
        <ele>397</ele>
        <time>2016-10-12T15:29:53Z</time>
      </trkpt>
      <trkpt lat="45.89744" lon="4.67501">
        <ele>398</ele>
        <time>2016-10-12T15:29:54Z</time>
      </trkpt>
      <trkpt lat="45.89752" lon="4.675">
        <ele>399</ele>
        <time>2016-10-12T15:29:55Z</time>
      </trkpt>
      <trkpt lat="45.8976" lon="4.67498">
        <ele>399</ele>
        <time>2016-10-12T15:29:56Z</time>
      </trkpt>
      <trkpt lat="45.89769" lon="4.67498">
        <ele>399</ele>
        <time>2016-10-12T15:29:57Z</time>
      </trkpt>
      <trkpt lat="45.89777" lon="4.67499">
        <ele>399</ele>
        <time>2016-10-12T15:29:58Z</time>
      </trkpt>
      <trkpt lat="45.89784" lon="4.67494">
        <ele>399</ele>
        <time>2016-10-12T15:29:59Z</time>
      </trkpt>
      <trkpt lat="45.89792" lon="4.67491">
        <ele>399</ele>
        <time>2016-10-12T15:30:00Z</time>
      </trkpt>
      <trkpt lat="45.898" lon="4.67487">
        <ele>398</ele>
        <time>2016-10-12T15:30:01Z</time>
      </trkpt>
      <trkpt lat="45.89806" lon="4.6748">
        <ele>398</ele>
        <time>2016-10-12T15:30:02Z</time>
      </trkpt>
      <trkpt lat="45.89811" lon="4.67473">
        <ele>398</ele>
        <time>2016-10-12T15:30:03Z</time>
      </trkpt>
      <trkpt lat="45.89815" lon="4.67463">
        <ele>398</ele>
        <time>2016-10-12T15:30:04Z</time>
      </trkpt>
      <trkpt lat="45.89817" lon="4.67453">
        <ele>399</ele>
        <time>2016-10-12T15:30:05Z</time>
      </trkpt>
      <trkpt lat="45.89819" lon="4.67442">
        <ele>399</ele>
        <time>2016-10-12T15:30:06Z</time>
      </trkpt>
      <trkpt lat="45.89822" lon="4.67431">
        <ele>398</ele>
        <time>2016-10-12T15:30:07Z</time>
      </trkpt>
      <trkpt lat="45.89825" lon="4.67418">
        <ele>398</ele>
        <time>2016-10-12T15:30:08Z</time>
      </trkpt>
      <trkpt lat="45.89829" lon="4.67405">
        <ele>401</ele>
        <time>2016-10-12T15:30:09Z</time>
      </trkpt>
      <trkpt lat="45.89834" lon="4.67394">
        <ele>397</ele>
        <time>2016-10-12T15:30:10Z</time>
      </trkpt>
      <trkpt lat="45.89839" lon="4.67384">
        <ele>398</ele>
        <time>2016-10-12T15:30:11Z</time>
      </trkpt>
      <trkpt lat="45.89845" lon="4.67375">
        <ele>398</ele>
        <time>2016-10-12T15:30:12Z</time>
      </trkpt>
      <trkpt lat="45.89851" lon="4.67367">
        <ele>399</ele>
        <time>2016-10-12T15:30:13Z</time>
      </trkpt>
      <trkpt lat="45.89858" lon="4.6736">
        <ele>399</ele>
        <time>2016-10-12T15:30:14Z</time>
      </trkpt>
      <trkpt lat="45.89866" lon="4.67353">
        <ele>399</ele>
        <time>2016-10-12T15:30:15Z</time>
      </trkpt>
      <trkpt lat="45.89875" lon="4.67348">
        <ele>399</ele>
        <time>2016-10-12T15:30:16Z</time>
      </trkpt>
      <trkpt lat="45.89884" lon="4.67344">
        <ele>398</ele>
        <time>2016-10-12T15:30:17Z</time>
      </trkpt>
      <trkpt lat="45.89892" lon="4.67343">
        <ele>398</ele>
        <time>2016-10-12T15:30:18Z</time>
      </trkpt>
      <trkpt lat="45.89901" lon="4.67341">
        <ele>399</ele>
        <time>2016-10-12T15:30:19Z</time>
      </trkpt>
      <trkpt lat="45.8991" lon="4.6734">
        <ele>399</ele>
        <time>2016-10-12T15:30:20Z</time>
      </trkpt>
      <trkpt lat="45.89918" lon="4.67341">
        <ele>399</ele>
        <time>2016-10-12T15:30:21Z</time>
      </trkpt>
      <trkpt lat="45.89927" lon="4.67342">
        <ele>398</ele>
        <time>2016-10-12T15:30:22Z</time>
      </trkpt>
      <trkpt lat="45.89936" lon="4.6735">
        <ele>396</ele>
        <time>2016-10-12T15:30:23Z</time>
      </trkpt>
      <trkpt lat="45.89945" lon="4.67353">
        <ele>396</ele>
        <time>2016-10-12T15:30:24Z</time>
      </trkpt>
      <trkpt lat="45.89953" lon="4.67355">
        <ele>395</ele>
        <time>2016-10-12T15:30:25Z</time>
      </trkpt>
      <trkpt lat="45.89962" lon="4.67357">
        <ele>395</ele>
        <time>2016-10-12T15:30:26Z</time>
      </trkpt>
      <trkpt lat="45.89971" lon="4.67359">
        <ele>396</ele>
        <time>2016-10-12T15:30:27Z</time>
      </trkpt>
      <trkpt lat="45.89979" lon="4.67362">
        <ele>396</ele>
        <time>2016-10-12T15:30:28Z</time>
      </trkpt>
      <trkpt lat="45.89987" lon="4.67367">
        <ele>395</ele>
        <time>2016-10-12T15:30:29Z</time>
      </trkpt>
      <trkpt lat="45.89996" lon="4.67373">
        <ele>394</ele>
        <time>2016-10-12T15:30:30Z</time>
      </trkpt>
      <trkpt lat="45.90005" lon="4.67379">
        <ele>396</ele>
        <time>2016-10-12T15:30:31Z</time>
      </trkpt>
      <trkpt lat="45.90013" lon="4.67387">
        <ele>395</ele>
        <time>2016-10-12T15:30:32Z</time>
      </trkpt>
      <trkpt lat="45.90022" lon="4.67394">
        <ele>395</ele>
        <time>2016-10-12T15:30:33Z</time>
      </trkpt>
      <trkpt lat="45.9003" lon="4.67401">
        <ele>395</ele>
        <time>2016-10-12T15:30:34Z</time>
      </trkpt>
      <trkpt lat="45.90037" lon="4.67408">
        <ele>395</ele>
        <time>2016-10-12T15:30:35Z</time>
      </trkpt>
      <trkpt lat="45.90045" lon="4.67415">
        <ele>395</ele>
        <time>2016-10-12T15:30:36Z</time>
      </trkpt>
      <trkpt lat="45.90053" lon="4.67424">
        <ele>386</ele>
        <time>2016-10-12T15:30:37Z</time>
      </trkpt>
      <trkpt lat="45.90061" lon="4.67434">
        <ele>386</ele>
        <time>2016-10-12T15:30:38Z</time>
      </trkpt>
      <trkpt lat="45.90069" lon="4.67443">
        <ele>385</ele>
        <time>2016-10-12T15:30:39Z</time>
      </trkpt>
      <trkpt lat="45.90076" lon="4.67453">
        <ele>384</ele>
        <time>2016-10-12T15:30:40Z</time>
      </trkpt>
      <trkpt lat="45.90083" lon="4.67462">
        <ele>383</ele>
        <time>2016-10-12T15:30:41Z</time>
      </trkpt>
      <trkpt lat="45.90091" lon="4.67471">
        <ele>386</ele>
        <time>2016-10-12T15:30:42Z</time>
      </trkpt>
      <trkpt lat="45.90098" lon="4.67479">
        <ele>385</ele>
        <time>2016-10-12T15:30:43Z</time>
      </trkpt>
      <trkpt lat="45.90105" lon="4.67488">
        <ele>385</ele>
        <time>2016-10-12T15:30:44Z</time>
      </trkpt>
      <trkpt lat="45.90112" lon="4.67498">
        <ele>385</ele>
        <time>2016-10-12T15:30:45Z</time>
      </trkpt>
      <trkpt lat="45.90118" lon="4.67509">
        <ele>378</ele>
        <time>2016-10-12T15:30:46Z</time>
      </trkpt>
      <trkpt lat="45.90124" lon="4.6752">
        <ele>378</ele>
        <time>2016-10-12T15:30:47Z</time>
      </trkpt>
      <trkpt lat="45.9013" lon="4.67531">
        <ele>378</ele>
        <time>2016-10-12T15:30:48Z</time>
      </trkpt>
      <trkpt lat="45.90134" lon="4.6754">
        <ele>377</ele>
        <time>2016-10-12T15:30:49Z</time>
      </trkpt>
      <trkpt lat="45.9014" lon="4.67551">
        <ele>377</ele>
        <time>2016-10-12T15:30:50Z</time>
      </trkpt>
      <trkpt lat="45.90145" lon="4.67561">
        <ele>376</ele>
        <time>2016-10-12T15:30:51Z</time>
      </trkpt>
      <trkpt lat="45.90151" lon="4.67571">
        <ele>376</ele>
        <time>2016-10-12T15:30:52Z</time>
      </trkpt>
      <trkpt lat="45.90157" lon="4.6758">
        <ele>376</ele>
        <time>2016-10-12T15:30:53Z</time>
      </trkpt>
      <trkpt lat="45.90164" lon="4.67589">
        <ele>374</ele>
        <time>2016-10-12T15:30:54Z</time>
      </trkpt>
      <trkpt lat="45.90171" lon="4.67597">
        <ele>376</ele>
        <time>2016-10-12T15:30:55Z</time>
      </trkpt>
      <trkpt lat="45.90179" lon="4.67605">
        <ele>376</ele>
        <time>2016-10-12T15:30:56Z</time>
      </trkpt>
      <trkpt lat="45.90187" lon="4.67614">
        <ele>376</ele>
        <time>2016-10-12T15:30:57Z</time>
      </trkpt>
      <trkpt lat="45.90194" lon="4.67622">
        <ele>376</ele>
        <time>2016-10-12T15:30:58Z</time>
      </trkpt>
      <trkpt lat="45.90202" lon="4.6763">
        <ele>375</ele>
        <time>2016-10-12T15:30:59Z</time>
      </trkpt>
      <trkpt lat="45.90209" lon="4.67638">
        <ele>375</ele>
        <time>2016-10-12T15:31:00Z</time>
      </trkpt>
      <trkpt lat="45.90216" lon="4.67642">
        <ele>375</ele>
        <time>2016-10-12T15:31:01Z</time>
      </trkpt>
      <trkpt lat="45.90224" lon="4.67648">
        <ele>375</ele>
        <time>2016-10-12T15:31:02Z</time>
      </trkpt>
      <trkpt lat="45.90231" lon="4.67654">
        <ele>375</ele>
        <time>2016-10-12T15:31:03Z</time>
      </trkpt>
      <trkpt lat="45.90238" lon="4.6766">
        <ele>375</ele>
        <time>2016-10-12T15:31:04Z</time>
      </trkpt>
      <trkpt lat="45.90245" lon="4.67666">
        <ele>374</ele>
        <time>2016-10-12T15:31:05Z</time>
      </trkpt>
      <trkpt lat="45.90252" lon="4.67671">
        <ele>374</ele>
        <time>2016-10-12T15:31:06Z</time>
      </trkpt>
      <trkpt lat="45.90259" lon="4.67677">
        <ele>374</ele>
        <time>2016-10-12T15:31:07Z</time>
      </trkpt>
      <trkpt lat="45.90267" lon="4.67682">
        <ele>374</ele>
        <time>2016-10-12T15:31:08Z</time>
      </trkpt>
      <trkpt lat="45.90274" lon="4.67687">
        <ele>374</ele>
        <time>2016-10-12T15:31:09Z</time>
      </trkpt>
      <trkpt lat="45.90282" lon="4.6769">
        <ele>374</ele>
        <time>2016-10-12T15:31:10Z</time>
      </trkpt>
      <trkpt lat="45.90289" lon="4.67693">
        <ele>374</ele>
        <time>2016-10-12T15:31:11Z</time>
      </trkpt>
      <trkpt lat="45.90296" lon="4.67696">
        <ele>374</ele>
        <time>2016-10-12T15:31:12Z</time>
      </trkpt>
      <trkpt lat="45.90304" lon="4.67699">
        <ele>374</ele>
        <time>2016-10-12T15:31:13Z</time>
      </trkpt>
      <trkpt lat="45.90311" lon="4.67702">
        <ele>374</ele>
        <time>2016-10-12T15:31:14Z</time>
      </trkpt>
      <trkpt lat="45.90319" lon="4.67704">
        <ele>374</ele>
        <time>2016-10-12T15:31:15Z</time>
      </trkpt>
      <trkpt lat="45.90326" lon="4.67707">
        <ele>374</ele>
        <time>2016-10-12T15:31:16Z</time>
      </trkpt>
      <trkpt lat="45.90334" lon="4.6771">
        <ele>372</ele>
        <time>2016-10-12T15:31:17Z</time>
      </trkpt>
      <trkpt lat="45.90342" lon="4.67713">
        <ele>372</ele>
        <time>2016-10-12T15:31:18Z</time>
      </trkpt>
      <trkpt lat="45.9035" lon="4.67715">
        <ele>371</ele>
        <time>2016-10-12T15:31:19Z</time>
      </trkpt>
      <trkpt lat="45.90358" lon="4.67718">
        <ele>371</ele>
        <time>2016-10-12T15:31:20Z</time>
      </trkpt>
      <trkpt lat="45.90365" lon="4.67721">
        <ele>371</ele>
        <time>2016-10-12T15:31:21Z</time>
      </trkpt>
      <trkpt lat="45.90373" lon="4.67724">
        <ele>371</ele>
        <time>2016-10-12T15:31:22Z</time>
      </trkpt>
      <trkpt lat="45.90382" lon="4.67728">
        <ele>370</ele>
        <time>2016-10-12T15:31:23Z</time>
      </trkpt>
      <trkpt lat="45.9039" lon="4.67731">
        <ele>369</ele>
        <time>2016-10-12T15:31:24Z</time>
      </trkpt>
      <trkpt lat="45.90398" lon="4.67735">
        <ele>369</ele>
        <time>2016-10-12T15:31:25Z</time>
      </trkpt>
      <trkpt lat="45.90406" lon="4.67737">
        <ele>368</ele>
        <time>2016-10-12T15:31:26Z</time>
      </trkpt>
      <trkpt lat="45.90414" lon="4.67739">
        <ele>367</ele>
        <time>2016-10-12T15:31:27Z</time>
      </trkpt>
      <trkpt lat="45.90422" lon="4.67742">
        <ele>366</ele>
        <time>2016-10-12T15:31:28Z</time>
      </trkpt>
      <trkpt lat="45.90431" lon="4.67744">
        <ele>366</ele>
        <time>2016-10-12T15:31:29Z</time>
      </trkpt>
      <trkpt lat="45.90438" lon="4.67747">
        <ele>366</ele>
        <time>2016-10-12T15:31:30Z</time>
      </trkpt>
      <trkpt lat="45.90447" lon="4.67751">
        <ele>364</ele>
        <time>2016-10-12T15:31:31Z</time>
      </trkpt>
      <trkpt lat="45.90454" lon="4.67755">
        <ele>364</ele>
        <time>2016-10-12T15:31:32Z</time>
      </trkpt>
      <trkpt lat="45.90462" lon="4.67758">
        <ele>364</ele>
        <time>2016-10-12T15:31:33Z</time>
      </trkpt>
      <trkpt lat="45.9047" lon="4.67761">
        <ele>364</ele>
        <time>2016-10-12T15:31:34Z</time>
      </trkpt>
      <trkpt lat="45.90478" lon="4.67764">
        <ele>364</ele>
        <time>2016-10-12T15:31:35Z</time>
      </trkpt>
      <trkpt lat="45.90486" lon="4.67767">
        <ele>364</ele>
        <time>2016-10-12T15:31:36Z</time>
      </trkpt>
      <trkpt lat="45.90494" lon="4.67769">
        <ele>364</ele>
        <time>2016-10-12T15:31:37Z</time>
      </trkpt>
      <trkpt lat="45.90502" lon="4.67772">
        <ele>364</ele>
        <time>2016-10-12T15:31:38Z</time>
      </trkpt>
      <trkpt lat="45.9051" lon="4.67774">
        <ele>365</ele>
        <time>2016-10-12T15:31:39Z</time>
      </trkpt>
      <trkpt lat="45.90517" lon="4.67777">
        <ele>365</ele>
        <time>2016-10-12T15:31:40Z</time>
      </trkpt>
      <trkpt lat="45.90524" lon="4.67779">
        <ele>365</ele>
        <time>2016-10-12T15:31:41Z</time>
      </trkpt>
      <trkpt lat="45.90531" lon="4.67781">
        <ele>365</ele>
        <time>2016-10-12T15:31:42Z</time>
      </trkpt>
      <trkpt lat="45.90537" lon="4.67784">
        <ele>365</ele>
        <time>2016-10-12T15:31:43Z</time>
      </trkpt>
      <trkpt lat="45.90544" lon="4.67786">
        <ele>365</ele>
        <time>2016-10-12T15:31:44Z</time>
      </trkpt>
      <trkpt lat="45.9055" lon="4.67789">
        <ele>365</ele>
        <time>2016-10-12T15:31:45Z</time>
      </trkpt>
      <trkpt lat="45.90556" lon="4.67791">
        <ele>365</ele>
        <time>2016-10-12T15:31:46Z</time>
      </trkpt>
      <trkpt lat="45.90561" lon="4.67794">
        <ele>365</ele>
        <time>2016-10-12T15:31:47Z</time>
      </trkpt>
      <trkpt lat="45.90567" lon="4.67795">
        <ele>365</ele>
        <time>2016-10-12T15:31:48Z</time>
      </trkpt>
      <trkpt lat="45.90572" lon="4.67796">
        <ele>366</ele>
        <time>2016-10-12T15:31:49Z</time>
      </trkpt>
      <trkpt lat="45.90578" lon="4.67798">
        <ele>366</ele>
        <time>2016-10-12T15:31:50Z</time>
      </trkpt>
      <trkpt lat="45.90584" lon="4.67799">
        <ele>367</ele>
        <time>2016-10-12T15:31:51Z</time>
      </trkpt>
      <trkpt lat="45.9059" lon="4.67799">
        <ele>367</ele>
        <time>2016-10-12T15:31:52Z</time>
      </trkpt>
      <trkpt lat="45.90596" lon="4.67799">
        <ele>367</ele>
        <time>2016-10-12T15:31:53Z</time>
      </trkpt>
      <trkpt lat="45.90602" lon="4.67799">
        <ele>367</ele>
        <time>2016-10-12T15:31:54Z</time>
      </trkpt>
      <trkpt lat="45.90607" lon="4.67799">
        <ele>367</ele>
        <time>2016-10-12T15:31:55Z</time>
      </trkpt>
      <trkpt lat="45.90613" lon="4.67799">
        <ele>367</ele>
        <time>2016-10-12T15:31:56Z</time>
      </trkpt>
      <trkpt lat="45.90618" lon="4.67799">
        <ele>367</ele>
        <time>2016-10-12T15:31:57Z</time>
      </trkpt>
      <trkpt lat="45.90623" lon="4.67799">
        <ele>367</ele>
        <time>2016-10-12T15:31:58Z</time>
      </trkpt>
      <trkpt lat="45.90627" lon="4.67799">
        <ele>367</ele>
        <time>2016-10-12T15:31:59Z</time>
      </trkpt>
      <trkpt lat="45.90632" lon="4.67799">
        <ele>367</ele>
        <time>2016-10-12T15:32:00Z</time>
      </trkpt>
      <trkpt lat="45.90637" lon="4.678">
        <ele>367</ele>
        <time>2016-10-12T15:32:01Z</time>
      </trkpt>
      <trkpt lat="45.90641" lon="4.67802">
        <ele>368</ele>
        <time>2016-10-12T15:32:02Z</time>
      </trkpt>
      <trkpt lat="45.90646" lon="4.67803">
        <ele>368</ele>
        <time>2016-10-12T15:32:03Z</time>
      </trkpt>
      <trkpt lat="45.90652" lon="4.67803">
        <ele>368</ele>
        <time>2016-10-12T15:32:04Z</time>
      </trkpt>
      <trkpt lat="45.90657" lon="4.67804">
        <ele>368</ele>
        <time>2016-10-12T15:32:05Z</time>
      </trkpt>
      <trkpt lat="45.90661" lon="4.67804">
        <ele>368</ele>
        <time>2016-10-12T15:32:06Z</time>
      </trkpt>
      <trkpt lat="45.90666" lon="4.67804">
        <ele>368</ele>
        <time>2016-10-12T15:32:07Z</time>
      </trkpt>
      <trkpt lat="45.90671" lon="4.67804">
        <ele>368</ele>
        <time>2016-10-12T15:32:08Z</time>
      </trkpt>
      <trkpt lat="45.90679" lon="4.67806">
        <ele>368</ele>
        <time>2016-10-12T15:32:10Z</time>
      </trkpt>
      <trkpt lat="45.90683" lon="4.67807">
        <ele>368</ele>
        <time>2016-10-12T15:32:11Z</time>
      </trkpt>
      <trkpt lat="45.90691" lon="4.67809">
        <ele>368</ele>
        <time>2016-10-12T15:32:13Z</time>
      </trkpt>
      <trkpt lat="45.90694" lon="4.67809">
        <ele>368</ele>
        <time>2016-10-12T15:32:14Z</time>
      </trkpt>
      <trkpt lat="45.90703" lon="4.67811">
        <ele>368</ele>
        <time>2016-10-12T15:32:16Z</time>
      </trkpt>
      <trkpt lat="45.90706" lon="4.67813">
        <ele>368</ele>
        <time>2016-10-12T15:32:17Z</time>
      </trkpt>
      <trkpt lat="45.90714" lon="4.67815">
        <ele>369</ele>
        <time>2016-10-12T15:32:19Z</time>
      </trkpt>
      <trkpt lat="45.90718" lon="4.67817">
        <ele>369</ele>
        <time>2016-10-12T15:32:20Z</time>
      </trkpt>
      <trkpt lat="45.90727" lon="4.6782">
        <ele>369</ele>
        <time>2016-10-12T15:32:22Z</time>
      </trkpt>
      <trkpt lat="45.90731" lon="4.67822">
        <ele>369</ele>
        <time>2016-10-12T15:32:23Z</time>
      </trkpt>
      <trkpt lat="45.90739" lon="4.67825">
        <ele>370</ele>
        <time>2016-10-12T15:32:25Z</time>
      </trkpt>
      <trkpt lat="45.90744" lon="4.67826">
        <ele>370</ele>
        <time>2016-10-12T15:32:26Z</time>
      </trkpt>
      <trkpt lat="45.90751" lon="4.6783">
        <ele>370</ele>
        <time>2016-10-12T15:32:28Z</time>
      </trkpt>
      <trkpt lat="45.90755" lon="4.67831">
        <ele>370</ele>
        <time>2016-10-12T15:32:29Z</time>
      </trkpt>
      <trkpt lat="45.90762" lon="4.67834">
        <ele>371</ele>
        <time>2016-10-12T15:32:31Z</time>
      </trkpt>
      <trkpt lat="45.90765" lon="4.67836">
        <ele>371</ele>
        <time>2016-10-12T15:32:32Z</time>
      </trkpt>
      <trkpt lat="45.90773" lon="4.6784">
        <ele>371</ele>
        <time>2016-10-12T15:32:34Z</time>
      </trkpt>
      <trkpt lat="45.90776" lon="4.67841">
        <ele>371</ele>
        <time>2016-10-12T15:32:35Z</time>
      </trkpt>
      <trkpt lat="45.90785" lon="4.67842">
        <ele>371</ele>
        <time>2016-10-12T15:32:37Z</time>
      </trkpt>
      <trkpt lat="45.90789" lon="4.67843">
        <ele>371</ele>
        <time>2016-10-12T15:32:38Z</time>
      </trkpt>
      <trkpt lat="45.90793" lon="4.67845">
        <ele>371</ele>
        <time>2016-10-12T15:32:39Z</time>
      </trkpt>
      <trkpt lat="45.90798" lon="4.67847">
        <ele>371</ele>
        <time>2016-10-12T15:32:40Z</time>
      </trkpt>
      <trkpt lat="45.90802" lon="4.6785">
        <ele>371</ele>
        <time>2016-10-12T15:32:41Z</time>
      </trkpt>
      <trkpt lat="45.90806" lon="4.67852">
        <ele>371</ele>
        <time>2016-10-12T15:32:42Z</time>
      </trkpt>
      <trkpt lat="45.90815" lon="4.67854">
        <ele>371</ele>
        <time>2016-10-12T15:32:44Z</time>
      </trkpt>
      <trkpt lat="45.90819" lon="4.67856">
        <ele>371</ele>
        <time>2016-10-12T15:32:45Z</time>
      </trkpt>
      <trkpt lat="45.90827" lon="4.67858">
        <ele>371</ele>
        <time>2016-10-12T15:32:47Z</time>
      </trkpt>
      <trkpt lat="45.9083" lon="4.6786">
        <ele>371</ele>
        <time>2016-10-12T15:32:48Z</time>
      </trkpt>
      <trkpt lat="45.90835" lon="4.67861">
        <ele>370</ele>
        <time>2016-10-12T15:32:49Z</time>
      </trkpt>
      <trkpt lat="45.9084" lon="4.67862">
        <ele>370</ele>
        <time>2016-10-12T15:32:50Z</time>
      </trkpt>
      <trkpt lat="45.90849" lon="4.67864">
        <ele>370</ele>
        <time>2016-10-12T15:32:52Z</time>
      </trkpt>
      <trkpt lat="45.90853" lon="4.67865">
        <ele>370</ele>
        <time>2016-10-12T15:32:53Z</time>
      </trkpt>
      <trkpt lat="45.90858" lon="4.67866">
        <ele>370</ele>
        <time>2016-10-12T15:32:54Z</time>
      </trkpt>
      <trkpt lat="45.90863" lon="4.67867">
        <ele>370</ele>
        <time>2016-10-12T15:32:55Z</time>
      </trkpt>
      <trkpt lat="45.90868" lon="4.67869">
        <ele>370</ele>
        <time>2016-10-12T15:32:56Z</time>
      </trkpt>
      <trkpt lat="45.90872" lon="4.67871">
        <ele>370</ele>
        <time>2016-10-12T15:32:57Z</time>
      </trkpt>
      <trkpt lat="45.9088" lon="4.67874">
        <ele>370</ele>
        <time>2016-10-12T15:32:59Z</time>
      </trkpt>
      <trkpt lat="45.90884" lon="4.67875">
        <ele>370</ele>
        <time>2016-10-12T15:33:00Z</time>
      </trkpt>
      <trkpt lat="45.90888" lon="4.67876">
        <ele>370</ele>
        <time>2016-10-12T15:33:01Z</time>
      </trkpt>
      <trkpt lat="45.90893" lon="4.67878">
        <ele>370</ele>
        <time>2016-10-12T15:33:02Z</time>
      </trkpt>
      <trkpt lat="45.90901" lon="4.67881">
        <ele>370</ele>
        <time>2016-10-12T15:33:04Z</time>
      </trkpt>
      <trkpt lat="45.90906" lon="4.67883">
        <ele>370</ele>
        <time>2016-10-12T15:33:05Z</time>
      </trkpt>
      <trkpt lat="45.90911" lon="4.67885">
        <ele>370</ele>
        <time>2016-10-12T15:33:06Z</time>
      </trkpt>
      <trkpt lat="45.90915" lon="4.67888">
        <ele>370</ele>
        <time>2016-10-12T15:33:07Z</time>
      </trkpt>
      <trkpt lat="45.90924" lon="4.67892">
        <ele>370</ele>
        <time>2016-10-12T15:33:09Z</time>
      </trkpt>
      <trkpt lat="45.90928" lon="4.67894">
        <ele>370</ele>
        <time>2016-10-12T15:33:10Z</time>
      </trkpt>
      <trkpt lat="45.90936" lon="4.67898">
        <ele>370</ele>
        <time>2016-10-12T15:33:12Z</time>
      </trkpt>
      <trkpt lat="45.9094" lon="4.67899">
        <ele>370</ele>
        <time>2016-10-12T15:33:13Z</time>
      </trkpt>
      <trkpt lat="45.90949" lon="4.67902">
        <ele>370</ele>
        <time>2016-10-12T15:33:15Z</time>
      </trkpt>
      <trkpt lat="45.90953" lon="4.67903">
        <ele>370</ele>
        <time>2016-10-12T15:33:16Z</time>
      </trkpt>
      <trkpt lat="45.90961" lon="4.67907">
        <ele>370</ele>
        <time>2016-10-12T15:33:18Z</time>
      </trkpt>
      <trkpt lat="45.90965" lon="4.67908">
        <ele>370</ele>
        <time>2016-10-12T15:33:19Z</time>
      </trkpt>
      <trkpt lat="45.90973" lon="4.67911">
        <ele>370</ele>
        <time>2016-10-12T15:33:21Z</time>
      </trkpt>
      <trkpt lat="45.90977" lon="4.67913">
        <ele>370</ele>
        <time>2016-10-12T15:33:22Z</time>
      </trkpt>
      <trkpt lat="45.90986" lon="4.67916">
        <ele>371</ele>
        <time>2016-10-12T15:33:24Z</time>
      </trkpt>
      <trkpt lat="45.9099" lon="4.67918">
        <ele>372</ele>
        <time>2016-10-12T15:33:25Z</time>
      </trkpt>
      <trkpt lat="45.90998" lon="4.67923">
        <ele>372</ele>
        <time>2016-10-12T15:33:27Z</time>
      </trkpt>
      <trkpt lat="45.91002" lon="4.67926">
        <ele>373</ele>
        <time>2016-10-12T15:33:28Z</time>
      </trkpt>
      <trkpt lat="45.9101" lon="4.6793">
        <ele>373</ele>
        <time>2016-10-12T15:33:30Z</time>
      </trkpt>
      <trkpt lat="45.91013" lon="4.67932">
        <ele>373</ele>
        <time>2016-10-12T15:33:31Z</time>
      </trkpt>
      <trkpt lat="45.9102" lon="4.67937">
        <ele>374</ele>
        <time>2016-10-12T15:33:33Z</time>
      </trkpt>
      <trkpt lat="45.91023" lon="4.6794">
        <ele>374</ele>
        <time>2016-10-12T15:33:34Z</time>
      </trkpt>
      <trkpt lat="45.9103" lon="4.67944">
        <ele>374</ele>
        <time>2016-10-12T15:33:36Z</time>
      </trkpt>
      <trkpt lat="45.91036" lon="4.67945">
        <ele>374</ele>
        <time>2016-10-12T15:33:37Z</time>
      </trkpt>
      <trkpt lat="45.91043" lon="4.67949">
        <ele>374</ele>
        <time>2016-10-12T15:33:39Z</time>
      </trkpt>
      <trkpt lat="45.91048" lon="4.67949">
        <ele>374</ele>
        <time>2016-10-12T15:33:40Z</time>
      </trkpt>
      <trkpt lat="45.91052" lon="4.67948">
        <ele>375</ele>
        <time>2016-10-12T15:33:41Z</time>
      </trkpt>
      <trkpt lat="45.91057" lon="4.67948">
        <ele>375</ele>
        <time>2016-10-12T15:33:42Z</time>
      </trkpt>
      <trkpt lat="45.91061" lon="4.67949">
        <ele>375</ele>
        <time>2016-10-12T15:33:43Z</time>
      </trkpt>
      <trkpt lat="45.91066" lon="4.6795">
        <ele>375</ele>
        <time>2016-10-12T15:33:44Z</time>
      </trkpt>
      <trkpt lat="45.91071" lon="4.6795">
        <ele>375</ele>
        <time>2016-10-12T15:33:45Z</time>
      </trkpt>
      <trkpt lat="45.91077" lon="4.67949">
        <ele>375</ele>
        <time>2016-10-12T15:33:46Z</time>
      </trkpt>
      <trkpt lat="45.91082" lon="4.67958">
        <ele>375</ele>
        <time>2016-10-12T15:33:48Z</time>
      </trkpt>
      <trkpt lat="45.91089" lon="4.67958">
        <ele>376</ele>
        <time>2016-10-12T15:33:49Z</time>
      </trkpt>
      <trkpt lat="45.91098" lon="4.67962">
        <ele>377</ele>
        <time>2016-10-12T15:33:51Z</time>
      </trkpt>
      <trkpt lat="45.91101" lon="4.67963">
        <ele>377</ele>
        <time>2016-10-12T15:33:52Z</time>
      </trkpt>
      <trkpt lat="45.91108" lon="4.67965">
        <ele>377</ele>
        <time>2016-10-12T15:33:54Z</time>
      </trkpt>
      <trkpt lat="45.91112" lon="4.67967">
        <ele>377</ele>
        <time>2016-10-12T15:33:55Z</time>
      </trkpt>
      <trkpt lat="45.91119" lon="4.67969">
        <ele>377</ele>
        <time>2016-10-12T15:33:57Z</time>
      </trkpt>
      <trkpt lat="45.91122" lon="4.6797">
        <ele>377</ele>
        <time>2016-10-12T15:33:58Z</time>
      </trkpt>
      <trkpt lat="45.91128" lon="4.67972">
        <ele>377</ele>
        <time>2016-10-12T15:34:00Z</time>
      </trkpt>
      <trkpt lat="45.91131" lon="4.67973">
        <ele>377</ele>
        <time>2016-10-12T15:34:01Z</time>
      </trkpt>
      <trkpt lat="45.91138" lon="4.67976">
        <ele>378</ele>
        <time>2016-10-12T15:34:03Z</time>
      </trkpt>
      <trkpt lat="45.9114" lon="4.67978">
        <ele>378</ele>
        <time>2016-10-12T15:34:04Z</time>
      </trkpt>
      <trkpt lat="45.91147" lon="4.67981">
        <ele>378</ele>
        <time>2016-10-12T15:34:06Z</time>
      </trkpt>
      <trkpt lat="45.91151" lon="4.67983">
        <ele>378</ele>
        <time>2016-10-12T15:34:07Z</time>
      </trkpt>
      <trkpt lat="45.91159" lon="4.67987">
        <ele>379</ele>
        <time>2016-10-12T15:34:10Z</time>
      </trkpt>
      <trkpt lat="45.91162" lon="4.67988">
        <ele>379</ele>
        <time>2016-10-12T15:34:11Z</time>
      </trkpt>
      <trkpt lat="45.9117" lon="4.67992">
        <ele>380</ele>
        <time>2016-10-12T15:34:14Z</time>
      </trkpt>
      <trkpt lat="45.91173" lon="4.67993">
        <ele>380</ele>
        <time>2016-10-12T15:34:15Z</time>
      </trkpt>
      <trkpt lat="45.91178" lon="4.67997">
        <ele>380</ele>
        <time>2016-10-12T15:34:17Z</time>
      </trkpt>
      <trkpt lat="45.91182" lon="4.67998">
        <ele>380</ele>
        <time>2016-10-12T15:34:18Z</time>
      </trkpt>
      <trkpt lat="45.91189" lon="4.68004">
        <ele>382</ele>
        <time>2016-10-12T15:34:21Z</time>
      </trkpt>
      <trkpt lat="45.91191" lon="4.68005">
        <ele>383</ele>
        <time>2016-10-12T15:34:22Z</time>
      </trkpt>
      <trkpt lat="45.91199" lon="4.68009">
        <ele>383</ele>
        <time>2016-10-12T15:34:25Z</time>
      </trkpt>
      <trkpt lat="45.91201" lon="4.6801">
        <ele>383</ele>
        <time>2016-10-12T15:34:26Z</time>
      </trkpt>
      <trkpt lat="45.91208" lon="4.68015">
        <ele>383</ele>
        <time>2016-10-12T15:34:30Z</time>
      </trkpt>
      <trkpt lat="45.9121" lon="4.68016">
        <ele>383</ele>
        <time>2016-10-12T15:34:31Z</time>
      </trkpt>
      <trkpt lat="45.91218" lon="4.68022">
        <ele>383</ele>
        <time>2016-10-12T15:34:37Z</time>
      </trkpt>
      <trkpt lat="45.91219" lon="4.68022">
        <ele>384</ele>
        <time>2016-10-12T15:34:38Z</time>
      </trkpt>
      <trkpt lat="45.91221" lon="4.68023">
        <ele>384</ele>
        <time>2016-10-12T15:34:39Z</time>
      </trkpt>
      <trkpt lat="45.91221" lon="4.68022">
        <ele>384</ele>
        <time>2016-10-12T15:34:40Z</time>
      </trkpt>
      <trkpt lat="45.91223" lon="4.68021">
        <ele>384</ele>
        <time>2016-10-12T15:34:50Z</time>
      </trkpt>
      <trkpt lat="45.91225" lon="4.68021">
        <ele>384</ele>
        <time>2016-10-12T15:34:51Z</time>
      </trkpt>
      <trkpt lat="45.91234" lon="4.68024">
        <ele>384</ele>
        <time>2016-10-12T15:34:54Z</time>
      </trkpt>
      <trkpt lat="45.91237" lon="4.68026">
        <ele>384</ele>
        <time>2016-10-12T15:34:55Z</time>
      </trkpt>
      <trkpt lat="45.91241" lon="4.68029">
        <ele>384</ele>
        <time>2016-10-12T15:34:56Z</time>
      </trkpt>
      <trkpt lat="45.91245" lon="4.68031">
        <ele>384</ele>
        <time>2016-10-12T15:34:57Z</time>
      </trkpt>
      <trkpt lat="45.9125" lon="4.68034">
        <ele>384</ele>
        <time>2016-10-12T15:34:58Z</time>
      </trkpt>
      <trkpt lat="45.91254" lon="4.68036">
        <ele>385</ele>
        <time>2016-10-12T15:34:59Z</time>
      </trkpt>
      <trkpt lat="45.91258" lon="4.68038">
        <ele>385</ele>
        <time>2016-10-12T15:35:00Z</time>
      </trkpt>
      <trkpt lat="45.91263" lon="4.68041">
        <ele>385</ele>
        <time>2016-10-12T15:35:01Z</time>
      </trkpt>
      <trkpt lat="45.91267" lon="4.68043">
        <ele>385</ele>
        <time>2016-10-12T15:35:02Z</time>
      </trkpt>
      <trkpt lat="45.91272" lon="4.68045">
        <ele>385</ele>
        <time>2016-10-12T15:35:03Z</time>
      </trkpt>
      <trkpt lat="45.91278" lon="4.68053">
        <ele>385</ele>
        <time>2016-10-12T15:35:05Z</time>
      </trkpt>
      <trkpt lat="45.91282" lon="4.68057">
        <ele>385</ele>
        <time>2016-10-12T15:35:06Z</time>
      </trkpt>
      <trkpt lat="45.91291" lon="4.6806">
        <ele>385</ele>
        <time>2016-10-12T15:35:08Z</time>
      </trkpt>
      <trkpt lat="45.91295" lon="4.6806">
        <ele>385</ele>
        <time>2016-10-12T15:35:09Z</time>
      </trkpt>
      <trkpt lat="45.913" lon="4.68061">
        <ele>385</ele>
        <time>2016-10-12T15:35:10Z</time>
      </trkpt>
      <trkpt lat="45.91305" lon="4.68062">
        <ele>385</ele>
        <time>2016-10-12T15:35:11Z</time>
      </trkpt>
      <trkpt lat="45.91309" lon="4.68063">
        <ele>385</ele>
        <time>2016-10-12T15:35:12Z</time>
      </trkpt>
      <trkpt lat="45.91314" lon="4.68066">
        <ele>385</ele>
        <time>2016-10-12T15:35:13Z</time>
      </trkpt>
      <trkpt lat="45.91319" lon="4.68068">
        <ele>385</ele>
        <time>2016-10-12T15:35:14Z</time>
      </trkpt>
      <trkpt lat="45.91323" lon="4.68069">
        <ele>385</ele>
        <time>2016-10-12T15:35:15Z</time>
      </trkpt>
      <trkpt lat="45.91328" lon="4.68071">
        <ele>385</ele>
        <time>2016-10-12T15:35:16Z</time>
      </trkpt>
      <trkpt lat="45.91333" lon="4.68072">
        <ele>385</ele>
        <time>2016-10-12T15:35:17Z</time>
      </trkpt>
      <trkpt lat="45.91337" lon="4.68074">
        <ele>385</ele>
        <time>2016-10-12T15:35:18Z</time>
      </trkpt>
      <trkpt lat="45.91342" lon="4.68076">
        <ele>385</ele>
        <time>2016-10-12T15:35:19Z</time>
      </trkpt>
      <trkpt lat="45.91347" lon="4.68078">
        <ele>385</ele>
        <time>2016-10-12T15:35:20Z</time>
      </trkpt>
      <trkpt lat="45.91351" lon="4.6808">
        <ele>385</ele>
        <time>2016-10-12T15:35:21Z</time>
      </trkpt>
      <trkpt lat="45.91359" lon="4.68083">
        <ele>385</ele>
        <time>2016-10-12T15:35:23Z</time>
      </trkpt>
      <trkpt lat="45.91364" lon="4.68085">
        <ele>386</ele>
        <time>2016-10-12T15:35:24Z</time>
      </trkpt>
      <trkpt lat="45.91369" lon="4.68086">
        <ele>386</ele>
        <time>2016-10-12T15:35:25Z</time>
      </trkpt>
      <trkpt lat="45.91373" lon="4.68087">
        <ele>386</ele>
        <time>2016-10-12T15:35:26Z</time>
      </trkpt>
      <trkpt lat="45.91378" lon="4.68087">
        <ele>386</ele>
        <time>2016-10-12T15:35:27Z</time>
      </trkpt>
      <trkpt lat="45.91382" lon="4.68088">
        <ele>386</ele>
        <time>2016-10-12T15:35:28Z</time>
      </trkpt>
      <trkpt lat="45.91387" lon="4.68089">
        <ele>386</ele>
        <time>2016-10-12T15:35:29Z</time>
      </trkpt>
      <trkpt lat="45.91391" lon="4.68089">
        <ele>386</ele>
        <time>2016-10-12T15:35:30Z</time>
      </trkpt>
      <trkpt lat="45.91396" lon="4.68089">
        <ele>386</ele>
        <time>2016-10-12T15:35:31Z</time>
      </trkpt>
      <trkpt lat="45.914" lon="4.68088">
        <ele>386</ele>
        <time>2016-10-12T15:35:32Z</time>
      </trkpt>
      <trkpt lat="45.91405" lon="4.68087">
        <ele>386</ele>
        <time>2016-10-12T15:35:33Z</time>
      </trkpt>
      <trkpt lat="45.9141" lon="4.68085">
        <ele>386</ele>
        <time>2016-10-12T15:35:34Z</time>
      </trkpt>
      <trkpt lat="45.91415" lon="4.68084">
        <ele>386</ele>
        <time>2016-10-12T15:35:35Z</time>
      </trkpt>
      <trkpt lat="45.91419" lon="4.68084">
        <ele>386</ele>
        <time>2016-10-12T15:35:36Z</time>
      </trkpt>
      <trkpt lat="45.91424" lon="4.68084">
        <ele>386</ele>
        <time>2016-10-12T15:35:37Z</time>
      </trkpt>
      <trkpt lat="45.91429" lon="4.68083">
        <ele>385</ele>
        <time>2016-10-12T15:35:38Z</time>
      </trkpt>
      <trkpt lat="45.91434" lon="4.68083">
        <ele>385</ele>
        <time>2016-10-12T15:35:39Z</time>
      </trkpt>
      <trkpt lat="45.91439" lon="4.68084">
        <ele>385</ele>
        <time>2016-10-12T15:35:40Z</time>
      </trkpt>
      <trkpt lat="45.91445" lon="4.68085">
        <ele>385</ele>
        <time>2016-10-12T15:35:41Z</time>
      </trkpt>
      <trkpt lat="45.9145" lon="4.68087">
        <ele>384</ele>
        <time>2016-10-12T15:35:42Z</time>
      </trkpt>
      <trkpt lat="45.91455" lon="4.68089">
        <ele>384</ele>
        <time>2016-10-12T15:35:43Z</time>
      </trkpt>
      <trkpt lat="45.9146" lon="4.68092">
        <ele>384</ele>
        <time>2016-10-12T15:35:44Z</time>
      </trkpt>
      <trkpt lat="45.91466" lon="4.68096">
        <ele>384</ele>
        <time>2016-10-12T15:35:45Z</time>
      </trkpt>
      <trkpt lat="45.91472" lon="4.681">
        <ele>384</ele>
        <time>2016-10-12T15:35:46Z</time>
      </trkpt>
      <trkpt lat="45.91477" lon="4.68103">
        <ele>383</ele>
        <time>2016-10-12T15:35:47Z</time>
      </trkpt>
      <trkpt lat="45.91483" lon="4.68107">
        <ele>383</ele>
        <time>2016-10-12T15:35:48Z</time>
      </trkpt>
      <trkpt lat="45.91489" lon="4.68111">
        <ele>383</ele>
        <time>2016-10-12T15:35:49Z</time>
      </trkpt>
      <trkpt lat="45.91495" lon="4.68116">
        <ele>383</ele>
        <time>2016-10-12T15:35:50Z</time>
      </trkpt>
      <trkpt lat="45.91502" lon="4.6812">
        <ele>380</ele>
        <time>2016-10-12T15:35:51Z</time>
      </trkpt>
      <trkpt lat="45.91508" lon="4.68124">
        <ele>380</ele>
        <time>2016-10-12T15:35:52Z</time>
      </trkpt>
      <trkpt lat="45.91517" lon="4.68125">
        <ele>380</ele>
        <time>2016-10-12T15:35:53Z</time>
      </trkpt>
      <trkpt lat="45.91524" lon="4.68128">
        <ele>379</ele>
        <time>2016-10-12T15:35:54Z</time>
      </trkpt>
      <trkpt lat="45.91532" lon="4.68132">
        <ele>379</ele>
        <time>2016-10-12T15:35:55Z</time>
      </trkpt>
      <trkpt lat="45.91538" lon="4.68137">
        <ele>379</ele>
        <time>2016-10-12T15:35:56Z</time>
      </trkpt>
      <trkpt lat="45.91544" lon="4.68141">
        <ele>379</ele>
        <time>2016-10-12T15:35:57Z</time>
      </trkpt>
      <trkpt lat="45.9155" lon="4.68146">
        <ele>379</ele>
        <time>2016-10-12T15:35:58Z</time>
      </trkpt>
      <trkpt lat="45.91558" lon="4.68151">
        <ele>379</ele>
        <time>2016-10-12T15:35:59Z</time>
      </trkpt>
      <trkpt lat="45.91565" lon="4.68156">
        <ele>378</ele>
        <time>2016-10-12T15:36:00Z</time>
      </trkpt>
      <trkpt lat="45.91572" lon="4.68161">
        <ele>378</ele>
        <time>2016-10-12T15:36:01Z</time>
      </trkpt>
      <trkpt lat="45.91581" lon="4.68165">
        <ele>378</ele>
        <time>2016-10-12T15:36:02Z</time>
      </trkpt>
      <trkpt lat="45.91588" lon="4.6817">
        <ele>377</ele>
        <time>2016-10-12T15:36:03Z</time>
      </trkpt>
      <trkpt lat="45.91596" lon="4.68175">
        <ele>377</ele>
        <time>2016-10-12T15:36:04Z</time>
      </trkpt>
      <trkpt lat="45.91605" lon="4.68181">
        <ele>376</ele>
        <time>2016-10-12T15:36:05Z</time>
      </trkpt>
      <trkpt lat="45.91614" lon="4.68189">
        <ele>375</ele>
        <time>2016-10-12T15:36:06Z</time>
      </trkpt>
      <trkpt lat="45.91622" lon="4.68195">
        <ele>375</ele>
        <time>2016-10-12T15:36:07Z</time>
      </trkpt>
      <trkpt lat="45.91631" lon="4.68201">
        <ele>375</ele>
        <time>2016-10-12T15:36:08Z</time>
      </trkpt>
      <trkpt lat="45.91639" lon="4.68207">
        <ele>374</ele>
        <time>2016-10-12T15:36:09Z</time>
      </trkpt>
      <trkpt lat="45.91648" lon="4.68213">
        <ele>374</ele>
        <time>2016-10-12T15:36:10Z</time>
      </trkpt>
      <trkpt lat="45.91657" lon="4.68218">
        <ele>374</ele>
        <time>2016-10-12T15:36:11Z</time>
      </trkpt>
      <trkpt lat="45.91666" lon="4.68224">
        <ele>374</ele>
        <time>2016-10-12T15:36:12Z</time>
      </trkpt>
      <trkpt lat="45.91675" lon="4.68231">
        <ele>371</ele>
        <time>2016-10-12T15:36:13Z</time>
      </trkpt>
      <trkpt lat="45.91683" lon="4.68236">
        <ele>371</ele>
        <time>2016-10-12T15:36:14Z</time>
      </trkpt>
      <trkpt lat="45.91692" lon="4.68242">
        <ele>371</ele>
        <time>2016-10-12T15:36:15Z</time>
      </trkpt>
      <trkpt lat="45.91702" lon="4.68246">
        <ele>370</ele>
        <time>2016-10-12T15:36:16Z</time>
      </trkpt>
      <trkpt lat="45.91711" lon="4.68249">
        <ele>370</ele>
        <time>2016-10-12T15:36:17Z</time>
      </trkpt>
      <trkpt lat="45.9172" lon="4.68253">
        <ele>372</ele>
        <time>2016-10-12T15:36:18Z</time>
      </trkpt>
      <trkpt lat="45.91729" lon="4.68256">
        <ele>372</ele>
        <time>2016-10-12T15:36:19Z</time>
      </trkpt>
      <trkpt lat="45.91736" lon="4.68258">
        <ele>372</ele>
        <time>2016-10-12T15:36:20Z</time>
      </trkpt>
      <trkpt lat="45.91744" lon="4.6826">
        <ele>371</ele>
        <time>2016-10-12T15:36:21Z</time>
      </trkpt>
      <trkpt lat="45.91752" lon="4.68262">
        <ele>371</ele>
        <time>2016-10-12T15:36:22Z</time>
      </trkpt>
      <trkpt lat="45.9176" lon="4.68263">
        <ele>371</ele>
        <time>2016-10-12T15:36:23Z</time>
      </trkpt>
      <trkpt lat="45.91766" lon="4.68265">
        <ele>372</ele>
        <time>2016-10-12T15:36:24Z</time>
      </trkpt>
      <trkpt lat="45.91771" lon="4.68269">
        <ele>372</ele>
        <time>2016-10-12T15:36:25Z</time>
      </trkpt>
      <trkpt lat="45.91778" lon="4.68271">
        <ele>372</ele>
        <time>2016-10-12T15:36:26Z</time>
      </trkpt>
      <trkpt lat="45.91783" lon="4.68273">
        <ele>372</ele>
        <time>2016-10-12T15:36:27Z</time>
      </trkpt>
      <trkpt lat="45.91789" lon="4.68273">
        <ele>372</ele>
        <time>2016-10-12T15:36:28Z</time>
      </trkpt>
      <trkpt lat="45.91794" lon="4.68274">
        <ele>372</ele>
        <time>2016-10-12T15:36:29Z</time>
      </trkpt>
      <trkpt lat="45.91799" lon="4.68276">
        <ele>372</ele>
        <time>2016-10-12T15:36:30Z</time>
      </trkpt>
      <trkpt lat="45.91804" lon="4.68278">
        <ele>373</ele>
        <time>2016-10-12T15:36:31Z</time>
      </trkpt>
      <trkpt lat="45.91809" lon="4.68279">
        <ele>373</ele>
        <time>2016-10-12T15:36:32Z</time>
      </trkpt>
      <trkpt lat="45.91814" lon="4.68279">
        <ele>373</ele>
        <time>2016-10-12T15:36:33Z</time>
      </trkpt>
      <trkpt lat="45.91819" lon="4.6828">
        <ele>373</ele>
        <time>2016-10-12T15:36:34Z</time>
      </trkpt>
      <trkpt lat="45.91824" lon="4.68282">
        <ele>373</ele>
        <time>2016-10-12T15:36:35Z</time>
      </trkpt>
      <trkpt lat="45.91829" lon="4.68284">
        <ele>373</ele>
        <time>2016-10-12T15:36:36Z</time>
      </trkpt>
      <trkpt lat="45.91835" lon="4.68286">
        <ele>375</ele>
        <time>2016-10-12T15:36:37Z</time>
      </trkpt>
      <trkpt lat="45.9184" lon="4.68289">
        <ele>375</ele>
        <time>2016-10-12T15:36:38Z</time>
      </trkpt>
      <trkpt lat="45.91845" lon="4.68291">
        <ele>375</ele>
        <time>2016-10-12T15:36:39Z</time>
      </trkpt>
      <trkpt lat="45.9185" lon="4.68292">
        <ele>375</ele>
        <time>2016-10-12T15:36:40Z</time>
      </trkpt>
      <trkpt lat="45.91855" lon="4.68292">
        <ele>375</ele>
        <time>2016-10-12T15:36:41Z</time>
      </trkpt>
      <trkpt lat="45.9186" lon="4.68293">
        <ele>375</ele>
        <time>2016-10-12T15:36:42Z</time>
      </trkpt>
      <trkpt lat="45.91864" lon="4.68293">
        <ele>376</ele>
        <time>2016-10-12T15:36:43Z</time>
      </trkpt>
      <trkpt lat="45.91869" lon="4.68294">
        <ele>376</ele>
        <time>2016-10-12T15:36:44Z</time>
      </trkpt>
      <trkpt lat="45.91874" lon="4.68294">
        <ele>376</ele>
        <time>2016-10-12T15:36:45Z</time>
      </trkpt>
      <trkpt lat="45.91879" lon="4.68294">
        <ele>376</ele>
        <time>2016-10-12T15:36:46Z</time>
      </trkpt>
      <trkpt lat="45.91884" lon="4.68294">
        <ele>376</ele>
        <time>2016-10-12T15:36:47Z</time>
      </trkpt>
      <trkpt lat="45.91889" lon="4.68295">
        <ele>376</ele>
        <time>2016-10-12T15:36:48Z</time>
      </trkpt>
      <trkpt lat="45.91894" lon="4.68295">
        <ele>376</ele>
        <time>2016-10-12T15:36:49Z</time>
      </trkpt>
      <trkpt lat="45.91898" lon="4.68294">
        <ele>376</ele>
        <time>2016-10-12T15:36:50Z</time>
      </trkpt>
      <trkpt lat="45.91903" lon="4.68295">
        <ele>377</ele>
        <time>2016-10-12T15:36:51Z</time>
      </trkpt>
      <trkpt lat="45.91908" lon="4.68296">
        <ele>377</ele>
        <time>2016-10-12T15:36:52Z</time>
      </trkpt>
      <trkpt lat="45.91912" lon="4.68296">
        <ele>377</ele>
        <time>2016-10-12T15:36:53Z</time>
      </trkpt>
      <trkpt lat="45.91918" lon="4.68298">
        <ele>379</ele>
        <time>2016-10-12T15:36:54Z</time>
      </trkpt>
      <trkpt lat="45.91925" lon="4.683">
        <ele>379</ele>
        <time>2016-10-12T15:36:56Z</time>
      </trkpt>
      <trkpt lat="45.9193" lon="4.68301">
        <ele>379</ele>
        <time>2016-10-12T15:36:57Z</time>
      </trkpt>
      <trkpt lat="45.91935" lon="4.68302">
        <ele>379</ele>
        <time>2016-10-12T15:36:58Z</time>
      </trkpt>
      <trkpt lat="45.9194" lon="4.68302">
        <ele>379</ele>
        <time>2016-10-12T15:36:59Z</time>
      </trkpt>
      <trkpt lat="45.91948" lon="4.68303">
        <ele>379</ele>
        <time>2016-10-12T15:37:01Z</time>
      </trkpt>
      <trkpt lat="45.91952" lon="4.68305">
        <ele>379</ele>
        <time>2016-10-12T15:37:02Z</time>
      </trkpt>
      <trkpt lat="45.91961" lon="4.68306">
        <ele>380</ele>
        <time>2016-10-12T15:37:04Z</time>
      </trkpt>
      <trkpt lat="45.91965" lon="4.68307">
        <ele>380</ele>
        <time>2016-10-12T15:37:05Z</time>
      </trkpt>
      <trkpt lat="45.91974" lon="4.6831">
        <ele>380</ele>
        <time>2016-10-12T15:37:07Z</time>
      </trkpt>
      <trkpt lat="45.91978" lon="4.68311">
        <ele>380</ele>
        <time>2016-10-12T15:37:08Z</time>
      </trkpt>
      <trkpt lat="45.91987" lon="4.68314">
        <ele>380</ele>
        <time>2016-10-12T15:37:10Z</time>
      </trkpt>
      <trkpt lat="45.91991" lon="4.68315">
        <ele>381</ele>
        <time>2016-10-12T15:37:11Z</time>
      </trkpt>
      <trkpt lat="45.91999" lon="4.68319">
        <ele>381</ele>
        <time>2016-10-12T15:37:13Z</time>
      </trkpt>
      <trkpt lat="45.92003" lon="4.6832">
        <ele>381</ele>
        <time>2016-10-12T15:37:14Z</time>
      </trkpt>
      <trkpt lat="45.92007" lon="4.68321">
        <ele>381</ele>
        <time>2016-10-12T15:37:15Z</time>
      </trkpt>
      <trkpt lat="45.92012" lon="4.68321">
        <ele>381</ele>
        <time>2016-10-12T15:37:16Z</time>
      </trkpt>
      <trkpt lat="45.92017" lon="4.68321">
        <ele>380</ele>
        <time>2016-10-12T15:37:17Z</time>
      </trkpt>
      <trkpt lat="45.92021" lon="4.68322">
        <ele>380</ele>
        <time>2016-10-12T15:37:18Z</time>
      </trkpt>
      <trkpt lat="45.92026" lon="4.68323">
        <ele>380</ele>
        <time>2016-10-12T15:37:19Z</time>
      </trkpt>
      <trkpt lat="45.92031" lon="4.68324">
        <ele>380</ele>
        <time>2016-10-12T15:37:20Z</time>
      </trkpt>
      <trkpt lat="45.92037" lon="4.68325">
        <ele>380</ele>
        <time>2016-10-12T15:37:21Z</time>
      </trkpt>
      <trkpt lat="45.92042" lon="4.68328">
        <ele>380</ele>
        <time>2016-10-12T15:37:22Z</time>
      </trkpt>
      <trkpt lat="45.92047" lon="4.6833">
        <ele>380</ele>
        <time>2016-10-12T15:37:23Z</time>
      </trkpt>
      <trkpt lat="45.92054" lon="4.6833">
        <ele>380</ele>
        <time>2016-10-12T15:37:24Z</time>
      </trkpt>
      <trkpt lat="45.9206" lon="4.68332">
        <ele>380</ele>
        <time>2016-10-12T15:37:25Z</time>
      </trkpt>
      <trkpt lat="45.92064" lon="4.68333">
        <ele>380</ele>
        <time>2016-10-12T15:37:26Z</time>
      </trkpt>
      <trkpt lat="45.92069" lon="4.68335">
        <ele>383</ele>
        <time>2016-10-12T15:37:27Z</time>
      </trkpt>
      <trkpt lat="45.92075" lon="4.68337">
        <ele>383</ele>
        <time>2016-10-12T15:37:28Z</time>
      </trkpt>
      <trkpt lat="45.92081" lon="4.68339">
        <ele>383</ele>
        <time>2016-10-12T15:37:29Z</time>
      </trkpt>
      <trkpt lat="45.92086" lon="4.68342">
        <ele>383</ele>
        <time>2016-10-12T15:37:30Z</time>
      </trkpt>
      <trkpt lat="45.9209" lon="4.68345">
        <ele>383</ele>
        <time>2016-10-12T15:37:31Z</time>
      </trkpt>
      <trkpt lat="45.92095" lon="4.68347">
        <ele>383</ele>
        <time>2016-10-12T15:37:32Z</time>
      </trkpt>
      <trkpt lat="45.921" lon="4.68348">
        <ele>383</ele>
        <time>2016-10-12T15:37:33Z</time>
      </trkpt>
      <trkpt lat="45.92105" lon="4.6835">
        <ele>383</ele>
        <time>2016-10-12T15:37:34Z</time>
      </trkpt>
      <trkpt lat="45.9211" lon="4.68352">
        <ele>383</ele>
        <time>2016-10-12T15:37:35Z</time>
      </trkpt>
      <trkpt lat="45.92115" lon="4.68354">
        <ele>383</ele>
        <time>2016-10-12T15:37:36Z</time>
      </trkpt>
      <trkpt lat="45.92119" lon="4.68356">
        <ele>383</ele>
        <time>2016-10-12T15:37:37Z</time>
      </trkpt>
      <trkpt lat="45.92124" lon="4.68359">
        <ele>383</ele>
        <time>2016-10-12T15:37:38Z</time>
      </trkpt>
      <trkpt lat="45.92128" lon="4.68362">
        <ele>383</ele>
        <time>2016-10-12T15:37:39Z</time>
      </trkpt>
      <trkpt lat="45.92132" lon="4.68364">
        <ele>383</ele>
        <time>2016-10-12T15:37:40Z</time>
      </trkpt>
      <trkpt lat="45.9214" lon="4.6837">
        <ele>383</ele>
        <time>2016-10-12T15:37:42Z</time>
      </trkpt>
      <trkpt lat="45.92144" lon="4.68374">
        <ele>384</ele>
        <time>2016-10-12T15:37:43Z</time>
      </trkpt>
      <trkpt lat="45.92148" lon="4.68377">
        <ele>384</ele>
        <time>2016-10-12T15:37:44Z</time>
      </trkpt>
      <trkpt lat="45.92153" lon="4.6838">
        <ele>384</ele>
        <time>2016-10-12T15:37:45Z</time>
      </trkpt>
      <trkpt lat="45.92157" lon="4.68384">
        <ele>384</ele>
        <time>2016-10-12T15:37:46Z</time>
      </trkpt>
      <trkpt lat="45.92162" lon="4.68388">
        <ele>384</ele>
        <time>2016-10-12T15:37:47Z</time>
      </trkpt>
      <trkpt lat="45.92166" lon="4.68393">
        <ele>384</ele>
        <time>2016-10-12T15:37:48Z</time>
      </trkpt>
      <trkpt lat="45.9217" lon="4.68398">
        <ele>384</ele>
        <time>2016-10-12T15:37:49Z</time>
      </trkpt>
      <trkpt lat="45.92173" lon="4.68404">
        <ele>384</ele>
        <time>2016-10-12T15:37:50Z</time>
      </trkpt>
      <trkpt lat="45.92177" lon="4.68409">
        <ele>384</ele>
        <time>2016-10-12T15:37:51Z</time>
      </trkpt>
      <trkpt lat="45.92181" lon="4.68414">
        <ele>384</ele>
        <time>2016-10-12T15:37:52Z</time>
      </trkpt>
      <trkpt lat="45.92184" lon="4.68418">
        <ele>386</ele>
        <time>2016-10-12T15:37:53Z</time>
      </trkpt>
      <trkpt lat="45.92189" lon="4.68421">
        <ele>386</ele>
        <time>2016-10-12T15:37:54Z</time>
      </trkpt>
      <trkpt lat="45.92194" lon="4.68424">
        <ele>386</ele>
        <time>2016-10-12T15:37:55Z</time>
      </trkpt>
      <trkpt lat="45.92199" lon="4.68426">
        <ele>386</ele>
        <time>2016-10-12T15:37:56Z</time>
      </trkpt>
      <trkpt lat="45.92203" lon="4.6843">
        <ele>386</ele>
        <time>2016-10-12T15:37:57Z</time>
      </trkpt>
      <trkpt lat="45.92208" lon="4.68432">
        <ele>386</ele>
        <time>2016-10-12T15:37:58Z</time>
      </trkpt>
      <trkpt lat="45.92213" lon="4.68435">
        <ele>386</ele>
        <time>2016-10-12T15:37:59Z</time>
      </trkpt>
      <trkpt lat="45.92217" lon="4.68439">
        <ele>386</ele>
        <time>2016-10-12T15:38:00Z</time>
      </trkpt>
      <trkpt lat="45.92221" lon="4.68443">
        <ele>386</ele>
        <time>2016-10-12T15:38:01Z</time>
      </trkpt>
      <trkpt lat="45.92225" lon="4.68446">
        <ele>386</ele>
        <time>2016-10-12T15:38:02Z</time>
      </trkpt>
      <trkpt lat="45.92229" lon="4.6845">
        <ele>386</ele>
        <time>2016-10-12T15:38:03Z</time>
      </trkpt>
      <trkpt lat="45.92233" lon="4.68454">
        <ele>386</ele>
        <time>2016-10-12T15:38:04Z</time>
      </trkpt>
      <trkpt lat="45.92237" lon="4.68458">
        <ele>386</ele>
        <time>2016-10-12T15:38:05Z</time>
      </trkpt>
      <trkpt lat="45.92244" lon="4.68465">
        <ele>386</ele>
        <time>2016-10-12T15:38:07Z</time>
      </trkpt>
      <trkpt lat="45.92248" lon="4.68469">
        <ele>386</ele>
        <time>2016-10-12T15:38:08Z</time>
      </trkpt>
      <trkpt lat="45.92252" lon="4.68473">
        <ele>384</ele>
        <time>2016-10-12T15:38:09Z</time>
      </trkpt>
      <trkpt lat="45.92256" lon="4.68476">
        <ele>384</ele>
        <time>2016-10-12T15:38:10Z</time>
      </trkpt>
      <trkpt lat="45.92261" lon="4.6848">
        <ele>384</ele>
        <time>2016-10-12T15:38:11Z</time>
      </trkpt>
      <trkpt lat="45.92264" lon="4.68484">
        <ele>384</ele>
        <time>2016-10-12T15:38:12Z</time>
      </trkpt>
      <trkpt lat="45.92268" lon="4.68488">
        <ele>384</ele>
        <time>2016-10-12T15:38:13Z</time>
      </trkpt>
      <trkpt lat="45.92273" lon="4.68492">
        <ele>384</ele>
        <time>2016-10-12T15:38:14Z</time>
      </trkpt>
      <trkpt lat="45.92277" lon="4.68496">
        <ele>384</ele>
        <time>2016-10-12T15:38:15Z</time>
      </trkpt>
      <trkpt lat="45.92281" lon="4.68501">
        <ele>387</ele>
        <time>2016-10-12T15:38:16Z</time>
      </trkpt>
      <trkpt lat="45.92286" lon="4.68505">
        <ele>387</ele>
        <time>2016-10-12T15:38:17Z</time>
      </trkpt>
      <trkpt lat="45.9229" lon="4.6851">
        <ele>387</ele>
        <time>2016-10-12T15:38:18Z</time>
      </trkpt>
      <trkpt lat="45.92295" lon="4.68514">
        <ele>387</ele>
        <time>2016-10-12T15:38:19Z</time>
      </trkpt>
      <trkpt lat="45.92299" lon="4.68518">
        <ele>387</ele>
        <time>2016-10-12T15:38:20Z</time>
      </trkpt>
      <trkpt lat="45.92302" lon="4.68522">
        <ele>387</ele>
        <time>2016-10-12T15:38:21Z</time>
      </trkpt>
      <trkpt lat="45.92306" lon="4.68526">
        <ele>387</ele>
        <time>2016-10-12T15:38:22Z</time>
      </trkpt>
      <trkpt lat="45.9231" lon="4.6853">
        <ele>387</ele>
        <time>2016-10-12T15:38:23Z</time>
      </trkpt>
      <trkpt lat="45.92314" lon="4.68533">
        <ele>387</ele>
        <time>2016-10-12T15:38:24Z</time>
      </trkpt>
      <trkpt lat="45.92318" lon="4.68537">
        <ele>388</ele>
        <time>2016-10-12T15:38:25Z</time>
      </trkpt>
      <trkpt lat="45.92323" lon="4.6854">
        <ele>388</ele>
        <time>2016-10-12T15:38:26Z</time>
      </trkpt>
      <trkpt lat="45.92327" lon="4.68544">
        <ele>388</ele>
        <time>2016-10-12T15:38:27Z</time>
      </trkpt>
      <trkpt lat="45.92331" lon="4.68548">
        <ele>388</ele>
        <time>2016-10-12T15:38:28Z</time>
      </trkpt>
      <trkpt lat="45.92336" lon="4.68552">
        <ele>385</ele>
        <time>2016-10-12T15:38:29Z</time>
      </trkpt>
      <trkpt lat="45.92341" lon="4.68555">
        <ele>385</ele>
        <time>2016-10-12T15:38:30Z</time>
      </trkpt>
      <trkpt lat="45.92346" lon="4.68559">
        <ele>385</ele>
        <time>2016-10-12T15:38:31Z</time>
      </trkpt>
      <trkpt lat="45.92351" lon="4.68563">
        <ele>385</ele>
        <time>2016-10-12T15:38:32Z</time>
      </trkpt>
      <trkpt lat="45.92356" lon="4.68566">
        <ele>385</ele>
        <time>2016-10-12T15:38:33Z</time>
      </trkpt>
      <trkpt lat="45.92361" lon="4.6857">
        <ele>385</ele>
        <time>2016-10-12T15:38:34Z</time>
      </trkpt>
      <trkpt lat="45.92366" lon="4.68574">
        <ele>385</ele>
        <time>2016-10-12T15:38:35Z</time>
      </trkpt>
      <trkpt lat="45.92371" lon="4.68577">
        <ele>384</ele>
        <time>2016-10-12T15:38:36Z</time>
      </trkpt>
      <trkpt lat="45.92376" lon="4.68581">
        <ele>384</ele>
        <time>2016-10-12T15:38:37Z</time>
      </trkpt>
      <trkpt lat="45.92382" lon="4.68584">
        <ele>387</ele>
        <time>2016-10-12T15:38:38Z</time>
      </trkpt>
      <trkpt lat="45.92387" lon="4.68588">
        <ele>387</ele>
        <time>2016-10-12T15:38:39Z</time>
      </trkpt>
      <trkpt lat="45.92393" lon="4.68592">
        <ele>386</ele>
        <time>2016-10-12T15:38:40Z</time>
      </trkpt>
      <trkpt lat="45.92398" lon="4.68595">
        <ele>386</ele>
        <time>2016-10-12T15:38:41Z</time>
      </trkpt>
      <trkpt lat="45.92404" lon="4.68598">
        <ele>385</ele>
        <time>2016-10-12T15:38:42Z</time>
      </trkpt>
      <trkpt lat="45.9241" lon="4.68601">
        <ele>385</ele>
        <time>2016-10-12T15:38:43Z</time>
      </trkpt>
      <trkpt lat="45.92416" lon="4.68604">
        <ele>385</ele>
        <time>2016-10-12T15:38:44Z</time>
      </trkpt>
      <trkpt lat="45.92423" lon="4.68607">
        <ele>381</ele>
        <time>2016-10-12T15:38:45Z</time>
      </trkpt>
      <trkpt lat="45.92429" lon="4.6861">
        <ele>381</ele>
        <time>2016-10-12T15:38:46Z</time>
      </trkpt>
      <trkpt lat="45.92436" lon="4.68614">
        <ele>381</ele>
        <time>2016-10-12T15:38:47Z</time>
      </trkpt>
      <trkpt lat="45.92443" lon="4.68618">
        <ele>381</ele>
        <time>2016-10-12T15:38:48Z</time>
      </trkpt>
      <trkpt lat="45.9245" lon="4.68621">
        <ele>380</ele>
        <time>2016-10-12T15:38:49Z</time>
      </trkpt>
      <trkpt lat="45.92457" lon="4.68624">
        <ele>380</ele>
        <time>2016-10-12T15:38:50Z</time>
      </trkpt>
      <trkpt lat="45.92464" lon="4.68628">
        <ele>380</ele>
        <time>2016-10-12T15:38:51Z</time>
      </trkpt>
      <trkpt lat="45.92472" lon="4.68632">
        <ele>380</ele>
        <time>2016-10-12T15:38:52Z</time>
      </trkpt>
      <trkpt lat="45.92479" lon="4.68635">
        <ele>379</ele>
        <time>2016-10-12T15:38:53Z</time>
      </trkpt>
      <trkpt lat="45.92487" lon="4.68638">
        <ele>379</ele>
        <time>2016-10-12T15:38:54Z</time>
      </trkpt>
      <trkpt lat="45.92495" lon="4.68641">
        <ele>379</ele>
        <time>2016-10-12T15:38:55Z</time>
      </trkpt>
      <trkpt lat="45.92503" lon="4.68643">
        <ele>376</ele>
        <time>2016-10-12T15:38:56Z</time>
      </trkpt>
      <trkpt lat="45.92511" lon="4.68644">
        <ele>375</ele>
        <time>2016-10-12T15:38:57Z</time>
      </trkpt>
      <trkpt lat="45.9252" lon="4.68649">
        <ele>375</ele>
        <time>2016-10-12T15:38:58Z</time>
      </trkpt>
      <trkpt lat="45.92529" lon="4.68651">
        <ele>375</ele>
        <time>2016-10-12T15:38:59Z</time>
      </trkpt>
      <trkpt lat="45.92537" lon="4.68653">
        <ele>375</ele>
        <time>2016-10-12T15:39:00Z</time>
      </trkpt>
      <trkpt lat="45.92545" lon="4.68655">
        <ele>374</ele>
        <time>2016-10-12T15:39:01Z</time>
      </trkpt>
      <trkpt lat="45.92552" lon="4.68656">
        <ele>374</ele>
        <time>2016-10-12T15:39:02Z</time>
      </trkpt>
      <trkpt lat="45.92558" lon="4.68656">
        <ele>374</ele>
        <time>2016-10-12T15:39:03Z</time>
      </trkpt>
      <trkpt lat="45.92567" lon="4.68656">
        <ele>374</ele>
        <time>2016-10-12T15:39:04Z</time>
      </trkpt>
      <trkpt lat="45.92571" lon="4.68653">
        <ele>374</ele>
        <time>2016-10-12T15:39:05Z</time>
      </trkpt>
      <trkpt lat="45.92577" lon="4.68648">
        <ele>373</ele>
        <time>2016-10-12T15:39:06Z</time>
      </trkpt>
      <trkpt lat="45.92582" lon="4.68645">
        <ele>373</ele>
        <time>2016-10-12T15:39:07Z</time>
      </trkpt>
      <trkpt lat="45.92587" lon="4.68642">
        <ele>370</ele>
        <time>2016-10-12T15:39:08Z</time>
      </trkpt>
      <trkpt lat="45.92595" lon="4.68638">
        <ele>370</ele>
        <time>2016-10-12T15:39:10Z</time>
      </trkpt>
      <trkpt lat="45.92597" lon="4.68636">
        <ele>370</ele>
        <time>2016-10-12T15:39:11Z</time>
      </trkpt>
      <trkpt lat="45.92605" lon="4.68635">
        <ele>369</ele>
        <time>2016-10-12T15:39:13Z</time>
      </trkpt>
      <trkpt lat="45.92609" lon="4.68633">
        <ele>369</ele>
        <time>2016-10-12T15:39:14Z</time>
      </trkpt>
      <trkpt lat="45.92616" lon="4.68633">
        <ele>369</ele>
        <time>2016-10-12T15:39:16Z</time>
      </trkpt>
      <trkpt lat="45.92619" lon="4.68631">
        <ele>369</ele>
        <time>2016-10-12T15:39:17Z</time>
      </trkpt>
      <trkpt lat="45.92627" lon="4.68626">
        <ele>368</ele>
        <time>2016-10-12T15:39:19Z</time>
      </trkpt>
      <trkpt lat="45.92631" lon="4.68623">
        <ele>368</ele>
        <time>2016-10-12T15:39:20Z</time>
      </trkpt>
      <trkpt lat="45.92639" lon="4.68619">
        <ele>368</ele>
        <time>2016-10-12T15:39:22Z</time>
      </trkpt>
      <trkpt lat="45.92644" lon="4.68618">
        <ele>367</ele>
        <time>2016-10-12T15:39:23Z</time>
      </trkpt>
      <trkpt lat="45.92649" lon="4.68616">
        <ele>367</ele>
        <time>2016-10-12T15:39:24Z</time>
      </trkpt>
      <trkpt lat="45.92655" lon="4.68614">
        <ele>367</ele>
        <time>2016-10-12T15:39:25Z</time>
      </trkpt>
      <trkpt lat="45.9266" lon="4.68613">
        <ele>367</ele>
        <time>2016-10-12T15:39:26Z</time>
      </trkpt>
      <trkpt lat="45.92666" lon="4.68611">
        <ele>367</ele>
        <time>2016-10-12T15:39:27Z</time>
      </trkpt>
      <trkpt lat="45.9267" lon="4.68612">
        <ele>364</ele>
        <time>2016-10-12T15:39:28Z</time>
      </trkpt>
      <trkpt lat="45.92675" lon="4.68613">
        <ele>364</ele>
        <time>2016-10-12T15:39:29Z</time>
      </trkpt>
      <trkpt lat="45.92681" lon="4.68612">
        <ele>364</ele>
        <time>2016-10-12T15:39:30Z</time>
      </trkpt>
      <trkpt lat="45.92686" lon="4.68609">
        <ele>364</ele>
        <time>2016-10-12T15:39:31Z</time>
      </trkpt>
      <trkpt lat="45.92692" lon="4.68606">
        <ele>364</ele>
        <time>2016-10-12T15:39:32Z</time>
      </trkpt>
      <trkpt lat="45.92697" lon="4.68602">
        <ele>364</ele>
        <time>2016-10-12T15:39:33Z</time>
      </trkpt>
      <trkpt lat="45.92703" lon="4.68598">
        <ele>364</ele>
        <time>2016-10-12T15:39:34Z</time>
      </trkpt>
      <trkpt lat="45.92707" lon="4.68594">
        <ele>364</ele>
        <time>2016-10-12T15:39:35Z</time>
      </trkpt>
      <trkpt lat="45.92713" lon="4.6859">
        <ele>364</ele>
        <time>2016-10-12T15:39:36Z</time>
      </trkpt>
      <trkpt lat="45.92719" lon="4.68587">
        <ele>364</ele>
        <time>2016-10-12T15:39:37Z</time>
      </trkpt>
      <trkpt lat="45.92724" lon="4.68584">
        <ele>364</ele>
        <time>2016-10-12T15:39:38Z</time>
      </trkpt>
      <trkpt lat="45.9273" lon="4.68582">
        <ele>366</ele>
        <time>2016-10-12T15:39:39Z</time>
      </trkpt>
      <trkpt lat="45.92736" lon="4.68579">
        <ele>366</ele>
        <time>2016-10-12T15:39:40Z</time>
      </trkpt>
      <trkpt lat="45.92742" lon="4.68577">
        <ele>366</ele>
        <time>2016-10-12T15:39:41Z</time>
      </trkpt>
      <trkpt lat="45.92749" lon="4.68575">
        <ele>366</ele>
        <time>2016-10-12T15:39:42Z</time>
      </trkpt>
      <trkpt lat="45.92756" lon="4.68575">
        <ele>366</ele>
        <time>2016-10-12T15:39:43Z</time>
      </trkpt>
      <trkpt lat="45.92763" lon="4.68573">
        <ele>365</ele>
        <time>2016-10-12T15:39:44Z</time>
      </trkpt>
      <trkpt lat="45.92769" lon="4.68572">
        <ele>365</ele>
        <time>2016-10-12T15:39:45Z</time>
      </trkpt>
      <trkpt lat="45.92775" lon="4.68572">
        <ele>365</ele>
        <time>2016-10-12T15:39:46Z</time>
      </trkpt>
      <trkpt lat="45.92782" lon="4.68573">
        <ele>365</ele>
        <time>2016-10-12T15:39:47Z</time>
      </trkpt>
      <trkpt lat="45.9279" lon="4.68575">
        <ele>364</ele>
        <time>2016-10-12T15:39:48Z</time>
      </trkpt>
      <trkpt lat="45.92798" lon="4.68576">
        <ele>364</ele>
        <time>2016-10-12T15:39:49Z</time>
      </trkpt>
      <trkpt lat="45.92805" lon="4.68577">
        <ele>364</ele>
        <time>2016-10-12T15:39:50Z</time>
      </trkpt>
      <trkpt lat="45.92812" lon="4.68579">
        <ele>363</ele>
        <time>2016-10-12T15:39:51Z</time>
      </trkpt>
      <trkpt lat="45.92819" lon="4.6858">
        <ele>363</ele>
        <time>2016-10-12T15:39:52Z</time>
      </trkpt>
      <trkpt lat="45.92826" lon="4.68582">
        <ele>362</ele>
        <time>2016-10-12T15:39:53Z</time>
      </trkpt>
      <trkpt lat="45.92834" lon="4.68583">
        <ele>361</ele>
        <time>2016-10-12T15:39:54Z</time>
      </trkpt>
      <trkpt lat="45.92841" lon="4.68586">
        <ele>360</ele>
        <time>2016-10-12T15:39:55Z</time>
      </trkpt>
      <trkpt lat="45.92848" lon="4.68589">
        <ele>359</ele>
        <time>2016-10-12T15:39:56Z</time>
      </trkpt>
      <trkpt lat="45.92856" lon="4.68591">
        <ele>359</ele>
        <time>2016-10-12T15:39:57Z</time>
      </trkpt>
      <trkpt lat="45.92863" lon="4.68592">
        <ele>359</ele>
        <time>2016-10-12T15:39:58Z</time>
      </trkpt>
      <trkpt lat="45.92871" lon="4.68593">
        <ele>359</ele>
        <time>2016-10-12T15:39:59Z</time>
      </trkpt>
      <trkpt lat="45.92878" lon="4.68594">
        <ele>358</ele>
        <time>2016-10-12T15:40:00Z</time>
      </trkpt>
      <trkpt lat="45.92886" lon="4.68595">
        <ele>358</ele>
        <time>2016-10-12T15:40:01Z</time>
      </trkpt>
      <trkpt lat="45.92893" lon="4.68596">
        <ele>358</ele>
        <time>2016-10-12T15:40:02Z</time>
      </trkpt>
      <trkpt lat="45.929" lon="4.68597">
        <ele>358</ele>
        <time>2016-10-12T15:40:03Z</time>
      </trkpt>
      <trkpt lat="45.92907" lon="4.68598">
        <ele>358</ele>
        <time>2016-10-12T15:40:04Z</time>
      </trkpt>
      <trkpt lat="45.92914" lon="4.686">
        <ele>358</ele>
        <time>2016-10-12T15:40:05Z</time>
      </trkpt>
      <trkpt lat="45.92922" lon="4.68601">
        <ele>359</ele>
        <time>2016-10-12T15:40:06Z</time>
      </trkpt>
      <trkpt lat="45.9293" lon="4.68602">
        <ele>358</ele>
        <time>2016-10-12T15:40:07Z</time>
      </trkpt>
      <trkpt lat="45.92938" lon="4.68603">
        <ele>358</ele>
        <time>2016-10-12T15:40:08Z</time>
      </trkpt>
      <trkpt lat="45.92946" lon="4.68604">
        <ele>358</ele>
        <time>2016-10-12T15:40:09Z</time>
      </trkpt>
      <trkpt lat="45.92954" lon="4.68606">
        <ele>358</ele>
        <time>2016-10-12T15:40:10Z</time>
      </trkpt>
      <trkpt lat="45.92962" lon="4.68608">
        <ele>358</ele>
        <time>2016-10-12T15:40:11Z</time>
      </trkpt>
      <trkpt lat="45.9297" lon="4.68609">
        <ele>358</ele>
        <time>2016-10-12T15:40:12Z</time>
      </trkpt>
      <trkpt lat="45.92978" lon="4.6861">
        <ele>358</ele>
        <time>2016-10-12T15:40:13Z</time>
      </trkpt>
      <trkpt lat="45.92987" lon="4.68611">
        <ele>358</ele>
        <time>2016-10-12T15:40:14Z</time>
      </trkpt>
      <trkpt lat="45.92995" lon="4.68612">
        <ele>358</ele>
        <time>2016-10-12T15:40:15Z</time>
      </trkpt>
      <trkpt lat="45.93004" lon="4.68614">
        <ele>356</ele>
        <time>2016-10-12T15:40:16Z</time>
      </trkpt>
      <trkpt lat="45.93012" lon="4.68615">
        <ele>356</ele>
        <time>2016-10-12T15:40:17Z</time>
      </trkpt>
      <trkpt lat="45.93021" lon="4.68617">
        <ele>356</ele>
        <time>2016-10-12T15:40:18Z</time>
      </trkpt>
      <trkpt lat="45.9303" lon="4.68618">
        <ele>355</ele>
        <time>2016-10-12T15:40:19Z</time>
      </trkpt>
      <trkpt lat="45.93039" lon="4.6862">
        <ele>355</ele>
        <time>2016-10-12T15:40:20Z</time>
      </trkpt>
      <trkpt lat="45.93048" lon="4.68623">
        <ele>355</ele>
        <time>2016-10-12T15:40:21Z</time>
      </trkpt>
      <trkpt lat="45.93057" lon="4.68625">
        <ele>354</ele>
        <time>2016-10-12T15:40:22Z</time>
      </trkpt>
      <trkpt lat="45.93067" lon="4.68627">
        <ele>354</ele>
        <time>2016-10-12T15:40:23Z</time>
      </trkpt>
      <trkpt lat="45.93075" lon="4.6863">
        <ele>354</ele>
        <time>2016-10-12T15:40:24Z</time>
      </trkpt>
      <trkpt lat="45.93084" lon="4.68633">
        <ele>349</ele>
        <time>2016-10-12T15:40:25Z</time>
      </trkpt>
      <trkpt lat="45.93093" lon="4.68636">
        <ele>349</ele>
        <time>2016-10-12T15:40:26Z</time>
      </trkpt>
      <trkpt lat="45.93103" lon="4.68638">
        <ele>349</ele>
        <time>2016-10-12T15:40:27Z</time>
      </trkpt>
      <trkpt lat="45.93112" lon="4.6864">
        <ele>348</ele>
        <time>2016-10-12T15:40:28Z</time>
      </trkpt>
      <trkpt lat="45.93122" lon="4.68642">
        <ele>348</ele>
        <time>2016-10-12T15:40:29Z</time>
      </trkpt>
      <trkpt lat="45.93131" lon="4.68644">
        <ele>348</ele>
        <time>2016-10-12T15:40:30Z</time>
      </trkpt>
      <trkpt lat="45.93141" lon="4.68646">
        <ele>347</ele>
        <time>2016-10-12T15:40:31Z</time>
      </trkpt>
      <trkpt lat="45.93151" lon="4.68648">
        <ele>347</ele>
        <time>2016-10-12T15:40:32Z</time>
      </trkpt>
      <trkpt lat="45.93161" lon="4.68651">
        <ele>347</ele>
        <time>2016-10-12T15:40:33Z</time>
      </trkpt>
      <trkpt lat="45.93171" lon="4.68653">
        <ele>345</ele>
        <time>2016-10-12T15:40:34Z</time>
      </trkpt>
      <trkpt lat="45.93181" lon="4.68656">
        <ele>345</ele>
        <time>2016-10-12T15:40:35Z</time>
      </trkpt>
      <trkpt lat="45.93191" lon="4.68658">
        <ele>345</ele>
        <time>2016-10-12T15:40:36Z</time>
      </trkpt>
      <trkpt lat="45.93201" lon="4.6866">
        <ele>344</ele>
        <time>2016-10-12T15:40:37Z</time>
      </trkpt>
      <trkpt lat="45.93211" lon="4.68662">
        <ele>344</ele>
        <time>2016-10-12T15:40:38Z</time>
      </trkpt>
      <trkpt lat="45.9322" lon="4.68664">
        <ele>344</ele>
        <time>2016-10-12T15:40:39Z</time>
      </trkpt>
      <trkpt lat="45.93229" lon="4.68666">
        <ele>344</ele>
        <time>2016-10-12T15:40:40Z</time>
      </trkpt>
      <trkpt lat="45.93238" lon="4.68669">
        <ele>344</ele>
        <time>2016-10-12T15:40:41Z</time>
      </trkpt>
      <trkpt lat="45.93247" lon="4.68671">
        <ele>344</ele>
        <time>2016-10-12T15:40:42Z</time>
      </trkpt>
      <trkpt lat="45.93256" lon="4.68673">
        <ele>344</ele>
        <time>2016-10-12T15:40:43Z</time>
      </trkpt>
      <trkpt lat="45.93265" lon="4.68675">
        <ele>344</ele>
        <time>2016-10-12T15:40:44Z</time>
      </trkpt>
      <trkpt lat="45.93273" lon="4.68677">
        <ele>344</ele>
        <time>2016-10-12T15:40:45Z</time>
      </trkpt>
      <trkpt lat="45.93282" lon="4.68679">
        <ele>344</ele>
        <time>2016-10-12T15:40:46Z</time>
      </trkpt>
      <trkpt lat="45.9329" lon="4.68681">
        <ele>344</ele>
        <time>2016-10-12T15:40:47Z</time>
      </trkpt>
      <trkpt lat="45.93298" lon="4.68683">
        <ele>344</ele>
        <time>2016-10-12T15:40:48Z</time>
      </trkpt>
      <trkpt lat="45.93306" lon="4.68685">
        <ele>344</ele>
        <time>2016-10-12T15:40:49Z</time>
      </trkpt>
      <trkpt lat="45.93314" lon="4.68687">
        <ele>344</ele>
        <time>2016-10-12T15:40:50Z</time>
      </trkpt>
      <trkpt lat="45.93321" lon="4.68689">
        <ele>344</ele>
        <time>2016-10-12T15:40:51Z</time>
      </trkpt>
      <trkpt lat="45.93329" lon="4.68691">
        <ele>344</ele>
        <time>2016-10-12T15:40:52Z</time>
      </trkpt>
      <trkpt lat="45.93336" lon="4.68693">
        <ele>344</ele>
        <time>2016-10-12T15:40:53Z</time>
      </trkpt>
      <trkpt lat="45.93344" lon="4.68695">
        <ele>344</ele>
        <time>2016-10-12T15:40:54Z</time>
      </trkpt>
      <trkpt lat="45.93352" lon="4.68697">
        <ele>344</ele>
        <time>2016-10-12T15:40:55Z</time>
      </trkpt>
      <trkpt lat="45.9336" lon="4.68699">
        <ele>344</ele>
        <time>2016-10-12T15:40:56Z</time>
      </trkpt>
      <trkpt lat="45.93367" lon="4.68701">
        <ele>344</ele>
        <time>2016-10-12T15:40:57Z</time>
      </trkpt>
      <trkpt lat="45.93375" lon="4.68703">
        <ele>344</ele>
        <time>2016-10-12T15:40:58Z</time>
      </trkpt>
      <trkpt lat="45.93383" lon="4.68704">
        <ele>344</ele>
        <time>2016-10-12T15:40:59Z</time>
      </trkpt>
      <trkpt lat="45.93391" lon="4.68706">
        <ele>344</ele>
        <time>2016-10-12T15:41:00Z</time>
      </trkpt>
      <trkpt lat="45.93398" lon="4.68708">
        <ele>344</ele>
        <time>2016-10-12T15:41:01Z</time>
      </trkpt>
      <trkpt lat="45.93405" lon="4.68709">
        <ele>343</ele>
        <time>2016-10-12T15:41:02Z</time>
      </trkpt>
      <trkpt lat="45.93412" lon="4.68711">
        <ele>343</ele>
        <time>2016-10-12T15:41:03Z</time>
      </trkpt>
      <trkpt lat="45.93418" lon="4.68712">
        <ele>343</ele>
        <time>2016-10-12T15:41:04Z</time>
      </trkpt>
      <trkpt lat="45.93425" lon="4.68713">
        <ele>343</ele>
        <time>2016-10-12T15:41:05Z</time>
      </trkpt>
      <trkpt lat="45.93431" lon="4.68715">
        <ele>343</ele>
        <time>2016-10-12T15:41:06Z</time>
      </trkpt>
      <trkpt lat="45.93438" lon="4.68716">
        <ele>343</ele>
        <time>2016-10-12T15:41:07Z</time>
      </trkpt>
      <trkpt lat="45.93444" lon="4.68718">
        <ele>343</ele>
        <time>2016-10-12T15:41:08Z</time>
      </trkpt>
      <trkpt lat="45.93451" lon="4.68719">
        <ele>342</ele>
        <time>2016-10-12T15:41:09Z</time>
      </trkpt>
      <trkpt lat="45.93457" lon="4.6872">
        <ele>342</ele>
        <time>2016-10-12T15:41:10Z</time>
      </trkpt>
      <trkpt lat="45.93463" lon="4.68722">
        <ele>342</ele>
        <time>2016-10-12T15:41:11Z</time>
      </trkpt>
      <trkpt lat="45.93469" lon="4.68723">
        <ele>342</ele>
        <time>2016-10-12T15:41:12Z</time>
      </trkpt>
      <trkpt lat="45.93476" lon="4.68725">
        <ele>342</ele>
        <time>2016-10-12T15:41:13Z</time>
      </trkpt>
      <trkpt lat="45.93483" lon="4.68727">
        <ele>342</ele>
        <time>2016-10-12T15:41:14Z</time>
      </trkpt>
      <trkpt lat="45.9349" lon="4.68729">
        <ele>342</ele>
        <time>2016-10-12T15:41:15Z</time>
      </trkpt>
      <trkpt lat="45.93497" lon="4.6873">
        <ele>342</ele>
        <time>2016-10-12T15:41:16Z</time>
      </trkpt>
      <trkpt lat="45.93503" lon="4.68732">
        <ele>342</ele>
        <time>2016-10-12T15:41:17Z</time>
      </trkpt>
      <trkpt lat="45.93509" lon="4.68733">
        <ele>342</ele>
        <time>2016-10-12T15:41:18Z</time>
      </trkpt>
      <trkpt lat="45.93515" lon="4.68734">
        <ele>342</ele>
        <time>2016-10-12T15:41:19Z</time>
      </trkpt>
      <trkpt lat="45.93521" lon="4.68735">
        <ele>342</ele>
        <time>2016-10-12T15:41:20Z</time>
      </trkpt>
      <trkpt lat="45.93527" lon="4.68736">
        <ele>342</ele>
        <time>2016-10-12T15:41:21Z</time>
      </trkpt>
      <trkpt lat="45.93533" lon="4.68737">
        <ele>342</ele>
        <time>2016-10-12T15:41:22Z</time>
      </trkpt>
      <trkpt lat="45.93538" lon="4.68738">
        <ele>342</ele>
        <time>2016-10-12T15:41:23Z</time>
      </trkpt>
      <trkpt lat="45.93544" lon="4.68741">
        <ele>342</ele>
        <time>2016-10-12T15:41:24Z</time>
      </trkpt>
      <trkpt lat="45.9355" lon="4.68743">
        <ele>342</ele>
        <time>2016-10-12T15:41:25Z</time>
      </trkpt>
      <trkpt lat="45.93555" lon="4.68744">
        <ele>342</ele>
        <time>2016-10-12T15:41:26Z</time>
      </trkpt>
      <trkpt lat="45.93561" lon="4.68746">
        <ele>342</ele>
        <time>2016-10-12T15:41:27Z</time>
      </trkpt>
      <trkpt lat="45.93567" lon="4.68748">
        <ele>343</ele>
        <time>2016-10-12T15:41:28Z</time>
      </trkpt>
      <trkpt lat="45.93573" lon="4.6875">
        <ele>343</ele>
        <time>2016-10-12T15:41:29Z</time>
      </trkpt>
      <trkpt lat="45.93579" lon="4.68751">
        <ele>344</ele>
        <time>2016-10-12T15:41:30Z</time>
      </trkpt>
      <trkpt lat="45.93585" lon="4.68752">
        <ele>344</ele>
        <time>2016-10-12T15:41:31Z</time>
      </trkpt>
      <trkpt lat="45.93592" lon="4.68754">
        <ele>344</ele>
        <time>2016-10-12T15:41:32Z</time>
      </trkpt>
      <trkpt lat="45.93598" lon="4.68755">
        <ele>344</ele>
        <time>2016-10-12T15:41:33Z</time>
      </trkpt>
      <trkpt lat="45.93604" lon="4.68756">
        <ele>344</ele>
        <time>2016-10-12T15:41:34Z</time>
      </trkpt>
      <trkpt lat="45.9361" lon="4.68757">
        <ele>344</ele>
        <time>2016-10-12T15:41:35Z</time>
      </trkpt>
      <trkpt lat="45.93616" lon="4.68759">
        <ele>343</ele>
        <time>2016-10-12T15:41:36Z</time>
      </trkpt>
      <trkpt lat="45.93621" lon="4.6876">
        <ele>343</ele>
        <time>2016-10-12T15:41:37Z</time>
      </trkpt>
      <trkpt lat="45.93627" lon="4.68761">
        <ele>343</ele>
        <time>2016-10-12T15:41:38Z</time>
      </trkpt>
      <trkpt lat="45.93633" lon="4.68763">
        <ele>343</ele>
        <time>2016-10-12T15:41:39Z</time>
      </trkpt>
      <trkpt lat="45.93638" lon="4.68766">
        <ele>343</ele>
        <time>2016-10-12T15:41:40Z</time>
      </trkpt>
      <trkpt lat="45.93645" lon="4.68769">
        <ele>343</ele>
        <time>2016-10-12T15:41:41Z</time>
      </trkpt>
      <trkpt lat="45.9365" lon="4.68772">
        <ele>343</ele>
        <time>2016-10-12T15:41:42Z</time>
      </trkpt>
      <trkpt lat="45.93656" lon="4.68774">
        <ele>343</ele>
        <time>2016-10-12T15:41:43Z</time>
      </trkpt>
      <trkpt lat="45.93663" lon="4.68774">
        <ele>343</ele>
        <time>2016-10-12T15:41:44Z</time>
      </trkpt>
      <trkpt lat="45.9367" lon="4.68774">
        <ele>342</ele>
        <time>2016-10-12T15:41:45Z</time>
      </trkpt>
      <trkpt lat="45.93676" lon="4.68775">
        <ele>342</ele>
        <time>2016-10-12T15:41:46Z</time>
      </trkpt>
      <trkpt lat="45.93683" lon="4.68777">
        <ele>342</ele>
        <time>2016-10-12T15:41:47Z</time>
      </trkpt>
      <trkpt lat="45.93689" lon="4.68779">
        <ele>342</ele>
        <time>2016-10-12T15:41:48Z</time>
      </trkpt>
      <trkpt lat="45.93695" lon="4.6878">
        <ele>342</ele>
        <time>2016-10-12T15:41:49Z</time>
      </trkpt>
      <trkpt lat="45.93701" lon="4.68782">
        <ele>342</ele>
        <time>2016-10-12T15:41:50Z</time>
      </trkpt>
      <trkpt lat="45.93707" lon="4.68783">
        <ele>342</ele>
        <time>2016-10-12T15:41:51Z</time>
      </trkpt>
      <trkpt lat="45.93712" lon="4.68784">
        <ele>342</ele>
        <time>2016-10-12T15:41:52Z</time>
      </trkpt>
      <trkpt lat="45.93718" lon="4.68785">
        <ele>342</ele>
        <time>2016-10-12T15:41:53Z</time>
      </trkpt>
      <trkpt lat="45.93723" lon="4.68787">
        <ele>342</ele>
        <time>2016-10-12T15:41:54Z</time>
      </trkpt>
      <trkpt lat="45.93729" lon="4.6879">
        <ele>342</ele>
        <time>2016-10-12T15:41:55Z</time>
      </trkpt>
      <trkpt lat="45.93736" lon="4.68796">
        <ele>342</ele>
        <time>2016-10-12T15:41:56Z</time>
      </trkpt>
      <trkpt lat="45.93743" lon="4.68801">
        <ele>342</ele>
        <time>2016-10-12T15:41:57Z</time>
      </trkpt>
      <trkpt lat="45.93749" lon="4.68804">
        <ele>343</ele>
        <time>2016-10-12T15:41:58Z</time>
      </trkpt>
      <trkpt lat="45.93756" lon="4.68806">
        <ele>342</ele>
        <time>2016-10-12T15:41:59Z</time>
      </trkpt>
      <trkpt lat="45.93761" lon="4.68808">
        <ele>342</ele>
        <time>2016-10-12T15:42:00Z</time>
      </trkpt>
      <trkpt lat="45.93769" lon="4.68809">
        <ele>341</ele>
        <time>2016-10-12T15:42:01Z</time>
      </trkpt>
      <trkpt lat="45.93774" lon="4.68812">
        <ele>341</ele>
        <time>2016-10-12T15:42:02Z</time>
      </trkpt>
      <trkpt lat="45.93781" lon="4.68814">
        <ele>341</ele>
        <time>2016-10-12T15:42:03Z</time>
      </trkpt>
      <trkpt lat="45.93788" lon="4.68816">
        <ele>341</ele>
        <time>2016-10-12T15:42:04Z</time>
      </trkpt>
      <trkpt lat="45.93794" lon="4.68819">
        <ele>341</ele>
        <time>2016-10-12T15:42:05Z</time>
      </trkpt>
      <trkpt lat="45.938" lon="4.68822">
        <ele>341</ele>
        <time>2016-10-12T15:42:06Z</time>
      </trkpt>
      <trkpt lat="45.93805" lon="4.68825">
        <ele>341</ele>
        <time>2016-10-12T15:42:07Z</time>
      </trkpt>
      <trkpt lat="45.93811" lon="4.68828">
        <ele>341</ele>
        <time>2016-10-12T15:42:08Z</time>
      </trkpt>
      <trkpt lat="45.93817" lon="4.68832">
        <ele>341</ele>
        <time>2016-10-12T15:42:09Z</time>
      </trkpt>
      <trkpt lat="45.93823" lon="4.68835">
        <ele>342</ele>
        <time>2016-10-12T15:42:10Z</time>
      </trkpt>
      <trkpt lat="45.93829" lon="4.68839">
        <ele>342</ele>
        <time>2016-10-12T15:42:11Z</time>
      </trkpt>
      <trkpt lat="45.93835" lon="4.68843">
        <ele>342</ele>
        <time>2016-10-12T15:42:12Z</time>
      </trkpt>
      <trkpt lat="45.93841" lon="4.68846">
        <ele>342</ele>
        <time>2016-10-12T15:42:13Z</time>
      </trkpt>
      <trkpt lat="45.93846" lon="4.68849">
        <ele>342</ele>
        <time>2016-10-12T15:42:14Z</time>
      </trkpt>
      <trkpt lat="45.93851" lon="4.68853">
        <ele>342</ele>
        <time>2016-10-12T15:42:15Z</time>
      </trkpt>
      <trkpt lat="45.93857" lon="4.68856">
        <ele>342</ele>
        <time>2016-10-12T15:42:16Z</time>
      </trkpt>
      <trkpt lat="45.93862" lon="4.68859">
        <ele>342</ele>
        <time>2016-10-12T15:42:17Z</time>
      </trkpt>
      <trkpt lat="45.93867" lon="4.68862">
        <ele>342</ele>
        <time>2016-10-12T15:42:18Z</time>
      </trkpt>
      <trkpt lat="45.93873" lon="4.68866">
        <ele>342</ele>
        <time>2016-10-12T15:42:19Z</time>
      </trkpt>
      <trkpt lat="45.93879" lon="4.68869">
        <ele>343</ele>
        <time>2016-10-12T15:42:20Z</time>
      </trkpt>
      <trkpt lat="45.93884" lon="4.68873">
        <ele>343</ele>
        <time>2016-10-12T15:42:21Z</time>
      </trkpt>
      <trkpt lat="45.9389" lon="4.68876">
        <ele>342</ele>
        <time>2016-10-12T15:42:22Z</time>
      </trkpt>
      <trkpt lat="45.93896" lon="4.68879">
        <ele>342</ele>
        <time>2016-10-12T15:42:23Z</time>
      </trkpt>
      <trkpt lat="45.93902" lon="4.68882">
        <ele>342</ele>
        <time>2016-10-12T15:42:24Z</time>
      </trkpt>
      <trkpt lat="45.93908" lon="4.68885">
        <ele>342</ele>
        <time>2016-10-12T15:42:25Z</time>
      </trkpt>
      <trkpt lat="45.93913" lon="4.68887">
        <ele>342</ele>
        <time>2016-10-12T15:42:26Z</time>
      </trkpt>
      <trkpt lat="45.93919" lon="4.6889">
        <ele>342</ele>
        <time>2016-10-12T15:42:27Z</time>
      </trkpt>
      <trkpt lat="45.93925" lon="4.68891">
        <ele>342</ele>
        <time>2016-10-12T15:42:28Z</time>
      </trkpt>
      <trkpt lat="45.93932" lon="4.68893">
        <ele>342</ele>
        <time>2016-10-12T15:42:29Z</time>
      </trkpt>
      <trkpt lat="45.93937" lon="4.68893">
        <ele>342</ele>
        <time>2016-10-12T15:42:30Z</time>
      </trkpt>
      <trkpt lat="45.93942" lon="4.68895">
        <ele>342</ele>
        <time>2016-10-12T15:42:31Z</time>
      </trkpt>
      <trkpt lat="45.93951" lon="4.68899">
        <ele>342</ele>
        <time>2016-10-12T15:42:33Z</time>
      </trkpt>
      <trkpt lat="45.93956" lon="4.689">
        <ele>342</ele>
        <time>2016-10-12T15:42:34Z</time>
      </trkpt>
      <trkpt lat="45.93961" lon="4.68902">
        <ele>342</ele>
        <time>2016-10-12T15:42:35Z</time>
      </trkpt>
      <trkpt lat="45.93968" lon="4.68903">
        <ele>342</ele>
        <time>2016-10-12T15:42:36Z</time>
      </trkpt>
      <trkpt lat="45.93974" lon="4.68909">
        <ele>342</ele>
        <time>2016-10-12T15:42:38Z</time>
      </trkpt>
      <trkpt lat="45.9398" lon="4.6891">
        <ele>342</ele>
        <time>2016-10-12T15:42:39Z</time>
      </trkpt>
      <trkpt lat="45.93985" lon="4.68912">
        <ele>342</ele>
        <time>2016-10-12T15:42:40Z</time>
      </trkpt>
      <trkpt lat="45.9399" lon="4.68913">
        <ele>342</ele>
        <time>2016-10-12T15:42:41Z</time>
      </trkpt>
      <trkpt lat="45.93996" lon="4.68914">
        <ele>342</ele>
        <time>2016-10-12T15:42:42Z</time>
      </trkpt>
      <trkpt lat="45.94001" lon="4.68915">
        <ele>342</ele>
        <time>2016-10-12T15:42:43Z</time>
      </trkpt>
      <trkpt lat="45.94007" lon="4.68917">
        <ele>342</ele>
        <time>2016-10-12T15:42:44Z</time>
      </trkpt>
      <trkpt lat="45.94012" lon="4.68919">
        <ele>342</ele>
        <time>2016-10-12T15:42:45Z</time>
      </trkpt>
      <trkpt lat="45.94018" lon="4.68921">
        <ele>341</ele>
        <time>2016-10-12T15:42:46Z</time>
      </trkpt>
      <trkpt lat="45.94023" lon="4.68923">
        <ele>341</ele>
        <time>2016-10-12T15:42:47Z</time>
      </trkpt>
      <trkpt lat="45.94029" lon="4.68924">
        <ele>341</ele>
        <time>2016-10-12T15:42:48Z</time>
      </trkpt>
      <trkpt lat="45.94035" lon="4.68926">
        <ele>341</ele>
        <time>2016-10-12T15:42:49Z</time>
      </trkpt>
      <trkpt lat="45.9404" lon="4.68929">
        <ele>341</ele>
        <time>2016-10-12T15:42:50Z</time>
      </trkpt>
      <trkpt lat="45.94046" lon="4.68932">
        <ele>341</ele>
        <time>2016-10-12T15:42:51Z</time>
      </trkpt>
      <trkpt lat="45.94052" lon="4.68935">
        <ele>341</ele>
        <time>2016-10-12T15:42:52Z</time>
      </trkpt>
      <trkpt lat="45.94058" lon="4.68939">
        <ele>341</ele>
        <time>2016-10-12T15:42:53Z</time>
      </trkpt>
      <trkpt lat="45.94064" lon="4.68943">
        <ele>341</ele>
        <time>2016-10-12T15:42:54Z</time>
      </trkpt>
      <trkpt lat="45.94069" lon="4.68946">
        <ele>341</ele>
        <time>2016-10-12T15:42:55Z</time>
      </trkpt>
      <trkpt lat="45.94076" lon="4.68947">
        <ele>341</ele>
        <time>2016-10-12T15:42:56Z</time>
      </trkpt>
      <trkpt lat="45.94084" lon="4.68948">
        <ele>340</ele>
        <time>2016-10-12T15:42:57Z</time>
      </trkpt>
      <trkpt lat="45.94091" lon="4.6895">
        <ele>340</ele>
        <time>2016-10-12T15:42:58Z</time>
      </trkpt>
      <trkpt lat="45.94097" lon="4.68951">
        <ele>340</ele>
        <time>2016-10-12T15:42:59Z</time>
      </trkpt>
      <trkpt lat="45.94104" lon="4.68953">
        <ele>340</ele>
        <time>2016-10-12T15:43:00Z</time>
      </trkpt>
      <trkpt lat="45.9411" lon="4.68956">
        <ele>340</ele>
        <time>2016-10-12T15:43:01Z</time>
      </trkpt>
      <trkpt lat="45.94116" lon="4.68958">
        <ele>340</ele>
        <time>2016-10-12T15:43:02Z</time>
      </trkpt>
      <trkpt lat="45.94123" lon="4.68962">
        <ele>340</ele>
        <time>2016-10-12T15:43:03Z</time>
      </trkpt>
      <trkpt lat="45.9413" lon="4.68964">
        <ele>340</ele>
        <time>2016-10-12T15:43:04Z</time>
      </trkpt>
      <trkpt lat="45.94136" lon="4.68966">
        <ele>340</ele>
        <time>2016-10-12T15:43:05Z</time>
      </trkpt>
      <trkpt lat="45.94143" lon="4.68968">
        <ele>340</ele>
        <time>2016-10-12T15:43:06Z</time>
      </trkpt>
      <trkpt lat="45.9415" lon="4.6897">
        <ele>340</ele>
        <time>2016-10-12T15:43:07Z</time>
      </trkpt>
      <trkpt lat="45.94156" lon="4.68972">
        <ele>340</ele>
        <time>2016-10-12T15:43:08Z</time>
      </trkpt>
      <trkpt lat="45.94163" lon="4.68975">
        <ele>340</ele>
        <time>2016-10-12T15:43:09Z</time>
      </trkpt>
      <trkpt lat="45.9417" lon="4.68978">
        <ele>339</ele>
        <time>2016-10-12T15:43:10Z</time>
      </trkpt>
      <trkpt lat="45.94177" lon="4.68981">
        <ele>339</ele>
        <time>2016-10-12T15:43:11Z</time>
      </trkpt>
      <trkpt lat="45.94184" lon="4.68983">
        <ele>339</ele>
        <time>2016-10-12T15:43:12Z</time>
      </trkpt>
      <trkpt lat="45.94191" lon="4.68986">
        <ele>338</ele>
        <time>2016-10-12T15:43:13Z</time>
      </trkpt>
      <trkpt lat="45.94198" lon="4.68988">
        <ele>338</ele>
        <time>2016-10-12T15:43:14Z</time>
      </trkpt>
      <trkpt lat="45.94205" lon="4.6899">
        <ele>338</ele>
        <time>2016-10-12T15:43:15Z</time>
      </trkpt>
      <trkpt lat="45.94212" lon="4.68992">
        <ele>338</ele>
        <time>2016-10-12T15:43:16Z</time>
      </trkpt>
      <trkpt lat="45.94219" lon="4.68994">
        <ele>338</ele>
        <time>2016-10-12T15:43:17Z</time>
      </trkpt>
      <trkpt lat="45.94226" lon="4.68996">
        <ele>338</ele>
        <time>2016-10-12T15:43:18Z</time>
      </trkpt>
      <trkpt lat="45.94233" lon="4.68997">
        <ele>338</ele>
        <time>2016-10-12T15:43:19Z</time>
      </trkpt>
      <trkpt lat="45.9424" lon="4.68999">
        <ele>338</ele>
        <time>2016-10-12T15:43:20Z</time>
      </trkpt>
      <trkpt lat="45.94247" lon="4.69">
        <ele>338</ele>
        <time>2016-10-12T15:43:21Z</time>
      </trkpt>
      <trkpt lat="45.94254" lon="4.69001">
        <ele>338</ele>
        <time>2016-10-12T15:43:22Z</time>
      </trkpt>
      <trkpt lat="45.94261" lon="4.69002">
        <ele>338</ele>
        <time>2016-10-12T15:43:23Z</time>
      </trkpt>
      <trkpt lat="45.94267" lon="4.69003">
        <ele>337</ele>
        <time>2016-10-12T15:43:24Z</time>
      </trkpt>
      <trkpt lat="45.94275" lon="4.69003">
        <ele>337</ele>
        <time>2016-10-12T15:43:25Z</time>
      </trkpt>
      <trkpt lat="45.94281" lon="4.69005">
        <ele>337</ele>
        <time>2016-10-12T15:43:26Z</time>
      </trkpt>
      <trkpt lat="45.94287" lon="4.69005">
        <ele>337</ele>
        <time>2016-10-12T15:43:27Z</time>
      </trkpt>
      <trkpt lat="45.94293" lon="4.69006">
        <ele>337</ele>
        <time>2016-10-12T15:43:28Z</time>
      </trkpt>
      <trkpt lat="45.943" lon="4.69006">
        <ele>337</ele>
        <time>2016-10-12T15:43:29Z</time>
      </trkpt>
      <trkpt lat="45.94307" lon="4.69005">
        <ele>337</ele>
        <time>2016-10-12T15:43:30Z</time>
      </trkpt>
      <trkpt lat="45.94314" lon="4.69005">
        <ele>337</ele>
        <time>2016-10-12T15:43:31Z</time>
      </trkpt>
      <trkpt lat="45.94321" lon="4.69004">
        <ele>337</ele>
        <time>2016-10-12T15:43:32Z</time>
      </trkpt>
      <trkpt lat="45.94328" lon="4.69003">
        <ele>337</ele>
        <time>2016-10-12T15:43:33Z</time>
      </trkpt>
      <trkpt lat="45.94334" lon="4.69004">
        <ele>337</ele>
        <time>2016-10-12T15:43:34Z</time>
      </trkpt>
      <trkpt lat="45.94341" lon="4.69004">
        <ele>337</ele>
        <time>2016-10-12T15:43:35Z</time>
      </trkpt>
      <trkpt lat="45.94347" lon="4.69005">
        <ele>338</ele>
        <time>2016-10-12T15:43:36Z</time>
      </trkpt>
      <trkpt lat="45.94353" lon="4.69005">
        <ele>338</ele>
        <time>2016-10-12T15:43:37Z</time>
      </trkpt>
      <trkpt lat="45.94358" lon="4.69005">
        <ele>338</ele>
        <time>2016-10-12T15:43:38Z</time>
      </trkpt>
      <trkpt lat="45.94364" lon="4.69005">
        <ele>338</ele>
        <time>2016-10-12T15:43:39Z</time>
      </trkpt>
      <trkpt lat="45.94369" lon="4.69006">
        <ele>338</ele>
        <time>2016-10-12T15:43:40Z</time>
      </trkpt>
      <trkpt lat="45.94375" lon="4.69006">
        <ele>338</ele>
        <time>2016-10-12T15:43:41Z</time>
      </trkpt>
      <trkpt lat="45.94381" lon="4.69005">
        <ele>338</ele>
        <time>2016-10-12T15:43:42Z</time>
      </trkpt>
      <trkpt lat="45.94387" lon="4.69004">
        <ele>338</ele>
        <time>2016-10-12T15:43:43Z</time>
      </trkpt>
      <trkpt lat="45.94392" lon="4.69005">
        <ele>338</ele>
        <time>2016-10-12T15:43:44Z</time>
      </trkpt>
      <trkpt lat="45.94398" lon="4.69006">
        <ele>339</ele>
        <time>2016-10-12T15:43:45Z</time>
      </trkpt>
      <trkpt lat="45.94403" lon="4.69006">
        <ele>339</ele>
        <time>2016-10-12T15:43:46Z</time>
      </trkpt>
      <trkpt lat="45.94409" lon="4.69006">
        <ele>339</ele>
        <time>2016-10-12T15:43:47Z</time>
      </trkpt>
      <trkpt lat="45.94415" lon="4.69007">
        <ele>339</ele>
        <time>2016-10-12T15:43:48Z</time>
      </trkpt>
      <trkpt lat="45.94421" lon="4.69007">
        <ele>339</ele>
        <time>2016-10-12T15:43:49Z</time>
      </trkpt>
      <trkpt lat="45.94427" lon="4.69007">
        <ele>340</ele>
        <time>2016-10-12T15:43:50Z</time>
      </trkpt>
      <trkpt lat="45.94433" lon="4.69007">
        <ele>340</ele>
        <time>2016-10-12T15:43:51Z</time>
      </trkpt>
      <trkpt lat="45.94438" lon="4.69008">
        <ele>340</ele>
        <time>2016-10-12T15:43:52Z</time>
      </trkpt>
      <trkpt lat="45.94444" lon="4.69009">
        <ele>340</ele>
        <time>2016-10-12T15:43:53Z</time>
      </trkpt>
      <trkpt lat="45.9445" lon="4.69009">
        <ele>340</ele>
        <time>2016-10-12T15:43:54Z</time>
      </trkpt>
      <trkpt lat="45.94456" lon="4.69009">
        <ele>340</ele>
        <time>2016-10-12T15:43:55Z</time>
      </trkpt>
      <trkpt lat="45.94462" lon="4.6901">
        <ele>341</ele>
        <time>2016-10-12T15:43:56Z</time>
      </trkpt>
      <trkpt lat="45.94467" lon="4.6901">
        <ele>341</ele>
        <time>2016-10-12T15:43:57Z</time>
      </trkpt>
      <trkpt lat="45.94473" lon="4.6901">
        <ele>341</ele>
        <time>2016-10-12T15:43:58Z</time>
      </trkpt>
      <trkpt lat="45.94478" lon="4.6901">
        <ele>341</ele>
        <time>2016-10-12T15:43:59Z</time>
      </trkpt>
      <trkpt lat="45.94486" lon="4.69012">
        <ele>341</ele>
        <time>2016-10-12T15:44:01Z</time>
      </trkpt>
      <trkpt lat="45.94491" lon="4.69013">
        <ele>341</ele>
        <time>2016-10-12T15:44:02Z</time>
      </trkpt>
      <trkpt lat="45.94496" lon="4.69015">
        <ele>341</ele>
        <time>2016-10-12T15:44:03Z</time>
      </trkpt>
      <trkpt lat="45.94501" lon="4.69016">
        <ele>341</ele>
        <time>2016-10-12T15:44:04Z</time>
      </trkpt>
      <trkpt lat="45.94507" lon="4.69018">
        <ele>342</ele>
        <time>2016-10-12T15:44:05Z</time>
      </trkpt>
      <trkpt lat="45.94513" lon="4.69019">
        <ele>342</ele>
        <time>2016-10-12T15:44:06Z</time>
      </trkpt>
      <trkpt lat="45.94518" lon="4.69021">
        <ele>342</ele>
        <time>2016-10-12T15:44:07Z</time>
      </trkpt>
      <trkpt lat="45.94524" lon="4.69023">
        <ele>342</ele>
        <time>2016-10-12T15:44:08Z</time>
      </trkpt>
      <trkpt lat="45.94529" lon="4.69023">
        <ele>342</ele>
        <time>2016-10-12T15:44:09Z</time>
      </trkpt>
      <trkpt lat="45.94534" lon="4.69025">
        <ele>342</ele>
        <time>2016-10-12T15:44:10Z</time>
      </trkpt>
      <trkpt lat="45.94539" lon="4.69026">
        <ele>342</ele>
        <time>2016-10-12T15:44:11Z</time>
      </trkpt>
      <trkpt lat="45.94544" lon="4.69028">
        <ele>342</ele>
        <time>2016-10-12T15:44:12Z</time>
      </trkpt>
      <trkpt lat="45.94549" lon="4.69029">
        <ele>342</ele>
        <time>2016-10-12T15:44:13Z</time>
      </trkpt>
      <trkpt lat="45.94554" lon="4.6903">
        <ele>342</ele>
        <time>2016-10-12T15:44:14Z</time>
      </trkpt>
      <trkpt lat="45.94558" lon="4.69033">
        <ele>342</ele>
        <time>2016-10-12T15:44:15Z</time>
      </trkpt>
      <trkpt lat="45.94562" lon="4.69036">
        <ele>342</ele>
        <time>2016-10-12T15:44:16Z</time>
      </trkpt>
      <trkpt lat="45.94566" lon="4.6904">
        <ele>342</ele>
        <time>2016-10-12T15:44:17Z</time>
      </trkpt>
      <trkpt lat="45.94571" lon="4.69043">
        <ele>342</ele>
        <time>2016-10-12T15:44:18Z</time>
      </trkpt>
      <trkpt lat="45.94575" lon="4.69045">
        <ele>342</ele>
        <time>2016-10-12T15:44:19Z</time>
      </trkpt>
      <trkpt lat="45.94581" lon="4.69043">
        <ele>342</ele>
        <time>2016-10-12T15:44:20Z</time>
      </trkpt>
      <trkpt lat="45.94586" lon="4.69044">
        <ele>342</ele>
        <time>2016-10-12T15:44:21Z</time>
      </trkpt>
      <trkpt lat="45.9459" lon="4.69045">
        <ele>342</ele>
        <time>2016-10-12T15:44:22Z</time>
      </trkpt>
      <trkpt lat="45.94595" lon="4.69045">
        <ele>342</ele>
        <time>2016-10-12T15:44:23Z</time>
      </trkpt>
      <trkpt lat="45.946" lon="4.69046">
        <ele>342</ele>
        <time>2016-10-12T15:44:24Z</time>
      </trkpt>
      <trkpt lat="45.94604" lon="4.69048">
        <ele>342</ele>
        <time>2016-10-12T15:44:25Z</time>
      </trkpt>
      <trkpt lat="45.94608" lon="4.6905">
        <ele>342</ele>
        <time>2016-10-12T15:44:26Z</time>
      </trkpt>
      <trkpt lat="45.94612" lon="4.69052">
        <ele>342</ele>
        <time>2016-10-12T15:44:27Z</time>
      </trkpt>
      <trkpt lat="45.94617" lon="4.69053">
        <ele>342</ele>
        <time>2016-10-12T15:44:28Z</time>
      </trkpt>
      <trkpt lat="45.94622" lon="4.69054">
        <ele>342</ele>
        <time>2016-10-12T15:44:29Z</time>
      </trkpt>
      <trkpt lat="45.94626" lon="4.69056">
        <ele>342</ele>
        <time>2016-10-12T15:44:30Z</time>
      </trkpt>
      <trkpt lat="45.94635" lon="4.69058">
        <ele>342</ele>
        <time>2016-10-12T15:44:32Z</time>
      </trkpt>
      <trkpt lat="45.94639" lon="4.6906">
        <ele>342</ele>
        <time>2016-10-12T15:44:33Z</time>
      </trkpt>
      <trkpt lat="45.94643" lon="4.69061">
        <ele>342</ele>
        <time>2016-10-12T15:44:34Z</time>
      </trkpt>
      <trkpt lat="45.94648" lon="4.69063">
        <ele>342</ele>
        <time>2016-10-12T15:44:35Z</time>
      </trkpt>
      <trkpt lat="45.94653" lon="4.69065">
        <ele>342</ele>
        <time>2016-10-12T15:44:36Z</time>
      </trkpt>
      <trkpt lat="45.94658" lon="4.69067">
        <ele>342</ele>
        <time>2016-10-12T15:44:37Z</time>
      </trkpt>
      <trkpt lat="45.94663" lon="4.69068">
        <ele>342</ele>
        <time>2016-10-12T15:44:38Z</time>
      </trkpt>
      <trkpt lat="45.94667" lon="4.6907">
        <ele>342</ele>
        <time>2016-10-12T15:44:39Z</time>
      </trkpt>
      <trkpt lat="45.94676" lon="4.69073">
        <ele>342</ele>
        <time>2016-10-12T15:44:41Z</time>
      </trkpt>
      <trkpt lat="45.9468" lon="4.69073">
        <ele>342</ele>
        <time>2016-10-12T15:44:42Z</time>
      </trkpt>
      <trkpt lat="45.94685" lon="4.69076">
        <ele>342</ele>
        <time>2016-10-12T15:44:43Z</time>
      </trkpt>
      <trkpt lat="45.9469" lon="4.69078">
        <ele>342</ele>
        <time>2016-10-12T15:44:44Z</time>
      </trkpt>
      <trkpt lat="45.94696" lon="4.69079">
        <ele>342</ele>
        <time>2016-10-12T15:44:45Z</time>
      </trkpt>
      <trkpt lat="45.94701" lon="4.6908">
        <ele>342</ele>
        <time>2016-10-12T15:44:46Z</time>
      </trkpt>
      <trkpt lat="45.94706" lon="4.69081">
        <ele>342</ele>
        <time>2016-10-12T15:44:47Z</time>
      </trkpt>
      <trkpt lat="45.94711" lon="4.69081">
        <ele>343</ele>
        <time>2016-10-12T15:44:48Z</time>
      </trkpt>
      <trkpt lat="45.94716" lon="4.69083">
        <ele>343</ele>
        <time>2016-10-12T15:44:49Z</time>
      </trkpt>
      <trkpt lat="45.9472" lon="4.69084">
        <ele>344</ele>
        <time>2016-10-12T15:44:50Z</time>
      </trkpt>
      <trkpt lat="45.94725" lon="4.69085">
        <ele>344</ele>
        <time>2016-10-12T15:44:51Z</time>
      </trkpt>
      <trkpt lat="45.94731" lon="4.69086">
        <ele>344</ele>
        <time>2016-10-12T15:44:52Z</time>
      </trkpt>
      <trkpt lat="45.94735" lon="4.69087">
        <ele>344</ele>
        <time>2016-10-12T15:44:53Z</time>
      </trkpt>
      <trkpt lat="45.94741" lon="4.6909">
        <ele>345</ele>
        <time>2016-10-12T15:44:54Z</time>
      </trkpt>
      <trkpt lat="45.94746" lon="4.69091">
        <ele>345</ele>
        <time>2016-10-12T15:44:55Z</time>
      </trkpt>
      <trkpt lat="45.94752" lon="4.69093">
        <ele>345</ele>
        <time>2016-10-12T15:44:56Z</time>
      </trkpt>
      <trkpt lat="45.94757" lon="4.69095">
        <ele>345</ele>
        <time>2016-10-12T15:44:57Z</time>
      </trkpt>
      <trkpt lat="45.94763" lon="4.69096">
        <ele>344</ele>
        <time>2016-10-12T15:44:58Z</time>
      </trkpt>
      <trkpt lat="45.94767" lon="4.69098">
        <ele>344</ele>
        <time>2016-10-12T15:44:59Z</time>
      </trkpt>
      <trkpt lat="45.94774" lon="4.691">
        <ele>344</ele>
        <time>2016-10-12T15:45:00Z</time>
      </trkpt>
      <trkpt lat="45.94778" lon="4.69101">
        <ele>344</ele>
        <time>2016-10-12T15:45:01Z</time>
      </trkpt>
      <trkpt lat="45.94783" lon="4.69103">
        <ele>344</ele>
        <time>2016-10-12T15:45:02Z</time>
      </trkpt>
      <trkpt lat="45.9479" lon="4.69107">
        <ele>344</ele>
        <time>2016-10-12T15:45:04Z</time>
      </trkpt>
      <trkpt lat="45.94795" lon="4.6911">
        <ele>344</ele>
        <time>2016-10-12T15:45:05Z</time>
      </trkpt>
      <trkpt lat="45.948" lon="4.69112">
        <ele>344</ele>
        <time>2016-10-12T15:45:06Z</time>
      </trkpt>
      <trkpt lat="45.94805" lon="4.69113">
        <ele>344</ele>
        <time>2016-10-12T15:45:07Z</time>
      </trkpt>
      <trkpt lat="45.94812" lon="4.69115">
        <ele>344</ele>
        <time>2016-10-12T15:45:08Z</time>
      </trkpt>
      <trkpt lat="45.94818" lon="4.69117">
        <ele>344</ele>
        <time>2016-10-12T15:45:09Z</time>
      </trkpt>
      <trkpt lat="45.94824" lon="4.6912">
        <ele>344</ele>
        <time>2016-10-12T15:45:10Z</time>
      </trkpt>
      <trkpt lat="45.9483" lon="4.69122">
        <ele>344</ele>
        <time>2016-10-12T15:45:11Z</time>
      </trkpt>
      <trkpt lat="45.94836" lon="4.69124">
        <ele>342</ele>
        <time>2016-10-12T15:45:12Z</time>
      </trkpt>
      <trkpt lat="45.94842" lon="4.69125">
        <ele>342</ele>
        <time>2016-10-12T15:45:13Z</time>
      </trkpt>
      <trkpt lat="45.94848" lon="4.69127">
        <ele>342</ele>
        <time>2016-10-12T15:45:14Z</time>
      </trkpt>
      <trkpt lat="45.94853" lon="4.69129">
        <ele>342</ele>
        <time>2016-10-12T15:45:15Z</time>
      </trkpt>
      <trkpt lat="45.94857" lon="4.69131">
        <ele>342</ele>
        <time>2016-10-12T15:45:16Z</time>
      </trkpt>
      <trkpt lat="45.94863" lon="4.69132">
        <ele>342</ele>
        <time>2016-10-12T15:45:17Z</time>
      </trkpt>
      <trkpt lat="45.94869" lon="4.69133">
        <ele>342</ele>
        <time>2016-10-12T15:45:18Z</time>
      </trkpt>
      <trkpt lat="45.94875" lon="4.69136">
        <ele>342</ele>
        <time>2016-10-12T15:45:19Z</time>
      </trkpt>
      <trkpt lat="45.94881" lon="4.69138">
        <ele>342</ele>
        <time>2016-10-12T15:45:20Z</time>
      </trkpt>
      <trkpt lat="45.94887" lon="4.69141">
        <ele>342</ele>
        <time>2016-10-12T15:45:21Z</time>
      </trkpt>
      <trkpt lat="45.94893" lon="4.69145">
        <ele>342</ele>
        <time>2016-10-12T15:45:22Z</time>
      </trkpt>
      <trkpt lat="45.94898" lon="4.69147">
        <ele>342</ele>
        <time>2016-10-12T15:45:23Z</time>
      </trkpt>
      <trkpt lat="45.94904" lon="4.69151">
        <ele>342</ele>
        <time>2016-10-12T15:45:24Z</time>
      </trkpt>
      <trkpt lat="45.9491" lon="4.69154">
        <ele>342</ele>
        <time>2016-10-12T15:45:25Z</time>
      </trkpt>
      <trkpt lat="45.94917" lon="4.69158">
        <ele>342</ele>
        <time>2016-10-12T15:45:26Z</time>
      </trkpt>
      <trkpt lat="45.94923" lon="4.69162">
        <ele>341</ele>
        <time>2016-10-12T15:45:27Z</time>
      </trkpt>
      <trkpt lat="45.9493" lon="4.69165">
        <ele>340</ele>
        <time>2016-10-12T15:45:28Z</time>
      </trkpt>
      <trkpt lat="45.94936" lon="4.69169">
        <ele>341</ele>
        <time>2016-10-12T15:45:29Z</time>
      </trkpt>
      <trkpt lat="45.94943" lon="4.69173">
        <ele>341</ele>
        <time>2016-10-12T15:45:30Z</time>
      </trkpt>
      <trkpt lat="45.94951" lon="4.69179">
        <ele>340</ele>
        <time>2016-10-12T15:45:31Z</time>
      </trkpt>
      <trkpt lat="45.94958" lon="4.69184">
        <ele>340</ele>
        <time>2016-10-12T15:45:32Z</time>
      </trkpt>
      <trkpt lat="45.94965" lon="4.6919">
        <ele>340</ele>
        <time>2016-10-12T15:45:33Z</time>
      </trkpt>
      <trkpt lat="45.94971" lon="4.69196">
        <ele>340</ele>
        <time>2016-10-12T15:45:34Z</time>
      </trkpt>
      <trkpt lat="45.94977" lon="4.69203">
        <ele>340</ele>
        <time>2016-10-12T15:45:35Z</time>
      </trkpt>
      <trkpt lat="45.94983" lon="4.69209">
        <ele>340</ele>
        <time>2016-10-12T15:45:36Z</time>
      </trkpt>
      <trkpt lat="45.9499" lon="4.69214">
        <ele>340</ele>
        <time>2016-10-12T15:45:37Z</time>
      </trkpt>
      <trkpt lat="45.94999" lon="4.69218">
        <ele>340</ele>
        <time>2016-10-12T15:45:38Z</time>
      </trkpt>
      <trkpt lat="45.95007" lon="4.69222">
        <ele>337</ele>
        <time>2016-10-12T15:45:39Z</time>
      </trkpt>
      <trkpt lat="45.95014" lon="4.69226">
        <ele>337</ele>
        <time>2016-10-12T15:45:40Z</time>
      </trkpt>
      <trkpt lat="45.95022" lon="4.69231">
        <ele>337</ele>
        <time>2016-10-12T15:45:41Z</time>
      </trkpt>
      <trkpt lat="45.95029" lon="4.69237">
        <ele>337</ele>
        <time>2016-10-12T15:45:42Z</time>
      </trkpt>
      <trkpt lat="45.95036" lon="4.69244">
        <ele>336</ele>
        <time>2016-10-12T15:45:43Z</time>
      </trkpt>
      <trkpt lat="45.95042" lon="4.6925">
        <ele>336</ele>
        <time>2016-10-12T15:45:44Z</time>
      </trkpt>
      <trkpt lat="45.95048" lon="4.69257">
        <ele>337</ele>
        <time>2016-10-12T15:45:45Z</time>
      </trkpt>
      <trkpt lat="45.95054" lon="4.69263">
        <ele>336</ele>
        <time>2016-10-12T15:45:46Z</time>
      </trkpt>
      <trkpt lat="45.95062" lon="4.69269">
        <ele>336</ele>
        <time>2016-10-12T15:45:47Z</time>
      </trkpt>
      <trkpt lat="45.95069" lon="4.69275">
        <ele>336</ele>
        <time>2016-10-12T15:45:48Z</time>
      </trkpt>
      <trkpt lat="45.95076" lon="4.69282">
        <ele>336</ele>
        <time>2016-10-12T15:45:49Z</time>
      </trkpt>
      <trkpt lat="45.95083" lon="4.69288">
        <ele>336</ele>
        <time>2016-10-12T15:45:50Z</time>
      </trkpt>
      <trkpt lat="45.9509" lon="4.69296">
        <ele>334</ele>
        <time>2016-10-12T15:45:51Z</time>
      </trkpt>
      <trkpt lat="45.95097" lon="4.69303">
        <ele>334</ele>
        <time>2016-10-12T15:45:52Z</time>
      </trkpt>
      <trkpt lat="45.95103" lon="4.6931">
        <ele>334</ele>
        <time>2016-10-12T15:45:53Z</time>
      </trkpt>
      <trkpt lat="45.95109" lon="4.69318">
        <ele>334</ele>
        <time>2016-10-12T15:45:54Z</time>
      </trkpt>
      <trkpt lat="45.95115" lon="4.69325">
        <ele>334</ele>
        <time>2016-10-12T15:45:55Z</time>
      </trkpt>
      <trkpt lat="45.95121" lon="4.69331">
        <ele>334</ele>
        <time>2016-10-12T15:45:56Z</time>
      </trkpt>
      <trkpt lat="45.95127" lon="4.69337">
        <ele>336</ele>
        <time>2016-10-12T15:45:57Z</time>
      </trkpt>
      <trkpt lat="45.95133" lon="4.69343">
        <ele>337</ele>
        <time>2016-10-12T15:45:58Z</time>
      </trkpt>
      <trkpt lat="45.95139" lon="4.69348">
        <ele>337</ele>
        <time>2016-10-12T15:45:59Z</time>
      </trkpt>
      <trkpt lat="45.95145" lon="4.69354">
        <ele>337</ele>
        <time>2016-10-12T15:46:00Z</time>
      </trkpt>
      <trkpt lat="45.95151" lon="4.6936">
        <ele>337</ele>
        <time>2016-10-12T15:46:01Z</time>
      </trkpt>
      <trkpt lat="45.95157" lon="4.69365">
        <ele>337</ele>
        <time>2016-10-12T15:46:02Z</time>
      </trkpt>
      <trkpt lat="45.95163" lon="4.6937">
        <ele>337</ele>
        <time>2016-10-12T15:46:03Z</time>
      </trkpt>
      <trkpt lat="45.95168" lon="4.69376">
        <ele>337</ele>
        <time>2016-10-12T15:46:04Z</time>
      </trkpt>
      <trkpt lat="45.95174" lon="4.69381">
        <ele>337</ele>
        <time>2016-10-12T15:46:05Z</time>
      </trkpt>
      <trkpt lat="45.9518" lon="4.69386">
        <ele>337</ele>
        <time>2016-10-12T15:46:06Z</time>
      </trkpt>
      <trkpt lat="45.95186" lon="4.6939">
        <ele>337</ele>
        <time>2016-10-12T15:46:07Z</time>
      </trkpt>
      <trkpt lat="45.95191" lon="4.69394">
        <ele>337</ele>
        <time>2016-10-12T15:46:08Z</time>
      </trkpt>
      <trkpt lat="45.95196" lon="4.69398">
        <ele>337</ele>
        <time>2016-10-12T15:46:09Z</time>
      </trkpt>
      <trkpt lat="45.95201" lon="4.69402">
        <ele>337</ele>
        <time>2016-10-12T15:46:10Z</time>
      </trkpt>
      <trkpt lat="45.95206" lon="4.69406">
        <ele>337</ele>
        <time>2016-10-12T15:46:11Z</time>
      </trkpt>
      <trkpt lat="45.95211" lon="4.6941">
        <ele>337</ele>
        <time>2016-10-12T15:46:12Z</time>
      </trkpt>
      <trkpt lat="45.95219" lon="4.6941">
        <ele>337</ele>
        <time>2016-10-12T15:46:13Z</time>
      </trkpt>
      <trkpt lat="45.95226" lon="4.69412">
        <ele>337</ele>
        <time>2016-10-12T15:46:14Z</time>
      </trkpt>
      <trkpt lat="45.95231" lon="4.69414">
        <ele>337</ele>
        <time>2016-10-12T15:46:15Z</time>
      </trkpt>
      <trkpt lat="45.95236" lon="4.69416">
        <ele>337</ele>
        <time>2016-10-12T15:46:16Z</time>
      </trkpt>
      <trkpt lat="45.95241" lon="4.69418">
        <ele>339</ele>
        <time>2016-10-12T15:46:17Z</time>
      </trkpt>
      <trkpt lat="45.95246" lon="4.69421">
        <ele>339</ele>
        <time>2016-10-12T15:46:18Z</time>
      </trkpt>
      <trkpt lat="45.95251" lon="4.69424">
        <ele>338</ele>
        <time>2016-10-12T15:46:19Z</time>
      </trkpt>
      <trkpt lat="45.95257" lon="4.69427">
        <ele>338</ele>
        <time>2016-10-12T15:46:20Z</time>
      </trkpt>
      <trkpt lat="45.95262" lon="4.6943">
        <ele>338</ele>
        <time>2016-10-12T15:46:21Z</time>
      </trkpt>
      <trkpt lat="45.95267" lon="4.69432">
        <ele>338</ele>
        <time>2016-10-12T15:46:22Z</time>
      </trkpt>
      <trkpt lat="45.95272" lon="4.69435">
        <ele>338</ele>
        <time>2016-10-12T15:46:23Z</time>
      </trkpt>
      <trkpt lat="45.95278" lon="4.69438">
        <ele>338</ele>
        <time>2016-10-12T15:46:24Z</time>
      </trkpt>
      <trkpt lat="45.95283" lon="4.69441">
        <ele>338</ele>
        <time>2016-10-12T15:46:25Z</time>
      </trkpt>
      <trkpt lat="45.95288" lon="4.69443">
        <ele>338</ele>
        <time>2016-10-12T15:46:26Z</time>
      </trkpt>
      <trkpt lat="45.95294" lon="4.69447">
        <ele>338</ele>
        <time>2016-10-12T15:46:27Z</time>
      </trkpt>
      <trkpt lat="45.95298" lon="4.6945">
        <ele>338</ele>
        <time>2016-10-12T15:46:28Z</time>
      </trkpt>
      <trkpt lat="45.95303" lon="4.69452">
        <ele>338</ele>
        <time>2016-10-12T15:46:29Z</time>
      </trkpt>
      <trkpt lat="45.95309" lon="4.69455">
        <ele>338</ele>
        <time>2016-10-12T15:46:30Z</time>
      </trkpt>
      <trkpt lat="45.95315" lon="4.69458">
        <ele>338</ele>
        <time>2016-10-12T15:46:31Z</time>
      </trkpt>
      <trkpt lat="45.95321" lon="4.69461">
        <ele>338</ele>
        <time>2016-10-12T15:46:32Z</time>
      </trkpt>
      <trkpt lat="45.95328" lon="4.69464">
        <ele>339</ele>
        <time>2016-10-12T15:46:33Z</time>
      </trkpt>
      <trkpt lat="45.95334" lon="4.69468">
        <ele>337</ele>
        <time>2016-10-12T15:46:34Z</time>
      </trkpt>
      <trkpt lat="45.9534" lon="4.69472">
        <ele>337</ele>
        <time>2016-10-12T15:46:35Z</time>
      </trkpt>
      <trkpt lat="45.95346" lon="4.69475">
        <ele>337</ele>
        <time>2016-10-12T15:46:36Z</time>
      </trkpt>
      <trkpt lat="45.95353" lon="4.69479">
        <ele>337</ele>
        <time>2016-10-12T15:46:37Z</time>
      </trkpt>
      <trkpt lat="45.95359" lon="4.69483">
        <ele>337</ele>
        <time>2016-10-12T15:46:38Z</time>
      </trkpt>
      <trkpt lat="45.95365" lon="4.69488">
        <ele>337</ele>
        <time>2016-10-12T15:46:39Z</time>
      </trkpt>
      <trkpt lat="45.95372" lon="4.69493">
        <ele>337</ele>
        <time>2016-10-12T15:46:40Z</time>
      </trkpt>
      <trkpt lat="45.95379" lon="4.69497">
        <ele>337</ele>
        <time>2016-10-12T15:46:41Z</time>
      </trkpt>
      <trkpt lat="45.95386" lon="4.69502">
        <ele>340</ele>
        <time>2016-10-12T15:46:42Z</time>
      </trkpt>
      <trkpt lat="45.95393" lon="4.69507">
        <ele>339</ele>
        <time>2016-10-12T15:46:43Z</time>
      </trkpt>
      <trkpt lat="45.954" lon="4.69512">
        <ele>339</ele>
        <time>2016-10-12T15:46:44Z</time>
      </trkpt>
      <trkpt lat="45.95407" lon="4.69517">
        <ele>339</ele>
        <time>2016-10-12T15:46:45Z</time>
      </trkpt>
      <trkpt lat="45.95414" lon="4.69521">
        <ele>339</ele>
        <time>2016-10-12T15:46:46Z</time>
      </trkpt>
      <trkpt lat="45.95421" lon="4.69526">
        <ele>337</ele>
        <time>2016-10-12T15:46:47Z</time>
      </trkpt>
      <trkpt lat="45.95428" lon="4.69531">
        <ele>337</ele>
        <time>2016-10-12T15:46:48Z</time>
      </trkpt>
      <trkpt lat="45.95436" lon="4.69535">
        <ele>337</ele>
        <time>2016-10-12T15:46:49Z</time>
      </trkpt>
      <trkpt lat="45.95443" lon="4.69539">
        <ele>337</ele>
        <time>2016-10-12T15:46:50Z</time>
      </trkpt>
      <trkpt lat="45.9545" lon="4.69542">
        <ele>337</ele>
        <time>2016-10-12T15:46:51Z</time>
      </trkpt>
      <trkpt lat="45.95457" lon="4.69546">
        <ele>337</ele>
        <time>2016-10-12T15:46:52Z</time>
      </trkpt>
      <trkpt lat="45.95465" lon="4.69549">
        <ele>336</ele>
        <time>2016-10-12T15:46:53Z</time>
      </trkpt>
      <trkpt lat="45.95472" lon="4.69552">
        <ele>336</ele>
        <time>2016-10-12T15:46:54Z</time>
      </trkpt>
      <trkpt lat="45.9548" lon="4.69557">
        <ele>336</ele>
        <time>2016-10-12T15:46:55Z</time>
      </trkpt>
      <trkpt lat="45.95488" lon="4.69561">
        <ele>336</ele>
        <time>2016-10-12T15:46:56Z</time>
      </trkpt>
      <trkpt lat="45.95494" lon="4.69561">
        <ele>336</ele>
        <time>2016-10-12T15:46:57Z</time>
      </trkpt>
      <trkpt lat="45.95502" lon="4.69564">
        <ele>334</ele>
        <time>2016-10-12T15:46:58Z</time>
      </trkpt>
      <trkpt lat="45.95509" lon="4.69567">
        <ele>334</ele>
        <time>2016-10-12T15:46:59Z</time>
      </trkpt>
      <trkpt lat="45.95516" lon="4.69571">
        <ele>334</ele>
        <time>2016-10-12T15:47:00Z</time>
      </trkpt>
      <trkpt lat="45.95525" lon="4.69575">
        <ele>333</ele>
        <time>2016-10-12T15:47:01Z</time>
      </trkpt>
      <trkpt lat="45.95533" lon="4.69579">
        <ele>332</ele>
        <time>2016-10-12T15:47:02Z</time>
      </trkpt>
      <trkpt lat="45.95542" lon="4.69584">
        <ele>332</ele>
        <time>2016-10-12T15:47:03Z</time>
      </trkpt>
      <trkpt lat="45.9555" lon="4.69588">
        <ele>331</ele>
        <time>2016-10-12T15:47:04Z</time>
      </trkpt>
      <trkpt lat="45.95559" lon="4.69593">
        <ele>330</ele>
        <time>2016-10-12T15:47:05Z</time>
      </trkpt>
      <trkpt lat="45.95567" lon="4.69597">
        <ele>330</ele>
        <time>2016-10-12T15:47:06Z</time>
      </trkpt>
      <trkpt lat="45.95575" lon="4.69602">
        <ele>330</ele>
        <time>2016-10-12T15:47:07Z</time>
      </trkpt>
      <trkpt lat="45.95584" lon="4.69606">
        <ele>328</ele>
        <time>2016-10-12T15:47:08Z</time>
      </trkpt>
      <trkpt lat="45.95592" lon="4.69611">
        <ele>328</ele>
        <time>2016-10-12T15:47:09Z</time>
      </trkpt>
      <trkpt lat="45.956" lon="4.69615">
        <ele>328</ele>
        <time>2016-10-12T15:47:10Z</time>
      </trkpt>
      <trkpt lat="45.95608" lon="4.69619">
        <ele>328</ele>
        <time>2016-10-12T15:47:11Z</time>
      </trkpt>
      <trkpt lat="45.95616" lon="4.69622">
        <ele>328</ele>
        <time>2016-10-12T15:47:12Z</time>
      </trkpt>
      <trkpt lat="45.95625" lon="4.69626">
        <ele>328</ele>
        <time>2016-10-12T15:47:13Z</time>
      </trkpt>
      <trkpt lat="45.95633" lon="4.69629">
        <ele>328</ele>
        <time>2016-10-12T15:47:14Z</time>
      </trkpt>
      <trkpt lat="45.95641" lon="4.69633">
        <ele>328</ele>
        <time>2016-10-12T15:47:15Z</time>
      </trkpt>
      <trkpt lat="45.95649" lon="4.69636">
        <ele>328</ele>
        <time>2016-10-12T15:47:16Z</time>
      </trkpt>
      <trkpt lat="45.95659" lon="4.69639">
        <ele>327</ele>
        <time>2016-10-12T15:47:17Z</time>
      </trkpt>
      <trkpt lat="45.95667" lon="4.69643">
        <ele>327</ele>
        <time>2016-10-12T15:47:18Z</time>
      </trkpt>
      <trkpt lat="45.95674" lon="4.69646">
        <ele>326</ele>
        <time>2016-10-12T15:47:19Z</time>
      </trkpt>
      <trkpt lat="45.95682" lon="4.69649">
        <ele>326</ele>
        <time>2016-10-12T15:47:20Z</time>
      </trkpt>
      <trkpt lat="45.95691" lon="4.69652">
        <ele>326</ele>
        <time>2016-10-12T15:47:21Z</time>
      </trkpt>
      <trkpt lat="45.95698" lon="4.69656">
        <ele>326</ele>
        <time>2016-10-12T15:47:22Z</time>
      </trkpt>
      <trkpt lat="45.95706" lon="4.69663">
        <ele>326</ele>
        <time>2016-10-12T15:47:23Z</time>
      </trkpt>
      <trkpt lat="45.95713" lon="4.69667">
        <ele>326</ele>
        <time>2016-10-12T15:47:24Z</time>
      </trkpt>
      <trkpt lat="45.95719" lon="4.69672">
        <ele>326</ele>
        <time>2016-10-12T15:47:25Z</time>
      </trkpt>
      <trkpt lat="45.95726" lon="4.69676">
        <ele>326</ele>
        <time>2016-10-12T15:47:26Z</time>
      </trkpt>
      <trkpt lat="45.95733" lon="4.69679">
        <ele>326</ele>
        <time>2016-10-12T15:47:27Z</time>
      </trkpt>
      <trkpt lat="45.9574" lon="4.69682">
        <ele>326</ele>
        <time>2016-10-12T15:47:28Z</time>
      </trkpt>
      <trkpt lat="45.95747" lon="4.69685">
        <ele>326</ele>
        <time>2016-10-12T15:47:29Z</time>
      </trkpt>
      <trkpt lat="45.95754" lon="4.69688">
        <ele>326</ele>
        <time>2016-10-12T15:47:30Z</time>
      </trkpt>
      <trkpt lat="45.95761" lon="4.6969">
        <ele>326</ele>
        <time>2016-10-12T15:47:31Z</time>
      </trkpt>
      <trkpt lat="45.95769" lon="4.69693">
        <ele>326</ele>
        <time>2016-10-12T15:47:32Z</time>
      </trkpt>
      <trkpt lat="45.95775" lon="4.69695">
        <ele>326</ele>
        <time>2016-10-12T15:47:33Z</time>
      </trkpt>
      <trkpt lat="45.95781" lon="4.69699">
        <ele>326</ele>
        <time>2016-10-12T15:47:34Z</time>
      </trkpt>
      <trkpt lat="45.95788" lon="4.69704">
        <ele>326</ele>
        <time>2016-10-12T15:47:35Z</time>
      </trkpt>
      <trkpt lat="45.95793" lon="4.6971">
        <ele>326</ele>
        <time>2016-10-12T15:47:36Z</time>
      </trkpt>
      <trkpt lat="45.95797" lon="4.69716">
        <ele>326</ele>
        <time>2016-10-12T15:47:37Z</time>
      </trkpt>
      <trkpt lat="45.95803" lon="4.69723">
        <ele>326</ele>
        <time>2016-10-12T15:47:38Z</time>
      </trkpt>
      <trkpt lat="45.95808" lon="4.69728">
        <ele>326</ele>
        <time>2016-10-12T15:47:39Z</time>
      </trkpt>
      <trkpt lat="45.95812" lon="4.69735">
        <ele>327</ele>
        <time>2016-10-12T15:47:40Z</time>
      </trkpt>
      <trkpt lat="45.95816" lon="4.69742">
        <ele>327</ele>
        <time>2016-10-12T15:47:41Z</time>
      </trkpt>
      <trkpt lat="45.95821" lon="4.69749">
        <ele>327</ele>
        <time>2016-10-12T15:47:42Z</time>
      </trkpt>
      <trkpt lat="45.95825" lon="4.69756">
        <ele>327</ele>
        <time>2016-10-12T15:47:43Z</time>
      </trkpt>
      <trkpt lat="45.95829" lon="4.69763">
        <ele>328</ele>
        <time>2016-10-12T15:47:44Z</time>
      </trkpt>
      <trkpt lat="45.95834" lon="4.69771">
        <ele>327</ele>
        <time>2016-10-12T15:47:45Z</time>
      </trkpt>
      <trkpt lat="45.95838" lon="4.69778">
        <ele>327</ele>
        <time>2016-10-12T15:47:46Z</time>
      </trkpt>
      <trkpt lat="45.95842" lon="4.69786">
        <ele>327</ele>
        <time>2016-10-12T15:47:47Z</time>
      </trkpt>
      <trkpt lat="45.95848" lon="4.69793">
        <ele>327</ele>
        <time>2016-10-12T15:47:48Z</time>
      </trkpt>
      <trkpt lat="45.95851" lon="4.69799">
        <ele>327</ele>
        <time>2016-10-12T15:47:49Z</time>
      </trkpt>
      <trkpt lat="45.95855" lon="4.69806">
        <ele>327</ele>
        <time>2016-10-12T15:47:50Z</time>
      </trkpt>
      <trkpt lat="45.95859" lon="4.69813">
        <ele>327</ele>
        <time>2016-10-12T15:47:51Z</time>
      </trkpt>
      <trkpt lat="45.95862" lon="4.6982">
        <ele>328</ele>
        <time>2016-10-12T15:47:52Z</time>
      </trkpt>
      <trkpt lat="45.95865" lon="4.69828">
        <ele>328</ele>
        <time>2016-10-12T15:47:53Z</time>
      </trkpt>
      <trkpt lat="45.95868" lon="4.69835">
        <ele>329</ele>
        <time>2016-10-12T15:47:54Z</time>
      </trkpt>
      <trkpt lat="45.9587" lon="4.69843">
        <ele>329</ele>
        <time>2016-10-12T15:47:55Z</time>
      </trkpt>
      <trkpt lat="45.95873" lon="4.69851">
        <ele>329</ele>
        <time>2016-10-12T15:47:56Z</time>
      </trkpt>
      <trkpt lat="45.95876" lon="4.69858">
        <ele>329</ele>
        <time>2016-10-12T15:47:57Z</time>
      </trkpt>
      <trkpt lat="45.95878" lon="4.69865">
        <ele>329</ele>
        <time>2016-10-12T15:47:58Z</time>
      </trkpt>
      <trkpt lat="45.9588" lon="4.69872">
        <ele>329</ele>
        <time>2016-10-12T15:47:59Z</time>
      </trkpt>
      <trkpt lat="45.95882" lon="4.69879">
        <ele>329</ele>
        <time>2016-10-12T15:48:00Z</time>
      </trkpt>
      <trkpt lat="45.95884" lon="4.69886">
        <ele>329</ele>
        <time>2016-10-12T15:48:01Z</time>
      </trkpt>
      <trkpt lat="45.95886" lon="4.69894">
        <ele>329</ele>
        <time>2016-10-12T15:48:02Z</time>
      </trkpt>
      <trkpt lat="45.95887" lon="4.69901">
        <ele>329</ele>
        <time>2016-10-12T15:48:03Z</time>
      </trkpt>
      <trkpt lat="45.95888" lon="4.69907">
        <ele>329</ele>
        <time>2016-10-12T15:48:04Z</time>
      </trkpt>
      <trkpt lat="45.9589" lon="4.69915">
        <ele>329</ele>
        <time>2016-10-12T15:48:05Z</time>
      </trkpt>
      <trkpt lat="45.95893" lon="4.69924">
        <ele>328</ele>
        <time>2016-10-12T15:48:06Z</time>
      </trkpt>
      <trkpt lat="45.95895" lon="4.69933">
        <ele>328</ele>
        <time>2016-10-12T15:48:07Z</time>
      </trkpt>
      <trkpt lat="45.95897" lon="4.69942">
        <ele>328</ele>
        <time>2016-10-12T15:48:08Z</time>
      </trkpt>
      <trkpt lat="45.959" lon="4.6995">
        <ele>328</ele>
        <time>2016-10-12T15:48:09Z</time>
      </trkpt>
      <trkpt lat="45.95903" lon="4.69959">
        <ele>328</ele>
        <time>2016-10-12T15:48:10Z</time>
      </trkpt>
      <trkpt lat="45.95905" lon="4.69968">
        <ele>328</ele>
        <time>2016-10-12T15:48:11Z</time>
      </trkpt>
      <trkpt lat="45.95907" lon="4.69976">
        <ele>328</ele>
        <time>2016-10-12T15:48:12Z</time>
      </trkpt>
      <trkpt lat="45.9591" lon="4.69984">
        <ele>328</ele>
        <time>2016-10-12T15:48:13Z</time>
      </trkpt>
      <trkpt lat="45.95913" lon="4.69992">
        <ele>328</ele>
        <time>2016-10-12T15:48:14Z</time>
      </trkpt>
      <trkpt lat="45.95915" lon="4.69999">
        <ele>328</ele>
        <time>2016-10-12T15:48:15Z</time>
      </trkpt>
      <trkpt lat="45.95918" lon="4.70006">
        <ele>328</ele>
        <time>2016-10-12T15:48:16Z</time>
      </trkpt>
      <trkpt lat="45.95921" lon="4.70014">
        <ele>328</ele>
        <time>2016-10-12T15:48:17Z</time>
      </trkpt>
      <trkpt lat="45.95924" lon="4.7002">
        <ele>328</ele>
        <time>2016-10-12T15:48:18Z</time>
      </trkpt>
      <trkpt lat="45.95928" lon="4.70027">
        <ele>328</ele>
        <time>2016-10-12T15:48:19Z</time>
      </trkpt>
      <trkpt lat="45.95931" lon="4.70033">
        <ele>328</ele>
        <time>2016-10-12T15:48:20Z</time>
      </trkpt>
      <trkpt lat="45.95934" lon="4.70039">
        <ele>328</ele>
        <time>2016-10-12T15:48:21Z</time>
      </trkpt>
      <trkpt lat="45.95938" lon="4.70045">
        <ele>328</ele>
        <time>2016-10-12T15:48:22Z</time>
      </trkpt>
      <trkpt lat="45.95943" lon="4.70052">
        <ele>328</ele>
        <time>2016-10-12T15:48:23Z</time>
      </trkpt>
      <trkpt lat="45.95948" lon="4.70058">
        <ele>328</ele>
        <time>2016-10-12T15:48:24Z</time>
      </trkpt>
      <trkpt lat="45.95952" lon="4.70065">
        <ele>328</ele>
        <time>2016-10-12T15:48:25Z</time>
      </trkpt>
      <trkpt lat="45.95956" lon="4.70071">
        <ele>328</ele>
        <time>2016-10-12T15:48:26Z</time>
      </trkpt>
      <trkpt lat="45.9596" lon="4.70076">
        <ele>327</ele>
        <time>2016-10-12T15:48:27Z</time>
      </trkpt>
      <trkpt lat="45.95964" lon="4.70082">
        <ele>327</ele>
        <time>2016-10-12T15:48:28Z</time>
      </trkpt>
      <trkpt lat="45.95969" lon="4.70087">
        <ele>328</ele>
        <time>2016-10-12T15:48:29Z</time>
      </trkpt>
      <trkpt lat="45.95974" lon="4.70092">
        <ele>328</ele>
        <time>2016-10-12T15:48:30Z</time>
      </trkpt>
      <trkpt lat="45.95978" lon="4.70098">
        <ele>328</ele>
        <time>2016-10-12T15:48:31Z</time>
      </trkpt>
      <trkpt lat="45.95983" lon="4.70104">
        <ele>328</ele>
        <time>2016-10-12T15:48:32Z</time>
      </trkpt>
      <trkpt lat="45.95987" lon="4.70109">
        <ele>328</ele>
        <time>2016-10-12T15:48:33Z</time>
      </trkpt>
      <trkpt lat="45.95992" lon="4.70114">
        <ele>328</ele>
        <time>2016-10-12T15:48:34Z</time>
      </trkpt>
      <trkpt lat="45.95996" lon="4.70119">
        <ele>328</ele>
        <time>2016-10-12T15:48:35Z</time>
      </trkpt>
      <trkpt lat="45.96" lon="4.70123">
        <ele>328</ele>
        <time>2016-10-12T15:48:36Z</time>
      </trkpt>
      <trkpt lat="45.96005" lon="4.70128">
        <ele>328</ele>
        <time>2016-10-12T15:48:37Z</time>
      </trkpt>
      <trkpt lat="45.9601" lon="4.70133">
        <ele>328</ele>
        <time>2016-10-12T15:48:38Z</time>
      </trkpt>
      <trkpt lat="45.96015" lon="4.70138">
        <ele>328</ele>
        <time>2016-10-12T15:48:39Z</time>
      </trkpt>
      <trkpt lat="45.96019" lon="4.70142">
        <ele>329</ele>
        <time>2016-10-12T15:48:40Z</time>
      </trkpt>
      <trkpt lat="45.96024" lon="4.70146">
        <ele>329</ele>
        <time>2016-10-12T15:48:41Z</time>
      </trkpt>
      <trkpt lat="45.96028" lon="4.7015">
        <ele>329</ele>
        <time>2016-10-12T15:48:42Z</time>
      </trkpt>
      <trkpt lat="45.96034" lon="4.70155">
        <ele>329</ele>
        <time>2016-10-12T15:48:43Z</time>
      </trkpt>
      <trkpt lat="45.9604" lon="4.7016">
        <ele>329</ele>
        <time>2016-10-12T15:48:44Z</time>
      </trkpt>
      <trkpt lat="45.96045" lon="4.70165">
        <ele>328</ele>
        <time>2016-10-12T15:48:45Z</time>
      </trkpt>
      <trkpt lat="45.96052" lon="4.70171">
        <ele>327</ele>
        <time>2016-10-12T15:48:46Z</time>
      </trkpt>
      <trkpt lat="45.96058" lon="4.70176">
        <ele>327</ele>
        <time>2016-10-12T15:48:47Z</time>
      </trkpt>
      <trkpt lat="45.96064" lon="4.70181">
        <ele>327</ele>
        <time>2016-10-12T15:48:48Z</time>
      </trkpt>
      <trkpt lat="45.9607" lon="4.70186">
        <ele>327</ele>
        <time>2016-10-12T15:48:49Z</time>
      </trkpt>
      <trkpt lat="45.96076" lon="4.7019">
        <ele>327</ele>
        <time>2016-10-12T15:48:50Z</time>
      </trkpt>
      <trkpt lat="45.96081" lon="4.70195">
        <ele>327</ele>
        <time>2016-10-12T15:48:51Z</time>
      </trkpt>
      <trkpt lat="45.96087" lon="4.702">
        <ele>327</ele>
        <time>2016-10-12T15:48:52Z</time>
      </trkpt>
      <trkpt lat="45.96093" lon="4.70205">
        <ele>327</ele>
        <time>2016-10-12T15:48:53Z</time>
      </trkpt>
      <trkpt lat="45.96099" lon="4.7021">
        <ele>327</ele>
        <time>2016-10-12T15:48:54Z</time>
      </trkpt>
      <trkpt lat="45.96106" lon="4.70215">
        <ele>327</ele>
        <time>2016-10-12T15:48:55Z</time>
      </trkpt>
      <trkpt lat="45.96112" lon="4.7022">
        <ele>327</ele>
        <time>2016-10-12T15:48:56Z</time>
      </trkpt>
      <trkpt lat="45.96119" lon="4.70225">
        <ele>327</ele>
        <time>2016-10-12T15:48:57Z</time>
      </trkpt>
      <trkpt lat="45.96125" lon="4.70231">
        <ele>327</ele>
        <time>2016-10-12T15:48:58Z</time>
      </trkpt>
      <trkpt lat="45.96131" lon="4.70237">
        <ele>327</ele>
        <time>2016-10-12T15:48:59Z</time>
      </trkpt>
      <trkpt lat="45.96138" lon="4.70243">
        <ele>327</ele>
        <time>2016-10-12T15:49:00Z</time>
      </trkpt>
      <trkpt lat="45.96144" lon="4.7025">
        <ele>327</ele>
        <time>2016-10-12T15:49:01Z</time>
      </trkpt>
      <trkpt lat="45.9615" lon="4.70256">
        <ele>325</ele>
        <time>2016-10-12T15:49:02Z</time>
      </trkpt>
      <trkpt lat="45.96156" lon="4.70263">
        <ele>325</ele>
        <time>2016-10-12T15:49:03Z</time>
      </trkpt>
      <trkpt lat="45.96162" lon="4.7027">
        <ele>324</ele>
        <time>2016-10-12T15:49:04Z</time>
      </trkpt>
      <trkpt lat="45.96168" lon="4.70277">
        <ele>327</ele>
        <time>2016-10-12T15:49:05Z</time>
      </trkpt>
      <trkpt lat="45.96174" lon="4.70283">
        <ele>326</ele>
        <time>2016-10-12T15:49:06Z</time>
      </trkpt>
      <trkpt lat="45.9618" lon="4.70291">
        <ele>326</ele>
        <time>2016-10-12T15:49:07Z</time>
      </trkpt>
      <trkpt lat="45.96186" lon="4.70298">
        <ele>326</ele>
        <time>2016-10-12T15:49:08Z</time>
      </trkpt>
      <trkpt lat="45.96191" lon="4.70305">
        <ele>326</ele>
        <time>2016-10-12T15:49:09Z</time>
      </trkpt>
      <trkpt lat="45.96196" lon="4.70313">
        <ele>326</ele>
        <time>2016-10-12T15:49:10Z</time>
      </trkpt>
      <trkpt lat="45.96202" lon="4.70321">
        <ele>326</ele>
        <time>2016-10-12T15:49:11Z</time>
      </trkpt>
      <trkpt lat="45.96206" lon="4.70329">
        <ele>326</ele>
        <time>2016-10-12T15:49:12Z</time>
      </trkpt>
      <trkpt lat="45.96211" lon="4.70337">
        <ele>321</ele>
        <time>2016-10-12T15:49:13Z</time>
      </trkpt>
      <trkpt lat="45.96219" lon="4.70345">
        <ele>322</ele>
        <time>2016-10-12T15:49:14Z</time>
      </trkpt>
      <trkpt lat="45.96226" lon="4.70354">
        <ele>322</ele>
        <time>2016-10-12T15:49:15Z</time>
      </trkpt>
      <trkpt lat="45.96232" lon="4.70361">
        <ele>322</ele>
        <time>2016-10-12T15:49:16Z</time>
      </trkpt>
      <trkpt lat="45.96236" lon="4.7037">
        <ele>321</ele>
        <time>2016-10-12T15:49:17Z</time>
      </trkpt>
      <trkpt lat="45.96241" lon="4.70377">
        <ele>321</ele>
        <time>2016-10-12T15:49:18Z</time>
      </trkpt>
      <trkpt lat="45.96246" lon="4.70384">
        <ele>321</ele>
        <time>2016-10-12T15:49:19Z</time>
      </trkpt>
      <trkpt lat="45.96251" lon="4.70392">
        <ele>325</ele>
        <time>2016-10-12T15:49:20Z</time>
      </trkpt>
      <trkpt lat="45.96256" lon="4.70399">
        <ele>325</ele>
        <time>2016-10-12T15:49:21Z</time>
      </trkpt>
      <trkpt lat="45.96261" lon="4.70406">
        <ele>324</ele>
        <time>2016-10-12T15:49:22Z</time>
      </trkpt>
      <trkpt lat="45.96266" lon="4.70414">
        <ele>324</ele>
        <time>2016-10-12T15:49:23Z</time>
      </trkpt>
      <trkpt lat="45.96271" lon="4.70422">
        <ele>321</ele>
        <time>2016-10-12T15:49:24Z</time>
      </trkpt>
      <trkpt lat="45.96276" lon="4.70431">
        <ele>321</ele>
        <time>2016-10-12T15:49:25Z</time>
      </trkpt>
      <trkpt lat="45.96281" lon="4.70439">
        <ele>321</ele>
        <time>2016-10-12T15:49:26Z</time>
      </trkpt>
      <trkpt lat="45.96286" lon="4.70448">
        <ele>321</ele>
        <time>2016-10-12T15:49:27Z</time>
      </trkpt>
      <trkpt lat="45.96292" lon="4.70456">
        <ele>321</ele>
        <time>2016-10-12T15:49:28Z</time>
      </trkpt>
      <trkpt lat="45.96297" lon="4.70464">
        <ele>321</ele>
        <time>2016-10-12T15:49:29Z</time>
      </trkpt>
      <trkpt lat="45.96302" lon="4.70472">
        <ele>321</ele>
        <time>2016-10-12T15:49:30Z</time>
      </trkpt>
      <trkpt lat="45.96307" lon="4.70481">
        <ele>320</ele>
        <time>2016-10-12T15:49:31Z</time>
      </trkpt>
      <trkpt lat="45.96313" lon="4.70489">
        <ele>320</ele>
        <time>2016-10-12T15:49:32Z</time>
      </trkpt>
      <trkpt lat="45.9632" lon="4.70497">
        <ele>320</ele>
        <time>2016-10-12T15:49:33Z</time>
      </trkpt>
      <trkpt lat="45.96326" lon="4.70505">
        <ele>318</ele>
        <time>2016-10-12T15:49:34Z</time>
      </trkpt>
      <trkpt lat="45.96332" lon="4.70512">
        <ele>317</ele>
        <time>2016-10-12T15:49:35Z</time>
      </trkpt>
      <trkpt lat="45.96338" lon="4.7052">
        <ele>319</ele>
        <time>2016-10-12T15:49:36Z</time>
      </trkpt>
      <trkpt lat="45.96344" lon="4.70527">
        <ele>319</ele>
        <time>2016-10-12T15:49:37Z</time>
      </trkpt>
      <trkpt lat="45.9635" lon="4.70535">
        <ele>319</ele>
        <time>2016-10-12T15:49:38Z</time>
      </trkpt>
      <trkpt lat="45.96356" lon="4.70543">
        <ele>319</ele>
        <time>2016-10-12T15:49:39Z</time>
      </trkpt>
      <trkpt lat="45.96362" lon="4.70551">
        <ele>318</ele>
        <time>2016-10-12T15:49:40Z</time>
      </trkpt>
      <trkpt lat="45.96369" lon="4.70559">
        <ele>318</ele>
        <time>2016-10-12T15:49:41Z</time>
      </trkpt>
      <trkpt lat="45.96375" lon="4.70567">
        <ele>318</ele>
        <time>2016-10-12T15:49:42Z</time>
      </trkpt>
      <trkpt lat="45.96381" lon="4.70575">
        <ele>318</ele>
        <time>2016-10-12T15:49:43Z</time>
      </trkpt>
      <trkpt lat="45.96389" lon="4.70584">
        <ele>313</ele>
        <time>2016-10-12T15:49:44Z</time>
      </trkpt>
      <trkpt lat="45.96395" lon="4.70592">
        <ele>313</ele>
        <time>2016-10-12T15:49:45Z</time>
      </trkpt>
      <trkpt lat="45.96402" lon="4.706">
        <ele>313</ele>
        <time>2016-10-12T15:49:46Z</time>
      </trkpt>
      <trkpt lat="45.96408" lon="4.70608">
        <ele>312</ele>
        <time>2016-10-12T15:49:47Z</time>
      </trkpt>
      <trkpt lat="45.96415" lon="4.70617">
        <ele>312</ele>
        <time>2016-10-12T15:49:48Z</time>
      </trkpt>
      <trkpt lat="45.96422" lon="4.70626">
        <ele>314</ele>
        <time>2016-10-12T15:49:49Z</time>
      </trkpt>
      <trkpt lat="45.96429" lon="4.70634">
        <ele>313</ele>
        <time>2016-10-12T15:49:50Z</time>
      </trkpt>
      <trkpt lat="45.96436" lon="4.70643">
        <ele>313</ele>
        <time>2016-10-12T15:49:51Z</time>
      </trkpt>
      <trkpt lat="45.96444" lon="4.70651">
        <ele>312</ele>
        <time>2016-10-12T15:49:52Z</time>
      </trkpt>
      <trkpt lat="45.96451" lon="4.70659">
        <ele>312</ele>
        <time>2016-10-12T15:49:53Z</time>
      </trkpt>
      <trkpt lat="45.96459" lon="4.70667">
        <ele>305</ele>
        <time>2016-10-12T15:49:54Z</time>
      </trkpt>
      <trkpt lat="45.96467" lon="4.70675">
        <ele>305</ele>
        <time>2016-10-12T15:49:55Z</time>
      </trkpt>
      <trkpt lat="45.96475" lon="4.70683">
        <ele>306</ele>
        <time>2016-10-12T15:49:56Z</time>
      </trkpt>
      <trkpt lat="45.96484" lon="4.70691">
        <ele>305</ele>
        <time>2016-10-12T15:49:57Z</time>
      </trkpt>
      <trkpt lat="45.96492" lon="4.70698">
        <ele>305</ele>
        <time>2016-10-12T15:49:58Z</time>
      </trkpt>
      <trkpt lat="45.96501" lon="4.70706">
        <ele>306</ele>
        <time>2016-10-12T15:49:59Z</time>
      </trkpt>
      <trkpt lat="45.96509" lon="4.70715">
        <ele>306</ele>
        <time>2016-10-12T15:50:00Z</time>
      </trkpt>
      <trkpt lat="45.96519" lon="4.70723">
        <ele>305</ele>
        <time>2016-10-12T15:50:01Z</time>
      </trkpt>
      <trkpt lat="45.9653" lon="4.70731">
        <ele>305</ele>
        <time>2016-10-12T15:50:02Z</time>
      </trkpt>
      <trkpt lat="45.9654" lon="4.70739">
        <ele>305</ele>
        <time>2016-10-12T15:50:03Z</time>
      </trkpt>
      <trkpt lat="45.9655" lon="4.70748">
        <ele>305</ele>
        <time>2016-10-12T15:50:04Z</time>
      </trkpt>
      <trkpt lat="45.9656" lon="4.70756">
        <ele>299</ele>
        <time>2016-10-12T15:50:05Z</time>
      </trkpt>
      <trkpt lat="45.96569" lon="4.70764">
        <ele>299</ele>
        <time>2016-10-12T15:50:06Z</time>
      </trkpt>
      <trkpt lat="45.9658" lon="4.70772">
        <ele>299</ele>
        <time>2016-10-12T15:50:07Z</time>
      </trkpt>
      <trkpt lat="45.9659" lon="4.7078">
        <ele>299</ele>
        <time>2016-10-12T15:50:08Z</time>
      </trkpt>
      <trkpt lat="45.96601" lon="4.70788">
        <ele>299</ele>
        <time>2016-10-12T15:50:09Z</time>
      </trkpt>
      <trkpt lat="45.96612" lon="4.70795">
        <ele>298</ele>
        <time>2016-10-12T15:50:10Z</time>
      </trkpt>
      <trkpt lat="45.96623" lon="4.70802">
        <ele>298</ele>
        <time>2016-10-12T15:50:11Z</time>
      </trkpt>
      <trkpt lat="45.96634" lon="4.7081">
        <ele>298</ele>
        <time>2016-10-12T15:50:12Z</time>
      </trkpt>
      <trkpt lat="45.96645" lon="4.70818">
        <ele>297</ele>
        <time>2016-10-12T15:50:13Z</time>
      </trkpt>
      <trkpt lat="45.96657" lon="4.70825">
        <ele>296</ele>
        <time>2016-10-12T15:50:14Z</time>
      </trkpt>
      <trkpt lat="45.96668" lon="4.70832">
        <ele>295</ele>
        <time>2016-10-12T15:50:15Z</time>
      </trkpt>
      <trkpt lat="45.9668" lon="4.70839">
        <ele>292</ele>
        <time>2016-10-12T15:50:16Z</time>
      </trkpt>
      <trkpt lat="45.96691" lon="4.70846">
        <ele>291</ele>
        <time>2016-10-12T15:50:17Z</time>
      </trkpt>
      <trkpt lat="45.96702" lon="4.70854">
        <ele>290</ele>
        <time>2016-10-12T15:50:18Z</time>
      </trkpt>
      <trkpt lat="45.96713" lon="4.70862">
        <ele>289</ele>
        <time>2016-10-12T15:50:19Z</time>
      </trkpt>
      <trkpt lat="45.96725" lon="4.7087">
        <ele>289</ele>
        <time>2016-10-12T15:50:20Z</time>
      </trkpt>
      <trkpt lat="45.96736" lon="4.70878">
        <ele>288</ele>
        <time>2016-10-12T15:50:21Z</time>
      </trkpt>
      <trkpt lat="45.96747" lon="4.70885">
        <ele>287</ele>
        <time>2016-10-12T15:50:22Z</time>
      </trkpt>
      <trkpt lat="45.96759" lon="4.70892">
        <ele>288</ele>
        <time>2016-10-12T15:50:23Z</time>
      </trkpt>
      <trkpt lat="45.9677" lon="4.70899">
        <ele>288</ele>
        <time>2016-10-12T15:50:24Z</time>
      </trkpt>
      <trkpt lat="45.9678" lon="4.70906">
        <ele>288</ele>
        <time>2016-10-12T15:50:25Z</time>
      </trkpt>
      <trkpt lat="45.96791" lon="4.70913">
        <ele>288</ele>
        <time>2016-10-12T15:50:26Z</time>
      </trkpt>
      <trkpt lat="45.96802" lon="4.70919">
        <ele>280</ele>
        <time>2016-10-12T15:50:27Z</time>
      </trkpt>
      <trkpt lat="45.96813" lon="4.70925">
        <ele>281</ele>
        <time>2016-10-12T15:50:28Z</time>
      </trkpt>
      <trkpt lat="45.96825" lon="4.70931">
        <ele>282</ele>
        <time>2016-10-12T15:50:29Z</time>
      </trkpt>
      <trkpt lat="45.96836" lon="4.70938">
        <ele>282</ele>
        <time>2016-10-12T15:50:30Z</time>
      </trkpt>
      <trkpt lat="45.96845" lon="4.70945">
        <ele>281</ele>
        <time>2016-10-12T15:50:31Z</time>
      </trkpt>
      <trkpt lat="45.96856" lon="4.70952">
        <ele>280</ele>
        <time>2016-10-12T15:50:32Z</time>
      </trkpt>
      <trkpt lat="45.96867" lon="4.70959">
        <ele>279</ele>
        <time>2016-10-12T15:50:33Z</time>
      </trkpt>
      <trkpt lat="45.96878" lon="4.70965">
        <ele>279</ele>
        <time>2016-10-12T15:50:34Z</time>
      </trkpt>
      <trkpt lat="45.96889" lon="4.70969">
        <ele>278</ele>
        <time>2016-10-12T15:50:35Z</time>
      </trkpt>
      <trkpt lat="45.969" lon="4.70973">
        <ele>278</ele>
        <time>2016-10-12T15:50:36Z</time>
      </trkpt>
      <trkpt lat="45.96912" lon="4.70976">
        <ele>277</ele>
        <time>2016-10-12T15:50:37Z</time>
      </trkpt>
      <trkpt lat="45.96923" lon="4.70979">
        <ele>275</ele>
        <time>2016-10-12T15:50:38Z</time>
      </trkpt>
      <trkpt lat="45.96934" lon="4.70982">
        <ele>275</ele>
        <time>2016-10-12T15:50:39Z</time>
      </trkpt>
      <trkpt lat="45.96945" lon="4.70985">
        <ele>275</ele>
        <time>2016-10-12T15:50:40Z</time>
      </trkpt>
      <trkpt lat="45.96957" lon="4.70987">
        <ele>275</ele>
        <time>2016-10-12T15:50:41Z</time>
      </trkpt>
      <trkpt lat="45.96968" lon="4.70989">
        <ele>274</ele>
        <time>2016-10-12T15:50:42Z</time>
      </trkpt>
      <trkpt lat="45.96979" lon="4.70991">
        <ele>273</ele>
        <time>2016-10-12T15:50:43Z</time>
      </trkpt>
      <trkpt lat="45.96991" lon="4.70992">
        <ele>271</ele>
        <time>2016-10-12T15:50:44Z</time>
      </trkpt>
      <trkpt lat="45.97002" lon="4.70992">
        <ele>269</ele>
        <time>2016-10-12T15:50:45Z</time>
      </trkpt>
      <trkpt lat="45.97014" lon="4.70992">
        <ele>269</ele>
        <time>2016-10-12T15:50:46Z</time>
      </trkpt>
      <trkpt lat="45.97025" lon="4.70991">
        <ele>269</ele>
        <time>2016-10-12T15:50:47Z</time>
      </trkpt>
      <trkpt lat="45.97037" lon="4.70991">
        <ele>269</ele>
        <time>2016-10-12T15:50:48Z</time>
      </trkpt>
      <trkpt lat="45.97048" lon="4.7099">
        <ele>269</ele>
        <time>2016-10-12T15:50:49Z</time>
      </trkpt>
      <trkpt lat="45.97059" lon="4.70988">
        <ele>268</ele>
        <time>2016-10-12T15:50:50Z</time>
      </trkpt>
      <trkpt lat="45.97071" lon="4.70985">
        <ele>267</ele>
        <time>2016-10-12T15:50:51Z</time>
      </trkpt>
      <trkpt lat="45.97082" lon="4.70982">
        <ele>267</ele>
        <time>2016-10-12T15:50:52Z</time>
      </trkpt>
      <trkpt lat="45.97094" lon="4.70979">
        <ele>264</ele>
        <time>2016-10-12T15:50:53Z</time>
      </trkpt>
      <trkpt lat="45.97105" lon="4.70975">
        <ele>264</ele>
        <time>2016-10-12T15:50:54Z</time>
      </trkpt>
      <trkpt lat="45.97116" lon="4.70971">
        <ele>264</ele>
        <time>2016-10-12T15:50:55Z</time>
      </trkpt>
      <trkpt lat="45.97127" lon="4.70966">
        <ele>264</ele>
        <time>2016-10-12T15:50:56Z</time>
      </trkpt>
      <trkpt lat="45.97136" lon="4.70962">
        <ele>263</ele>
        <time>2016-10-12T15:50:57Z</time>
      </trkpt>
      <trkpt lat="45.97146" lon="4.70957">
        <ele>263</ele>
        <time>2016-10-12T15:50:58Z</time>
      </trkpt>
      <trkpt lat="45.97157" lon="4.70953">
        <ele>263</ele>
        <time>2016-10-12T15:50:59Z</time>
      </trkpt>
      <trkpt lat="45.97166" lon="4.70946">
        <ele>263</ele>
        <time>2016-10-12T15:51:00Z</time>
      </trkpt>
      <trkpt lat="45.97175" lon="4.70942">
        <ele>258</ele>
        <time>2016-10-12T15:51:01Z</time>
      </trkpt>
      <trkpt lat="45.97185" lon="4.70936">
        <ele>258</ele>
        <time>2016-10-12T15:51:02Z</time>
      </trkpt>
      <trkpt lat="45.97194" lon="4.7093">
        <ele>257</ele>
        <time>2016-10-12T15:51:03Z</time>
      </trkpt>
      <trkpt lat="45.97204" lon="4.70921">
        <ele>257</ele>
        <time>2016-10-12T15:51:04Z</time>
      </trkpt>
      <trkpt lat="45.97213" lon="4.70913">
        <ele>260</ele>
        <time>2016-10-12T15:51:05Z</time>
      </trkpt>
      <trkpt lat="45.97221" lon="4.70905">
        <ele>259</ele>
        <time>2016-10-12T15:51:06Z</time>
      </trkpt>
      <trkpt lat="45.97229" lon="4.70897">
        <ele>259</ele>
        <time>2016-10-12T15:51:07Z</time>
      </trkpt>
      <trkpt lat="45.97237" lon="4.70889">
        <ele>258</ele>
        <time>2016-10-12T15:51:08Z</time>
      </trkpt>
      <trkpt lat="45.97245" lon="4.70879">
        <ele>259</ele>
        <time>2016-10-12T15:51:09Z</time>
      </trkpt>
      <trkpt lat="45.97253" lon="4.70869">
        <ele>252</ele>
        <time>2016-10-12T15:51:10Z</time>
      </trkpt>
      <trkpt lat="45.9726" lon="4.70858">
        <ele>253</ele>
        <time>2016-10-12T15:51:11Z</time>
      </trkpt>
      <trkpt lat="45.97267" lon="4.70849">
        <ele>253</ele>
        <time>2016-10-12T15:51:12Z</time>
      </trkpt>
      <trkpt lat="45.97274" lon="4.70838">
        <ele>253</ele>
        <time>2016-10-12T15:51:13Z</time>
      </trkpt>
      <trkpt lat="45.97282" lon="4.70827">
        <ele>254</ele>
        <time>2016-10-12T15:51:14Z</time>
      </trkpt>
      <trkpt lat="45.97289" lon="4.70816">
        <ele>254</ele>
        <time>2016-10-12T15:51:15Z</time>
      </trkpt>
      <trkpt lat="45.97296" lon="4.70806">
        <ele>253</ele>
        <time>2016-10-12T15:51:16Z</time>
      </trkpt>
      <trkpt lat="45.97304" lon="4.70797">
        <ele>253</ele>
        <time>2016-10-12T15:51:17Z</time>
      </trkpt>
      <trkpt lat="45.9731" lon="4.70788">
        <ele>253</ele>
        <time>2016-10-12T15:51:18Z</time>
      </trkpt>
      <trkpt lat="45.97317" lon="4.70778">
        <ele>252</ele>
        <time>2016-10-12T15:51:19Z</time>
      </trkpt>
      <trkpt lat="45.97323" lon="4.7077">
        <ele>252</ele>
        <time>2016-10-12T15:51:20Z</time>
      </trkpt>
      <trkpt lat="45.97329" lon="4.70764">
        <ele>251</ele>
        <time>2016-10-12T15:51:21Z</time>
      </trkpt>
      <trkpt lat="45.97336" lon="4.70761">
        <ele>247</ele>
        <time>2016-10-12T15:51:22Z</time>
      </trkpt>
      <trkpt lat="45.97344" lon="4.70757">
        <ele>247</ele>
        <time>2016-10-12T15:51:23Z</time>
      </trkpt>
      <trkpt lat="45.97352" lon="4.70754">
        <ele>246</ele>
        <time>2016-10-12T15:51:24Z</time>
      </trkpt>
      <trkpt lat="45.9736" lon="4.70752">
        <ele>245</ele>
        <time>2016-10-12T15:51:25Z</time>
      </trkpt>
      <trkpt lat="45.97368" lon="4.70748">
        <ele>245</ele>
        <time>2016-10-12T15:51:26Z</time>
      </trkpt>
      <trkpt lat="45.97377" lon="4.70744">
        <ele>244</ele>
        <time>2016-10-12T15:51:27Z</time>
      </trkpt>
      <trkpt lat="45.97386" lon="4.70742">
        <ele>243</ele>
        <time>2016-10-12T15:51:28Z</time>
      </trkpt>
      <trkpt lat="45.97396" lon="4.7074">
        <ele>243</ele>
        <time>2016-10-12T15:51:29Z</time>
      </trkpt>
      <trkpt lat="45.97405" lon="4.70739">
        <ele>242</ele>
        <time>2016-10-12T15:51:30Z</time>
      </trkpt>
      <trkpt lat="45.97414" lon="4.70741">
        <ele>241</ele>
        <time>2016-10-12T15:51:31Z</time>
      </trkpt>
      <trkpt lat="45.97424" lon="4.70743">
        <ele>239</ele>
        <time>2016-10-12T15:51:32Z</time>
      </trkpt>
      <trkpt lat="45.97432" lon="4.70744">
        <ele>239</ele>
        <time>2016-10-12T15:51:33Z</time>
      </trkpt>
      <trkpt lat="45.97442" lon="4.70747">
        <ele>239</ele>
        <time>2016-10-12T15:51:34Z</time>
      </trkpt>
      <trkpt lat="45.9745" lon="4.70749">
        <ele>238</ele>
        <time>2016-10-12T15:51:35Z</time>
      </trkpt>
      <trkpt lat="45.97457" lon="4.70751">
        <ele>237</ele>
        <time>2016-10-12T15:51:36Z</time>
      </trkpt>
      <trkpt lat="45.97464" lon="4.70752">
        <ele>237</ele>
        <time>2016-10-12T15:51:37Z</time>
      </trkpt>
      <trkpt lat="45.9747" lon="4.70753">
        <ele>237</ele>
        <time>2016-10-12T15:51:38Z</time>
      </trkpt>
      <trkpt lat="45.97476" lon="4.70753">
        <ele>237</ele>
        <time>2016-10-12T15:51:39Z</time>
      </trkpt>
      <trkpt lat="45.97482" lon="4.70753">
        <ele>237</ele>
        <time>2016-10-12T15:51:40Z</time>
      </trkpt>
      <trkpt lat="45.9749" lon="4.70751">
        <ele>236</ele>
        <time>2016-10-12T15:51:42Z</time>
      </trkpt>
      <trkpt lat="45.97494" lon="4.70751">
        <ele>236</ele>
        <time>2016-10-12T15:51:43Z</time>
      </trkpt>
      <trkpt lat="45.97499" lon="4.7075">
        <ele>236</ele>
        <time>2016-10-12T15:51:44Z</time>
      </trkpt>
      <trkpt lat="45.97504" lon="4.70748">
        <ele>236</ele>
        <time>2016-10-12T15:51:45Z</time>
      </trkpt>
      <trkpt lat="45.9751" lon="4.70746">
        <ele>235</ele>
        <time>2016-10-12T15:51:46Z</time>
      </trkpt>
      <trkpt lat="45.97514" lon="4.70742">
        <ele>235</ele>
        <time>2016-10-12T15:51:47Z</time>
      </trkpt>
      <trkpt lat="45.97526" lon="4.70738">
        <ele>234</ele>
        <time>2016-10-12T15:51:48Z</time>
      </trkpt>
      <trkpt lat="45.97531" lon="4.70735">
        <ele>234</ele>
        <time>2016-10-12T15:51:49Z</time>
      </trkpt>
      <trkpt lat="45.97538" lon="4.70735">
        <ele>234</ele>
        <time>2016-10-12T15:51:50Z</time>
      </trkpt>
      <trkpt lat="45.97544" lon="4.70736">
        <ele>233</ele>
        <time>2016-10-12T15:51:51Z</time>
      </trkpt>
      <trkpt lat="45.9755" lon="4.70737">
        <ele>233</ele>
        <time>2016-10-12T15:51:52Z</time>
      </trkpt>
      <trkpt lat="45.97556" lon="4.70739">
        <ele>233</ele>
        <time>2016-10-12T15:51:53Z</time>
      </trkpt>
      <trkpt lat="45.97562" lon="4.7074">
        <ele>233</ele>
        <time>2016-10-12T15:51:54Z</time>
      </trkpt>
      <trkpt lat="45.97569" lon="4.7074">
        <ele>232</ele>
        <time>2016-10-12T15:51:55Z</time>
      </trkpt>
      <trkpt lat="45.97578" lon="4.70736">
        <ele>232</ele>
        <time>2016-10-12T15:51:56Z</time>
      </trkpt>
      <trkpt lat="45.97585" lon="4.70735">
        <ele>230</ele>
        <time>2016-10-12T15:51:57Z</time>
      </trkpt>
      <trkpt lat="45.97592" lon="4.70735">
        <ele>230</ele>
        <time>2016-10-12T15:51:58Z</time>
      </trkpt>
      <trkpt lat="45.97599" lon="4.70736">
        <ele>229</ele>
        <time>2016-10-12T15:51:59Z</time>
      </trkpt>
      <trkpt lat="45.97606" lon="4.70737">
        <ele>229</ele>
        <time>2016-10-12T15:52:00Z</time>
      </trkpt>
      <trkpt lat="45.97614" lon="4.70738">
        <ele>228</ele>
        <time>2016-10-12T15:52:01Z</time>
      </trkpt>
      <trkpt lat="45.97622" lon="4.70741">
        <ele>228</ele>
        <time>2016-10-12T15:52:02Z</time>
      </trkpt>
      <trkpt lat="45.9763" lon="4.70745">
        <ele>228</ele>
        <time>2016-10-12T15:52:03Z</time>
      </trkpt>
      <trkpt lat="45.97638" lon="4.70749">
        <ele>227</ele>
        <time>2016-10-12T15:52:04Z</time>
      </trkpt>
      <trkpt lat="45.97647" lon="4.70751">
        <ele>226</ele>
        <time>2016-10-12T15:52:05Z</time>
      </trkpt>
      <trkpt lat="45.97655" lon="4.70753">
        <ele>225</ele>
        <time>2016-10-12T15:52:06Z</time>
      </trkpt>
      <trkpt lat="45.97664" lon="4.70755">
        <ele>225</ele>
        <time>2016-10-12T15:52:07Z</time>
      </trkpt>
      <trkpt lat="45.97673" lon="4.70758">
        <ele>224</ele>
        <time>2016-10-12T15:52:08Z</time>
      </trkpt>
      <trkpt lat="45.97682" lon="4.70761">
        <ele>223</ele>
        <time>2016-10-12T15:52:09Z</time>
      </trkpt>
      <trkpt lat="45.9769" lon="4.70764">
        <ele>223</ele>
        <time>2016-10-12T15:52:10Z</time>
      </trkpt>
      <trkpt lat="45.97699" lon="4.70767">
        <ele>223</ele>
        <time>2016-10-12T15:52:11Z</time>
      </trkpt>
      <trkpt lat="45.97708" lon="4.7077">
        <ele>223</ele>
        <time>2016-10-12T15:52:12Z</time>
      </trkpt>
      <trkpt lat="45.97716" lon="4.70773">
        <ele>223</ele>
        <time>2016-10-12T15:52:13Z</time>
      </trkpt>
      <trkpt lat="45.97725" lon="4.70776">
        <ele>222</ele>
        <time>2016-10-12T15:52:14Z</time>
      </trkpt>
      <trkpt lat="45.97734" lon="4.70779">
        <ele>222</ele>
        <time>2016-10-12T15:52:15Z</time>
      </trkpt>
      <trkpt lat="45.97742" lon="4.70782">
        <ele>222</ele>
        <time>2016-10-12T15:52:16Z</time>
      </trkpt>
      <trkpt lat="45.9775" lon="4.70785">
        <ele>222</ele>
        <time>2016-10-12T15:52:17Z</time>
      </trkpt>
      <trkpt lat="45.97757" lon="4.70787">
        <ele>221</ele>
        <time>2016-10-12T15:52:18Z</time>
      </trkpt>
      <trkpt lat="45.97763" lon="4.70789">
        <ele>221</ele>
        <time>2016-10-12T15:52:19Z</time>
      </trkpt>
      <trkpt lat="45.97769" lon="4.7079">
        <ele>221</ele>
        <time>2016-10-12T15:52:20Z</time>
      </trkpt>
      <trkpt lat="45.97773" lon="4.7079">
        <ele>221</ele>
        <time>2016-10-12T15:52:21Z</time>
      </trkpt>
      <trkpt lat="45.97779" lon="4.70793">
        <ele>221</ele>
        <time>2016-10-12T15:52:23Z</time>
      </trkpt>
      <trkpt lat="45.97783" lon="4.70795">
        <ele>221</ele>
        <time>2016-10-12T15:52:24Z</time>
      </trkpt>
      <trkpt lat="45.9779" lon="4.70802">
        <ele>221</ele>
        <time>2016-10-12T15:52:26Z</time>
      </trkpt>
      <trkpt lat="45.97795" lon="4.70805">
        <ele>221</ele>
        <time>2016-10-12T15:52:27Z</time>
      </trkpt>
      <trkpt lat="45.97799" lon="4.70808">
        <ele>221</ele>
        <time>2016-10-12T15:52:28Z</time>
      </trkpt>
      <trkpt lat="45.97804" lon="4.70813">
        <ele>221</ele>
        <time>2016-10-12T15:52:29Z</time>
      </trkpt>
      <trkpt lat="45.97808" lon="4.70819">
        <ele>221</ele>
        <time>2016-10-12T15:52:30Z</time>
      </trkpt>
      <trkpt lat="45.97811" lon="4.70826">
        <ele>221</ele>
        <time>2016-10-12T15:52:31Z</time>
      </trkpt>
      <trkpt lat="45.97813" lon="4.70834">
        <ele>221</ele>
        <time>2016-10-12T15:52:32Z</time>
      </trkpt>
      <trkpt lat="45.97815" lon="4.70843">
        <ele>220</ele>
        <time>2016-10-12T15:52:33Z</time>
      </trkpt>
      <trkpt lat="45.97817" lon="4.70851">
        <ele>220</ele>
        <time>2016-10-12T15:52:34Z</time>
      </trkpt>
      <trkpt lat="45.97818" lon="4.7086">
        <ele>220</ele>
        <time>2016-10-12T15:52:35Z</time>
      </trkpt>
      <trkpt lat="45.97819" lon="4.70869">
        <ele>220</ele>
        <time>2016-10-12T15:52:36Z</time>
      </trkpt>
      <trkpt lat="45.97821" lon="4.70879">
        <ele>220</ele>
        <time>2016-10-12T15:52:37Z</time>
      </trkpt>
      <trkpt lat="45.97822" lon="4.70888">
        <ele>220</ele>
        <time>2016-10-12T15:52:38Z</time>
      </trkpt>
      <trkpt lat="45.97823" lon="4.70898">
        <ele>220</ele>
        <time>2016-10-12T15:52:39Z</time>
      </trkpt>
      <trkpt lat="45.97823" lon="4.70908">
        <ele>219</ele>
        <time>2016-10-12T15:52:40Z</time>
      </trkpt>
      <trkpt lat="45.97823" lon="4.70918">
        <ele>219</ele>
        <time>2016-10-12T15:52:41Z</time>
      </trkpt>
      <trkpt lat="45.97825" lon="4.70928">
        <ele>219</ele>
        <time>2016-10-12T15:52:42Z</time>
      </trkpt>
      <trkpt lat="45.97827" lon="4.70935">
        <ele>218</ele>
        <time>2016-10-12T15:52:43Z</time>
      </trkpt>
      <trkpt lat="45.97829" lon="4.70947">
        <ele>218</ele>
        <time>2016-10-12T15:52:45Z</time>
      </trkpt>
      <trkpt lat="45.9783" lon="4.70953">
        <ele>218</ele>
        <time>2016-10-12T15:52:46Z</time>
      </trkpt>
      <trkpt lat="45.97831" lon="4.70964">
        <ele>218</ele>
        <time>2016-10-12T15:52:48Z</time>
      </trkpt>
      <trkpt lat="45.97832" lon="4.70971">
        <ele>218</ele>
        <time>2016-10-12T15:52:49Z</time>
      </trkpt>
      <trkpt lat="45.97832" lon="4.70979">
        <ele>217</ele>
        <time>2016-10-12T15:52:50Z</time>
      </trkpt>
      <trkpt lat="45.97832" lon="4.70987">
        <ele>217</ele>
        <time>2016-10-12T15:52:51Z</time>
      </trkpt>
      <trkpt lat="45.97833" lon="4.70994">
        <ele>217</ele>
        <time>2016-10-12T15:52:52Z</time>
      </trkpt>
      <trkpt lat="45.97834" lon="4.71002">
        <ele>216</ele>
        <time>2016-10-12T15:52:53Z</time>
      </trkpt>
      <trkpt lat="45.97835" lon="4.7101">
        <ele>216</ele>
        <time>2016-10-12T15:52:54Z</time>
      </trkpt>
      <trkpt lat="45.97836" lon="4.71018">
        <ele>216</ele>
        <time>2016-10-12T15:52:55Z</time>
      </trkpt>
      <trkpt lat="45.97836" lon="4.71027">
        <ele>216</ele>
        <time>2016-10-12T15:52:56Z</time>
      </trkpt>
      <trkpt lat="45.97835" lon="4.71034">
        <ele>216</ele>
        <time>2016-10-12T15:52:57Z</time>
      </trkpt>
      <trkpt lat="45.97832" lon="4.71045">
        <ele>216</ele>
        <time>2016-10-12T15:53:00Z</time>
      </trkpt>
      <trkpt lat="45.97833" lon="4.71049">
        <ele>216</ele>
        <time>2016-10-12T15:53:01Z</time>
      </trkpt>
      <trkpt lat="45.97836" lon="4.71057">
        <ele>215</ele>
        <time>2016-10-12T15:53:03Z</time>
      </trkpt>
      <trkpt lat="45.97836" lon="4.71063">
        <ele>215</ele>
        <time>2016-10-12T15:53:04Z</time>
      </trkpt>
      <trkpt lat="45.97837" lon="4.71069">
        <ele>215</ele>
        <time>2016-10-12T15:53:05Z</time>
      </trkpt>
      <trkpt lat="45.97838" lon="4.71076">
        <ele>215</ele>
        <time>2016-10-12T15:53:06Z</time>
      </trkpt>
      <trkpt lat="45.97839" lon="4.71083">
        <ele>214</ele>
        <time>2016-10-12T15:53:07Z</time>
      </trkpt>
      <trkpt lat="45.97841" lon="4.7109">
        <ele>214</ele>
        <time>2016-10-12T15:53:08Z</time>
      </trkpt>
      <trkpt lat="45.97842" lon="4.71098">
        <ele>213</ele>
        <time>2016-10-12T15:53:09Z</time>
      </trkpt>
      <trkpt lat="45.97842" lon="4.71107">
        <ele>213</ele>
        <time>2016-10-12T15:53:10Z</time>
      </trkpt>
      <trkpt lat="45.97843" lon="4.71115">
        <ele>213</ele>
        <time>2016-10-12T15:53:11Z</time>
      </trkpt>
      <trkpt lat="45.97845" lon="4.71124">
        <ele>213</ele>
        <time>2016-10-12T15:53:12Z</time>
      </trkpt>
      <trkpt lat="45.97846" lon="4.71132">
        <ele>212</ele>
        <time>2016-10-12T15:53:13Z</time>
      </trkpt>
      <trkpt lat="45.97847" lon="4.7114">
        <ele>212</ele>
        <time>2016-10-12T15:53:14Z</time>
      </trkpt>
      <trkpt lat="45.97849" lon="4.71149">
        <ele>212</ele>
        <time>2016-10-12T15:53:15Z</time>
      </trkpt>
      <trkpt lat="45.9785" lon="4.71157">
        <ele>212</ele>
        <time>2016-10-12T15:53:16Z</time>
      </trkpt>
      <trkpt lat="45.97851" lon="4.71169">
        <ele>210</ele>
        <time>2016-10-12T15:53:18Z</time>
      </trkpt>
      <trkpt lat="45.97851" lon="4.71174">
        <ele>210</ele>
        <time>2016-10-12T15:53:19Z</time>
      </trkpt>
      <trkpt lat="45.97853" lon="4.71186">
        <ele>209</ele>
        <time>2016-10-12T15:53:22Z</time>
      </trkpt>
      <trkpt lat="45.97854" lon="4.71192">
        <ele>209</ele>
        <time>2016-10-12T15:53:23Z</time>
      </trkpt>
      <trkpt lat="45.97853" lon="4.71199">
        <ele>209</ele>
        <time>2016-10-12T15:53:24Z</time>
      </trkpt>
      <trkpt lat="45.97853" lon="4.71207">
        <ele>209</ele>
        <time>2016-10-12T15:53:25Z</time>
      </trkpt>
      <trkpt lat="45.97852" lon="4.71215">
        <ele>208</ele>
        <time>2016-10-12T15:53:26Z</time>
      </trkpt>
      <trkpt lat="45.97852" lon="4.71225">
        <ele>208</ele>
        <time>2016-10-12T15:53:27Z</time>
      </trkpt>
      <trkpt lat="45.97851" lon="4.71235">
        <ele>208</ele>
        <time>2016-10-12T15:53:28Z</time>
      </trkpt>
      <trkpt lat="45.97851" lon="4.71246">
        <ele>208</ele>
        <time>2016-10-12T15:53:29Z</time>
      </trkpt>
      <trkpt lat="45.9785" lon="4.71256">
        <ele>207</ele>
        <time>2016-10-12T15:53:30Z</time>
      </trkpt>
      <trkpt lat="45.9785" lon="4.71267">
        <ele>206</ele>
        <time>2016-10-12T15:53:31Z</time>
      </trkpt>
      <trkpt lat="45.97849" lon="4.71278">
        <ele>206</ele>
        <time>2016-10-12T15:53:32Z</time>
      </trkpt>
      <trkpt lat="45.97849" lon="4.7129">
        <ele>206</ele>
        <time>2016-10-12T15:53:33Z</time>
      </trkpt>
      <trkpt lat="45.97849" lon="4.71301">
        <ele>206</ele>
        <time>2016-10-12T15:53:34Z</time>
      </trkpt>
      <trkpt lat="45.97849" lon="4.71313">
        <ele>205</ele>
        <time>2016-10-12T15:53:35Z</time>
      </trkpt>
      <trkpt lat="45.9785" lon="4.71325">
        <ele>205</ele>
        <time>2016-10-12T15:53:36Z</time>
      </trkpt>
      <trkpt lat="45.97851" lon="4.71337">
        <ele>204</ele>
        <time>2016-10-12T15:53:37Z</time>
      </trkpt>
      <trkpt lat="45.9785" lon="4.71349">
        <ele>204</ele>
        <time>2016-10-12T15:53:38Z</time>
      </trkpt>
      <trkpt lat="45.9785" lon="4.7136">
        <ele>204</ele>
        <time>2016-10-12T15:53:39Z</time>
      </trkpt>
      <trkpt lat="45.9785" lon="4.71372">
        <ele>203</ele>
        <time>2016-10-12T15:53:40Z</time>
      </trkpt>
      <trkpt lat="45.97851" lon="4.71383">
        <ele>203</ele>
        <time>2016-10-12T15:53:41Z</time>
      </trkpt>
      <trkpt lat="45.97853" lon="4.71398">
        <ele>203</ele>
        <time>2016-10-12T15:53:42Z</time>
      </trkpt>
      <trkpt lat="45.97855" lon="4.71411">
        <ele>203</ele>
        <time>2016-10-12T15:53:43Z</time>
      </trkpt>
      <trkpt lat="45.97857" lon="4.71423">
        <ele>201</ele>
        <time>2016-10-12T15:53:44Z</time>
      </trkpt>
      <trkpt lat="45.97859" lon="4.71434">
        <ele>201</ele>
        <time>2016-10-12T15:53:45Z</time>
      </trkpt>
      <trkpt lat="45.97861" lon="4.71446">
        <ele>201</ele>
        <time>2016-10-12T15:53:46Z</time>
      </trkpt>
      <trkpt lat="45.97864" lon="4.71459">
        <ele>201</ele>
        <time>2016-10-12T15:53:47Z</time>
      </trkpt>
      <trkpt lat="45.97866" lon="4.71467">
        <ele>201</ele>
        <time>2016-10-12T15:53:48Z</time>
      </trkpt>
      <trkpt lat="45.97868" lon="4.71478">
        <ele>201</ele>
        <time>2016-10-12T15:53:49Z</time>
      </trkpt>
      <trkpt lat="45.97869" lon="4.71489">
        <ele>201</ele>
        <time>2016-10-12T15:53:50Z</time>
      </trkpt>
      <trkpt lat="45.97872" lon="4.715">
        <ele>199</ele>
        <time>2016-10-12T15:53:51Z</time>
      </trkpt>
      <trkpt lat="45.97875" lon="4.71512">
        <ele>199</ele>
        <time>2016-10-12T15:53:52Z</time>
      </trkpt>
      <trkpt lat="45.97877" lon="4.71525">
        <ele>199</ele>
        <time>2016-10-12T15:53:53Z</time>
      </trkpt>
      <trkpt lat="45.9788" lon="4.71538">
        <ele>199</ele>
        <time>2016-10-12T15:53:54Z</time>
      </trkpt>
      <trkpt lat="45.97881" lon="4.71552">
        <ele>198</ele>
        <time>2016-10-12T15:53:55Z</time>
      </trkpt>
      <trkpt lat="45.97882" lon="4.71565">
        <ele>198</ele>
        <time>2016-10-12T15:53:56Z</time>
      </trkpt>
      <trkpt lat="45.97883" lon="4.71577">
        <ele>198</ele>
        <time>2016-10-12T15:53:57Z</time>
      </trkpt>
      <trkpt lat="45.97884" lon="4.7159">
        <ele>197</ele>
        <time>2016-10-12T15:53:58Z</time>
      </trkpt>
      <trkpt lat="45.97884" lon="4.71602">
        <ele>197</ele>
        <time>2016-10-12T15:53:59Z</time>
      </trkpt>
      <trkpt lat="45.97884" lon="4.71614">
        <ele>197</ele>
        <time>2016-10-12T15:54:00Z</time>
      </trkpt>
      <trkpt lat="45.97884" lon="4.71626">
        <ele>197</ele>
        <time>2016-10-12T15:54:01Z</time>
      </trkpt>
      <trkpt lat="45.97884" lon="4.71638">
        <ele>197</ele>
        <time>2016-10-12T15:54:02Z</time>
      </trkpt>
      <trkpt lat="45.9788" lon="4.71651">
        <ele>197</ele>
        <time>2016-10-12T15:54:03Z</time>
      </trkpt>
      <trkpt lat="45.97877" lon="4.71661">
        <ele>197</ele>
        <time>2016-10-12T15:54:04Z</time>
      </trkpt>
      <trkpt lat="45.97874" lon="4.71672">
        <ele>196</ele>
        <time>2016-10-12T15:54:05Z</time>
      </trkpt>
      <trkpt lat="45.97872" lon="4.71682">
        <ele>196</ele>
        <time>2016-10-12T15:54:06Z</time>
      </trkpt>
      <trkpt lat="45.9787" lon="4.71692">
        <ele>196</ele>
        <time>2016-10-12T15:54:07Z</time>
      </trkpt>
      <trkpt lat="45.97868" lon="4.717">
        <ele>196</ele>
        <time>2016-10-12T15:54:08Z</time>
      </trkpt>
      <trkpt lat="45.97866" lon="4.71709">
        <ele>196</ele>
        <time>2016-10-12T15:54:09Z</time>
      </trkpt>
      <trkpt lat="45.97862" lon="4.71716">
        <ele>196</ele>
        <time>2016-10-12T15:54:10Z</time>
      </trkpt>
      <trkpt lat="45.97857" lon="4.71724">
        <ele>196</ele>
        <time>2016-10-12T15:54:11Z</time>
      </trkpt>
      <trkpt lat="45.97853" lon="4.71732">
        <ele>196</ele>
        <time>2016-10-12T15:54:12Z</time>
      </trkpt>
      <trkpt lat="45.97849" lon="4.71738">
        <ele>196</ele>
        <time>2016-10-12T15:54:13Z</time>
      </trkpt>
      <trkpt lat="45.97844" lon="4.71743">
        <ele>195</ele>
        <time>2016-10-12T15:54:14Z</time>
      </trkpt>
      <trkpt lat="45.97838" lon="4.71748">
        <ele>195</ele>
        <time>2016-10-12T15:54:15Z</time>
      </trkpt>
      <trkpt lat="45.97833" lon="4.71749">
        <ele>195</ele>
        <time>2016-10-12T15:54:16Z</time>
      </trkpt>
      <trkpt lat="45.97826" lon="4.71747">
        <ele>195</ele>
        <time>2016-10-12T15:54:17Z</time>
      </trkpt>
      <trkpt lat="45.97819" lon="4.71746">
        <ele>196</ele>
        <time>2016-10-12T15:54:18Z</time>
      </trkpt>
      <trkpt lat="45.97812" lon="4.71746">
        <ele>196</ele>
        <time>2016-10-12T15:54:19Z</time>
      </trkpt>
      <trkpt lat="45.97805" lon="4.71745">
        <ele>196</ele>
        <time>2016-10-12T15:54:20Z</time>
      </trkpt>
      <trkpt lat="45.97798" lon="4.71745">
        <ele>196</ele>
        <time>2016-10-12T15:54:21Z</time>
      </trkpt>
      <trkpt lat="45.97791" lon="4.71744">
        <ele>196</ele>
        <time>2016-10-12T15:54:22Z</time>
      </trkpt>
      <trkpt lat="45.97784" lon="4.71744">
        <ele>196</ele>
        <time>2016-10-12T15:54:23Z</time>
      </trkpt>
      <trkpt lat="45.97778" lon="4.71742">
        <ele>196</ele>
        <time>2016-10-12T15:54:24Z</time>
      </trkpt>
      <trkpt lat="45.97772" lon="4.71742">
        <ele>196</ele>
        <time>2016-10-12T15:54:25Z</time>
      </trkpt>
      <trkpt lat="45.97766" lon="4.71741">
        <ele>196</ele>
        <time>2016-10-12T15:54:26Z</time>
      </trkpt>
      <trkpt lat="45.9776" lon="4.7174">
        <ele>196</ele>
        <time>2016-10-12T15:54:27Z</time>
      </trkpt>
      <trkpt lat="45.97754" lon="4.7174">
        <ele>196</ele>
        <time>2016-10-12T15:54:28Z</time>
      </trkpt>
      <trkpt lat="45.97748" lon="4.71739">
        <ele>196</ele>
        <time>2016-10-12T15:54:29Z</time>
      </trkpt>
      <trkpt lat="45.97742" lon="4.71739">
        <ele>196</ele>
        <time>2016-10-12T15:54:30Z</time>
      </trkpt>
      <trkpt lat="45.97736" lon="4.71738">
        <ele>196</ele>
        <time>2016-10-12T15:54:31Z</time>
      </trkpt>
      <trkpt lat="45.9773" lon="4.71736">
        <ele>196</ele>
        <time>2016-10-12T15:54:32Z</time>
      </trkpt>
      <trkpt lat="45.97724" lon="4.71735">
        <ele>196</ele>
        <time>2016-10-12T15:54:33Z</time>
      </trkpt>
      <trkpt lat="45.97717" lon="4.71732">
        <ele>196</ele>
        <time>2016-10-12T15:54:34Z</time>
      </trkpt>
      <trkpt lat="45.9771" lon="4.71731">
        <ele>196</ele>
        <time>2016-10-12T15:54:35Z</time>
      </trkpt>
      <trkpt lat="45.97704" lon="4.7173">
        <ele>196</ele>
        <time>2016-10-12T15:54:36Z</time>
      </trkpt>
      <trkpt lat="45.97697" lon="4.71729">
        <ele>196</ele>
        <time>2016-10-12T15:54:37Z</time>
      </trkpt>
      <trkpt lat="45.97691" lon="4.71728">
        <ele>196</ele>
        <time>2016-10-12T15:54:38Z</time>
      </trkpt>
      <trkpt lat="45.97686" lon="4.71728">
        <ele>196</ele>
        <time>2016-10-12T15:54:39Z</time>
      </trkpt>
      <trkpt lat="45.97681" lon="4.71728">
        <ele>196</ele>
        <time>2016-10-12T15:54:40Z</time>
      </trkpt>
      <trkpt lat="45.97675" lon="4.71726">
        <ele>196</ele>
        <time>2016-10-12T15:54:41Z</time>
      </trkpt>
      <trkpt lat="45.97669" lon="4.71725">
        <ele>196</ele>
        <time>2016-10-12T15:54:42Z</time>
      </trkpt>
      <trkpt lat="45.97664" lon="4.71725">
        <ele>196</ele>
        <time>2016-10-12T15:54:43Z</time>
      </trkpt>
      <trkpt lat="45.97659" lon="4.71725">
        <ele>196</ele>
        <time>2016-10-12T15:54:44Z</time>
      </trkpt>
      <trkpt lat="45.97654" lon="4.71725">
        <ele>196</ele>
        <time>2016-10-12T15:54:45Z</time>
      </trkpt>
      <trkpt lat="45.97649" lon="4.71724">
        <ele>196</ele>
        <time>2016-10-12T15:54:46Z</time>
      </trkpt>
      <trkpt lat="45.97643" lon="4.71721">
        <ele>196</ele>
        <time>2016-10-12T15:54:47Z</time>
      </trkpt>
      <trkpt lat="45.97639" lon="4.71718">
        <ele>197</ele>
        <time>2016-10-12T15:54:48Z</time>
      </trkpt>
      <trkpt lat="45.97636" lon="4.71712">
        <ele>197</ele>
        <time>2016-10-12T15:54:49Z</time>
      </trkpt>
      <trkpt lat="45.97632" lon="4.71711">
        <ele>197</ele>
        <time>2016-10-12T15:54:50Z</time>
      </trkpt>
      <trkpt lat="45.97626" lon="4.71709">
        <ele>197</ele>
        <time>2016-10-12T15:54:51Z</time>
      </trkpt>
      <trkpt lat="45.97619" lon="4.7171">
        <ele>197</ele>
        <time>2016-10-12T15:54:52Z</time>
      </trkpt>
      <trkpt lat="45.97614" lon="4.71713">
        <ele>197</ele>
        <time>2016-10-12T15:54:53Z</time>
      </trkpt>
      <trkpt lat="45.97608" lon="4.71715">
        <ele>197</ele>
        <time>2016-10-12T15:54:54Z</time>
      </trkpt>
      <trkpt lat="45.97602" lon="4.71718">
        <ele>197</ele>
        <time>2016-10-12T15:54:55Z</time>
      </trkpt>
      <trkpt lat="45.97596" lon="4.7172">
        <ele>197</ele>
        <time>2016-10-12T15:54:56Z</time>
      </trkpt>
      <trkpt lat="45.9759" lon="4.71721">
        <ele>197</ele>
        <time>2016-10-12T15:54:57Z</time>
      </trkpt>
      <trkpt lat="45.97583" lon="4.71721">
        <ele>198</ele>
        <time>2016-10-12T15:54:58Z</time>
      </trkpt>
      <trkpt lat="45.97576" lon="4.71721">
        <ele>198</ele>
        <time>2016-10-12T15:54:59Z</time>
      </trkpt>
      <trkpt lat="45.9757" lon="4.7172">
        <ele>198</ele>
        <time>2016-10-12T15:55:00Z</time>
      </trkpt>
      <trkpt lat="45.97564" lon="4.7172">
        <ele>198</ele>
        <time>2016-10-12T15:55:01Z</time>
      </trkpt>
      <trkpt lat="45.97558" lon="4.71718">
        <ele>198</ele>
        <time>2016-10-12T15:55:02Z</time>
      </trkpt>
      <trkpt lat="45.97553" lon="4.71717">
        <ele>198</ele>
        <time>2016-10-12T15:55:03Z</time>
      </trkpt>
      <trkpt lat="45.97548" lon="4.71718">
        <ele>198</ele>
        <time>2016-10-12T15:55:04Z</time>
      </trkpt>
      <trkpt lat="45.97543" lon="4.71716">
        <ele>198</ele>
        <time>2016-10-12T15:55:05Z</time>
      </trkpt>
      <trkpt lat="45.97538" lon="4.71714">
        <ele>198</ele>
        <time>2016-10-12T15:55:06Z</time>
      </trkpt>
      <trkpt lat="45.97532" lon="4.71715">
        <ele>198</ele>
        <time>2016-10-12T15:55:07Z</time>
      </trkpt>
      <trkpt lat="45.97526" lon="4.71716">
        <ele>198</ele>
        <time>2016-10-12T15:55:08Z</time>
      </trkpt>
      <trkpt lat="45.97519" lon="4.71717">
        <ele>198</ele>
        <time>2016-10-12T15:55:09Z</time>
      </trkpt>
      <trkpt lat="45.97514" lon="4.71717">
        <ele>198</ele>
        <time>2016-10-12T15:55:10Z</time>
      </trkpt>
      <trkpt lat="45.97508" lon="4.71715">
        <ele>198</ele>
        <time>2016-10-12T15:55:11Z</time>
      </trkpt>
      <trkpt lat="45.97503" lon="4.71715">
        <ele>198</ele>
        <time>2016-10-12T15:55:12Z</time>
      </trkpt>
      <trkpt lat="45.97498" lon="4.71714">
        <ele>198</ele>
        <time>2016-10-12T15:55:13Z</time>
      </trkpt>
      <trkpt lat="45.97492" lon="4.71714">
        <ele>198</ele>
        <time>2016-10-12T15:55:14Z</time>
      </trkpt>
      <trkpt lat="45.97486" lon="4.71715">
        <ele>198</ele>
        <time>2016-10-12T15:55:15Z</time>
      </trkpt>
      <trkpt lat="45.9748" lon="4.71715">
        <ele>197</ele>
        <time>2016-10-12T15:55:16Z</time>
      </trkpt>
      <trkpt lat="45.97475" lon="4.71716">
        <ele>197</ele>
        <time>2016-10-12T15:55:17Z</time>
      </trkpt>
      <trkpt lat="45.97468" lon="4.71715">
        <ele>197</ele>
        <time>2016-10-12T15:55:18Z</time>
      </trkpt>
      <trkpt lat="45.97462" lon="4.71714">
        <ele>197</ele>
        <time>2016-10-12T15:55:19Z</time>
      </trkpt>
      <trkpt lat="45.97456" lon="4.71713">
        <ele>197</ele>
        <time>2016-10-12T15:55:20Z</time>
      </trkpt>
      <trkpt lat="45.97449" lon="4.71713">
        <ele>197</ele>
        <time>2016-10-12T15:55:21Z</time>
      </trkpt>
      <trkpt lat="45.97442" lon="4.71712">
        <ele>197</ele>
        <time>2016-10-12T15:55:22Z</time>
      </trkpt>
      <trkpt lat="45.97435" lon="4.71711">
        <ele>197</ele>
        <time>2016-10-12T15:55:23Z</time>
      </trkpt>
      <trkpt lat="45.97429" lon="4.71711">
        <ele>196</ele>
        <time>2016-10-12T15:55:24Z</time>
      </trkpt>
      <trkpt lat="45.97422" lon="4.7171">
        <ele>196</ele>
        <time>2016-10-12T15:55:25Z</time>
      </trkpt>
      <trkpt lat="45.97416" lon="4.71709">
        <ele>195</ele>
        <time>2016-10-12T15:55:26Z</time>
      </trkpt>
      <trkpt lat="45.9741" lon="4.71709">
        <ele>195</ele>
        <time>2016-10-12T15:55:27Z</time>
      </trkpt>
      <trkpt lat="45.97403" lon="4.71709">
        <ele>195</ele>
        <time>2016-10-12T15:55:28Z</time>
      </trkpt>
      <trkpt lat="45.97397" lon="4.71708">
        <ele>195</ele>
        <time>2016-10-12T15:55:29Z</time>
      </trkpt>
      <trkpt lat="45.97391" lon="4.71708">
        <ele>195</ele>
        <time>2016-10-12T15:55:30Z</time>
      </trkpt>
      <trkpt lat="45.97383" lon="4.71708">
        <ele>195</ele>
        <time>2016-10-12T15:55:31Z</time>
      </trkpt>
      <trkpt lat="45.97377" lon="4.71708">
        <ele>195</ele>
        <time>2016-10-12T15:55:32Z</time>
      </trkpt>
      <trkpt lat="45.97371" lon="4.71708">
        <ele>195</ele>
        <time>2016-10-12T15:55:33Z</time>
      </trkpt>
      <trkpt lat="45.97364" lon="4.71708">
        <ele>195</ele>
        <time>2016-10-12T15:55:34Z</time>
      </trkpt>
      <trkpt lat="45.97358" lon="4.71708">
        <ele>195</ele>
        <time>2016-10-12T15:55:35Z</time>
      </trkpt>
      <trkpt lat="45.97351" lon="4.71707">
        <ele>195</ele>
        <time>2016-10-12T15:55:36Z</time>
      </trkpt>
      <trkpt lat="45.97344" lon="4.71706">
        <ele>195</ele>
        <time>2016-10-12T15:55:37Z</time>
      </trkpt>
      <trkpt lat="45.97338" lon="4.71705">
        <ele>195</ele>
        <time>2016-10-12T15:55:38Z</time>
      </trkpt>
      <trkpt lat="45.97332" lon="4.71704">
        <ele>196</ele>
        <time>2016-10-12T15:55:39Z</time>
      </trkpt>
      <trkpt lat="45.97326" lon="4.71703">
        <ele>196</ele>
        <time>2016-10-12T15:55:40Z</time>
      </trkpt>
      <trkpt lat="45.97321" lon="4.717">
        <ele>196</ele>
        <time>2016-10-12T15:55:41Z</time>
      </trkpt>
      <trkpt lat="45.97316" lon="4.71696">
        <ele>196</ele>
        <time>2016-10-12T15:55:42Z</time>
      </trkpt>
      <trkpt lat="45.97311" lon="4.71694">
        <ele>196</ele>
        <time>2016-10-12T15:55:43Z</time>
      </trkpt>
      <trkpt lat="45.97305" lon="4.71694">
        <ele>196</ele>
        <time>2016-10-12T15:55:44Z</time>
      </trkpt>
      <trkpt lat="45.97298" lon="4.71695">
        <ele>196</ele>
        <time>2016-10-12T15:55:45Z</time>
      </trkpt>
      <trkpt lat="45.97292" lon="4.71698">
        <ele>196</ele>
        <time>2016-10-12T15:55:46Z</time>
      </trkpt>
      <trkpt lat="45.97285" lon="4.71699">
        <ele>197</ele>
        <time>2016-10-12T15:55:47Z</time>
      </trkpt>
      <trkpt lat="45.97278" lon="4.717">
        <ele>197</ele>
        <time>2016-10-12T15:55:48Z</time>
      </trkpt>
      <trkpt lat="45.97272" lon="4.71699">
        <ele>197</ele>
        <time>2016-10-12T15:55:49Z</time>
      </trkpt>
      <trkpt lat="45.97265" lon="4.71698">
        <ele>197</ele>
        <time>2016-10-12T15:55:50Z</time>
      </trkpt>
      <trkpt lat="45.97258" lon="4.71696">
        <ele>197</ele>
        <time>2016-10-12T15:55:51Z</time>
      </trkpt>
      <trkpt lat="45.97251" lon="4.71695">
        <ele>197</ele>
        <time>2016-10-12T15:55:52Z</time>
      </trkpt>
      <trkpt lat="45.97244" lon="4.71694">
        <ele>197</ele>
        <time>2016-10-12T15:55:53Z</time>
      </trkpt>
      <trkpt lat="45.97237" lon="4.71694">
        <ele>197</ele>
        <time>2016-10-12T15:55:54Z</time>
      </trkpt>
      <trkpt lat="45.9723" lon="4.71693">
        <ele>197</ele>
        <time>2016-10-12T15:55:55Z</time>
      </trkpt>
      <trkpt lat="45.97223" lon="4.71693">
        <ele>197</ele>
        <time>2016-10-12T15:55:56Z</time>
      </trkpt>
      <trkpt lat="45.97216" lon="4.71692">
        <ele>197</ele>
        <time>2016-10-12T15:55:57Z</time>
      </trkpt>
      <trkpt lat="45.9721" lon="4.71692">
        <ele>197</ele>
        <time>2016-10-12T15:55:58Z</time>
      </trkpt>
      <trkpt lat="45.97203" lon="4.71692">
        <ele>197</ele>
        <time>2016-10-12T15:55:59Z</time>
      </trkpt>
      <trkpt lat="45.97196" lon="4.71692">
        <ele>197</ele>
        <time>2016-10-12T15:56:00Z</time>
      </trkpt>
      <trkpt lat="45.97189" lon="4.71692">
        <ele>197</ele>
        <time>2016-10-12T15:56:01Z</time>
      </trkpt>
      <trkpt lat="45.97184" lon="4.71691">
        <ele>197</ele>
        <time>2016-10-12T15:56:02Z</time>
      </trkpt>
      <trkpt lat="45.97177" lon="4.71692">
        <ele>197</ele>
        <time>2016-10-12T15:56:03Z</time>
      </trkpt>
      <trkpt lat="45.97171" lon="4.71691">
        <ele>197</ele>
        <time>2016-10-12T15:56:04Z</time>
      </trkpt>
      <trkpt lat="45.97164" lon="4.71691">
        <ele>196</ele>
        <time>2016-10-12T15:56:05Z</time>
      </trkpt>
      <trkpt lat="45.97157" lon="4.71691">
        <ele>195</ele>
        <time>2016-10-12T15:56:06Z</time>
      </trkpt>
      <trkpt lat="45.97149" lon="4.7169">
        <ele>195</ele>
        <time>2016-10-12T15:56:07Z</time>
      </trkpt>
      <trkpt lat="45.97142" lon="4.71691">
        <ele>195</ele>
        <time>2016-10-12T15:56:08Z</time>
      </trkpt>
      <trkpt lat="45.97134" lon="4.7169">
        <ele>195</ele>
        <time>2016-10-12T15:56:09Z</time>
      </trkpt>
      <trkpt lat="45.97127" lon="4.7169">
        <ele>195</ele>
        <time>2016-10-12T15:56:10Z</time>
      </trkpt>
      <trkpt lat="45.97119" lon="4.7169">
        <ele>194</ele>
        <time>2016-10-12T15:56:11Z</time>
      </trkpt>
      <trkpt lat="45.97112" lon="4.7169">
        <ele>194</ele>
        <time>2016-10-12T15:56:12Z</time>
      </trkpt>
      <trkpt lat="45.97105" lon="4.7169">
        <ele>194</ele>
        <time>2016-10-12T15:56:13Z</time>
      </trkpt>
      <trkpt lat="45.97098" lon="4.71689">
        <ele>194</ele>
        <time>2016-10-12T15:56:14Z</time>
      </trkpt>
      <trkpt lat="45.97091" lon="4.71688">
        <ele>194</ele>
        <time>2016-10-12T15:56:15Z</time>
      </trkpt>
      <trkpt lat="45.97085" lon="4.71687">
        <ele>194</ele>
        <time>2016-10-12T15:56:16Z</time>
      </trkpt>
      <trkpt lat="45.97078" lon="4.71685">
        <ele>193</ele>
        <time>2016-10-12T15:56:17Z</time>
      </trkpt>
      <trkpt lat="45.97072" lon="4.71683">
        <ele>193</ele>
        <time>2016-10-12T15:56:18Z</time>
      </trkpt>
      <trkpt lat="45.97066" lon="4.71682">
        <ele>193</ele>
        <time>2016-10-12T15:56:19Z</time>
      </trkpt>
      <trkpt lat="45.97059" lon="4.71681">
        <ele>193</ele>
        <time>2016-10-12T15:56:20Z</time>
      </trkpt>
      <trkpt lat="45.97052" lon="4.71679">
        <ele>193</ele>
        <time>2016-10-12T15:56:21Z</time>
      </trkpt>
      <trkpt lat="45.97045" lon="4.71678">
        <ele>193</ele>
        <time>2016-10-12T15:56:22Z</time>
      </trkpt>
      <trkpt lat="45.97038" lon="4.71678">
        <ele>193</ele>
        <time>2016-10-12T15:56:23Z</time>
      </trkpt>
      <trkpt lat="45.97032" lon="4.71677">
        <ele>193</ele>
        <time>2016-10-12T15:56:24Z</time>
      </trkpt>
      <trkpt lat="45.97025" lon="4.71677">
        <ele>193</ele>
        <time>2016-10-12T15:56:25Z</time>
      </trkpt>
      <trkpt lat="45.97018" lon="4.71677">
        <ele>193</ele>
        <time>2016-10-12T15:56:26Z</time>
      </trkpt>
      <trkpt lat="45.97011" lon="4.71676">
        <ele>193</ele>
        <time>2016-10-12T15:56:27Z</time>
      </trkpt>
      <trkpt lat="45.97004" lon="4.71676">
        <ele>193</ele>
        <time>2016-10-12T15:56:28Z</time>
      </trkpt>
      <trkpt lat="45.96996" lon="4.71676">
        <ele>193</ele>
        <time>2016-10-12T15:56:29Z</time>
      </trkpt>
      <trkpt lat="45.96989" lon="4.71676">
        <ele>193</ele>
        <time>2016-10-12T15:56:30Z</time>
      </trkpt>
      <trkpt lat="45.96981" lon="4.71676">
        <ele>192</ele>
        <time>2016-10-12T15:56:31Z</time>
      </trkpt>
      <trkpt lat="45.96973" lon="4.71675">
        <ele>192</ele>
        <time>2016-10-12T15:56:32Z</time>
      </trkpt>
      <trkpt lat="45.96965" lon="4.71675">
        <ele>192</ele>
        <time>2016-10-12T15:56:33Z</time>
      </trkpt>
      <trkpt lat="45.96958" lon="4.71674">
        <ele>192</ele>
        <time>2016-10-12T15:56:34Z</time>
      </trkpt>
      <trkpt lat="45.9695" lon="4.71673">
        <ele>192</ele>
        <time>2016-10-12T15:56:35Z</time>
      </trkpt>
      <trkpt lat="45.96943" lon="4.71673">
        <ele>192</ele>
        <time>2016-10-12T15:56:36Z</time>
      </trkpt>
      <trkpt lat="45.96936" lon="4.71672">
        <ele>193</ele>
        <time>2016-10-12T15:56:37Z</time>
      </trkpt>
      <trkpt lat="45.96928" lon="4.71672">
        <ele>193</ele>
        <time>2016-10-12T15:56:38Z</time>
      </trkpt>
      <trkpt lat="45.96921" lon="4.71672">
        <ele>194</ele>
        <time>2016-10-12T15:56:39Z</time>
      </trkpt>
      <trkpt lat="45.96915" lon="4.71671">
        <ele>194</ele>
        <time>2016-10-12T15:56:40Z</time>
      </trkpt>
      <trkpt lat="45.96908" lon="4.71671">
        <ele>193</ele>
        <time>2016-10-12T15:56:41Z</time>
      </trkpt>
      <trkpt lat="45.96901" lon="4.7167">
        <ele>192</ele>
        <time>2016-10-12T15:56:42Z</time>
      </trkpt>
      <trkpt lat="45.96894" lon="4.7167">
        <ele>191</ele>
        <time>2016-10-12T15:56:43Z</time>
      </trkpt>
      <trkpt lat="45.96887" lon="4.71669">
        <ele>191</ele>
        <time>2016-10-12T15:56:44Z</time>
      </trkpt>
      <trkpt lat="45.9688" lon="4.71668">
        <ele>191</ele>
        <time>2016-10-12T15:56:45Z</time>
      </trkpt>
      <trkpt lat="45.96872" lon="4.71666">
        <ele>195</ele>
        <time>2016-10-12T15:56:46Z</time>
      </trkpt>
      <trkpt lat="45.96865" lon="4.71666">
        <ele>195</ele>
        <time>2016-10-12T15:56:47Z</time>
      </trkpt>
      <trkpt lat="45.96857" lon="4.71665">
        <ele>194</ele>
        <time>2016-10-12T15:56:48Z</time>
      </trkpt>
      <trkpt lat="45.96847" lon="4.71664">
        <ele>194</ele>
        <time>2016-10-12T15:56:49Z</time>
      </trkpt>
      <trkpt lat="45.96839" lon="4.71663">
        <ele>193</ele>
        <time>2016-10-12T15:56:50Z</time>
      </trkpt>
      <trkpt lat="45.96832" lon="4.71661">
        <ele>192</ele>
        <time>2016-10-12T15:56:51Z</time>
      </trkpt>
      <trkpt lat="45.96826" lon="4.7166">
        <ele>192</ele>
        <time>2016-10-12T15:56:52Z</time>
      </trkpt>
      <trkpt lat="45.96819" lon="4.71659">
        <ele>193</ele>
        <time>2016-10-12T15:56:53Z</time>
      </trkpt>
      <trkpt lat="45.96812" lon="4.71658">
        <ele>193</ele>
        <time>2016-10-12T15:56:54Z</time>
      </trkpt>
      <trkpt lat="45.96805" lon="4.71657">
        <ele>193</ele>
        <time>2016-10-12T15:56:55Z</time>
      </trkpt>
      <trkpt lat="45.96798" lon="4.71655">
        <ele>193</ele>
        <time>2016-10-12T15:56:56Z</time>
      </trkpt>
      <trkpt lat="45.96791" lon="4.71654">
        <ele>192</ele>
        <time>2016-10-12T15:56:57Z</time>
      </trkpt>
      <trkpt lat="45.96784" lon="4.71654">
        <ele>192</ele>
        <time>2016-10-12T15:56:58Z</time>
      </trkpt>
      <trkpt lat="45.96777" lon="4.71653">
        <ele>192</ele>
        <time>2016-10-12T15:56:59Z</time>
      </trkpt>
      <trkpt lat="45.96769" lon="4.71652">
        <ele>192</ele>
        <time>2016-10-12T15:57:00Z</time>
      </trkpt>
      <trkpt lat="45.96762" lon="4.71652">
        <ele>191</ele>
        <time>2016-10-12T15:57:01Z</time>
      </trkpt>
      <trkpt lat="45.96754" lon="4.71651">
        <ele>191</ele>
        <time>2016-10-12T15:57:02Z</time>
      </trkpt>
      <trkpt lat="45.96746" lon="4.71649">
        <ele>190</ele>
        <time>2016-10-12T15:57:03Z</time>
      </trkpt>
      <trkpt lat="45.96739" lon="4.71647">
        <ele>190</ele>
        <time>2016-10-12T15:57:04Z</time>
      </trkpt>
      <trkpt lat="45.96731" lon="4.71646">
        <ele>190</ele>
        <time>2016-10-12T15:57:05Z</time>
      </trkpt>
      <trkpt lat="45.96724" lon="4.71645">
        <ele>190</ele>
        <time>2016-10-12T15:57:06Z</time>
      </trkpt>
      <trkpt lat="45.96716" lon="4.71644">
        <ele>190</ele>
        <time>2016-10-12T15:57:07Z</time>
      </trkpt>
      <trkpt lat="45.96709" lon="4.71643">
        <ele>190</ele>
        <time>2016-10-12T15:57:08Z</time>
      </trkpt>
      <trkpt lat="45.96702" lon="4.71641">
        <ele>190</ele>
        <time>2016-10-12T15:57:09Z</time>
      </trkpt>
      <trkpt lat="45.96695" lon="4.7164">
        <ele>190</ele>
        <time>2016-10-12T15:57:10Z</time>
      </trkpt>
      <trkpt lat="45.96688" lon="4.71638">
        <ele>190</ele>
        <time>2016-10-12T15:57:11Z</time>
      </trkpt>
      <trkpt lat="45.96681" lon="4.71637">
        <ele>190</ele>
        <time>2016-10-12T15:57:12Z</time>
      </trkpt>
      <trkpt lat="45.96673" lon="4.71637">
        <ele>190</ele>
        <time>2016-10-12T15:57:13Z</time>
      </trkpt>
      <trkpt lat="45.96665" lon="4.71636">
        <ele>188</ele>
        <time>2016-10-12T15:57:14Z</time>
      </trkpt>
      <trkpt lat="45.96659" lon="4.71635">
        <ele>188</ele>
        <time>2016-10-12T15:57:15Z</time>
      </trkpt>
      <trkpt lat="45.96651" lon="4.71634">
        <ele>188</ele>
        <time>2016-10-12T15:57:16Z</time>
      </trkpt>
      <trkpt lat="45.96644" lon="4.71632">
        <ele>188</ele>
        <time>2016-10-12T15:57:17Z</time>
      </trkpt>
      <trkpt lat="45.96636" lon="4.71631">
        <ele>188</ele>
        <time>2016-10-12T15:57:18Z</time>
      </trkpt>
      <trkpt lat="45.96629" lon="4.7163">
        <ele>188</ele>
        <time>2016-10-12T15:57:19Z</time>
      </trkpt>
      <trkpt lat="45.96622" lon="4.71628">
        <ele>188</ele>
        <time>2016-10-12T15:57:20Z</time>
      </trkpt>
      <trkpt lat="45.96614" lon="4.71627">
        <ele>187</ele>
        <time>2016-10-12T15:57:21Z</time>
      </trkpt>
      <trkpt lat="45.96607" lon="4.71626">
        <ele>187</ele>
        <time>2016-10-12T15:57:22Z</time>
      </trkpt>
      <trkpt lat="45.96599" lon="4.71625">
        <ele>187</ele>
        <time>2016-10-12T15:57:23Z</time>
      </trkpt>
      <trkpt lat="45.96592" lon="4.71624">
        <ele>187</ele>
        <time>2016-10-12T15:57:24Z</time>
      </trkpt>
      <trkpt lat="45.96585" lon="4.71623">
        <ele>187</ele>
        <time>2016-10-12T15:57:25Z</time>
      </trkpt>
      <trkpt lat="45.96578" lon="4.71622">
        <ele>185</ele>
        <time>2016-10-12T15:57:26Z</time>
      </trkpt>
      <trkpt lat="45.96571" lon="4.71621">
        <ele>185</ele>
        <time>2016-10-12T15:57:27Z</time>
      </trkpt>
      <trkpt lat="45.96564" lon="4.7162">
        <ele>185</ele>
        <time>2016-10-12T15:57:28Z</time>
      </trkpt>
      <trkpt lat="45.96558" lon="4.71619">
        <ele>185</ele>
        <time>2016-10-12T15:57:29Z</time>
      </trkpt>
      <trkpt lat="45.96552" lon="4.71617">
        <ele>185</ele>
        <time>2016-10-12T15:57:30Z</time>
      </trkpt>
      <trkpt lat="45.96546" lon="4.71614">
        <ele>185</ele>
        <time>2016-10-12T15:57:31Z</time>
      </trkpt>
      <trkpt lat="45.9654" lon="4.71609">
        <ele>185</ele>
        <time>2016-10-12T15:57:32Z</time>
      </trkpt>
      <trkpt lat="45.96534" lon="4.71606">
        <ele>185</ele>
        <time>2016-10-12T15:57:33Z</time>
      </trkpt>
      <trkpt lat="45.96528" lon="4.71603">
        <ele>185</ele>
        <time>2016-10-12T15:57:34Z</time>
      </trkpt>
      <trkpt lat="45.96522" lon="4.71602">
        <ele>185</ele>
        <time>2016-10-12T15:57:35Z</time>
      </trkpt>
      <trkpt lat="45.96515" lon="4.71605">
        <ele>184</ele>
        <time>2016-10-12T15:57:36Z</time>
      </trkpt>
      <trkpt lat="45.96508" lon="4.71608">
        <ele>184</ele>
        <time>2016-10-12T15:57:37Z</time>
      </trkpt>
      <trkpt lat="45.96501" lon="4.71609">
        <ele>184</ele>
        <time>2016-10-12T15:57:38Z</time>
      </trkpt>
      <trkpt lat="45.96494" lon="4.71609">
        <ele>183</ele>
        <time>2016-10-12T15:57:39Z</time>
      </trkpt>
      <trkpt lat="45.96487" lon="4.71607">
        <ele>183</ele>
        <time>2016-10-12T15:57:40Z</time>
      </trkpt>
      <trkpt lat="45.96481" lon="4.71606">
        <ele>183</ele>
        <time>2016-10-12T15:57:41Z</time>
      </trkpt>
      <trkpt lat="45.96474" lon="4.71605">
        <ele>183</ele>
        <time>2016-10-12T15:57:42Z</time>
      </trkpt>
      <trkpt lat="45.96467" lon="4.71605">
        <ele>183</ele>
        <time>2016-10-12T15:57:43Z</time>
      </trkpt>
      <trkpt lat="45.96461" lon="4.71604">
        <ele>183</ele>
        <time>2016-10-12T15:57:44Z</time>
      </trkpt>
      <trkpt lat="45.96455" lon="4.71603">
        <ele>183</ele>
        <time>2016-10-12T15:57:45Z</time>
      </trkpt>
      <trkpt lat="45.96448" lon="4.71601">
        <ele>183</ele>
        <time>2016-10-12T15:57:46Z</time>
      </trkpt>
      <trkpt lat="45.96442" lon="4.716">
        <ele>183</ele>
        <time>2016-10-12T15:57:47Z</time>
      </trkpt>
      <trkpt lat="45.96435" lon="4.71599">
        <ele>183</ele>
        <time>2016-10-12T15:57:48Z</time>
      </trkpt>
      <trkpt lat="45.96429" lon="4.71601">
        <ele>184</ele>
        <time>2016-10-12T15:57:49Z</time>
      </trkpt>
      <trkpt lat="45.96424" lon="4.71599">
        <ele>184</ele>
        <time>2016-10-12T15:57:50Z</time>
      </trkpt>
      <trkpt lat="45.96417" lon="4.71598">
        <ele>184</ele>
        <time>2016-10-12T15:57:51Z</time>
      </trkpt>
      <trkpt lat="45.9641" lon="4.71596">
        <ele>184</ele>
        <time>2016-10-12T15:57:52Z</time>
      </trkpt>
      <trkpt lat="45.96404" lon="4.71594">
        <ele>183</ele>
        <time>2016-10-12T15:57:53Z</time>
      </trkpt>
      <trkpt lat="45.96397" lon="4.71592">
        <ele>183</ele>
        <time>2016-10-12T15:57:54Z</time>
      </trkpt>
      <trkpt lat="45.96389" lon="4.71592">
        <ele>183</ele>
        <time>2016-10-12T15:57:55Z</time>
      </trkpt>
      <trkpt lat="45.96381" lon="4.7159">
        <ele>182</ele>
        <time>2016-10-12T15:57:56Z</time>
      </trkpt>
      <trkpt lat="45.96373" lon="4.7159">
        <ele>182</ele>
        <time>2016-10-12T15:57:57Z</time>
      </trkpt>
      <trkpt lat="45.96366" lon="4.71589">
        <ele>182</ele>
        <time>2016-10-12T15:57:58Z</time>
      </trkpt>
      <trkpt lat="45.9636" lon="4.71587">
        <ele>182</ele>
        <time>2016-10-12T15:57:59Z</time>
      </trkpt>
      <trkpt lat="45.96353" lon="4.71585">
        <ele>182</ele>
        <time>2016-10-12T15:58:00Z</time>
      </trkpt>
      <trkpt lat="45.96347" lon="4.71584">
        <ele>182</ele>
        <time>2016-10-12T15:58:01Z</time>
      </trkpt>
      <trkpt lat="45.9634" lon="4.71583">
        <ele>184</ele>
        <time>2016-10-12T15:58:02Z</time>
      </trkpt>
      <trkpt lat="45.96333" lon="4.71582">
        <ele>183</ele>
        <time>2016-10-12T15:58:03Z</time>
      </trkpt>
      <trkpt lat="45.96327" lon="4.71581">
        <ele>183</ele>
        <time>2016-10-12T15:58:04Z</time>
      </trkpt>
      <trkpt lat="45.96321" lon="4.7158">
        <ele>184</ele>
        <time>2016-10-12T15:58:05Z</time>
      </trkpt>
      <trkpt lat="45.96315" lon="4.71579">
        <ele>184</ele>
        <time>2016-10-12T15:58:06Z</time>
      </trkpt>
      <trkpt lat="45.96309" lon="4.71578">
        <ele>184</ele>
        <time>2016-10-12T15:58:07Z</time>
      </trkpt>
      <trkpt lat="45.96302" lon="4.71577">
        <ele>184</ele>
        <time>2016-10-12T15:58:08Z</time>
      </trkpt>
      <trkpt lat="45.96296" lon="4.71576">
        <ele>184</ele>
        <time>2016-10-12T15:58:09Z</time>
      </trkpt>
      <trkpt lat="45.9629" lon="4.71575">
        <ele>184</ele>
        <time>2016-10-12T15:58:10Z</time>
      </trkpt>
      <trkpt lat="45.96284" lon="4.71574">
        <ele>184</ele>
        <time>2016-10-12T15:58:11Z</time>
      </trkpt>
      <trkpt lat="45.96278" lon="4.71574">
        <ele>184</ele>
        <time>2016-10-12T15:58:12Z</time>
      </trkpt>
      <trkpt lat="45.96271" lon="4.71573">
        <ele>184</ele>
        <time>2016-10-12T15:58:13Z</time>
      </trkpt>
      <trkpt lat="45.96265" lon="4.71572">
        <ele>183</ele>
        <time>2016-10-12T15:58:14Z</time>
      </trkpt>
      <trkpt lat="45.96259" lon="4.7157">
        <ele>183</ele>
        <time>2016-10-12T15:58:15Z</time>
      </trkpt>
      <trkpt lat="45.96253" lon="4.71569">
        <ele>183</ele>
        <time>2016-10-12T15:58:16Z</time>
      </trkpt>
      <trkpt lat="45.96246" lon="4.71568">
        <ele>183</ele>
        <time>2016-10-12T15:58:17Z</time>
      </trkpt>
      <trkpt lat="45.96239" lon="4.71567">
        <ele>183</ele>
        <time>2016-10-12T15:58:18Z</time>
      </trkpt>
      <trkpt lat="45.96232" lon="4.71566">
        <ele>183</ele>
        <time>2016-10-12T15:58:19Z</time>
      </trkpt>
      <trkpt lat="45.96225" lon="4.71565">
        <ele>183</ele>
        <time>2016-10-12T15:58:20Z</time>
      </trkpt>
      <trkpt lat="45.96219" lon="4.71564">
        <ele>183</ele>
        <time>2016-10-12T15:58:21Z</time>
      </trkpt>
      <trkpt lat="45.96212" lon="4.71563">
        <ele>183</ele>
        <time>2016-10-12T15:58:22Z</time>
      </trkpt>
      <trkpt lat="45.96206" lon="4.71562">
        <ele>183</ele>
        <time>2016-10-12T15:58:23Z</time>
      </trkpt>
      <trkpt lat="45.962" lon="4.71561">
        <ele>183</ele>
        <time>2016-10-12T15:58:24Z</time>
      </trkpt>
      <trkpt lat="45.96194" lon="4.7156">
        <ele>183</ele>
        <time>2016-10-12T15:58:25Z</time>
      </trkpt>
      <trkpt lat="45.96188" lon="4.71559">
        <ele>183</ele>
        <time>2016-10-12T15:58:26Z</time>
      </trkpt>
      <trkpt lat="45.96182" lon="4.71558">
        <ele>183</ele>
        <time>2016-10-12T15:58:27Z</time>
      </trkpt>
      <trkpt lat="45.96176" lon="4.71557">
        <ele>183</ele>
        <time>2016-10-12T15:58:28Z</time>
      </trkpt>
      <trkpt lat="45.9617" lon="4.71556">
        <ele>183</ele>
        <time>2016-10-12T15:58:29Z</time>
      </trkpt>
      <trkpt lat="45.96164" lon="4.71554">
        <ele>184</ele>
        <time>2016-10-12T15:58:30Z</time>
      </trkpt>
      <trkpt lat="45.96158" lon="4.71553">
        <ele>184</ele>
        <time>2016-10-12T15:58:31Z</time>
      </trkpt>
      <trkpt lat="45.96152" lon="4.71552">
        <ele>184</ele>
        <time>2016-10-12T15:58:32Z</time>
      </trkpt>
      <trkpt lat="45.96146" lon="4.71551">
        <ele>184</ele>
        <time>2016-10-12T15:58:33Z</time>
      </trkpt>
      <trkpt lat="45.96139" lon="4.7155">
        <ele>184</ele>
        <time>2016-10-12T15:58:34Z</time>
      </trkpt>
      <trkpt lat="45.96133" lon="4.71549">
        <ele>184</ele>
        <time>2016-10-12T15:58:35Z</time>
      </trkpt>
      <trkpt lat="45.96127" lon="4.71548">
        <ele>184</ele>
        <time>2016-10-12T15:58:36Z</time>
      </trkpt>
      <trkpt lat="45.96121" lon="4.71547">
        <ele>185</ele>
        <time>2016-10-12T15:58:37Z</time>
      </trkpt>
      <trkpt lat="45.96115" lon="4.71546">
        <ele>185</ele>
        <time>2016-10-12T15:58:38Z</time>
      </trkpt>
      <trkpt lat="45.96109" lon="4.71544">
        <ele>185</ele>
        <time>2016-10-12T15:58:39Z</time>
      </trkpt>
      <trkpt lat="45.96103" lon="4.71543">
        <ele>185</ele>
        <time>2016-10-12T15:58:40Z</time>
      </trkpt>
      <trkpt lat="45.96097" lon="4.71542">
        <ele>185</ele>
        <time>2016-10-12T15:58:41Z</time>
      </trkpt>
      <trkpt lat="45.9609" lon="4.71541">
        <ele>185</ele>
        <time>2016-10-12T15:58:42Z</time>
      </trkpt>
      <trkpt lat="45.96084" lon="4.7154">
        <ele>185</ele>
        <time>2016-10-12T15:58:43Z</time>
      </trkpt>
      <trkpt lat="45.96077" lon="4.71539">
        <ele>185</ele>
        <time>2016-10-12T15:58:44Z</time>
      </trkpt>
      <trkpt lat="45.96072" lon="4.71537">
        <ele>186</ele>
        <time>2016-10-12T15:58:45Z</time>
      </trkpt>
      <trkpt lat="45.96066" lon="4.71536">
        <ele>186</ele>
        <time>2016-10-12T15:58:46Z</time>
      </trkpt>
      <trkpt lat="45.9606" lon="4.71535">
        <ele>186</ele>
        <time>2016-10-12T15:58:47Z</time>
      </trkpt>
      <trkpt lat="45.96054" lon="4.71534">
        <ele>186</ele>
        <time>2016-10-12T15:58:48Z</time>
      </trkpt>
      <trkpt lat="45.96048" lon="4.71532">
        <ele>186</ele>
        <time>2016-10-12T15:58:49Z</time>
      </trkpt>
      <trkpt lat="45.96041" lon="4.71531">
        <ele>186</ele>
        <time>2016-10-12T15:58:50Z</time>
      </trkpt>
      <trkpt lat="45.96035" lon="4.7153">
        <ele>186</ele>
        <time>2016-10-12T15:58:51Z</time>
      </trkpt>
      <trkpt lat="45.9603" lon="4.71529">
        <ele>186</ele>
        <time>2016-10-12T15:58:52Z</time>
      </trkpt>
      <trkpt lat="45.96024" lon="4.71528">
        <ele>186</ele>
        <time>2016-10-12T15:58:53Z</time>
      </trkpt>
      <trkpt lat="45.96019" lon="4.71526">
        <ele>186</ele>
        <time>2016-10-12T15:58:54Z</time>
      </trkpt>
      <trkpt lat="45.96014" lon="4.71525">
        <ele>186</ele>
        <time>2016-10-12T15:58:55Z</time>
      </trkpt>
      <trkpt lat="45.96009" lon="4.71523">
        <ele>186</ele>
        <time>2016-10-12T15:58:56Z</time>
      </trkpt>
      <trkpt lat="45.96003" lon="4.71521">
        <ele>186</ele>
        <time>2016-10-12T15:58:57Z</time>
      </trkpt>
      <trkpt lat="45.95998" lon="4.71519">
        <ele>186</ele>
        <time>2016-10-12T15:58:58Z</time>
      </trkpt>
      <trkpt lat="45.95993" lon="4.71516">
        <ele>186</ele>
        <time>2016-10-12T15:58:59Z</time>
      </trkpt>
      <trkpt lat="45.95988" lon="4.71514">
        <ele>186</ele>
        <time>2016-10-12T15:59:00Z</time>
      </trkpt>
      <trkpt lat="45.95981" lon="4.71514">
        <ele>185</ele>
        <time>2016-10-12T15:59:01Z</time>
      </trkpt>
      <trkpt lat="45.95976" lon="4.71515">
        <ele>185</ele>
        <time>2016-10-12T15:59:02Z</time>
      </trkpt>
      <trkpt lat="45.95971" lon="4.71518">
        <ele>185</ele>
        <time>2016-10-12T15:59:03Z</time>
      </trkpt>
      <trkpt lat="45.95965" lon="4.7152">
        <ele>184</ele>
        <time>2016-10-12T15:59:04Z</time>
      </trkpt>
      <trkpt lat="45.95959" lon="4.71522">
        <ele>184</ele>
        <time>2016-10-12T15:59:05Z</time>
      </trkpt>
      <trkpt lat="45.95952" lon="4.71523">
        <ele>184</ele>
        <time>2016-10-12T15:59:06Z</time>
      </trkpt>
      <trkpt lat="45.95946" lon="4.71523">
        <ele>184</ele>
        <time>2016-10-12T15:59:07Z</time>
      </trkpt>
      <trkpt lat="45.95939" lon="4.71522">
        <ele>184</ele>
        <time>2016-10-12T15:59:08Z</time>
      </trkpt>
      <trkpt lat="45.95932" lon="4.71522">
        <ele>184</ele>
        <time>2016-10-12T15:59:09Z</time>
      </trkpt>
      <trkpt lat="45.95925" lon="4.71522">
        <ele>184</ele>
        <time>2016-10-12T15:59:10Z</time>
      </trkpt>
      <trkpt lat="45.95917" lon="4.71522">
        <ele>184</ele>
        <time>2016-10-12T15:59:11Z</time>
      </trkpt>
      <trkpt lat="45.9591" lon="4.71522">
        <ele>183</ele>
        <time>2016-10-12T15:59:12Z</time>
      </trkpt>
      <trkpt lat="45.95903" lon="4.71522">
        <ele>182</ele>
        <time>2016-10-12T15:59:13Z</time>
      </trkpt>
      <trkpt lat="45.95896" lon="4.71522">
        <ele>182</ele>
        <time>2016-10-12T15:59:14Z</time>
      </trkpt>
      <trkpt lat="45.95889" lon="4.71522">
        <ele>182</ele>
        <time>2016-10-12T15:59:15Z</time>
      </trkpt>
      <trkpt lat="45.95882" lon="4.71521">
        <ele>182</ele>
        <time>2016-10-12T15:59:16Z</time>
      </trkpt>
      <trkpt lat="45.95875" lon="4.71521">
        <ele>182</ele>
        <time>2016-10-12T15:59:17Z</time>
      </trkpt>
      <trkpt lat="45.95868" lon="4.71521">
        <ele>182</ele>
        <time>2016-10-12T15:59:18Z</time>
      </trkpt>
      <trkpt lat="45.95861" lon="4.71521">
        <ele>182</ele>
        <time>2016-10-12T15:59:19Z</time>
      </trkpt>
      <trkpt lat="45.95853" lon="4.71521">
        <ele>182</ele>
        <time>2016-10-12T15:59:20Z</time>
      </trkpt>
      <trkpt lat="45.95846" lon="4.7152">
        <ele>182</ele>
        <time>2016-10-12T15:59:21Z</time>
      </trkpt>
      <trkpt lat="45.95839" lon="4.7152">
        <ele>182</ele>
        <time>2016-10-12T15:59:22Z</time>
      </trkpt>
      <trkpt lat="45.95831" lon="4.71519">
        <ele>182</ele>
        <time>2016-10-12T15:59:23Z</time>
      </trkpt>
      <trkpt lat="45.95824" lon="4.71519">
        <ele>182</ele>
        <time>2016-10-12T15:59:24Z</time>
      </trkpt>
      <trkpt lat="45.95816" lon="4.71518">
        <ele>182</ele>
        <time>2016-10-12T15:59:25Z</time>
      </trkpt>
      <trkpt lat="45.95809" lon="4.71517">
        <ele>181</ele>
        <time>2016-10-12T15:59:26Z</time>
      </trkpt>
      <trkpt lat="45.95801" lon="4.71517">
        <ele>181</ele>
        <time>2016-10-12T15:59:27Z</time>
      </trkpt>
      <trkpt lat="45.95794" lon="4.71517">
        <ele>181</ele>
        <time>2016-10-12T15:59:28Z</time>
      </trkpt>
      <trkpt lat="45.95786" lon="4.71516">
        <ele>181</ele>
        <time>2016-10-12T15:59:29Z</time>
      </trkpt>
      <trkpt lat="45.95779" lon="4.71516">
        <ele>181</ele>
        <time>2016-10-12T15:59:30Z</time>
      </trkpt>
      <trkpt lat="45.95771" lon="4.71516">
        <ele>181</ele>
        <time>2016-10-12T15:59:31Z</time>
      </trkpt>
      <trkpt lat="45.95763" lon="4.71516">
        <ele>181</ele>
        <time>2016-10-12T15:59:32Z</time>
      </trkpt>
      <trkpt lat="45.95757" lon="4.71514">
        <ele>181</ele>
        <time>2016-10-12T15:59:33Z</time>
      </trkpt>
      <trkpt lat="45.95749" lon="4.71514">
        <ele>181</ele>
        <time>2016-10-12T15:59:34Z</time>
      </trkpt>
      <trkpt lat="45.95742" lon="4.71514">
        <ele>181</ele>
        <time>2016-10-12T15:59:35Z</time>
      </trkpt>
      <trkpt lat="45.95735" lon="4.71513">
        <ele>181</ele>
        <time>2016-10-12T15:59:36Z</time>
      </trkpt>
      <trkpt lat="45.95728" lon="4.71512">
        <ele>180</ele>
        <time>2016-10-12T15:59:37Z</time>
      </trkpt>
      <trkpt lat="45.95721" lon="4.71512">
        <ele>180</ele>
        <time>2016-10-12T15:59:38Z</time>
      </trkpt>
      <trkpt lat="45.95714" lon="4.71511">
        <ele>180</ele>
        <time>2016-10-12T15:59:39Z</time>
      </trkpt>
      <trkpt lat="45.95707" lon="4.71511">
        <ele>180</ele>
        <time>2016-10-12T15:59:40Z</time>
      </trkpt>
      <trkpt lat="45.95699" lon="4.7151">
        <ele>180</ele>
        <time>2016-10-12T15:59:41Z</time>
      </trkpt>
      <trkpt lat="45.95692" lon="4.7151">
        <ele>180</ele>
        <time>2016-10-12T15:59:42Z</time>
      </trkpt>
      <trkpt lat="45.95685" lon="4.7151">
        <ele>181</ele>
        <time>2016-10-12T15:59:43Z</time>
      </trkpt>
      <trkpt lat="45.95677" lon="4.71509">
        <ele>181</ele>
        <time>2016-10-12T15:59:44Z</time>
      </trkpt>
      <trkpt lat="45.9567" lon="4.71509">
        <ele>181</ele>
        <time>2016-10-12T15:59:45Z</time>
      </trkpt>
      <trkpt lat="45.95662" lon="4.71508">
        <ele>181</ele>
        <time>2016-10-12T15:59:46Z</time>
      </trkpt>
      <trkpt lat="45.95654" lon="4.71508">
        <ele>181</ele>
        <time>2016-10-12T15:59:47Z</time>
      </trkpt>
      <trkpt lat="45.95647" lon="4.71507">
        <ele>180</ele>
        <time>2016-10-12T15:59:48Z</time>
      </trkpt>
      <trkpt lat="45.95639" lon="4.71506">
        <ele>180</ele>
        <time>2016-10-12T15:59:49Z</time>
      </trkpt>
      <trkpt lat="45.95631" lon="4.71506">
        <ele>180</ele>
        <time>2016-10-12T15:59:50Z</time>
      </trkpt>
      <trkpt lat="45.95623" lon="4.71505">
        <ele>180</ele>
        <time>2016-10-12T15:59:51Z</time>
      </trkpt>
      <trkpt lat="45.95615" lon="4.71505">
        <ele>179</ele>
        <time>2016-10-12T15:59:52Z</time>
      </trkpt>
      <trkpt lat="45.95608" lon="4.71504">
        <ele>179</ele>
        <time>2016-10-12T15:59:53Z</time>
      </trkpt>
      <trkpt lat="45.956" lon="4.71504">
        <ele>179</ele>
        <time>2016-10-12T15:59:54Z</time>
      </trkpt>
      <trkpt lat="45.95592" lon="4.71503">
        <ele>180</ele>
        <time>2016-10-12T15:59:55Z</time>
      </trkpt>
      <trkpt lat="45.95585" lon="4.71502">
        <ele>180</ele>
        <time>2016-10-12T15:59:56Z</time>
      </trkpt>
      <trkpt lat="45.95577" lon="4.71501">
        <ele>179</ele>
        <time>2016-10-12T15:59:57Z</time>
      </trkpt>
      <trkpt lat="45.95569" lon="4.715">
        <ele>179</ele>
        <time>2016-10-12T15:59:58Z</time>
      </trkpt>
      <trkpt lat="45.95562" lon="4.715">
        <ele>179</ele>
        <time>2016-10-12T15:59:59Z</time>
      </trkpt>
      <trkpt lat="45.95554" lon="4.715">
        <ele>179</ele>
        <time>2016-10-12T16:00:00Z</time>
      </trkpt>
      <trkpt lat="45.95546" lon="4.71499">
        <ele>179</ele>
        <time>2016-10-12T16:00:01Z</time>
      </trkpt>
      <trkpt lat="45.95537" lon="4.71499">
        <ele>179</ele>
        <time>2016-10-12T16:00:02Z</time>
      </trkpt>
      <trkpt lat="45.9553" lon="4.71498">
        <ele>178</ele>
        <time>2016-10-12T16:00:03Z</time>
      </trkpt>
      <trkpt lat="45.95522" lon="4.71497">
        <ele>178</ele>
        <time>2016-10-12T16:00:04Z</time>
      </trkpt>
      <trkpt lat="45.95514" lon="4.71497">
        <ele>178</ele>
        <time>2016-10-12T16:00:05Z</time>
      </trkpt>
      <trkpt lat="45.95506" lon="4.71497">
        <ele>177</ele>
        <time>2016-10-12T16:00:06Z</time>
      </trkpt>
      <trkpt lat="45.95498" lon="4.71496">
        <ele>177</ele>
        <time>2016-10-12T16:00:07Z</time>
      </trkpt>
      <trkpt lat="45.95491" lon="4.71496">
        <ele>177</ele>
        <time>2016-10-12T16:00:08Z</time>
      </trkpt>
      <trkpt lat="45.95483" lon="4.71495">
        <ele>177</ele>
        <time>2016-10-12T16:00:09Z</time>
      </trkpt>
      <trkpt lat="45.95475" lon="4.71495">
        <ele>176</ele>
        <time>2016-10-12T16:00:10Z</time>
      </trkpt>
      <trkpt lat="45.95468" lon="4.71494">
        <ele>176</ele>
        <time>2016-10-12T16:00:11Z</time>
      </trkpt>
      <trkpt lat="45.9546" lon="4.71494">
        <ele>176</ele>
        <time>2016-10-12T16:00:12Z</time>
      </trkpt>
      <trkpt lat="45.95452" lon="4.71494">
        <ele>176</ele>
        <time>2016-10-12T16:00:13Z</time>
      </trkpt>
      <trkpt lat="45.95445" lon="4.71494">
        <ele>176</ele>
        <time>2016-10-12T16:00:14Z</time>
      </trkpt>
      <trkpt lat="45.95438" lon="4.71494">
        <ele>175</ele>
        <time>2016-10-12T16:00:15Z</time>
      </trkpt>
      <trkpt lat="45.95431" lon="4.71493">
        <ele>175</ele>
        <time>2016-10-12T16:00:16Z</time>
      </trkpt>
      <trkpt lat="45.95424" lon="4.71492">
        <ele>175</ele>
        <time>2016-10-12T16:00:17Z</time>
      </trkpt>
      <trkpt lat="45.95415" lon="4.71492">
        <ele>174</ele>
        <time>2016-10-12T16:00:18Z</time>
      </trkpt>
      <trkpt lat="45.95408" lon="4.71491">
        <ele>175</ele>
        <time>2016-10-12T16:00:19Z</time>
      </trkpt>
      <trkpt lat="45.954" lon="4.7149">
        <ele>175</ele>
        <time>2016-10-12T16:00:20Z</time>
      </trkpt>
      <trkpt lat="45.95393" lon="4.71489">
        <ele>175</ele>
        <time>2016-10-12T16:00:21Z</time>
      </trkpt>
      <trkpt lat="45.95384" lon="4.71488">
        <ele>175</ele>
        <time>2016-10-12T16:00:22Z</time>
      </trkpt>
      <trkpt lat="45.95375" lon="4.71488">
        <ele>175</ele>
        <time>2016-10-12T16:00:23Z</time>
      </trkpt>
      <trkpt lat="45.95366" lon="4.71486">
        <ele>175</ele>
        <time>2016-10-12T16:00:24Z</time>
      </trkpt>
      <trkpt lat="45.9536" lon="4.71483">
        <ele>175</ele>
        <time>2016-10-12T16:00:25Z</time>
      </trkpt>
      <trkpt lat="45.95353" lon="4.71482">
        <ele>175</ele>
        <time>2016-10-12T16:00:26Z</time>
      </trkpt>
      <trkpt lat="45.95346" lon="4.71481">
        <ele>175</ele>
        <time>2016-10-12T16:00:27Z</time>
      </trkpt>
      <trkpt lat="45.95339" lon="4.71481">
        <ele>175</ele>
        <time>2016-10-12T16:00:28Z</time>
      </trkpt>
      <trkpt lat="45.95331" lon="4.71481">
        <ele>175</ele>
        <time>2016-10-12T16:00:29Z</time>
      </trkpt>
      <trkpt lat="45.95323" lon="4.71481">
        <ele>175</ele>
        <time>2016-10-12T16:00:30Z</time>
      </trkpt>
      <trkpt lat="45.95316" lon="4.71481">
        <ele>175</ele>
        <time>2016-10-12T16:00:31Z</time>
      </trkpt>
      <trkpt lat="45.95309" lon="4.71481">
        <ele>175</ele>
        <time>2016-10-12T16:00:32Z</time>
      </trkpt>
      <trkpt lat="45.95301" lon="4.71481">
        <ele>176</ele>
        <time>2016-10-12T16:00:33Z</time>
      </trkpt>
      <trkpt lat="45.95294" lon="4.71481">
        <ele>176</ele>
        <time>2016-10-12T16:00:34Z</time>
      </trkpt>
      <trkpt lat="45.95286" lon="4.71481">
        <ele>176</ele>
        <time>2016-10-12T16:00:35Z</time>
      </trkpt>
      <trkpt lat="45.95279" lon="4.71481">
        <ele>176</ele>
        <time>2016-10-12T16:00:36Z</time>
      </trkpt>
      <trkpt lat="45.95272" lon="4.71481">
        <ele>176</ele>
        <time>2016-10-12T16:00:37Z</time>
      </trkpt>
      <trkpt lat="45.95265" lon="4.71481">
        <ele>176</ele>
        <time>2016-10-12T16:00:38Z</time>
      </trkpt>
      <trkpt lat="45.95258" lon="4.71481">
        <ele>176</ele>
        <time>2016-10-12T16:00:39Z</time>
      </trkpt>
      <trkpt lat="45.95252" lon="4.7148">
        <ele>176</ele>
        <time>2016-10-12T16:00:40Z</time>
      </trkpt>
      <trkpt lat="45.95245" lon="4.71478">
        <ele>177</ele>
        <time>2016-10-12T16:00:41Z</time>
      </trkpt>
      <trkpt lat="45.95239" lon="4.71477">
        <ele>177</ele>
        <time>2016-10-12T16:00:42Z</time>
      </trkpt>
      <trkpt lat="45.95232" lon="4.71475">
        <ele>177</ele>
        <time>2016-10-12T16:00:43Z</time>
      </trkpt>
      <trkpt lat="45.95226" lon="4.71475">
        <ele>177</ele>
        <time>2016-10-12T16:00:44Z</time>
      </trkpt>
      <trkpt lat="45.9522" lon="4.71474">
        <ele>177</ele>
        <time>2016-10-12T16:00:45Z</time>
      </trkpt>
      <trkpt lat="45.95214" lon="4.71474">
        <ele>177</ele>
        <time>2016-10-12T16:00:46Z</time>
      </trkpt>
      <trkpt lat="45.95208" lon="4.71474">
        <ele>177</ele>
        <time>2016-10-12T16:00:47Z</time>
      </trkpt>
      <trkpt lat="45.95202" lon="4.71473">
        <ele>177</ele>
        <time>2016-10-12T16:00:48Z</time>
      </trkpt>
      <trkpt lat="45.95196" lon="4.71473">
        <ele>177</ele>
        <time>2016-10-12T16:00:49Z</time>
      </trkpt>
      <trkpt lat="45.9519" lon="4.71472">
        <ele>177</ele>
        <time>2016-10-12T16:00:50Z</time>
      </trkpt>
      <trkpt lat="45.95183" lon="4.71472">
        <ele>177</ele>
        <time>2016-10-12T16:00:51Z</time>
      </trkpt>
      <trkpt lat="45.95177" lon="4.71472">
        <ele>177</ele>
        <time>2016-10-12T16:00:52Z</time>
      </trkpt>
      <trkpt lat="45.95171" lon="4.7147">
        <ele>177</ele>
        <time>2016-10-12T16:00:53Z</time>
      </trkpt>
      <trkpt lat="45.95165" lon="4.7147">
        <ele>178</ele>
        <time>2016-10-12T16:00:54Z</time>
      </trkpt>
      <trkpt lat="45.95159" lon="4.7147">
        <ele>178</ele>
        <time>2016-10-12T16:00:55Z</time>
      </trkpt>
      <trkpt lat="45.95153" lon="4.71471">
        <ele>178</ele>
        <time>2016-10-12T16:00:56Z</time>
      </trkpt>
      <trkpt lat="45.95148" lon="4.7147">
        <ele>178</ele>
        <time>2016-10-12T16:00:57Z</time>
      </trkpt>
      <trkpt lat="45.95142" lon="4.71469">
        <ele>178</ele>
        <time>2016-10-12T16:00:58Z</time>
      </trkpt>
      <trkpt lat="45.95137" lon="4.7147">
        <ele>178</ele>
        <time>2016-10-12T16:00:59Z</time>
      </trkpt>
      <trkpt lat="45.95132" lon="4.7147">
        <ele>178</ele>
        <time>2016-10-12T16:01:00Z</time>
      </trkpt>
      <trkpt lat="45.95127" lon="4.7147">
        <ele>178</ele>
        <time>2016-10-12T16:01:01Z</time>
      </trkpt>
      <trkpt lat="45.95122" lon="4.7147">
        <ele>178</ele>
        <time>2016-10-12T16:01:02Z</time>
      </trkpt>
      <trkpt lat="45.95116" lon="4.71469">
        <ele>179</ele>
        <time>2016-10-12T16:01:03Z</time>
      </trkpt>
      <trkpt lat="45.95111" lon="4.71469">
        <ele>179</ele>
        <time>2016-10-12T16:01:04Z</time>
      </trkpt>
      <trkpt lat="45.95106" lon="4.71469">
        <ele>179</ele>
        <time>2016-10-12T16:01:05Z</time>
      </trkpt>
      <trkpt lat="45.95101" lon="4.71469">
        <ele>179</ele>
        <time>2016-10-12T16:01:06Z</time>
      </trkpt>
      <trkpt lat="45.95096" lon="4.71469">
        <ele>179</ele>
        <time>2016-10-12T16:01:07Z</time>
      </trkpt>
      <trkpt lat="45.95091" lon="4.71469">
        <ele>179</ele>
        <time>2016-10-12T16:01:08Z</time>
      </trkpt>
      <trkpt lat="45.95087" lon="4.71468">
        <ele>179</ele>
        <time>2016-10-12T16:01:09Z</time>
      </trkpt>
      <trkpt lat="45.95081" lon="4.71467">
        <ele>181</ele>
        <time>2016-10-12T16:01:10Z</time>
      </trkpt>
      <trkpt lat="45.95076" lon="4.71466">
        <ele>181</ele>
        <time>2016-10-12T16:01:11Z</time>
      </trkpt>
      <trkpt lat="45.95071" lon="4.71466">
        <ele>181</ele>
        <time>2016-10-12T16:01:12Z</time>
      </trkpt>
      <trkpt lat="45.95066" lon="4.71466">
        <ele>181</ele>
        <time>2016-10-12T16:01:13Z</time>
      </trkpt>
      <trkpt lat="45.95061" lon="4.71467">
        <ele>181</ele>
        <time>2016-10-12T16:01:14Z</time>
      </trkpt>
      <trkpt lat="45.95056" lon="4.71467">
        <ele>181</ele>
        <time>2016-10-12T16:01:15Z</time>
      </trkpt>
      <trkpt lat="45.95047" lon="4.71467">
        <ele>181</ele>
        <time>2016-10-12T16:01:17Z</time>
      </trkpt>
      <trkpt lat="45.95043" lon="4.71466">
        <ele>182</ele>
        <time>2016-10-12T16:01:18Z</time>
      </trkpt>
      <trkpt lat="45.95035" lon="4.71466">
        <ele>182</ele>
        <time>2016-10-12T16:01:20Z</time>
      </trkpt>
      <trkpt lat="45.9503" lon="4.71467">
        <ele>182</ele>
        <time>2016-10-12T16:01:21Z</time>
      </trkpt>
      <trkpt lat="45.95023" lon="4.71467">
        <ele>182</ele>
        <time>2016-10-12T16:01:23Z</time>
      </trkpt>
      <trkpt lat="45.95019" lon="4.71467">
        <ele>182</ele>
        <time>2016-10-12T16:01:24Z</time>
      </trkpt>
      <trkpt lat="45.95014" lon="4.71466">
        <ele>182</ele>
        <time>2016-10-12T16:01:25Z</time>
      </trkpt>
      <trkpt lat="45.9501" lon="4.71465">
        <ele>182</ele>
        <time>2016-10-12T16:01:26Z</time>
      </trkpt>
      <trkpt lat="45.95002" lon="4.71464">
        <ele>182</ele>
        <time>2016-10-12T16:01:28Z</time>
      </trkpt>
      <trkpt lat="45.94999" lon="4.71461">
        <ele>183</ele>
        <time>2016-10-12T16:01:29Z</time>
      </trkpt>
      <trkpt lat="45.94996" lon="4.71457">
        <ele>184</ele>
        <time>2016-10-12T16:01:30Z</time>
      </trkpt>
      <trkpt lat="45.94993" lon="4.71452">
        <ele>184</ele>
        <time>2016-10-12T16:01:31Z</time>
      </trkpt>
      <trkpt lat="45.9499" lon="4.71446">
        <ele>184</ele>
        <time>2016-10-12T16:01:32Z</time>
      </trkpt>
      <trkpt lat="45.94987" lon="4.71441">
        <ele>185</ele>
        <time>2016-10-12T16:01:33Z</time>
      </trkpt>
      <trkpt lat="45.94982" lon="4.71438">
        <ele>185</ele>
        <time>2016-10-12T16:01:34Z</time>
      </trkpt>
      <trkpt lat="45.94978" lon="4.71436">
        <ele>185</ele>
        <time>2016-10-12T16:01:35Z</time>
      </trkpt>
      <trkpt lat="45.94973" lon="4.71434">
        <ele>185</ele>
        <time>2016-10-12T16:01:36Z</time>
      </trkpt>
      <trkpt lat="45.94967" lon="4.71436">
        <ele>184</ele>
        <time>2016-10-12T16:01:37Z</time>
      </trkpt>
      <trkpt lat="45.94962" lon="4.71439">
        <ele>184</ele>
        <time>2016-10-12T16:01:38Z</time>
      </trkpt>
      <trkpt lat="45.94957" lon="4.71442">
        <ele>184</ele>
        <time>2016-10-12T16:01:39Z</time>
      </trkpt>
      <trkpt lat="45.94952" lon="4.71447">
        <ele>184</ele>
        <time>2016-10-12T16:01:40Z</time>
      </trkpt>
      <trkpt lat="45.94946" lon="4.71451">
        <ele>184</ele>
        <time>2016-10-12T16:01:41Z</time>
      </trkpt>
      <trkpt lat="45.94941" lon="4.71454">
        <ele>184</ele>
        <time>2016-10-12T16:01:42Z</time>
      </trkpt>
      <trkpt lat="45.94935" lon="4.71456">
        <ele>184</ele>
        <time>2016-10-12T16:01:43Z</time>
      </trkpt>
      <trkpt lat="45.94929" lon="4.71457">
        <ele>184</ele>
        <time>2016-10-12T16:01:44Z</time>
      </trkpt>
      <trkpt lat="45.94923" lon="4.71457">
        <ele>184</ele>
        <time>2016-10-12T16:01:45Z</time>
      </trkpt>
      <trkpt lat="45.94917" lon="4.71457">
        <ele>184</ele>
        <time>2016-10-12T16:01:46Z</time>
      </trkpt>
      <trkpt lat="45.94911" lon="4.71457">
        <ele>184</ele>
        <time>2016-10-12T16:01:47Z</time>
      </trkpt>
      <trkpt lat="45.94906" lon="4.71457">
        <ele>184</ele>
        <time>2016-10-12T16:01:48Z</time>
      </trkpt>
      <trkpt lat="45.949" lon="4.71456">
        <ele>184</ele>
        <time>2016-10-12T16:01:49Z</time>
      </trkpt>
      <trkpt lat="45.94895" lon="4.71456">
        <ele>184</ele>
        <time>2016-10-12T16:01:50Z</time>
      </trkpt>
      <trkpt lat="45.9489" lon="4.71456">
        <ele>184</ele>
        <time>2016-10-12T16:01:51Z</time>
      </trkpt>
      <trkpt lat="45.94884" lon="4.71455">
        <ele>184</ele>
        <time>2016-10-12T16:01:52Z</time>
      </trkpt>
      <trkpt lat="45.94878" lon="4.71454">
        <ele>184</ele>
        <time>2016-10-12T16:01:53Z</time>
      </trkpt>
      <trkpt lat="45.94872" lon="4.71453">
        <ele>184</ele>
        <time>2016-10-12T16:01:54Z</time>
      </trkpt>
      <trkpt lat="45.94866" lon="4.71453">
        <ele>184</ele>
        <time>2016-10-12T16:01:55Z</time>
      </trkpt>
      <trkpt lat="45.94861" lon="4.71453">
        <ele>184</ele>
        <time>2016-10-12T16:01:56Z</time>
      </trkpt>
      <trkpt lat="45.94855" lon="4.71453">
        <ele>184</ele>
        <time>2016-10-12T16:01:57Z</time>
      </trkpt>
      <trkpt lat="45.94849" lon="4.71452">
        <ele>184</ele>
        <time>2016-10-12T16:01:58Z</time>
      </trkpt>
      <trkpt lat="45.94844" lon="4.71451">
        <ele>184</ele>
        <time>2016-10-12T16:01:59Z</time>
      </trkpt>
      <trkpt lat="45.94839" lon="4.71451">
        <ele>184</ele>
        <time>2016-10-12T16:02:00Z</time>
      </trkpt>
      <trkpt lat="45.94833" lon="4.7145">
        <ele>184</ele>
        <time>2016-10-12T16:02:01Z</time>
      </trkpt>
      <trkpt lat="45.94828" lon="4.71449">
        <ele>184</ele>
        <time>2016-10-12T16:02:02Z</time>
      </trkpt>
      <trkpt lat="45.94822" lon="4.71449">
        <ele>184</ele>
        <time>2016-10-12T16:02:03Z</time>
      </trkpt>
      <trkpt lat="45.94817" lon="4.71448">
        <ele>184</ele>
        <time>2016-10-12T16:02:04Z</time>
      </trkpt>
      <trkpt lat="45.94811" lon="4.71448">
        <ele>184</ele>
        <time>2016-10-12T16:02:05Z</time>
      </trkpt>
      <trkpt lat="45.94805" lon="4.71447">
        <ele>183</ele>
        <time>2016-10-12T16:02:06Z</time>
      </trkpt>
      <trkpt lat="45.948" lon="4.71447">
        <ele>183</ele>
        <time>2016-10-12T16:02:07Z</time>
      </trkpt>
      <trkpt lat="45.94795" lon="4.71447">
        <ele>183</ele>
        <time>2016-10-12T16:02:08Z</time>
      </trkpt>
      <trkpt lat="45.9479" lon="4.71445">
        <ele>183</ele>
        <time>2016-10-12T16:02:09Z</time>
      </trkpt>
      <trkpt lat="45.94784" lon="4.71445">
        <ele>183</ele>
        <time>2016-10-12T16:02:10Z</time>
      </trkpt>
      <trkpt lat="45.94779" lon="4.71444">
        <ele>184</ele>
        <time>2016-10-12T16:02:11Z</time>
      </trkpt>
      <trkpt lat="45.94774" lon="4.71443">
        <ele>184</ele>
        <time>2016-10-12T16:02:12Z</time>
      </trkpt>
      <trkpt lat="45.94769" lon="4.71443">
        <ele>184</ele>
        <time>2016-10-12T16:02:13Z</time>
      </trkpt>
      <trkpt lat="45.94764" lon="4.71443">
        <ele>184</ele>
        <time>2016-10-12T16:02:14Z</time>
      </trkpt>
      <trkpt lat="45.94759" lon="4.71443">
        <ele>184</ele>
        <time>2016-10-12T16:02:15Z</time>
      </trkpt>
      <trkpt lat="45.94754" lon="4.71443">
        <ele>184</ele>
        <time>2016-10-12T16:02:16Z</time>
      </trkpt>
      <trkpt lat="45.94749" lon="4.71443">
        <ele>183</ele>
        <time>2016-10-12T16:02:17Z</time>
      </trkpt>
      <trkpt lat="45.94744" lon="4.71443">
        <ele>183</ele>
        <time>2016-10-12T16:02:18Z</time>
      </trkpt>
      <trkpt lat="45.94739" lon="4.71443">
        <ele>183</ele>
        <time>2016-10-12T16:02:19Z</time>
      </trkpt>
      <trkpt lat="45.94734" lon="4.71443">
        <ele>183</ele>
        <time>2016-10-12T16:02:20Z</time>
      </trkpt>
      <trkpt lat="45.94729" lon="4.71443">
        <ele>183</ele>
        <time>2016-10-12T16:02:21Z</time>
      </trkpt>
      <trkpt lat="45.94724" lon="4.71443">
        <ele>182</ele>
        <time>2016-10-12T16:02:22Z</time>
      </trkpt>
      <trkpt lat="45.94718" lon="4.71443">
        <ele>182</ele>
        <time>2016-10-12T16:02:23Z</time>
      </trkpt>
      <trkpt lat="45.94713" lon="4.71443">
        <ele>182</ele>
        <time>2016-10-12T16:02:24Z</time>
      </trkpt>
      <trkpt lat="45.94708" lon="4.71443">
        <ele>182</ele>
        <time>2016-10-12T16:02:25Z</time>
      </trkpt>
      <trkpt lat="45.94702" lon="4.71444">
        <ele>182</ele>
        <time>2016-10-12T16:02:26Z</time>
      </trkpt>
      <trkpt lat="45.94696" lon="4.71444">
        <ele>182</ele>
        <time>2016-10-12T16:02:27Z</time>
      </trkpt>
      <trkpt lat="45.94691" lon="4.71444">
        <ele>182</ele>
        <time>2016-10-12T16:02:28Z</time>
      </trkpt>
      <trkpt lat="45.94684" lon="4.71443">
        <ele>182</ele>
        <time>2016-10-12T16:02:29Z</time>
      </trkpt>
      <trkpt lat="45.94679" lon="4.71441">
        <ele>182</ele>
        <time>2016-10-12T16:02:30Z</time>
      </trkpt>
      <trkpt lat="45.94673" lon="4.71442">
        <ele>182</ele>
        <time>2016-10-12T16:02:31Z</time>
      </trkpt>
      <trkpt lat="45.94668" lon="4.71442">
        <ele>182</ele>
        <time>2016-10-12T16:02:32Z</time>
      </trkpt>
      <trkpt lat="45.94663" lon="4.71442">
        <ele>182</ele>
        <time>2016-10-12T16:02:33Z</time>
      </trkpt>
      <trkpt lat="45.94657" lon="4.71442">
        <ele>182</ele>
        <time>2016-10-12T16:02:34Z</time>
      </trkpt>
      <trkpt lat="45.94652" lon="4.71442">
        <ele>181</ele>
        <time>2016-10-12T16:02:35Z</time>
      </trkpt>
      <trkpt lat="45.94646" lon="4.71441">
        <ele>181</ele>
        <time>2016-10-12T16:02:36Z</time>
      </trkpt>
      <trkpt lat="45.94641" lon="4.71441">
        <ele>181</ele>
        <time>2016-10-12T16:02:37Z</time>
      </trkpt>
      <trkpt lat="45.94635" lon="4.71441">
        <ele>181</ele>
        <time>2016-10-12T16:02:38Z</time>
      </trkpt>
      <trkpt lat="45.94629" lon="4.7144">
        <ele>181</ele>
        <time>2016-10-12T16:02:39Z</time>
      </trkpt>
      <trkpt lat="45.94624" lon="4.7144">
        <ele>181</ele>
        <time>2016-10-12T16:02:40Z</time>
      </trkpt>
      <trkpt lat="45.94618" lon="4.71439">
        <ele>181</ele>
        <time>2016-10-12T16:02:41Z</time>
      </trkpt>
      <trkpt lat="45.94613" lon="4.71439">
        <ele>182</ele>
        <time>2016-10-12T16:02:42Z</time>
      </trkpt>
      <trkpt lat="45.94607" lon="4.71439">
        <ele>182</ele>
        <time>2016-10-12T16:02:43Z</time>
      </trkpt>
      <trkpt lat="45.94601" lon="4.71438">
        <ele>182</ele>
        <time>2016-10-12T16:02:44Z</time>
      </trkpt>
      <trkpt lat="45.94595" lon="4.71438">
        <ele>182</ele>
        <time>2016-10-12T16:02:45Z</time>
      </trkpt>
      <trkpt lat="45.94588" lon="4.71438">
        <ele>182</ele>
        <time>2016-10-12T16:02:46Z</time>
      </trkpt>
      <trkpt lat="45.94581" lon="4.71437">
        <ele>182</ele>
        <time>2016-10-12T16:02:47Z</time>
      </trkpt>
      <trkpt lat="45.94575" lon="4.71438">
        <ele>182</ele>
        <time>2016-10-12T16:02:48Z</time>
      </trkpt>
      <trkpt lat="45.94568" lon="4.71439">
        <ele>181</ele>
        <time>2016-10-12T16:02:49Z</time>
      </trkpt>
      <trkpt lat="45.94561" lon="4.71441">
        <ele>181</ele>
        <time>2016-10-12T16:02:50Z</time>
      </trkpt>
      <trkpt lat="45.94554" lon="4.71442">
        <ele>181</ele>
        <time>2016-10-12T16:02:51Z</time>
      </trkpt>
      <trkpt lat="45.94547" lon="4.71444">
        <ele>181</ele>
        <time>2016-10-12T16:02:52Z</time>
      </trkpt>
      <trkpt lat="45.9454" lon="4.71446">
        <ele>180</ele>
        <time>2016-10-12T16:02:53Z</time>
      </trkpt>
      <trkpt lat="45.94533" lon="4.71449">
        <ele>180</ele>
        <time>2016-10-12T16:02:54Z</time>
      </trkpt>
      <trkpt lat="45.94528" lon="4.71451">
        <ele>180</ele>
        <time>2016-10-12T16:02:55Z</time>
      </trkpt>
      <trkpt lat="45.94521" lon="4.71453">
        <ele>180</ele>
        <time>2016-10-12T16:02:56Z</time>
      </trkpt>
      <trkpt lat="45.94514" lon="4.71456">
        <ele>180</ele>
        <time>2016-10-12T16:02:57Z</time>
      </trkpt>
      <trkpt lat="45.94507" lon="4.71459">
        <ele>180</ele>
        <time>2016-10-12T16:02:58Z</time>
      </trkpt>
      <trkpt lat="45.94499" lon="4.71461">
        <ele>179</ele>
        <time>2016-10-12T16:02:59Z</time>
      </trkpt>
      <trkpt lat="45.94491" lon="4.71465">
        <ele>179</ele>
        <time>2016-10-12T16:03:00Z</time>
      </trkpt>
      <trkpt lat="45.94483" lon="4.71468">
        <ele>179</ele>
        <time>2016-10-12T16:03:01Z</time>
      </trkpt>
      <trkpt lat="45.94475" lon="4.71471">
        <ele>179</ele>
        <time>2016-10-12T16:03:02Z</time>
      </trkpt>
      <trkpt lat="45.94468" lon="4.71473">
        <ele>179</ele>
        <time>2016-10-12T16:03:03Z</time>
      </trkpt>
      <trkpt lat="45.9446" lon="4.71476">
        <ele>179</ele>
        <time>2016-10-12T16:03:04Z</time>
      </trkpt>
      <trkpt lat="45.94453" lon="4.71478">
        <ele>179</ele>
        <time>2016-10-12T16:03:05Z</time>
      </trkpt>
      <trkpt lat="45.94446" lon="4.71481">
        <ele>179</ele>
        <time>2016-10-12T16:03:06Z</time>
      </trkpt>
      <trkpt lat="45.94439" lon="4.71484">
        <ele>179</ele>
        <time>2016-10-12T16:03:07Z</time>
      </trkpt>
      <trkpt lat="45.94432" lon="4.71487">
        <ele>178</ele>
        <time>2016-10-12T16:03:08Z</time>
      </trkpt>
      <trkpt lat="45.94425" lon="4.7149">
        <ele>178</ele>
        <time>2016-10-12T16:03:09Z</time>
      </trkpt>
      <trkpt lat="45.94419" lon="4.71493">
        <ele>178</ele>
        <time>2016-10-12T16:03:10Z</time>
      </trkpt>
      <trkpt lat="45.94411" lon="4.71496">
        <ele>178</ele>
        <time>2016-10-12T16:03:11Z</time>
      </trkpt>
      <trkpt lat="45.94404" lon="4.71499">
        <ele>178</ele>
        <time>2016-10-12T16:03:12Z</time>
      </trkpt>
      <trkpt lat="45.94397" lon="4.71498">
        <ele>178</ele>
        <time>2016-10-12T16:03:13Z</time>
      </trkpt>
      <trkpt lat="45.94391" lon="4.71499">
        <ele>177</ele>
        <time>2016-10-12T16:03:14Z</time>
      </trkpt>
      <trkpt lat="45.94383" lon="4.71502">
        <ele>177</ele>
        <time>2016-10-12T16:03:15Z</time>
      </trkpt>
      <trkpt lat="45.94375" lon="4.71504">
        <ele>177</ele>
        <time>2016-10-12T16:03:16Z</time>
      </trkpt>
      <trkpt lat="45.94368" lon="4.71506">
        <ele>176</ele>
        <time>2016-10-12T16:03:17Z</time>
      </trkpt>
      <trkpt lat="45.94361" lon="4.71509">
        <ele>176</ele>
        <time>2016-10-12T16:03:18Z</time>
      </trkpt>
      <trkpt lat="45.94354" lon="4.71512">
        <ele>176</ele>
        <time>2016-10-12T16:03:19Z</time>
      </trkpt>
      <trkpt lat="45.94347" lon="4.71515">
        <ele>176</ele>
        <time>2016-10-12T16:03:20Z</time>
      </trkpt>
      <trkpt lat="45.9434" lon="4.71517">
        <ele>176</ele>
        <time>2016-10-12T16:03:21Z</time>
      </trkpt>
      <trkpt lat="45.94333" lon="4.71519">
        <ele>176</ele>
        <time>2016-10-12T16:03:22Z</time>
      </trkpt>
      <trkpt lat="45.94326" lon="4.71522">
        <ele>176</ele>
        <time>2016-10-12T16:03:23Z</time>
      </trkpt>
      <trkpt lat="45.94318" lon="4.71524">
        <ele>176</ele>
        <time>2016-10-12T16:03:24Z</time>
      </trkpt>
      <trkpt lat="45.9431" lon="4.71528">
        <ele>175</ele>
        <time>2016-10-12T16:03:25Z</time>
      </trkpt>
      <trkpt lat="45.94303" lon="4.71531">
        <ele>175</ele>
        <time>2016-10-12T16:03:26Z</time>
      </trkpt>
      <trkpt lat="45.94295" lon="4.71534">
        <ele>175</ele>
        <time>2016-10-12T16:03:27Z</time>
      </trkpt>
      <trkpt lat="45.94288" lon="4.71537">
        <ele>175</ele>
        <time>2016-10-12T16:03:28Z</time>
      </trkpt>
      <trkpt lat="45.94281" lon="4.7154">
        <ele>175</ele>
        <time>2016-10-12T16:03:29Z</time>
      </trkpt>
      <trkpt lat="45.94275" lon="4.71543">
        <ele>175</ele>
        <time>2016-10-12T16:03:30Z</time>
      </trkpt>
      <trkpt lat="45.94269" lon="4.71548">
        <ele>175</ele>
        <time>2016-10-12T16:03:31Z</time>
      </trkpt>
      <trkpt lat="45.94262" lon="4.71552">
        <ele>175</ele>
        <time>2016-10-12T16:03:32Z</time>
      </trkpt>
      <trkpt lat="45.94255" lon="4.71554">
        <ele>175</ele>
        <time>2016-10-12T16:03:33Z</time>
      </trkpt>
      <trkpt lat="45.94249" lon="4.71557">
        <ele>174</ele>
        <time>2016-10-12T16:03:34Z</time>
      </trkpt>
      <trkpt lat="45.94243" lon="4.71559">
        <ele>174</ele>
        <time>2016-10-12T16:03:35Z</time>
      </trkpt>
      <trkpt lat="45.94237" lon="4.71561">
        <ele>174</ele>
        <time>2016-10-12T16:03:36Z</time>
      </trkpt>
      <trkpt lat="45.94231" lon="4.71564">
        <ele>174</ele>
        <time>2016-10-12T16:03:37Z</time>
      </trkpt>
      <trkpt lat="45.94225" lon="4.71566">
        <ele>174</ele>
        <time>2016-10-12T16:03:38Z</time>
      </trkpt>
      <trkpt lat="45.94219" lon="4.71568">
        <ele>174</ele>
        <time>2016-10-12T16:03:39Z</time>
      </trkpt>
      <trkpt lat="45.94213" lon="4.71571">
        <ele>174</ele>
        <time>2016-10-12T16:03:40Z</time>
      </trkpt>
      <trkpt lat="45.94206" lon="4.71574">
        <ele>174</ele>
        <time>2016-10-12T16:03:41Z</time>
      </trkpt>
      <trkpt lat="45.942" lon="4.71577">
        <ele>174</ele>
        <time>2016-10-12T16:03:42Z</time>
      </trkpt>
      <trkpt lat="45.94194" lon="4.71579">
        <ele>174</ele>
        <time>2016-10-12T16:03:43Z</time>
      </trkpt>
      <trkpt lat="45.94186" lon="4.71583">
        <ele>174</ele>
        <time>2016-10-12T16:03:44Z</time>
      </trkpt>
      <trkpt lat="45.94178" lon="4.71587">
        <ele>174</ele>
        <time>2016-10-12T16:03:45Z</time>
      </trkpt>
      <trkpt lat="45.9417" lon="4.71587">
        <ele>174</ele>
        <time>2016-10-12T16:03:46Z</time>
      </trkpt>
      <trkpt lat="45.94164" lon="4.71589">
        <ele>174</ele>
        <time>2016-10-12T16:03:47Z</time>
      </trkpt>
      <trkpt lat="45.94158" lon="4.71592">
        <ele>173</ele>
        <time>2016-10-12T16:03:48Z</time>
      </trkpt>
      <trkpt lat="45.94152" lon="4.71594">
        <ele>173</ele>
        <time>2016-10-12T16:03:49Z</time>
      </trkpt>
      <trkpt lat="45.94145" lon="4.71597">
        <ele>173</ele>
        <time>2016-10-12T16:03:50Z</time>
      </trkpt>
      <trkpt lat="45.94139" lon="4.71601">
        <ele>173</ele>
        <time>2016-10-12T16:03:51Z</time>
      </trkpt>
      <trkpt lat="45.94133" lon="4.71603">
        <ele>173</ele>
        <time>2016-10-12T16:03:52Z</time>
      </trkpt>
      <trkpt lat="45.94127" lon="4.71605">
        <ele>173</ele>
        <time>2016-10-12T16:03:53Z</time>
      </trkpt>
      <trkpt lat="45.94121" lon="4.71608">
        <ele>173</ele>
        <time>2016-10-12T16:03:54Z</time>
      </trkpt>
      <trkpt lat="45.94115" lon="4.71611">
        <ele>173</ele>
        <time>2016-10-12T16:03:55Z</time>
      </trkpt>
      <trkpt lat="45.94108" lon="4.71618">
        <ele>173</ele>
        <time>2016-10-12T16:03:57Z</time>
      </trkpt>
      <trkpt lat="45.94101" lon="4.7162">
        <ele>173</ele>
        <time>2016-10-12T16:03:58Z</time>
      </trkpt>
      <trkpt lat="45.94095" lon="4.71624">
        <ele>173</ele>
        <time>2016-10-12T16:03:59Z</time>
      </trkpt>
      <trkpt lat="45.94088" lon="4.71626">
        <ele>173</ele>
        <time>2016-10-12T16:04:00Z</time>
      </trkpt>
      <trkpt lat="45.94082" lon="4.71628">
        <ele>174</ele>
        <time>2016-10-12T16:04:01Z</time>
      </trkpt>
      <trkpt lat="45.94076" lon="4.71629">
        <ele>174</ele>
        <time>2016-10-12T16:04:02Z</time>
      </trkpt>
      <trkpt lat="45.94071" lon="4.71631">
        <ele>174</ele>
        <time>2016-10-12T16:04:03Z</time>
      </trkpt>
      <trkpt lat="45.94065" lon="4.71633">
        <ele>174</ele>
        <time>2016-10-12T16:04:04Z</time>
      </trkpt>
      <trkpt lat="45.9406" lon="4.71635">
        <ele>174</ele>
        <time>2016-10-12T16:04:05Z</time>
      </trkpt>
      <trkpt lat="45.94055" lon="4.71637">
        <ele>174</ele>
        <time>2016-10-12T16:04:06Z</time>
      </trkpt>
      <trkpt lat="45.9405" lon="4.71638">
        <ele>175</ele>
        <time>2016-10-12T16:04:07Z</time>
      </trkpt>
      <trkpt lat="45.94044" lon="4.71639">
        <ele>175</ele>
        <time>2016-10-12T16:04:08Z</time>
      </trkpt>
      <trkpt lat="45.94039" lon="4.71641">
        <ele>175</ele>
        <time>2016-10-12T16:04:09Z</time>
      </trkpt>
      <trkpt lat="45.94034" lon="4.71642">
        <ele>175</ele>
        <time>2016-10-12T16:04:10Z</time>
      </trkpt>
      <trkpt lat="45.94029" lon="4.71644">
        <ele>175</ele>
        <time>2016-10-12T16:04:11Z</time>
      </trkpt>
      <trkpt lat="45.94025" lon="4.71646">
        <ele>175</ele>
        <time>2016-10-12T16:04:12Z</time>
      </trkpt>
      <trkpt lat="45.94018" lon="4.7165">
        <ele>176</ele>
        <time>2016-10-12T16:04:14Z</time>
      </trkpt>
      <trkpt lat="45.94015" lon="4.71652">
        <ele>176</ele>
        <time>2016-10-12T16:04:15Z</time>
      </trkpt>
      <trkpt lat="45.94007" lon="4.71655">
        <ele>176</ele>
        <time>2016-10-12T16:04:18Z</time>
      </trkpt>
      <trkpt lat="45.94004" lon="4.71656">
        <ele>176</ele>
        <time>2016-10-12T16:04:19Z</time>
      </trkpt>
      <trkpt lat="45.93998" lon="4.71659">
        <ele>177</ele>
        <time>2016-10-12T16:04:21Z</time>
      </trkpt>
      <trkpt lat="45.93995" lon="4.71661">
        <ele>177</ele>
        <time>2016-10-12T16:04:22Z</time>
      </trkpt>
      <trkpt lat="45.93986" lon="4.71663">
        <ele>177</ele>
        <time>2016-10-12T16:04:24Z</time>
      </trkpt>
      <trkpt lat="45.93982" lon="4.71665">
        <ele>177</ele>
        <time>2016-10-12T16:04:25Z</time>
      </trkpt>
      <trkpt lat="45.93977" lon="4.71667">
        <ele>177</ele>
        <time>2016-10-12T16:04:26Z</time>
      </trkpt>
      <trkpt lat="45.93973" lon="4.71667">
        <ele>175</ele>
        <time>2016-10-12T16:04:27Z</time>
      </trkpt>
      <trkpt lat="45.93966" lon="4.7167">
        <ele>175</ele>
        <time>2016-10-12T16:04:30Z</time>
      </trkpt>
      <trkpt lat="45.93962" lon="4.71671">
        <ele>175</ele>
        <time>2016-10-12T16:04:31Z</time>
      </trkpt>
      <trkpt lat="45.93959" lon="4.71672">
        <ele>175</ele>
        <time>2016-10-12T16:04:32Z</time>
      </trkpt>
      <trkpt lat="45.9395" lon="4.71675">
        <ele>175</ele>
        <time>2016-10-12T16:04:33Z</time>
      </trkpt>
      <trkpt lat="45.93939" lon="4.71678">
        <ele>175</ele>
        <time>2016-10-12T16:04:34Z</time>
      </trkpt>
      <trkpt lat="45.9393" lon="4.71681">
        <ele>175</ele>
        <time>2016-10-12T16:04:35Z</time>
      </trkpt>
      <trkpt lat="45.93923" lon="4.71684">
        <ele>175</ele>
        <time>2016-10-12T16:04:36Z</time>
      </trkpt>
      <trkpt lat="45.93916" lon="4.71686">
        <ele>174</ele>
        <time>2016-10-12T16:04:37Z</time>
      </trkpt>
      <trkpt lat="45.93909" lon="4.71689">
        <ele>174</ele>
        <time>2016-10-12T16:04:38Z</time>
      </trkpt>
      <trkpt lat="45.93903" lon="4.71692">
        <ele>174</ele>
        <time>2016-10-12T16:04:39Z</time>
      </trkpt>
      <trkpt lat="45.93897" lon="4.71694">
        <ele>174</ele>
        <time>2016-10-12T16:04:40Z</time>
      </trkpt>
      <trkpt lat="45.93891" lon="4.71696">
        <ele>174</ele>
        <time>2016-10-12T16:04:41Z</time>
      </trkpt>
      <trkpt lat="45.93885" lon="4.71698">
        <ele>174</ele>
        <time>2016-10-12T16:04:42Z</time>
      </trkpt>
      <trkpt lat="45.9388" lon="4.71701">
        <ele>174</ele>
        <time>2016-10-12T16:04:43Z</time>
      </trkpt>
      <trkpt lat="45.93874" lon="4.71703">
        <ele>174</ele>
        <time>2016-10-12T16:04:44Z</time>
      </trkpt>
      <trkpt lat="45.93869" lon="4.71705">
        <ele>174</ele>
        <time>2016-10-12T16:04:45Z</time>
      </trkpt>
      <trkpt lat="45.93863" lon="4.71707">
        <ele>174</ele>
        <time>2016-10-12T16:04:46Z</time>
      </trkpt>
      <trkpt lat="45.93857" lon="4.71709">
        <ele>174</ele>
        <time>2016-10-12T16:04:47Z</time>
      </trkpt>
      <trkpt lat="45.93851" lon="4.71712">
        <ele>174</ele>
        <time>2016-10-12T16:04:48Z</time>
      </trkpt>
      <trkpt lat="45.93845" lon="4.71714">
        <ele>174</ele>
        <time>2016-10-12T16:04:49Z</time>
      </trkpt>
      <trkpt lat="45.93839" lon="4.71716">
        <ele>175</ele>
        <time>2016-10-12T16:04:50Z</time>
      </trkpt>
      <trkpt lat="45.93833" lon="4.71718">
        <ele>175</ele>
        <time>2016-10-12T16:04:51Z</time>
      </trkpt>
      <trkpt lat="45.93827" lon="4.7172">
        <ele>175</ele>
        <time>2016-10-12T16:04:52Z</time>
      </trkpt>
      <trkpt lat="45.93823" lon="4.71722">
        <ele>175</ele>
        <time>2016-10-12T16:04:53Z</time>
      </trkpt>
      <trkpt lat="45.93818" lon="4.71724">
        <ele>175</ele>
        <time>2016-10-12T16:04:54Z</time>
      </trkpt>
      <trkpt lat="45.93812" lon="4.71727">
        <ele>175</ele>
        <time>2016-10-12T16:04:55Z</time>
      </trkpt>
      <trkpt lat="45.93806" lon="4.71729">
        <ele>175</ele>
        <time>2016-10-12T16:04:56Z</time>
      </trkpt>
      <trkpt lat="45.93801" lon="4.7173">
        <ele>175</ele>
        <time>2016-10-12T16:04:57Z</time>
      </trkpt>
      <trkpt lat="45.93795" lon="4.71732">
        <ele>175</ele>
        <time>2016-10-12T16:04:58Z</time>
      </trkpt>
      <trkpt lat="45.93789" lon="4.71736">
        <ele>175</ele>
        <time>2016-10-12T16:04:59Z</time>
      </trkpt>
      <trkpt lat="45.93784" lon="4.7174">
        <ele>175</ele>
        <time>2016-10-12T16:05:00Z</time>
      </trkpt>
      <trkpt lat="45.93779" lon="4.71743">
        <ele>175</ele>
        <time>2016-10-12T16:05:01Z</time>
      </trkpt>
      <trkpt lat="45.93774" lon="4.71744">
        <ele>175</ele>
        <time>2016-10-12T16:05:02Z</time>
      </trkpt>
      <trkpt lat="45.93769" lon="4.71745">
        <ele>175</ele>
        <time>2016-10-12T16:05:03Z</time>
      </trkpt>
      <trkpt lat="45.93764" lon="4.71747">
        <ele>175</ele>
        <time>2016-10-12T16:05:04Z</time>
      </trkpt>
      <trkpt lat="45.93758" lon="4.71749">
        <ele>175</ele>
        <time>2016-10-12T16:05:05Z</time>
      </trkpt>
      <trkpt lat="45.93754" lon="4.71752">
        <ele>175</ele>
        <time>2016-10-12T16:05:06Z</time>
      </trkpt>
      <trkpt lat="45.93748" lon="4.71754">
        <ele>175</ele>
        <time>2016-10-12T16:05:07Z</time>
      </trkpt>
      <trkpt lat="45.93743" lon="4.71756">
        <ele>175</ele>
        <time>2016-10-12T16:05:08Z</time>
      </trkpt>
      <trkpt lat="45.93737" lon="4.71758">
        <ele>176</ele>
        <time>2016-10-12T16:05:09Z</time>
      </trkpt>
      <trkpt lat="45.93732" lon="4.71762">
        <ele>176</ele>
        <time>2016-10-12T16:05:10Z</time>
      </trkpt>
      <trkpt lat="45.93727" lon="4.71767">
        <ele>176</ele>
        <time>2016-10-12T16:05:11Z</time>
      </trkpt>
      <trkpt lat="45.93723" lon="4.71773">
        <ele>176</ele>
        <time>2016-10-12T16:05:12Z</time>
      </trkpt>
      <trkpt lat="45.9372" lon="4.71779">
        <ele>176</ele>
        <time>2016-10-12T16:05:13Z</time>
      </trkpt>
      <trkpt lat="45.93716" lon="4.71786">
        <ele>176</ele>
        <time>2016-10-12T16:05:14Z</time>
      </trkpt>
      <trkpt lat="45.93714" lon="4.71794">
        <ele>176</ele>
        <time>2016-10-12T16:05:15Z</time>
      </trkpt>
      <trkpt lat="45.93711" lon="4.71802">
        <ele>176</ele>
        <time>2016-10-12T16:05:16Z</time>
      </trkpt>
      <trkpt lat="45.93708" lon="4.7181">
        <ele>176</ele>
        <time>2016-10-12T16:05:17Z</time>
      </trkpt>
      <trkpt lat="45.93705" lon="4.71819">
        <ele>176</ele>
        <time>2016-10-12T16:05:18Z</time>
      </trkpt>
      <trkpt lat="45.93702" lon="4.71827">
        <ele>176</ele>
        <time>2016-10-12T16:05:19Z</time>
      </trkpt>
      <trkpt lat="45.93699" lon="4.71836">
        <ele>175</ele>
        <time>2016-10-12T16:05:20Z</time>
      </trkpt>
      <trkpt lat="45.93695" lon="4.71844">
        <ele>175</ele>
        <time>2016-10-12T16:05:21Z</time>
      </trkpt>
      <trkpt lat="45.93691" lon="4.71852">
        <ele>175</ele>
        <time>2016-10-12T16:05:22Z</time>
      </trkpt>
      <trkpt lat="45.93688" lon="4.7186">
        <ele>175</ele>
        <time>2016-10-12T16:05:23Z</time>
      </trkpt>
      <trkpt lat="45.93684" lon="4.71869">
        <ele>175</ele>
        <time>2016-10-12T16:05:24Z</time>
      </trkpt>
      <trkpt lat="45.93681" lon="4.71877">
        <ele>175</ele>
        <time>2016-10-12T16:05:25Z</time>
      </trkpt>
      <trkpt lat="45.93678" lon="4.71885">
        <ele>175</ele>
        <time>2016-10-12T16:05:26Z</time>
      </trkpt>
      <trkpt lat="45.93676" lon="4.71893">
        <ele>175</ele>
        <time>2016-10-12T16:05:27Z</time>
      </trkpt>
      <trkpt lat="45.93672" lon="4.71902">
        <ele>175</ele>
        <time>2016-10-12T16:05:28Z</time>
      </trkpt>
      <trkpt lat="45.93669" lon="4.7191">
        <ele>175</ele>
        <time>2016-10-12T16:05:29Z</time>
      </trkpt>
      <trkpt lat="45.93666" lon="4.7192">
        <ele>175</ele>
        <time>2016-10-12T16:05:30Z</time>
      </trkpt>
      <trkpt lat="45.93663" lon="4.7193">
        <ele>175</ele>
        <time>2016-10-12T16:05:31Z</time>
      </trkpt>
      <trkpt lat="45.9366" lon="4.7194">
        <ele>175</ele>
        <time>2016-10-12T16:05:32Z</time>
      </trkpt>
      <trkpt lat="45.93655" lon="4.71948">
        <ele>175</ele>
        <time>2016-10-12T16:05:33Z</time>
      </trkpt>
      <trkpt lat="45.93652" lon="4.71956">
        <ele>175</ele>
        <time>2016-10-12T16:05:34Z</time>
      </trkpt>
      <trkpt lat="45.93649" lon="4.71966">
        <ele>175</ele>
        <time>2016-10-12T16:05:35Z</time>
      </trkpt>
      <trkpt lat="45.93647" lon="4.71976">
        <ele>175</ele>
        <time>2016-10-12T16:05:36Z</time>
      </trkpt>
      <trkpt lat="45.93644" lon="4.71985">
        <ele>175</ele>
        <time>2016-10-12T16:05:37Z</time>
      </trkpt>
      <trkpt lat="45.9364" lon="4.71994">
        <ele>175</ele>
        <time>2016-10-12T16:05:38Z</time>
      </trkpt>
      <trkpt lat="45.93637" lon="4.72004">
        <ele>174</ele>
        <time>2016-10-12T16:05:39Z</time>
      </trkpt>
      <trkpt lat="45.93632" lon="4.72013">
        <ele>174</ele>
        <time>2016-10-12T16:05:40Z</time>
      </trkpt>
      <trkpt lat="45.93627" lon="4.72022">
        <ele>175</ele>
        <time>2016-10-12T16:05:41Z</time>
      </trkpt>
      <trkpt lat="45.93622" lon="4.72032">
        <ele>175</ele>
        <time>2016-10-12T16:05:42Z</time>
      </trkpt>
      <trkpt lat="45.93619" lon="4.72041">
        <ele>175</ele>
        <time>2016-10-12T16:05:43Z</time>
      </trkpt>
      <trkpt lat="45.93616" lon="4.7205">
        <ele>175</ele>
        <time>2016-10-12T16:05:44Z</time>
      </trkpt>
      <trkpt lat="45.93611" lon="4.72059">
        <ele>175</ele>
        <time>2016-10-12T16:05:45Z</time>
      </trkpt>
      <trkpt lat="45.93607" lon="4.72068">
        <ele>175</ele>
        <time>2016-10-12T16:05:46Z</time>
      </trkpt>
      <trkpt lat="45.93603" lon="4.72077">
        <ele>175</ele>
        <time>2016-10-12T16:05:47Z</time>
      </trkpt>
      <trkpt lat="45.936" lon="4.72086">
        <ele>175</ele>
        <time>2016-10-12T16:05:48Z</time>
      </trkpt>
      <trkpt lat="45.93596" lon="4.72095">
        <ele>175</ele>
        <time>2016-10-12T16:05:49Z</time>
      </trkpt>
      <trkpt lat="45.93592" lon="4.72104">
        <ele>174</ele>
        <time>2016-10-12T16:05:50Z</time>
      </trkpt>
      <trkpt lat="45.93589" lon="4.72113">
        <ele>174</ele>
        <time>2016-10-12T16:05:51Z</time>
      </trkpt>
      <trkpt lat="45.93587" lon="4.72121">
        <ele>174</ele>
        <time>2016-10-12T16:05:52Z</time>
      </trkpt>
      <trkpt lat="45.93584" lon="4.72128">
        <ele>174</ele>
        <time>2016-10-12T16:05:53Z</time>
      </trkpt>
      <trkpt lat="45.93582" lon="4.72131">
        <ele>174</ele>
        <time>2016-10-12T16:05:54Z</time>
      </trkpt>
      <trkpt lat="45.93578" lon="4.72141">
        <ele>174</ele>
        <time>2016-10-12T16:05:55Z</time>
      </trkpt>
      <trkpt lat="45.93576" lon="4.72149">
        <ele>174</ele>
        <time>2016-10-12T16:05:56Z</time>
      </trkpt>
      <trkpt lat="45.93573" lon="4.72159">
        <ele>174</ele>
        <time>2016-10-12T16:05:57Z</time>
      </trkpt>
      <trkpt lat="45.93569" lon="4.72168">
        <ele>173</ele>
        <time>2016-10-12T16:05:58Z</time>
      </trkpt>
      <trkpt lat="45.93566" lon="4.7218">
        <ele>173</ele>
        <time>2016-10-12T16:05:59Z</time>
      </trkpt>
      <trkpt lat="45.93563" lon="4.72192">
        <ele>173</ele>
        <time>2016-10-12T16:06:00Z</time>
      </trkpt>
      <trkpt lat="45.9356" lon="4.72203">
        <ele>173</ele>
        <time>2016-10-12T16:06:01Z</time>
      </trkpt>
      <trkpt lat="45.93556" lon="4.72212">
        <ele>173</ele>
        <time>2016-10-12T16:06:02Z</time>
      </trkpt>
      <trkpt lat="45.93553" lon="4.72221">
        <ele>173</ele>
        <time>2016-10-12T16:06:03Z</time>
      </trkpt>
      <trkpt lat="45.93549" lon="4.72227">
        <ele>172</ele>
        <time>2016-10-12T16:06:04Z</time>
      </trkpt>
      <trkpt lat="45.93547" lon="4.72235">
        <ele>172</ele>
        <time>2016-10-12T16:06:05Z</time>
      </trkpt>
      <trkpt lat="45.93544" lon="4.72241">
        <ele>172</ele>
        <time>2016-10-12T16:06:06Z</time>
      </trkpt>
      <trkpt lat="45.9354" lon="4.72248">
        <ele>172</ele>
        <time>2016-10-12T16:06:07Z</time>
      </trkpt>
      <trkpt lat="45.93537" lon="4.72255">
        <ele>172</ele>
        <time>2016-10-12T16:06:08Z</time>
      </trkpt>
      <trkpt lat="45.93534" lon="4.72261">
        <ele>172</ele>
        <time>2016-10-12T16:06:09Z</time>
      </trkpt>
      <trkpt lat="45.93531" lon="4.72268">
        <ele>172</ele>
        <time>2016-10-12T16:06:10Z</time>
      </trkpt>
      <trkpt lat="45.93528" lon="4.72273">
        <ele>172</ele>
        <time>2016-10-12T16:06:11Z</time>
      </trkpt>
      <trkpt lat="45.93525" lon="4.7228">
        <ele>172</ele>
        <time>2016-10-12T16:06:12Z</time>
      </trkpt>
      <trkpt lat="45.93522" lon="4.72288">
        <ele>172</ele>
        <time>2016-10-12T16:06:13Z</time>
      </trkpt>
      <trkpt lat="45.93518" lon="4.72296">
        <ele>172</ele>
        <time>2016-10-12T16:06:14Z</time>
      </trkpt>
      <trkpt lat="45.93513" lon="4.72303">
        <ele>173</ele>
        <time>2016-10-12T16:06:15Z</time>
      </trkpt>
      <trkpt lat="45.93509" lon="4.72311">
        <ele>173</ele>
        <time>2016-10-12T16:06:16Z</time>
      </trkpt>
      <trkpt lat="45.93504" lon="4.72318">
        <ele>173</ele>
        <time>2016-10-12T16:06:17Z</time>
      </trkpt>
      <trkpt lat="45.93499" lon="4.72325">
        <ele>173</ele>
        <time>2016-10-12T16:06:18Z</time>
      </trkpt>
      <trkpt lat="45.93494" lon="4.72332">
        <ele>173</ele>
        <time>2016-10-12T16:06:19Z</time>
      </trkpt>
      <trkpt lat="45.93487" lon="4.72342">
        <ele>173</ele>
        <time>2016-10-12T16:06:20Z</time>
      </trkpt>
      <trkpt lat="45.9348" lon="4.72349">
        <ele>173</ele>
        <time>2016-10-12T16:06:21Z</time>
      </trkpt>
      <trkpt lat="45.93475" lon="4.72355">
        <ele>173</ele>
        <time>2016-10-12T16:06:22Z</time>
      </trkpt>
      <trkpt lat="45.93471" lon="4.72361">
        <ele>173</ele>
        <time>2016-10-12T16:06:23Z</time>
      </trkpt>
      <trkpt lat="45.93467" lon="4.72368">
        <ele>173</ele>
        <time>2016-10-12T16:06:24Z</time>
      </trkpt>
      <trkpt lat="45.93463" lon="4.72375">
        <ele>173</ele>
        <time>2016-10-12T16:06:25Z</time>
      </trkpt>
      <trkpt lat="45.93459" lon="4.72382">
        <ele>173</ele>
        <time>2016-10-12T16:06:26Z</time>
      </trkpt>
      <trkpt lat="45.93455" lon="4.72388">
        <ele>173</ele>
        <time>2016-10-12T16:06:27Z</time>
      </trkpt>
      <trkpt lat="45.9345" lon="4.72393">
        <ele>173</ele>
        <time>2016-10-12T16:06:28Z</time>
      </trkpt>
      <trkpt lat="45.93446" lon="4.72397">
        <ele>173</ele>
        <time>2016-10-12T16:06:29Z</time>
      </trkpt>
      <trkpt lat="45.93441" lon="4.72401">
        <ele>173</ele>
        <time>2016-10-12T16:06:30Z</time>
      </trkpt>
      <trkpt lat="45.93436" lon="4.72404">
        <ele>174</ele>
        <time>2016-10-12T16:06:31Z</time>
      </trkpt>
      <trkpt lat="45.93431" lon="4.72406">
        <ele>174</ele>
        <time>2016-10-12T16:06:32Z</time>
      </trkpt>
      <trkpt lat="45.93425" lon="4.72408">
        <ele>174</ele>
        <time>2016-10-12T16:06:33Z</time>
      </trkpt>
      <trkpt lat="45.93419" lon="4.7241">
        <ele>174</ele>
        <time>2016-10-12T16:06:34Z</time>
      </trkpt>
      <trkpt lat="45.93413" lon="4.72412">
        <ele>174</ele>
        <time>2016-10-12T16:06:35Z</time>
      </trkpt>
      <trkpt lat="45.93408" lon="4.72411">
        <ele>174</ele>
        <time>2016-10-12T16:06:36Z</time>
      </trkpt>
      <trkpt lat="45.93403" lon="4.7241">
        <ele>174</ele>
        <time>2016-10-12T16:06:37Z</time>
      </trkpt>
      <trkpt lat="45.93398" lon="4.72409">
        <ele>174</ele>
        <time>2016-10-12T16:06:38Z</time>
      </trkpt>
      <trkpt lat="45.9339" lon="4.72409">
        <ele>174</ele>
        <time>2016-10-12T16:06:40Z</time>
      </trkpt>
      <trkpt lat="45.93385" lon="4.72413">
        <ele>174</ele>
        <time>2016-10-12T16:06:41Z</time>
      </trkpt>
      <trkpt lat="45.93382" lon="4.72423">
        <ele>173</ele>
        <time>2016-10-12T16:06:43Z</time>
      </trkpt>
      <trkpt lat="45.93383" lon="4.72427">
        <ele>173</ele>
        <time>2016-10-12T16:06:44Z</time>
      </trkpt>
      <trkpt lat="45.93387" lon="4.72437">
        <ele>173</ele>
        <time>2016-10-12T16:06:46Z</time>
      </trkpt>
      <trkpt lat="45.93389" lon="4.72443">
        <ele>173</ele>
        <time>2016-10-12T16:06:47Z</time>
      </trkpt>
      <trkpt lat="45.93391" lon="4.7245">
        <ele>173</ele>
        <time>2016-10-12T16:06:48Z</time>
      </trkpt>
      <trkpt lat="45.9339" lon="4.72458">
        <ele>173</ele>
        <time>2016-10-12T16:06:49Z</time>
      </trkpt>
      <trkpt lat="45.93388" lon="4.72465">
        <ele>173</ele>
        <time>2016-10-12T16:06:50Z</time>
      </trkpt>
      <trkpt lat="45.93384" lon="4.72471">
        <ele>173</ele>
        <time>2016-10-12T16:06:51Z</time>
      </trkpt>
      <trkpt lat="45.9338" lon="4.72476">
        <ele>173</ele>
        <time>2016-10-12T16:06:52Z</time>
      </trkpt>
      <trkpt lat="45.93376" lon="4.72482">
        <ele>173</ele>
        <time>2016-10-12T16:06:53Z</time>
      </trkpt>
      <trkpt lat="45.93371" lon="4.72487">
        <ele>173</ele>
        <time>2016-10-12T16:06:54Z</time>
      </trkpt>
      <trkpt lat="45.93366" lon="4.72493">
        <ele>173</ele>
        <time>2016-10-12T16:06:55Z</time>
      </trkpt>
      <trkpt lat="45.93362" lon="4.72499">
        <ele>173</ele>
        <time>2016-10-12T16:06:56Z</time>
      </trkpt>
      <trkpt lat="45.93359" lon="4.72505">
        <ele>172</ele>
        <time>2016-10-12T16:06:57Z</time>
      </trkpt>
      <trkpt lat="45.93355" lon="4.72511">
        <ele>172</ele>
        <time>2016-10-12T16:06:58Z</time>
      </trkpt>
      <trkpt lat="45.9335" lon="4.72517">
        <ele>172</ele>
        <time>2016-10-12T16:06:59Z</time>
      </trkpt>
      <trkpt lat="45.93344" lon="4.72522">
        <ele>172</ele>
        <time>2016-10-12T16:07:00Z</time>
      </trkpt>
      <trkpt lat="45.93339" lon="4.72527">
        <ele>172</ele>
        <time>2016-10-12T16:07:01Z</time>
      </trkpt>
      <trkpt lat="45.93334" lon="4.72534">
        <ele>172</ele>
        <time>2016-10-12T16:07:02Z</time>
      </trkpt>
      <trkpt lat="45.93329" lon="4.7254">
        <ele>172</ele>
        <time>2016-10-12T16:07:03Z</time>
      </trkpt>
      <trkpt lat="45.93324" lon="4.72547">
        <ele>172</ele>
        <time>2016-10-12T16:07:04Z</time>
      </trkpt>
      <trkpt lat="45.93319" lon="4.72552">
        <ele>172</ele>
        <time>2016-10-12T16:07:05Z</time>
      </trkpt>
      <trkpt lat="45.93314" lon="4.72558">
        <ele>172</ele>
        <time>2016-10-12T16:07:06Z</time>
      </trkpt>
      <trkpt lat="45.93309" lon="4.72564">
        <ele>171</ele>
        <time>2016-10-12T16:07:07Z</time>
      </trkpt>
      <trkpt lat="45.93305" lon="4.7257">
        <ele>171</ele>
        <time>2016-10-12T16:07:08Z</time>
      </trkpt>
      <trkpt lat="45.933" lon="4.72576">
        <ele>171</ele>
        <time>2016-10-12T16:07:09Z</time>
      </trkpt>
      <trkpt lat="45.93294" lon="4.72582">
        <ele>171</ele>
        <time>2016-10-12T16:07:10Z</time>
      </trkpt>
      <trkpt lat="45.93289" lon="4.72588">
        <ele>170</ele>
        <time>2016-10-12T16:07:11Z</time>
      </trkpt>
      <trkpt lat="45.93284" lon="4.72593">
        <ele>170</ele>
        <time>2016-10-12T16:07:12Z</time>
      </trkpt>
      <trkpt lat="45.93279" lon="4.72598">
        <ele>170</ele>
        <time>2016-10-12T16:07:13Z</time>
      </trkpt>
      <trkpt lat="45.93274" lon="4.72603">
        <ele>170</ele>
        <time>2016-10-12T16:07:14Z</time>
      </trkpt>
      <trkpt lat="45.9327" lon="4.72608">
        <ele>170</ele>
        <time>2016-10-12T16:07:15Z</time>
      </trkpt>
      <trkpt lat="45.93266" lon="4.72613">
        <ele>170</ele>
        <time>2016-10-12T16:07:16Z</time>
      </trkpt>
      <trkpt lat="45.93261" lon="4.72619">
        <ele>170</ele>
        <time>2016-10-12T16:07:17Z</time>
      </trkpt>
      <trkpt lat="45.93256" lon="4.72624">
        <ele>170</ele>
        <time>2016-10-12T16:07:18Z</time>
      </trkpt>
      <trkpt lat="45.93251" lon="4.72629">
        <ele>170</ele>
        <time>2016-10-12T16:07:19Z</time>
      </trkpt>
      <trkpt lat="45.93247" lon="4.72634">
        <ele>170</ele>
        <time>2016-10-12T16:07:20Z</time>
      </trkpt>
      <trkpt lat="45.93242" lon="4.72639">
        <ele>170</ele>
        <time>2016-10-12T16:07:21Z</time>
      </trkpt>
      <trkpt lat="45.93238" lon="4.72644">
        <ele>170</ele>
        <time>2016-10-12T16:07:22Z</time>
      </trkpt>
      <trkpt lat="45.93234" lon="4.7265">
        <ele>170</ele>
        <time>2016-10-12T16:07:23Z</time>
      </trkpt>
      <trkpt lat="45.9323" lon="4.72653">
        <ele>170</ele>
        <time>2016-10-12T16:07:24Z</time>
      </trkpt>
      <trkpt lat="45.93226" lon="4.72658">
        <ele>170</ele>
        <time>2016-10-12T16:07:25Z</time>
      </trkpt>
      <trkpt lat="45.93222" lon="4.72662">
        <ele>170</ele>
        <time>2016-10-12T16:07:26Z</time>
      </trkpt>
      <trkpt lat="45.93219" lon="4.72666">
        <ele>170</ele>
        <time>2016-10-12T16:07:27Z</time>
      </trkpt>
      <trkpt lat="45.93212" lon="4.72674">
        <ele>169</ele>
        <time>2016-10-12T16:07:29Z</time>
      </trkpt>
      <trkpt lat="45.93209" lon="4.72678">
        <ele>169</ele>
        <time>2016-10-12T16:07:30Z</time>
      </trkpt>
      <trkpt lat="45.93202" lon="4.72685">
        <ele>169</ele>
        <time>2016-10-12T16:07:32Z</time>
      </trkpt>
      <trkpt lat="45.93199" lon="4.7269">
        <ele>169</ele>
        <time>2016-10-12T16:07:33Z</time>
      </trkpt>
      <trkpt lat="45.93195" lon="4.72694">
        <ele>169</ele>
        <time>2016-10-12T16:07:34Z</time>
      </trkpt>
      <trkpt lat="45.93191" lon="4.72698">
        <ele>169</ele>
        <time>2016-10-12T16:07:35Z</time>
      </trkpt>
      <trkpt lat="45.93187" lon="4.72703">
        <ele>169</ele>
        <time>2016-10-12T16:07:36Z</time>
      </trkpt>
      <trkpt lat="45.93182" lon="4.72707">
        <ele>169</ele>
        <time>2016-10-12T16:07:37Z</time>
      </trkpt>
      <trkpt lat="45.93178" lon="4.72712">
        <ele>169</ele>
        <time>2016-10-12T16:07:38Z</time>
      </trkpt>
      <trkpt lat="45.93173" lon="4.72717">
        <ele>170</ele>
        <time>2016-10-12T16:07:39Z</time>
      </trkpt>
      <trkpt lat="45.93169" lon="4.72721">
        <ele>170</ele>
        <time>2016-10-12T16:07:40Z</time>
      </trkpt>
      <trkpt lat="45.93165" lon="4.72726">
        <ele>170</ele>
        <time>2016-10-12T16:07:41Z</time>
      </trkpt>
      <trkpt lat="45.93161" lon="4.72731">
        <ele>170</ele>
        <time>2016-10-12T16:07:42Z</time>
      </trkpt>
      <trkpt lat="45.93157" lon="4.72736">
        <ele>170</ele>
        <time>2016-10-12T16:07:43Z</time>
      </trkpt>
      <trkpt lat="45.93153" lon="4.72741">
        <ele>170</ele>
        <time>2016-10-12T16:07:44Z</time>
      </trkpt>
      <trkpt lat="45.9315" lon="4.72746">
        <ele>170</ele>
        <time>2016-10-12T16:07:45Z</time>
      </trkpt>
      <trkpt lat="45.93146" lon="4.72751">
        <ele>170</ele>
        <time>2016-10-12T16:07:46Z</time>
      </trkpt>
      <trkpt lat="45.93143" lon="4.72755">
        <ele>171</ele>
        <time>2016-10-12T16:07:47Z</time>
      </trkpt>
      <trkpt lat="45.93138" lon="4.72762">
        <ele>171</ele>
        <time>2016-10-12T16:07:49Z</time>
      </trkpt>
      <trkpt lat="45.93135" lon="4.72765">
        <ele>171</ele>
        <time>2016-10-12T16:07:50Z</time>
      </trkpt>
      <trkpt lat="45.93132" lon="4.7277">
        <ele>171</ele>
        <time>2016-10-12T16:07:55Z</time>
      </trkpt>
      <trkpt lat="45.93131" lon="4.72771">
        <ele>171</ele>
        <time>2016-10-12T16:07:56Z</time>
      </trkpt>
      <trkpt lat="45.93122" lon="4.72775">
        <ele>171</ele>
        <time>2016-10-12T16:08:05Z</time>
      </trkpt>
      <trkpt lat="45.93121" lon="4.72775">
        <ele>171</ele>
        <time>2016-10-12T16:08:06Z</time>
      </trkpt>
      <trkpt lat="45.93121" lon="4.72775">
        <ele>171</ele>
        <time>2016-10-12T16:08:07Z</time>
      </trkpt>
      <trkpt lat="45.93121" lon="4.72777">
        <ele>171</ele>
        <time>2016-10-12T16:08:18Z</time>
      </trkpt>
      <trkpt lat="45.93119" lon="4.72781">
        <ele>171</ele>
        <time>2016-10-12T16:08:19Z</time>
      </trkpt>
      <trkpt lat="45.93115" lon="4.72788">
        <ele>171</ele>
        <time>2016-10-12T16:08:22Z</time>
      </trkpt>
      <trkpt lat="45.93113" lon="4.72791">
        <ele>171</ele>
        <time>2016-10-12T16:08:23Z</time>
      </trkpt>
      <trkpt lat="45.93107" lon="4.72797">
        <ele>171</ele>
        <time>2016-10-12T16:08:25Z</time>
      </trkpt>
      <trkpt lat="45.93104" lon="4.72801">
        <ele>171</ele>
        <time>2016-10-12T16:08:26Z</time>
      </trkpt>
      <trkpt lat="45.931" lon="4.72805">
        <ele>171</ele>
        <time>2016-10-12T16:08:27Z</time>
      </trkpt>
      <trkpt lat="45.93097" lon="4.7281">
        <ele>172</ele>
        <time>2016-10-12T16:08:28Z</time>
      </trkpt>
      <trkpt lat="45.93093" lon="4.72815">
        <ele>172</ele>
        <time>2016-10-12T16:08:29Z</time>
      </trkpt>
      <trkpt lat="45.9309" lon="4.72819">
        <ele>172</ele>
        <time>2016-10-12T16:08:30Z</time>
      </trkpt>
      <trkpt lat="45.93083" lon="4.72827">
        <ele>173</ele>
        <time>2016-10-12T16:08:32Z</time>
      </trkpt>
      <trkpt lat="45.9308" lon="4.7283">
        <ele>173</ele>
        <time>2016-10-12T16:08:33Z</time>
      </trkpt>
      <trkpt lat="45.93074" lon="4.72839">
        <ele>173</ele>
        <time>2016-10-12T16:08:35Z</time>
      </trkpt>
      <trkpt lat="45.93072" lon="4.72855">
        <ele>172</ele>
        <time>2016-10-12T16:08:36Z</time>
      </trkpt>
      <trkpt lat="45.9307" lon="4.72863">
        <ele>172</ele>
        <time>2016-10-12T16:08:37Z</time>
      </trkpt>
      <trkpt lat="45.93062" lon="4.72867">
        <ele>172</ele>
        <time>2016-10-12T16:08:38Z</time>
      </trkpt>
      <trkpt lat="45.93054" lon="4.7287">
        <ele>172</ele>
        <time>2016-10-12T16:08:39Z</time>
      </trkpt>
      <trkpt lat="45.93046" lon="4.72874">
        <ele>172</ele>
        <time>2016-10-12T16:08:40Z</time>
      </trkpt>
      <trkpt lat="45.93039" lon="4.72878">
        <ele>172</ele>
        <time>2016-10-12T16:08:41Z</time>
      </trkpt>
      <trkpt lat="45.93034" lon="4.72884">
        <ele>172</ele>
        <time>2016-10-12T16:08:42Z</time>
      </trkpt>
      <trkpt lat="45.93029" lon="4.72889">
        <ele>172</ele>
        <time>2016-10-12T16:08:43Z</time>
      </trkpt>
      <trkpt lat="45.93024" lon="4.72894">
        <ele>172</ele>
        <time>2016-10-12T16:08:44Z</time>
      </trkpt>
      <trkpt lat="45.93019" lon="4.729">
        <ele>172</ele>
        <time>2016-10-12T16:08:45Z</time>
      </trkpt>
      <trkpt lat="45.93014" lon="4.72905">
        <ele>172</ele>
        <time>2016-10-12T16:08:46Z</time>
      </trkpt>
      <trkpt lat="45.93009" lon="4.72911">
        <ele>171</ele>
        <time>2016-10-12T16:08:47Z</time>
      </trkpt>
      <trkpt lat="45.93005" lon="4.72916">
        <ele>171</ele>
        <time>2016-10-12T16:08:48Z</time>
      </trkpt>
      <trkpt lat="45.93" lon="4.72922">
        <ele>171</ele>
        <time>2016-10-12T16:08:49Z</time>
      </trkpt>
      <trkpt lat="45.92995" lon="4.72927">
        <ele>171</ele>
        <time>2016-10-12T16:08:50Z</time>
      </trkpt>
      <trkpt lat="45.92991" lon="4.72932">
        <ele>171</ele>
        <time>2016-10-12T16:08:51Z</time>
      </trkpt>
      <trkpt lat="45.92986" lon="4.72937">
        <ele>171</ele>
        <time>2016-10-12T16:08:52Z</time>
      </trkpt>
      <trkpt lat="45.92982" lon="4.72943">
        <ele>171</ele>
        <time>2016-10-12T16:08:53Z</time>
      </trkpt>
      <trkpt lat="45.92977" lon="4.72948">
        <ele>171</ele>
        <time>2016-10-12T16:08:54Z</time>
      </trkpt>
      <trkpt lat="45.92973" lon="4.72953">
        <ele>171</ele>
        <time>2016-10-12T16:08:55Z</time>
      </trkpt>
      <trkpt lat="45.92969" lon="4.72956">
        <ele>171</ele>
        <time>2016-10-12T16:08:56Z</time>
      </trkpt>
      <trkpt lat="45.92965" lon="4.72962">
        <ele>171</ele>
        <time>2016-10-12T16:08:57Z</time>
      </trkpt>
      <trkpt lat="45.92961" lon="4.72967">
        <ele>171</ele>
        <time>2016-10-12T16:08:58Z</time>
      </trkpt>
      <trkpt lat="45.92956" lon="4.72972">
        <ele>171</ele>
        <time>2016-10-12T16:08:59Z</time>
      </trkpt>
      <trkpt lat="45.92952" lon="4.72977">
        <ele>171</ele>
        <time>2016-10-12T16:09:00Z</time>
      </trkpt>
      <trkpt lat="45.92947" lon="4.72983">
        <ele>171</ele>
        <time>2016-10-12T16:09:01Z</time>
      </trkpt>
      <trkpt lat="45.92943" lon="4.72988">
        <ele>171</ele>
        <time>2016-10-12T16:09:02Z</time>
      </trkpt>
      <trkpt lat="45.92939" lon="4.72993">
        <ele>171</ele>
        <time>2016-10-12T16:09:03Z</time>
      </trkpt>
      <trkpt lat="45.92934" lon="4.72998">
        <ele>172</ele>
        <time>2016-10-12T16:09:04Z</time>
      </trkpt>
      <trkpt lat="45.9293" lon="4.73004">
        <ele>172</ele>
        <time>2016-10-12T16:09:05Z</time>
      </trkpt>
      <trkpt lat="45.92925" lon="4.73009">
        <ele>172</ele>
        <time>2016-10-12T16:09:06Z</time>
      </trkpt>
      <trkpt lat="45.9292" lon="4.73015">
        <ele>172</ele>
        <time>2016-10-12T16:09:07Z</time>
      </trkpt>
      <trkpt lat="45.92915" lon="4.73021">
        <ele>172</ele>
        <time>2016-10-12T16:09:08Z</time>
      </trkpt>
      <trkpt lat="45.9291" lon="4.73028">
        <ele>172</ele>
        <time>2016-10-12T16:09:09Z</time>
      </trkpt>
      <trkpt lat="45.92905" lon="4.73034">
        <ele>172</ele>
        <time>2016-10-12T16:09:10Z</time>
      </trkpt>
      <trkpt lat="45.92901" lon="4.7304">
        <ele>172</ele>
        <time>2016-10-12T16:09:11Z</time>
      </trkpt>
      <trkpt lat="45.92897" lon="4.73046">
        <ele>172</ele>
        <time>2016-10-12T16:09:12Z</time>
      </trkpt>
      <trkpt lat="45.92892" lon="4.73054">
        <ele>172</ele>
        <time>2016-10-12T16:09:13Z</time>
      </trkpt>
      <trkpt lat="45.92888" lon="4.73061">
        <ele>172</ele>
        <time>2016-10-12T16:09:14Z</time>
      </trkpt>
      <trkpt lat="45.92885" lon="4.73068">
        <ele>172</ele>
        <time>2016-10-12T16:09:15Z</time>
      </trkpt>
      <trkpt lat="45.92881" lon="4.73075">
        <ele>172</ele>
        <time>2016-10-12T16:09:16Z</time>
      </trkpt>
      <trkpt lat="45.92878" lon="4.73083">
        <ele>172</ele>
        <time>2016-10-12T16:09:17Z</time>
      </trkpt>
      <trkpt lat="45.92875" lon="4.73091">
        <ele>172</ele>
        <time>2016-10-12T16:09:18Z</time>
      </trkpt>
      <trkpt lat="45.92873" lon="4.731">
        <ele>172</ele>
        <time>2016-10-12T16:09:19Z</time>
      </trkpt>
      <trkpt lat="45.9287" lon="4.73108">
        <ele>172</ele>
        <time>2016-10-12T16:09:20Z</time>
      </trkpt>
      <trkpt lat="45.92868" lon="4.73117">
        <ele>171</ele>
        <time>2016-10-12T16:09:21Z</time>
      </trkpt>
      <trkpt lat="45.92866" lon="4.73127">
        <ele>171</ele>
        <time>2016-10-12T16:09:22Z</time>
      </trkpt>
      <trkpt lat="45.92864" lon="4.73136">
        <ele>171</ele>
        <time>2016-10-12T16:09:23Z</time>
      </trkpt>
      <trkpt lat="45.92863" lon="4.73145">
        <ele>171</ele>
        <time>2016-10-12T16:09:24Z</time>
      </trkpt>
      <trkpt lat="45.92862" lon="4.73154">
        <ele>171</ele>
        <time>2016-10-12T16:09:25Z</time>
      </trkpt>
      <trkpt lat="45.92861" lon="4.7316">
        <ele>171</ele>
        <time>2016-10-12T16:09:26Z</time>
      </trkpt>
      <trkpt lat="45.92859" lon="4.73167">
        <ele>171</ele>
        <time>2016-10-12T16:09:27Z</time>
      </trkpt>
      <trkpt lat="45.92859" lon="4.73175">
        <ele>171</ele>
        <time>2016-10-12T16:09:28Z</time>
      </trkpt>
      <trkpt lat="45.92857" lon="4.73187">
        <ele>171</ele>
        <time>2016-10-12T16:09:29Z</time>
      </trkpt>
      <trkpt lat="45.92856" lon="4.73196">
        <ele>171</ele>
        <time>2016-10-12T16:09:30Z</time>
      </trkpt>
      <trkpt lat="45.92855" lon="4.73208">
        <ele>171</ele>
        <time>2016-10-12T16:09:31Z</time>
      </trkpt>
      <trkpt lat="45.92854" lon="4.73218">
        <ele>171</ele>
        <time>2016-10-12T16:09:32Z</time>
      </trkpt>
      <trkpt lat="45.92854" lon="4.73226">
        <ele>171</ele>
        <time>2016-10-12T16:09:33Z</time>
      </trkpt>
      <trkpt lat="45.92853" lon="4.73233">
        <ele>171</ele>
        <time>2016-10-12T16:09:34Z</time>
      </trkpt>
      <trkpt lat="45.92852" lon="4.73243">
        <ele>171</ele>
        <time>2016-10-12T16:09:35Z</time>
      </trkpt>
      <trkpt lat="45.9285" lon="4.73251">
        <ele>171</ele>
        <time>2016-10-12T16:09:36Z</time>
      </trkpt>
      <trkpt lat="45.92849" lon="4.7326">
        <ele>171</ele>
        <time>2016-10-12T16:09:37Z</time>
      </trkpt>
      <trkpt lat="45.92849" lon="4.7327">
        <ele>171</ele>
        <time>2016-10-12T16:09:38Z</time>
      </trkpt>
      <trkpt lat="45.92848" lon="4.73279">
        <ele>171</ele>
        <time>2016-10-12T16:09:39Z</time>
      </trkpt>
      <trkpt lat="45.92847" lon="4.73286">
        <ele>171</ele>
        <time>2016-10-12T16:09:40Z</time>
      </trkpt>
      <trkpt lat="45.92847" lon="4.73295">
        <ele>171</ele>
        <time>2016-10-12T16:09:41Z</time>
      </trkpt>
      <trkpt lat="45.92847" lon="4.73305">
        <ele>171</ele>
        <time>2016-10-12T16:09:42Z</time>
      </trkpt>
      <trkpt lat="45.92846" lon="4.73316">
        <ele>171</ele>
        <time>2016-10-12T16:09:43Z</time>
      </trkpt>
      <trkpt lat="45.92845" lon="4.73325">
        <ele>171</ele>
        <time>2016-10-12T16:09:44Z</time>
      </trkpt>
      <trkpt lat="45.92844" lon="4.73334">
        <ele>171</ele>
        <time>2016-10-12T16:09:45Z</time>
      </trkpt>
      <trkpt lat="45.92843" lon="4.73343">
        <ele>171</ele>
        <time>2016-10-12T16:09:46Z</time>
      </trkpt>
      <trkpt lat="45.92841" lon="4.73351">
        <ele>171</ele>
        <time>2016-10-12T16:09:47Z</time>
      </trkpt>
      <trkpt lat="45.9284" lon="4.73358">
        <ele>171</ele>
        <time>2016-10-12T16:09:48Z</time>
      </trkpt>
      <trkpt lat="45.92838" lon="4.73367">
        <ele>171</ele>
        <time>2016-10-12T16:09:49Z</time>
      </trkpt>
      <trkpt lat="45.92837" lon="4.73376">
        <ele>172</ele>
        <time>2016-10-12T16:09:50Z</time>
      </trkpt>
      <trkpt lat="45.92836" lon="4.73384">
        <ele>172</ele>
        <time>2016-10-12T16:09:51Z</time>
      </trkpt>
      <trkpt lat="45.92835" lon="4.73393">
        <ele>172</ele>
        <time>2016-10-12T16:09:52Z</time>
      </trkpt>
      <trkpt lat="45.92834" lon="4.734">
        <ele>172</ele>
        <time>2016-10-12T16:09:53Z</time>
      </trkpt>
      <trkpt lat="45.92833" lon="4.73407">
        <ele>172</ele>
        <time>2016-10-12T16:09:54Z</time>
      </trkpt>
      <trkpt lat="45.92832" lon="4.73415">
        <ele>172</ele>
        <time>2016-10-12T16:09:55Z</time>
      </trkpt>
      <trkpt lat="45.92832" lon="4.73422">
        <ele>172</ele>
        <time>2016-10-12T16:09:56Z</time>
      </trkpt>
      <trkpt lat="45.92831" lon="4.7343">
        <ele>172</ele>
        <time>2016-10-12T16:09:57Z</time>
      </trkpt>
      <trkpt lat="45.9283" lon="4.73438">
        <ele>172</ele>
        <time>2016-10-12T16:09:58Z</time>
      </trkpt>
      <trkpt lat="45.92829" lon="4.73445">
        <ele>172</ele>
        <time>2016-10-12T16:09:59Z</time>
      </trkpt>
      <trkpt lat="45.92828" lon="4.73452">
        <ele>172</ele>
        <time>2016-10-12T16:10:00Z</time>
      </trkpt>
      <trkpt lat="45.92827" lon="4.7346">
        <ele>172</ele>
        <time>2016-10-12T16:10:01Z</time>
      </trkpt>
      <trkpt lat="45.92827" lon="4.73471">
        <ele>172</ele>
        <time>2016-10-12T16:10:02Z</time>
      </trkpt>
      <trkpt lat="45.92827" lon="4.73479">
        <ele>172</ele>
        <time>2016-10-12T16:10:03Z</time>
      </trkpt>
      <trkpt lat="45.92827" lon="4.73488">
        <ele>172</ele>
        <time>2016-10-12T16:10:04Z</time>
      </trkpt>
      <trkpt lat="45.92826" lon="4.73495">
        <ele>172</ele>
        <time>2016-10-12T16:10:05Z</time>
      </trkpt>
      <trkpt lat="45.92825" lon="4.73502">
        <ele>172</ele>
        <time>2016-10-12T16:10:06Z</time>
      </trkpt>
      <trkpt lat="45.92823" lon="4.73509">
        <ele>172</ele>
        <time>2016-10-12T16:10:07Z</time>
      </trkpt>
      <trkpt lat="45.92821" lon="4.73515">
        <ele>172</ele>
        <time>2016-10-12T16:10:08Z</time>
      </trkpt>
      <trkpt lat="45.9282" lon="4.73521">
        <ele>172</ele>
        <time>2016-10-12T16:10:09Z</time>
      </trkpt>
      <trkpt lat="45.92819" lon="4.73529">
        <ele>172</ele>
        <time>2016-10-12T16:10:10Z</time>
      </trkpt>
      <trkpt lat="45.92818" lon="4.73537">
        <ele>172</ele>
        <time>2016-10-12T16:10:11Z</time>
      </trkpt>
      <trkpt lat="45.92818" lon="4.73546">
        <ele>171</ele>
        <time>2016-10-12T16:10:12Z</time>
      </trkpt>
      <trkpt lat="45.92818" lon="4.73554">
        <ele>171</ele>
        <time>2016-10-12T16:10:13Z</time>
      </trkpt>
      <trkpt lat="45.92817" lon="4.73561">
        <ele>171</ele>
        <time>2016-10-12T16:10:14Z</time>
      </trkpt>
      <trkpt lat="45.92817" lon="4.73569">
        <ele>171</ele>
        <time>2016-10-12T16:10:15Z</time>
      </trkpt>
      <trkpt lat="45.92817" lon="4.73576">
        <ele>171</ele>
        <time>2016-10-12T16:10:16Z</time>
      </trkpt>
      <trkpt lat="45.92817" lon="4.73588">
        <ele>171</ele>
        <time>2016-10-12T16:10:18Z</time>
      </trkpt>
      <trkpt lat="45.92818" lon="4.73595">
        <ele>171</ele>
        <time>2016-10-12T16:10:19Z</time>
      </trkpt>
      <trkpt lat="45.92818" lon="4.73601">
        <ele>171</ele>
        <time>2016-10-12T16:10:20Z</time>
      </trkpt>
      <trkpt lat="45.92818" lon="4.73609">
        <ele>172</ele>
        <time>2016-10-12T16:10:21Z</time>
      </trkpt>
      <trkpt lat="45.92816" lon="4.73617">
        <ele>172</ele>
        <time>2016-10-12T16:10:22Z</time>
      </trkpt>
      <trkpt lat="45.92813" lon="4.73625">
        <ele>172</ele>
        <time>2016-10-12T16:10:23Z</time>
      </trkpt>
      <trkpt lat="45.92809" lon="4.73633">
        <ele>172</ele>
        <time>2016-10-12T16:10:24Z</time>
      </trkpt>
      <trkpt lat="45.92805" lon="4.73638">
        <ele>172</ele>
        <time>2016-10-12T16:10:25Z</time>
      </trkpt>
      <trkpt lat="45.92803" lon="4.73645">
        <ele>172</ele>
        <time>2016-10-12T16:10:26Z</time>
      </trkpt>
      <trkpt lat="45.92801" lon="4.73653">
        <ele>172</ele>
        <time>2016-10-12T16:10:27Z</time>
      </trkpt>
      <trkpt lat="45.92799" lon="4.73661">
        <ele>172</ele>
        <time>2016-10-12T16:10:28Z</time>
      </trkpt>
      <trkpt lat="45.92797" lon="4.73669">
        <ele>172</ele>
        <time>2016-10-12T16:10:29Z</time>
      </trkpt>
      <trkpt lat="45.92796" lon="4.73676">
        <ele>172</ele>
        <time>2016-10-12T16:10:30Z</time>
      </trkpt>
      <trkpt lat="45.92793" lon="4.73683">
        <ele>172</ele>
        <time>2016-10-12T16:10:31Z</time>
      </trkpt>
      <trkpt lat="45.92791" lon="4.7369">
        <ele>172</ele>
        <time>2016-10-12T16:10:32Z</time>
      </trkpt>
      <trkpt lat="45.9279" lon="4.73698">
        <ele>172</ele>
        <time>2016-10-12T16:10:33Z</time>
      </trkpt>
      <trkpt lat="45.92788" lon="4.73704">
        <ele>172</ele>
        <time>2016-10-12T16:10:34Z</time>
      </trkpt>
      <trkpt lat="45.92787" lon="4.73711">
        <ele>172</ele>
        <time>2016-10-12T16:10:35Z</time>
      </trkpt>
      <trkpt lat="45.92786" lon="4.73723">
        <ele>172</ele>
        <time>2016-10-12T16:10:37Z</time>
      </trkpt>
      <trkpt lat="45.92784" lon="4.73727">
        <ele>172</ele>
        <time>2016-10-12T16:10:38Z</time>
      </trkpt>
      <trkpt lat="45.92775" lon="4.73731">
        <ele>172</ele>
        <time>2016-10-12T16:10:40Z</time>
      </trkpt>
      <trkpt lat="45.92771" lon="4.7373">
        <ele>172</ele>
        <time>2016-10-12T16:10:41Z</time>
      </trkpt>
      <trkpt lat="45.92766" lon="4.73729">
        <ele>172</ele>
        <time>2016-10-12T16:10:42Z</time>
      </trkpt>
      <trkpt lat="45.9276" lon="4.73729">
        <ele>172</ele>
        <time>2016-10-12T16:10:43Z</time>
      </trkpt>
      <trkpt lat="45.92754" lon="4.73728">
        <ele>172</ele>
        <time>2016-10-12T16:10:44Z</time>
      </trkpt>
      <trkpt lat="45.92749" lon="4.73728">
        <ele>173</ele>
        <time>2016-10-12T16:10:45Z</time>
      </trkpt>
      <trkpt lat="45.92744" lon="4.73727">
        <ele>173</ele>
        <time>2016-10-12T16:10:46Z</time>
      </trkpt>
      <trkpt lat="45.92739" lon="4.73727">
        <ele>173</ele>
        <time>2016-10-12T16:10:47Z</time>
      </trkpt>
      <trkpt lat="45.92733" lon="4.73724">
        <ele>173</ele>
        <time>2016-10-12T16:10:48Z</time>
      </trkpt>
      <trkpt lat="45.92728" lon="4.73723">
        <ele>173</ele>
        <time>2016-10-12T16:10:49Z</time>
      </trkpt>
      <trkpt lat="45.92722" lon="4.73721">
        <ele>173</ele>
        <time>2016-10-12T16:10:50Z</time>
      </trkpt>
      <trkpt lat="45.92717" lon="4.73719">
        <ele>173</ele>
        <time>2016-10-12T16:10:51Z</time>
      </trkpt>
      <trkpt lat="45.92712" lon="4.73717">
        <ele>173</ele>
        <time>2016-10-12T16:10:52Z</time>
      </trkpt>
      <trkpt lat="45.92708" lon="4.73715">
        <ele>173</ele>
        <time>2016-10-12T16:10:53Z</time>
      </trkpt>
      <trkpt lat="45.92702" lon="4.73713">
        <ele>173</ele>
        <time>2016-10-12T16:10:54Z</time>
      </trkpt>
      <trkpt lat="45.92698" lon="4.7371">
        <ele>173</ele>
        <time>2016-10-12T16:10:55Z</time>
      </trkpt>
      <trkpt lat="45.92693" lon="4.73709">
        <ele>173</ele>
        <time>2016-10-12T16:10:56Z</time>
      </trkpt>
      <trkpt lat="45.92689" lon="4.73708">
        <ele>173</ele>
        <time>2016-10-12T16:10:57Z</time>
      </trkpt>
      <trkpt lat="45.92684" lon="4.73707">
        <ele>173</ele>
        <time>2016-10-12T16:10:58Z</time>
      </trkpt>
      <trkpt lat="45.92679" lon="4.73705">
        <ele>173</ele>
        <time>2016-10-12T16:10:59Z</time>
      </trkpt>
      <trkpt lat="45.92673" lon="4.73704">
        <ele>174</ele>
        <time>2016-10-12T16:11:00Z</time>
      </trkpt>
      <trkpt lat="45.92668" lon="4.73701">
        <ele>174</ele>
        <time>2016-10-12T16:11:01Z</time>
      </trkpt>
      <trkpt lat="45.92663" lon="4.73698">
        <ele>173</ele>
        <time>2016-10-12T16:11:02Z</time>
      </trkpt>
      <trkpt lat="45.92659" lon="4.73695">
        <ele>173</ele>
        <time>2016-10-12T16:11:03Z</time>
      </trkpt>
      <trkpt lat="45.92655" lon="4.73689">
        <ele>173</ele>
        <time>2016-10-12T16:11:04Z</time>
      </trkpt>
      <trkpt lat="45.92652" lon="4.73683">
        <ele>173</ele>
        <time>2016-10-12T16:11:05Z</time>
      </trkpt>
      <trkpt lat="45.92649" lon="4.73676">
        <ele>173</ele>
        <time>2016-10-12T16:11:06Z</time>
      </trkpt>
      <trkpt lat="45.92644" lon="4.7367">
        <ele>173</ele>
        <time>2016-10-12T16:11:07Z</time>
      </trkpt>
      <trkpt lat="45.92641" lon="4.73663">
        <ele>173</ele>
        <time>2016-10-12T16:11:08Z</time>
      </trkpt>
      <trkpt lat="45.92639" lon="4.73657">
        <ele>173</ele>
        <time>2016-10-12T16:11:09Z</time>
      </trkpt>
      <trkpt lat="45.92636" lon="4.73652">
        <ele>173</ele>
        <time>2016-10-12T16:11:10Z</time>
      </trkpt>
      <trkpt lat="45.92632" lon="4.73647">
        <ele>173</ele>
        <time>2016-10-12T16:11:11Z</time>
      </trkpt>
      <trkpt lat="45.92628" lon="4.73641">
        <ele>173</ele>
        <time>2016-10-12T16:11:12Z</time>
      </trkpt>
      <trkpt lat="45.92622" lon="4.73635">
        <ele>173</ele>
        <time>2016-10-12T16:11:13Z</time>
      </trkpt>
      <trkpt lat="45.92617" lon="4.73629">
        <ele>173</ele>
        <time>2016-10-12T16:11:14Z</time>
      </trkpt>
      <trkpt lat="45.92611" lon="4.73626">
        <ele>173</ele>
        <time>2016-10-12T16:11:15Z</time>
      </trkpt>
      <trkpt lat="45.92607" lon="4.73623">
        <ele>173</ele>
        <time>2016-10-12T16:11:16Z</time>
      </trkpt>
      <trkpt lat="45.92602" lon="4.73621">
        <ele>173</ele>
        <time>2016-10-12T16:11:17Z</time>
      </trkpt>
      <trkpt lat="45.92596" lon="4.73621">
        <ele>173</ele>
        <time>2016-10-12T16:11:18Z</time>
      </trkpt>
      <trkpt lat="45.92591" lon="4.73622">
        <ele>173</ele>
        <time>2016-10-12T16:11:19Z</time>
      </trkpt>
      <trkpt lat="45.92586" lon="4.73621">
        <ele>173</ele>
        <time>2016-10-12T16:11:20Z</time>
      </trkpt>
      <trkpt lat="45.92582" lon="4.73622">
        <ele>173</ele>
        <time>2016-10-12T16:11:21Z</time>
      </trkpt>
      <trkpt lat="45.92577" lon="4.73622">
        <ele>173</ele>
        <time>2016-10-12T16:11:22Z</time>
      </trkpt>
      <trkpt lat="45.92571" lon="4.73623">
        <ele>173</ele>
        <time>2016-10-12T16:11:23Z</time>
      </trkpt>
      <trkpt lat="45.92566" lon="4.73624">
        <ele>173</ele>
        <time>2016-10-12T16:11:24Z</time>
      </trkpt>
      <trkpt lat="45.92561" lon="4.73627">
        <ele>173</ele>
        <time>2016-10-12T16:11:25Z</time>
      </trkpt>
      <trkpt lat="45.92556" lon="4.73629">
        <ele>173</ele>
        <time>2016-10-12T16:11:26Z</time>
      </trkpt>
      <trkpt lat="45.92551" lon="4.7363">
        <ele>173</ele>
        <time>2016-10-12T16:11:27Z</time>
      </trkpt>
      <trkpt lat="45.92544" lon="4.73632">
        <ele>173</ele>
        <time>2016-10-12T16:11:28Z</time>
      </trkpt>
      <trkpt lat="45.92538" lon="4.73633">
        <ele>173</ele>
        <time>2016-10-12T16:11:29Z</time>
      </trkpt>
      <trkpt lat="45.92532" lon="4.73634">
        <ele>173</ele>
        <time>2016-10-12T16:11:30Z</time>
      </trkpt>
      <trkpt lat="45.92526" lon="4.73635">
        <ele>173</ele>
        <time>2016-10-12T16:11:31Z</time>
      </trkpt>
      <trkpt lat="45.92521" lon="4.73635">
        <ele>173</ele>
        <time>2016-10-12T16:11:32Z</time>
      </trkpt>
      <trkpt lat="45.92517" lon="4.73635">
        <ele>173</ele>
        <time>2016-10-12T16:11:33Z</time>
      </trkpt>
      <trkpt lat="45.92509" lon="4.73636">
        <ele>174</ele>
        <time>2016-10-12T16:11:35Z</time>
      </trkpt>
      <trkpt lat="45.92506" lon="4.73636">
        <ele>174</ele>
        <time>2016-10-12T16:11:36Z</time>
      </trkpt>
      <trkpt lat="45.925" lon="4.73635">
        <ele>174</ele>
        <time>2016-10-12T16:11:38Z</time>
      </trkpt>
      <trkpt lat="45.92496" lon="4.73635">
        <ele>174</ele>
        <time>2016-10-12T16:11:39Z</time>
      </trkpt>
      <trkpt lat="45.92489" lon="4.73635">
        <ele>174</ele>
        <time>2016-10-12T16:11:41Z</time>
      </trkpt>
      <trkpt lat="45.92486" lon="4.73635">
        <ele>174</ele>
        <time>2016-10-12T16:11:42Z</time>
      </trkpt>
      <trkpt lat="45.92479" lon="4.73636">
        <ele>174</ele>
        <time>2016-10-12T16:11:44Z</time>
      </trkpt>
      <trkpt lat="45.92476" lon="4.73637">
        <ele>174</ele>
        <time>2016-10-12T16:11:45Z</time>
      </trkpt>
      <trkpt lat="45.92471" lon="4.73646">
        <ele>174</ele>
        <time>2016-10-12T16:11:48Z</time>
      </trkpt>
      <trkpt lat="45.92471" lon="4.73652">
        <ele>174</ele>
        <time>2016-10-12T16:11:49Z</time>
      </trkpt>
      <trkpt lat="45.9247" lon="4.73661">
        <ele>174</ele>
        <time>2016-10-12T16:11:51Z</time>
      </trkpt>
      <trkpt lat="45.92469" lon="4.73666">
        <ele>174</ele>
        <time>2016-10-12T16:11:52Z</time>
      </trkpt>
      <trkpt lat="45.92468" lon="4.73676">
        <ele>174</ele>
        <time>2016-10-12T16:11:54Z</time>
      </trkpt>
      <trkpt lat="45.92467" lon="4.73681">
        <ele>174</ele>
        <time>2016-10-12T16:11:55Z</time>
      </trkpt>
      <trkpt lat="45.92465" lon="4.7369">
        <ele>174</ele>
        <time>2016-10-12T16:11:57Z</time>
      </trkpt>
      <trkpt lat="45.92465" lon="4.73695">
        <ele>174</ele>
        <time>2016-10-12T16:11:58Z</time>
      </trkpt>
      <trkpt lat="45.92465" lon="4.73705">
        <ele>174</ele>
        <time>2016-10-12T16:12:01Z</time>
      </trkpt>
      <trkpt lat="45.92466" lon="4.73705">
        <ele>174</ele>
        <time>2016-10-12T16:12:02Z</time>
      </trkpt>
      <trkpt lat="45.92462" lon="4.73708">
        <ele>174</ele>
        <time>2016-10-12T16:12:11Z</time>
      </trkpt>
      <trkpt lat="45.92462" lon="4.73708">
        <ele>174</ele>
        <time>2016-10-12T16:12:12Z</time>
      </trkpt>
      <trkpt lat="45.92458" lon="4.73708">
        <ele>174</ele>
        <time>2016-10-12T16:12:33.896Z</time>
      </trkpt>
    </trkseg>
  </trk>
</gpx>